<?xml version="1.0" encoding="UTF-8" standalone="no" ?>
<gpx xmlns="http://www.topografix.com/GPX/1/1" xmlns:xsi="http://www.w3.org/2001/XMLSchema-instance" xsi:schemaLocation="http://www.topografix.com/GPX/1/1 http://www.topografix.com/GPX/1/1/gpx.xsd" version="1.1" creator="VisuGPX - https://www.visugpx.com">
  <metadata>
    <name>GRF Trace complet 2023</name>
  </metadata>
  <trk>
    <name><![CDATA[GRF Trace complet sur TraceDeTrail.fr]]></name>
    <trkseg>
      <trkpt lat="48.23172" lon="-4.35673">
        <ele>90</ele>
        <time>2000-01-01T00:05:44.000Z</time>
      </trkpt>
      <trkpt lat="48.2316" lon="-4.35671">
        <ele>92.8</ele>
        <time>2000-01-01T00:05:54.000Z</time>
      </trkpt>
      <trkpt lat="48.23155" lon="-4.35663">
        <ele>90</ele>
        <time>2000-01-01T00:06:04.000Z</time>
      </trkpt>
      <trkpt lat="48.23125" lon="-4.35657">
        <ele>84</ele>
        <time>2000-01-01T00:06:14.000Z</time>
      </trkpt>
      <trkpt lat="48.23095" lon="-4.35652">
        <ele>82</ele>
        <time>2000-01-01T00:06:24.000Z</time>
      </trkpt>
      <trkpt lat="48.23072" lon="-4.35653">
        <ele>82</ele>
        <time>2000-01-01T00:06:34.000Z</time>
      </trkpt>
      <trkpt lat="48.23048" lon="-4.35653">
        <ele>79</ele>
        <time>2000-01-01T00:06:44.000Z</time>
      </trkpt>
      <trkpt lat="48.23019" lon="-4.35653">
        <ele>76</ele>
        <time>2000-01-01T00:06:54.000Z</time>
      </trkpt>
      <trkpt lat="48.22993" lon="-4.35652">
        <ele>76</ele>
        <time>2000-01-01T00:07:04.000Z</time>
      </trkpt>
      <trkpt lat="48.22956" lon="-4.35651">
        <ele>76</ele>
        <time>2000-01-01T00:07:14.000Z</time>
      </trkpt>
      <trkpt lat="48.22944" lon="-4.35695">
        <ele>77</ele>
        <time>2000-01-01T00:07:24.000Z</time>
      </trkpt>
      <trkpt lat="48.22933" lon="-4.35738">
        <ele>77</ele>
        <time>2000-01-01T00:07:34.000Z</time>
      </trkpt>
      <trkpt lat="48.22917" lon="-4.35796">
        <ele>77</ele>
        <time>2000-01-01T00:07:44.000Z</time>
      </trkpt>
      <trkpt lat="48.22908" lon="-4.35828">
        <ele>78</ele>
        <time>2000-01-01T00:07:54.000Z</time>
      </trkpt>
      <trkpt lat="48.22899" lon="-4.35861">
        <ele>76</ele>
        <time>2000-01-01T00:08:04.000Z</time>
      </trkpt>
      <trkpt lat="48.22889" lon="-4.35902">
        <ele>74</ele>
        <time>2000-01-01T00:08:14.000Z</time>
      </trkpt>
      <trkpt lat="48.22884" lon="-4.35916">
        <ele>76.8</ele>
        <time>2000-01-01T00:08:24.000Z</time>
      </trkpt>
      <trkpt lat="48.22862" lon="-4.36005">
        <ele>72</ele>
        <time>2000-01-01T00:08:34.000Z</time>
      </trkpt>
      <trkpt lat="48.22852" lon="-4.3605">
        <ele>66</ele>
        <time>2000-01-01T00:08:44.000Z</time>
      </trkpt>
      <trkpt lat="48.22842" lon="-4.36094">
        <ele>60</ele>
        <time>2000-01-01T00:08:54.000Z</time>
      </trkpt>
      <trkpt lat="48.22828" lon="-4.36154">
        <ele>60</ele>
        <time>2000-01-01T00:09:04.000Z</time>
      </trkpt>
      <trkpt lat="48.22814" lon="-4.36188">
        <ele>62</ele>
        <time>2000-01-01T00:09:14.000Z</time>
      </trkpt>
      <trkpt lat="48.22795" lon="-4.36226">
        <ele>62</ele>
        <time>2000-01-01T00:09:24.000Z</time>
      </trkpt>
      <trkpt lat="48.22774" lon="-4.36257">
        <ele>58</ele>
        <time>2000-01-01T00:09:34.000Z</time>
      </trkpt>
      <trkpt lat="48.22734" lon="-4.36317">
        <ele>55</ele>
        <time>2000-01-01T00:09:44.000Z</time>
      </trkpt>
      <trkpt lat="48.22717" lon="-4.36341">
        <ele>56</ele>
        <time>2000-01-01T00:09:54.000Z</time>
      </trkpt>
      <trkpt lat="48.22722" lon="-4.36354">
        <ele>59.7</ele>
        <time>2000-01-01T00:10:04.000Z</time>
      </trkpt>
      <trkpt lat="48.22721" lon="-4.36354">
        <ele>59.6</ele>
        <time>2000-01-01T00:10:14.000Z</time>
      </trkpt>
      <trkpt lat="48.22769" lon="-4.36366">
        <ele>56</ele>
        <time>2000-01-01T00:10:24.000Z</time>
      </trkpt>
      <trkpt lat="48.22773" lon="-4.36373">
        <ele>65.6</ele>
        <time>2000-01-01T00:10:34.000Z</time>
      </trkpt>
      <trkpt lat="48.22775" lon="-4.36382">
        <ele>65.8</ele>
        <time>2000-01-01T00:10:44.000Z</time>
      </trkpt>
      <trkpt lat="48.22767" lon="-4.36418">
        <ele>56</ele>
        <time>2000-01-01T00:10:54.000Z</time>
      </trkpt>
      <trkpt lat="48.2275" lon="-4.36473">
        <ele>56</ele>
        <time>2000-01-01T00:11:04.000Z</time>
      </trkpt>
      <trkpt lat="48.22739" lon="-4.36506">
        <ele>56</ele>
        <time>2000-01-01T00:11:14.000Z</time>
      </trkpt>
      <trkpt lat="48.22725" lon="-4.36543">
        <ele>53</ele>
        <time>2000-01-01T00:11:24.000Z</time>
      </trkpt>
      <trkpt lat="48.22702" lon="-4.36607">
        <ele>51</ele>
        <time>2000-01-01T00:11:34.000Z</time>
      </trkpt>
      <trkpt lat="48.22694" lon="-4.36635">
        <ele>50</ele>
        <time>2000-01-01T00:11:44.000Z</time>
      </trkpt>
      <trkpt lat="48.22684" lon="-4.36647">
        <ele>61.8</ele>
        <time>2000-01-01T00:11:54.000Z</time>
      </trkpt>
      <trkpt lat="48.22662" lon="-4.36587">
        <ele>46</ele>
        <time>2000-01-01T00:12:04.000Z</time>
      </trkpt>
      <trkpt lat="48.22645" lon="-4.36562">
        <ele>46</ele>
        <time>2000-01-01T00:12:14.000Z</time>
      </trkpt>
      <trkpt lat="48.22626" lon="-4.36536">
        <ele>49</ele>
        <time>2000-01-01T00:12:24.000Z</time>
      </trkpt>
      <trkpt lat="48.22605" lon="-4.3651">
        <ele>47</ele>
        <time>2000-01-01T00:12:34.000Z</time>
      </trkpt>
      <trkpt lat="48.22571" lon="-4.36471">
        <ele>47</ele>
        <time>2000-01-01T00:12:44.000Z</time>
      </trkpt>
      <trkpt lat="48.22568" lon="-4.36484">
        <ele>49.6</ele>
        <time>2000-01-01T00:12:54.000Z</time>
      </trkpt>
      <trkpt lat="48.22497" lon="-4.36612">
        <ele>47</ele>
        <time>2000-01-01T00:13:04.000Z</time>
      </trkpt>
      <trkpt lat="48.22476" lon="-4.36629">
        <ele>46</ele>
        <time>2000-01-01T00:13:14.000Z</time>
      </trkpt>
      <trkpt lat="48.22451" lon="-4.36648">
        <ele>46</ele>
        <time>2000-01-01T00:13:24.000Z</time>
      </trkpt>
      <trkpt lat="48.22429" lon="-4.36666">
        <ele>45</ele>
        <time>2000-01-01T00:13:34.000Z</time>
      </trkpt>
      <trkpt lat="48.22408" lon="-4.36688">
        <ele>45</ele>
        <time>2000-01-01T00:13:44.000Z</time>
      </trkpt>
      <trkpt lat="48.22396" lon="-4.3672">
        <ele>45</ele>
        <time>2000-01-01T00:13:54.000Z</time>
      </trkpt>
      <trkpt lat="48.22381" lon="-4.3676">
        <ele>43</ele>
        <time>2000-01-01T00:14:04.000Z</time>
      </trkpt>
      <trkpt lat="48.22357" lon="-4.3678">
        <ele>42</ele>
        <time>2000-01-01T00:14:14.000Z</time>
      </trkpt>
      <trkpt lat="48.22321" lon="-4.36811">
        <ele>42</ele>
        <time>2000-01-01T00:14:24.000Z</time>
      </trkpt>
      <trkpt lat="48.22301" lon="-4.36836">
        <ele>41</ele>
        <time>2000-01-01T00:14:34.000Z</time>
      </trkpt>
      <trkpt lat="48.22274" lon="-4.36872">
        <ele>37</ele>
        <time>2000-01-01T00:14:44.000Z</time>
      </trkpt>
      <trkpt lat="48.22256" lon="-4.36906">
        <ele>39</ele>
        <time>2000-01-01T00:14:54.000Z</time>
      </trkpt>
      <trkpt lat="48.22224" lon="-4.36965">
        <ele>40</ele>
        <time>2000-01-01T00:15:04.000Z</time>
      </trkpt>
      <trkpt lat="48.22208" lon="-4.37002">
        <ele>39</ele>
        <time>2000-01-01T00:15:14.000Z</time>
      </trkpt>
      <trkpt lat="48.22193" lon="-4.37033">
        <ele>38</ele>
        <time>2000-01-01T00:15:24.000Z</time>
      </trkpt>
      <trkpt lat="48.22175" lon="-4.37074">
        <ele>34</ele>
        <time>2000-01-01T00:15:34.000Z</time>
      </trkpt>
      <trkpt lat="48.22157" lon="-4.37109">
        <ele>33</ele>
        <time>2000-01-01T00:15:44.000Z</time>
      </trkpt>
      <trkpt lat="48.22125" lon="-4.37173">
        <ele>30</ele>
        <time>2000-01-01T00:15:54.000Z</time>
      </trkpt>
      <trkpt lat="48.221" lon="-4.37185">
        <ele>27</ele>
        <time>2000-01-01T00:16:04.000Z</time>
      </trkpt>
      <trkpt lat="48.22065" lon="-4.37202">
        <ele>23</ele>
        <time>2000-01-01T00:16:14.000Z</time>
      </trkpt>
      <trkpt lat="48.22043" lon="-4.37214">
        <ele>22</ele>
        <time>2000-01-01T00:16:24.000Z</time>
      </trkpt>
      <trkpt lat="48.22019" lon="-4.37228">
        <ele>20</ele>
        <time>2000-01-01T00:16:34.000Z</time>
      </trkpt>
      <trkpt lat="48.21994" lon="-4.37259">
        <ele>20</ele>
        <time>2000-01-01T00:16:44.000Z</time>
      </trkpt>
      <trkpt lat="48.21977" lon="-4.3729">
        <ele>18</ele>
        <time>2000-01-01T00:16:54.000Z</time>
      </trkpt>
      <trkpt lat="48.21954" lon="-4.37308">
        <ele>16</ele>
        <time>2000-01-01T00:17:04.000Z</time>
      </trkpt>
      <trkpt lat="48.21923" lon="-4.37333">
        <ele>15</ele>
        <time>2000-01-01T00:17:14.000Z</time>
      </trkpt>
      <trkpt lat="48.21915" lon="-4.37345">
        <ele>16</ele>
        <time>2000-01-01T00:17:24.000Z</time>
      </trkpt>
      <trkpt lat="48.21895" lon="-4.37358">
        <ele>14</ele>
        <time>2000-01-01T00:17:34.000Z</time>
      </trkpt>
      <trkpt lat="48.21872" lon="-4.37365">
        <ele>12</ele>
        <time>2000-01-01T00:17:44.000Z</time>
      </trkpt>
      <trkpt lat="48.21846" lon="-4.37373">
        <ele>11</ele>
        <time>2000-01-01T00:17:54.000Z</time>
      </trkpt>
      <trkpt lat="48.2183" lon="-4.37385">
        <ele>12.5</ele>
        <time>2000-01-01T00:18:04.000Z</time>
      </trkpt>
      <trkpt lat="48.21784" lon="-4.37422">
        <ele>11</ele>
        <time>2000-01-01T00:18:14.000Z</time>
      </trkpt>
      <trkpt lat="48.21766" lon="-4.37431">
        <ele>11</ele>
        <time>2000-01-01T00:18:24.000Z</time>
      </trkpt>
      <trkpt lat="48.21761" lon="-4.37429">
        <ele>11</ele>
        <time>2000-01-01T00:18:34.000Z</time>
      </trkpt>
      <trkpt lat="48.21757" lon="-4.37413">
        <ele>11.4</ele>
        <time>2000-01-01T00:18:44.000Z</time>
      </trkpt>
      <trkpt lat="48.2175" lon="-4.37414">
        <ele>11</ele>
        <time>2000-01-01T00:18:54.000Z</time>
      </trkpt>
      <trkpt lat="48.21727" lon="-4.37408">
        <ele>12</ele>
        <time>2000-01-01T00:19:04.000Z</time>
      </trkpt>
      <trkpt lat="48.21721" lon="-4.37449">
        <ele>12</ele>
        <time>2000-01-01T00:19:14.000Z</time>
      </trkpt>
      <trkpt lat="48.21716" lon="-4.37473">
        <ele>8.7</ele>
        <time>2000-01-01T00:19:24.000Z</time>
      </trkpt>
      <trkpt lat="48.21707" lon="-4.37496">
        <ele>8</ele>
        <time>2000-01-01T00:19:34.000Z</time>
      </trkpt>
      <trkpt lat="48.21698" lon="-4.37507">
        <ele>7.2</ele>
        <time>2000-01-01T00:19:44.000Z</time>
      </trkpt>
      <trkpt lat="48.21695" lon="-4.37518">
        <ele>8</ele>
        <time>2000-01-01T00:19:54.000Z</time>
      </trkpt>
      <trkpt lat="48.21682" lon="-4.37519">
        <ele>6.1</ele>
        <time>2000-01-01T00:20:04.000Z</time>
      </trkpt>
      <trkpt lat="48.21669" lon="-4.37508">
        <ele>8</ele>
        <time>2000-01-01T00:20:14.000Z</time>
      </trkpt>
      <trkpt lat="48.21639" lon="-4.37473">
        <ele>7</ele>
        <time>2000-01-01T00:20:24.000Z</time>
      </trkpt>
      <trkpt lat="48.21622" lon="-4.3745">
        <ele>7</ele>
        <time>2000-01-01T00:20:34.000Z</time>
      </trkpt>
      <trkpt lat="48.21604" lon="-4.37427">
        <ele>7</ele>
        <time>2000-01-01T00:20:44.000Z</time>
      </trkpt>
      <trkpt lat="48.2158" lon="-4.37403">
        <ele>7</ele>
        <time>2000-01-01T00:20:54.000Z</time>
      </trkpt>
      <trkpt lat="48.21538" lon="-4.37362">
        <ele>6</ele>
        <time>2000-01-01T00:21:04.000Z</time>
      </trkpt>
      <trkpt lat="48.21504" lon="-4.3733">
        <ele>6</ele>
        <time>2000-01-01T00:21:14.000Z</time>
      </trkpt>
      <trkpt lat="48.21471" lon="-4.37297">
        <ele>7</ele>
        <time>2000-01-01T00:21:24.000Z</time>
      </trkpt>
      <trkpt lat="48.21442" lon="-4.37269">
        <ele>7</ele>
        <time>2000-01-01T00:21:34.000Z</time>
      </trkpt>
      <trkpt lat="48.21414" lon="-4.37241">
        <ele>8</ele>
        <time>2000-01-01T00:21:44.000Z</time>
      </trkpt>
      <trkpt lat="48.21385" lon="-4.37213">
        <ele>8</ele>
        <time>2000-01-01T00:21:54.000Z</time>
      </trkpt>
      <trkpt lat="48.21351" lon="-4.3718">
        <ele>8</ele>
        <time>2000-01-01T00:22:04.000Z</time>
      </trkpt>
      <trkpt lat="48.21329" lon="-4.37158">
        <ele>9</ele>
        <time>2000-01-01T00:22:14.000Z</time>
      </trkpt>
      <trkpt lat="48.21298" lon="-4.37127">
        <ele>9</ele>
        <time>2000-01-01T00:22:24.000Z</time>
      </trkpt>
      <trkpt lat="48.21273" lon="-4.37101">
        <ele>8</ele>
        <time>2000-01-01T00:22:34.000Z</time>
      </trkpt>
      <trkpt lat="48.21247" lon="-4.37075">
        <ele>8</ele>
        <time>2000-01-01T00:22:44.000Z</time>
      </trkpt>
      <trkpt lat="48.21218" lon="-4.37044">
        <ele>8</ele>
        <time>2000-01-01T00:22:54.000Z</time>
      </trkpt>
      <trkpt lat="48.21197" lon="-4.37025">
        <ele>8</ele>
        <time>2000-01-01T00:23:04.000Z</time>
      </trkpt>
      <trkpt lat="48.21174" lon="-4.37004">
        <ele>8</ele>
        <time>2000-01-01T00:23:14.000Z</time>
      </trkpt>
      <trkpt lat="48.21153" lon="-4.36984">
        <ele>9</ele>
        <time>2000-01-01T00:23:24.000Z</time>
      </trkpt>
      <trkpt lat="48.21128" lon="-4.36965">
        <ele>9</ele>
        <time>2000-01-01T00:23:34.000Z</time>
      </trkpt>
      <trkpt lat="48.21085" lon="-4.36933">
        <ele>9</ele>
        <time>2000-01-01T00:23:44.000Z</time>
      </trkpt>
      <trkpt lat="48.21053" lon="-4.36917">
        <ele>9</ele>
        <time>2000-01-01T00:23:54.000Z</time>
      </trkpt>
      <trkpt lat="48.21021" lon="-4.36901">
        <ele>11</ele>
        <time>2000-01-01T00:24:04.000Z</time>
      </trkpt>
      <trkpt lat="48.20988" lon="-4.36885">
        <ele>13</ele>
        <time>2000-01-01T00:24:14.000Z</time>
      </trkpt>
      <trkpt lat="48.20953" lon="-4.36867">
        <ele>17</ele>
        <time>2000-01-01T00:24:24.000Z</time>
      </trkpt>
      <trkpt lat="48.20955" lon="-4.36868">
        <ele>17.4</ele>
        <time>2000-01-01T00:24:34.000Z</time>
      </trkpt>
      <trkpt lat="48.20944" lon="-4.36871">
        <ele>18.4</ele>
        <time>2000-01-01T00:24:44.000Z</time>
      </trkpt>
      <trkpt lat="48.20935" lon="-4.36881">
        <ele>18</ele>
        <time>2000-01-01T00:24:54.000Z</time>
      </trkpt>
      <trkpt lat="48.20931" lon="-4.3689">
        <ele>21</ele>
        <time>2000-01-01T00:25:04.000Z</time>
      </trkpt>
      <trkpt lat="48.20925" lon="-4.36917">
        <ele>19</ele>
        <time>2000-01-01T00:25:14.000Z</time>
      </trkpt>
      <trkpt lat="48.20897" lon="-4.36948">
        <ele>20</ele>
        <time>2000-01-01T00:25:24.000Z</time>
      </trkpt>
      <trkpt lat="48.20887" lon="-4.36949">
        <ele>28.9</ele>
        <time>2000-01-01T00:25:34.000Z</time>
      </trkpt>
      <trkpt lat="48.2088" lon="-4.36955">
        <ele>22</ele>
        <time>2000-01-01T00:25:44.000Z</time>
      </trkpt>
      <trkpt lat="48.20863" lon="-4.36959">
        <ele>30.6</ele>
        <time>2000-01-01T00:25:54.000Z</time>
      </trkpt>
      <trkpt lat="48.20842" lon="-4.37001">
        <ele>22</ele>
        <time>2000-01-01T00:26:04.000Z</time>
      </trkpt>
      <trkpt lat="48.2083" lon="-4.37033">
        <ele>22</ele>
        <time>2000-01-01T00:26:14.000Z</time>
      </trkpt>
      <trkpt lat="48.20815" lon="-4.37073">
        <ele>23</ele>
        <time>2000-01-01T00:26:24.000Z</time>
      </trkpt>
      <trkpt lat="48.20809" lon="-4.37099">
        <ele>23</ele>
        <time>2000-01-01T00:26:34.000Z</time>
      </trkpt>
      <trkpt lat="48.20793" lon="-4.3713">
        <ele>20</ele>
        <time>2000-01-01T00:26:44.000Z</time>
      </trkpt>
      <trkpt lat="48.20788" lon="-4.37138">
        <ele>27.9</ele>
        <time>2000-01-01T00:26:54.000Z</time>
      </trkpt>
      <trkpt lat="48.20783" lon="-4.37149">
        <ele>27.5</ele>
        <time>2000-01-01T00:27:04.000Z</time>
      </trkpt>
      <trkpt lat="48.20776" lon="-4.37189">
        <ele>19</ele>
        <time>2000-01-01T00:27:14.000Z</time>
      </trkpt>
      <trkpt lat="48.20776" lon="-4.37212">
        <ele>27.3</ele>
        <time>2000-01-01T00:27:24.000Z</time>
      </trkpt>
      <trkpt lat="48.20775" lon="-4.37228">
        <ele>18</ele>
        <time>2000-01-01T00:27:34.000Z</time>
      </trkpt>
      <trkpt lat="48.20768" lon="-4.37253">
        <ele>18</ele>
        <time>2000-01-01T00:27:44.000Z</time>
      </trkpt>
      <trkpt lat="48.20756" lon="-4.37276">
        <ele>17</ele>
        <time>2000-01-01T00:27:54.000Z</time>
      </trkpt>
      <trkpt lat="48.2074" lon="-4.37296">
        <ele>17</ele>
        <time>2000-01-01T00:28:04.000Z</time>
      </trkpt>
      <trkpt lat="48.20716" lon="-4.37317">
        <ele>10</ele>
        <time>2000-01-01T00:28:14.000Z</time>
      </trkpt>
      <trkpt lat="48.20694" lon="-4.37325">
        <ele>8</ele>
        <time>2000-01-01T00:28:24.000Z</time>
      </trkpt>
      <trkpt lat="48.20691" lon="-4.37318">
        <ele>24.9</ele>
        <time>2000-01-01T00:28:34.000Z</time>
      </trkpt>
      <trkpt lat="48.20689" lon="-4.37309">
        <ele>25.2</ele>
        <time>2000-01-01T00:28:44.000Z</time>
      </trkpt>
      <trkpt lat="48.20683" lon="-4.37269">
        <ele>8</ele>
        <time>2000-01-01T00:28:54.000Z</time>
      </trkpt>
      <trkpt lat="48.20673" lon="-4.37241">
        <ele>8</ele>
        <time>2000-01-01T00:29:04.000Z</time>
      </trkpt>
      <trkpt lat="48.20672" lon="-4.37219">
        <ele>30.9</ele>
        <time>2000-01-01T00:29:14.000Z</time>
      </trkpt>
      <trkpt lat="48.20668" lon="-4.37196">
        <ele>8</ele>
        <time>2000-01-01T00:29:24.000Z</time>
      </trkpt>
      <trkpt lat="48.20666" lon="-4.37191">
        <ele>31.1</ele>
        <time>2000-01-01T00:29:34.000Z</time>
      </trkpt>
      <trkpt lat="48.20658" lon="-4.37182">
        <ele>28.2</ele>
        <time>2000-01-01T00:29:44.000Z</time>
      </trkpt>
      <trkpt lat="48.20654" lon="-4.37172">
        <ele>8</ele>
        <time>2000-01-01T00:29:54.000Z</time>
      </trkpt>
      <trkpt lat="48.20652" lon="-4.37134">
        <ele>11</ele>
        <time>2000-01-01T00:30:04.000Z</time>
      </trkpt>
      <trkpt lat="48.20649" lon="-4.37085">
        <ele>13</ele>
        <time>2000-01-01T00:30:14.000Z</time>
      </trkpt>
      <trkpt lat="48.20639" lon="-4.37074">
        <ele>24.7</ele>
        <time>2000-01-01T00:30:24.000Z</time>
      </trkpt>
      <trkpt lat="48.20637" lon="-4.37069">
        <ele>23.9</ele>
        <time>2000-01-01T00:30:34.000Z</time>
      </trkpt>
      <trkpt lat="48.20633" lon="-4.37043">
        <ele>12</ele>
        <time>2000-01-01T00:30:44.000Z</time>
      </trkpt>
      <trkpt lat="48.20628" lon="-4.37028">
        <ele>19.7</ele>
        <time>2000-01-01T00:30:54.000Z</time>
      </trkpt>
      <trkpt lat="48.20621" lon="-4.37019">
        <ele>12</ele>
        <time>2000-01-01T00:31:04.000Z</time>
      </trkpt>
      <trkpt lat="48.20614" lon="-4.37006">
        <ele>21.1</ele>
        <time>2000-01-01T00:31:14.000Z</time>
      </trkpt>
      <trkpt lat="48.20598" lon="-4.36994">
        <ele>9</ele>
        <time>2000-01-01T00:31:24.000Z</time>
      </trkpt>
      <trkpt lat="48.2059" lon="-4.36994">
        <ele>21.5</ele>
        <time>2000-01-01T00:31:34.000Z</time>
      </trkpt>
      <trkpt lat="48.20584" lon="-4.36988">
        <ele>21.4</ele>
        <time>2000-01-01T00:31:44.000Z</time>
      </trkpt>
      <trkpt lat="48.20575" lon="-4.36961">
        <ele>7</ele>
        <time>2000-01-01T00:31:54.000Z</time>
      </trkpt>
      <trkpt lat="48.20568" lon="-4.36944">
        <ele>17.4</ele>
        <time>2000-01-01T00:32:04.000Z</time>
      </trkpt>
      <trkpt lat="48.20563" lon="-4.36938">
        <ele>16.3</ele>
        <time>2000-01-01T00:32:14.000Z</time>
      </trkpt>
      <trkpt lat="48.2055" lon="-4.36885">
        <ele>16.9</ele>
        <time>2000-01-01T00:32:24.000Z</time>
      </trkpt>
      <trkpt lat="48.20548" lon="-4.36851">
        <ele>16.9</ele>
        <time>2000-01-01T00:32:34.000Z</time>
      </trkpt>
      <trkpt lat="48.20546" lon="-4.36815">
        <ele>15.1</ele>
        <time>2000-01-01T00:32:44.000Z</time>
      </trkpt>
      <trkpt lat="48.20547" lon="-4.36809">
        <ele>15.4</ele>
        <time>2000-01-01T00:32:54.000Z</time>
      </trkpt>
      <trkpt lat="48.20547" lon="-4.36795">
        <ele>14.8</ele>
        <time>2000-01-01T00:33:04.000Z</time>
      </trkpt>
      <trkpt lat="48.20552" lon="-4.36787">
        <ele>17.9</ele>
        <time>2000-01-01T00:33:14.000Z</time>
      </trkpt>
      <trkpt lat="48.2056" lon="-4.36756">
        <ele>19.4</ele>
        <time>2000-01-01T00:33:24.000Z</time>
      </trkpt>
      <trkpt lat="48.2057" lon="-4.36743">
        <ele>18.8</ele>
        <time>2000-01-01T00:33:34.000Z</time>
      </trkpt>
      <trkpt lat="48.2058" lon="-4.36709">
        <ele>18.7</ele>
        <time>2000-01-01T00:33:44.000Z</time>
      </trkpt>
      <trkpt lat="48.20611" lon="-4.36666">
        <ele>21.8</ele>
        <time>2000-01-01T00:33:54.000Z</time>
      </trkpt>
      <trkpt lat="48.20618" lon="-4.36652">
        <ele>20.3</ele>
        <time>2000-01-01T00:34:04.000Z</time>
      </trkpt>
      <trkpt lat="48.20623" lon="-4.36631">
        <ele>18.4</ele>
        <time>2000-01-01T00:34:14.000Z</time>
      </trkpt>
      <trkpt lat="48.2062" lon="-4.36606">
        <ele>14</ele>
        <time>2000-01-01T00:34:24.000Z</time>
      </trkpt>
      <trkpt lat="48.20629" lon="-4.3658">
        <ele>15.4</ele>
        <time>2000-01-01T00:34:34.000Z</time>
      </trkpt>
      <trkpt lat="48.20631" lon="-4.36537">
        <ele>16.2</ele>
        <time>2000-01-01T00:34:44.000Z</time>
      </trkpt>
      <trkpt lat="48.20636" lon="-4.36519">
        <ele>16.1</ele>
        <time>2000-01-01T00:34:54.000Z</time>
      </trkpt>
      <trkpt lat="48.20639" lon="-4.36512">
        <ele>15.3</ele>
        <time>2000-01-01T00:35:04.000Z</time>
      </trkpt>
      <trkpt lat="48.20651" lon="-4.36509">
        <ele>16.9</ele>
        <time>2000-01-01T00:35:14.000Z</time>
      </trkpt>
      <trkpt lat="48.2067" lon="-4.36511">
        <ele>5</ele>
        <time>2000-01-01T00:35:24.000Z</time>
      </trkpt>
      <trkpt lat="48.20674" lon="-4.36508">
        <ele>20</ele>
        <time>2000-01-01T00:35:34.000Z</time>
      </trkpt>
      <trkpt lat="48.20676" lon="-4.36502">
        <ele>20.1</ele>
        <time>2000-01-01T00:35:44.000Z</time>
      </trkpt>
      <trkpt lat="48.20675" lon="-4.36489">
        <ele>20</ele>
        <time>2000-01-01T00:35:54.000Z</time>
      </trkpt>
      <trkpt lat="48.20673" lon="-4.36482">
        <ele>2</ele>
        <time>2000-01-01T00:36:04.000Z</time>
      </trkpt>
      <trkpt lat="48.2067" lon="-4.36476">
        <ele>19.5</ele>
        <time>2000-01-01T00:36:14.000Z</time>
      </trkpt>
      <trkpt lat="48.20662" lon="-4.3647">
        <ele>16.4</ele>
        <time>2000-01-01T00:36:24.000Z</time>
      </trkpt>
      <trkpt lat="48.2066" lon="-4.36465">
        <ele>15.2</ele>
        <time>2000-01-01T00:36:34.000Z</time>
      </trkpt>
      <trkpt lat="48.20661" lon="-4.36453">
        <ele>16</ele>
        <time>2000-01-01T00:36:44.000Z</time>
      </trkpt>
      <trkpt lat="48.20671" lon="-4.36437">
        <ele>18</ele>
        <time>2000-01-01T00:36:54.000Z</time>
      </trkpt>
      <trkpt lat="48.20675" lon="-4.36429">
        <ele>16.6</ele>
        <time>2000-01-01T00:37:04.000Z</time>
      </trkpt>
      <trkpt lat="48.20678" lon="-4.36401">
        <ele>18.3</ele>
        <time>2000-01-01T00:37:14.000Z</time>
      </trkpt>
      <trkpt lat="48.20677" lon="-4.36397">
        <ele>18.9</ele>
        <time>2000-01-01T00:37:24.000Z</time>
      </trkpt>
      <trkpt lat="48.20674" lon="-4.36395">
        <ele>18.6</ele>
        <time>2000-01-01T00:37:34.000Z</time>
      </trkpt>
      <trkpt lat="48.20663" lon="-4.36399">
        <ele>13.7</ele>
        <time>2000-01-01T00:37:44.000Z</time>
      </trkpt>
      <trkpt lat="48.20657" lon="-4.36397">
        <ele>11.4</ele>
        <time>2000-01-01T00:37:54.000Z</time>
      </trkpt>
      <trkpt lat="48.20655" lon="-4.36386">
        <ele>12.2</ele>
        <time>2000-01-01T00:38:04.000Z</time>
      </trkpt>
      <trkpt lat="48.20661" lon="-4.36336">
        <ele>15.3</ele>
        <time>2000-01-01T00:38:14.000Z</time>
      </trkpt>
      <trkpt lat="48.20667" lon="-4.36308">
        <ele>19</ele>
        <time>2000-01-01T00:38:24.000Z</time>
      </trkpt>
      <trkpt lat="48.20682" lon="-4.36255">
        <ele>15.9</ele>
        <time>2000-01-01T00:38:34.000Z</time>
      </trkpt>
      <trkpt lat="48.20685" lon="-4.36234">
        <ele>16.6</ele>
        <time>2000-01-01T00:38:44.000Z</time>
      </trkpt>
      <trkpt lat="48.20687" lon="-4.3621">
        <ele>17.6</ele>
        <time>2000-01-01T00:38:54.000Z</time>
      </trkpt>
      <trkpt lat="48.20684" lon="-4.36189">
        <ele>15.8</ele>
        <time>2000-01-01T00:39:04.000Z</time>
      </trkpt>
      <trkpt lat="48.20686" lon="-4.36177">
        <ele>7</ele>
        <time>2000-01-01T00:39:14.000Z</time>
      </trkpt>
      <trkpt lat="48.20684" lon="-4.36162">
        <ele>17.9</ele>
        <time>2000-01-01T00:39:24.000Z</time>
      </trkpt>
      <trkpt lat="48.20676" lon="-4.36139">
        <ele>7</ele>
        <time>2000-01-01T00:39:34.000Z</time>
      </trkpt>
      <trkpt lat="48.20668" lon="-4.36123">
        <ele>19.7</ele>
        <time>2000-01-01T00:39:44.000Z</time>
      </trkpt>
      <trkpt lat="48.20666" lon="-4.36114">
        <ele>7</ele>
        <time>2000-01-01T00:39:54.000Z</time>
      </trkpt>
      <trkpt lat="48.20653" lon="-4.36099">
        <ele>16.6</ele>
        <time>2000-01-01T00:40:04.000Z</time>
      </trkpt>
      <trkpt lat="48.20652" lon="-4.36093">
        <ele>7</ele>
        <time>2000-01-01T00:40:14.000Z</time>
      </trkpt>
      <trkpt lat="48.20653" lon="-4.3608">
        <ele>23.3</ele>
        <time>2000-01-01T00:40:24.000Z</time>
      </trkpt>
      <trkpt lat="48.20635" lon="-4.36053">
        <ele>10</ele>
        <time>2000-01-01T00:40:34.000Z</time>
      </trkpt>
      <trkpt lat="48.20632" lon="-4.36042">
        <ele>22.6</ele>
        <time>2000-01-01T00:40:44.000Z</time>
      </trkpt>
      <trkpt lat="48.20633" lon="-4.36029">
        <ele>23.7</ele>
        <time>2000-01-01T00:40:54.000Z</time>
      </trkpt>
      <trkpt lat="48.20653" lon="-4.35947">
        <ele>13</ele>
        <time>2000-01-01T00:41:04.000Z</time>
      </trkpt>
      <trkpt lat="48.20656" lon="-4.35914">
        <ele>17</ele>
        <time>2000-01-01T00:41:14.000Z</time>
      </trkpt>
      <trkpt lat="48.20655" lon="-4.35888">
        <ele>30.1</ele>
        <time>2000-01-01T00:41:24.000Z</time>
      </trkpt>
      <trkpt lat="48.2064" lon="-4.35874">
        <ele>17</ele>
        <time>2000-01-01T00:41:34.000Z</time>
      </trkpt>
      <trkpt lat="48.2061" lon="-4.35836">
        <ele>17</ele>
        <time>2000-01-01T00:41:44.000Z</time>
      </trkpt>
      <trkpt lat="48.20604" lon="-4.35831">
        <ele>27.2</ele>
        <time>2000-01-01T00:41:54.000Z</time>
      </trkpt>
      <trkpt lat="48.20592" lon="-4.35833">
        <ele>10</ele>
        <time>2000-01-01T00:42:04.000Z</time>
      </trkpt>
      <trkpt lat="48.20582" lon="-4.35844">
        <ele>24.9</ele>
        <time>2000-01-01T00:42:14.000Z</time>
      </trkpt>
      <trkpt lat="48.20553" lon="-4.35899">
        <ele>9</ele>
        <time>2000-01-01T00:42:24.000Z</time>
      </trkpt>
      <trkpt lat="48.2055" lon="-4.35868">
        <ele>9</ele>
        <time>2000-01-01T00:42:34.000Z</time>
      </trkpt>
      <trkpt lat="48.20562" lon="-4.35816">
        <ele>22.2</ele>
        <time>2000-01-01T00:42:44.000Z</time>
      </trkpt>
      <trkpt lat="48.20566" lon="-4.35783">
        <ele>21.7</ele>
        <time>2000-01-01T00:42:54.000Z</time>
      </trkpt>
      <trkpt lat="48.20572" lon="-4.3575">
        <ele>22.4</ele>
        <time>2000-01-01T00:43:04.000Z</time>
      </trkpt>
      <trkpt lat="48.2058" lon="-4.35713">
        <ele>24.5</ele>
        <time>2000-01-01T00:43:14.000Z</time>
      </trkpt>
      <trkpt lat="48.20592" lon="-4.3566">
        <ele>27.6</ele>
        <time>2000-01-01T00:43:24.000Z</time>
      </trkpt>
      <trkpt lat="48.20592" lon="-4.35652">
        <ele>27.7</ele>
        <time>2000-01-01T00:43:34.000Z</time>
      </trkpt>
      <trkpt lat="48.20624" lon="-4.3552">
        <ele>28.4</ele>
        <time>2000-01-01T00:43:44.000Z</time>
      </trkpt>
      <trkpt lat="48.20633" lon="-4.35486">
        <ele>28.7</ele>
        <time>2000-01-01T00:43:54.000Z</time>
      </trkpt>
      <trkpt lat="48.20644" lon="-4.35433">
        <ele>27.7</ele>
        <time>2000-01-01T00:44:04.000Z</time>
      </trkpt>
      <trkpt lat="48.20649" lon="-4.35395">
        <ele>25.3</ele>
        <time>2000-01-01T00:44:14.000Z</time>
      </trkpt>
      <trkpt lat="48.20649" lon="-4.35382">
        <ele>26.6</ele>
        <time>2000-01-01T00:44:24.000Z</time>
      </trkpt>
      <trkpt lat="48.20647" lon="-4.35361">
        <ele>32.5</ele>
        <time>2000-01-01T00:44:34.000Z</time>
      </trkpt>
      <trkpt lat="48.20652" lon="-4.35331">
        <ele>32.9</ele>
        <time>2000-01-01T00:44:44.000Z</time>
      </trkpt>
      <trkpt lat="48.2066" lon="-4.35294">
        <ele>21</ele>
        <time>2000-01-01T00:44:54.000Z</time>
      </trkpt>
      <trkpt lat="48.20672" lon="-4.35245">
        <ele>18</ele>
        <time>2000-01-01T00:45:04.000Z</time>
      </trkpt>
      <trkpt lat="48.20669" lon="-4.35237">
        <ele>35.3</ele>
        <time>2000-01-01T00:45:14.000Z</time>
      </trkpt>
      <trkpt lat="48.20664" lon="-4.35231">
        <ele>34.1</ele>
        <time>2000-01-01T00:45:24.000Z</time>
      </trkpt>
      <trkpt lat="48.20658" lon="-4.3522">
        <ele>15</ele>
        <time>2000-01-01T00:45:34.000Z</time>
      </trkpt>
      <trkpt lat="48.20658" lon="-4.35185">
        <ele>12</ele>
        <time>2000-01-01T00:45:44.000Z</time>
      </trkpt>
      <trkpt lat="48.20657" lon="-4.35148">
        <ele>27.2</ele>
        <time>2000-01-01T00:45:54.000Z</time>
      </trkpt>
      <trkpt lat="48.20651" lon="-4.35144">
        <ele>25.7</ele>
        <time>2000-01-01T00:46:04.000Z</time>
      </trkpt>
      <trkpt lat="48.2065" lon="-4.35127">
        <ele>23.7</ele>
        <time>2000-01-01T00:46:14.000Z</time>
      </trkpt>
      <trkpt lat="48.20652" lon="-4.35117">
        <ele>23</ele>
        <time>2000-01-01T00:46:24.000Z</time>
      </trkpt>
      <trkpt lat="48.20665" lon="-4.35083">
        <ele>20.2</ele>
        <time>2000-01-01T00:46:34.000Z</time>
      </trkpt>
      <trkpt lat="48.20682" lon="-4.35035">
        <ele>17</ele>
        <time>2000-01-01T00:46:44.000Z</time>
      </trkpt>
      <trkpt lat="48.2069" lon="-4.34997">
        <ele>13.8</ele>
        <time>2000-01-01T00:46:54.000Z</time>
      </trkpt>
      <trkpt lat="48.20696" lon="-4.34978">
        <ele>14</ele>
        <time>2000-01-01T00:47:04.000Z</time>
      </trkpt>
      <trkpt lat="48.20711" lon="-4.34959">
        <ele>6</ele>
        <time>2000-01-01T00:47:14.000Z</time>
      </trkpt>
      <trkpt lat="48.20732" lon="-4.34941">
        <ele>13</ele>
        <time>2000-01-01T00:47:24.000Z</time>
      </trkpt>
      <trkpt lat="48.20755" lon="-4.3492">
        <ele>11</ele>
        <time>2000-01-01T00:47:34.000Z</time>
      </trkpt>
      <trkpt lat="48.20745" lon="-4.34884">
        <ele>10</ele>
        <time>2000-01-01T00:47:44.000Z</time>
      </trkpt>
      <trkpt lat="48.2073" lon="-4.34832">
        <ele>6</ele>
        <time>2000-01-01T00:47:54.000Z</time>
      </trkpt>
      <trkpt lat="48.20729" lon="-4.34826">
        <ele>7.4</ele>
        <time>2000-01-01T00:48:04.000Z</time>
      </trkpt>
      <trkpt lat="48.20732" lon="-4.34811">
        <ele>10.3</ele>
        <time>2000-01-01T00:48:14.000Z</time>
      </trkpt>
      <trkpt lat="48.20734" lon="-4.34805">
        <ele>6</ele>
        <time>2000-01-01T00:48:24.000Z</time>
      </trkpt>
      <trkpt lat="48.20731" lon="-4.34807">
        <ele>11.1</ele>
        <time>2000-01-01T00:48:34.000Z</time>
      </trkpt>
      <trkpt lat="48.20704" lon="-4.34806">
        <ele>3</ele>
        <time>2000-01-01T00:48:44.000Z</time>
      </trkpt>
      <trkpt lat="48.20701" lon="-4.34802">
        <ele>16</ele>
        <time>2000-01-01T00:48:54.000Z</time>
      </trkpt>
      <trkpt lat="48.20688" lon="-4.3481">
        <ele>12.9</ele>
        <time>2000-01-01T00:49:04.000Z</time>
      </trkpt>
      <trkpt lat="48.20685" lon="-4.34809">
        <ele>13</ele>
        <time>2000-01-01T00:49:14.000Z</time>
      </trkpt>
      <trkpt lat="48.20666" lon="-4.34788">
        <ele>17.6</ele>
        <time>2000-01-01T00:49:24.000Z</time>
      </trkpt>
      <trkpt lat="48.20656" lon="-4.3479">
        <ele>15.6</ele>
        <time>2000-01-01T00:49:34.000Z</time>
      </trkpt>
      <trkpt lat="48.20647" lon="-4.34795">
        <ele>13.2</ele>
        <time>2000-01-01T00:49:44.000Z</time>
      </trkpt>
      <trkpt lat="48.20642" lon="-4.34793">
        <ele>13.1</ele>
        <time>2000-01-01T00:49:54.000Z</time>
      </trkpt>
      <trkpt lat="48.20638" lon="-4.34788">
        <ele>13.5</ele>
        <time>2000-01-01T00:50:04.000Z</time>
      </trkpt>
      <trkpt lat="48.20637" lon="-4.34766">
        <ele>16</ele>
        <time>2000-01-01T00:50:14.000Z</time>
      </trkpt>
      <trkpt lat="48.20633" lon="-4.3476">
        <ele>14.6</ele>
        <time>2000-01-01T00:50:24.000Z</time>
      </trkpt>
      <trkpt lat="48.20626" lon="-4.34757">
        <ele>11.6</ele>
        <time>2000-01-01T00:50:34.000Z</time>
      </trkpt>
      <trkpt lat="48.20623" lon="-4.34753">
        <ele>10.4</ele>
        <time>2000-01-01T00:50:44.000Z</time>
      </trkpt>
      <trkpt lat="48.20619" lon="-4.34721">
        <ele>9.3</ele>
        <time>2000-01-01T00:50:54.000Z</time>
      </trkpt>
      <trkpt lat="48.20626" lon="-4.34685">
        <ele>12</ele>
        <time>2000-01-01T00:51:04.000Z</time>
      </trkpt>
      <trkpt lat="48.20627" lon="-4.34671">
        <ele>13.2</ele>
        <time>2000-01-01T00:51:14.000Z</time>
      </trkpt>
      <trkpt lat="48.20635" lon="-4.34636">
        <ele>18.4</ele>
        <time>2000-01-01T00:51:24.000Z</time>
      </trkpt>
      <trkpt lat="48.20633" lon="-4.3461">
        <ele>17.6</ele>
        <time>2000-01-01T00:51:34.000Z</time>
      </trkpt>
      <trkpt lat="48.20635" lon="-4.34596">
        <ele>19.6</ele>
        <time>2000-01-01T00:51:44.000Z</time>
      </trkpt>
      <trkpt lat="48.20639" lon="-4.34581">
        <ele>19.6</ele>
        <time>2000-01-01T00:51:54.000Z</time>
      </trkpt>
      <trkpt lat="48.20648" lon="-4.3451">
        <ele>9</ele>
        <time>2000-01-01T00:52:04.000Z</time>
      </trkpt>
      <trkpt lat="48.20657" lon="-4.34488">
        <ele>25.5</ele>
        <time>2000-01-01T00:52:14.000Z</time>
      </trkpt>
      <trkpt lat="48.20661" lon="-4.34469">
        <ele>9</ele>
        <time>2000-01-01T00:52:24.000Z</time>
      </trkpt>
      <trkpt lat="48.20662" lon="-4.34458">
        <ele>28.3</ele>
        <time>2000-01-01T00:52:34.000Z</time>
      </trkpt>
      <trkpt lat="48.20658" lon="-4.34435">
        <ele>10</ele>
        <time>2000-01-01T00:52:44.000Z</time>
      </trkpt>
      <trkpt lat="48.20659" lon="-4.344">
        <ele>10</ele>
        <time>2000-01-01T00:52:54.000Z</time>
      </trkpt>
      <trkpt lat="48.20643" lon="-4.34346">
        <ele>10</ele>
        <time>2000-01-01T00:53:04.000Z</time>
      </trkpt>
      <trkpt lat="48.20641" lon="-4.3433">
        <ele>29.6</ele>
        <time>2000-01-01T00:53:14.000Z</time>
      </trkpt>
      <trkpt lat="48.20642" lon="-4.34285">
        <ele>15</ele>
        <time>2000-01-01T00:53:24.000Z</time>
      </trkpt>
      <trkpt lat="48.2064" lon="-4.34234">
        <ele>16</ele>
        <time>2000-01-01T00:53:34.000Z</time>
      </trkpt>
      <trkpt lat="48.20645" lon="-4.34168">
        <ele>21</ele>
        <time>2000-01-01T00:53:44.000Z</time>
      </trkpt>
      <trkpt lat="48.20653" lon="-4.34121">
        <ele>21</ele>
        <time>2000-01-01T00:53:54.000Z</time>
      </trkpt>
      <trkpt lat="48.2065" lon="-4.34107">
        <ele>32.2</ele>
        <time>2000-01-01T00:54:04.000Z</time>
      </trkpt>
      <trkpt lat="48.20639" lon="-4.34086">
        <ele>18</ele>
        <time>2000-01-01T00:54:14.000Z</time>
      </trkpt>
      <trkpt lat="48.20632" lon="-4.34081">
        <ele>34.6</ele>
        <time>2000-01-01T00:54:24.000Z</time>
      </trkpt>
      <trkpt lat="48.20625" lon="-4.34091">
        <ele>29.8</ele>
        <time>2000-01-01T00:54:34.000Z</time>
      </trkpt>
      <trkpt lat="48.2062" lon="-4.3409">
        <ele>15</ele>
        <time>2000-01-01T00:54:44.000Z</time>
      </trkpt>
      <trkpt lat="48.20615" lon="-4.34086">
        <ele>29.8</ele>
        <time>2000-01-01T00:54:54.000Z</time>
      </trkpt>
      <trkpt lat="48.20607" lon="-4.34072">
        <ele>29.6</ele>
        <time>2000-01-01T00:55:04.000Z</time>
      </trkpt>
      <trkpt lat="48.20601" lon="-4.34067">
        <ele>15</ele>
        <time>2000-01-01T00:55:14.000Z</time>
      </trkpt>
      <trkpt lat="48.20588" lon="-4.34065">
        <ele>25.5</ele>
        <time>2000-01-01T00:55:24.000Z</time>
      </trkpt>
      <trkpt lat="48.20584" lon="-4.34062">
        <ele>25.3</ele>
        <time>2000-01-01T00:55:34.000Z</time>
      </trkpt>
      <trkpt lat="48.20575" lon="-4.34044">
        <ele>11</ele>
        <time>2000-01-01T00:55:44.000Z</time>
      </trkpt>
      <trkpt lat="48.20568" lon="-4.34004">
        <ele>8</ele>
        <time>2000-01-01T00:55:54.000Z</time>
      </trkpt>
      <trkpt lat="48.20565" lon="-4.33968">
        <ele>9</ele>
        <time>2000-01-01T00:56:04.000Z</time>
      </trkpt>
      <trkpt lat="48.20578" lon="-4.33914">
        <ele>11</ele>
        <time>2000-01-01T00:56:14.000Z</time>
      </trkpt>
      <trkpt lat="48.20578" lon="-4.33875">
        <ele>9</ele>
        <time>2000-01-01T00:56:24.000Z</time>
      </trkpt>
      <trkpt lat="48.20568" lon="-4.3387">
        <ele>18.5</ele>
        <time>2000-01-01T00:56:34.000Z</time>
      </trkpt>
      <trkpt lat="48.20556" lon="-4.3387">
        <ele>8</ele>
        <time>2000-01-01T00:56:44.000Z</time>
      </trkpt>
      <trkpt lat="48.20554" lon="-4.33865">
        <ele>14.9</ele>
        <time>2000-01-01T00:56:54.000Z</time>
      </trkpt>
      <trkpt lat="48.20564" lon="-4.33767">
        <ele>11.6</ele>
        <time>2000-01-01T00:57:04.000Z</time>
      </trkpt>
      <trkpt lat="48.20589" lon="-4.33737">
        <ele>9.4</ele>
        <time>2000-01-01T00:57:14.000Z</time>
      </trkpt>
      <trkpt lat="48.20618" lon="-4.33741">
        <ele>14</ele>
        <time>2000-01-01T00:57:24.000Z</time>
      </trkpt>
      <trkpt lat="48.2065" lon="-4.33738">
        <ele>20</ele>
        <time>2000-01-01T00:57:34.000Z</time>
      </trkpt>
      <trkpt lat="48.20673" lon="-4.33705">
        <ele>15</ele>
        <time>2000-01-01T00:57:44.000Z</time>
      </trkpt>
      <trkpt lat="48.20684" lon="-4.33654">
        <ele>10</ele>
        <time>2000-01-01T00:57:54.000Z</time>
      </trkpt>
      <trkpt lat="48.20701" lon="-4.33594">
        <ele>9</ele>
        <time>2000-01-01T00:58:04.000Z</time>
      </trkpt>
      <trkpt lat="48.20705" lon="-4.33561">
        <ele>9</ele>
        <time>2000-01-01T00:58:14.000Z</time>
      </trkpt>
      <trkpt lat="48.20712" lon="-4.33528">
        <ele>9</ele>
        <time>2000-01-01T00:58:24.000Z</time>
      </trkpt>
      <trkpt lat="48.20728" lon="-4.33483">
        <ele>9</ele>
        <time>2000-01-01T00:58:34.000Z</time>
      </trkpt>
      <trkpt lat="48.2073" lon="-4.33463">
        <ele>15.6</ele>
        <time>2000-01-01T00:58:44.000Z</time>
      </trkpt>
      <trkpt lat="48.20724" lon="-4.33447">
        <ele>8</ele>
        <time>2000-01-01T00:58:54.000Z</time>
      </trkpt>
      <trkpt lat="48.20702" lon="-4.33407">
        <ele>7</ele>
        <time>2000-01-01T00:59:04.000Z</time>
      </trkpt>
      <trkpt lat="48.20695" lon="-4.33399">
        <ele>10.8</ele>
        <time>2000-01-01T00:59:14.000Z</time>
      </trkpt>
      <trkpt lat="48.20685" lon="-4.33395">
        <ele>5</ele>
        <time>2000-01-01T00:59:24.000Z</time>
      </trkpt>
      <trkpt lat="48.20669" lon="-4.33373">
        <ele>5</ele>
        <time>2000-01-01T00:59:34.000Z</time>
      </trkpt>
      <trkpt lat="48.20668" lon="-4.33349">
        <ele>11.1</ele>
        <time>2000-01-01T00:59:44.000Z</time>
      </trkpt>
      <trkpt lat="48.20701" lon="-4.3333">
        <ele>6</ele>
        <time>2000-01-01T00:59:54.000Z</time>
      </trkpt>
      <trkpt lat="48.20693" lon="-4.33291">
        <ele>6</ele>
        <time>2000-01-01T01:00:04.000Z</time>
      </trkpt>
      <trkpt lat="48.2068" lon="-4.33228">
        <ele>6</ele>
        <time>2000-01-01T01:00:14.000Z</time>
      </trkpt>
      <trkpt lat="48.2068" lon="-4.33185">
        <ele>8</ele>
        <time>2000-01-01T01:00:24.000Z</time>
      </trkpt>
      <trkpt lat="48.20674" lon="-4.33159">
        <ele>9</ele>
        <time>2000-01-01T01:00:34.000Z</time>
      </trkpt>
      <trkpt lat="48.20671" lon="-4.33155">
        <ele>9.4</ele>
        <time>2000-01-01T01:00:44.000Z</time>
      </trkpt>
      <trkpt lat="48.20648" lon="-4.33137">
        <ele>10</ele>
        <time>2000-01-01T01:00:54.000Z</time>
      </trkpt>
      <trkpt lat="48.20626" lon="-4.33126">
        <ele>10</ele>
        <time>2000-01-01T01:01:04.000Z</time>
      </trkpt>
      <trkpt lat="48.20606" lon="-4.33119">
        <ele>10</ele>
        <time>2000-01-01T01:01:14.000Z</time>
      </trkpt>
      <trkpt lat="48.20593" lon="-4.33106">
        <ele>12.2</ele>
        <time>2000-01-01T01:01:24.000Z</time>
      </trkpt>
      <trkpt lat="48.20584" lon="-4.33092">
        <ele>10</ele>
        <time>2000-01-01T01:01:34.000Z</time>
      </trkpt>
      <trkpt lat="48.2058" lon="-4.33072">
        <ele>12.9</ele>
        <time>2000-01-01T01:01:44.000Z</time>
      </trkpt>
      <trkpt lat="48.20578" lon="-4.33057">
        <ele>14</ele>
        <time>2000-01-01T01:01:54.000Z</time>
      </trkpt>
      <trkpt lat="48.20575" lon="-4.33049">
        <ele>14.6</ele>
        <time>2000-01-01T01:02:04.000Z</time>
      </trkpt>
      <trkpt lat="48.20534" lon="-4.32982">
        <ele>14</ele>
        <time>2000-01-01T01:02:14.000Z</time>
      </trkpt>
      <trkpt lat="48.20513" lon="-4.32934">
        <ele>13</ele>
        <time>2000-01-01T01:02:24.000Z</time>
      </trkpt>
      <trkpt lat="48.20504" lon="-4.32905">
        <ele>13</ele>
        <time>2000-01-01T01:02:34.000Z</time>
      </trkpt>
      <trkpt lat="48.20489" lon="-4.32845">
        <ele>12</ele>
        <time>2000-01-01T01:02:44.000Z</time>
      </trkpt>
      <trkpt lat="48.2048" lon="-4.32805">
        <ele>12</ele>
        <time>2000-01-01T01:02:54.000Z</time>
      </trkpt>
      <trkpt lat="48.20465" lon="-4.32735">
        <ele>12</ele>
        <time>2000-01-01T01:03:04.000Z</time>
      </trkpt>
      <trkpt lat="48.20453" lon="-4.32691">
        <ele>14</ele>
        <time>2000-01-01T01:03:14.000Z</time>
      </trkpt>
      <trkpt lat="48.20444" lon="-4.32672">
        <ele>21.1</ele>
        <time>2000-01-01T01:03:24.000Z</time>
      </trkpt>
      <trkpt lat="48.20436" lon="-4.3266">
        <ele>15</ele>
        <time>2000-01-01T01:03:34.000Z</time>
      </trkpt>
      <trkpt lat="48.20419" lon="-4.32638">
        <ele>16</ele>
        <time>2000-01-01T01:03:44.000Z</time>
      </trkpt>
      <trkpt lat="48.20401" lon="-4.32615">
        <ele>19</ele>
        <time>2000-01-01T01:03:54.000Z</time>
      </trkpt>
      <trkpt lat="48.20374" lon="-4.3264">
        <ele>20</ele>
        <time>2000-01-01T01:04:04.000Z</time>
      </trkpt>
      <trkpt lat="48.20362" lon="-4.32656">
        <ele>27.3</ele>
        <time>2000-01-01T01:04:14.000Z</time>
      </trkpt>
      <trkpt lat="48.20336" lon="-4.32703">
        <ele>17</ele>
        <time>2000-01-01T01:04:24.000Z</time>
      </trkpt>
      <trkpt lat="48.20325" lon="-4.32706">
        <ele>25.2</ele>
        <time>2000-01-01T01:04:34.000Z</time>
      </trkpt>
      <trkpt lat="48.20306" lon="-4.32707">
        <ele>15</ele>
        <time>2000-01-01T01:04:44.000Z</time>
      </trkpt>
      <trkpt lat="48.20274" lon="-4.32749">
        <ele>11</ele>
        <time>2000-01-01T01:04:54.000Z</time>
      </trkpt>
      <trkpt lat="48.20256" lon="-4.32763">
        <ele>10</ele>
        <time>2000-01-01T01:05:04.000Z</time>
      </trkpt>
      <trkpt lat="48.20243" lon="-4.32767">
        <ele>18.6</ele>
        <time>2000-01-01T01:05:14.000Z</time>
      </trkpt>
      <trkpt lat="48.20237" lon="-4.32767">
        <ele>17.4</ele>
        <time>2000-01-01T01:05:24.000Z</time>
      </trkpt>
      <trkpt lat="48.2023" lon="-4.32762">
        <ele>16.8</ele>
        <time>2000-01-01T01:05:34.000Z</time>
      </trkpt>
      <trkpt lat="48.20226" lon="-4.32747">
        <ele>17.9</ele>
        <time>2000-01-01T01:05:44.000Z</time>
      </trkpt>
      <trkpt lat="48.20225" lon="-4.32735">
        <ele>18.2</ele>
        <time>2000-01-01T01:05:54.000Z</time>
      </trkpt>
      <trkpt lat="48.20226" lon="-4.32705">
        <ele>19.1</ele>
        <time>2000-01-01T01:06:04.000Z</time>
      </trkpt>
      <trkpt lat="48.20226" lon="-4.32661">
        <ele>19.4</ele>
        <time>2000-01-01T01:06:14.000Z</time>
      </trkpt>
      <trkpt lat="48.20225" lon="-4.32625">
        <ele>18.8</ele>
        <time>2000-01-01T01:06:24.000Z</time>
      </trkpt>
      <trkpt lat="48.20225" lon="-4.32581">
        <ele>14.8</ele>
        <time>2000-01-01T01:06:34.000Z</time>
      </trkpt>
      <trkpt lat="48.20237" lon="-4.32539">
        <ele>14.8</ele>
        <time>2000-01-01T01:06:44.000Z</time>
      </trkpt>
      <trkpt lat="48.20249" lon="-4.32506">
        <ele>10</ele>
        <time>2000-01-01T01:06:54.000Z</time>
      </trkpt>
      <trkpt lat="48.20264" lon="-4.32465">
        <ele>10</ele>
        <time>2000-01-01T01:07:04.000Z</time>
      </trkpt>
      <trkpt lat="48.20282" lon="-4.32413">
        <ele>10</ele>
        <time>2000-01-01T01:07:14.000Z</time>
      </trkpt>
      <trkpt lat="48.20279" lon="-4.32395">
        <ele>25.7</ele>
        <time>2000-01-01T01:07:24.000Z</time>
      </trkpt>
      <trkpt lat="48.20278" lon="-4.32366">
        <ele>10</ele>
        <time>2000-01-01T01:07:34.000Z</time>
      </trkpt>
      <trkpt lat="48.20282" lon="-4.32336">
        <ele>21</ele>
        <time>2000-01-01T01:07:44.000Z</time>
      </trkpt>
      <trkpt lat="48.2029" lon="-4.32309">
        <ele>19.6</ele>
        <time>2000-01-01T01:07:54.000Z</time>
      </trkpt>
      <trkpt lat="48.20305" lon="-4.32279">
        <ele>7</ele>
        <time>2000-01-01T01:08:04.000Z</time>
      </trkpt>
      <trkpt lat="48.20331" lon="-4.32246">
        <ele>8</ele>
        <time>2000-01-01T01:08:14.000Z</time>
      </trkpt>
      <trkpt lat="48.20357" lon="-4.32206">
        <ele>9</ele>
        <time>2000-01-01T01:08:24.000Z</time>
      </trkpt>
      <trkpt lat="48.20366" lon="-4.32196">
        <ele>8.4</ele>
        <time>2000-01-01T01:08:34.000Z</time>
      </trkpt>
      <trkpt lat="48.20385" lon="-4.32182">
        <ele>4</ele>
        <time>2000-01-01T01:08:44.000Z</time>
      </trkpt>
      <trkpt lat="48.20402" lon="-4.32176">
        <ele>8.3</ele>
        <time>2000-01-01T01:08:54.000Z</time>
      </trkpt>
      <trkpt lat="48.20407" lon="-4.32141">
        <ele>4</ele>
        <time>2000-01-01T01:09:04.000Z</time>
      </trkpt>
      <trkpt lat="48.20411" lon="-4.32102">
        <ele>5</ele>
        <time>2000-01-01T01:09:14.000Z</time>
      </trkpt>
      <trkpt lat="48.2041" lon="-4.32095">
        <ele>5.3</ele>
        <time>2000-01-01T01:09:24.000Z</time>
      </trkpt>
      <trkpt lat="48.20411" lon="-4.32102">
        <ele>5.4</ele>
        <time>2000-01-01T01:09:34.000Z</time>
      </trkpt>
      <trkpt lat="48.20421" lon="-4.32093">
        <ele>5</ele>
        <time>2000-01-01T01:09:44.000Z</time>
      </trkpt>
      <trkpt lat="48.20421" lon="-4.32087">
        <ele>7.3</ele>
        <time>2000-01-01T01:09:54.000Z</time>
      </trkpt>
      <trkpt lat="48.20415" lon="-4.32069">
        <ele>9.9</ele>
        <time>2000-01-01T01:10:04.000Z</time>
      </trkpt>
      <trkpt lat="48.20418" lon="-4.32057">
        <ele>9</ele>
        <time>2000-01-01T01:10:14.000Z</time>
      </trkpt>
      <trkpt lat="48.20418" lon="-4.32048">
        <ele>13.7</ele>
        <time>2000-01-01T01:10:24.000Z</time>
      </trkpt>
      <trkpt lat="48.20415" lon="-4.32032">
        <ele>14.7</ele>
        <time>2000-01-01T01:10:34.000Z</time>
      </trkpt>
      <trkpt lat="48.20414" lon="-4.31992">
        <ele>9</ele>
        <time>2000-01-01T01:10:44.000Z</time>
      </trkpt>
      <trkpt lat="48.20407" lon="-4.3198">
        <ele>13.9</ele>
        <time>2000-01-01T01:10:54.000Z</time>
      </trkpt>
      <trkpt lat="48.20409" lon="-4.31945">
        <ele>10</ele>
        <time>2000-01-01T01:11:04.000Z</time>
      </trkpt>
      <trkpt lat="48.20413" lon="-4.31917">
        <ele>10</ele>
        <time>2000-01-01T01:11:14.000Z</time>
      </trkpt>
      <trkpt lat="48.20423" lon="-4.31881">
        <ele>10</ele>
        <time>2000-01-01T01:11:24.000Z</time>
      </trkpt>
      <trkpt lat="48.20435" lon="-4.31834">
        <ele>10</ele>
        <time>2000-01-01T01:11:34.000Z</time>
      </trkpt>
      <trkpt lat="48.20439" lon="-4.31831">
        <ele>16.2</ele>
        <time>2000-01-01T01:11:44.000Z</time>
      </trkpt>
      <trkpt lat="48.20444" lon="-4.31818">
        <ele>17.4</ele>
        <time>2000-01-01T01:11:54.000Z</time>
      </trkpt>
      <trkpt lat="48.20441" lon="-4.3178">
        <ele>8</ele>
        <time>2000-01-01T01:12:04.000Z</time>
      </trkpt>
      <trkpt lat="48.20437" lon="-4.31744">
        <ele>9</ele>
        <time>2000-01-01T01:12:14.000Z</time>
      </trkpt>
      <trkpt lat="48.20431" lon="-4.31703">
        <ele>10</ele>
        <time>2000-01-01T01:12:24.000Z</time>
      </trkpt>
      <trkpt lat="48.20423" lon="-4.31666">
        <ele>20</ele>
        <time>2000-01-01T01:12:34.000Z</time>
      </trkpt>
      <trkpt lat="48.2041" lon="-4.31616">
        <ele>20</ele>
        <time>2000-01-01T01:12:44.000Z</time>
      </trkpt>
      <trkpt lat="48.20404" lon="-4.31597">
        <ele>33</ele>
        <time>2000-01-01T01:12:54.000Z</time>
      </trkpt>
      <trkpt lat="48.20387" lon="-4.31574">
        <ele>20</ele>
        <time>2000-01-01T01:13:04.000Z</time>
      </trkpt>
      <trkpt lat="48.20365" lon="-4.31556">
        <ele>20</ele>
        <time>2000-01-01T01:13:14.000Z</time>
      </trkpt>
      <trkpt lat="48.20361" lon="-4.31559">
        <ele>37.1</ele>
        <time>2000-01-01T01:13:24.000Z</time>
      </trkpt>
      <trkpt lat="48.20348" lon="-4.31558">
        <ele>36.6</ele>
        <time>2000-01-01T01:13:34.000Z</time>
      </trkpt>
      <trkpt lat="48.20303" lon="-4.31537">
        <ele>17</ele>
        <time>2000-01-01T01:13:44.000Z</time>
      </trkpt>
      <trkpt lat="48.20291" lon="-4.3153">
        <ele>35</ele>
        <time>2000-01-01T01:13:54.000Z</time>
      </trkpt>
      <trkpt lat="48.20186" lon="-4.31443">
        <ele>16</ele>
        <time>2000-01-01T01:14:04.000Z</time>
      </trkpt>
      <trkpt lat="48.20166" lon="-4.31414">
        <ele>16</ele>
        <time>2000-01-01T01:14:14.000Z</time>
      </trkpt>
      <trkpt lat="48.20134" lon="-4.31367">
        <ele>19</ele>
        <time>2000-01-01T01:14:24.000Z</time>
      </trkpt>
      <trkpt lat="48.20107" lon="-4.3133">
        <ele>19</ele>
        <time>2000-01-01T01:14:34.000Z</time>
      </trkpt>
      <trkpt lat="48.20086" lon="-4.313">
        <ele>19</ele>
        <time>2000-01-01T01:14:44.000Z</time>
      </trkpt>
      <trkpt lat="48.20049" lon="-4.31246">
        <ele>18</ele>
        <time>2000-01-01T01:14:54.000Z</time>
      </trkpt>
      <trkpt lat="48.20027" lon="-4.31215">
        <ele>17</ele>
        <time>2000-01-01T01:15:04.000Z</time>
      </trkpt>
      <trkpt lat="48.20005" lon="-4.31185">
        <ele>20</ele>
        <time>2000-01-01T01:15:14.000Z</time>
      </trkpt>
      <trkpt lat="48.19963" lon="-4.31127">
        <ele>23</ele>
        <time>2000-01-01T01:15:24.000Z</time>
      </trkpt>
      <trkpt lat="48.19944" lon="-4.31102">
        <ele>24</ele>
        <time>2000-01-01T01:15:34.000Z</time>
      </trkpt>
      <trkpt lat="48.19918" lon="-4.3107">
        <ele>26</ele>
        <time>2000-01-01T01:15:44.000Z</time>
      </trkpt>
      <trkpt lat="48.19904" lon="-4.31041">
        <ele>27</ele>
        <time>2000-01-01T01:15:54.000Z</time>
      </trkpt>
      <trkpt lat="48.19879" lon="-4.31002">
        <ele>25</ele>
        <time>2000-01-01T01:16:04.000Z</time>
      </trkpt>
      <trkpt lat="48.19854" lon="-4.30963">
        <ele>25</ele>
        <time>2000-01-01T01:16:14.000Z</time>
      </trkpt>
      <trkpt lat="48.19829" lon="-4.30924">
        <ele>26</ele>
        <time>2000-01-01T01:16:24.000Z</time>
      </trkpt>
      <trkpt lat="48.19804" lon="-4.30885">
        <ele>28</ele>
        <time>2000-01-01T01:16:34.000Z</time>
      </trkpt>
      <trkpt lat="48.19777" lon="-4.30843">
        <ele>28</ele>
        <time>2000-01-01T01:16:44.000Z</time>
      </trkpt>
      <trkpt lat="48.19757" lon="-4.30802">
        <ele>28</ele>
        <time>2000-01-01T01:16:54.000Z</time>
      </trkpt>
      <trkpt lat="48.19737" lon="-4.3076">
        <ele>28</ele>
        <time>2000-01-01T01:17:04.000Z</time>
      </trkpt>
      <trkpt lat="48.19717" lon="-4.30719">
        <ele>27</ele>
        <time>2000-01-01T01:17:14.000Z</time>
      </trkpt>
      <trkpt lat="48.19695" lon="-4.30673">
        <ele>27</ele>
        <time>2000-01-01T01:17:24.000Z</time>
      </trkpt>
      <trkpt lat="48.19691" lon="-4.30661">
        <ele>33.5</ele>
        <time>2000-01-01T01:17:34.000Z</time>
      </trkpt>
      <trkpt lat="48.1969" lon="-4.30653">
        <ele>33.4</ele>
        <time>2000-01-01T01:17:44.000Z</time>
      </trkpt>
      <trkpt lat="48.19692" lon="-4.30646">
        <ele>27</ele>
        <time>2000-01-01T01:17:54.000Z</time>
      </trkpt>
      <trkpt lat="48.1969" lon="-4.30645">
        <ele>33.4</ele>
        <time>2000-01-01T01:18:04.000Z</time>
      </trkpt>
      <trkpt lat="48.19692" lon="-4.30646">
        <ele>33.6</ele>
        <time>2000-01-01T01:18:14.000Z</time>
      </trkpt>
      <trkpt lat="48.19694" lon="-4.30635">
        <ele>33.8</ele>
        <time>2000-01-01T01:18:24.000Z</time>
      </trkpt>
      <trkpt lat="48.19693" lon="-4.30628">
        <ele>33.4</ele>
        <time>2000-01-01T01:18:34.000Z</time>
      </trkpt>
      <trkpt lat="48.1969" lon="-4.30621">
        <ele>27</ele>
        <time>2000-01-01T01:18:44.000Z</time>
      </trkpt>
      <trkpt lat="48.19677" lon="-4.30612">
        <ele>30.5</ele>
        <time>2000-01-01T01:18:54.000Z</time>
      </trkpt>
      <trkpt lat="48.19672" lon="-4.30604">
        <ele>24</ele>
        <time>2000-01-01T01:19:04.000Z</time>
      </trkpt>
      <trkpt lat="48.19664" lon="-4.30576">
        <ele>23</ele>
        <time>2000-01-01T01:19:14.000Z</time>
      </trkpt>
      <trkpt lat="48.19661" lon="-4.30558">
        <ele>26.8</ele>
        <time>2000-01-01T01:19:24.000Z</time>
      </trkpt>
      <trkpt lat="48.19654" lon="-4.30438">
        <ele>12</ele>
        <time>2000-01-01T01:19:34.000Z</time>
      </trkpt>
      <trkpt lat="48.1965" lon="-4.30384">
        <ele>12</ele>
        <time>2000-01-01T01:19:44.000Z</time>
      </trkpt>
      <trkpt lat="48.19645" lon="-4.30355">
        <ele>12</ele>
        <time>2000-01-01T01:19:54.000Z</time>
      </trkpt>
      <trkpt lat="48.19634" lon="-4.30351">
        <ele>6.8</ele>
        <time>2000-01-01T01:20:04.000Z</time>
      </trkpt>
      <trkpt lat="48.19621" lon="-4.30344">
        <ele>11</ele>
        <time>2000-01-01T01:20:14.000Z</time>
      </trkpt>
      <trkpt lat="48.19611" lon="-4.30334">
        <ele>5.9</ele>
        <time>2000-01-01T01:20:24.000Z</time>
      </trkpt>
      <trkpt lat="48.19604" lon="-4.30299">
        <ele>11</ele>
        <time>2000-01-01T01:20:34.000Z</time>
      </trkpt>
      <trkpt lat="48.19599" lon="-4.30293">
        <ele>5.2</ele>
        <time>2000-01-01T01:20:44.000Z</time>
      </trkpt>
      <trkpt lat="48.196" lon="-4.30274">
        <ele>10</ele>
        <time>2000-01-01T01:20:54.000Z</time>
      </trkpt>
      <trkpt lat="48.19588" lon="-4.30212">
        <ele>9</ele>
        <time>2000-01-01T01:21:04.000Z</time>
      </trkpt>
      <trkpt lat="48.19586" lon="-4.30188">
        <ele>7.1</ele>
        <time>2000-01-01T01:21:14.000Z</time>
      </trkpt>
      <trkpt lat="48.19586" lon="-4.30174">
        <ele>9</ele>
        <time>2000-01-01T01:21:24.000Z</time>
      </trkpt>
      <trkpt lat="48.19579" lon="-4.30166">
        <ele>8</ele>
        <time>2000-01-01T01:21:34.000Z</time>
      </trkpt>
      <trkpt lat="48.19568" lon="-4.30125">
        <ele>11</ele>
        <time>2000-01-01T01:21:44.000Z</time>
      </trkpt>
      <trkpt lat="48.19567" lon="-4.30087">
        <ele>14</ele>
        <time>2000-01-01T01:21:54.000Z</time>
      </trkpt>
      <trkpt lat="48.19569" lon="-4.30049">
        <ele>15</ele>
        <time>2000-01-01T01:22:04.000Z</time>
      </trkpt>
      <trkpt lat="48.19582" lon="-4.30043">
        <ele>17.8</ele>
        <time>2000-01-01T01:22:14.000Z</time>
      </trkpt>
      <trkpt lat="48.19624" lon="-4.30007">
        <ele>20</ele>
        <time>2000-01-01T01:22:24.000Z</time>
      </trkpt>
      <trkpt lat="48.19624" lon="-4.30002">
        <ele>22.9</ele>
        <time>2000-01-01T01:22:34.000Z</time>
      </trkpt>
      <trkpt lat="48.19624" lon="-4.30007">
        <ele>22.5</ele>
        <time>2000-01-01T01:22:44.000Z</time>
      </trkpt>
      <trkpt lat="48.19668" lon="-4.29962">
        <ele>20</ele>
        <time>2000-01-01T01:22:54.000Z</time>
      </trkpt>
      <trkpt lat="48.1969" lon="-4.29913">
        <ele>23</ele>
        <time>2000-01-01T01:23:04.000Z</time>
      </trkpt>
      <trkpt lat="48.19703" lon="-4.29868">
        <ele>22</ele>
        <time>2000-01-01T01:23:14.000Z</time>
      </trkpt>
      <trkpt lat="48.19714" lon="-4.29827">
        <ele>23</ele>
        <time>2000-01-01T01:23:24.000Z</time>
      </trkpt>
      <trkpt lat="48.19735" lon="-4.29747">
        <ele>23</ele>
        <time>2000-01-01T01:23:34.000Z</time>
      </trkpt>
      <trkpt lat="48.19739" lon="-4.29726">
        <ele>29.7</ele>
        <time>2000-01-01T01:23:44.000Z</time>
      </trkpt>
      <trkpt lat="48.1974" lon="-4.29642">
        <ele>23</ele>
        <time>2000-01-01T01:23:54.000Z</time>
      </trkpt>
      <trkpt lat="48.19737" lon="-4.29598">
        <ele>23</ele>
        <time>2000-01-01T01:24:04.000Z</time>
      </trkpt>
      <trkpt lat="48.19759" lon="-4.29543">
        <ele>21</ele>
        <time>2000-01-01T01:24:14.000Z</time>
      </trkpt>
      <trkpt lat="48.19769" lon="-4.29527">
        <ele>23.9</ele>
        <time>2000-01-01T01:24:24.000Z</time>
      </trkpt>
      <trkpt lat="48.1977" lon="-4.2949">
        <ele>22</ele>
        <time>2000-01-01T01:24:34.000Z</time>
      </trkpt>
      <trkpt lat="48.19772" lon="-4.29477">
        <ele>24.7</ele>
        <time>2000-01-01T01:24:44.000Z</time>
      </trkpt>
      <trkpt lat="48.19777" lon="-4.29456">
        <ele>23</ele>
        <time>2000-01-01T01:24:54.000Z</time>
      </trkpt>
      <trkpt lat="48.19784" lon="-4.29435">
        <ele>25.1</ele>
        <time>2000-01-01T01:25:04.000Z</time>
      </trkpt>
      <trkpt lat="48.19799" lon="-4.29405">
        <ele>24</ele>
        <time>2000-01-01T01:25:14.000Z</time>
      </trkpt>
      <trkpt lat="48.19822" lon="-4.29376">
        <ele>25</ele>
        <time>2000-01-01T01:25:24.000Z</time>
      </trkpt>
      <trkpt lat="48.19843" lon="-4.29351">
        <ele>25</ele>
        <time>2000-01-01T01:25:34.000Z</time>
      </trkpt>
      <trkpt lat="48.19872" lon="-4.29315">
        <ele>21</ele>
        <time>2000-01-01T01:25:44.000Z</time>
      </trkpt>
      <trkpt lat="48.19895" lon="-4.2929">
        <ele>18</ele>
        <time>2000-01-01T01:25:54.000Z</time>
      </trkpt>
      <trkpt lat="48.19907" lon="-4.29302">
        <ele>29</ele>
        <time>2000-01-01T01:26:04.000Z</time>
      </trkpt>
      <trkpt lat="48.19971" lon="-4.29345">
        <ele>15</ele>
        <time>2000-01-01T01:26:14.000Z</time>
      </trkpt>
      <trkpt lat="48.19988" lon="-4.29361">
        <ele>15</ele>
        <time>2000-01-01T01:26:24.000Z</time>
      </trkpt>
      <trkpt lat="48.20002" lon="-4.29387">
        <ele>13</ele>
        <time>2000-01-01T01:26:34.000Z</time>
      </trkpt>
      <trkpt lat="48.20014" lon="-4.29417">
        <ele>13</ele>
        <time>2000-01-01T01:26:44.000Z</time>
      </trkpt>
      <trkpt lat="48.20018" lon="-4.294">
        <ele>15.9</ele>
        <time>2000-01-01T01:26:54.000Z</time>
      </trkpt>
      <trkpt lat="48.20024" lon="-4.29354">
        <ele>14</ele>
        <time>2000-01-01T01:27:04.000Z</time>
      </trkpt>
      <trkpt lat="48.2003" lon="-4.29326">
        <ele>14</ele>
        <time>2000-01-01T01:27:14.000Z</time>
      </trkpt>
      <trkpt lat="48.20042" lon="-4.29287">
        <ele>16</ele>
        <time>2000-01-01T01:27:24.000Z</time>
      </trkpt>
      <trkpt lat="48.20052" lon="-4.29267">
        <ele>17.9</ele>
        <time>2000-01-01T01:27:34.000Z</time>
      </trkpt>
      <trkpt lat="48.20059" lon="-4.29256">
        <ele>18</ele>
        <time>2000-01-01T01:27:44.000Z</time>
      </trkpt>
      <trkpt lat="48.20076" lon="-4.29243">
        <ele>18</ele>
        <time>2000-01-01T01:27:54.000Z</time>
      </trkpt>
      <trkpt lat="48.20097" lon="-4.29232">
        <ele>18</ele>
        <time>2000-01-01T01:28:04.000Z</time>
      </trkpt>
      <trkpt lat="48.20117" lon="-4.2923">
        <ele>17</ele>
        <time>2000-01-01T01:28:14.000Z</time>
      </trkpt>
      <trkpt lat="48.20125" lon="-4.29226">
        <ele>19.4</ele>
        <time>2000-01-01T01:28:24.000Z</time>
      </trkpt>
      <trkpt lat="48.20135" lon="-4.29214">
        <ele>17</ele>
        <time>2000-01-01T01:28:34.000Z</time>
      </trkpt>
      <trkpt lat="48.20154" lon="-4.29185">
        <ele>18</ele>
        <time>2000-01-01T01:28:44.000Z</time>
      </trkpt>
      <trkpt lat="48.20183" lon="-4.29138">
        <ele>23</ele>
        <time>2000-01-01T01:28:54.000Z</time>
      </trkpt>
      <trkpt lat="48.20189" lon="-4.29133">
        <ele>26.4</ele>
        <time>2000-01-01T01:29:04.000Z</time>
      </trkpt>
      <trkpt lat="48.20193" lon="-4.29134">
        <ele>26.8</ele>
        <time>2000-01-01T01:29:14.000Z</time>
      </trkpt>
      <trkpt lat="48.20203" lon="-4.29153">
        <ele>33</ele>
        <time>2000-01-01T01:29:24.000Z</time>
      </trkpt>
      <trkpt lat="48.20206" lon="-4.29155">
        <ele>28</ele>
        <time>2000-01-01T01:29:34.000Z</time>
      </trkpt>
      <trkpt lat="48.20209" lon="-4.29153">
        <ele>28.3</ele>
        <time>2000-01-01T01:29:44.000Z</time>
      </trkpt>
      <trkpt lat="48.20249" lon="-4.2909">
        <ele>38</ele>
        <time>2000-01-01T01:29:54.000Z</time>
      </trkpt>
      <trkpt lat="48.20267" lon="-4.29053">
        <ele>38</ele>
        <time>2000-01-01T01:30:04.000Z</time>
      </trkpt>
      <trkpt lat="48.20285" lon="-4.29016">
        <ele>35</ele>
        <time>2000-01-01T01:30:14.000Z</time>
      </trkpt>
      <trkpt lat="48.20304" lon="-4.28976">
        <ele>35</ele>
        <time>2000-01-01T01:30:24.000Z</time>
      </trkpt>
      <trkpt lat="48.20315" lon="-4.28961">
        <ele>42.8</ele>
        <time>2000-01-01T01:30:34.000Z</time>
      </trkpt>
      <trkpt lat="48.20324" lon="-4.28961">
        <ele>36</ele>
        <time>2000-01-01T01:30:44.000Z</time>
      </trkpt>
      <trkpt lat="48.20345" lon="-4.28976">
        <ele>36</ele>
        <time>2000-01-01T01:30:54.000Z</time>
      </trkpt>
      <trkpt lat="48.20366" lon="-4.28991">
        <ele>44</ele>
        <time>2000-01-01T01:31:04.000Z</time>
      </trkpt>
      <trkpt lat="48.20372" lon="-4.28991">
        <ele>45.7</ele>
        <time>2000-01-01T01:31:14.000Z</time>
      </trkpt>
      <trkpt lat="48.20378" lon="-4.28983">
        <ele>46.2</ele>
        <time>2000-01-01T01:31:24.000Z</time>
      </trkpt>
      <trkpt lat="48.20418" lon="-4.28831">
        <ele>47</ele>
        <time>2000-01-01T01:31:34.000Z</time>
      </trkpt>
      <trkpt lat="48.20437" lon="-4.28785">
        <ele>49</ele>
        <time>2000-01-01T01:31:44.000Z</time>
      </trkpt>
      <trkpt lat="48.20455" lon="-4.28739">
        <ele>49</ele>
        <time>2000-01-01T01:31:54.000Z</time>
      </trkpt>
      <trkpt lat="48.20474" lon="-4.28694">
        <ele>49</ele>
        <time>2000-01-01T01:32:04.000Z</time>
      </trkpt>
      <trkpt lat="48.2051" lon="-4.28605">
        <ele>49</ele>
        <time>2000-01-01T01:32:14.000Z</time>
      </trkpt>
      <trkpt lat="48.20522" lon="-4.28573">
        <ele>49</ele>
        <time>2000-01-01T01:32:24.000Z</time>
      </trkpt>
      <trkpt lat="48.20538" lon="-4.28533">
        <ele>46</ele>
        <time>2000-01-01T01:32:34.000Z</time>
      </trkpt>
      <trkpt lat="48.20553" lon="-4.28497">
        <ele>39</ele>
        <time>2000-01-01T01:32:44.000Z</time>
      </trkpt>
      <trkpt lat="48.20566" lon="-4.28473">
        <ele>39</ele>
        <time>2000-01-01T01:32:54.000Z</time>
      </trkpt>
      <trkpt lat="48.20587" lon="-4.28495">
        <ele>39</ele>
        <time>2000-01-01T01:33:04.000Z</time>
      </trkpt>
      <trkpt lat="48.2061" lon="-4.28514">
        <ele>39</ele>
        <time>2000-01-01T01:33:14.000Z</time>
      </trkpt>
      <trkpt lat="48.20642" lon="-4.2854">
        <ele>40</ele>
        <time>2000-01-01T01:33:24.000Z</time>
      </trkpt>
      <trkpt lat="48.20677" lon="-4.28558">
        <ele>44</ele>
        <time>2000-01-01T01:33:34.000Z</time>
      </trkpt>
      <trkpt lat="48.20701" lon="-4.2856">
        <ele>44</ele>
        <time>2000-01-01T01:33:44.000Z</time>
      </trkpt>
      <trkpt lat="48.20729" lon="-4.28562">
        <ele>45</ele>
        <time>2000-01-01T01:33:54.000Z</time>
      </trkpt>
      <trkpt lat="48.20753" lon="-4.28562">
        <ele>50</ele>
        <time>2000-01-01T01:34:04.000Z</time>
      </trkpt>
      <trkpt lat="48.20783" lon="-4.28561">
        <ele>50</ele>
        <time>2000-01-01T01:34:14.000Z</time>
      </trkpt>
      <trkpt lat="48.20812" lon="-4.28552">
        <ele>50</ele>
        <time>2000-01-01T01:34:24.000Z</time>
      </trkpt>
      <trkpt lat="48.20836" lon="-4.28544">
        <ele>53</ele>
        <time>2000-01-01T01:34:34.000Z</time>
      </trkpt>
      <trkpt lat="48.20867" lon="-4.28533">
        <ele>54</ele>
        <time>2000-01-01T01:34:44.000Z</time>
      </trkpt>
      <trkpt lat="48.20876" lon="-4.28527">
        <ele>54.5</ele>
        <time>2000-01-01T01:34:54.000Z</time>
      </trkpt>
      <trkpt lat="48.20904" lon="-4.28519">
        <ele>54</ele>
        <time>2000-01-01T01:35:04.000Z</time>
      </trkpt>
      <trkpt lat="48.2093" lon="-4.28517">
        <ele>54</ele>
        <time>2000-01-01T01:35:14.000Z</time>
      </trkpt>
      <trkpt lat="48.20958" lon="-4.28533">
        <ele>54</ele>
        <time>2000-01-01T01:35:24.000Z</time>
      </trkpt>
      <trkpt lat="48.21012" lon="-4.28564">
        <ele>56</ele>
        <time>2000-01-01T01:35:34.000Z</time>
      </trkpt>
      <trkpt lat="48.21017" lon="-4.28566">
        <ele>58.6</ele>
        <time>2000-01-01T01:35:44.000Z</time>
      </trkpt>
      <trkpt lat="48.21024" lon="-4.28563">
        <ele>58.9</ele>
        <time>2000-01-01T01:35:54.000Z</time>
      </trkpt>
      <trkpt lat="48.21028" lon="-4.28553">
        <ele>62</ele>
        <time>2000-01-01T01:36:04.000Z</time>
      </trkpt>
      <trkpt lat="48.21032" lon="-4.28533">
        <ele>59.2</ele>
        <time>2000-01-01T01:36:14.000Z</time>
      </trkpt>
      <trkpt lat="48.21041" lon="-4.28502">
        <ele>63</ele>
        <time>2000-01-01T01:36:24.000Z</time>
      </trkpt>
      <trkpt lat="48.21058" lon="-4.28462">
        <ele>63</ele>
        <time>2000-01-01T01:36:34.000Z</time>
      </trkpt>
      <trkpt lat="48.21069" lon="-4.28426">
        <ele>63</ele>
        <time>2000-01-01T01:36:44.000Z</time>
      </trkpt>
      <trkpt lat="48.21084" lon="-4.28374">
        <ele>63</ele>
        <time>2000-01-01T01:36:54.000Z</time>
      </trkpt>
      <trkpt lat="48.21094" lon="-4.28342">
        <ele>63</ele>
        <time>2000-01-01T01:37:04.000Z</time>
      </trkpt>
      <trkpt lat="48.21105" lon="-4.28306">
        <ele>69</ele>
        <time>2000-01-01T01:37:14.000Z</time>
      </trkpt>
      <trkpt lat="48.21114" lon="-4.28285">
        <ele>60.2</ele>
        <time>2000-01-01T01:37:24.000Z</time>
      </trkpt>
      <trkpt lat="48.21143" lon="-4.28229">
        <ele>69</ele>
        <time>2000-01-01T01:37:34.000Z</time>
      </trkpt>
      <trkpt lat="48.2117" lon="-4.28196">
        <ele>68</ele>
        <time>2000-01-01T01:37:44.000Z</time>
      </trkpt>
      <trkpt lat="48.21191" lon="-4.28166">
        <ele>68</ele>
        <time>2000-01-01T01:37:54.000Z</time>
      </trkpt>
      <trkpt lat="48.21215" lon="-4.28121">
        <ele>69</ele>
        <time>2000-01-01T01:38:04.000Z</time>
      </trkpt>
      <trkpt lat="48.21226" lon="-4.28091">
        <ele>69</ele>
        <time>2000-01-01T01:38:14.000Z</time>
      </trkpt>
      <trkpt lat="48.21237" lon="-4.28058">
        <ele>68</ele>
        <time>2000-01-01T01:38:24.000Z</time>
      </trkpt>
      <trkpt lat="48.21223" lon="-4.28051">
        <ele>68.4</ele>
        <time>2000-01-01T01:38:34.000Z</time>
      </trkpt>
      <trkpt lat="48.21237" lon="-4.27966">
        <ele>68</ele>
        <time>2000-01-01T01:38:44.000Z</time>
      </trkpt>
      <trkpt lat="48.2125" lon="-4.27908">
        <ele>76</ele>
        <time>2000-01-01T01:38:54.000Z</time>
      </trkpt>
      <trkpt lat="48.21262" lon="-4.27878">
        <ele>77</ele>
        <time>2000-01-01T01:39:04.000Z</time>
      </trkpt>
      <trkpt lat="48.21277" lon="-4.27855">
        <ele>78</ele>
        <time>2000-01-01T01:39:14.000Z</time>
      </trkpt>
      <trkpt lat="48.21292" lon="-4.2784">
        <ele>78</ele>
        <time>2000-01-01T01:39:24.000Z</time>
      </trkpt>
      <trkpt lat="48.21312" lon="-4.27826">
        <ele>77</ele>
        <time>2000-01-01T01:39:34.000Z</time>
      </trkpt>
      <trkpt lat="48.21335" lon="-4.27822">
        <ele>76</ele>
        <time>2000-01-01T01:39:44.000Z</time>
      </trkpt>
      <trkpt lat="48.21368" lon="-4.27821">
        <ele>76</ele>
        <time>2000-01-01T01:39:54.000Z</time>
      </trkpt>
      <trkpt lat="48.21397" lon="-4.27821">
        <ele>76</ele>
        <time>2000-01-01T01:40:04.000Z</time>
      </trkpt>
      <trkpt lat="48.21452" lon="-4.27821">
        <ele>77</ele>
        <time>2000-01-01T01:40:14.000Z</time>
      </trkpt>
      <trkpt lat="48.21477" lon="-4.27823">
        <ele>77</ele>
        <time>2000-01-01T01:40:24.000Z</time>
      </trkpt>
      <trkpt lat="48.21509" lon="-4.27825">
        <ele>76</ele>
        <time>2000-01-01T01:40:34.000Z</time>
      </trkpt>
      <trkpt lat="48.21533" lon="-4.27823">
        <ele>75</ele>
        <time>2000-01-01T01:40:44.000Z</time>
      </trkpt>
      <trkpt lat="48.2156" lon="-4.2782">
        <ele>73</ele>
        <time>2000-01-01T01:40:54.000Z</time>
      </trkpt>
      <trkpt lat="48.21574" lon="-4.27815">
        <ele>81</ele>
        <time>2000-01-01T01:41:04.000Z</time>
      </trkpt>
      <trkpt lat="48.21582" lon="-4.27809">
        <ele>73</ele>
        <time>2000-01-01T01:41:14.000Z</time>
      </trkpt>
      <trkpt lat="48.21604" lon="-4.27788">
        <ele>74</ele>
        <time>2000-01-01T01:41:24.000Z</time>
      </trkpt>
      <trkpt lat="48.21617" lon="-4.27767">
        <ele>74</ele>
        <time>2000-01-01T01:41:34.000Z</time>
      </trkpt>
      <trkpt lat="48.21626" lon="-4.27747">
        <ele>77.5</ele>
        <time>2000-01-01T01:41:44.000Z</time>
      </trkpt>
      <trkpt lat="48.21635" lon="-4.2771">
        <ele>75</ele>
        <time>2000-01-01T01:41:54.000Z</time>
      </trkpt>
      <trkpt lat="48.21643" lon="-4.27666">
        <ele>77</ele>
        <time>2000-01-01T01:42:04.000Z</time>
      </trkpt>
      <trkpt lat="48.21649" lon="-4.27628">
        <ele>78</ele>
        <time>2000-01-01T01:42:14.000Z</time>
      </trkpt>
      <trkpt lat="48.21658" lon="-4.27577">
        <ele>78</ele>
        <time>2000-01-01T01:42:24.000Z</time>
      </trkpt>
      <trkpt lat="48.2167" lon="-4.27526">
        <ele>79</ele>
        <time>2000-01-01T01:42:34.000Z</time>
      </trkpt>
      <trkpt lat="48.21686" lon="-4.2747">
        <ele>79</ele>
        <time>2000-01-01T01:42:44.000Z</time>
      </trkpt>
      <trkpt lat="48.21686" lon="-4.27457">
        <ele>73.9</ele>
        <time>2000-01-01T01:42:54.000Z</time>
      </trkpt>
      <trkpt lat="48.21688" lon="-4.27437">
        <ele>79</ele>
        <time>2000-01-01T01:43:04.000Z</time>
      </trkpt>
      <trkpt lat="48.21697" lon="-4.27404">
        <ele>79</ele>
        <time>2000-01-01T01:43:14.000Z</time>
      </trkpt>
      <trkpt lat="48.21706" lon="-4.27369">
        <ele>79</ele>
        <time>2000-01-01T01:43:24.000Z</time>
      </trkpt>
      <trkpt lat="48.21716" lon="-4.27327">
        <ele>79</ele>
        <time>2000-01-01T01:43:34.000Z</time>
      </trkpt>
      <trkpt lat="48.21724" lon="-4.2729">
        <ele>77</ele>
        <time>2000-01-01T01:43:44.000Z</time>
      </trkpt>
      <trkpt lat="48.21735" lon="-4.27243">
        <ele>77</ele>
        <time>2000-01-01T01:43:54.000Z</time>
      </trkpt>
      <trkpt lat="48.21739" lon="-4.27196">
        <ele>76</ele>
        <time>2000-01-01T01:44:04.000Z</time>
      </trkpt>
      <trkpt lat="48.21742" lon="-4.27154">
        <ele>75</ele>
        <time>2000-01-01T01:44:14.000Z</time>
      </trkpt>
      <trkpt lat="48.21746" lon="-4.27084">
        <ele>75</ele>
        <time>2000-01-01T01:44:24.000Z</time>
      </trkpt>
      <trkpt lat="48.2175" lon="-4.27049">
        <ele>75</ele>
        <time>2000-01-01T01:44:34.000Z</time>
      </trkpt>
      <trkpt lat="48.21755" lon="-4.27008">
        <ele>75</ele>
        <time>2000-01-01T01:44:44.000Z</time>
      </trkpt>
      <trkpt lat="48.21761" lon="-4.26968">
        <ele>79</ele>
        <time>2000-01-01T01:44:54.000Z</time>
      </trkpt>
      <trkpt lat="48.21769" lon="-4.26908">
        <ele>85</ele>
        <time>2000-01-01T01:45:04.000Z</time>
      </trkpt>
      <trkpt lat="48.21775" lon="-4.26848">
        <ele>86</ele>
        <time>2000-01-01T01:45:14.000Z</time>
      </trkpt>
      <trkpt lat="48.2177" lon="-4.26809">
        <ele>85</ele>
        <time>2000-01-01T01:45:24.000Z</time>
      </trkpt>
      <trkpt lat="48.2176" lon="-4.26776">
        <ele>84</ele>
        <time>2000-01-01T01:45:34.000Z</time>
      </trkpt>
      <trkpt lat="48.21748" lon="-4.26738">
        <ele>84</ele>
        <time>2000-01-01T01:45:44.000Z</time>
      </trkpt>
      <trkpt lat="48.21738" lon="-4.26702">
        <ele>86</ele>
        <time>2000-01-01T01:45:54.000Z</time>
      </trkpt>
      <trkpt lat="48.2173" lon="-4.26639">
        <ele>88</ele>
        <time>2000-01-01T01:46:04.000Z</time>
      </trkpt>
      <trkpt lat="48.21728" lon="-4.26591">
        <ele>91</ele>
        <time>2000-01-01T01:46:14.000Z</time>
      </trkpt>
      <trkpt lat="48.21732" lon="-4.26561">
        <ele>93</ele>
        <time>2000-01-01T01:46:24.000Z</time>
      </trkpt>
      <trkpt lat="48.21739" lon="-4.26526">
        <ele>97</ele>
        <time>2000-01-01T01:46:34.000Z</time>
      </trkpt>
      <trkpt lat="48.21747" lon="-4.26483">
        <ele>98</ele>
        <time>2000-01-01T01:46:44.000Z</time>
      </trkpt>
      <trkpt lat="48.21756" lon="-4.2645">
        <ele>99</ele>
        <time>2000-01-01T01:46:54.000Z</time>
      </trkpt>
      <trkpt lat="48.21767" lon="-4.26414">
        <ele>98</ele>
        <time>2000-01-01T01:47:04.000Z</time>
      </trkpt>
      <trkpt lat="48.21777" lon="-4.26383">
        <ele>98</ele>
        <time>2000-01-01T01:47:14.000Z</time>
      </trkpt>
      <trkpt lat="48.21786" lon="-4.26346">
        <ele>98</ele>
        <time>2000-01-01T01:47:24.000Z</time>
      </trkpt>
      <trkpt lat="48.218" lon="-4.26295">
        <ele>98</ele>
        <time>2000-01-01T01:47:34.000Z</time>
      </trkpt>
      <trkpt lat="48.21814" lon="-4.26254">
        <ele>98</ele>
        <time>2000-01-01T01:47:44.000Z</time>
      </trkpt>
      <trkpt lat="48.21828" lon="-4.26213">
        <ele>102</ele>
        <time>2000-01-01T01:47:54.000Z</time>
      </trkpt>
      <trkpt lat="48.21844" lon="-4.26166">
        <ele>104</ele>
        <time>2000-01-01T01:48:04.000Z</time>
      </trkpt>
      <trkpt lat="48.21852" lon="-4.26154">
        <ele>110.8</ele>
        <time>2000-01-01T01:48:14.000Z</time>
      </trkpt>
      <trkpt lat="48.21893" lon="-4.26125">
        <ele>109</ele>
        <time>2000-01-01T01:48:24.000Z</time>
      </trkpt>
      <trkpt lat="48.21916" lon="-4.2611">
        <ele>109</ele>
        <time>2000-01-01T01:48:34.000Z</time>
      </trkpt>
      <trkpt lat="48.21921" lon="-4.26102">
        <ele>113.5</ele>
        <time>2000-01-01T01:48:44.000Z</time>
      </trkpt>
      <trkpt lat="48.21926" lon="-4.26085">
        <ele>110</ele>
        <time>2000-01-01T01:48:54.000Z</time>
      </trkpt>
      <trkpt lat="48.21928" lon="-4.26072">
        <ele>114.8</ele>
        <time>2000-01-01T01:49:04.000Z</time>
      </trkpt>
      <trkpt lat="48.21895" lon="-4.26037">
        <ele>110</ele>
        <time>2000-01-01T01:49:14.000Z</time>
      </trkpt>
      <trkpt lat="48.21889" lon="-4.26028">
        <ele>115</ele>
        <time>2000-01-01T01:49:24.000Z</time>
      </trkpt>
      <trkpt lat="48.21885" lon="-4.26017">
        <ele>115.4</ele>
        <time>2000-01-01T01:49:34.000Z</time>
      </trkpt>
      <trkpt lat="48.21882" lon="-4.2598">
        <ele>115</ele>
        <time>2000-01-01T01:49:44.000Z</time>
      </trkpt>
      <trkpt lat="48.21888" lon="-4.25941">
        <ele>115</ele>
        <time>2000-01-01T01:49:54.000Z</time>
      </trkpt>
      <trkpt lat="48.21896" lon="-4.25883">
        <ele>116</ele>
        <time>2000-01-01T01:50:04.000Z</time>
      </trkpt>
      <trkpt lat="48.21906" lon="-4.25824">
        <ele>119</ele>
        <time>2000-01-01T01:50:14.000Z</time>
      </trkpt>
      <trkpt lat="48.21906" lon="-4.25812">
        <ele>125.9</ele>
        <time>2000-01-01T01:50:24.000Z</time>
      </trkpt>
      <trkpt lat="48.21903" lon="-4.25799">
        <ele>126.3</ele>
        <time>2000-01-01T01:50:34.000Z</time>
      </trkpt>
      <trkpt lat="48.21892" lon="-4.25787">
        <ele>119</ele>
        <time>2000-01-01T01:50:44.000Z</time>
      </trkpt>
      <trkpt lat="48.21866" lon="-4.2578">
        <ele>118</ele>
        <time>2000-01-01T01:50:54.000Z</time>
      </trkpt>
      <trkpt lat="48.21827" lon="-4.25769">
        <ele>118</ele>
        <time>2000-01-01T01:51:04.000Z</time>
      </trkpt>
      <trkpt lat="48.21802" lon="-4.25763">
        <ele>121</ele>
        <time>2000-01-01T01:51:14.000Z</time>
      </trkpt>
      <trkpt lat="48.21772" lon="-4.25755">
        <ele>121</ele>
        <time>2000-01-01T01:51:24.000Z</time>
      </trkpt>
      <trkpt lat="48.21737" lon="-4.2575">
        <ele>122</ele>
        <time>2000-01-01T01:51:34.000Z</time>
      </trkpt>
      <trkpt lat="48.21702" lon="-4.25745">
        <ele>124</ele>
        <time>2000-01-01T01:51:44.000Z</time>
      </trkpt>
      <trkpt lat="48.21667" lon="-4.2574">
        <ele>124</ele>
        <time>2000-01-01T01:51:54.000Z</time>
      </trkpt>
      <trkpt lat="48.21614" lon="-4.25732">
        <ele>123</ele>
        <time>2000-01-01T01:52:04.000Z</time>
      </trkpt>
      <trkpt lat="48.21591" lon="-4.2572">
        <ele>122</ele>
        <time>2000-01-01T01:52:14.000Z</time>
      </trkpt>
      <trkpt lat="48.21564" lon="-4.25705">
        <ele>124</ele>
        <time>2000-01-01T01:52:24.000Z</time>
      </trkpt>
      <trkpt lat="48.21529" lon="-4.25676">
        <ele>127</ele>
        <time>2000-01-01T01:52:34.000Z</time>
      </trkpt>
      <trkpt lat="48.21502" lon="-4.25664">
        <ele>131</ele>
        <time>2000-01-01T01:52:44.000Z</time>
      </trkpt>
      <trkpt lat="48.2148" lon="-4.25668">
        <ele>138</ele>
        <time>2000-01-01T01:52:54.000Z</time>
      </trkpt>
      <trkpt lat="48.21467" lon="-4.25677">
        <ele>140.1</ele>
        <time>2000-01-01T01:53:04.000Z</time>
      </trkpt>
      <trkpt lat="48.21419" lon="-4.25745">
        <ele>146</ele>
        <time>2000-01-01T01:53:14.000Z</time>
      </trkpt>
      <trkpt lat="48.21394" lon="-4.25761">
        <ele>146</ele>
        <time>2000-01-01T01:53:24.000Z</time>
      </trkpt>
      <trkpt lat="48.21373" lon="-4.25766">
        <ele>146</ele>
        <time>2000-01-01T01:53:34.000Z</time>
      </trkpt>
      <trkpt lat="48.21349" lon="-4.25766">
        <ele>146</ele>
        <time>2000-01-01T01:53:44.000Z</time>
      </trkpt>
      <trkpt lat="48.21308" lon="-4.25759">
        <ele>146</ele>
        <time>2000-01-01T01:53:54.000Z</time>
      </trkpt>
      <trkpt lat="48.21297" lon="-4.25751">
        <ele>151.2</ele>
        <time>2000-01-01T01:54:04.000Z</time>
      </trkpt>
      <trkpt lat="48.21281" lon="-4.25724">
        <ele>154</ele>
        <time>2000-01-01T01:54:14.000Z</time>
      </trkpt>
      <trkpt lat="48.21271" lon="-4.2572">
        <ele>155</ele>
        <time>2000-01-01T01:54:24.000Z</time>
      </trkpt>
      <trkpt lat="48.21257" lon="-4.25726">
        <ele>162</ele>
        <time>2000-01-01T01:54:34.000Z</time>
      </trkpt>
      <trkpt lat="48.21239" lon="-4.25742">
        <ele>162</ele>
        <time>2000-01-01T01:54:44.000Z</time>
      </trkpt>
      <trkpt lat="48.21222" lon="-4.25765">
        <ele>163</ele>
        <time>2000-01-01T01:54:54.000Z</time>
      </trkpt>
      <trkpt lat="48.21206" lon="-4.25797">
        <ele>162</ele>
        <time>2000-01-01T01:55:04.000Z</time>
      </trkpt>
      <trkpt lat="48.21193" lon="-4.25843">
        <ele>162</ele>
        <time>2000-01-01T01:55:14.000Z</time>
      </trkpt>
      <trkpt lat="48.21189" lon="-4.25895">
        <ele>164</ele>
        <time>2000-01-01T01:55:24.000Z</time>
      </trkpt>
      <trkpt lat="48.21191" lon="-4.25941">
        <ele>164</ele>
        <time>2000-01-01T01:55:34.000Z</time>
      </trkpt>
      <trkpt lat="48.21193" lon="-4.25987">
        <ele>163</ele>
        <time>2000-01-01T01:55:44.000Z</time>
      </trkpt>
      <trkpt lat="48.21195" lon="-4.26039">
        <ele>163</ele>
        <time>2000-01-01T01:55:54.000Z</time>
      </trkpt>
      <trkpt lat="48.21194" lon="-4.26076">
        <ele>159</ele>
        <time>2000-01-01T01:56:04.000Z</time>
      </trkpt>
      <trkpt lat="48.2119" lon="-4.26091">
        <ele>167.6</ele>
        <time>2000-01-01T01:56:14.000Z</time>
      </trkpt>
      <trkpt lat="48.21155" lon="-4.2609">
        <ele>159</ele>
        <time>2000-01-01T01:56:24.000Z</time>
      </trkpt>
      <trkpt lat="48.21124" lon="-4.26102">
        <ele>158</ele>
        <time>2000-01-01T01:56:34.000Z</time>
      </trkpt>
      <trkpt lat="48.21093" lon="-4.26113">
        <ele>159</ele>
        <time>2000-01-01T01:56:44.000Z</time>
      </trkpt>
      <trkpt lat="48.21048" lon="-4.2613">
        <ele>161</ele>
        <time>2000-01-01T01:56:54.000Z</time>
      </trkpt>
      <trkpt lat="48.21013" lon="-4.26144">
        <ele>162</ele>
        <time>2000-01-01T01:57:04.000Z</time>
      </trkpt>
      <trkpt lat="48.20988" lon="-4.26153">
        <ele>162</ele>
        <time>2000-01-01T01:57:14.000Z</time>
      </trkpt>
      <trkpt lat="48.20956" lon="-4.26165">
        <ele>162</ele>
        <time>2000-01-01T01:57:24.000Z</time>
      </trkpt>
      <trkpt lat="48.20922" lon="-4.26172">
        <ele>164</ele>
        <time>2000-01-01T01:57:34.000Z</time>
      </trkpt>
      <trkpt lat="48.20889" lon="-4.2618">
        <ele>163</ele>
        <time>2000-01-01T01:57:44.000Z</time>
      </trkpt>
      <trkpt lat="48.20856" lon="-4.26187">
        <ele>163</ele>
        <time>2000-01-01T01:57:54.000Z</time>
      </trkpt>
      <trkpt lat="48.2082" lon="-4.26195">
        <ele>168</ele>
        <time>2000-01-01T01:58:04.000Z</time>
      </trkpt>
      <trkpt lat="48.20808" lon="-4.26202">
        <ele>171.6</ele>
        <time>2000-01-01T01:58:14.000Z</time>
      </trkpt>
      <trkpt lat="48.20729" lon="-4.26268">
        <ele>168</ele>
        <time>2000-01-01T01:58:24.000Z</time>
      </trkpt>
      <trkpt lat="48.20709" lon="-4.26286">
        <ele>168</ele>
        <time>2000-01-01T01:58:34.000Z</time>
      </trkpt>
      <trkpt lat="48.20689" lon="-4.26305">
        <ele>163</ele>
        <time>2000-01-01T01:58:44.000Z</time>
      </trkpt>
      <trkpt lat="48.20651" lon="-4.26338">
        <ele>161</ele>
        <time>2000-01-01T01:58:54.000Z</time>
      </trkpt>
      <trkpt lat="48.20619" lon="-4.26363">
        <ele>160</ele>
        <time>2000-01-01T01:59:04.000Z</time>
      </trkpt>
      <trkpt lat="48.20588" lon="-4.26388">
        <ele>159</ele>
        <time>2000-01-01T01:59:14.000Z</time>
      </trkpt>
      <trkpt lat="48.20556" lon="-4.26413">
        <ele>155</ele>
        <time>2000-01-01T01:59:24.000Z</time>
      </trkpt>
      <trkpt lat="48.20495" lon="-4.26461">
        <ele>156</ele>
        <time>2000-01-01T01:59:34.000Z</time>
      </trkpt>
      <trkpt lat="48.20458" lon="-4.26491">
        <ele>157</ele>
        <time>2000-01-01T01:59:44.000Z</time>
      </trkpt>
      <trkpt lat="48.20436" lon="-4.26511">
        <ele>163</ele>
        <time>2000-01-01T01:59:54.000Z</time>
      </trkpt>
      <trkpt lat="48.20406" lon="-4.26538">
        <ele>164</ele>
        <time>2000-01-01T02:00:04.000Z</time>
      </trkpt>
      <trkpt lat="48.20385" lon="-4.26559">
        <ele>162</ele>
        <time>2000-01-01T02:00:14.000Z</time>
      </trkpt>
      <trkpt lat="48.20358" lon="-4.26586">
        <ele>160</ele>
        <time>2000-01-01T02:00:24.000Z</time>
      </trkpt>
      <trkpt lat="48.20347" lon="-4.26602">
        <ele>157.7</ele>
        <time>2000-01-01T02:00:34.000Z</time>
      </trkpt>
      <trkpt lat="48.20345" lon="-4.26567">
        <ele>158</ele>
        <time>2000-01-01T02:00:44.000Z</time>
      </trkpt>
      <trkpt lat="48.20346" lon="-4.26524">
        <ele>159</ele>
        <time>2000-01-01T02:00:54.000Z</time>
      </trkpt>
      <trkpt lat="48.20349" lon="-4.26448">
        <ele>160</ele>
        <time>2000-01-01T02:01:04.000Z</time>
      </trkpt>
      <trkpt lat="48.20352" lon="-4.26389">
        <ele>160</ele>
        <time>2000-01-01T02:01:14.000Z</time>
      </trkpt>
      <trkpt lat="48.20354" lon="-4.26335">
        <ele>160</ele>
        <time>2000-01-01T02:01:24.000Z</time>
      </trkpt>
      <trkpt lat="48.20356" lon="-4.26281">
        <ele>165</ele>
        <time>2000-01-01T02:01:34.000Z</time>
      </trkpt>
      <trkpt lat="48.20357" lon="-4.26227">
        <ele>167</ele>
        <time>2000-01-01T02:01:44.000Z</time>
      </trkpt>
      <trkpt lat="48.20359" lon="-4.26173">
        <ele>168</ele>
        <time>2000-01-01T02:01:54.000Z</time>
      </trkpt>
      <trkpt lat="48.20361" lon="-4.26116">
        <ele>170</ele>
        <time>2000-01-01T02:02:04.000Z</time>
      </trkpt>
      <trkpt lat="48.20363" lon="-4.26072">
        <ele>171</ele>
        <time>2000-01-01T02:02:14.000Z</time>
      </trkpt>
      <trkpt lat="48.20364" lon="-4.26018">
        <ele>173</ele>
        <time>2000-01-01T02:02:24.000Z</time>
      </trkpt>
      <trkpt lat="48.20366" lon="-4.25964">
        <ele>175</ele>
        <time>2000-01-01T02:02:34.000Z</time>
      </trkpt>
      <trkpt lat="48.20367" lon="-4.2591">
        <ele>177</ele>
        <time>2000-01-01T02:02:44.000Z</time>
      </trkpt>
      <trkpt lat="48.20369" lon="-4.25856">
        <ele>179</ele>
        <time>2000-01-01T02:02:54.000Z</time>
      </trkpt>
      <trkpt lat="48.2037" lon="-4.25801">
        <ele>180</ele>
        <time>2000-01-01T02:03:04.000Z</time>
      </trkpt>
      <trkpt lat="48.20369" lon="-4.25775">
        <ele>189.4</ele>
        <time>2000-01-01T02:03:14.000Z</time>
      </trkpt>
      <trkpt lat="48.20357" lon="-4.25825">
        <ele>179</ele>
        <time>2000-01-01T02:03:24.000Z</time>
      </trkpt>
      <trkpt lat="48.20338" lon="-4.25869">
        <ele>178</ele>
        <time>2000-01-01T02:03:34.000Z</time>
      </trkpt>
      <trkpt lat="48.2032" lon="-4.25898">
        <ele>177</ele>
        <time>2000-01-01T02:03:44.000Z</time>
      </trkpt>
      <trkpt lat="48.20298" lon="-4.25925">
        <ele>177</ele>
        <time>2000-01-01T02:03:54.000Z</time>
      </trkpt>
      <trkpt lat="48.20267" lon="-4.25949">
        <ele>174</ele>
        <time>2000-01-01T02:04:04.000Z</time>
      </trkpt>
      <trkpt lat="48.20238" lon="-4.25972">
        <ele>170</ele>
        <time>2000-01-01T02:04:14.000Z</time>
      </trkpt>
      <trkpt lat="48.2021" lon="-4.25995">
        <ele>170</ele>
        <time>2000-01-01T02:04:24.000Z</time>
      </trkpt>
      <trkpt lat="48.20165" lon="-4.26031">
        <ele>171</ele>
        <time>2000-01-01T02:04:34.000Z</time>
      </trkpt>
      <trkpt lat="48.20135" lon="-4.26054">
        <ele>171</ele>
        <time>2000-01-01T02:04:44.000Z</time>
      </trkpt>
      <trkpt lat="48.20105" lon="-4.26077">
        <ele>170</ele>
        <time>2000-01-01T02:04:54.000Z</time>
      </trkpt>
      <trkpt lat="48.20075" lon="-4.261">
        <ele>169</ele>
        <time>2000-01-01T02:05:04.000Z</time>
      </trkpt>
      <trkpt lat="48.20044" lon="-4.26124">
        <ele>169</ele>
        <time>2000-01-01T02:05:14.000Z</time>
      </trkpt>
      <trkpt lat="48.20015" lon="-4.26148">
        <ele>166</ele>
        <time>2000-01-01T02:05:24.000Z</time>
      </trkpt>
      <trkpt lat="48.19987" lon="-4.26173">
        <ele>164</ele>
        <time>2000-01-01T02:05:34.000Z</time>
      </trkpt>
      <trkpt lat="48.19965" lon="-4.26192">
        <ele>162</ele>
        <time>2000-01-01T02:05:44.000Z</time>
      </trkpt>
      <trkpt lat="48.19935" lon="-4.26216">
        <ele>155</ele>
        <time>2000-01-01T02:05:54.000Z</time>
      </trkpt>
      <trkpt lat="48.19898" lon="-4.26253">
        <ele>152</ele>
        <time>2000-01-01T02:06:04.000Z</time>
      </trkpt>
      <trkpt lat="48.19875" lon="-4.26284">
        <ele>150</ele>
        <time>2000-01-01T02:06:14.000Z</time>
      </trkpt>
      <trkpt lat="48.19861" lon="-4.26319">
        <ele>146</ele>
        <time>2000-01-01T02:06:24.000Z</time>
      </trkpt>
      <trkpt lat="48.1984" lon="-4.2637">
        <ele>146</ele>
        <time>2000-01-01T02:06:34.000Z</time>
      </trkpt>
      <trkpt lat="48.1981" lon="-4.26357">
        <ele>146</ele>
        <time>2000-01-01T02:06:44.000Z</time>
      </trkpt>
      <trkpt lat="48.19779" lon="-4.26345">
        <ele>146</ele>
        <time>2000-01-01T02:06:54.000Z</time>
      </trkpt>
      <trkpt lat="48.19757" lon="-4.26335">
        <ele>145</ele>
        <time>2000-01-01T02:07:04.000Z</time>
      </trkpt>
      <trkpt lat="48.19734" lon="-4.26326">
        <ele>142</ele>
        <time>2000-01-01T02:07:14.000Z</time>
      </trkpt>
      <trkpt lat="48.19717" lon="-4.26312">
        <ele>142</ele>
        <time>2000-01-01T02:07:24.000Z</time>
      </trkpt>
      <trkpt lat="48.19703" lon="-4.26283">
        <ele>143</ele>
        <time>2000-01-01T02:07:34.000Z</time>
      </trkpt>
      <trkpt lat="48.197" lon="-4.26236">
        <ele>145</ele>
        <time>2000-01-01T02:07:44.000Z</time>
      </trkpt>
      <trkpt lat="48.19698" lon="-4.2619">
        <ele>145</ele>
        <time>2000-01-01T02:07:54.000Z</time>
      </trkpt>
      <trkpt lat="48.19694" lon="-4.26129">
        <ele>144</ele>
        <time>2000-01-01T02:08:04.000Z</time>
      </trkpt>
      <trkpt lat="48.19694" lon="-4.26089">
        <ele>144</ele>
        <time>2000-01-01T02:08:14.000Z</time>
      </trkpt>
      <trkpt lat="48.19694" lon="-4.26031">
        <ele>145</ele>
        <time>2000-01-01T02:08:24.000Z</time>
      </trkpt>
      <trkpt lat="48.197" lon="-4.26003">
        <ele>154</ele>
        <time>2000-01-01T02:08:34.000Z</time>
      </trkpt>
      <trkpt lat="48.19722" lon="-4.25949">
        <ele>155</ele>
        <time>2000-01-01T02:08:44.000Z</time>
      </trkpt>
      <trkpt lat="48.19748" lon="-4.25895">
        <ele>157</ele>
        <time>2000-01-01T02:08:54.000Z</time>
      </trkpt>
      <trkpt lat="48.19725" lon="-4.25872">
        <ele>158</ele>
        <time>2000-01-01T02:09:04.000Z</time>
      </trkpt>
      <trkpt lat="48.1969" lon="-4.25837">
        <ele>158</ele>
        <time>2000-01-01T02:09:14.000Z</time>
      </trkpt>
      <trkpt lat="48.19672" lon="-4.25814">
        <ele>158</ele>
        <time>2000-01-01T02:09:24.000Z</time>
      </trkpt>
      <trkpt lat="48.19659" lon="-4.25791">
        <ele>157</ele>
        <time>2000-01-01T02:09:34.000Z</time>
      </trkpt>
      <trkpt lat="48.19639" lon="-4.25741">
        <ele>157</ele>
        <time>2000-01-01T02:09:44.000Z</time>
      </trkpt>
      <trkpt lat="48.19615" lon="-4.25697">
        <ele>156</ele>
        <time>2000-01-01T02:09:54.000Z</time>
      </trkpt>
      <trkpt lat="48.19584" lon="-4.25649">
        <ele>154</ele>
        <time>2000-01-01T02:10:04.000Z</time>
      </trkpt>
      <trkpt lat="48.19555" lon="-4.25626">
        <ele>153</ele>
        <time>2000-01-01T02:10:14.000Z</time>
      </trkpt>
      <trkpt lat="48.19531" lon="-4.25619">
        <ele>151</ele>
        <time>2000-01-01T02:10:24.000Z</time>
      </trkpt>
      <trkpt lat="48.19503" lon="-4.25611">
        <ele>150</ele>
        <time>2000-01-01T02:10:34.000Z</time>
      </trkpt>
      <trkpt lat="48.19481" lon="-4.25591">
        <ele>148</ele>
        <time>2000-01-01T02:10:44.000Z</time>
      </trkpt>
      <trkpt lat="48.19449" lon="-4.25562">
        <ele>142</ele>
        <time>2000-01-01T02:10:54.000Z</time>
      </trkpt>
      <trkpt lat="48.19412" lon="-4.25527">
        <ele>130</ele>
        <time>2000-01-01T02:11:04.000Z</time>
      </trkpt>
      <trkpt lat="48.19403" lon="-4.25523">
        <ele>125.4</ele>
        <time>2000-01-01T02:11:14.000Z</time>
      </trkpt>
      <trkpt lat="48.19396" lon="-4.25524">
        <ele>124.7</ele>
        <time>2000-01-01T02:11:24.000Z</time>
      </trkpt>
      <trkpt lat="48.19368" lon="-4.25535">
        <ele>118</ele>
        <time>2000-01-01T02:11:34.000Z</time>
      </trkpt>
      <trkpt lat="48.19351" lon="-4.25532">
        <ele>119.2</ele>
        <time>2000-01-01T02:11:44.000Z</time>
      </trkpt>
      <trkpt lat="48.19281" lon="-4.25507">
        <ele>115</ele>
        <time>2000-01-01T02:11:54.000Z</time>
      </trkpt>
      <trkpt lat="48.19268" lon="-4.25504">
        <ele>108</ele>
        <time>2000-01-01T02:12:04.000Z</time>
      </trkpt>
      <trkpt lat="48.19256" lon="-4.25504">
        <ele>113</ele>
        <time>2000-01-01T02:12:14.000Z</time>
      </trkpt>
      <trkpt lat="48.19224" lon="-4.25511">
        <ele>107</ele>
        <time>2000-01-01T02:12:24.000Z</time>
      </trkpt>
      <trkpt lat="48.19217" lon="-4.25508">
        <ele>104.9</ele>
        <time>2000-01-01T02:12:34.000Z</time>
      </trkpt>
      <trkpt lat="48.19207" lon="-4.255">
        <ele>104</ele>
        <time>2000-01-01T02:12:44.000Z</time>
      </trkpt>
      <trkpt lat="48.19204" lon="-4.25489">
        <ele>104.4</ele>
        <time>2000-01-01T02:12:54.000Z</time>
      </trkpt>
      <trkpt lat="48.19196" lon="-4.25478">
        <ele>101</ele>
        <time>2000-01-01T02:13:04.000Z</time>
      </trkpt>
      <trkpt lat="48.19176" lon="-4.25445">
        <ele>98</ele>
        <time>2000-01-01T02:13:14.000Z</time>
      </trkpt>
      <trkpt lat="48.1916" lon="-4.25416">
        <ele>93</ele>
        <time>2000-01-01T02:13:24.000Z</time>
      </trkpt>
      <trkpt lat="48.19139" lon="-4.2538">
        <ele>89</ele>
        <time>2000-01-01T02:13:34.000Z</time>
      </trkpt>
      <trkpt lat="48.19119" lon="-4.25347">
        <ele>86</ele>
        <time>2000-01-01T02:13:44.000Z</time>
      </trkpt>
      <trkpt lat="48.19082" lon="-4.25285">
        <ele>83</ele>
        <time>2000-01-01T02:13:54.000Z</time>
      </trkpt>
      <trkpt lat="48.19076" lon="-4.25276">
        <ele>92.1</ele>
        <time>2000-01-01T02:14:04.000Z</time>
      </trkpt>
      <trkpt lat="48.1906" lon="-4.25259">
        <ele>85</ele>
        <time>2000-01-01T02:14:14.000Z</time>
      </trkpt>
      <trkpt lat="48.19059" lon="-4.25247">
        <ele>90.6</ele>
        <time>2000-01-01T02:14:24.000Z</time>
      </trkpt>
      <trkpt lat="48.19067" lon="-4.2493">
        <ele>88</ele>
        <time>2000-01-01T02:14:34.000Z</time>
      </trkpt>
      <trkpt lat="48.19067" lon="-4.24874">
        <ele>88</ele>
        <time>2000-01-01T02:14:44.000Z</time>
      </trkpt>
      <trkpt lat="48.19063" lon="-4.24861">
        <ele>89.6</ele>
        <time>2000-01-01T02:14:54.000Z</time>
      </trkpt>
      <trkpt lat="48.19057" lon="-4.24857">
        <ele>88.3</ele>
        <time>2000-01-01T02:15:04.000Z</time>
      </trkpt>
      <trkpt lat="48.18968" lon="-4.24839">
        <ele>79</ele>
        <time>2000-01-01T02:15:14.000Z</time>
      </trkpt>
      <trkpt lat="48.18958" lon="-4.24839">
        <ele>75.5</ele>
        <time>2000-01-01T02:15:24.000Z</time>
      </trkpt>
      <trkpt lat="48.18892" lon="-4.24866">
        <ele>71</ele>
        <time>2000-01-01T02:15:34.000Z</time>
      </trkpt>
      <trkpt lat="48.18879" lon="-4.24864">
        <ele>67.3</ele>
        <time>2000-01-01T02:15:44.000Z</time>
      </trkpt>
      <trkpt lat="48.18884" lon="-4.24854">
        <ele>71</ele>
        <time>2000-01-01T02:15:54.000Z</time>
      </trkpt>
      <trkpt lat="48.1889" lon="-4.24814">
        <ele>71</ele>
        <time>2000-01-01T02:16:04.000Z</time>
      </trkpt>
      <trkpt lat="48.18899" lon="-4.24754">
        <ele>71</ele>
        <time>2000-01-01T02:16:14.000Z</time>
      </trkpt>
      <trkpt lat="48.18905" lon="-4.24692">
        <ele>70</ele>
        <time>2000-01-01T02:16:24.000Z</time>
      </trkpt>
      <trkpt lat="48.18907" lon="-4.24654">
        <ele>70</ele>
        <time>2000-01-01T02:16:34.000Z</time>
      </trkpt>
      <trkpt lat="48.18909" lon="-4.24606">
        <ele>70</ele>
        <time>2000-01-01T02:16:44.000Z</time>
      </trkpt>
      <trkpt lat="48.18911" lon="-4.24585">
        <ele>69.8</ele>
        <time>2000-01-01T02:16:54.000Z</time>
      </trkpt>
      <trkpt lat="48.18925" lon="-4.2456">
        <ele>72</ele>
        <time>2000-01-01T02:17:04.000Z</time>
      </trkpt>
      <trkpt lat="48.18943" lon="-4.24536">
        <ele>76</ele>
        <time>2000-01-01T02:17:14.000Z</time>
      </trkpt>
      <trkpt lat="48.18954" lon="-4.24513">
        <ele>76</ele>
        <time>2000-01-01T02:17:24.000Z</time>
      </trkpt>
      <trkpt lat="48.18964" lon="-4.24483">
        <ele>76</ele>
        <time>2000-01-01T02:17:34.000Z</time>
      </trkpt>
      <trkpt lat="48.18973" lon="-4.2444">
        <ele>80</ele>
        <time>2000-01-01T02:17:44.000Z</time>
      </trkpt>
      <trkpt lat="48.1898" lon="-4.24434">
        <ele>77.4</ele>
        <time>2000-01-01T02:17:54.000Z</time>
      </trkpt>
      <trkpt lat="48.19094" lon="-4.24436">
        <ele>89</ele>
        <time>2000-01-01T02:18:04.000Z</time>
      </trkpt>
      <trkpt lat="48.19096" lon="-4.24431">
        <ele>83.9</ele>
        <time>2000-01-01T02:18:14.000Z</time>
      </trkpt>
      <trkpt lat="48.19083" lon="-4.24261">
        <ele>91</ele>
        <time>2000-01-01T02:18:24.000Z</time>
      </trkpt>
      <trkpt lat="48.19085" lon="-4.24243">
        <ele>91.7</ele>
        <time>2000-01-01T02:18:34.000Z</time>
      </trkpt>
      <trkpt lat="48.19112" lon="-4.24093">
        <ele>99</ele>
        <time>2000-01-01T02:18:44.000Z</time>
      </trkpt>
      <trkpt lat="48.19113" lon="-4.24077">
        <ele>101.4</ele>
        <time>2000-01-01T02:18:54.000Z</time>
      </trkpt>
      <trkpt lat="48.1912" lon="-4.24066">
        <ele>101</ele>
        <time>2000-01-01T02:19:04.000Z</time>
      </trkpt>
      <trkpt lat="48.1915" lon="-4.24078">
        <ele>101</ele>
        <time>2000-01-01T02:19:14.000Z</time>
      </trkpt>
      <trkpt lat="48.1918" lon="-4.2409">
        <ele>104</ele>
        <time>2000-01-01T02:19:24.000Z</time>
      </trkpt>
      <trkpt lat="48.19218" lon="-4.24105">
        <ele>112</ele>
        <time>2000-01-01T02:19:34.000Z</time>
      </trkpt>
      <trkpt lat="48.19249" lon="-4.24111">
        <ele>121</ele>
        <time>2000-01-01T02:19:44.000Z</time>
      </trkpt>
      <trkpt lat="48.1928" lon="-4.24116">
        <ele>125</ele>
        <time>2000-01-01T02:19:54.000Z</time>
      </trkpt>
      <trkpt lat="48.19319" lon="-4.24123">
        <ele>127</ele>
        <time>2000-01-01T02:20:04.000Z</time>
      </trkpt>
      <trkpt lat="48.19358" lon="-4.24129">
        <ele>128</ele>
        <time>2000-01-01T02:20:14.000Z</time>
      </trkpt>
      <trkpt lat="48.19397" lon="-4.2413">
        <ele>141</ele>
        <time>2000-01-01T02:20:24.000Z</time>
      </trkpt>
      <trkpt lat="48.19436" lon="-4.2413">
        <ele>140</ele>
        <time>2000-01-01T02:20:34.000Z</time>
      </trkpt>
      <trkpt lat="48.19473" lon="-4.24131">
        <ele>140</ele>
        <time>2000-01-01T02:20:44.000Z</time>
      </trkpt>
      <trkpt lat="48.1951" lon="-4.24131">
        <ele>143</ele>
        <time>2000-01-01T02:20:54.000Z</time>
      </trkpt>
      <trkpt lat="48.19547" lon="-4.24132">
        <ele>146</ele>
        <time>2000-01-01T02:21:04.000Z</time>
      </trkpt>
      <trkpt lat="48.19584" lon="-4.24132">
        <ele>156</ele>
        <time>2000-01-01T02:21:14.000Z</time>
      </trkpt>
      <trkpt lat="48.19648" lon="-4.24133">
        <ele>157</ele>
        <time>2000-01-01T02:21:24.000Z</time>
      </trkpt>
      <trkpt lat="48.19651" lon="-4.24081">
        <ele>159</ele>
        <time>2000-01-01T02:21:34.000Z</time>
      </trkpt>
      <trkpt lat="48.19654" lon="-4.2403">
        <ele>162</ele>
        <time>2000-01-01T02:21:44.000Z</time>
      </trkpt>
      <trkpt lat="48.19657" lon="-4.23978">
        <ele>164</ele>
        <time>2000-01-01T02:21:54.000Z</time>
      </trkpt>
      <trkpt lat="48.19661" lon="-4.2391">
        <ele>166</ele>
        <time>2000-01-01T02:22:04.000Z</time>
      </trkpt>
      <trkpt lat="48.19698" lon="-4.23898">
        <ele>167</ele>
        <time>2000-01-01T02:22:14.000Z</time>
      </trkpt>
      <trkpt lat="48.19735" lon="-4.23885">
        <ele>169</ele>
        <time>2000-01-01T02:22:24.000Z</time>
      </trkpt>
      <trkpt lat="48.19771" lon="-4.23873">
        <ele>168</ele>
        <time>2000-01-01T02:22:34.000Z</time>
      </trkpt>
      <trkpt lat="48.19808" lon="-4.2386">
        <ele>168</ele>
        <time>2000-01-01T02:22:44.000Z</time>
      </trkpt>
      <trkpt lat="48.19845" lon="-4.23848">
        <ele>168</ele>
        <time>2000-01-01T02:22:54.000Z</time>
      </trkpt>
      <trkpt lat="48.19891" lon="-4.23832">
        <ele>176</ele>
        <time>2000-01-01T02:23:04.000Z</time>
      </trkpt>
      <trkpt lat="48.19918" lon="-4.23822">
        <ele>181</ele>
        <time>2000-01-01T02:23:14.000Z</time>
      </trkpt>
      <trkpt lat="48.19964" lon="-4.23806">
        <ele>189</ele>
        <time>2000-01-01T02:23:24.000Z</time>
      </trkpt>
      <trkpt lat="48.1999" lon="-4.23788">
        <ele>190</ele>
        <time>2000-01-01T02:23:34.000Z</time>
      </trkpt>
      <trkpt lat="48.20011" lon="-4.23772">
        <ele>190</ele>
        <time>2000-01-01T02:23:44.000Z</time>
      </trkpt>
      <trkpt lat="48.20036" lon="-4.23755">
        <ele>188</ele>
        <time>2000-01-01T02:23:54.000Z</time>
      </trkpt>
      <trkpt lat="48.20047" lon="-4.23713">
        <ele>188</ele>
        <time>2000-01-01T02:24:04.000Z</time>
      </trkpt>
      <trkpt lat="48.20057" lon="-4.23678">
        <ele>188</ele>
        <time>2000-01-01T02:24:14.000Z</time>
      </trkpt>
      <trkpt lat="48.2007" lon="-4.23631">
        <ele>190</ele>
        <time>2000-01-01T02:24:24.000Z</time>
      </trkpt>
      <trkpt lat="48.20073" lon="-4.23587">
        <ele>190</ele>
        <time>2000-01-01T02:24:34.000Z</time>
      </trkpt>
      <trkpt lat="48.20075" lon="-4.23549">
        <ele>190</ele>
        <time>2000-01-01T02:24:44.000Z</time>
      </trkpt>
      <trkpt lat="48.20078" lon="-4.235">
        <ele>190</ele>
        <time>2000-01-01T02:24:54.000Z</time>
      </trkpt>
      <trkpt lat="48.20108" lon="-4.23494">
        <ele>189</ele>
        <time>2000-01-01T02:25:04.000Z</time>
      </trkpt>
      <trkpt lat="48.20134" lon="-4.2349">
        <ele>188</ele>
        <time>2000-01-01T02:25:14.000Z</time>
      </trkpt>
      <trkpt lat="48.20169" lon="-4.23484">
        <ele>190</ele>
        <time>2000-01-01T02:25:24.000Z</time>
      </trkpt>
      <trkpt lat="48.20175" lon="-4.23446">
        <ele>190</ele>
        <time>2000-01-01T02:25:34.000Z</time>
      </trkpt>
      <trkpt lat="48.20185" lon="-4.23392">
        <ele>190</ele>
        <time>2000-01-01T02:25:44.000Z</time>
      </trkpt>
      <trkpt lat="48.20215" lon="-4.23399">
        <ele>188</ele>
        <time>2000-01-01T02:25:54.000Z</time>
      </trkpt>
      <trkpt lat="48.20244" lon="-4.23405">
        <ele>186</ele>
        <time>2000-01-01T02:26:04.000Z</time>
      </trkpt>
      <trkpt lat="48.20275" lon="-4.23412">
        <ele>183</ele>
        <time>2000-01-01T02:26:14.000Z</time>
      </trkpt>
      <trkpt lat="48.203" lon="-4.23419">
        <ele>183</ele>
        <time>2000-01-01T02:26:24.000Z</time>
      </trkpt>
      <trkpt lat="48.20333" lon="-4.23428">
        <ele>183</ele>
        <time>2000-01-01T02:26:34.000Z</time>
      </trkpt>
      <trkpt lat="48.20362" lon="-4.23412">
        <ele>186</ele>
        <time>2000-01-01T02:26:44.000Z</time>
      </trkpt>
      <trkpt lat="48.20392" lon="-4.23396">
        <ele>184</ele>
        <time>2000-01-01T02:26:54.000Z</time>
      </trkpt>
      <trkpt lat="48.20429" lon="-4.23376">
        <ele>183</ele>
        <time>2000-01-01T02:27:04.000Z</time>
      </trkpt>
      <trkpt lat="48.20461" lon="-4.2339">
        <ele>174</ele>
        <time>2000-01-01T02:27:14.000Z</time>
      </trkpt>
      <trkpt lat="48.20493" lon="-4.23405">
        <ele>173</ele>
        <time>2000-01-01T02:27:24.000Z</time>
      </trkpt>
      <trkpt lat="48.20554" lon="-4.23432">
        <ele>173</ele>
        <time>2000-01-01T02:27:34.000Z</time>
      </trkpt>
      <trkpt lat="48.2058" lon="-4.23421">
        <ele>165</ele>
        <time>2000-01-01T02:27:44.000Z</time>
      </trkpt>
      <trkpt lat="48.2062" lon="-4.23404">
        <ele>168</ele>
        <time>2000-01-01T02:27:54.000Z</time>
      </trkpt>
      <trkpt lat="48.20619" lon="-4.23366">
        <ele>172</ele>
        <time>2000-01-01T02:28:04.000Z</time>
      </trkpt>
      <trkpt lat="48.20618" lon="-4.23316">
        <ele>171</ele>
        <time>2000-01-01T02:28:14.000Z</time>
      </trkpt>
      <trkpt lat="48.20608" lon="-4.23277">
        <ele>170</ele>
        <time>2000-01-01T02:28:24.000Z</time>
      </trkpt>
      <trkpt lat="48.20592" lon="-4.23215">
        <ele>167</ele>
        <time>2000-01-01T02:28:34.000Z</time>
      </trkpt>
      <trkpt lat="48.2058" lon="-4.23164">
        <ele>165</ele>
        <time>2000-01-01T02:28:44.000Z</time>
      </trkpt>
      <trkpt lat="48.20567" lon="-4.23114">
        <ele>161</ele>
        <time>2000-01-01T02:28:54.000Z</time>
      </trkpt>
      <trkpt lat="48.20554" lon="-4.23061">
        <ele>161</ele>
        <time>2000-01-01T02:29:04.000Z</time>
      </trkpt>
      <trkpt lat="48.20552" lon="-4.23022">
        <ele>161</ele>
        <time>2000-01-01T02:29:14.000Z</time>
      </trkpt>
      <trkpt lat="48.2055" lon="-4.2297">
        <ele>158</ele>
        <time>2000-01-01T02:29:24.000Z</time>
      </trkpt>
      <trkpt lat="48.20549" lon="-4.22918">
        <ele>158</ele>
        <time>2000-01-01T02:29:34.000Z</time>
      </trkpt>
      <trkpt lat="48.20555" lon="-4.22856">
        <ele>158</ele>
        <time>2000-01-01T02:29:44.000Z</time>
      </trkpt>
      <trkpt lat="48.20562" lon="-4.22832">
        <ele>154.8</ele>
        <time>2000-01-01T02:29:54.000Z</time>
      </trkpt>
      <trkpt lat="48.20596" lon="-4.22817">
        <ele>161</ele>
        <time>2000-01-01T02:30:04.000Z</time>
      </trkpt>
      <trkpt lat="48.20606" lon="-4.22806">
        <ele>153</ele>
        <time>2000-01-01T02:30:14.000Z</time>
      </trkpt>
      <trkpt lat="48.20639" lon="-4.22753">
        <ele>161</ele>
        <time>2000-01-01T02:30:24.000Z</time>
      </trkpt>
      <trkpt lat="48.20657" lon="-4.22721">
        <ele>161</ele>
        <time>2000-01-01T02:30:34.000Z</time>
      </trkpt>
      <trkpt lat="48.20684" lon="-4.22671">
        <ele>162</ele>
        <time>2000-01-01T02:30:44.000Z</time>
      </trkpt>
      <trkpt lat="48.20704" lon="-4.22689">
        <ele>163</ele>
        <time>2000-01-01T02:30:54.000Z</time>
      </trkpt>
      <trkpt lat="48.20727" lon="-4.22708">
        <ele>164</ele>
        <time>2000-01-01T02:31:04.000Z</time>
      </trkpt>
      <trkpt lat="48.20739" lon="-4.22704">
        <ele>157.9</ele>
        <time>2000-01-01T02:31:14.000Z</time>
      </trkpt>
      <trkpt lat="48.20883" lon="-4.22582">
        <ele>164</ele>
        <time>2000-01-01T02:31:24.000Z</time>
      </trkpt>
      <trkpt lat="48.20919" lon="-4.22546">
        <ele>164</ele>
        <time>2000-01-01T02:31:34.000Z</time>
      </trkpt>
      <trkpt lat="48.20943" lon="-4.22528">
        <ele>152</ele>
        <time>2000-01-01T02:31:44.000Z</time>
      </trkpt>
      <trkpt lat="48.20976" lon="-4.22503">
        <ele>152</ele>
        <time>2000-01-01T02:31:54.000Z</time>
      </trkpt>
      <trkpt lat="48.21003" lon="-4.22473">
        <ele>158</ele>
        <time>2000-01-01T02:32:04.000Z</time>
      </trkpt>
      <trkpt lat="48.21026" lon="-4.22462">
        <ele>160</ele>
        <time>2000-01-01T02:32:14.000Z</time>
      </trkpt>
      <trkpt lat="48.21052" lon="-4.22449">
        <ele>162</ele>
        <time>2000-01-01T02:32:24.000Z</time>
      </trkpt>
      <trkpt lat="48.21082" lon="-4.22453">
        <ele>166</ele>
        <time>2000-01-01T02:32:34.000Z</time>
      </trkpt>
      <trkpt lat="48.21092" lon="-4.22446">
        <ele>169.1</ele>
        <time>2000-01-01T02:32:44.000Z</time>
      </trkpt>
      <trkpt lat="48.21147" lon="-4.22396">
        <ele>167</ele>
        <time>2000-01-01T02:32:54.000Z</time>
      </trkpt>
      <trkpt lat="48.21165" lon="-4.22399">
        <ele>168</ele>
        <time>2000-01-01T02:33:04.000Z</time>
      </trkpt>
      <trkpt lat="48.21176" lon="-4.22413">
        <ele>175.3</ele>
        <time>2000-01-01T02:33:14.000Z</time>
      </trkpt>
      <trkpt lat="48.21185" lon="-4.22435">
        <ele>172</ele>
        <time>2000-01-01T02:33:24.000Z</time>
      </trkpt>
      <trkpt lat="48.21185" lon="-4.22477">
        <ele>175</ele>
        <time>2000-01-01T02:33:34.000Z</time>
      </trkpt>
      <trkpt lat="48.21186" lon="-4.22511">
        <ele>177</ele>
        <time>2000-01-01T02:33:44.000Z</time>
      </trkpt>
      <trkpt lat="48.21186" lon="-4.22547">
        <ele>180</ele>
        <time>2000-01-01T02:33:54.000Z</time>
      </trkpt>
      <trkpt lat="48.21196" lon="-4.22601">
        <ele>181</ele>
        <time>2000-01-01T02:34:04.000Z</time>
      </trkpt>
      <trkpt lat="48.21209" lon="-4.22613">
        <ele>192.6</ele>
        <time>2000-01-01T02:34:14.000Z</time>
      </trkpt>
      <trkpt lat="48.21254" lon="-4.22616">
        <ele>196</ele>
        <time>2000-01-01T02:34:24.000Z</time>
      </trkpt>
      <trkpt lat="48.21276" lon="-4.2264">
        <ele>201</ele>
        <time>2000-01-01T02:34:34.000Z</time>
      </trkpt>
      <trkpt lat="48.21285" lon="-4.22642">
        <ele>198.7</ele>
        <time>2000-01-01T02:34:44.000Z</time>
      </trkpt>
      <trkpt lat="48.21307" lon="-4.2262">
        <ele>204</ele>
        <time>2000-01-01T02:34:54.000Z</time>
      </trkpt>
      <trkpt lat="48.21325" lon="-4.22592">
        <ele>202</ele>
        <time>2000-01-01T02:35:04.000Z</time>
      </trkpt>
      <trkpt lat="48.2135" lon="-4.22555">
        <ele>200</ele>
        <time>2000-01-01T02:35:14.000Z</time>
      </trkpt>
      <trkpt lat="48.21376" lon="-4.22517">
        <ele>203</ele>
        <time>2000-01-01T02:35:24.000Z</time>
      </trkpt>
      <trkpt lat="48.21393" lon="-4.22517">
        <ele>198.5</ele>
        <time>2000-01-01T02:35:34.000Z</time>
      </trkpt>
      <trkpt lat="48.21418" lon="-4.22535">
        <ele>202</ele>
        <time>2000-01-01T02:35:44.000Z</time>
      </trkpt>
      <trkpt lat="48.21443" lon="-4.22539">
        <ele>202</ele>
        <time>2000-01-01T02:35:54.000Z</time>
      </trkpt>
      <trkpt lat="48.21478" lon="-4.22528">
        <ele>205</ele>
        <time>2000-01-01T02:36:04.000Z</time>
      </trkpt>
      <trkpt lat="48.21497" lon="-4.22517">
        <ele>204</ele>
        <time>2000-01-01T02:36:14.000Z</time>
      </trkpt>
      <trkpt lat="48.21502" lon="-4.22511">
        <ele>209</ele>
        <time>2000-01-01T02:36:24.000Z</time>
      </trkpt>
      <trkpt lat="48.21532" lon="-4.22443">
        <ele>204</ele>
        <time>2000-01-01T02:36:34.000Z</time>
      </trkpt>
      <trkpt lat="48.21552" lon="-4.2239">
        <ele>205</ele>
        <time>2000-01-01T02:36:44.000Z</time>
      </trkpt>
      <trkpt lat="48.21565" lon="-4.22372">
        <ele>207.5</ele>
        <time>2000-01-01T02:36:54.000Z</time>
      </trkpt>
      <trkpt lat="48.21572" lon="-4.2237">
        <ele>207</ele>
        <time>2000-01-01T02:37:04.000Z</time>
      </trkpt>
      <trkpt lat="48.21596" lon="-4.22373">
        <ele>207</ele>
        <time>2000-01-01T02:37:14.000Z</time>
      </trkpt>
      <trkpt lat="48.21624" lon="-4.22377">
        <ele>208</ele>
        <time>2000-01-01T02:37:24.000Z</time>
      </trkpt>
      <trkpt lat="48.2164" lon="-4.22383">
        <ele>213.9</ele>
        <time>2000-01-01T02:37:34.000Z</time>
      </trkpt>
      <trkpt lat="48.21675" lon="-4.22407">
        <ele>213</ele>
        <time>2000-01-01T02:37:44.000Z</time>
      </trkpt>
      <trkpt lat="48.2169" lon="-4.22414">
        <ele>219.6</ele>
        <time>2000-01-01T02:37:54.000Z</time>
      </trkpt>
      <trkpt lat="48.21719" lon="-4.22414">
        <ele>218</ele>
        <time>2000-01-01T02:38:04.000Z</time>
      </trkpt>
      <trkpt lat="48.21733" lon="-4.22419">
        <ele>223</ele>
        <time>2000-01-01T02:38:14.000Z</time>
      </trkpt>
      <trkpt lat="48.21746" lon="-4.22419">
        <ele>218</ele>
        <time>2000-01-01T02:38:24.000Z</time>
      </trkpt>
      <trkpt lat="48.2176" lon="-4.22423">
        <ele>224.9</ele>
        <time>2000-01-01T02:38:34.000Z</time>
      </trkpt>
      <trkpt lat="48.21776" lon="-4.2241">
        <ele>218</ele>
        <time>2000-01-01T02:38:44.000Z</time>
      </trkpt>
      <trkpt lat="48.21789" lon="-4.22409">
        <ele>225.3</ele>
        <time>2000-01-01T02:38:54.000Z</time>
      </trkpt>
      <trkpt lat="48.21795" lon="-4.22413">
        <ele>218</ele>
        <time>2000-01-01T02:39:04.000Z</time>
      </trkpt>
      <trkpt lat="48.21806" lon="-4.22429">
        <ele>228.8</ele>
        <time>2000-01-01T02:39:14.000Z</time>
      </trkpt>
      <trkpt lat="48.21827" lon="-4.22448">
        <ele>228</ele>
        <time>2000-01-01T02:39:24.000Z</time>
      </trkpt>
      <trkpt lat="48.21836" lon="-4.22471">
        <ele>236.3</ele>
        <time>2000-01-01T02:39:34.000Z</time>
      </trkpt>
      <trkpt lat="48.21844" lon="-4.22487">
        <ele>236</ele>
        <time>2000-01-01T02:39:44.000Z</time>
      </trkpt>
      <trkpt lat="48.21855" lon="-4.22489">
        <ele>241.7</ele>
        <time>2000-01-01T02:39:54.000Z</time>
      </trkpt>
      <trkpt lat="48.21882" lon="-4.22474">
        <ele>242</ele>
        <time>2000-01-01T02:40:04.000Z</time>
      </trkpt>
      <trkpt lat="48.21903" lon="-4.2245">
        <ele>248</ele>
        <time>2000-01-01T02:40:14.000Z</time>
      </trkpt>
      <trkpt lat="48.21925" lon="-4.22434">
        <ele>252</ele>
        <time>2000-01-01T02:40:24.000Z</time>
      </trkpt>
      <trkpt lat="48.21952" lon="-4.22414">
        <ele>257</ele>
        <time>2000-01-01T02:40:34.000Z</time>
      </trkpt>
      <trkpt lat="48.21986" lon="-4.22393">
        <ele>262</ele>
        <time>2000-01-01T02:40:44.000Z</time>
      </trkpt>
      <trkpt lat="48.22008" lon="-4.22381">
        <ele>265</ele>
        <time>2000-01-01T02:40:54.000Z</time>
      </trkpt>
      <trkpt lat="48.22034" lon="-4.22367">
        <ele>264</ele>
        <time>2000-01-01T02:41:04.000Z</time>
      </trkpt>
      <trkpt lat="48.2204" lon="-4.22374">
        <ele>261.1</ele>
        <time>2000-01-01T02:41:14.000Z</time>
      </trkpt>
      <trkpt lat="48.22054" lon="-4.22441">
        <ele>265</ele>
        <time>2000-01-01T02:41:24.000Z</time>
      </trkpt>
      <trkpt lat="48.22057" lon="-4.2245">
        <ele>269.6</ele>
        <time>2000-01-01T02:41:34.000Z</time>
      </trkpt>
      <trkpt lat="48.22066" lon="-4.22464">
        <ele>264</ele>
        <time>2000-01-01T02:41:44.000Z</time>
      </trkpt>
      <trkpt lat="48.22077" lon="-4.22473">
        <ele>271.3</ele>
        <time>2000-01-01T02:41:54.000Z</time>
      </trkpt>
      <trkpt lat="48.22087" lon="-4.22479">
        <ele>264</ele>
        <time>2000-01-01T02:42:04.000Z</time>
      </trkpt>
      <trkpt lat="48.22121" lon="-4.2249">
        <ele>267</ele>
        <time>2000-01-01T02:42:14.000Z</time>
      </trkpt>
      <trkpt lat="48.22126" lon="-4.22491">
        <ele>269.9</ele>
        <time>2000-01-01T02:42:24.000Z</time>
      </trkpt>
      <trkpt lat="48.22133" lon="-4.22496">
        <ele>269.5</ele>
        <time>2000-01-01T02:42:34.000Z</time>
      </trkpt>
      <trkpt lat="48.2213" lon="-4.22512">
        <ele>269</ele>
        <time>2000-01-01T02:42:44.000Z</time>
      </trkpt>
      <trkpt lat="48.22124" lon="-4.22531">
        <ele>271.7</ele>
        <time>2000-01-01T02:42:54.000Z</time>
      </trkpt>
      <trkpt lat="48.22109" lon="-4.22567">
        <ele>274</ele>
        <time>2000-01-01T02:43:04.000Z</time>
      </trkpt>
      <trkpt lat="48.22093" lon="-4.22624">
        <ele>281</ele>
        <time>2000-01-01T02:43:14.000Z</time>
      </trkpt>
      <trkpt lat="48.22082" lon="-4.22644">
        <ele>284.2</ele>
        <time>2000-01-01T02:43:24.000Z</time>
      </trkpt>
      <trkpt lat="48.22079" lon="-4.22688">
        <ele>282</ele>
        <time>2000-01-01T02:43:34.000Z</time>
      </trkpt>
      <trkpt lat="48.22085" lon="-4.22744">
        <ele>284</ele>
        <time>2000-01-01T02:43:44.000Z</time>
      </trkpt>
      <trkpt lat="48.22084" lon="-4.2275">
        <ele>288.9</ele>
        <time>2000-01-01T02:43:54.000Z</time>
      </trkpt>
      <trkpt lat="48.22081" lon="-4.22753">
        <ele>289.5</ele>
        <time>2000-01-01T02:44:04.000Z</time>
      </trkpt>
      <trkpt lat="48.22056" lon="-4.22747">
        <ele>288</ele>
        <time>2000-01-01T02:44:14.000Z</time>
      </trkpt>
      <trkpt lat="48.22052" lon="-4.2275">
        <ele>294.6</ele>
        <time>2000-01-01T02:44:24.000Z</time>
      </trkpt>
      <trkpt lat="48.2205" lon="-4.22756">
        <ele>295.7</ele>
        <time>2000-01-01T02:44:34.000Z</time>
      </trkpt>
      <trkpt lat="48.22062" lon="-4.22827">
        <ele>297</ele>
        <time>2000-01-01T02:44:44.000Z</time>
      </trkpt>
      <trkpt lat="48.22062" lon="-4.22843">
        <ele>303.2</ele>
        <time>2000-01-01T02:44:54.000Z</time>
      </trkpt>
      <trkpt lat="48.2206" lon="-4.22857">
        <ele>302</ele>
        <time>2000-01-01T02:45:04.000Z</time>
      </trkpt>
      <trkpt lat="48.2205" lon="-4.22891">
        <ele>305</ele>
        <time>2000-01-01T02:45:14.000Z</time>
      </trkpt>
      <trkpt lat="48.22037" lon="-4.22934">
        <ele>305</ele>
        <time>2000-01-01T02:45:24.000Z</time>
      </trkpt>
      <trkpt lat="48.22035" lon="-4.22965">
        <ele>307</ele>
        <time>2000-01-01T02:45:34.000Z</time>
      </trkpt>
      <trkpt lat="48.22035" lon="-4.23002">
        <ele>309</ele>
        <time>2000-01-01T02:45:44.000Z</time>
      </trkpt>
      <trkpt lat="48.22035" lon="-4.23049">
        <ele>311</ele>
        <time>2000-01-01T02:45:54.000Z</time>
      </trkpt>
      <trkpt lat="48.22034" lon="-4.23066">
        <ele>315.2</ele>
        <time>2000-01-01T02:46:04.000Z</time>
      </trkpt>
      <trkpt lat="48.2202" lon="-4.23149">
        <ele>317</ele>
        <time>2000-01-01T02:46:14.000Z</time>
      </trkpt>
      <trkpt lat="48.22007" lon="-4.23204">
        <ele>322</ele>
        <time>2000-01-01T02:46:24.000Z</time>
      </trkpt>
      <trkpt lat="48.21992" lon="-4.23247">
        <ele>322</ele>
        <time>2000-01-01T02:46:34.000Z</time>
      </trkpt>
      <trkpt lat="48.2199" lon="-4.23259">
        <ele>323.6</ele>
        <time>2000-01-01T02:46:44.000Z</time>
      </trkpt>
      <trkpt lat="48.2199" lon="-4.23271">
        <ele>324.5</ele>
        <time>2000-01-01T02:46:54.000Z</time>
      </trkpt>
      <trkpt lat="48.21999" lon="-4.23337">
        <ele>323</ele>
        <time>2000-01-01T02:47:04.000Z</time>
      </trkpt>
      <trkpt lat="48.22002" lon="-4.23374">
        <ele>324</ele>
        <time>2000-01-01T02:47:14.000Z</time>
      </trkpt>
      <trkpt lat="48.22001" lon="-4.23397">
        <ele>329</ele>
        <time>2000-01-01T02:47:24.000Z</time>
      </trkpt>
      <trkpt lat="48.21998" lon="-4.23422">
        <ele>324</ele>
        <time>2000-01-01T02:47:34.000Z</time>
      </trkpt>
      <trkpt lat="48.2201" lon="-4.23428">
        <ele>328.2</ele>
        <time>2000-01-01T02:47:44.000Z</time>
      </trkpt>
      <trkpt lat="48.22006" lon="-4.23466">
        <ele>324</ele>
        <time>2000-01-01T02:47:54.000Z</time>
      </trkpt>
      <trkpt lat="48.22013" lon="-4.23486">
        <ele>327.3</ele>
        <time>2000-01-01T02:48:04.000Z</time>
      </trkpt>
      <trkpt lat="48.22015" lon="-4.2353">
        <ele>323</ele>
        <time>2000-01-01T02:48:14.000Z</time>
      </trkpt>
      <trkpt lat="48.22017" lon="-4.23538">
        <ele>324.7</ele>
        <time>2000-01-01T02:48:24.000Z</time>
      </trkpt>
      <trkpt lat="48.22016" lon="-4.23579">
        <ele>322</ele>
        <time>2000-01-01T02:48:34.000Z</time>
      </trkpt>
      <trkpt lat="48.22029" lon="-4.23612">
        <ele>320</ele>
        <time>2000-01-01T02:48:44.000Z</time>
      </trkpt>
      <trkpt lat="48.22034" lon="-4.23636">
        <ele>313.3</ele>
        <time>2000-01-01T02:48:54.000Z</time>
      </trkpt>
      <trkpt lat="48.22068" lon="-4.23749">
        <ele>296</ele>
        <time>2000-01-01T02:49:04.000Z</time>
      </trkpt>
      <trkpt lat="48.22077" lon="-4.23785">
        <ele>287</ele>
        <time>2000-01-01T02:49:14.000Z</time>
      </trkpt>
      <trkpt lat="48.22089" lon="-4.23834">
        <ele>282</ele>
        <time>2000-01-01T02:49:24.000Z</time>
      </trkpt>
      <trkpt lat="48.22092" lon="-4.23874">
        <ele>270</ele>
        <time>2000-01-01T02:49:34.000Z</time>
      </trkpt>
      <trkpt lat="48.22096" lon="-4.23931">
        <ele>254</ele>
        <time>2000-01-01T02:49:44.000Z</time>
      </trkpt>
      <trkpt lat="48.22111" lon="-4.23959">
        <ele>253</ele>
        <time>2000-01-01T02:49:54.000Z</time>
      </trkpt>
      <trkpt lat="48.22127" lon="-4.23991">
        <ele>252</ele>
        <time>2000-01-01T02:50:04.000Z</time>
      </trkpt>
      <trkpt lat="48.2214" lon="-4.24018">
        <ele>244</ele>
        <time>2000-01-01T02:50:14.000Z</time>
      </trkpt>
      <trkpt lat="48.22137" lon="-4.24019">
        <ele>240.6</ele>
        <time>2000-01-01T02:50:24.000Z</time>
      </trkpt>
      <trkpt lat="48.22171" lon="-4.24015">
        <ele>238</ele>
        <time>2000-01-01T02:50:34.000Z</time>
      </trkpt>
      <trkpt lat="48.22187" lon="-4.24016">
        <ele>236.2</ele>
        <time>2000-01-01T02:50:44.000Z</time>
      </trkpt>
      <trkpt lat="48.22209" lon="-4.24025">
        <ele>233</ele>
        <time>2000-01-01T02:50:54.000Z</time>
      </trkpt>
      <trkpt lat="48.22222" lon="-4.24033">
        <ele>233</ele>
        <time>2000-01-01T02:51:04.000Z</time>
      </trkpt>
      <trkpt lat="48.22248" lon="-4.24041">
        <ele>223</ele>
        <time>2000-01-01T02:51:14.000Z</time>
      </trkpt>
      <trkpt lat="48.22273" lon="-4.24042">
        <ele>218</ele>
        <time>2000-01-01T02:51:24.000Z</time>
      </trkpt>
      <trkpt lat="48.22299" lon="-4.24045">
        <ele>218</ele>
        <time>2000-01-01T02:51:34.000Z</time>
      </trkpt>
      <trkpt lat="48.22338" lon="-4.2405">
        <ele>216</ele>
        <time>2000-01-01T02:51:44.000Z</time>
      </trkpt>
      <trkpt lat="48.22363" lon="-4.24054">
        <ele>212</ele>
        <time>2000-01-01T02:51:54.000Z</time>
      </trkpt>
      <trkpt lat="48.22393" lon="-4.24057">
        <ele>210</ele>
        <time>2000-01-01T02:52:04.000Z</time>
      </trkpt>
      <trkpt lat="48.2241" lon="-4.24063">
        <ele>219.9</ele>
        <time>2000-01-01T02:52:14.000Z</time>
      </trkpt>
      <trkpt lat="48.22428" lon="-4.24075">
        <ele>209</ele>
        <time>2000-01-01T02:52:24.000Z</time>
      </trkpt>
      <trkpt lat="48.22449" lon="-4.24095">
        <ele>209</ele>
        <time>2000-01-01T02:52:34.000Z</time>
      </trkpt>
      <trkpt lat="48.22463" lon="-4.24099">
        <ele>217.2</ele>
        <time>2000-01-01T02:52:44.000Z</time>
      </trkpt>
      <trkpt lat="48.22874" lon="-4.23946">
        <ele>177</ele>
        <time>2000-01-01T02:52:54.000Z</time>
      </trkpt>
      <trkpt lat="48.22909" lon="-4.23938">
        <ele>174</ele>
        <time>2000-01-01T02:53:04.000Z</time>
      </trkpt>
      <trkpt lat="48.2294" lon="-4.23945">
        <ele>167</ele>
        <time>2000-01-01T02:53:14.000Z</time>
      </trkpt>
      <trkpt lat="48.22972" lon="-4.23952">
        <ele>160</ele>
        <time>2000-01-01T02:53:24.000Z</time>
      </trkpt>
      <trkpt lat="48.23016" lon="-4.23962">
        <ele>158</ele>
        <time>2000-01-01T02:53:34.000Z</time>
      </trkpt>
      <trkpt lat="48.23051" lon="-4.23958">
        <ele>158</ele>
        <time>2000-01-01T02:53:44.000Z</time>
      </trkpt>
      <trkpt lat="48.23078" lon="-4.23954">
        <ele>154</ele>
        <time>2000-01-01T02:53:54.000Z</time>
      </trkpt>
      <trkpt lat="48.23121" lon="-4.23948">
        <ele>144</ele>
        <time>2000-01-01T02:54:04.000Z</time>
      </trkpt>
      <trkpt lat="48.23146" lon="-4.23945">
        <ele>143</ele>
        <time>2000-01-01T02:54:14.000Z</time>
      </trkpt>
      <trkpt lat="48.23176" lon="-4.23941">
        <ele>142</ele>
        <time>2000-01-01T02:54:24.000Z</time>
      </trkpt>
      <trkpt lat="48.23191" lon="-4.2395">
        <ele>141.2</ele>
        <time>2000-01-01T02:54:34.000Z</time>
      </trkpt>
      <trkpt lat="48.23168" lon="-4.23982">
        <ele>142</ele>
        <time>2000-01-01T02:54:44.000Z</time>
      </trkpt>
      <trkpt lat="48.23204" lon="-4.24007">
        <ele>138</ele>
        <time>2000-01-01T02:54:54.000Z</time>
      </trkpt>
      <trkpt lat="48.2324" lon="-4.24033">
        <ele>136</ele>
        <time>2000-01-01T02:55:04.000Z</time>
      </trkpt>
      <trkpt lat="48.23266" lon="-4.24051">
        <ele>135</ele>
        <time>2000-01-01T02:55:14.000Z</time>
      </trkpt>
      <trkpt lat="48.23312" lon="-4.24083">
        <ele>132</ele>
        <time>2000-01-01T02:55:24.000Z</time>
      </trkpt>
      <trkpt lat="48.23344" lon="-4.24106">
        <ele>131</ele>
        <time>2000-01-01T02:55:34.000Z</time>
      </trkpt>
      <trkpt lat="48.23377" lon="-4.24129">
        <ele>131</ele>
        <time>2000-01-01T02:55:44.000Z</time>
      </trkpt>
      <trkpt lat="48.23409" lon="-4.24152">
        <ele>116</ele>
        <time>2000-01-01T02:55:54.000Z</time>
      </trkpt>
      <trkpt lat="48.23474" lon="-4.24198">
        <ele>116</ele>
        <time>2000-01-01T02:56:04.000Z</time>
      </trkpt>
      <trkpt lat="48.2347" lon="-4.24222">
        <ele>114.2</ele>
        <time>2000-01-01T02:56:14.000Z</time>
      </trkpt>
      <trkpt lat="48.23448" lon="-4.24382">
        <ele>116</ele>
        <time>2000-01-01T02:56:24.000Z</time>
      </trkpt>
      <trkpt lat="48.23442" lon="-4.24419">
        <ele>115</ele>
        <time>2000-01-01T02:56:34.000Z</time>
      </trkpt>
      <trkpt lat="48.23434" lon="-4.24466">
        <ele>115</ele>
        <time>2000-01-01T02:56:44.000Z</time>
      </trkpt>
      <trkpt lat="48.23429" lon="-4.24505">
        <ele>121</ele>
        <time>2000-01-01T02:56:54.000Z</time>
      </trkpt>
      <trkpt lat="48.23422" lon="-4.2456">
        <ele>122</ele>
        <time>2000-01-01T02:57:04.000Z</time>
      </trkpt>
      <trkpt lat="48.23413" lon="-4.24625">
        <ele>122</ele>
        <time>2000-01-01T02:57:14.000Z</time>
      </trkpt>
      <trkpt lat="48.23402" lon="-4.24688">
        <ele>127</ele>
        <time>2000-01-01T02:57:24.000Z</time>
      </trkpt>
      <trkpt lat="48.23399" lon="-4.24735">
        <ele>129</ele>
        <time>2000-01-01T02:57:34.000Z</time>
      </trkpt>
      <trkpt lat="48.23397" lon="-4.24777">
        <ele>128</ele>
        <time>2000-01-01T02:57:44.000Z</time>
      </trkpt>
      <trkpt lat="48.23394" lon="-4.24844">
        <ele>127</ele>
        <time>2000-01-01T02:57:54.000Z</time>
      </trkpt>
      <trkpt lat="48.23386" lon="-4.24892">
        <ele>131</ele>
        <time>2000-01-01T02:58:04.000Z</time>
      </trkpt>
      <trkpt lat="48.23376" lon="-4.24943">
        <ele>135</ele>
        <time>2000-01-01T02:58:14.000Z</time>
      </trkpt>
      <trkpt lat="48.23368" lon="-4.25003">
        <ele>135</ele>
        <time>2000-01-01T02:58:24.000Z</time>
      </trkpt>
      <trkpt lat="48.23362" lon="-4.2503">
        <ele>135</ele>
        <time>2000-01-01T02:58:34.000Z</time>
      </trkpt>
      <trkpt lat="48.23356" lon="-4.25045">
        <ele>137.6</ele>
        <time>2000-01-01T02:58:44.000Z</time>
      </trkpt>
      <trkpt lat="48.23334" lon="-4.25082">
        <ele>135</ele>
        <time>2000-01-01T02:58:54.000Z</time>
      </trkpt>
      <trkpt lat="48.23319" lon="-4.2511">
        <ele>135</ele>
        <time>2000-01-01T02:59:04.000Z</time>
      </trkpt>
      <trkpt lat="48.23301" lon="-4.25143">
        <ele>135</ele>
        <time>2000-01-01T02:59:14.000Z</time>
      </trkpt>
      <trkpt lat="48.23289" lon="-4.25178">
        <ele>135</ele>
        <time>2000-01-01T02:59:24.000Z</time>
      </trkpt>
      <trkpt lat="48.23273" lon="-4.25225">
        <ele>138</ele>
        <time>2000-01-01T02:59:34.000Z</time>
      </trkpt>
      <trkpt lat="48.23274" lon="-4.25274">
        <ele>139</ele>
        <time>2000-01-01T02:59:44.000Z</time>
      </trkpt>
      <trkpt lat="48.23266" lon="-4.25309">
        <ele>140</ele>
        <time>2000-01-01T02:59:54.000Z</time>
      </trkpt>
      <trkpt lat="48.23263" lon="-4.25334">
        <ele>147.1</ele>
        <time>2000-01-01T03:00:04.000Z</time>
      </trkpt>
      <trkpt lat="48.23253" lon="-4.2539">
        <ele>144</ele>
        <time>2000-01-01T03:00:14.000Z</time>
      </trkpt>
      <trkpt lat="48.23241" lon="-4.25424">
        <ele>144</ele>
        <time>2000-01-01T03:00:24.000Z</time>
      </trkpt>
      <trkpt lat="48.23226" lon="-4.25467">
        <ele>152</ele>
        <time>2000-01-01T03:00:34.000Z</time>
      </trkpt>
      <trkpt lat="48.23198" lon="-4.25519">
        <ele>159</ele>
        <time>2000-01-01T03:00:44.000Z</time>
      </trkpt>
      <trkpt lat="48.23194" lon="-4.25535">
        <ele>158</ele>
        <time>2000-01-01T03:00:54.000Z</time>
      </trkpt>
      <trkpt lat="48.23187" lon="-4.25547">
        <ele>159</ele>
        <time>2000-01-01T03:01:04.000Z</time>
      </trkpt>
      <trkpt lat="48.2317" lon="-4.25538">
        <ele>158</ele>
        <time>2000-01-01T03:01:14.000Z</time>
      </trkpt>
      <trkpt lat="48.23166" lon="-4.25539">
        <ele>160.7</ele>
        <time>2000-01-01T03:01:24.000Z</time>
      </trkpt>
      <trkpt lat="48.23127" lon="-4.25565">
        <ele>158</ele>
        <time>2000-01-01T03:01:34.000Z</time>
      </trkpt>
      <trkpt lat="48.23103" lon="-4.25577">
        <ele>158</ele>
        <time>2000-01-01T03:01:44.000Z</time>
      </trkpt>
      <trkpt lat="48.2307" lon="-4.25593">
        <ele>165</ele>
        <time>2000-01-01T03:01:54.000Z</time>
      </trkpt>
      <trkpt lat="48.23061" lon="-4.256">
        <ele>171.1</ele>
        <time>2000-01-01T03:02:04.000Z</time>
      </trkpt>
      <trkpt lat="48.23053" lon="-4.25615">
        <ele>168</ele>
        <time>2000-01-01T03:02:14.000Z</time>
      </trkpt>
      <trkpt lat="48.23049" lon="-4.25649">
        <ele>168</ele>
        <time>2000-01-01T03:02:24.000Z</time>
      </trkpt>
      <trkpt lat="48.23045" lon="-4.25698">
        <ele>174</ele>
        <time>2000-01-01T03:02:34.000Z</time>
      </trkpt>
      <trkpt lat="48.23036" lon="-4.25707">
        <ele>175.9</ele>
        <time>2000-01-01T03:02:44.000Z</time>
      </trkpt>
      <trkpt lat="48.23013" lon="-4.25722">
        <ele>180</ele>
        <time>2000-01-01T03:02:54.000Z</time>
      </trkpt>
      <trkpt lat="48.23017" lon="-4.2575">
        <ele>183</ele>
        <time>2000-01-01T03:03:04.000Z</time>
      </trkpt>
      <trkpt lat="48.23017" lon="-4.25776">
        <ele>181.6</ele>
        <time>2000-01-01T03:03:14.000Z</time>
      </trkpt>
      <trkpt lat="48.23022" lon="-4.25806">
        <ele>184</ele>
        <time>2000-01-01T03:03:24.000Z</time>
      </trkpt>
      <trkpt lat="48.23023" lon="-4.25853">
        <ele>185</ele>
        <time>2000-01-01T03:03:34.000Z</time>
      </trkpt>
      <trkpt lat="48.23028" lon="-4.259">
        <ele>186</ele>
        <time>2000-01-01T03:03:44.000Z</time>
      </trkpt>
      <trkpt lat="48.23029" lon="-4.25927">
        <ele>186</ele>
        <time>2000-01-01T03:03:54.000Z</time>
      </trkpt>
      <trkpt lat="48.23027" lon="-4.25947">
        <ele>187.1</ele>
        <time>2000-01-01T03:04:04.000Z</time>
      </trkpt>
      <trkpt lat="48.23029" lon="-4.25992">
        <ele>186</ele>
        <time>2000-01-01T03:04:14.000Z</time>
      </trkpt>
      <trkpt lat="48.23024" lon="-4.26031">
        <ele>186</ele>
        <time>2000-01-01T03:04:24.000Z</time>
      </trkpt>
      <trkpt lat="48.23026" lon="-4.26057">
        <ele>190.1</ele>
        <time>2000-01-01T03:04:34.000Z</time>
      </trkpt>
      <trkpt lat="48.23025" lon="-4.26082">
        <ele>190</ele>
        <time>2000-01-01T03:04:44.000Z</time>
      </trkpt>
      <trkpt lat="48.23023" lon="-4.26089">
        <ele>190.3</ele>
        <time>2000-01-01T03:04:54.000Z</time>
      </trkpt>
      <trkpt lat="48.23014" lon="-4.26096">
        <ele>190.7</ele>
        <time>2000-01-01T03:05:04.000Z</time>
      </trkpt>
      <trkpt lat="48.23011" lon="-4.26106">
        <ele>187</ele>
        <time>2000-01-01T03:05:14.000Z</time>
      </trkpt>
      <trkpt lat="48.23022" lon="-4.26117">
        <ele>191</ele>
        <time>2000-01-01T03:05:24.000Z</time>
      </trkpt>
      <trkpt lat="48.23024" lon="-4.26122">
        <ele>191</ele>
        <time>2000-01-01T03:05:34.000Z</time>
      </trkpt>
      <trkpt lat="48.23036" lon="-4.2624">
        <ele>186</ele>
        <time>2000-01-01T03:05:44.000Z</time>
      </trkpt>
      <trkpt lat="48.23042" lon="-4.26264">
        <ele>190</ele>
        <time>2000-01-01T03:05:54.000Z</time>
      </trkpt>
      <trkpt lat="48.23096" lon="-4.26421">
        <ele>186</ele>
        <time>2000-01-01T03:06:04.000Z</time>
      </trkpt>
      <trkpt lat="48.23112" lon="-4.26453">
        <ele>187</ele>
        <time>2000-01-01T03:06:14.000Z</time>
      </trkpt>
      <trkpt lat="48.23137" lon="-4.26502">
        <ele>187</ele>
        <time>2000-01-01T03:06:24.000Z</time>
      </trkpt>
      <trkpt lat="48.23107" lon="-4.26546">
        <ele>183</ele>
        <time>2000-01-01T03:06:34.000Z</time>
      </trkpt>
      <trkpt lat="48.23103" lon="-4.26554">
        <ele>188.3</ele>
        <time>2000-01-01T03:06:44.000Z</time>
      </trkpt>
      <trkpt lat="48.23101" lon="-4.26561">
        <ele>188.4</ele>
        <time>2000-01-01T03:06:54.000Z</time>
      </trkpt>
      <trkpt lat="48.231" lon="-4.2659">
        <ele>183</ele>
        <time>2000-01-01T03:07:04.000Z</time>
      </trkpt>
      <trkpt lat="48.23076" lon="-4.26593">
        <ele>187</ele>
        <time>2000-01-01T03:07:14.000Z</time>
      </trkpt>
      <trkpt lat="48.23045" lon="-4.26604">
        <ele>187</ele>
        <time>2000-01-01T03:07:24.000Z</time>
      </trkpt>
      <trkpt lat="48.23003" lon="-4.26625">
        <ele>186</ele>
        <time>2000-01-01T03:07:34.000Z</time>
      </trkpt>
      <trkpt lat="48.22974" lon="-4.26642">
        <ele>186</ele>
        <time>2000-01-01T03:07:44.000Z</time>
      </trkpt>
      <trkpt lat="48.22945" lon="-4.26659">
        <ele>186</ele>
        <time>2000-01-01T03:07:54.000Z</time>
      </trkpt>
      <trkpt lat="48.22909" lon="-4.2668">
        <ele>186</ele>
        <time>2000-01-01T03:08:04.000Z</time>
      </trkpt>
      <trkpt lat="48.2289" lon="-4.267">
        <ele>187</ele>
        <time>2000-01-01T03:08:14.000Z</time>
      </trkpt>
      <trkpt lat="48.22876" lon="-4.26738">
        <ele>187</ele>
        <time>2000-01-01T03:08:24.000Z</time>
      </trkpt>
      <trkpt lat="48.22864" lon="-4.26775">
        <ele>186</ele>
        <time>2000-01-01T03:08:34.000Z</time>
      </trkpt>
      <trkpt lat="48.22846" lon="-4.26831">
        <ele>184</ele>
        <time>2000-01-01T03:08:44.000Z</time>
      </trkpt>
      <trkpt lat="48.22832" lon="-4.26861">
        <ele>183</ele>
        <time>2000-01-01T03:08:54.000Z</time>
      </trkpt>
      <trkpt lat="48.22816" lon="-4.26896">
        <ele>183</ele>
        <time>2000-01-01T03:09:04.000Z</time>
      </trkpt>
      <trkpt lat="48.22834" lon="-4.26893">
        <ele>183</ele>
        <time>2000-01-01T03:09:14.000Z</time>
      </trkpt>
      <trkpt lat="48.22867" lon="-4.26879">
        <ele>184</ele>
        <time>2000-01-01T03:09:24.000Z</time>
      </trkpt>
      <trkpt lat="48.229" lon="-4.26865">
        <ele>185</ele>
        <time>2000-01-01T03:09:34.000Z</time>
      </trkpt>
      <trkpt lat="48.22934" lon="-4.2685">
        <ele>189</ele>
        <time>2000-01-01T03:09:44.000Z</time>
      </trkpt>
      <trkpt lat="48.22979" lon="-4.26831">
        <ele>189</ele>
        <time>2000-01-01T03:09:54.000Z</time>
      </trkpt>
      <trkpt lat="48.23006" lon="-4.26819">
        <ele>186</ele>
        <time>2000-01-01T03:10:04.000Z</time>
      </trkpt>
      <trkpt lat="48.23055" lon="-4.26797">
        <ele>183</ele>
        <time>2000-01-01T03:10:14.000Z</time>
      </trkpt>
      <trkpt lat="48.23066" lon="-4.26811">
        <ele>187</ele>
        <time>2000-01-01T03:10:24.000Z</time>
      </trkpt>
      <trkpt lat="48.23082" lon="-4.26859">
        <ele>182</ele>
        <time>2000-01-01T03:10:34.000Z</time>
      </trkpt>
      <trkpt lat="48.23087" lon="-4.26893">
        <ele>182</ele>
        <time>2000-01-01T03:10:44.000Z</time>
      </trkpt>
      <trkpt lat="48.23092" lon="-4.26928">
        <ele>180</ele>
        <time>2000-01-01T03:10:54.000Z</time>
      </trkpt>
      <trkpt lat="48.23102" lon="-4.26961">
        <ele>176</ele>
        <time>2000-01-01T03:11:04.000Z</time>
      </trkpt>
      <trkpt lat="48.23108" lon="-4.26974">
        <ele>186</ele>
        <time>2000-01-01T03:11:14.000Z</time>
      </trkpt>
      <trkpt lat="48.23114" lon="-4.27051">
        <ele>176</ele>
        <time>2000-01-01T03:11:24.000Z</time>
      </trkpt>
      <trkpt lat="48.23125" lon="-4.27106">
        <ele>178</ele>
        <time>2000-01-01T03:11:34.000Z</time>
      </trkpt>
      <trkpt lat="48.23122" lon="-4.27161">
        <ele>181</ele>
        <time>2000-01-01T03:11:44.000Z</time>
      </trkpt>
      <trkpt lat="48.23114" lon="-4.27215">
        <ele>179</ele>
        <time>2000-01-01T03:11:54.000Z</time>
      </trkpt>
      <trkpt lat="48.23112" lon="-4.27246">
        <ele>178</ele>
        <time>2000-01-01T03:12:04.000Z</time>
      </trkpt>
      <trkpt lat="48.23115" lon="-4.27293">
        <ele>178</ele>
        <time>2000-01-01T03:12:14.000Z</time>
      </trkpt>
      <trkpt lat="48.23118" lon="-4.27339">
        <ele>178</ele>
        <time>2000-01-01T03:12:24.000Z</time>
      </trkpt>
      <trkpt lat="48.23122" lon="-4.27398">
        <ele>174</ele>
        <time>2000-01-01T03:12:34.000Z</time>
      </trkpt>
      <trkpt lat="48.23126" lon="-4.27439">
        <ele>176</ele>
        <time>2000-01-01T03:12:44.000Z</time>
      </trkpt>
      <trkpt lat="48.2312" lon="-4.27487">
        <ele>177</ele>
        <time>2000-01-01T03:12:54.000Z</time>
      </trkpt>
      <trkpt lat="48.23113" lon="-4.27534">
        <ele>178</ele>
        <time>2000-01-01T03:13:04.000Z</time>
      </trkpt>
      <trkpt lat="48.23107" lon="-4.27569">
        <ele>180</ele>
        <time>2000-01-01T03:13:14.000Z</time>
      </trkpt>
      <trkpt lat="48.23101" lon="-4.27617">
        <ele>178</ele>
        <time>2000-01-01T03:13:24.000Z</time>
      </trkpt>
      <trkpt lat="48.23094" lon="-4.27665">
        <ele>177</ele>
        <time>2000-01-01T03:13:34.000Z</time>
      </trkpt>
      <trkpt lat="48.23084" lon="-4.27743">
        <ele>177</ele>
        <time>2000-01-01T03:13:44.000Z</time>
      </trkpt>
      <trkpt lat="48.23078" lon="-4.27795">
        <ele>177</ele>
        <time>2000-01-01T03:13:54.000Z</time>
      </trkpt>
      <trkpt lat="48.23071" lon="-4.27847">
        <ele>177</ele>
        <time>2000-01-01T03:14:04.000Z</time>
      </trkpt>
      <trkpt lat="48.23065" lon="-4.27898">
        <ele>177</ele>
        <time>2000-01-01T03:14:14.000Z</time>
      </trkpt>
      <trkpt lat="48.23061" lon="-4.27934">
        <ele>177</ele>
        <time>2000-01-01T03:14:24.000Z</time>
      </trkpt>
      <trkpt lat="48.23056" lon="-4.27978">
        <ele>176</ele>
        <time>2000-01-01T03:14:34.000Z</time>
      </trkpt>
      <trkpt lat="48.23052" lon="-4.28017">
        <ele>175</ele>
        <time>2000-01-01T03:14:44.000Z</time>
      </trkpt>
      <trkpt lat="48.23046" lon="-4.28075">
        <ele>175</ele>
        <time>2000-01-01T03:14:54.000Z</time>
      </trkpt>
      <trkpt lat="48.23034" lon="-4.28106">
        <ele>176</ele>
        <time>2000-01-01T03:15:04.000Z</time>
      </trkpt>
      <trkpt lat="48.23043" lon="-4.28118">
        <ele>180.9</ele>
        <time>2000-01-01T03:15:14.000Z</time>
      </trkpt>
      <trkpt lat="48.23059" lon="-4.28183">
        <ele>178</ele>
        <time>2000-01-01T03:15:24.000Z</time>
      </trkpt>
      <trkpt lat="48.23066" lon="-4.28226">
        <ele>180</ele>
        <time>2000-01-01T03:15:34.000Z</time>
      </trkpt>
      <trkpt lat="48.23071" lon="-4.28261">
        <ele>180</ele>
        <time>2000-01-01T03:15:44.000Z</time>
      </trkpt>
      <trkpt lat="48.23078" lon="-4.28303">
        <ele>175</ele>
        <time>2000-01-01T03:15:54.000Z</time>
      </trkpt>
      <trkpt lat="48.23085" lon="-4.28358">
        <ele>174</ele>
        <time>2000-01-01T03:16:04.000Z</time>
      </trkpt>
      <trkpt lat="48.23081" lon="-4.28407">
        <ele>172</ele>
        <time>2000-01-01T03:16:14.000Z</time>
      </trkpt>
      <trkpt lat="48.23072" lon="-4.28452">
        <ele>172</ele>
        <time>2000-01-01T03:16:24.000Z</time>
      </trkpt>
      <trkpt lat="48.23099" lon="-4.28462">
        <ele>172</ele>
        <time>2000-01-01T03:16:34.000Z</time>
      </trkpt>
      <trkpt lat="48.23142" lon="-4.28479">
        <ele>169</ele>
        <time>2000-01-01T03:16:44.000Z</time>
      </trkpt>
      <trkpt lat="48.23182" lon="-4.28491">
        <ele>175</ele>
        <time>2000-01-01T03:16:54.000Z</time>
      </trkpt>
      <trkpt lat="48.23211" lon="-4.28492">
        <ele>182</ele>
        <time>2000-01-01T03:17:04.000Z</time>
      </trkpt>
      <trkpt lat="48.2323" lon="-4.28489">
        <ele>182</ele>
        <time>2000-01-01T03:17:14.000Z</time>
      </trkpt>
      <trkpt lat="48.23267" lon="-4.28474">
        <ele>178</ele>
        <time>2000-01-01T03:17:24.000Z</time>
      </trkpt>
      <trkpt lat="48.23299" lon="-4.28465">
        <ele>167</ele>
        <time>2000-01-01T03:17:34.000Z</time>
      </trkpt>
      <trkpt lat="48.23328" lon="-4.28465">
        <ele>163</ele>
        <time>2000-01-01T03:17:44.000Z</time>
      </trkpt>
      <trkpt lat="48.23361" lon="-4.28472">
        <ele>162</ele>
        <time>2000-01-01T03:17:54.000Z</time>
      </trkpt>
      <trkpt lat="48.23395" lon="-4.28479">
        <ele>162</ele>
        <time>2000-01-01T03:18:04.000Z</time>
      </trkpt>
      <trkpt lat="48.23428" lon="-4.28486">
        <ele>165</ele>
        <time>2000-01-01T03:18:14.000Z</time>
      </trkpt>
      <trkpt lat="48.23463" lon="-4.28493">
        <ele>165</ele>
        <time>2000-01-01T03:18:24.000Z</time>
      </trkpt>
      <trkpt lat="48.23496" lon="-4.28499">
        <ele>165</ele>
        <time>2000-01-01T03:18:34.000Z</time>
      </trkpt>
      <trkpt lat="48.23527" lon="-4.28504">
        <ele>163</ele>
        <time>2000-01-01T03:18:44.000Z</time>
      </trkpt>
      <trkpt lat="48.23557" lon="-4.28508">
        <ele>162</ele>
        <time>2000-01-01T03:18:54.000Z</time>
      </trkpt>
      <trkpt lat="48.23594" lon="-4.28514">
        <ele>159</ele>
        <time>2000-01-01T03:19:04.000Z</time>
      </trkpt>
      <trkpt lat="48.23607" lon="-4.28517">
        <ele>153.3</ele>
        <time>2000-01-01T03:19:14.000Z</time>
      </trkpt>
      <trkpt lat="48.23603" lon="-4.28566">
        <ele>158</ele>
        <time>2000-01-01T03:19:24.000Z</time>
      </trkpt>
      <trkpt lat="48.23597" lon="-4.28607">
        <ele>158</ele>
        <time>2000-01-01T03:19:34.000Z</time>
      </trkpt>
      <trkpt lat="48.23592" lon="-4.28662">
        <ele>158</ele>
        <time>2000-01-01T03:19:44.000Z</time>
      </trkpt>
      <trkpt lat="48.23593" lon="-4.28683">
        <ele>151.8</ele>
        <time>2000-01-01T03:19:54.000Z</time>
      </trkpt>
      <trkpt lat="48.23596" lon="-4.28699">
        <ele>155</ele>
        <time>2000-01-01T03:20:04.000Z</time>
      </trkpt>
      <trkpt lat="48.23574" lon="-4.28724">
        <ele>155</ele>
        <time>2000-01-01T03:20:14.000Z</time>
      </trkpt>
      <trkpt lat="48.23572" lon="-4.2875">
        <ele>150.9</ele>
        <time>2000-01-01T03:20:24.000Z</time>
      </trkpt>
      <trkpt lat="48.23561" lon="-4.28811">
        <ele>146</ele>
        <time>2000-01-01T03:20:34.000Z</time>
      </trkpt>
      <trkpt lat="48.23556" lon="-4.28853">
        <ele>147</ele>
        <time>2000-01-01T03:20:44.000Z</time>
      </trkpt>
      <trkpt lat="48.23551" lon="-4.28864">
        <ele>154.8</ele>
        <time>2000-01-01T03:20:54.000Z</time>
      </trkpt>
      <trkpt lat="48.23548" lon="-4.28895">
        <ele>148</ele>
        <time>2000-01-01T03:21:04.000Z</time>
      </trkpt>
      <trkpt lat="48.2354" lon="-4.28931">
        <ele>149</ele>
        <time>2000-01-01T03:21:14.000Z</time>
      </trkpt>
      <trkpt lat="48.23529" lon="-4.28975">
        <ele>148</ele>
        <time>2000-01-01T03:21:24.000Z</time>
      </trkpt>
      <trkpt lat="48.23527" lon="-4.28995">
        <ele>157.1</ele>
        <time>2000-01-01T03:21:34.000Z</time>
      </trkpt>
      <trkpt lat="48.23532" lon="-4.2903">
        <ele>147</ele>
        <time>2000-01-01T03:21:44.000Z</time>
      </trkpt>
      <trkpt lat="48.23533" lon="-4.29061">
        <ele>143</ele>
        <time>2000-01-01T03:21:54.000Z</time>
      </trkpt>
      <trkpt lat="48.23531" lon="-4.29085">
        <ele>154.1</ele>
        <time>2000-01-01T03:22:04.000Z</time>
      </trkpt>
      <trkpt lat="48.23525" lon="-4.29133">
        <ele>140</ele>
        <time>2000-01-01T03:22:14.000Z</time>
      </trkpt>
      <trkpt lat="48.23521" lon="-4.29147">
        <ele>149.4</ele>
        <time>2000-01-01T03:22:24.000Z</time>
      </trkpt>
      <trkpt lat="48.23508" lon="-4.29163">
        <ele>140</ele>
        <time>2000-01-01T03:22:34.000Z</time>
      </trkpt>
      <trkpt lat="48.23491" lon="-4.29197">
        <ele>140</ele>
        <time>2000-01-01T03:22:44.000Z</time>
      </trkpt>
      <trkpt lat="48.23477" lon="-4.2925">
        <ele>140</ele>
        <time>2000-01-01T03:22:54.000Z</time>
      </trkpt>
      <trkpt lat="48.23465" lon="-4.293">
        <ele>140</ele>
        <time>2000-01-01T03:23:04.000Z</time>
      </trkpt>
      <trkpt lat="48.23455" lon="-4.29343">
        <ele>143</ele>
        <time>2000-01-01T03:23:14.000Z</time>
      </trkpt>
      <trkpt lat="48.23446" lon="-4.29387">
        <ele>144</ele>
        <time>2000-01-01T03:23:24.000Z</time>
      </trkpt>
      <trkpt lat="48.23435" lon="-4.29435">
        <ele>145</ele>
        <time>2000-01-01T03:23:34.000Z</time>
      </trkpt>
      <trkpt lat="48.23426" lon="-4.29478">
        <ele>147</ele>
        <time>2000-01-01T03:23:44.000Z</time>
      </trkpt>
      <trkpt lat="48.23419" lon="-4.29516">
        <ele>150</ele>
        <time>2000-01-01T03:23:54.000Z</time>
      </trkpt>
      <trkpt lat="48.2341" lon="-4.29569">
        <ele>156</ele>
        <time>2000-01-01T03:24:04.000Z</time>
      </trkpt>
      <trkpt lat="48.2341" lon="-4.29583">
        <ele>159.7</ele>
        <time>2000-01-01T03:24:14.000Z</time>
      </trkpt>
      <trkpt lat="48.23413" lon="-4.29595">
        <ele>159.4</ele>
        <time>2000-01-01T03:24:24.000Z</time>
      </trkpt>
      <trkpt lat="48.23431" lon="-4.29627">
        <ele>153</ele>
        <time>2000-01-01T03:24:34.000Z</time>
      </trkpt>
      <trkpt lat="48.23443" lon="-4.29632">
        <ele>155.9</ele>
        <time>2000-01-01T03:24:44.000Z</time>
      </trkpt>
      <trkpt lat="48.23461" lon="-4.29635">
        <ele>158</ele>
        <time>2000-01-01T03:24:54.000Z</time>
      </trkpt>
      <trkpt lat="48.23475" lon="-4.29651">
        <ele>151</ele>
        <time>2000-01-01T03:25:04.000Z</time>
      </trkpt>
      <trkpt lat="48.23508" lon="-4.29711">
        <ele>157</ele>
        <time>2000-01-01T03:25:14.000Z</time>
      </trkpt>
      <trkpt lat="48.23525" lon="-4.29752">
        <ele>156</ele>
        <time>2000-01-01T03:25:24.000Z</time>
      </trkpt>
      <trkpt lat="48.23542" lon="-4.29793">
        <ele>151</ele>
        <time>2000-01-01T03:25:34.000Z</time>
      </trkpt>
      <trkpt lat="48.23567" lon="-4.29855">
        <ele>149</ele>
        <time>2000-01-01T03:25:44.000Z</time>
      </trkpt>
      <trkpt lat="48.23586" lon="-4.29903">
        <ele>136</ele>
        <time>2000-01-01T03:25:54.000Z</time>
      </trkpt>
      <trkpt lat="48.23606" lon="-4.29951">
        <ele>134</ele>
        <time>2000-01-01T03:26:04.000Z</time>
      </trkpt>
      <trkpt lat="48.23626" lon="-4.30003">
        <ele>134</ele>
        <time>2000-01-01T03:26:14.000Z</time>
      </trkpt>
      <trkpt lat="48.2364" lon="-4.30033">
        <ele>134</ele>
        <time>2000-01-01T03:26:24.000Z</time>
      </trkpt>
      <trkpt lat="48.23656" lon="-4.3007">
        <ele>127</ele>
        <time>2000-01-01T03:26:34.000Z</time>
      </trkpt>
      <trkpt lat="48.2368" lon="-4.30089">
        <ele>121</ele>
        <time>2000-01-01T03:26:44.000Z</time>
      </trkpt>
      <trkpt lat="48.23717" lon="-4.30118">
        <ele>115</ele>
        <time>2000-01-01T03:26:54.000Z</time>
      </trkpt>
      <trkpt lat="48.23742" lon="-4.30138">
        <ele>113</ele>
        <time>2000-01-01T03:27:04.000Z</time>
      </trkpt>
      <trkpt lat="48.23783" lon="-4.30171">
        <ele>111</ele>
        <time>2000-01-01T03:27:14.000Z</time>
      </trkpt>
      <trkpt lat="48.2382" lon="-4.30197">
        <ele>110</ele>
        <time>2000-01-01T03:27:24.000Z</time>
      </trkpt>
      <trkpt lat="48.23843" lon="-4.30218">
        <ele>105</ele>
        <time>2000-01-01T03:27:34.000Z</time>
      </trkpt>
      <trkpt lat="48.2388" lon="-4.30252">
        <ele>102</ele>
        <time>2000-01-01T03:27:44.000Z</time>
      </trkpt>
      <trkpt lat="48.23904" lon="-4.3027">
        <ele>100</ele>
        <time>2000-01-01T03:27:54.000Z</time>
      </trkpt>
      <trkpt lat="48.23937" lon="-4.30297">
        <ele>96</ele>
        <time>2000-01-01T03:28:04.000Z</time>
      </trkpt>
      <trkpt lat="48.23968" lon="-4.30321">
        <ele>92</ele>
        <time>2000-01-01T03:28:14.000Z</time>
      </trkpt>
      <trkpt lat="48.23997" lon="-4.30343">
        <ele>89</ele>
        <time>2000-01-01T03:28:24.000Z</time>
      </trkpt>
      <trkpt lat="48.24026" lon="-4.30365">
        <ele>91</ele>
        <time>2000-01-01T03:28:34.000Z</time>
      </trkpt>
      <trkpt lat="48.24074" lon="-4.304">
        <ele>94</ele>
        <time>2000-01-01T03:28:44.000Z</time>
      </trkpt>
      <trkpt lat="48.24061" lon="-4.30432">
        <ele>94</ele>
        <time>2000-01-01T03:28:54.000Z</time>
      </trkpt>
      <trkpt lat="48.24046" lon="-4.3047">
        <ele>97</ele>
        <time>2000-01-01T03:29:04.000Z</time>
      </trkpt>
      <trkpt lat="48.24031" lon="-4.30509">
        <ele>97</ele>
        <time>2000-01-01T03:29:14.000Z</time>
      </trkpt>
      <trkpt lat="48.24024" lon="-4.30535">
        <ele>96</ele>
        <time>2000-01-01T03:29:24.000Z</time>
      </trkpt>
      <trkpt lat="48.24012" lon="-4.3059">
        <ele>91</ele>
        <time>2000-01-01T03:29:34.000Z</time>
      </trkpt>
      <trkpt lat="48.24003" lon="-4.30637">
        <ele>89</ele>
        <time>2000-01-01T03:29:44.000Z</time>
      </trkpt>
      <trkpt lat="48.23994" lon="-4.30683">
        <ele>91</ele>
        <time>2000-01-01T03:29:54.000Z</time>
      </trkpt>
      <trkpt lat="48.23979" lon="-4.30757">
        <ele>94</ele>
        <time>2000-01-01T03:30:04.000Z</time>
      </trkpt>
      <trkpt lat="48.23967" lon="-4.30812">
        <ele>97</ele>
        <time>2000-01-01T03:30:14.000Z</time>
      </trkpt>
      <trkpt lat="48.23958" lon="-4.30855">
        <ele>98</ele>
        <time>2000-01-01T03:30:24.000Z</time>
      </trkpt>
      <trkpt lat="48.23942" lon="-4.30937">
        <ele>99</ele>
        <time>2000-01-01T03:30:34.000Z</time>
      </trkpt>
      <trkpt lat="48.2398" lon="-4.30952">
        <ele>99</ele>
        <time>2000-01-01T03:30:44.000Z</time>
      </trkpt>
      <trkpt lat="48.24012" lon="-4.30964">
        <ele>95</ele>
        <time>2000-01-01T03:30:54.000Z</time>
      </trkpt>
      <trkpt lat="48.24043" lon="-4.30975">
        <ele>89</ele>
        <time>2000-01-01T03:31:04.000Z</time>
      </trkpt>
      <trkpt lat="48.24096" lon="-4.30994">
        <ele>89</ele>
        <time>2000-01-01T03:31:14.000Z</time>
      </trkpt>
      <trkpt lat="48.24134" lon="-4.31009">
        <ele>86</ele>
        <time>2000-01-01T03:31:24.000Z</time>
      </trkpt>
      <trkpt lat="48.24167" lon="-4.31021">
        <ele>82</ele>
        <time>2000-01-01T03:31:34.000Z</time>
      </trkpt>
      <trkpt lat="48.242" lon="-4.31033">
        <ele>79</ele>
        <time>2000-01-01T03:31:44.000Z</time>
      </trkpt>
      <trkpt lat="48.24233" lon="-4.31045">
        <ele>77</ele>
        <time>2000-01-01T03:31:54.000Z</time>
      </trkpt>
      <trkpt lat="48.24271" lon="-4.31059">
        <ele>75</ele>
        <time>2000-01-01T03:32:04.000Z</time>
      </trkpt>
      <trkpt lat="48.2428" lon="-4.31062">
        <ele>84.8</ele>
        <time>2000-01-01T03:32:14.000Z</time>
      </trkpt>
      <trkpt lat="48.24295" lon="-4.31061">
        <ele>74</ele>
        <time>2000-01-01T03:32:24.000Z</time>
      </trkpt>
      <trkpt lat="48.24299" lon="-4.31102">
        <ele>74</ele>
        <time>2000-01-01T03:32:34.000Z</time>
      </trkpt>
      <trkpt lat="48.24299" lon="-4.31151">
        <ele>73</ele>
        <time>2000-01-01T03:32:44.000Z</time>
      </trkpt>
      <trkpt lat="48.243" lon="-4.31164">
        <ele>81.5</ele>
        <time>2000-01-01T03:32:54.000Z</time>
      </trkpt>
      <trkpt lat="48.24334" lon="-4.31136">
        <ele>73</ele>
        <time>2000-01-01T03:33:04.000Z</time>
      </trkpt>
      <trkpt lat="48.24353" lon="-4.31115">
        <ele>67</ele>
        <time>2000-01-01T03:33:14.000Z</time>
      </trkpt>
      <trkpt lat="48.24362" lon="-4.31108">
        <ele>74.9</ele>
        <time>2000-01-01T03:33:24.000Z</time>
      </trkpt>
      <trkpt lat="48.2437" lon="-4.31108">
        <ele>67</ele>
        <time>2000-01-01T03:33:34.000Z</time>
      </trkpt>
      <trkpt lat="48.24398" lon="-4.31116">
        <ele>65</ele>
        <time>2000-01-01T03:33:44.000Z</time>
      </trkpt>
      <trkpt lat="48.24426" lon="-4.31126">
        <ele>62</ele>
        <time>2000-01-01T03:33:54.000Z</time>
      </trkpt>
      <trkpt lat="48.24449" lon="-4.31135">
        <ele>63</ele>
        <time>2000-01-01T03:34:04.000Z</time>
      </trkpt>
      <trkpt lat="48.24473" lon="-4.31145">
        <ele>65</ele>
        <time>2000-01-01T03:34:14.000Z</time>
      </trkpt>
      <trkpt lat="48.24501" lon="-4.31148">
        <ele>68</ele>
        <time>2000-01-01T03:34:24.000Z</time>
      </trkpt>
      <trkpt lat="48.24538" lon="-4.31146">
        <ele>68</ele>
        <time>2000-01-01T03:34:34.000Z</time>
      </trkpt>
      <trkpt lat="48.2456" lon="-4.31158">
        <ele>68</ele>
        <time>2000-01-01T03:34:44.000Z</time>
      </trkpt>
      <trkpt lat="48.24585" lon="-4.3117">
        <ele>65</ele>
        <time>2000-01-01T03:34:54.000Z</time>
      </trkpt>
      <trkpt lat="48.24607" lon="-4.31186">
        <ele>64</ele>
        <time>2000-01-01T03:35:04.000Z</time>
      </trkpt>
      <trkpt lat="48.24633" lon="-4.31205">
        <ele>64</ele>
        <time>2000-01-01T03:35:14.000Z</time>
      </trkpt>
      <trkpt lat="48.24645" lon="-4.31217">
        <ele>67.1</ele>
        <time>2000-01-01T03:35:24.000Z</time>
      </trkpt>
      <trkpt lat="48.24613" lon="-4.31328">
        <ele>65</ele>
        <time>2000-01-01T03:35:34.000Z</time>
      </trkpt>
      <trkpt lat="48.24606" lon="-4.31373">
        <ele>63</ele>
        <time>2000-01-01T03:35:44.000Z</time>
      </trkpt>
      <trkpt lat="48.24599" lon="-4.31417">
        <ele>67</ele>
        <time>2000-01-01T03:35:54.000Z</time>
      </trkpt>
      <trkpt lat="48.24591" lon="-4.31467">
        <ele>72</ele>
        <time>2000-01-01T03:36:04.000Z</time>
      </trkpt>
      <trkpt lat="48.24617" lon="-4.31467">
        <ele>73</ele>
        <time>2000-01-01T03:36:14.000Z</time>
      </trkpt>
      <trkpt lat="48.24646" lon="-4.31493">
        <ele>73</ele>
        <time>2000-01-01T03:36:24.000Z</time>
      </trkpt>
      <trkpt lat="48.24642" lon="-4.31506">
        <ele>71.2</ele>
        <time>2000-01-01T03:36:34.000Z</time>
      </trkpt>
      <trkpt lat="48.24625" lon="-4.31549">
        <ele>73</ele>
        <time>2000-01-01T03:36:44.000Z</time>
      </trkpt>
      <trkpt lat="48.24614" lon="-4.31584">
        <ele>73</ele>
        <time>2000-01-01T03:36:54.000Z</time>
      </trkpt>
      <trkpt lat="48.246" lon="-4.31631">
        <ele>74</ele>
        <time>2000-01-01T03:37:04.000Z</time>
      </trkpt>
      <trkpt lat="48.24614" lon="-4.31642">
        <ele>73</ele>
        <time>2000-01-01T03:37:14.000Z</time>
      </trkpt>
      <trkpt lat="48.24656" lon="-4.3164">
        <ele>72</ele>
        <time>2000-01-01T03:37:24.000Z</time>
      </trkpt>
      <trkpt lat="48.24695" lon="-4.31642">
        <ele>70</ele>
        <time>2000-01-01T03:37:34.000Z</time>
      </trkpt>
      <trkpt lat="48.24729" lon="-4.3164">
        <ele>71</ele>
        <time>2000-01-01T03:37:44.000Z</time>
      </trkpt>
      <trkpt lat="48.24762" lon="-4.31638">
        <ele>67</ele>
        <time>2000-01-01T03:37:54.000Z</time>
      </trkpt>
      <trkpt lat="48.24796" lon="-4.31636">
        <ele>64</ele>
        <time>2000-01-01T03:38:04.000Z</time>
      </trkpt>
      <trkpt lat="48.24831" lon="-4.31634">
        <ele>61</ele>
        <time>2000-01-01T03:38:14.000Z</time>
      </trkpt>
      <trkpt lat="48.24859" lon="-4.31631">
        <ele>59</ele>
        <time>2000-01-01T03:38:24.000Z</time>
      </trkpt>
      <trkpt lat="48.24905" lon="-4.31625">
        <ele>61</ele>
        <time>2000-01-01T03:38:34.000Z</time>
      </trkpt>
      <trkpt lat="48.24904" lon="-4.31589">
        <ele>61</ele>
        <time>2000-01-01T03:38:44.000Z</time>
      </trkpt>
      <trkpt lat="48.24904" lon="-4.31544">
        <ele>58</ele>
        <time>2000-01-01T03:38:54.000Z</time>
      </trkpt>
      <trkpt lat="48.24899" lon="-4.31506">
        <ele>59</ele>
        <time>2000-01-01T03:39:04.000Z</time>
      </trkpt>
      <trkpt lat="48.24892" lon="-4.31454">
        <ele>60</ele>
        <time>2000-01-01T03:39:14.000Z</time>
      </trkpt>
      <trkpt lat="48.24889" lon="-4.31411">
        <ele>60</ele>
        <time>2000-01-01T03:39:24.000Z</time>
      </trkpt>
      <trkpt lat="48.24883" lon="-4.31331">
        <ele>59</ele>
        <time>2000-01-01T03:39:34.000Z</time>
      </trkpt>
      <trkpt lat="48.24875" lon="-4.31298">
        <ele>58</ele>
        <time>2000-01-01T03:39:44.000Z</time>
      </trkpt>
      <trkpt lat="48.24865" lon="-4.31264">
        <ele>58</ele>
        <time>2000-01-01T03:39:54.000Z</time>
      </trkpt>
      <trkpt lat="48.24851" lon="-4.31222">
        <ele>55</ele>
        <time>2000-01-01T03:40:04.000Z</time>
      </trkpt>
      <trkpt lat="48.24851" lon="-4.31213">
        <ele>58.7</ele>
        <time>2000-01-01T03:40:14.000Z</time>
      </trkpt>
      <trkpt lat="48.24976" lon="-4.31163">
        <ele>55</ele>
        <time>2000-01-01T03:40:24.000Z</time>
      </trkpt>
      <trkpt lat="48.25007" lon="-4.31152">
        <ele>56</ele>
        <time>2000-01-01T03:40:34.000Z</time>
      </trkpt>
      <trkpt lat="48.25038" lon="-4.31141">
        <ele>61</ele>
        <time>2000-01-01T03:40:44.000Z</time>
      </trkpt>
      <trkpt lat="48.25085" lon="-4.31124">
        <ele>65</ele>
        <time>2000-01-01T03:40:54.000Z</time>
      </trkpt>
      <trkpt lat="48.2511" lon="-4.31111">
        <ele>64</ele>
        <time>2000-01-01T03:41:04.000Z</time>
      </trkpt>
      <trkpt lat="48.25145" lon="-4.31093">
        <ele>64</ele>
        <time>2000-01-01T03:41:14.000Z</time>
      </trkpt>
      <trkpt lat="48.25182" lon="-4.3108">
        <ele>67</ele>
        <time>2000-01-01T03:41:24.000Z</time>
      </trkpt>
      <trkpt lat="48.25219" lon="-4.31068">
        <ele>71</ele>
        <time>2000-01-01T03:41:34.000Z</time>
      </trkpt>
      <trkpt lat="48.25255" lon="-4.31055">
        <ele>71</ele>
        <time>2000-01-01T03:41:44.000Z</time>
      </trkpt>
      <trkpt lat="48.25292" lon="-4.31043">
        <ele>71</ele>
        <time>2000-01-01T03:41:54.000Z</time>
      </trkpt>
      <trkpt lat="48.25329" lon="-4.3103">
        <ele>72</ele>
        <time>2000-01-01T03:42:04.000Z</time>
      </trkpt>
      <trkpt lat="48.25353" lon="-4.31022">
        <ele>74</ele>
        <time>2000-01-01T03:42:14.000Z</time>
      </trkpt>
      <trkpt lat="48.25381" lon="-4.31013">
        <ele>75</ele>
        <time>2000-01-01T03:42:24.000Z</time>
      </trkpt>
      <trkpt lat="48.25405" lon="-4.31011">
        <ele>75</ele>
        <time>2000-01-01T03:42:34.000Z</time>
      </trkpt>
      <trkpt lat="48.25435" lon="-4.31009">
        <ele>77</ele>
        <time>2000-01-01T03:42:44.000Z</time>
      </trkpt>
      <trkpt lat="48.2544" lon="-4.30981">
        <ele>81</ele>
        <time>2000-01-01T03:42:54.000Z</time>
      </trkpt>
      <trkpt lat="48.25441" lon="-4.30921">
        <ele>83</ele>
        <time>2000-01-01T03:43:04.000Z</time>
      </trkpt>
      <trkpt lat="48.2544" lon="-4.30892">
        <ele>81</ele>
        <time>2000-01-01T03:43:14.000Z</time>
      </trkpt>
      <trkpt lat="48.25444" lon="-4.30876">
        <ele>76</ele>
        <time>2000-01-01T03:43:24.000Z</time>
      </trkpt>
      <trkpt lat="48.25532" lon="-4.30807">
        <ele>82</ele>
        <time>2000-01-01T03:43:34.000Z</time>
      </trkpt>
      <trkpt lat="48.25552" lon="-4.30784">
        <ele>83</ele>
        <time>2000-01-01T03:43:44.000Z</time>
      </trkpt>
      <trkpt lat="48.25553" lon="-4.30774">
        <ele>85.8</ele>
        <time>2000-01-01T03:43:54.000Z</time>
      </trkpt>
      <trkpt lat="48.25542" lon="-4.30691">
        <ele>85</ele>
        <time>2000-01-01T03:44:04.000Z</time>
      </trkpt>
      <trkpt lat="48.25543" lon="-4.30678">
        <ele>87.2</ele>
        <time>2000-01-01T03:44:14.000Z</time>
      </trkpt>
      <trkpt lat="48.25724" lon="-4.30695">
        <ele>102</ele>
        <time>2000-01-01T03:44:24.000Z</time>
      </trkpt>
      <trkpt lat="48.25724" lon="-4.30649">
        <ele>103</ele>
        <time>2000-01-01T03:44:34.000Z</time>
      </trkpt>
      <trkpt lat="48.25724" lon="-4.30604">
        <ele>103</ele>
        <time>2000-01-01T03:44:44.000Z</time>
      </trkpt>
      <trkpt lat="48.25724" lon="-4.30554">
        <ele>103</ele>
        <time>2000-01-01T03:44:54.000Z</time>
      </trkpt>
      <trkpt lat="48.25723" lon="-4.30507">
        <ele>103</ele>
        <time>2000-01-01T03:45:04.000Z</time>
      </trkpt>
      <trkpt lat="48.25722" lon="-4.30461">
        <ele>104</ele>
        <time>2000-01-01T03:45:14.000Z</time>
      </trkpt>
      <trkpt lat="48.25721" lon="-4.30403">
        <ele>107</ele>
        <time>2000-01-01T03:45:24.000Z</time>
      </trkpt>
      <trkpt lat="48.25725" lon="-4.30388">
        <ele>103.2</ele>
        <time>2000-01-01T03:45:34.000Z</time>
      </trkpt>
      <trkpt lat="48.25724" lon="-4.30355">
        <ele>107</ele>
        <time>2000-01-01T03:45:44.000Z</time>
      </trkpt>
      <trkpt lat="48.25724" lon="-4.30295">
        <ele>104</ele>
        <time>2000-01-01T03:45:54.000Z</time>
      </trkpt>
      <trkpt lat="48.25725" lon="-4.30234">
        <ele>104</ele>
        <time>2000-01-01T03:46:04.000Z</time>
      </trkpt>
      <trkpt lat="48.25725" lon="-4.30174">
        <ele>105</ele>
        <time>2000-01-01T03:46:14.000Z</time>
      </trkpt>
      <trkpt lat="48.25726" lon="-4.30131">
        <ele>105</ele>
        <time>2000-01-01T03:46:24.000Z</time>
      </trkpt>
      <trkpt lat="48.25727" lon="-4.30054">
        <ele>104</ele>
        <time>2000-01-01T03:46:34.000Z</time>
      </trkpt>
      <trkpt lat="48.25727" lon="-4.29994">
        <ele>104</ele>
        <time>2000-01-01T03:46:44.000Z</time>
      </trkpt>
      <trkpt lat="48.25728" lon="-4.29933">
        <ele>103</ele>
        <time>2000-01-01T03:46:54.000Z</time>
      </trkpt>
      <trkpt lat="48.25728" lon="-4.29873">
        <ele>95</ele>
        <time>2000-01-01T03:47:04.000Z</time>
      </trkpt>
      <trkpt lat="48.25729" lon="-4.29835">
        <ele>94</ele>
        <time>2000-01-01T03:47:14.000Z</time>
      </trkpt>
      <trkpt lat="48.25729" lon="-4.29787">
        <ele>94</ele>
        <time>2000-01-01T03:47:24.000Z</time>
      </trkpt>
      <trkpt lat="48.25732" lon="-4.29743">
        <ele>95</ele>
        <time>2000-01-01T03:47:34.000Z</time>
      </trkpt>
      <trkpt lat="48.25736" lon="-4.29712">
        <ele>95</ele>
        <time>2000-01-01T03:47:44.000Z</time>
      </trkpt>
      <trkpt lat="48.25741" lon="-4.29688">
        <ele>104.1</ele>
        <time>2000-01-01T03:47:54.000Z</time>
      </trkpt>
      <trkpt lat="48.25782" lon="-4.29566">
        <ele>101</ele>
        <time>2000-01-01T03:48:04.000Z</time>
      </trkpt>
      <trkpt lat="48.25798" lon="-4.29522">
        <ele>100</ele>
        <time>2000-01-01T03:48:14.000Z</time>
      </trkpt>
      <trkpt lat="48.25814" lon="-4.29478">
        <ele>100</ele>
        <time>2000-01-01T03:48:24.000Z</time>
      </trkpt>
      <trkpt lat="48.25844" lon="-4.29393">
        <ele>99</ele>
        <time>2000-01-01T03:48:34.000Z</time>
      </trkpt>
      <trkpt lat="48.25856" lon="-4.29345">
        <ele>92</ele>
        <time>2000-01-01T03:48:44.000Z</time>
      </trkpt>
      <trkpt lat="48.25862" lon="-4.29309">
        <ele>91</ele>
        <time>2000-01-01T03:48:54.000Z</time>
      </trkpt>
      <trkpt lat="48.2587" lon="-4.29264">
        <ele>89</ele>
        <time>2000-01-01T03:49:04.000Z</time>
      </trkpt>
      <trkpt lat="48.25873" lon="-4.29205">
        <ele>89</ele>
        <time>2000-01-01T03:49:14.000Z</time>
      </trkpt>
      <trkpt lat="48.2587" lon="-4.29167">
        <ele>87</ele>
        <time>2000-01-01T03:49:24.000Z</time>
      </trkpt>
      <trkpt lat="48.25867" lon="-4.29115">
        <ele>85</ele>
        <time>2000-01-01T03:49:34.000Z</time>
      </trkpt>
      <trkpt lat="48.25865" lon="-4.29069">
        <ele>83</ele>
        <time>2000-01-01T03:49:44.000Z</time>
      </trkpt>
      <trkpt lat="48.25857" lon="-4.29048">
        <ele>91.9</ele>
        <time>2000-01-01T03:49:54.000Z</time>
      </trkpt>
      <trkpt lat="48.25855" lon="-4.29029">
        <ele>88</ele>
        <time>2000-01-01T03:50:04.000Z</time>
      </trkpt>
      <trkpt lat="48.25862" lon="-4.28987">
        <ele>89</ele>
        <time>2000-01-01T03:50:14.000Z</time>
      </trkpt>
      <trkpt lat="48.25867" lon="-4.28952">
        <ele>87</ele>
        <time>2000-01-01T03:50:24.000Z</time>
      </trkpt>
      <trkpt lat="48.25873" lon="-4.28913">
        <ele>86</ele>
        <time>2000-01-01T03:50:34.000Z</time>
      </trkpt>
      <trkpt lat="48.25874" lon="-4.28901">
        <ele>80.7</ele>
        <time>2000-01-01T03:50:44.000Z</time>
      </trkpt>
      <trkpt lat="48.25872" lon="-4.28883">
        <ele>84</ele>
        <time>2000-01-01T03:50:54.000Z</time>
      </trkpt>
      <trkpt lat="48.2587" lon="-4.28879">
        <ele>79.1</ele>
        <time>2000-01-01T03:51:04.000Z</time>
      </trkpt>
      <trkpt lat="48.2584" lon="-4.28859">
        <ele>80</ele>
        <time>2000-01-01T03:51:14.000Z</time>
      </trkpt>
      <trkpt lat="48.25858" lon="-4.28834">
        <ele>73</ele>
        <time>2000-01-01T03:51:24.000Z</time>
      </trkpt>
      <trkpt lat="48.2588" lon="-4.28805">
        <ele>72</ele>
        <time>2000-01-01T03:51:34.000Z</time>
      </trkpt>
      <trkpt lat="48.25891" lon="-4.28788">
        <ele>71.6</ele>
        <time>2000-01-01T03:51:44.000Z</time>
      </trkpt>
      <trkpt lat="48.25908" lon="-4.2875">
        <ele>72</ele>
        <time>2000-01-01T03:51:54.000Z</time>
      </trkpt>
      <trkpt lat="48.25882" lon="-4.28757">
        <ele>72</ele>
        <time>2000-01-01T03:52:04.000Z</time>
      </trkpt>
      <trkpt lat="48.25844" lon="-4.28767">
        <ele>69</ele>
        <time>2000-01-01T03:52:14.000Z</time>
      </trkpt>
      <trkpt lat="48.25826" lon="-4.28764">
        <ele>69</ele>
        <time>2000-01-01T03:52:24.000Z</time>
      </trkpt>
      <trkpt lat="48.25807" lon="-4.28737">
        <ele>63</ele>
        <time>2000-01-01T03:52:34.000Z</time>
      </trkpt>
      <trkpt lat="48.25781" lon="-4.28701">
        <ele>58</ele>
        <time>2000-01-01T03:52:44.000Z</time>
      </trkpt>
      <trkpt lat="48.2577" lon="-4.28668">
        <ele>56</ele>
        <time>2000-01-01T03:52:54.000Z</time>
      </trkpt>
      <trkpt lat="48.25757" lon="-4.28629">
        <ele>50</ele>
        <time>2000-01-01T03:53:04.000Z</time>
      </trkpt>
      <trkpt lat="48.25743" lon="-4.28589">
        <ele>50</ele>
        <time>2000-01-01T03:53:14.000Z</time>
      </trkpt>
      <trkpt lat="48.25722" lon="-4.28556">
        <ele>47</ele>
        <time>2000-01-01T03:53:24.000Z</time>
      </trkpt>
      <trkpt lat="48.25703" lon="-4.28527">
        <ele>47</ele>
        <time>2000-01-01T03:53:34.000Z</time>
      </trkpt>
      <trkpt lat="48.25673" lon="-4.28483">
        <ele>48</ele>
        <time>2000-01-01T03:53:44.000Z</time>
      </trkpt>
      <trkpt lat="48.25636" lon="-4.28513">
        <ele>47</ele>
        <time>2000-01-01T03:53:54.000Z</time>
      </trkpt>
      <trkpt lat="48.25601" lon="-4.28549">
        <ele>50</ele>
        <time>2000-01-01T03:54:04.000Z</time>
      </trkpt>
      <trkpt lat="48.25592" lon="-4.28561">
        <ele>38</ele>
        <time>2000-01-01T03:54:14.000Z</time>
      </trkpt>
      <trkpt lat="48.25531" lon="-4.2869">
        <ele>54</ele>
        <time>2000-01-01T03:54:24.000Z</time>
      </trkpt>
      <trkpt lat="48.25518" lon="-4.28725">
        <ele>55</ele>
        <time>2000-01-01T03:54:34.000Z</time>
      </trkpt>
      <trkpt lat="48.25498" lon="-4.28777">
        <ele>55</ele>
        <time>2000-01-01T03:54:44.000Z</time>
      </trkpt>
      <trkpt lat="48.2549" lon="-4.28803">
        <ele>53</ele>
        <time>2000-01-01T03:54:54.000Z</time>
      </trkpt>
      <trkpt lat="48.25488" lon="-4.28819">
        <ele>47.6</ele>
        <time>2000-01-01T03:55:04.000Z</time>
      </trkpt>
      <trkpt lat="48.25484" lon="-4.28876">
        <ele>52</ele>
        <time>2000-01-01T03:55:14.000Z</time>
      </trkpt>
      <trkpt lat="48.25478" lon="-4.28886">
        <ele>48.5</ele>
        <time>2000-01-01T03:55:24.000Z</time>
      </trkpt>
      <trkpt lat="48.25474" lon="-4.28887">
        <ele>48.1</ele>
        <time>2000-01-01T03:55:34.000Z</time>
      </trkpt>
      <trkpt lat="48.2546" lon="-4.28875">
        <ele>52</ele>
        <time>2000-01-01T03:55:44.000Z</time>
      </trkpt>
      <trkpt lat="48.25431" lon="-4.28844">
        <ele>38</ele>
        <time>2000-01-01T03:55:54.000Z</time>
      </trkpt>
      <trkpt lat="48.25403" lon="-4.28812">
        <ele>37</ele>
        <time>2000-01-01T03:56:04.000Z</time>
      </trkpt>
      <trkpt lat="48.25382" lon="-4.28789">
        <ele>34</ele>
        <time>2000-01-01T03:56:14.000Z</time>
      </trkpt>
      <trkpt lat="48.25353" lon="-4.28758">
        <ele>30</ele>
        <time>2000-01-01T03:56:24.000Z</time>
      </trkpt>
      <trkpt lat="48.25334" lon="-4.28739">
        <ele>29</ele>
        <time>2000-01-01T03:56:34.000Z</time>
      </trkpt>
      <trkpt lat="48.25315" lon="-4.28719">
        <ele>30</ele>
        <time>2000-01-01T03:56:44.000Z</time>
      </trkpt>
      <trkpt lat="48.25289" lon="-4.28713">
        <ele>31</ele>
        <time>2000-01-01T03:56:54.000Z</time>
      </trkpt>
      <trkpt lat="48.25252" lon="-4.28704">
        <ele>37</ele>
        <time>2000-01-01T03:57:04.000Z</time>
      </trkpt>
      <trkpt lat="48.25225" lon="-4.28699">
        <ele>36</ele>
        <time>2000-01-01T03:57:14.000Z</time>
      </trkpt>
      <trkpt lat="48.25181" lon="-4.2869">
        <ele>36</ele>
        <time>2000-01-01T03:57:24.000Z</time>
      </trkpt>
      <trkpt lat="48.25192" lon="-4.28641">
        <ele>37</ele>
        <time>2000-01-01T03:57:34.000Z</time>
      </trkpt>
      <trkpt lat="48.25204" lon="-4.28591">
        <ele>37</ele>
        <time>2000-01-01T03:57:44.000Z</time>
      </trkpt>
      <trkpt lat="48.25212" lon="-4.28554">
        <ele>37</ele>
        <time>2000-01-01T03:57:54.000Z</time>
      </trkpt>
      <trkpt lat="48.25223" lon="-4.28505">
        <ele>33</ele>
        <time>2000-01-01T03:58:04.000Z</time>
      </trkpt>
      <trkpt lat="48.25232" lon="-4.28468">
        <ele>30</ele>
        <time>2000-01-01T03:58:14.000Z</time>
      </trkpt>
      <trkpt lat="48.25245" lon="-4.28417">
        <ele>30</ele>
        <time>2000-01-01T03:58:24.000Z</time>
      </trkpt>
      <trkpt lat="48.25255" lon="-4.28373">
        <ele>30</ele>
        <time>2000-01-01T03:58:34.000Z</time>
      </trkpt>
      <trkpt lat="48.25268" lon="-4.28321">
        <ele>29</ele>
        <time>2000-01-01T03:58:44.000Z</time>
      </trkpt>
      <trkpt lat="48.25276" lon="-4.2827">
        <ele>29</ele>
        <time>2000-01-01T03:58:54.000Z</time>
      </trkpt>
      <trkpt lat="48.25283" lon="-4.28219">
        <ele>30</ele>
        <time>2000-01-01T03:59:04.000Z</time>
      </trkpt>
      <trkpt lat="48.25289" lon="-4.28182">
        <ele>30</ele>
        <time>2000-01-01T03:59:14.000Z</time>
      </trkpt>
      <trkpt lat="48.25297" lon="-4.28134">
        <ele>28</ele>
        <time>2000-01-01T03:59:24.000Z</time>
      </trkpt>
      <trkpt lat="48.25303" lon="-4.28094">
        <ele>29</ele>
        <time>2000-01-01T03:59:34.000Z</time>
      </trkpt>
      <trkpt lat="48.25307" lon="-4.28085">
        <ele>29.9</ele>
        <time>2000-01-01T03:59:44.000Z</time>
      </trkpt>
      <trkpt lat="48.25343" lon="-4.28044">
        <ele>31</ele>
        <time>2000-01-01T03:59:54.000Z</time>
      </trkpt>
      <trkpt lat="48.25347" lon="-4.28031">
        <ele>28.5</ele>
        <time>2000-01-01T04:00:04.000Z</time>
      </trkpt>
      <trkpt lat="48.25362" lon="-4.28023">
        <ele>31</ele>
        <time>2000-01-01T04:00:14.000Z</time>
      </trkpt>
      <trkpt lat="48.25377" lon="-4.27997">
        <ele>31</ele>
        <time>2000-01-01T04:00:24.000Z</time>
      </trkpt>
      <trkpt lat="48.25402" lon="-4.27945">
        <ele>30</ele>
        <time>2000-01-01T04:00:34.000Z</time>
      </trkpt>
      <trkpt lat="48.2538" lon="-4.27933">
        <ele>30</ele>
        <time>2000-01-01T04:00:44.000Z</time>
      </trkpt>
      <trkpt lat="48.25357" lon="-4.27921">
        <ele>29</ele>
        <time>2000-01-01T04:00:54.000Z</time>
      </trkpt>
      <trkpt lat="48.25376" lon="-4.27887">
        <ele>29</ele>
        <time>2000-01-01T04:01:04.000Z</time>
      </trkpt>
      <trkpt lat="48.25411" lon="-4.27821">
        <ele>30</ele>
        <time>2000-01-01T04:01:14.000Z</time>
      </trkpt>
      <trkpt lat="48.25426" lon="-4.27795">
        <ele>28</ele>
        <time>2000-01-01T04:01:24.000Z</time>
      </trkpt>
      <trkpt lat="48.25441" lon="-4.27761">
        <ele>28</ele>
        <time>2000-01-01T04:01:34.000Z</time>
      </trkpt>
      <trkpt lat="48.25465" lon="-4.27709">
        <ele>28</ele>
        <time>2000-01-01T04:01:44.000Z</time>
      </trkpt>
      <trkpt lat="48.25485" lon="-4.27684">
        <ele>32</ele>
        <time>2000-01-01T04:01:54.000Z</time>
      </trkpt>
      <trkpt lat="48.25514" lon="-4.2765">
        <ele>32</ele>
        <time>2000-01-01T04:02:04.000Z</time>
      </trkpt>
      <trkpt lat="48.25532" lon="-4.27623">
        <ele>32</ele>
        <time>2000-01-01T04:02:14.000Z</time>
      </trkpt>
      <trkpt lat="48.25555" lon="-4.27589">
        <ele>27</ele>
        <time>2000-01-01T04:02:24.000Z</time>
      </trkpt>
      <trkpt lat="48.25572" lon="-4.27539">
        <ele>24</ele>
        <time>2000-01-01T04:02:34.000Z</time>
      </trkpt>
      <trkpt lat="48.25579" lon="-4.2751">
        <ele>25</ele>
        <time>2000-01-01T04:02:44.000Z</time>
      </trkpt>
      <trkpt lat="48.25595" lon="-4.27452">
        <ele>27</ele>
        <time>2000-01-01T04:02:54.000Z</time>
      </trkpt>
      <trkpt lat="48.25614" lon="-4.27416">
        <ele>29</ele>
        <time>2000-01-01T04:03:04.000Z</time>
      </trkpt>
      <trkpt lat="48.25631" lon="-4.27385">
        <ele>29</ele>
        <time>2000-01-01T04:03:14.000Z</time>
      </trkpt>
      <trkpt lat="48.25658" lon="-4.27336">
        <ele>25</ele>
        <time>2000-01-01T04:03:24.000Z</time>
      </trkpt>
      <trkpt lat="48.25675" lon="-4.27295">
        <ele>22</ele>
        <time>2000-01-01T04:03:34.000Z</time>
      </trkpt>
      <trkpt lat="48.25692" lon="-4.27254">
        <ele>17</ele>
        <time>2000-01-01T04:03:44.000Z</time>
      </trkpt>
      <trkpt lat="48.25717" lon="-4.27193">
        <ele>17</ele>
        <time>2000-01-01T04:03:54.000Z</time>
      </trkpt>
      <trkpt lat="48.25739" lon="-4.27208">
        <ele>17</ele>
        <time>2000-01-01T04:04:04.000Z</time>
      </trkpt>
      <trkpt lat="48.25767" lon="-4.27226">
        <ele>17</ele>
        <time>2000-01-01T04:04:14.000Z</time>
      </trkpt>
      <trkpt lat="48.25789" lon="-4.27249">
        <ele>22</ele>
        <time>2000-01-01T04:04:24.000Z</time>
      </trkpt>
      <trkpt lat="48.25808" lon="-4.27276">
        <ele>22</ele>
        <time>2000-01-01T04:04:34.000Z</time>
      </trkpt>
      <trkpt lat="48.25834" lon="-4.27313">
        <ele>22</ele>
        <time>2000-01-01T04:04:44.000Z</time>
      </trkpt>
      <trkpt lat="48.25854" lon="-4.27336">
        <ele>17</ele>
        <time>2000-01-01T04:04:54.000Z</time>
      </trkpt>
      <trkpt lat="48.25878" lon="-4.27365">
        <ele>17</ele>
        <time>2000-01-01T04:05:04.000Z</time>
      </trkpt>
      <trkpt lat="48.25897" lon="-4.27383">
        <ele>19</ele>
        <time>2000-01-01T04:05:14.000Z</time>
      </trkpt>
      <trkpt lat="48.25911" lon="-4.27359">
        <ele>19</ele>
        <time>2000-01-01T04:05:24.000Z</time>
      </trkpt>
      <trkpt lat="48.25926" lon="-4.27323">
        <ele>20</ele>
        <time>2000-01-01T04:05:34.000Z</time>
      </trkpt>
      <trkpt lat="48.25951" lon="-4.27262">
        <ele>20</ele>
        <time>2000-01-01T04:05:44.000Z</time>
      </trkpt>
      <trkpt lat="48.25962" lon="-4.2723">
        <ele>19</ele>
        <time>2000-01-01T04:05:54.000Z</time>
      </trkpt>
      <trkpt lat="48.25975" lon="-4.27192">
        <ele>19</ele>
        <time>2000-01-01T04:06:04.000Z</time>
      </trkpt>
      <trkpt lat="48.25986" lon="-4.27156">
        <ele>22</ele>
        <time>2000-01-01T04:06:14.000Z</time>
      </trkpt>
      <trkpt lat="48.25999" lon="-4.27116">
        <ele>22</ele>
        <time>2000-01-01T04:06:24.000Z</time>
      </trkpt>
      <trkpt lat="48.26013" lon="-4.27061">
        <ele>23</ele>
        <time>2000-01-01T04:06:34.000Z</time>
      </trkpt>
      <trkpt lat="48.26026" lon="-4.27008">
        <ele>23</ele>
        <time>2000-01-01T04:06:44.000Z</time>
      </trkpt>
      <trkpt lat="48.26038" lon="-4.26955">
        <ele>23</ele>
        <time>2000-01-01T04:06:54.000Z</time>
      </trkpt>
      <trkpt lat="48.26051" lon="-4.26902">
        <ele>25</ele>
        <time>2000-01-01T04:07:04.000Z</time>
      </trkpt>
      <trkpt lat="48.26064" lon="-4.26848">
        <ele>24</ele>
        <time>2000-01-01T04:07:14.000Z</time>
      </trkpt>
      <trkpt lat="48.26077" lon="-4.26795">
        <ele>24</ele>
        <time>2000-01-01T04:07:24.000Z</time>
      </trkpt>
      <trkpt lat="48.26092" lon="-4.26731">
        <ele>25</ele>
        <time>2000-01-01T04:07:34.000Z</time>
      </trkpt>
      <trkpt lat="48.26102" lon="-4.26686">
        <ele>27</ele>
        <time>2000-01-01T04:07:44.000Z</time>
      </trkpt>
      <trkpt lat="48.2611" lon="-4.26646">
        <ele>25</ele>
        <time>2000-01-01T04:07:54.000Z</time>
      </trkpt>
      <trkpt lat="48.26124" lon="-4.26579">
        <ele>25</ele>
        <time>2000-01-01T04:08:04.000Z</time>
      </trkpt>
      <trkpt lat="48.26132" lon="-4.26568">
        <ele>26.6</ele>
        <time>2000-01-01T04:08:14.000Z</time>
      </trkpt>
      <trkpt lat="48.26139" lon="-4.26565">
        <ele>26</ele>
        <time>2000-01-01T04:08:24.000Z</time>
      </trkpt>
      <trkpt lat="48.26148" lon="-4.26568">
        <ele>29</ele>
        <time>2000-01-01T04:08:34.000Z</time>
      </trkpt>
      <trkpt lat="48.26154" lon="-4.26577">
        <ele>29.6</ele>
        <time>2000-01-01T04:08:44.000Z</time>
      </trkpt>
      <trkpt lat="48.26162" lon="-4.2654">
        <ele>30</ele>
        <time>2000-01-01T04:08:54.000Z</time>
      </trkpt>
      <trkpt lat="48.26171" lon="-4.2649">
        <ele>30</ele>
        <time>2000-01-01T04:09:04.000Z</time>
      </trkpt>
      <trkpt lat="48.26177" lon="-4.26452">
        <ele>31</ele>
        <time>2000-01-01T04:09:14.000Z</time>
      </trkpt>
      <trkpt lat="48.26185" lon="-4.26402">
        <ele>33</ele>
        <time>2000-01-01T04:09:24.000Z</time>
      </trkpt>
      <trkpt lat="48.26189" lon="-4.26363">
        <ele>33</ele>
        <time>2000-01-01T04:09:34.000Z</time>
      </trkpt>
      <trkpt lat="48.26195" lon="-4.26307">
        <ele>35</ele>
        <time>2000-01-01T04:09:44.000Z</time>
      </trkpt>
      <trkpt lat="48.26198" lon="-4.26274">
        <ele>36</ele>
        <time>2000-01-01T04:09:54.000Z</time>
      </trkpt>
      <trkpt lat="48.26202" lon="-4.26241">
        <ele>37</ele>
        <time>2000-01-01T04:10:04.000Z</time>
      </trkpt>
      <trkpt lat="48.2621" lon="-4.26205">
        <ele>38</ele>
        <time>2000-01-01T04:10:14.000Z</time>
      </trkpt>
      <trkpt lat="48.26225" lon="-4.26155">
        <ele>38</ele>
        <time>2000-01-01T04:10:24.000Z</time>
      </trkpt>
      <trkpt lat="48.26244" lon="-4.26107">
        <ele>38</ele>
        <time>2000-01-01T04:10:34.000Z</time>
      </trkpt>
      <trkpt lat="48.2626" lon="-4.26079">
        <ele>39</ele>
        <time>2000-01-01T04:10:44.000Z</time>
      </trkpt>
      <trkpt lat="48.26278" lon="-4.26046">
        <ele>37</ele>
        <time>2000-01-01T04:10:54.000Z</time>
      </trkpt>
      <trkpt lat="48.26295" lon="-4.26018">
        <ele>38</ele>
        <time>2000-01-01T04:11:04.000Z</time>
      </trkpt>
      <trkpt lat="48.26316" lon="-4.25981">
        <ele>35</ele>
        <time>2000-01-01T04:11:14.000Z</time>
      </trkpt>
      <trkpt lat="48.26331" lon="-4.25954">
        <ele>33</ele>
        <time>2000-01-01T04:11:24.000Z</time>
      </trkpt>
      <trkpt lat="48.26349" lon="-4.25925">
        <ele>27</ele>
        <time>2000-01-01T04:11:34.000Z</time>
      </trkpt>
      <trkpt lat="48.26353" lon="-4.25894">
        <ele>26</ele>
        <time>2000-01-01T04:11:44.000Z</time>
      </trkpt>
      <trkpt lat="48.26347" lon="-4.25842">
        <ele>17</ele>
        <time>2000-01-01T04:11:54.000Z</time>
      </trkpt>
      <trkpt lat="48.26347" lon="-4.25813">
        <ele>20</ele>
        <time>2000-01-01T04:12:04.000Z</time>
      </trkpt>
      <trkpt lat="48.26352" lon="-4.25767">
        <ele>20</ele>
        <time>2000-01-01T04:12:14.000Z</time>
      </trkpt>
      <trkpt lat="48.26359" lon="-4.25746">
        <ele>22.7</ele>
        <time>2000-01-01T04:12:24.000Z</time>
      </trkpt>
      <trkpt lat="48.26366" lon="-4.25738">
        <ele>21</ele>
        <time>2000-01-01T04:12:34.000Z</time>
      </trkpt>
      <trkpt lat="48.26385" lon="-4.25738">
        <ele>24</ele>
        <time>2000-01-01T04:12:44.000Z</time>
      </trkpt>
      <trkpt lat="48.26411" lon="-4.25741">
        <ele>23</ele>
        <time>2000-01-01T04:12:54.000Z</time>
      </trkpt>
      <trkpt lat="48.26446" lon="-4.25745">
        <ele>23</ele>
        <time>2000-01-01T04:13:04.000Z</time>
      </trkpt>
      <trkpt lat="48.26477" lon="-4.25756">
        <ele>18</ele>
        <time>2000-01-01T04:13:14.000Z</time>
      </trkpt>
      <trkpt lat="48.26497" lon="-4.25782">
        <ele>19</ele>
        <time>2000-01-01T04:13:24.000Z</time>
      </trkpt>
      <trkpt lat="48.26506" lon="-4.25799">
        <ele>4.1</ele>
        <time>2000-01-01T04:13:34.000Z</time>
      </trkpt>
      <trkpt lat="48.26513" lon="-4.25835">
        <ele>19</ele>
        <time>2000-01-01T04:13:44.000Z</time>
      </trkpt>
      <trkpt lat="48.26524" lon="-4.25869">
        <ele>18</ele>
        <time>2000-01-01T04:13:54.000Z</time>
      </trkpt>
      <trkpt lat="48.26551" lon="-4.25921">
        <ele>18</ele>
        <time>2000-01-01T04:14:04.000Z</time>
      </trkpt>
      <trkpt lat="48.26569" lon="-4.25939">
        <ele>17</ele>
        <time>2000-01-01T04:14:14.000Z</time>
      </trkpt>
      <trkpt lat="48.26583" lon="-4.25949">
        <ele>7.7</ele>
        <time>2000-01-01T04:14:24.000Z</time>
      </trkpt>
      <trkpt lat="48.26605" lon="-4.25962">
        <ele>19</ele>
        <time>2000-01-01T04:14:34.000Z</time>
      </trkpt>
      <trkpt lat="48.26625" lon="-4.25983">
        <ele>17</ele>
        <time>2000-01-01T04:14:44.000Z</time>
      </trkpt>
      <trkpt lat="48.26647" lon="-4.26006">
        <ele>17</ele>
        <time>2000-01-01T04:14:54.000Z</time>
      </trkpt>
      <trkpt lat="48.26663" lon="-4.26034">
        <ele>18</ele>
        <time>2000-01-01T04:15:04.000Z</time>
      </trkpt>
      <trkpt lat="48.26674" lon="-4.26075">
        <ele>19</ele>
        <time>2000-01-01T04:15:14.000Z</time>
      </trkpt>
      <trkpt lat="48.2668" lon="-4.26113">
        <ele>23</ele>
        <time>2000-01-01T04:15:24.000Z</time>
      </trkpt>
      <trkpt lat="48.26685" lon="-4.26128">
        <ele>12.3</ele>
        <time>2000-01-01T04:15:34.000Z</time>
      </trkpt>
      <trkpt lat="48.26701" lon="-4.26161">
        <ele>25</ele>
        <time>2000-01-01T04:15:44.000Z</time>
      </trkpt>
      <trkpt lat="48.26711" lon="-4.26203">
        <ele>25</ele>
        <time>2000-01-01T04:15:54.000Z</time>
      </trkpt>
      <trkpt lat="48.26718" lon="-4.26239">
        <ele>26</ele>
        <time>2000-01-01T04:16:04.000Z</time>
      </trkpt>
      <trkpt lat="48.26729" lon="-4.26285">
        <ele>26</ele>
        <time>2000-01-01T04:16:14.000Z</time>
      </trkpt>
      <trkpt lat="48.26739" lon="-4.26323">
        <ele>29</ele>
        <time>2000-01-01T04:16:24.000Z</time>
      </trkpt>
      <trkpt lat="48.26756" lon="-4.26385">
        <ele>32</ele>
        <time>2000-01-01T04:16:34.000Z</time>
      </trkpt>
      <trkpt lat="48.26764" lon="-4.26417">
        <ele>30</ele>
        <time>2000-01-01T04:16:44.000Z</time>
      </trkpt>
      <trkpt lat="48.26772" lon="-4.2645">
        <ele>28</ele>
        <time>2000-01-01T04:16:54.000Z</time>
      </trkpt>
      <trkpt lat="48.26779" lon="-4.26491">
        <ele>28</ele>
        <time>2000-01-01T04:17:04.000Z</time>
      </trkpt>
      <trkpt lat="48.26781" lon="-4.26524">
        <ele>29</ele>
        <time>2000-01-01T04:17:14.000Z</time>
      </trkpt>
      <trkpt lat="48.26788" lon="-4.26563">
        <ele>29</ele>
        <time>2000-01-01T04:17:24.000Z</time>
      </trkpt>
      <trkpt lat="48.26801" lon="-4.2661">
        <ele>29</ele>
        <time>2000-01-01T04:17:34.000Z</time>
      </trkpt>
      <trkpt lat="48.26808" lon="-4.26643">
        <ele>31</ele>
        <time>2000-01-01T04:17:44.000Z</time>
      </trkpt>
      <trkpt lat="48.26814" lon="-4.26676">
        <ele>28</ele>
        <time>2000-01-01T04:17:54.000Z</time>
      </trkpt>
      <trkpt lat="48.26837" lon="-4.26705">
        <ele>28</ele>
        <time>2000-01-01T04:18:04.000Z</time>
      </trkpt>
      <trkpt lat="48.26848" lon="-4.26764">
        <ele>27</ele>
        <time>2000-01-01T04:18:14.000Z</time>
      </trkpt>
      <trkpt lat="48.2685" lon="-4.26816">
        <ele>29</ele>
        <time>2000-01-01T04:18:24.000Z</time>
      </trkpt>
      <trkpt lat="48.26847" lon="-4.26875">
        <ele>28</ele>
        <time>2000-01-01T04:18:34.000Z</time>
      </trkpt>
      <trkpt lat="48.2685" lon="-4.26887">
        <ele>19.8</ele>
        <time>2000-01-01T04:18:44.000Z</time>
      </trkpt>
      <trkpt lat="48.26861" lon="-4.26899">
        <ele>27</ele>
        <time>2000-01-01T04:18:54.000Z</time>
      </trkpt>
      <trkpt lat="48.26883" lon="-4.26912">
        <ele>23</ele>
        <time>2000-01-01T04:19:04.000Z</time>
      </trkpt>
      <trkpt lat="48.26908" lon="-4.26928">
        <ele>23</ele>
        <time>2000-01-01T04:19:14.000Z</time>
      </trkpt>
      <trkpt lat="48.26922" lon="-4.26954">
        <ele>28</ele>
        <time>2000-01-01T04:19:24.000Z</time>
      </trkpt>
      <trkpt lat="48.26923" lon="-4.26981">
        <ele>32</ele>
        <time>2000-01-01T04:19:34.000Z</time>
      </trkpt>
      <trkpt lat="48.2692" lon="-4.27004">
        <ele>23.5</ele>
        <time>2000-01-01T04:19:44.000Z</time>
      </trkpt>
      <trkpt lat="48.26925" lon="-4.27014">
        <ele>31</ele>
        <time>2000-01-01T04:19:54.000Z</time>
      </trkpt>
      <trkpt lat="48.26948" lon="-4.27017">
        <ele>31</ele>
        <time>2000-01-01T04:20:04.000Z</time>
      </trkpt>
      <trkpt lat="48.26971" lon="-4.27042">
        <ele>34</ele>
        <time>2000-01-01T04:20:14.000Z</time>
      </trkpt>
      <trkpt lat="48.26986" lon="-4.27075">
        <ele>38</ele>
        <time>2000-01-01T04:20:24.000Z</time>
      </trkpt>
      <trkpt lat="48.27009" lon="-4.27122">
        <ele>32</ele>
        <time>2000-01-01T04:20:34.000Z</time>
      </trkpt>
      <trkpt lat="48.27024" lon="-4.2714">
        <ele>34</ele>
        <time>2000-01-01T04:20:44.000Z</time>
      </trkpt>
      <trkpt lat="48.27042" lon="-4.27154">
        <ele>33</ele>
        <time>2000-01-01T04:20:54.000Z</time>
      </trkpt>
      <trkpt lat="48.27063" lon="-4.27188">
        <ele>32</ele>
        <time>2000-01-01T04:21:04.000Z</time>
      </trkpt>
      <trkpt lat="48.27075" lon="-4.27228">
        <ele>32</ele>
        <time>2000-01-01T04:21:14.000Z</time>
      </trkpt>
      <trkpt lat="48.27073" lon="-4.27245">
        <ele>20.3</ele>
        <time>2000-01-01T04:21:24.000Z</time>
      </trkpt>
      <trkpt lat="48.27109" lon="-4.27341">
        <ele>32</ele>
        <time>2000-01-01T04:21:34.000Z</time>
      </trkpt>
      <trkpt lat="48.2712" lon="-4.27384">
        <ele>34</ele>
        <time>2000-01-01T04:21:44.000Z</time>
      </trkpt>
      <trkpt lat="48.27129" lon="-4.27422">
        <ele>34</ele>
        <time>2000-01-01T04:21:54.000Z</time>
      </trkpt>
      <trkpt lat="48.27142" lon="-4.27476">
        <ele>31</ele>
        <time>2000-01-01T04:22:04.000Z</time>
      </trkpt>
      <trkpt lat="48.27149" lon="-4.27486">
        <ele>16.9</ele>
        <time>2000-01-01T04:22:14.000Z</time>
      </trkpt>
      <trkpt lat="48.27158" lon="-4.2753">
        <ele>28</ele>
        <time>2000-01-01T04:22:24.000Z</time>
      </trkpt>
      <trkpt lat="48.27167" lon="-4.27591">
        <ele>28</ele>
        <time>2000-01-01T04:22:34.000Z</time>
      </trkpt>
      <trkpt lat="48.2717" lon="-4.27644">
        <ele>28</ele>
        <time>2000-01-01T04:22:44.000Z</time>
      </trkpt>
      <trkpt lat="48.27168" lon="-4.27691">
        <ele>28</ele>
        <time>2000-01-01T04:22:54.000Z</time>
      </trkpt>
      <trkpt lat="48.27167" lon="-4.27733">
        <ele>29</ele>
        <time>2000-01-01T04:23:04.000Z</time>
      </trkpt>
      <trkpt lat="48.27166" lon="-4.27799">
        <ele>29</ele>
        <time>2000-01-01T04:23:14.000Z</time>
      </trkpt>
      <trkpt lat="48.27161" lon="-4.27839">
        <ele>29</ele>
        <time>2000-01-01T04:23:24.000Z</time>
      </trkpt>
      <trkpt lat="48.27152" lon="-4.27873">
        <ele>29</ele>
        <time>2000-01-01T04:23:34.000Z</time>
      </trkpt>
      <trkpt lat="48.27142" lon="-4.27914">
        <ele>33</ele>
        <time>2000-01-01T04:23:44.000Z</time>
      </trkpt>
      <trkpt lat="48.27142" lon="-4.27946">
        <ele>35</ele>
        <time>2000-01-01T04:23:54.000Z</time>
      </trkpt>
      <trkpt lat="48.27151" lon="-4.27985">
        <ele>36</ele>
        <time>2000-01-01T04:24:04.000Z</time>
      </trkpt>
      <trkpt lat="48.27166" lon="-4.28047">
        <ele>38</ele>
        <time>2000-01-01T04:24:14.000Z</time>
      </trkpt>
      <trkpt lat="48.27171" lon="-4.2807">
        <ele>35.2</ele>
        <time>2000-01-01T04:24:24.000Z</time>
      </trkpt>
      <trkpt lat="48.27186" lon="-4.28074">
        <ele>37</ele>
        <time>2000-01-01T04:24:34.000Z</time>
      </trkpt>
      <trkpt lat="48.27206" lon="-4.28036">
        <ele>36</ele>
        <time>2000-01-01T04:24:44.000Z</time>
      </trkpt>
      <trkpt lat="48.27227" lon="-4.27998">
        <ele>36</ele>
        <time>2000-01-01T04:24:54.000Z</time>
      </trkpt>
      <trkpt lat="48.27242" lon="-4.27969">
        <ele>36</ele>
        <time>2000-01-01T04:25:04.000Z</time>
      </trkpt>
      <trkpt lat="48.2726" lon="-4.27935">
        <ele>34</ele>
        <time>2000-01-01T04:25:14.000Z</time>
      </trkpt>
      <trkpt lat="48.27285" lon="-4.27892">
        <ele>32</ele>
        <time>2000-01-01T04:25:24.000Z</time>
      </trkpt>
      <trkpt lat="48.27305" lon="-4.27881">
        <ele>31</ele>
        <time>2000-01-01T04:25:34.000Z</time>
      </trkpt>
      <trkpt lat="48.27329" lon="-4.27884">
        <ele>30</ele>
        <time>2000-01-01T04:25:44.000Z</time>
      </trkpt>
      <trkpt lat="48.27342" lon="-4.27896">
        <ele>21.4</ele>
        <time>2000-01-01T04:25:54.000Z</time>
      </trkpt>
      <trkpt lat="48.2736" lon="-4.27906">
        <ele>30</ele>
        <time>2000-01-01T04:26:04.000Z</time>
      </trkpt>
      <trkpt lat="48.2738" lon="-4.27923">
        <ele>30</ele>
        <time>2000-01-01T04:26:14.000Z</time>
      </trkpt>
      <trkpt lat="48.27397" lon="-4.27949">
        <ele>31</ele>
        <time>2000-01-01T04:26:24.000Z</time>
      </trkpt>
      <trkpt lat="48.2741" lon="-4.2798">
        <ele>36</ele>
        <time>2000-01-01T04:26:34.000Z</time>
      </trkpt>
      <trkpt lat="48.27425" lon="-4.28017">
        <ele>28</ele>
        <time>2000-01-01T04:26:44.000Z</time>
      </trkpt>
      <trkpt lat="48.27435" lon="-4.28034">
        <ele>22.8</ele>
        <time>2000-01-01T04:26:54.000Z</time>
      </trkpt>
      <trkpt lat="48.27463" lon="-4.28068">
        <ele>28</ele>
        <time>2000-01-01T04:27:04.000Z</time>
      </trkpt>
      <trkpt lat="48.27475" lon="-4.28093">
        <ele>28</ele>
        <time>2000-01-01T04:27:14.000Z</time>
      </trkpt>
      <trkpt lat="48.27483" lon="-4.28126">
        <ele>23</ele>
        <time>2000-01-01T04:27:24.000Z</time>
      </trkpt>
      <trkpt lat="48.27494" lon="-4.28191">
        <ele>24</ele>
        <time>2000-01-01T04:27:34.000Z</time>
      </trkpt>
      <trkpt lat="48.27489" lon="-4.28248">
        <ele>22</ele>
        <time>2000-01-01T04:27:44.000Z</time>
      </trkpt>
      <trkpt lat="48.27473" lon="-4.28296">
        <ele>26</ele>
        <time>2000-01-01T04:27:54.000Z</time>
      </trkpt>
      <trkpt lat="48.27456" lon="-4.28323">
        <ele>31</ele>
        <time>2000-01-01T04:28:04.000Z</time>
      </trkpt>
      <trkpt lat="48.27432" lon="-4.28376">
        <ele>32</ele>
        <time>2000-01-01T04:28:14.000Z</time>
      </trkpt>
      <trkpt lat="48.27424" lon="-4.2841">
        <ele>33</ele>
        <time>2000-01-01T04:28:24.000Z</time>
      </trkpt>
      <trkpt lat="48.27414" lon="-4.2845">
        <ele>33</ele>
        <time>2000-01-01T04:28:34.000Z</time>
      </trkpt>
      <trkpt lat="48.27404" lon="-4.28489">
        <ele>33</ele>
        <time>2000-01-01T04:28:44.000Z</time>
      </trkpt>
      <trkpt lat="48.274" lon="-4.28524">
        <ele>31</ele>
        <time>2000-01-01T04:28:54.000Z</time>
      </trkpt>
      <trkpt lat="48.27384" lon="-4.28556">
        <ele>27</ele>
        <time>2000-01-01T04:29:04.000Z</time>
      </trkpt>
      <trkpt lat="48.2736" lon="-4.28605">
        <ele>24</ele>
        <time>2000-01-01T04:29:14.000Z</time>
      </trkpt>
      <trkpt lat="48.27346" lon="-4.2863">
        <ele>22</ele>
        <time>2000-01-01T04:29:24.000Z</time>
      </trkpt>
      <trkpt lat="48.27339" lon="-4.2865">
        <ele>11.3</ele>
        <time>2000-01-01T04:29:34.000Z</time>
      </trkpt>
      <trkpt lat="48.27335" lon="-4.28667">
        <ele>21</ele>
        <time>2000-01-01T04:29:44.000Z</time>
      </trkpt>
      <trkpt lat="48.27322" lon="-4.28697">
        <ele>21</ele>
        <time>2000-01-01T04:29:54.000Z</time>
      </trkpt>
      <trkpt lat="48.27307" lon="-4.2873">
        <ele>26</ele>
        <time>2000-01-01T04:30:04.000Z</time>
      </trkpt>
      <trkpt lat="48.27302" lon="-4.28754">
        <ele>9.6</ele>
        <time>2000-01-01T04:30:14.000Z</time>
      </trkpt>
      <trkpt lat="48.27303" lon="-4.28767">
        <ele>26</ele>
        <time>2000-01-01T04:30:24.000Z</time>
      </trkpt>
      <trkpt lat="48.2731" lon="-4.2881">
        <ele>19</ele>
        <time>2000-01-01T04:30:34.000Z</time>
      </trkpt>
      <trkpt lat="48.27323" lon="-4.2889">
        <ele>10</ele>
        <time>2000-01-01T04:30:44.000Z</time>
      </trkpt>
      <trkpt lat="48.27327" lon="-4.28902">
        <ele>5.3</ele>
        <time>2000-01-01T04:30:54.000Z</time>
      </trkpt>
      <trkpt lat="48.27332" lon="-4.28913">
        <ele>5</ele>
        <time>2000-01-01T04:31:04.000Z</time>
      </trkpt>
      <trkpt lat="48.27335" lon="-4.28927">
        <ele>10</ele>
        <time>2000-01-01T04:31:14.000Z</time>
      </trkpt>
      <trkpt lat="48.27339" lon="-4.28973">
        <ele>10</ele>
        <time>2000-01-01T04:31:24.000Z</time>
      </trkpt>
      <trkpt lat="48.27342" lon="-4.29019">
        <ele>10</ele>
        <time>2000-01-01T04:31:34.000Z</time>
      </trkpt>
      <trkpt lat="48.27347" lon="-4.29076">
        <ele>11</ele>
        <time>2000-01-01T04:31:44.000Z</time>
      </trkpt>
      <trkpt lat="48.27349" lon="-4.29113">
        <ele>10</ele>
        <time>2000-01-01T04:31:54.000Z</time>
      </trkpt>
      <trkpt lat="48.27351" lon="-4.29156">
        <ele>11</ele>
        <time>2000-01-01T04:32:04.000Z</time>
      </trkpt>
      <trkpt lat="48.27349" lon="-4.29212">
        <ele>12</ele>
        <time>2000-01-01T04:32:14.000Z</time>
      </trkpt>
      <trkpt lat="48.27344" lon="-4.2927">
        <ele>13</ele>
        <time>2000-01-01T04:32:24.000Z</time>
      </trkpt>
      <trkpt lat="48.27347" lon="-4.29281">
        <ele>6.6</ele>
        <time>2000-01-01T04:32:34.000Z</time>
      </trkpt>
      <trkpt lat="48.27357" lon="-4.29302">
        <ele>16</ele>
        <time>2000-01-01T04:32:44.000Z</time>
      </trkpt>
      <trkpt lat="48.27365" lon="-4.29328">
        <ele>16</ele>
        <time>2000-01-01T04:32:54.000Z</time>
      </trkpt>
      <trkpt lat="48.27377" lon="-4.29373">
        <ele>23</ele>
        <time>2000-01-01T04:33:04.000Z</time>
      </trkpt>
      <trkpt lat="48.27415" lon="-4.29349">
        <ele>29</ele>
        <time>2000-01-01T04:33:14.000Z</time>
      </trkpt>
      <trkpt lat="48.27418" lon="-4.2935">
        <ele>16.5</ele>
        <time>2000-01-01T04:33:24.000Z</time>
      </trkpt>
      <trkpt lat="48.27426" lon="-4.29365">
        <ele>21.8</ele>
        <time>2000-01-01T04:33:34.000Z</time>
      </trkpt>
      <trkpt lat="48.27435" lon="-4.29378">
        <ele>35</ele>
        <time>2000-01-01T04:33:44.000Z</time>
      </trkpt>
      <trkpt lat="48.27458" lon="-4.29374">
        <ele>42</ele>
        <time>2000-01-01T04:33:54.000Z</time>
      </trkpt>
      <trkpt lat="48.27484" lon="-4.2937">
        <ele>42</ele>
        <time>2000-01-01T04:34:04.000Z</time>
      </trkpt>
      <trkpt lat="48.27501" lon="-4.29363">
        <ele>39.1</ele>
        <time>2000-01-01T04:34:14.000Z</time>
      </trkpt>
      <trkpt lat="48.27517" lon="-4.29261">
        <ele>42</ele>
        <time>2000-01-01T04:34:24.000Z</time>
      </trkpt>
      <trkpt lat="48.27525" lon="-4.29228">
        <ele>44</ele>
        <time>2000-01-01T04:34:34.000Z</time>
      </trkpt>
      <trkpt lat="48.27532" lon="-4.29193">
        <ele>43</ele>
        <time>2000-01-01T04:34:44.000Z</time>
      </trkpt>
      <trkpt lat="48.27542" lon="-4.29155">
        <ele>43</ele>
        <time>2000-01-01T04:34:54.000Z</time>
      </trkpt>
      <trkpt lat="48.27557" lon="-4.29097">
        <ele>46</ele>
        <time>2000-01-01T04:35:04.000Z</time>
      </trkpt>
      <trkpt lat="48.27562" lon="-4.29051">
        <ele>46</ele>
        <time>2000-01-01T04:35:14.000Z</time>
      </trkpt>
      <trkpt lat="48.27567" lon="-4.29005">
        <ele>46</ele>
        <time>2000-01-01T04:35:24.000Z</time>
      </trkpt>
      <trkpt lat="48.27573" lon="-4.2895">
        <ele>42</ele>
        <time>2000-01-01T04:35:34.000Z</time>
      </trkpt>
      <trkpt lat="48.27583" lon="-4.28915">
        <ele>45</ele>
        <time>2000-01-01T04:35:44.000Z</time>
      </trkpt>
      <trkpt lat="48.27597" lon="-4.28867">
        <ele>49</ele>
        <time>2000-01-01T04:35:54.000Z</time>
      </trkpt>
      <trkpt lat="48.2761" lon="-4.28825">
        <ele>50</ele>
        <time>2000-01-01T04:36:04.000Z</time>
      </trkpt>
      <trkpt lat="48.27619" lon="-4.28787">
        <ele>45</ele>
        <time>2000-01-01T04:36:14.000Z</time>
      </trkpt>
      <trkpt lat="48.27634" lon="-4.28727">
        <ele>41</ele>
        <time>2000-01-01T04:36:24.000Z</time>
      </trkpt>
      <trkpt lat="48.27643" lon="-4.28692">
        <ele>39</ele>
        <time>2000-01-01T04:36:34.000Z</time>
      </trkpt>
      <trkpt lat="48.27654" lon="-4.28647">
        <ele>37</ele>
        <time>2000-01-01T04:36:44.000Z</time>
      </trkpt>
      <trkpt lat="48.27663" lon="-4.28613">
        <ele>36</ele>
        <time>2000-01-01T04:36:54.000Z</time>
      </trkpt>
      <trkpt lat="48.27683" lon="-4.28581">
        <ele>38</ele>
        <time>2000-01-01T04:37:04.000Z</time>
      </trkpt>
      <trkpt lat="48.27709" lon="-4.28569">
        <ele>40</ele>
        <time>2000-01-01T04:37:14.000Z</time>
      </trkpt>
      <trkpt lat="48.27733" lon="-4.28562">
        <ele>45</ele>
        <time>2000-01-01T04:37:24.000Z</time>
      </trkpt>
      <trkpt lat="48.27764" lon="-4.28554">
        <ele>51</ele>
        <time>2000-01-01T04:37:34.000Z</time>
      </trkpt>
      <trkpt lat="48.27784" lon="-4.28537">
        <ele>56</ele>
        <time>2000-01-01T04:37:44.000Z</time>
      </trkpt>
      <trkpt lat="48.27804" lon="-4.28519">
        <ele>61</ele>
        <time>2000-01-01T04:37:54.000Z</time>
      </trkpt>
      <trkpt lat="48.27816" lon="-4.28519">
        <ele>44</ele>
        <time>2000-01-01T04:38:04.000Z</time>
      </trkpt>
      <trkpt lat="48.27847" lon="-4.28543">
        <ele>56</ele>
        <time>2000-01-01T04:38:14.000Z</time>
      </trkpt>
      <trkpt lat="48.27871" lon="-4.28553">
        <ele>55</ele>
        <time>2000-01-01T04:38:24.000Z</time>
      </trkpt>
      <trkpt lat="48.27899" lon="-4.28566">
        <ele>54</ele>
        <time>2000-01-01T04:38:34.000Z</time>
      </trkpt>
      <trkpt lat="48.27932" lon="-4.286">
        <ele>52</ele>
        <time>2000-01-01T04:38:44.000Z</time>
      </trkpt>
      <trkpt lat="48.27954" lon="-4.28645">
        <ele>49</ele>
        <time>2000-01-01T04:38:54.000Z</time>
      </trkpt>
      <trkpt lat="48.27954" lon="-4.28683">
        <ele>49</ele>
        <time>2000-01-01T04:39:04.000Z</time>
      </trkpt>
      <trkpt lat="48.27947" lon="-4.28723">
        <ele>49</ele>
        <time>2000-01-01T04:39:14.000Z</time>
      </trkpt>
      <trkpt lat="48.27937" lon="-4.28785">
        <ele>48</ele>
        <time>2000-01-01T04:39:24.000Z</time>
      </trkpt>
      <trkpt lat="48.27939" lon="-4.28815">
        <ele>47</ele>
        <time>2000-01-01T04:39:34.000Z</time>
      </trkpt>
      <trkpt lat="48.27949" lon="-4.28837">
        <ele>32.9</ele>
        <time>2000-01-01T04:39:44.000Z</time>
      </trkpt>
      <trkpt lat="48.27978" lon="-4.28928">
        <ele>37</ele>
        <time>2000-01-01T04:39:54.000Z</time>
      </trkpt>
      <trkpt lat="48.27992" lon="-4.28967">
        <ele>39</ele>
        <time>2000-01-01T04:40:04.000Z</time>
      </trkpt>
      <trkpt lat="48.28004" lon="-4.28999">
        <ele>38</ele>
        <time>2000-01-01T04:40:14.000Z</time>
      </trkpt>
      <trkpt lat="48.28019" lon="-4.29039">
        <ele>37</ele>
        <time>2000-01-01T04:40:24.000Z</time>
      </trkpt>
      <trkpt lat="48.28038" lon="-4.29071">
        <ele>37</ele>
        <time>2000-01-01T04:40:34.000Z</time>
      </trkpt>
      <trkpt lat="48.28049" lon="-4.29101">
        <ele>38</ele>
        <time>2000-01-01T04:40:44.000Z</time>
      </trkpt>
      <trkpt lat="48.2806" lon="-4.29117">
        <ele>19.3</ele>
        <time>2000-01-01T04:40:54.000Z</time>
      </trkpt>
      <trkpt lat="48.2809" lon="-4.29132">
        <ele>38</ele>
        <time>2000-01-01T04:41:04.000Z</time>
      </trkpt>
      <trkpt lat="48.2811" lon="-4.29107">
        <ele>39</ele>
        <time>2000-01-01T04:41:14.000Z</time>
      </trkpt>
      <trkpt lat="48.28136" lon="-4.29072">
        <ele>38</ele>
        <time>2000-01-01T04:41:24.000Z</time>
      </trkpt>
      <trkpt lat="48.28169" lon="-4.2904">
        <ele>42</ele>
        <time>2000-01-01T04:41:34.000Z</time>
      </trkpt>
      <trkpt lat="48.28199" lon="-4.28996">
        <ele>47</ele>
        <time>2000-01-01T04:41:44.000Z</time>
      </trkpt>
      <trkpt lat="48.28224" lon="-4.28968">
        <ele>48</ele>
        <time>2000-01-01T04:41:54.000Z</time>
      </trkpt>
      <trkpt lat="48.28245" lon="-4.28943">
        <ele>55</ele>
        <time>2000-01-01T04:42:04.000Z</time>
      </trkpt>
      <trkpt lat="48.28276" lon="-4.28907">
        <ele>56</ele>
        <time>2000-01-01T04:42:14.000Z</time>
      </trkpt>
      <trkpt lat="48.28297" lon="-4.28884">
        <ele>57</ele>
        <time>2000-01-01T04:42:24.000Z</time>
      </trkpt>
      <trkpt lat="48.28328" lon="-4.28852">
        <ele>71</ele>
        <time>2000-01-01T04:42:34.000Z</time>
      </trkpt>
      <trkpt lat="48.2835" lon="-4.28825">
        <ele>71</ele>
        <time>2000-01-01T04:42:44.000Z</time>
      </trkpt>
      <trkpt lat="48.28367" lon="-4.28803">
        <ele>72</ele>
        <time>2000-01-01T04:42:54.000Z</time>
      </trkpt>
      <trkpt lat="48.28386" lon="-4.2878">
        <ele>72</ele>
        <time>2000-01-01T04:43:04.000Z</time>
      </trkpt>
      <trkpt lat="48.28406" lon="-4.28752">
        <ele>68</ele>
        <time>2000-01-01T04:43:14.000Z</time>
      </trkpt>
      <trkpt lat="48.28439" lon="-4.28707">
        <ele>72</ele>
        <time>2000-01-01T04:43:24.000Z</time>
      </trkpt>
      <trkpt lat="48.28467" lon="-4.28701">
        <ele>69</ele>
        <time>2000-01-01T04:43:34.000Z</time>
      </trkpt>
      <trkpt lat="48.28515" lon="-4.2869">
        <ele>73</ele>
        <time>2000-01-01T04:43:44.000Z</time>
      </trkpt>
      <trkpt lat="48.28541" lon="-4.28687">
        <ele>78</ele>
        <time>2000-01-01T04:43:54.000Z</time>
      </trkpt>
      <trkpt lat="48.28574" lon="-4.28682">
        <ele>80</ele>
        <time>2000-01-01T04:44:04.000Z</time>
      </trkpt>
      <trkpt lat="48.28597" lon="-4.28693">
        <ele>80</ele>
        <time>2000-01-01T04:44:14.000Z</time>
      </trkpt>
      <trkpt lat="48.28613" lon="-4.28681">
        <ele>52.7</ele>
        <time>2000-01-01T04:44:24.000Z</time>
      </trkpt>
      <trkpt lat="48.28635" lon="-4.28639">
        <ele>77</ele>
        <time>2000-01-01T04:44:34.000Z</time>
      </trkpt>
      <trkpt lat="48.28661" lon="-4.28623">
        <ele>74</ele>
        <time>2000-01-01T04:44:44.000Z</time>
      </trkpt>
      <trkpt lat="48.28677" lon="-4.28609">
        <ele>75</ele>
        <time>2000-01-01T04:44:54.000Z</time>
      </trkpt>
      <trkpt lat="48.28699" lon="-4.28597">
        <ele>71</ele>
        <time>2000-01-01T04:45:04.000Z</time>
      </trkpt>
      <trkpt lat="48.28725" lon="-4.28583">
        <ele>67</ele>
        <time>2000-01-01T04:45:14.000Z</time>
      </trkpt>
      <trkpt lat="48.28743" lon="-4.2858">
        <ele>64</ele>
        <time>2000-01-01T04:45:24.000Z</time>
      </trkpt>
      <trkpt lat="48.28761" lon="-4.28588">
        <ele>64</ele>
        <time>2000-01-01T04:45:34.000Z</time>
      </trkpt>
      <trkpt lat="48.28778" lon="-4.28616">
        <ele>65</ele>
        <time>2000-01-01T04:45:44.000Z</time>
      </trkpt>
      <trkpt lat="48.28792" lon="-4.28651">
        <ele>86</ele>
        <time>2000-01-01T04:45:54.000Z</time>
      </trkpt>
      <trkpt lat="48.28811" lon="-4.28701">
        <ele>88</ele>
        <time>2000-01-01T04:46:04.000Z</time>
      </trkpt>
      <trkpt lat="48.28846" lon="-4.28741">
        <ele>90</ele>
        <time>2000-01-01T04:46:14.000Z</time>
      </trkpt>
      <trkpt lat="48.28859" lon="-4.28781">
        <ele>101</ele>
        <time>2000-01-01T04:46:24.000Z</time>
      </trkpt>
      <trkpt lat="48.28862" lon="-4.28799">
        <ele>72.9</ele>
        <time>2000-01-01T04:46:34.000Z</time>
      </trkpt>
      <trkpt lat="48.2886" lon="-4.28856">
        <ele>109</ele>
        <time>2000-01-01T04:46:44.000Z</time>
      </trkpt>
      <trkpt lat="48.28866" lon="-4.28893">
        <ele>110</ele>
        <time>2000-01-01T04:46:54.000Z</time>
      </trkpt>
      <trkpt lat="48.28865" lon="-4.28918">
        <ele>97.8</ele>
        <time>2000-01-01T04:47:04.000Z</time>
      </trkpt>
      <trkpt lat="48.28877" lon="-4.28921">
        <ele>111</ele>
        <time>2000-01-01T04:47:14.000Z</time>
      </trkpt>
      <trkpt lat="48.289" lon="-4.28881">
        <ele>111</ele>
        <time>2000-01-01T04:47:24.000Z</time>
      </trkpt>
      <trkpt lat="48.28901" lon="-4.28866">
        <ele>97.4</ele>
        <time>2000-01-01T04:47:34.000Z</time>
      </trkpt>
      <trkpt lat="48.28908" lon="-4.28865">
        <ele>100</ele>
        <time>2000-01-01T04:47:44.000Z</time>
      </trkpt>
      <trkpt lat="48.28939" lon="-4.28905">
        <ele>110</ele>
        <time>2000-01-01T04:47:54.000Z</time>
      </trkpt>
      <trkpt lat="48.28964" lon="-4.28859">
        <ele>110</ele>
        <time>2000-01-01T04:48:04.000Z</time>
      </trkpt>
      <trkpt lat="48.28985" lon="-4.28818">
        <ele>110</ele>
        <time>2000-01-01T04:48:14.000Z</time>
      </trkpt>
      <trkpt lat="48.29005" lon="-4.28777">
        <ele>110</ele>
        <time>2000-01-01T04:48:24.000Z</time>
      </trkpt>
      <trkpt lat="48.29019" lon="-4.2875">
        <ele>109</ele>
        <time>2000-01-01T04:48:34.000Z</time>
      </trkpt>
      <trkpt lat="48.29027" lon="-4.28727">
        <ele>107.1</ele>
        <time>2000-01-01T04:48:44.000Z</time>
      </trkpt>
      <trkpt lat="48.29029" lon="-4.28708">
        <ele>109</ele>
        <time>2000-01-01T04:48:54.000Z</time>
      </trkpt>
      <trkpt lat="48.29046" lon="-4.28649">
        <ele>109</ele>
        <time>2000-01-01T04:49:04.000Z</time>
      </trkpt>
      <trkpt lat="48.29053" lon="-4.28613">
        <ele>109</ele>
        <time>2000-01-01T04:49:14.000Z</time>
      </trkpt>
      <trkpt lat="48.29052" lon="-4.28584">
        <ele>104</ele>
        <time>2000-01-01T04:49:24.000Z</time>
      </trkpt>
      <trkpt lat="48.29045" lon="-4.28546">
        <ele>94</ele>
        <time>2000-01-01T04:49:34.000Z</time>
      </trkpt>
      <trkpt lat="48.29035" lon="-4.28493">
        <ele>94</ele>
        <time>2000-01-01T04:49:44.000Z</time>
      </trkpt>
      <trkpt lat="48.29033" lon="-4.28466">
        <ele>94</ele>
        <time>2000-01-01T04:49:54.000Z</time>
      </trkpt>
      <trkpt lat="48.29037" lon="-4.28439">
        <ele>96</ele>
        <time>2000-01-01T04:50:04.000Z</time>
      </trkpt>
      <trkpt lat="48.29053" lon="-4.28384">
        <ele>97</ele>
        <time>2000-01-01T04:50:14.000Z</time>
      </trkpt>
      <trkpt lat="48.29058" lon="-4.2836">
        <ele>97.4</ele>
        <time>2000-01-01T04:50:24.000Z</time>
      </trkpt>
      <trkpt lat="48.29065" lon="-4.28236">
        <ele>94</ele>
        <time>2000-01-01T04:50:34.000Z</time>
      </trkpt>
      <trkpt lat="48.29067" lon="-4.28193">
        <ele>91</ele>
        <time>2000-01-01T04:50:44.000Z</time>
      </trkpt>
      <trkpt lat="48.29071" lon="-4.28114">
        <ele>90</ele>
        <time>2000-01-01T04:50:54.000Z</time>
      </trkpt>
      <trkpt lat="48.29077" lon="-4.28076">
        <ele>90</ele>
        <time>2000-01-01T04:51:04.000Z</time>
      </trkpt>
      <trkpt lat="48.29091" lon="-4.28045">
        <ele>90</ele>
        <time>2000-01-01T04:51:14.000Z</time>
      </trkpt>
      <trkpt lat="48.29108" lon="-4.28007">
        <ele>90</ele>
        <time>2000-01-01T04:51:24.000Z</time>
      </trkpt>
      <trkpt lat="48.29132" lon="-4.27975">
        <ele>90</ele>
        <time>2000-01-01T04:51:34.000Z</time>
      </trkpt>
      <trkpt lat="48.2916" lon="-4.2795">
        <ele>88</ele>
        <time>2000-01-01T04:51:44.000Z</time>
      </trkpt>
      <trkpt lat="48.29176" lon="-4.27905">
        <ele>87</ele>
        <time>2000-01-01T04:51:54.000Z</time>
      </trkpt>
      <trkpt lat="48.29182" lon="-4.27866">
        <ele>76</ele>
        <time>2000-01-01T04:52:04.000Z</time>
      </trkpt>
      <trkpt lat="48.29183" lon="-4.27812">
        <ele>73</ele>
        <time>2000-01-01T04:52:14.000Z</time>
      </trkpt>
      <trkpt lat="48.2918" lon="-4.27776">
        <ele>76</ele>
        <time>2000-01-01T04:52:24.000Z</time>
      </trkpt>
      <trkpt lat="48.29175" lon="-4.27735">
        <ele>76</ele>
        <time>2000-01-01T04:52:34.000Z</time>
      </trkpt>
      <trkpt lat="48.29173" lon="-4.27671">
        <ele>76</ele>
        <time>2000-01-01T04:52:44.000Z</time>
      </trkpt>
      <trkpt lat="48.2917" lon="-4.2763">
        <ele>78</ele>
        <time>2000-01-01T04:52:54.000Z</time>
      </trkpt>
      <trkpt lat="48.29163" lon="-4.27586">
        <ele>77</ele>
        <time>2000-01-01T04:53:04.000Z</time>
      </trkpt>
      <trkpt lat="48.29158" lon="-4.27548">
        <ele>77</ele>
        <time>2000-01-01T04:53:14.000Z</time>
      </trkpt>
      <trkpt lat="48.2915" lon="-4.27494">
        <ele>77</ele>
        <time>2000-01-01T04:53:24.000Z</time>
      </trkpt>
      <trkpt lat="48.29145" lon="-4.27455">
        <ele>75</ele>
        <time>2000-01-01T04:53:34.000Z</time>
      </trkpt>
      <trkpt lat="48.29138" lon="-4.27397">
        <ele>71</ele>
        <time>2000-01-01T04:53:44.000Z</time>
      </trkpt>
      <trkpt lat="48.29121" lon="-4.27346">
        <ele>71</ele>
        <time>2000-01-01T04:53:54.000Z</time>
      </trkpt>
      <trkpt lat="48.29113" lon="-4.27299">
        <ele>70</ele>
        <time>2000-01-01T04:54:04.000Z</time>
      </trkpt>
      <trkpt lat="48.29107" lon="-4.27252">
        <ele>69</ele>
        <time>2000-01-01T04:54:14.000Z</time>
      </trkpt>
      <trkpt lat="48.29104" lon="-4.27208">
        <ele>66</ele>
        <time>2000-01-01T04:54:24.000Z</time>
      </trkpt>
      <trkpt lat="48.29105" lon="-4.27173">
        <ele>64</ele>
        <time>2000-01-01T04:54:34.000Z</time>
      </trkpt>
      <trkpt lat="48.29105" lon="-4.27138">
        <ele>62</ele>
        <time>2000-01-01T04:54:44.000Z</time>
      </trkpt>
      <trkpt lat="48.29107" lon="-4.27116">
        <ele>53.4</ele>
        <time>2000-01-01T04:54:54.000Z</time>
      </trkpt>
      <trkpt lat="48.29124" lon="-4.27047">
        <ele>52</ele>
        <time>2000-01-01T04:55:04.000Z</time>
      </trkpt>
      <trkpt lat="48.29126" lon="-4.27013">
        <ele>50</ele>
        <time>2000-01-01T04:55:14.000Z</time>
      </trkpt>
      <trkpt lat="48.29127" lon="-4.26978">
        <ele>43</ele>
        <time>2000-01-01T04:55:24.000Z</time>
      </trkpt>
      <trkpt lat="48.29134" lon="-4.2692">
        <ele>42</ele>
        <time>2000-01-01T04:55:34.000Z</time>
      </trkpt>
      <trkpt lat="48.29145" lon="-4.26878">
        <ele>40</ele>
        <time>2000-01-01T04:55:44.000Z</time>
      </trkpt>
      <trkpt lat="48.29151" lon="-4.26848">
        <ele>34</ele>
        <time>2000-01-01T04:55:54.000Z</time>
      </trkpt>
      <trkpt lat="48.29154" lon="-4.26808">
        <ele>26</ele>
        <time>2000-01-01T04:56:04.000Z</time>
      </trkpt>
      <trkpt lat="48.2916" lon="-4.26748">
        <ele>20</ele>
        <time>2000-01-01T04:56:14.000Z</time>
      </trkpt>
      <trkpt lat="48.29182" lon="-4.26756">
        <ele>20</ele>
        <time>2000-01-01T04:56:24.000Z</time>
      </trkpt>
      <trkpt lat="48.29205" lon="-4.26764">
        <ele>20</ele>
        <time>2000-01-01T04:56:34.000Z</time>
      </trkpt>
      <trkpt lat="48.29229" lon="-4.26763">
        <ele>19</ele>
        <time>2000-01-01T04:56:44.000Z</time>
      </trkpt>
      <trkpt lat="48.29258" lon="-4.26761">
        <ele>19</ele>
        <time>2000-01-01T04:56:54.000Z</time>
      </trkpt>
      <trkpt lat="48.29288" lon="-4.26765">
        <ele>20</ele>
        <time>2000-01-01T04:57:04.000Z</time>
      </trkpt>
      <trkpt lat="48.29347" lon="-4.26772">
        <ele>19</ele>
        <time>2000-01-01T04:57:14.000Z</time>
      </trkpt>
      <trkpt lat="48.2936" lon="-4.26782">
        <ele>11.4</ele>
        <time>2000-01-01T04:57:24.000Z</time>
      </trkpt>
      <trkpt lat="48.29365" lon="-4.26789">
        <ele>19</ele>
        <time>2000-01-01T04:57:34.000Z</time>
      </trkpt>
      <trkpt lat="48.29381" lon="-4.26798">
        <ele>10.8</ele>
        <time>2000-01-01T04:57:44.000Z</time>
      </trkpt>
      <trkpt lat="48.29385" lon="-4.26797">
        <ele>18</ele>
        <time>2000-01-01T04:57:54.000Z</time>
      </trkpt>
      <trkpt lat="48.29404" lon="-4.26828">
        <ele>17</ele>
        <time>2000-01-01T04:58:04.000Z</time>
      </trkpt>
      <trkpt lat="48.29431" lon="-4.26868">
        <ele>12</ele>
        <time>2000-01-01T04:58:14.000Z</time>
      </trkpt>
      <trkpt lat="48.29457" lon="-4.26884">
        <ele>7</ele>
        <time>2000-01-01T04:58:24.000Z</time>
      </trkpt>
      <trkpt lat="48.29499" lon="-4.26909">
        <ele>7</ele>
        <time>2000-01-01T04:58:34.000Z</time>
      </trkpt>
      <trkpt lat="48.29472" lon="-4.26898">
        <ele>8</ele>
        <time>2000-01-01T04:58:44.000Z</time>
      </trkpt>
      <trkpt lat="48.29429" lon="-4.2688">
        <ele>13</ele>
        <time>2000-01-01T04:58:54.000Z</time>
      </trkpt>
      <trkpt lat="48.2943" lon="-4.26883">
        <ele>8.4</ele>
        <time>2000-01-01T04:59:04.000Z</time>
      </trkpt>
      <trkpt lat="48.29429" lon="-4.26895">
        <ele>9.2</ele>
        <time>2000-01-01T04:59:14.000Z</time>
      </trkpt>
      <trkpt lat="48.29439" lon="-4.2695">
        <ele>16</ele>
        <time>2000-01-01T04:59:24.000Z</time>
      </trkpt>
      <trkpt lat="48.29446" lon="-4.26971">
        <ele>13.6</ele>
        <time>2000-01-01T04:59:34.000Z</time>
      </trkpt>
      <trkpt lat="48.29466" lon="-4.27008">
        <ele>19</ele>
        <time>2000-01-01T04:59:44.000Z</time>
      </trkpt>
      <trkpt lat="48.29482" lon="-4.27045">
        <ele>23</ele>
        <time>2000-01-01T04:59:54.000Z</time>
      </trkpt>
      <trkpt lat="48.29514" lon="-4.27118">
        <ele>27</ele>
        <time>2000-01-01T05:00:04.000Z</time>
      </trkpt>
      <trkpt lat="48.29531" lon="-4.27154">
        <ele>35</ele>
        <time>2000-01-01T05:00:14.000Z</time>
      </trkpt>
      <trkpt lat="48.29537" lon="-4.27172">
        <ele>25.6</ele>
        <time>2000-01-01T05:00:24.000Z</time>
      </trkpt>
      <trkpt lat="48.29544" lon="-4.27204">
        <ele>41</ele>
        <time>2000-01-01T05:00:34.000Z</time>
      </trkpt>
      <trkpt lat="48.29546" lon="-4.27238">
        <ele>44</ele>
        <time>2000-01-01T05:00:44.000Z</time>
      </trkpt>
      <trkpt lat="48.29546" lon="-4.27248">
        <ele>32.6</ele>
        <time>2000-01-01T05:00:54.000Z</time>
      </trkpt>
      <trkpt lat="48.29538" lon="-4.27284">
        <ele>45</ele>
        <time>2000-01-01T05:01:04.000Z</time>
      </trkpt>
      <trkpt lat="48.29528" lon="-4.27301">
        <ele>38</ele>
        <time>2000-01-01T05:01:14.000Z</time>
      </trkpt>
      <trkpt lat="48.2951" lon="-4.27339">
        <ele>49</ele>
        <time>2000-01-01T05:01:24.000Z</time>
      </trkpt>
      <trkpt lat="48.29493" lon="-4.27395">
        <ele>53</ele>
        <time>2000-01-01T05:01:34.000Z</time>
      </trkpt>
      <trkpt lat="48.29486" lon="-4.27428">
        <ele>56</ele>
        <time>2000-01-01T05:01:44.000Z</time>
      </trkpt>
      <trkpt lat="48.29478" lon="-4.27461">
        <ele>56</ele>
        <time>2000-01-01T05:01:54.000Z</time>
      </trkpt>
      <trkpt lat="48.29471" lon="-4.27496">
        <ele>52</ele>
        <time>2000-01-01T05:02:04.000Z</time>
      </trkpt>
      <trkpt lat="48.29463" lon="-4.27536">
        <ele>57</ele>
        <time>2000-01-01T05:02:14.000Z</time>
      </trkpt>
      <trkpt lat="48.29455" lon="-4.27568">
        <ele>63</ele>
        <time>2000-01-01T05:02:24.000Z</time>
      </trkpt>
      <trkpt lat="48.29453" lon="-4.27583">
        <ele>52.1</ele>
        <time>2000-01-01T05:02:34.000Z</time>
      </trkpt>
      <trkpt lat="48.29456" lon="-4.27682">
        <ele>65</ele>
        <time>2000-01-01T05:02:44.000Z</time>
      </trkpt>
      <trkpt lat="48.29456" lon="-4.27719">
        <ele>67</ele>
        <time>2000-01-01T05:02:54.000Z</time>
      </trkpt>
      <trkpt lat="48.29455" lon="-4.27766">
        <ele>73</ele>
        <time>2000-01-01T05:03:04.000Z</time>
      </trkpt>
      <trkpt lat="48.29453" lon="-4.2779">
        <ele>68.1</ele>
        <time>2000-01-01T05:03:14.000Z</time>
      </trkpt>
      <trkpt lat="48.29446" lon="-4.2785">
        <ele>82</ele>
        <time>2000-01-01T05:03:24.000Z</time>
      </trkpt>
      <trkpt lat="48.29432" lon="-4.2791">
        <ele>81</ele>
        <time>2000-01-01T05:03:34.000Z</time>
      </trkpt>
      <trkpt lat="48.29422" lon="-4.27943">
        <ele>81</ele>
        <time>2000-01-01T05:03:44.000Z</time>
      </trkpt>
      <trkpt lat="48.2941" lon="-4.27981">
        <ele>84</ele>
        <time>2000-01-01T05:03:54.000Z</time>
      </trkpt>
      <trkpt lat="48.29396" lon="-4.28009">
        <ele>84</ele>
        <time>2000-01-01T05:04:04.000Z</time>
      </trkpt>
      <trkpt lat="48.29398" lon="-4.28038">
        <ele>85</ele>
        <time>2000-01-01T05:04:14.000Z</time>
      </trkpt>
      <trkpt lat="48.29393" lon="-4.28072">
        <ele>86</ele>
        <time>2000-01-01T05:04:24.000Z</time>
      </trkpt>
      <trkpt lat="48.29393" lon="-4.28114">
        <ele>86</ele>
        <time>2000-01-01T05:04:34.000Z</time>
      </trkpt>
      <trkpt lat="48.29394" lon="-4.28148">
        <ele>83</ele>
        <time>2000-01-01T05:04:44.000Z</time>
      </trkpt>
      <trkpt lat="48.29394" lon="-4.28183">
        <ele>84</ele>
        <time>2000-01-01T05:04:54.000Z</time>
      </trkpt>
      <trkpt lat="48.29417" lon="-4.28189">
        <ele>86</ele>
        <time>2000-01-01T05:05:04.000Z</time>
      </trkpt>
      <trkpt lat="48.29435" lon="-4.28209">
        <ele>86</ele>
        <time>2000-01-01T05:05:14.000Z</time>
      </trkpt>
      <trkpt lat="48.2945" lon="-4.2824">
        <ele>81</ele>
        <time>2000-01-01T05:05:24.000Z</time>
      </trkpt>
      <trkpt lat="48.29471" lon="-4.2828">
        <ele>77</ele>
        <time>2000-01-01T05:05:34.000Z</time>
      </trkpt>
      <trkpt lat="48.29491" lon="-4.28314">
        <ele>73</ele>
        <time>2000-01-01T05:05:44.000Z</time>
      </trkpt>
      <trkpt lat="48.29502" lon="-4.28344">
        <ele>72</ele>
        <time>2000-01-01T05:05:54.000Z</time>
      </trkpt>
      <trkpt lat="48.29513" lon="-4.28334">
        <ele>52.8</ele>
        <time>2000-01-01T05:06:04.000Z</time>
      </trkpt>
      <trkpt lat="48.29517" lon="-4.28302">
        <ele>72</ele>
        <time>2000-01-01T05:06:14.000Z</time>
      </trkpt>
      <trkpt lat="48.29527" lon="-4.2828">
        <ele>47.2</ele>
        <time>2000-01-01T05:06:24.000Z</time>
      </trkpt>
      <trkpt lat="48.2954" lon="-4.28244">
        <ele>55</ele>
        <time>2000-01-01T05:06:34.000Z</time>
      </trkpt>
      <trkpt lat="48.29541" lon="-4.28196">
        <ele>55</ele>
        <time>2000-01-01T05:06:44.000Z</time>
      </trkpt>
      <trkpt lat="48.29555" lon="-4.28164">
        <ele>52</ele>
        <time>2000-01-01T05:06:54.000Z</time>
      </trkpt>
      <trkpt lat="48.29574" lon="-4.28123">
        <ele>50</ele>
        <time>2000-01-01T05:07:04.000Z</time>
      </trkpt>
      <trkpt lat="48.29591" lon="-4.2808">
        <ele>49</ele>
        <time>2000-01-01T05:07:14.000Z</time>
      </trkpt>
      <trkpt lat="48.29603" lon="-4.28079">
        <ele>31.3</ele>
        <time>2000-01-01T05:07:24.000Z</time>
      </trkpt>
      <trkpt lat="48.29606" lon="-4.28112">
        <ele>33</ele>
        <time>2000-01-01T05:07:34.000Z</time>
      </trkpt>
      <trkpt lat="48.29627" lon="-4.28169">
        <ele>35</ele>
        <time>2000-01-01T05:07:44.000Z</time>
      </trkpt>
      <trkpt lat="48.29623" lon="-4.28199">
        <ele>28</ele>
        <time>2000-01-01T05:07:54.000Z</time>
      </trkpt>
      <trkpt lat="48.29651" lon="-4.28223">
        <ele>21</ele>
        <time>2000-01-01T05:08:04.000Z</time>
      </trkpt>
      <trkpt lat="48.29665" lon="-4.28264">
        <ele>18</ele>
        <time>2000-01-01T05:08:14.000Z</time>
      </trkpt>
      <trkpt lat="48.29671" lon="-4.28299">
        <ele>18</ele>
        <time>2000-01-01T05:08:24.000Z</time>
      </trkpt>
      <trkpt lat="48.29678" lon="-4.28339">
        <ele>18</ele>
        <time>2000-01-01T05:08:34.000Z</time>
      </trkpt>
      <trkpt lat="48.29672" lon="-4.28396">
        <ele>18</ele>
        <time>2000-01-01T05:08:44.000Z</time>
      </trkpt>
      <trkpt lat="48.29674" lon="-4.28444">
        <ele>20</ele>
        <time>2000-01-01T05:08:54.000Z</time>
      </trkpt>
      <trkpt lat="48.29684" lon="-4.28497">
        <ele>23</ele>
        <time>2000-01-01T05:09:04.000Z</time>
      </trkpt>
      <trkpt lat="48.29686" lon="-4.28539">
        <ele>20</ele>
        <time>2000-01-01T05:09:14.000Z</time>
      </trkpt>
      <trkpt lat="48.29694" lon="-4.2859">
        <ele>21</ele>
        <time>2000-01-01T05:09:24.000Z</time>
      </trkpt>
      <trkpt lat="48.29707" lon="-4.28635">
        <ele>20</ele>
        <time>2000-01-01T05:09:34.000Z</time>
      </trkpt>
      <trkpt lat="48.29714" lon="-4.28679">
        <ele>19</ele>
        <time>2000-01-01T05:09:44.000Z</time>
      </trkpt>
      <trkpt lat="48.29719" lon="-4.28705">
        <ele>14</ele>
        <time>2000-01-01T05:09:54.000Z</time>
      </trkpt>
      <trkpt lat="48.29722" lon="-4.28742">
        <ele>13</ele>
        <time>2000-01-01T05:10:04.000Z</time>
      </trkpt>
      <trkpt lat="48.29719" lon="-4.28782">
        <ele>20</ele>
        <time>2000-01-01T05:10:14.000Z</time>
      </trkpt>
      <trkpt lat="48.29708" lon="-4.28822">
        <ele>27</ele>
        <time>2000-01-01T05:10:24.000Z</time>
      </trkpt>
      <trkpt lat="48.29697" lon="-4.28851">
        <ele>25</ele>
        <time>2000-01-01T05:10:34.000Z</time>
      </trkpt>
      <trkpt lat="48.29693" lon="-4.28893">
        <ele>24</ele>
        <time>2000-01-01T05:10:44.000Z</time>
      </trkpt>
      <trkpt lat="48.29698" lon="-4.28929">
        <ele>23</ele>
        <time>2000-01-01T05:10:54.000Z</time>
      </trkpt>
      <trkpt lat="48.29692" lon="-4.28973">
        <ele>20</ele>
        <time>2000-01-01T05:11:04.000Z</time>
      </trkpt>
      <trkpt lat="48.29696" lon="-4.29024">
        <ele>23</ele>
        <time>2000-01-01T05:11:14.000Z</time>
      </trkpt>
      <trkpt lat="48.29689" lon="-4.29084">
        <ele>26</ele>
        <time>2000-01-01T05:11:24.000Z</time>
      </trkpt>
      <trkpt lat="48.2969" lon="-4.29131">
        <ele>26</ele>
        <time>2000-01-01T05:11:34.000Z</time>
      </trkpt>
      <trkpt lat="48.2969" lon="-4.29177">
        <ele>27</ele>
        <time>2000-01-01T05:11:44.000Z</time>
      </trkpt>
      <trkpt lat="48.29685" lon="-4.29242">
        <ele>30</ele>
        <time>2000-01-01T05:11:54.000Z</time>
      </trkpt>
      <trkpt lat="48.29689" lon="-4.29292">
        <ele>30</ele>
        <time>2000-01-01T05:12:04.000Z</time>
      </trkpt>
      <trkpt lat="48.29703" lon="-4.29326">
        <ele>31</ele>
        <time>2000-01-01T05:12:14.000Z</time>
      </trkpt>
      <trkpt lat="48.29707" lon="-4.29364">
        <ele>26</ele>
        <time>2000-01-01T05:12:24.000Z</time>
      </trkpt>
      <trkpt lat="48.29726" lon="-4.29397">
        <ele>21</ele>
        <time>2000-01-01T05:12:34.000Z</time>
      </trkpt>
      <trkpt lat="48.29739" lon="-4.29436">
        <ele>21</ele>
        <time>2000-01-01T05:12:44.000Z</time>
      </trkpt>
      <trkpt lat="48.29751" lon="-4.29495">
        <ele>21</ele>
        <time>2000-01-01T05:12:54.000Z</time>
      </trkpt>
      <trkpt lat="48.29757" lon="-4.29542">
        <ele>24</ele>
        <time>2000-01-01T05:13:04.000Z</time>
      </trkpt>
      <trkpt lat="48.29758" lon="-4.29576">
        <ele>24</ele>
        <time>2000-01-01T05:13:14.000Z</time>
      </trkpt>
      <trkpt lat="48.29759" lon="-4.29612">
        <ele>22</ele>
        <time>2000-01-01T05:13:24.000Z</time>
      </trkpt>
      <trkpt lat="48.29763" lon="-4.29644">
        <ele>22</ele>
        <time>2000-01-01T05:13:34.000Z</time>
      </trkpt>
      <trkpt lat="48.29762" lon="-4.29695">
        <ele>22</ele>
        <time>2000-01-01T05:13:44.000Z</time>
      </trkpt>
      <trkpt lat="48.2976" lon="-4.29746">
        <ele>23</ele>
        <time>2000-01-01T05:13:54.000Z</time>
      </trkpt>
      <trkpt lat="48.29759" lon="-4.29797">
        <ele>25</ele>
        <time>2000-01-01T05:14:04.000Z</time>
      </trkpt>
      <trkpt lat="48.29757" lon="-4.29857">
        <ele>25</ele>
        <time>2000-01-01T05:14:14.000Z</time>
      </trkpt>
      <trkpt lat="48.2976" lon="-4.29905">
        <ele>24</ele>
        <time>2000-01-01T05:14:24.000Z</time>
      </trkpt>
      <trkpt lat="48.29759" lon="-4.29958">
        <ele>23</ele>
        <time>2000-01-01T05:14:34.000Z</time>
      </trkpt>
      <trkpt lat="48.29754" lon="-4.29992">
        <ele>21</ele>
        <time>2000-01-01T05:14:44.000Z</time>
      </trkpt>
      <trkpt lat="48.2975" lon="-4.30027">
        <ele>21</ele>
        <time>2000-01-01T05:14:54.000Z</time>
      </trkpt>
      <trkpt lat="48.29752" lon="-4.3009">
        <ele>22</ele>
        <time>2000-01-01T05:15:04.000Z</time>
      </trkpt>
      <trkpt lat="48.29748" lon="-4.30142">
        <ele>21</ele>
        <time>2000-01-01T05:15:14.000Z</time>
      </trkpt>
      <trkpt lat="48.29744" lon="-4.30194">
        <ele>25</ele>
        <time>2000-01-01T05:15:24.000Z</time>
      </trkpt>
      <trkpt lat="48.2974" lon="-4.30246">
        <ele>25</ele>
        <time>2000-01-01T05:15:34.000Z</time>
      </trkpt>
      <trkpt lat="48.29734" lon="-4.30321">
        <ele>25</ele>
        <time>2000-01-01T05:15:44.000Z</time>
      </trkpt>
      <trkpt lat="48.29727" lon="-4.30379">
        <ele>25</ele>
        <time>2000-01-01T05:15:54.000Z</time>
      </trkpt>
      <trkpt lat="48.29724" lon="-4.3044">
        <ele>25</ele>
        <time>2000-01-01T05:16:04.000Z</time>
      </trkpt>
      <trkpt lat="48.29726" lon="-4.30492">
        <ele>28</ele>
        <time>2000-01-01T05:16:14.000Z</time>
      </trkpt>
      <trkpt lat="48.29725" lon="-4.30533">
        <ele>28</ele>
        <time>2000-01-01T05:16:24.000Z</time>
      </trkpt>
      <trkpt lat="48.29723" lon="-4.30598">
        <ele>30</ele>
        <time>2000-01-01T05:16:34.000Z</time>
      </trkpt>
      <trkpt lat="48.29708" lon="-4.30632">
        <ele>40</ele>
        <time>2000-01-01T05:16:44.000Z</time>
      </trkpt>
      <trkpt lat="48.29686" lon="-4.30683">
        <ele>41</ele>
        <time>2000-01-01T05:16:54.000Z</time>
      </trkpt>
      <trkpt lat="48.29679" lon="-4.30719">
        <ele>38</ele>
        <time>2000-01-01T05:17:04.000Z</time>
      </trkpt>
      <trkpt lat="48.2967" lon="-4.30762">
        <ele>37</ele>
        <time>2000-01-01T05:17:14.000Z</time>
      </trkpt>
      <trkpt lat="48.2966" lon="-4.30798">
        <ele>37</ele>
        <time>2000-01-01T05:17:24.000Z</time>
      </trkpt>
      <trkpt lat="48.29646" lon="-4.30846">
        <ele>35</ele>
        <time>2000-01-01T05:17:34.000Z</time>
      </trkpt>
      <trkpt lat="48.29634" lon="-4.30903">
        <ele>36</ele>
        <time>2000-01-01T05:17:44.000Z</time>
      </trkpt>
      <trkpt lat="48.29619" lon="-4.30934">
        <ele>34</ele>
        <time>2000-01-01T05:17:54.000Z</time>
      </trkpt>
      <trkpt lat="48.29608" lon="-4.30989">
        <ele>38</ele>
        <time>2000-01-01T05:18:04.000Z</time>
      </trkpt>
      <trkpt lat="48.29595" lon="-4.31026">
        <ele>34</ele>
        <time>2000-01-01T05:18:14.000Z</time>
      </trkpt>
      <trkpt lat="48.29581" lon="-4.31063">
        <ele>35</ele>
        <time>2000-01-01T05:18:24.000Z</time>
      </trkpt>
      <trkpt lat="48.2956" lon="-4.31107">
        <ele>36</ele>
        <time>2000-01-01T05:18:34.000Z</time>
      </trkpt>
      <trkpt lat="48.29545" lon="-4.3114">
        <ele>35</ele>
        <time>2000-01-01T05:18:44.000Z</time>
      </trkpt>
      <trkpt lat="48.29523" lon="-4.31188">
        <ele>35</ele>
        <time>2000-01-01T05:18:54.000Z</time>
      </trkpt>
      <trkpt lat="48.29509" lon="-4.31221">
        <ele>33</ele>
        <time>2000-01-01T05:19:04.000Z</time>
      </trkpt>
      <trkpt lat="48.29491" lon="-4.31265">
        <ele>36</ele>
        <time>2000-01-01T05:19:14.000Z</time>
      </trkpt>
      <trkpt lat="48.29474" lon="-4.31308">
        <ele>40</ele>
        <time>2000-01-01T05:19:24.000Z</time>
      </trkpt>
      <trkpt lat="48.29459" lon="-4.31357">
        <ele>37</ele>
        <time>2000-01-01T05:19:34.000Z</time>
      </trkpt>
      <trkpt lat="48.29443" lon="-4.31407">
        <ele>35</ele>
        <time>2000-01-01T05:19:44.000Z</time>
      </trkpt>
      <trkpt lat="48.29428" lon="-4.31456">
        <ele>34</ele>
        <time>2000-01-01T05:19:54.000Z</time>
      </trkpt>
      <trkpt lat="48.29413" lon="-4.31505">
        <ele>33</ele>
        <time>2000-01-01T05:20:04.000Z</time>
      </trkpt>
      <trkpt lat="48.29394" lon="-4.31565">
        <ele>32</ele>
        <time>2000-01-01T05:20:14.000Z</time>
      </trkpt>
      <trkpt lat="48.29392" lon="-4.31603">
        <ele>34</ele>
        <time>2000-01-01T05:20:24.000Z</time>
      </trkpt>
      <trkpt lat="48.29379" lon="-4.31645">
        <ele>30</ele>
        <time>2000-01-01T05:20:34.000Z</time>
      </trkpt>
      <trkpt lat="48.29355" lon="-4.31681">
        <ele>32</ele>
        <time>2000-01-01T05:20:44.000Z</time>
      </trkpt>
      <trkpt lat="48.29339" lon="-4.31708">
        <ele>32</ele>
        <time>2000-01-01T05:20:54.000Z</time>
      </trkpt>
      <trkpt lat="48.2932" lon="-4.31741">
        <ele>32</ele>
        <time>2000-01-01T05:21:04.000Z</time>
      </trkpt>
      <trkpt lat="48.29302" lon="-4.31774">
        <ele>33</ele>
        <time>2000-01-01T05:21:14.000Z</time>
      </trkpt>
      <trkpt lat="48.29277" lon="-4.31804">
        <ele>34</ele>
        <time>2000-01-01T05:21:24.000Z</time>
      </trkpt>
      <trkpt lat="48.29253" lon="-4.31833">
        <ele>36</ele>
        <time>2000-01-01T05:21:34.000Z</time>
      </trkpt>
      <trkpt lat="48.29219" lon="-4.31874">
        <ele>38</ele>
        <time>2000-01-01T05:21:44.000Z</time>
      </trkpt>
      <trkpt lat="48.29188" lon="-4.31916">
        <ele>41</ele>
        <time>2000-01-01T05:21:54.000Z</time>
      </trkpt>
      <trkpt lat="48.29171" lon="-4.31949">
        <ele>44</ele>
        <time>2000-01-01T05:22:04.000Z</time>
      </trkpt>
      <trkpt lat="48.29157" lon="-4.31975">
        <ele>45</ele>
        <time>2000-01-01T05:22:14.000Z</time>
      </trkpt>
      <trkpt lat="48.29142" lon="-4.32002">
        <ele>42</ele>
        <time>2000-01-01T05:22:24.000Z</time>
      </trkpt>
      <trkpt lat="48.2913" lon="-4.32036">
        <ele>47</ele>
        <time>2000-01-01T05:22:34.000Z</time>
      </trkpt>
      <trkpt lat="48.29112" lon="-4.32083">
        <ele>47</ele>
        <time>2000-01-01T05:22:44.000Z</time>
      </trkpt>
      <trkpt lat="48.29105" lon="-4.3212">
        <ele>48</ele>
        <time>2000-01-01T05:22:54.000Z</time>
      </trkpt>
      <trkpt lat="48.29095" lon="-4.32168">
        <ele>47</ele>
        <time>2000-01-01T05:23:04.000Z</time>
      </trkpt>
      <trkpt lat="48.2909" lon="-4.32206">
        <ele>47</ele>
        <time>2000-01-01T05:23:14.000Z</time>
      </trkpt>
      <trkpt lat="48.29083" lon="-4.32259">
        <ele>45</ele>
        <time>2000-01-01T05:23:24.000Z</time>
      </trkpt>
      <trkpt lat="48.29076" lon="-4.32299">
        <ele>44</ele>
        <time>2000-01-01T05:23:34.000Z</time>
      </trkpt>
      <trkpt lat="48.29064" lon="-4.32366">
        <ele>44</ele>
        <time>2000-01-01T05:23:44.000Z</time>
      </trkpt>
      <trkpt lat="48.29061" lon="-4.32405">
        <ele>35</ele>
        <time>2000-01-01T05:23:54.000Z</time>
      </trkpt>
      <trkpt lat="48.29057" lon="-4.32459">
        <ele>33</ele>
        <time>2000-01-01T05:24:04.000Z</time>
      </trkpt>
      <trkpt lat="48.29057" lon="-4.3251">
        <ele>33</ele>
        <time>2000-01-01T05:24:14.000Z</time>
      </trkpt>
      <trkpt lat="48.29043" lon="-4.32574">
        <ele>37</ele>
        <time>2000-01-01T05:24:24.000Z</time>
      </trkpt>
      <trkpt lat="48.29035" lon="-4.32619">
        <ele>37</ele>
        <time>2000-01-01T05:24:34.000Z</time>
      </trkpt>
      <trkpt lat="48.29027" lon="-4.32663">
        <ele>37</ele>
        <time>2000-01-01T05:24:44.000Z</time>
      </trkpt>
      <trkpt lat="48.29017" lon="-4.32716">
        <ele>39</ele>
        <time>2000-01-01T05:24:54.000Z</time>
      </trkpt>
      <trkpt lat="48.29008" lon="-4.32747">
        <ele>38</ele>
        <time>2000-01-01T05:25:04.000Z</time>
      </trkpt>
      <trkpt lat="48.28999" lon="-4.32779">
        <ele>37</ele>
        <time>2000-01-01T05:25:14.000Z</time>
      </trkpt>
      <trkpt lat="48.28992" lon="-4.32824">
        <ele>35</ele>
        <time>2000-01-01T05:25:24.000Z</time>
      </trkpt>
      <trkpt lat="48.28997" lon="-4.32859">
        <ele>33</ele>
        <time>2000-01-01T05:25:34.000Z</time>
      </trkpt>
      <trkpt lat="48.29002" lon="-4.32898">
        <ele>30</ele>
        <time>2000-01-01T05:25:44.000Z</time>
      </trkpt>
      <trkpt lat="48.28995" lon="-4.32954">
        <ele>26</ele>
        <time>2000-01-01T05:25:54.000Z</time>
      </trkpt>
      <trkpt lat="48.28993" lon="-4.32987">
        <ele>26</ele>
        <time>2000-01-01T05:26:04.000Z</time>
      </trkpt>
      <trkpt lat="48.2899" lon="-4.33022">
        <ele>25</ele>
        <time>2000-01-01T05:26:14.000Z</time>
      </trkpt>
      <trkpt lat="48.28983" lon="-4.33071">
        <ele>24</ele>
        <time>2000-01-01T05:26:24.000Z</time>
      </trkpt>
      <trkpt lat="48.28965" lon="-4.33105">
        <ele>24</ele>
        <time>2000-01-01T05:26:34.000Z</time>
      </trkpt>
      <trkpt lat="48.28935" lon="-4.33149">
        <ele>44</ele>
        <time>2000-01-01T05:26:44.000Z</time>
      </trkpt>
      <trkpt lat="48.28903" lon="-4.33178">
        <ele>43</ele>
        <time>2000-01-01T05:26:54.000Z</time>
      </trkpt>
      <trkpt lat="48.28882" lon="-4.33199">
        <ele>45</ele>
        <time>2000-01-01T05:27:04.000Z</time>
      </trkpt>
      <trkpt lat="48.28856" lon="-4.33226">
        <ele>46</ele>
        <time>2000-01-01T05:27:14.000Z</time>
      </trkpt>
      <trkpt lat="48.28833" lon="-4.33242">
        <ele>46</ele>
        <time>2000-01-01T05:27:24.000Z</time>
      </trkpt>
      <trkpt lat="48.28804" lon="-4.33263">
        <ele>46</ele>
        <time>2000-01-01T05:27:34.000Z</time>
      </trkpt>
      <trkpt lat="48.28779" lon="-4.33275">
        <ele>49</ele>
        <time>2000-01-01T05:27:44.000Z</time>
      </trkpt>
      <trkpt lat="48.28758" lon="-4.33295">
        <ele>48</ele>
        <time>2000-01-01T05:27:54.000Z</time>
      </trkpt>
      <trkpt lat="48.28736" lon="-4.33307">
        <ele>48</ele>
        <time>2000-01-01T05:28:04.000Z</time>
      </trkpt>
      <trkpt lat="48.28716" lon="-4.33333">
        <ele>43</ele>
        <time>2000-01-01T05:28:14.000Z</time>
      </trkpt>
      <trkpt lat="48.28721" lon="-4.33391">
        <ele>35</ele>
        <time>2000-01-01T05:28:24.000Z</time>
      </trkpt>
      <trkpt lat="48.28715" lon="-4.334">
        <ele>46.2</ele>
        <time>2000-01-01T05:28:34.000Z</time>
      </trkpt>
      <trkpt lat="48.28702" lon="-4.3341">
        <ele>28</ele>
        <time>2000-01-01T05:28:44.000Z</time>
      </trkpt>
      <trkpt lat="48.28691" lon="-4.33449">
        <ele>24</ele>
        <time>2000-01-01T05:28:54.000Z</time>
      </trkpt>
      <trkpt lat="48.2868" lon="-4.33468">
        <ele>29</ele>
        <time>2000-01-01T05:29:04.000Z</time>
      </trkpt>
      <trkpt lat="48.2867" lon="-4.33478">
        <ele>19</ele>
        <time>2000-01-01T05:29:14.000Z</time>
      </trkpt>
      <trkpt lat="48.28662" lon="-4.33491">
        <ele>19.8</ele>
        <time>2000-01-01T05:29:24.000Z</time>
      </trkpt>
      <trkpt lat="48.28652" lon="-4.33494">
        <ele>16</ele>
        <time>2000-01-01T05:29:34.000Z</time>
      </trkpt>
      <trkpt lat="48.2864" lon="-4.33502">
        <ele>8.5</ele>
        <time>2000-01-01T05:29:44.000Z</time>
      </trkpt>
      <trkpt lat="48.28647" lon="-4.33547">
        <ele>15</ele>
        <time>2000-01-01T05:29:54.000Z</time>
      </trkpt>
      <trkpt lat="48.28656" lon="-4.33578">
        <ele>15</ele>
        <time>2000-01-01T05:30:04.000Z</time>
      </trkpt>
      <trkpt lat="48.28655" lon="-4.33592">
        <ele>4.6</ele>
        <time>2000-01-01T05:30:14.000Z</time>
      </trkpt>
      <trkpt lat="48.28651" lon="-4.33603">
        <ele>4.4</ele>
        <time>2000-01-01T05:30:24.000Z</time>
      </trkpt>
      <trkpt lat="48.28611" lon="-4.33648">
        <ele>8</ele>
        <time>2000-01-01T05:30:34.000Z</time>
      </trkpt>
      <trkpt lat="48.28605" lon="-4.33652">
        <ele>4</ele>
        <time>2000-01-01T05:30:44.000Z</time>
      </trkpt>
      <trkpt lat="48.28584" lon="-4.33655">
        <ele>8</ele>
        <time>2000-01-01T05:30:54.000Z</time>
      </trkpt>
      <trkpt lat="48.28568" lon="-4.33652">
        <ele>4.3</ele>
        <time>2000-01-01T05:31:04.000Z</time>
      </trkpt>
      <trkpt lat="48.28557" lon="-4.33652">
        <ele>8</ele>
        <time>2000-01-01T05:31:14.000Z</time>
      </trkpt>
      <trkpt lat="48.28534" lon="-4.33677">
        <ele>9</ele>
        <time>2000-01-01T05:31:24.000Z</time>
      </trkpt>
      <trkpt lat="48.28516" lon="-4.33698">
        <ele>11</ele>
        <time>2000-01-01T05:31:34.000Z</time>
      </trkpt>
      <trkpt lat="48.28496" lon="-4.33719">
        <ele>12</ele>
        <time>2000-01-01T05:31:44.000Z</time>
      </trkpt>
      <trkpt lat="48.28481" lon="-4.33731">
        <ele>6.1</ele>
        <time>2000-01-01T05:31:54.000Z</time>
      </trkpt>
      <trkpt lat="48.28461" lon="-4.33733">
        <ele>12</ele>
        <time>2000-01-01T05:32:04.000Z</time>
      </trkpt>
      <trkpt lat="48.28434" lon="-4.33729">
        <ele>12</ele>
        <time>2000-01-01T05:32:14.000Z</time>
      </trkpt>
      <trkpt lat="48.28392" lon="-4.33724">
        <ele>13</ele>
        <time>2000-01-01T05:32:24.000Z</time>
      </trkpt>
      <trkpt lat="48.28368" lon="-4.33726">
        <ele>18</ele>
        <time>2000-01-01T05:32:34.000Z</time>
      </trkpt>
      <trkpt lat="48.28358" lon="-4.33731">
        <ele>14</ele>
        <time>2000-01-01T05:32:44.000Z</time>
      </trkpt>
      <trkpt lat="48.28288" lon="-4.33791">
        <ele>18</ele>
        <time>2000-01-01T05:32:54.000Z</time>
      </trkpt>
      <trkpt lat="48.28285" lon="-4.33806">
        <ele>16.9</ele>
        <time>2000-01-01T05:33:04.000Z</time>
      </trkpt>
      <trkpt lat="48.2828" lon="-4.3382">
        <ele>18</ele>
        <time>2000-01-01T05:33:14.000Z</time>
      </trkpt>
      <trkpt lat="48.28262" lon="-4.3386">
        <ele>20</ele>
        <time>2000-01-01T05:33:24.000Z</time>
      </trkpt>
      <trkpt lat="48.28244" lon="-4.339">
        <ele>16</ele>
        <time>2000-01-01T05:33:34.000Z</time>
      </trkpt>
      <trkpt lat="48.28215" lon="-4.33964">
        <ele>16</ele>
        <time>2000-01-01T05:33:44.000Z</time>
      </trkpt>
      <trkpt lat="48.2821" lon="-4.33991">
        <ele>16</ele>
        <time>2000-01-01T05:33:54.000Z</time>
      </trkpt>
      <trkpt lat="48.28206" lon="-4.34027">
        <ele>20</ele>
        <time>2000-01-01T05:34:04.000Z</time>
      </trkpt>
      <trkpt lat="48.28223" lon="-4.34023">
        <ele>11.7</ele>
        <time>2000-01-01T05:34:14.000Z</time>
      </trkpt>
      <trkpt lat="48.28241" lon="-4.34012">
        <ele>20</ele>
        <time>2000-01-01T05:34:24.000Z</time>
      </trkpt>
      <trkpt lat="48.28254" lon="-4.34003">
        <ele>9.8</ele>
        <time>2000-01-01T05:34:34.000Z</time>
      </trkpt>
      <trkpt lat="48.28286" lon="-4.33972">
        <ele>18</ele>
        <time>2000-01-01T05:34:44.000Z</time>
      </trkpt>
      <trkpt lat="48.28312" lon="-4.33943">
        <ele>17</ele>
        <time>2000-01-01T05:34:54.000Z</time>
      </trkpt>
      <trkpt lat="48.28338" lon="-4.33919">
        <ele>17</ele>
        <time>2000-01-01T05:35:04.000Z</time>
      </trkpt>
      <trkpt lat="48.2836" lon="-4.33889">
        <ele>18</ele>
        <time>2000-01-01T05:35:14.000Z</time>
      </trkpt>
      <trkpt lat="48.28378" lon="-4.33876">
        <ele>18</ele>
        <time>2000-01-01T05:35:24.000Z</time>
      </trkpt>
      <trkpt lat="48.28401" lon="-4.33867">
        <ele>14</ele>
        <time>2000-01-01T05:35:34.000Z</time>
      </trkpt>
      <trkpt lat="48.28424" lon="-4.3387">
        <ele>16</ele>
        <time>2000-01-01T05:35:44.000Z</time>
      </trkpt>
      <trkpt lat="48.28447" lon="-4.33874">
        <ele>15</ele>
        <time>2000-01-01T05:35:54.000Z</time>
      </trkpt>
      <trkpt lat="48.28472" lon="-4.33896">
        <ele>14</ele>
        <time>2000-01-01T05:36:04.000Z</time>
      </trkpt>
      <trkpt lat="48.2851" lon="-4.33922">
        <ele>14</ele>
        <time>2000-01-01T05:36:14.000Z</time>
      </trkpt>
      <trkpt lat="48.28528" lon="-4.33951">
        <ele>14</ele>
        <time>2000-01-01T05:36:24.000Z</time>
      </trkpt>
      <trkpt lat="48.2854" lon="-4.33966">
        <ele>6.4</ele>
        <time>2000-01-01T05:36:34.000Z</time>
      </trkpt>
      <trkpt lat="48.28555" lon="-4.33979">
        <ele>14</ele>
        <time>2000-01-01T05:36:44.000Z</time>
      </trkpt>
      <trkpt lat="48.28574" lon="-4.33991">
        <ele>16</ele>
        <time>2000-01-01T05:36:54.000Z</time>
      </trkpt>
      <trkpt lat="48.28582" lon="-4.33994">
        <ele>4.9</ele>
        <time>2000-01-01T05:37:04.000Z</time>
      </trkpt>
      <trkpt lat="48.28585" lon="-4.34006">
        <ele>5.2</ele>
        <time>2000-01-01T05:37:14.000Z</time>
      </trkpt>
      <trkpt lat="48.28581" lon="-4.34044">
        <ele>19</ele>
        <time>2000-01-01T05:37:24.000Z</time>
      </trkpt>
      <trkpt lat="48.28581" lon="-4.34073">
        <ele>19</ele>
        <time>2000-01-01T05:37:34.000Z</time>
      </trkpt>
      <trkpt lat="48.28583" lon="-4.34107">
        <ele>23</ele>
        <time>2000-01-01T05:37:44.000Z</time>
      </trkpt>
      <trkpt lat="48.28586" lon="-4.34143">
        <ele>26</ele>
        <time>2000-01-01T05:37:54.000Z</time>
      </trkpt>
      <trkpt lat="48.28583" lon="-4.34169">
        <ele>29.1</ele>
        <time>2000-01-01T05:38:04.000Z</time>
      </trkpt>
      <trkpt lat="48.28574" lon="-4.34191">
        <ele>27</ele>
        <time>2000-01-01T05:38:14.000Z</time>
      </trkpt>
      <trkpt lat="48.28554" lon="-4.34212">
        <ele>33</ele>
        <time>2000-01-01T05:38:24.000Z</time>
      </trkpt>
      <trkpt lat="48.28534" lon="-4.34225">
        <ele>38</ele>
        <time>2000-01-01T05:38:34.000Z</time>
      </trkpt>
      <trkpt lat="48.28523" lon="-4.34192">
        <ele>38</ele>
        <time>2000-01-01T05:38:44.000Z</time>
      </trkpt>
      <trkpt lat="48.28517" lon="-4.34189">
        <ele>45.3</ele>
        <time>2000-01-01T05:38:54.000Z</time>
      </trkpt>
      <trkpt lat="48.28512" lon="-4.34191">
        <ele>46.8</ele>
        <time>2000-01-01T05:39:04.000Z</time>
      </trkpt>
      <trkpt lat="48.28444" lon="-4.34305">
        <ele>52</ele>
        <time>2000-01-01T05:39:14.000Z</time>
      </trkpt>
      <trkpt lat="48.28424" lon="-4.34342">
        <ele>58</ele>
        <time>2000-01-01T05:39:24.000Z</time>
      </trkpt>
      <trkpt lat="48.28405" lon="-4.3438">
        <ele>64</ele>
        <time>2000-01-01T05:39:34.000Z</time>
      </trkpt>
      <trkpt lat="48.28378" lon="-4.34431">
        <ele>65</ele>
        <time>2000-01-01T05:39:44.000Z</time>
      </trkpt>
      <trkpt lat="48.28362" lon="-4.34463">
        <ele>67</ele>
        <time>2000-01-01T05:39:54.000Z</time>
      </trkpt>
      <trkpt lat="48.28339" lon="-4.34507">
        <ele>67</ele>
        <time>2000-01-01T05:40:04.000Z</time>
      </trkpt>
      <trkpt lat="48.28325" lon="-4.34537">
        <ele>66</ele>
        <time>2000-01-01T05:40:14.000Z</time>
      </trkpt>
      <trkpt lat="48.28309" lon="-4.34574">
        <ele>65</ele>
        <time>2000-01-01T05:40:24.000Z</time>
      </trkpt>
      <trkpt lat="48.28279" lon="-4.34562">
        <ele>64</ele>
        <time>2000-01-01T05:40:34.000Z</time>
      </trkpt>
      <trkpt lat="48.28249" lon="-4.3455">
        <ele>64</ele>
        <time>2000-01-01T05:40:44.000Z</time>
      </trkpt>
      <trkpt lat="48.28212" lon="-4.34535">
        <ele>65</ele>
        <time>2000-01-01T05:40:54.000Z</time>
      </trkpt>
      <trkpt lat="48.28196" lon="-4.34568">
        <ele>69</ele>
        <time>2000-01-01T05:41:04.000Z</time>
      </trkpt>
      <trkpt lat="48.28178" lon="-4.34601">
        <ele>73</ele>
        <time>2000-01-01T05:41:14.000Z</time>
      </trkpt>
      <trkpt lat="48.2816" lon="-4.34624">
        <ele>71</ele>
        <time>2000-01-01T05:41:24.000Z</time>
      </trkpt>
      <trkpt lat="48.28141" lon="-4.34649">
        <ele>70</ele>
        <time>2000-01-01T05:41:34.000Z</time>
      </trkpt>
      <trkpt lat="48.28116" lon="-4.34676">
        <ele>70</ele>
        <time>2000-01-01T05:41:44.000Z</time>
      </trkpt>
      <trkpt lat="48.28091" lon="-4.34704">
        <ele>70</ele>
        <time>2000-01-01T05:41:54.000Z</time>
      </trkpt>
      <trkpt lat="48.28062" lon="-4.34736">
        <ele>70</ele>
        <time>2000-01-01T05:42:04.000Z</time>
      </trkpt>
      <trkpt lat="48.28046" lon="-4.34761">
        <ele>75</ele>
        <time>2000-01-01T05:42:14.000Z</time>
      </trkpt>
      <trkpt lat="48.28029" lon="-4.34787">
        <ele>75</ele>
        <time>2000-01-01T05:42:24.000Z</time>
      </trkpt>
      <trkpt lat="48.28018" lon="-4.34809">
        <ele>75</ele>
        <time>2000-01-01T05:42:34.000Z</time>
      </trkpt>
      <trkpt lat="48.28011" lon="-4.34826">
        <ele>71.3</ele>
        <time>2000-01-01T05:42:44.000Z</time>
      </trkpt>
      <trkpt lat="48.27944" lon="-4.35072">
        <ele>68</ele>
        <time>2000-01-01T05:42:54.000Z</time>
      </trkpt>
      <trkpt lat="48.27935" lon="-4.35118">
        <ele>68</ele>
        <time>2000-01-01T05:43:04.000Z</time>
      </trkpt>
      <trkpt lat="48.27926" lon="-4.35164">
        <ele>67</ele>
        <time>2000-01-01T05:43:14.000Z</time>
      </trkpt>
      <trkpt lat="48.27912" lon="-4.35233">
        <ele>67</ele>
        <time>2000-01-01T05:43:24.000Z</time>
      </trkpt>
      <trkpt lat="48.27942" lon="-4.35258">
        <ele>62</ele>
        <time>2000-01-01T05:43:34.000Z</time>
      </trkpt>
      <trkpt lat="48.27967" lon="-4.35301">
        <ele>58</ele>
        <time>2000-01-01T05:43:44.000Z</time>
      </trkpt>
      <trkpt lat="48.27997" lon="-4.3534">
        <ele>55</ele>
        <time>2000-01-01T05:43:54.000Z</time>
      </trkpt>
      <trkpt lat="48.28011" lon="-4.35362">
        <ele>52</ele>
        <time>2000-01-01T05:44:04.000Z</time>
      </trkpt>
      <trkpt lat="48.28025" lon="-4.35391">
        <ele>49</ele>
        <time>2000-01-01T05:44:14.000Z</time>
      </trkpt>
      <trkpt lat="48.28041" lon="-4.35423">
        <ele>47</ele>
        <time>2000-01-01T05:44:24.000Z</time>
      </trkpt>
      <trkpt lat="48.28062" lon="-4.35442">
        <ele>47</ele>
        <time>2000-01-01T05:44:34.000Z</time>
      </trkpt>
      <trkpt lat="48.28088" lon="-4.35466">
        <ele>46</ele>
        <time>2000-01-01T05:44:44.000Z</time>
      </trkpt>
      <trkpt lat="48.28092" lon="-4.35473">
        <ele>45.4</ele>
        <time>2000-01-01T05:44:54.000Z</time>
      </trkpt>
      <trkpt lat="48.28081" lon="-4.35494">
        <ele>46</ele>
        <time>2000-01-01T05:45:04.000Z</time>
      </trkpt>
      <trkpt lat="48.2807" lon="-4.35529">
        <ele>45</ele>
        <time>2000-01-01T05:45:14.000Z</time>
      </trkpt>
      <trkpt lat="48.28056" lon="-4.35577">
        <ele>45</ele>
        <time>2000-01-01T05:45:24.000Z</time>
      </trkpt>
      <trkpt lat="48.28053" lon="-4.35634">
        <ele>45</ele>
        <time>2000-01-01T05:45:34.000Z</time>
      </trkpt>
      <trkpt lat="48.28052" lon="-4.35671">
        <ele>44</ele>
        <time>2000-01-01T05:45:44.000Z</time>
      </trkpt>
      <trkpt lat="48.28052" lon="-4.35719">
        <ele>44</ele>
        <time>2000-01-01T05:45:54.000Z</time>
      </trkpt>
      <trkpt lat="48.2805" lon="-4.35753">
        <ele>45</ele>
        <time>2000-01-01T05:46:04.000Z</time>
      </trkpt>
      <trkpt lat="48.28048" lon="-4.35787">
        <ele>49</ele>
        <time>2000-01-01T05:46:14.000Z</time>
      </trkpt>
      <trkpt lat="48.28037" lon="-4.35829">
        <ele>49</ele>
        <time>2000-01-01T05:46:24.000Z</time>
      </trkpt>
      <trkpt lat="48.28027" lon="-4.35872">
        <ele>50</ele>
        <time>2000-01-01T05:46:34.000Z</time>
      </trkpt>
      <trkpt lat="48.28016" lon="-4.35914">
        <ele>52</ele>
        <time>2000-01-01T05:46:44.000Z</time>
      </trkpt>
      <trkpt lat="48.28009" lon="-4.35936">
        <ele>52.3</ele>
        <time>2000-01-01T05:46:54.000Z</time>
      </trkpt>
      <trkpt lat="48.27966" lon="-4.36007">
        <ele>52</ele>
        <time>2000-01-01T05:47:04.000Z</time>
      </trkpt>
      <trkpt lat="48.27945" lon="-4.36031">
        <ele>52</ele>
        <time>2000-01-01T05:47:14.000Z</time>
      </trkpt>
      <trkpt lat="48.27915" lon="-4.36067">
        <ele>53</ele>
        <time>2000-01-01T05:47:24.000Z</time>
      </trkpt>
      <trkpt lat="48.27894" lon="-4.36099">
        <ele>51</ele>
        <time>2000-01-01T05:47:34.000Z</time>
      </trkpt>
      <trkpt lat="48.27853" lon="-4.36161">
        <ele>50</ele>
        <time>2000-01-01T05:47:44.000Z</time>
      </trkpt>
      <trkpt lat="48.27828" lon="-4.36185">
        <ele>52</ele>
        <time>2000-01-01T05:47:54.000Z</time>
      </trkpt>
      <trkpt lat="48.27778" lon="-4.36234">
        <ele>54</ele>
        <time>2000-01-01T05:48:04.000Z</time>
      </trkpt>
      <trkpt lat="48.27757" lon="-4.36256">
        <ele>60</ele>
        <time>2000-01-01T05:48:14.000Z</time>
      </trkpt>
      <trkpt lat="48.27747" lon="-4.36272">
        <ele>61</ele>
        <time>2000-01-01T05:48:24.000Z</time>
      </trkpt>
      <trkpt lat="48.27731" lon="-4.36308">
        <ele>59</ele>
        <time>2000-01-01T05:48:34.000Z</time>
      </trkpt>
      <trkpt lat="48.27719" lon="-4.3634">
        <ele>59</ele>
        <time>2000-01-01T05:48:44.000Z</time>
      </trkpt>
      <trkpt lat="48.27705" lon="-4.36379">
        <ele>60</ele>
        <time>2000-01-01T05:48:54.000Z</time>
      </trkpt>
      <trkpt lat="48.27692" lon="-4.36411">
        <ele>61</ele>
        <time>2000-01-01T05:49:04.000Z</time>
      </trkpt>
      <trkpt lat="48.27678" lon="-4.36438">
        <ele>61</ele>
        <time>2000-01-01T05:49:14.000Z</time>
      </trkpt>
      <trkpt lat="48.27659" lon="-4.36469">
        <ele>68</ele>
        <time>2000-01-01T05:49:24.000Z</time>
      </trkpt>
      <trkpt lat="48.27626" lon="-4.36522">
        <ele>71</ele>
        <time>2000-01-01T05:49:34.000Z</time>
      </trkpt>
      <trkpt lat="48.27605" lon="-4.36566">
        <ele>72</ele>
        <time>2000-01-01T05:49:44.000Z</time>
      </trkpt>
      <trkpt lat="48.2759" lon="-4.36612">
        <ele>72</ele>
        <time>2000-01-01T05:49:54.000Z</time>
      </trkpt>
      <trkpt lat="48.27581" lon="-4.3663">
        <ele>67.5</ele>
        <time>2000-01-01T05:50:04.000Z</time>
      </trkpt>
      <trkpt lat="48.27571" lon="-4.36644">
        <ele>70</ele>
        <time>2000-01-01T05:50:14.000Z</time>
      </trkpt>
      <trkpt lat="48.27558" lon="-4.36649">
        <ele>68.5</ele>
        <time>2000-01-01T05:50:24.000Z</time>
      </trkpt>
      <trkpt lat="48.27559" lon="-4.3668">
        <ele>69</ele>
        <time>2000-01-01T05:50:34.000Z</time>
      </trkpt>
      <trkpt lat="48.27557" lon="-4.36689">
        <ele>67.9</ele>
        <time>2000-01-01T05:50:44.000Z</time>
      </trkpt>
      <trkpt lat="48.27559" lon="-4.3668">
        <ele>67.7</ele>
        <time>2000-01-01T05:50:54.000Z</time>
      </trkpt>
      <trkpt lat="48.27608" lon="-4.36673">
        <ele>68</ele>
        <time>2000-01-01T05:51:04.000Z</time>
      </trkpt>
      <trkpt lat="48.27631" lon="-4.3668">
        <ele>67</ele>
        <time>2000-01-01T05:51:14.000Z</time>
      </trkpt>
      <trkpt lat="48.27655" lon="-4.36688">
        <ele>67</ele>
        <time>2000-01-01T05:51:24.000Z</time>
      </trkpt>
      <trkpt lat="48.27657" lon="-4.36701">
        <ele>55</ele>
        <time>2000-01-01T05:51:34.000Z</time>
      </trkpt>
      <trkpt lat="48.27657" lon="-4.36739">
        <ele>66</ele>
        <time>2000-01-01T05:51:44.000Z</time>
      </trkpt>
      <trkpt lat="48.27656" lon="-4.36774">
        <ele>65</ele>
        <time>2000-01-01T05:51:54.000Z</time>
      </trkpt>
      <trkpt lat="48.27655" lon="-4.3681">
        <ele>65</ele>
        <time>2000-01-01T05:52:04.000Z</time>
      </trkpt>
      <trkpt lat="48.27653" lon="-4.36861">
        <ele>65</ele>
        <time>2000-01-01T05:52:14.000Z</time>
      </trkpt>
      <trkpt lat="48.2765" lon="-4.36891">
        <ele>65</ele>
        <time>2000-01-01T05:52:24.000Z</time>
      </trkpt>
      <trkpt lat="48.27649" lon="-4.36928">
        <ele>61</ele>
        <time>2000-01-01T05:52:34.000Z</time>
      </trkpt>
      <trkpt lat="48.27652" lon="-4.36927">
        <ele>57.6</ele>
        <time>2000-01-01T05:52:44.000Z</time>
      </trkpt>
      <trkpt lat="48.27655" lon="-4.3692">
        <ele>56.5</ele>
        <time>2000-01-01T05:52:54.000Z</time>
      </trkpt>
      <trkpt lat="48.27662" lon="-4.36899">
        <ele>58</ele>
        <time>2000-01-01T05:53:04.000Z</time>
      </trkpt>
      <trkpt lat="48.27666" lon="-4.36858">
        <ele>58</ele>
        <time>2000-01-01T05:53:14.000Z</time>
      </trkpt>
      <trkpt lat="48.27678" lon="-4.36811">
        <ele>55</ele>
        <time>2000-01-01T05:53:24.000Z</time>
      </trkpt>
      <trkpt lat="48.27701" lon="-4.36769">
        <ele>44</ele>
        <time>2000-01-01T05:53:34.000Z</time>
      </trkpt>
      <trkpt lat="48.27706" lon="-4.3675">
        <ele>36</ele>
        <time>2000-01-01T05:53:44.000Z</time>
      </trkpt>
      <trkpt lat="48.27715" lon="-4.36731">
        <ele>33</ele>
        <time>2000-01-01T05:53:54.000Z</time>
      </trkpt>
      <trkpt lat="48.27724" lon="-4.36724">
        <ele>29.3</ele>
        <time>2000-01-01T05:54:04.000Z</time>
      </trkpt>
      <trkpt lat="48.2773" lon="-4.36815">
        <ele>28</ele>
        <time>2000-01-01T05:54:14.000Z</time>
      </trkpt>
      <trkpt lat="48.27734" lon="-4.36848">
        <ele>28</ele>
        <time>2000-01-01T05:54:24.000Z</time>
      </trkpt>
      <trkpt lat="48.27734" lon="-4.36895">
        <ele>28</ele>
        <time>2000-01-01T05:54:34.000Z</time>
      </trkpt>
      <trkpt lat="48.27743" lon="-4.36943">
        <ele>23</ele>
        <time>2000-01-01T05:54:44.000Z</time>
      </trkpt>
      <trkpt lat="48.27742" lon="-4.36977">
        <ele>19</ele>
        <time>2000-01-01T05:54:54.000Z</time>
      </trkpt>
      <trkpt lat="48.2774" lon="-4.37012">
        <ele>18</ele>
        <time>2000-01-01T05:55:04.000Z</time>
      </trkpt>
      <trkpt lat="48.27742" lon="-4.37037">
        <ele>25.4</ele>
        <time>2000-01-01T05:55:14.000Z</time>
      </trkpt>
      <trkpt lat="48.27752" lon="-4.37076">
        <ele>18</ele>
        <time>2000-01-01T05:55:24.000Z</time>
      </trkpt>
      <trkpt lat="48.27754" lon="-4.37113">
        <ele>18</ele>
        <time>2000-01-01T05:55:34.000Z</time>
      </trkpt>
      <trkpt lat="48.27761" lon="-4.37152">
        <ele>18</ele>
        <time>2000-01-01T05:55:44.000Z</time>
      </trkpt>
      <trkpt lat="48.27759" lon="-4.37189">
        <ele>18</ele>
        <time>2000-01-01T05:55:54.000Z</time>
      </trkpt>
      <trkpt lat="48.27756" lon="-4.37233">
        <ele>18</ele>
        <time>2000-01-01T05:56:04.000Z</time>
      </trkpt>
      <trkpt lat="48.27749" lon="-4.37267">
        <ele>18</ele>
        <time>2000-01-01T05:56:14.000Z</time>
      </trkpt>
      <trkpt lat="48.27741" lon="-4.37311">
        <ele>21</ele>
        <time>2000-01-01T05:56:24.000Z</time>
      </trkpt>
      <trkpt lat="48.27729" lon="-4.37344">
        <ele>21</ele>
        <time>2000-01-01T05:56:34.000Z</time>
      </trkpt>
      <trkpt lat="48.27716" lon="-4.37386">
        <ele>22</ele>
        <time>2000-01-01T05:56:44.000Z</time>
      </trkpt>
      <trkpt lat="48.27707" lon="-4.37425">
        <ele>20</ele>
        <time>2000-01-01T05:56:54.000Z</time>
      </trkpt>
      <trkpt lat="48.27697" lon="-4.37458">
        <ele>24</ele>
        <time>2000-01-01T05:57:04.000Z</time>
      </trkpt>
      <trkpt lat="48.27686" lon="-4.37494">
        <ele>29</ele>
        <time>2000-01-01T05:57:14.000Z</time>
      </trkpt>
      <trkpt lat="48.2768" lon="-4.37526">
        <ele>29</ele>
        <time>2000-01-01T05:57:24.000Z</time>
      </trkpt>
      <trkpt lat="48.27667" lon="-4.37569">
        <ele>27</ele>
        <time>2000-01-01T05:57:34.000Z</time>
      </trkpt>
      <trkpt lat="48.27652" lon="-4.37607">
        <ele>25</ele>
        <time>2000-01-01T05:57:44.000Z</time>
      </trkpt>
      <trkpt lat="48.2764" lon="-4.3764">
        <ele>24</ele>
        <time>2000-01-01T05:57:54.000Z</time>
      </trkpt>
      <trkpt lat="48.27623" lon="-4.37683">
        <ele>24</ele>
        <time>2000-01-01T05:58:04.000Z</time>
      </trkpt>
      <trkpt lat="48.2761" lon="-4.37732">
        <ele>28</ele>
        <time>2000-01-01T05:58:14.000Z</time>
      </trkpt>
      <trkpt lat="48.27598" lon="-4.3778">
        <ele>27</ele>
        <time>2000-01-01T05:58:24.000Z</time>
      </trkpt>
      <trkpt lat="48.27588" lon="-4.37816">
        <ele>26</ele>
        <time>2000-01-01T05:58:34.000Z</time>
      </trkpt>
      <trkpt lat="48.27576" lon="-4.37862">
        <ele>29</ele>
        <time>2000-01-01T05:58:44.000Z</time>
      </trkpt>
      <trkpt lat="48.27567" lon="-4.379">
        <ele>30</ele>
        <time>2000-01-01T05:58:54.000Z</time>
      </trkpt>
      <trkpt lat="48.27565" lon="-4.37933">
        <ele>29</ele>
        <time>2000-01-01T05:59:04.000Z</time>
      </trkpt>
      <trkpt lat="48.2756" lon="-4.37957">
        <ele>17.4</ele>
        <time>2000-01-01T05:59:14.000Z</time>
      </trkpt>
      <trkpt lat="48.27538" lon="-4.38031">
        <ele>28</ele>
        <time>2000-01-01T05:59:24.000Z</time>
      </trkpt>
      <trkpt lat="48.27532" lon="-4.38072">
        <ele>24</ele>
        <time>2000-01-01T05:59:34.000Z</time>
      </trkpt>
      <trkpt lat="48.27522" lon="-4.38139">
        <ele>25</ele>
        <time>2000-01-01T05:59:44.000Z</time>
      </trkpt>
      <trkpt lat="48.27519" lon="-4.3818">
        <ele>23</ele>
        <time>2000-01-01T05:59:54.000Z</time>
      </trkpt>
      <trkpt lat="48.27515" lon="-4.38244">
        <ele>22</ele>
        <time>2000-01-01T06:00:04.000Z</time>
      </trkpt>
      <trkpt lat="48.27511" lon="-4.38282">
        <ele>22</ele>
        <time>2000-01-01T06:00:14.000Z</time>
      </trkpt>
      <trkpt lat="48.27505" lon="-4.38335">
        <ele>22</ele>
        <time>2000-01-01T06:00:24.000Z</time>
      </trkpt>
      <trkpt lat="48.27499" lon="-4.38369">
        <ele>20</ele>
        <time>2000-01-01T06:00:34.000Z</time>
      </trkpt>
      <trkpt lat="48.27493" lon="-4.38406">
        <ele>17</ele>
        <time>2000-01-01T06:00:44.000Z</time>
      </trkpt>
      <trkpt lat="48.27493" lon="-4.38435">
        <ele>17</ele>
        <time>2000-01-01T06:00:54.000Z</time>
      </trkpt>
      <trkpt lat="48.27457" lon="-4.38454">
        <ele>35</ele>
        <time>2000-01-01T06:01:04.000Z</time>
      </trkpt>
      <trkpt lat="48.27455" lon="-4.3849">
        <ele>33</ele>
        <time>2000-01-01T06:01:14.000Z</time>
      </trkpt>
      <trkpt lat="48.27474" lon="-4.38503">
        <ele>34</ele>
        <time>2000-01-01T06:01:24.000Z</time>
      </trkpt>
      <trkpt lat="48.27484" lon="-4.38559">
        <ele>32</ele>
        <time>2000-01-01T06:01:34.000Z</time>
      </trkpt>
      <trkpt lat="48.27476" lon="-4.38589">
        <ele>30</ele>
        <time>2000-01-01T06:01:44.000Z</time>
      </trkpt>
      <trkpt lat="48.27482" lon="-4.38625">
        <ele>30</ele>
        <time>2000-01-01T06:01:54.000Z</time>
      </trkpt>
      <trkpt lat="48.27489" lon="-4.38667">
        <ele>31</ele>
        <time>2000-01-01T06:02:04.000Z</time>
      </trkpt>
      <trkpt lat="48.27487" lon="-4.38719">
        <ele>26</ele>
        <time>2000-01-01T06:02:14.000Z</time>
      </trkpt>
      <trkpt lat="48.2749" lon="-4.38765">
        <ele>22</ele>
        <time>2000-01-01T06:02:24.000Z</time>
      </trkpt>
      <trkpt lat="48.27492" lon="-4.38806">
        <ele>19</ele>
        <time>2000-01-01T06:02:34.000Z</time>
      </trkpt>
      <trkpt lat="48.27494" lon="-4.38872">
        <ele>17</ele>
        <time>2000-01-01T06:02:44.000Z</time>
      </trkpt>
      <trkpt lat="48.27493" lon="-4.38915">
        <ele>17</ele>
        <time>2000-01-01T06:02:54.000Z</time>
      </trkpt>
      <trkpt lat="48.27493" lon="-4.38952">
        <ele>16</ele>
        <time>2000-01-01T06:03:04.000Z</time>
      </trkpt>
      <trkpt lat="48.27492" lon="-4.38996">
        <ele>20</ele>
        <time>2000-01-01T06:03:14.000Z</time>
      </trkpt>
      <trkpt lat="48.27487" lon="-4.39042">
        <ele>21</ele>
        <time>2000-01-01T06:03:24.000Z</time>
      </trkpt>
      <trkpt lat="48.27481" lon="-4.39087">
        <ele>23</ele>
        <time>2000-01-01T06:03:34.000Z</time>
      </trkpt>
      <trkpt lat="48.27475" lon="-4.39141">
        <ele>23</ele>
        <time>2000-01-01T06:03:44.000Z</time>
      </trkpt>
      <trkpt lat="48.27469" lon="-4.39179">
        <ele>29</ele>
        <time>2000-01-01T06:03:54.000Z</time>
      </trkpt>
      <trkpt lat="48.2746" lon="-4.39234">
        <ele>30</ele>
        <time>2000-01-01T06:04:04.000Z</time>
      </trkpt>
      <trkpt lat="48.27457" lon="-4.39268">
        <ele>29</ele>
        <time>2000-01-01T06:04:14.000Z</time>
      </trkpt>
      <trkpt lat="48.27455" lon="-4.39302">
        <ele>29</ele>
        <time>2000-01-01T06:04:24.000Z</time>
      </trkpt>
      <trkpt lat="48.27453" lon="-4.39368">
        <ele>28</ele>
        <time>2000-01-01T06:04:34.000Z</time>
      </trkpt>
      <trkpt lat="48.27453" lon="-4.39405">
        <ele>27</ele>
        <time>2000-01-01T06:04:44.000Z</time>
      </trkpt>
      <trkpt lat="48.27453" lon="-4.39448">
        <ele>27</ele>
        <time>2000-01-01T06:04:54.000Z</time>
      </trkpt>
      <trkpt lat="48.2745" lon="-4.39485">
        <ele>22</ele>
        <time>2000-01-01T06:05:04.000Z</time>
      </trkpt>
      <trkpt lat="48.27446" lon="-4.39533">
        <ele>20</ele>
        <time>2000-01-01T06:05:14.000Z</time>
      </trkpt>
      <trkpt lat="48.2745" lon="-4.39584">
        <ele>20</ele>
        <time>2000-01-01T06:05:24.000Z</time>
      </trkpt>
      <trkpt lat="48.27447" lon="-4.39633">
        <ele>20</ele>
        <time>2000-01-01T06:05:34.000Z</time>
      </trkpt>
      <trkpt lat="48.27449" lon="-4.39672">
        <ele>22</ele>
        <time>2000-01-01T06:05:44.000Z</time>
      </trkpt>
      <trkpt lat="48.27451" lon="-4.39724">
        <ele>22</ele>
        <time>2000-01-01T06:05:54.000Z</time>
      </trkpt>
      <trkpt lat="48.27458" lon="-4.39778">
        <ele>18</ele>
        <time>2000-01-01T06:06:04.000Z</time>
      </trkpt>
      <trkpt lat="48.27463" lon="-4.39819">
        <ele>19</ele>
        <time>2000-01-01T06:06:14.000Z</time>
      </trkpt>
      <trkpt lat="48.2747" lon="-4.39884">
        <ele>20</ele>
        <time>2000-01-01T06:06:24.000Z</time>
      </trkpt>
      <trkpt lat="48.27477" lon="-4.39938">
        <ele>20</ele>
        <time>2000-01-01T06:06:34.000Z</time>
      </trkpt>
      <trkpt lat="48.27484" lon="-4.39999">
        <ele>20</ele>
        <time>2000-01-01T06:06:44.000Z</time>
      </trkpt>
      <trkpt lat="48.27487" lon="-4.40036">
        <ele>18</ele>
        <time>2000-01-01T06:06:54.000Z</time>
      </trkpt>
      <trkpt lat="48.27491" lon="-4.40083">
        <ele>24</ele>
        <time>2000-01-01T06:07:04.000Z</time>
      </trkpt>
      <trkpt lat="48.27486" lon="-4.40117">
        <ele>22</ele>
        <time>2000-01-01T06:07:14.000Z</time>
      </trkpt>
      <trkpt lat="48.27496" lon="-4.40152">
        <ele>22</ele>
        <time>2000-01-01T06:07:24.000Z</time>
      </trkpt>
      <trkpt lat="48.27511" lon="-4.402">
        <ele>22</ele>
        <time>2000-01-01T06:07:34.000Z</time>
      </trkpt>
      <trkpt lat="48.27513" lon="-4.4025">
        <ele>20</ele>
        <time>2000-01-01T06:07:44.000Z</time>
      </trkpt>
      <trkpt lat="48.27523" lon="-4.40311">
        <ele>18</ele>
        <time>2000-01-01T06:07:54.000Z</time>
      </trkpt>
      <trkpt lat="48.27521" lon="-4.40362">
        <ele>18</ele>
        <time>2000-01-01T06:08:04.000Z</time>
      </trkpt>
      <trkpt lat="48.27525" lon="-4.40403">
        <ele>26</ele>
        <time>2000-01-01T06:08:14.000Z</time>
      </trkpt>
      <trkpt lat="48.27532" lon="-4.40436">
        <ele>32</ele>
        <time>2000-01-01T06:08:24.000Z</time>
      </trkpt>
      <trkpt lat="48.2754" lon="-4.40472">
        <ele>34</ele>
        <time>2000-01-01T06:08:34.000Z</time>
      </trkpt>
      <trkpt lat="48.27536" lon="-4.40521">
        <ele>34</ele>
        <time>2000-01-01T06:08:44.000Z</time>
      </trkpt>
      <trkpt lat="48.27527" lon="-4.40581">
        <ele>33</ele>
        <time>2000-01-01T06:08:54.000Z</time>
      </trkpt>
      <trkpt lat="48.2753" lon="-4.40636">
        <ele>30</ele>
        <time>2000-01-01T06:09:04.000Z</time>
      </trkpt>
      <trkpt lat="48.2753" lon="-4.40683">
        <ele>28</ele>
        <time>2000-01-01T06:09:14.000Z</time>
      </trkpt>
      <trkpt lat="48.27535" lon="-4.40733">
        <ele>28</ele>
        <time>2000-01-01T06:09:24.000Z</time>
      </trkpt>
      <trkpt lat="48.27534" lon="-4.40773">
        <ele>26</ele>
        <time>2000-01-01T06:09:34.000Z</time>
      </trkpt>
      <trkpt lat="48.27533" lon="-4.4083">
        <ele>25</ele>
        <time>2000-01-01T06:09:44.000Z</time>
      </trkpt>
      <trkpt lat="48.27537" lon="-4.40879">
        <ele>23</ele>
        <time>2000-01-01T06:09:54.000Z</time>
      </trkpt>
      <trkpt lat="48.27542" lon="-4.40919">
        <ele>22</ele>
        <time>2000-01-01T06:10:04.000Z</time>
      </trkpt>
      <trkpt lat="48.27555" lon="-4.40944">
        <ele>19</ele>
        <time>2000-01-01T06:10:14.000Z</time>
      </trkpt>
      <trkpt lat="48.27568" lon="-4.4099">
        <ele>20</ele>
        <time>2000-01-01T06:10:24.000Z</time>
      </trkpt>
      <trkpt lat="48.27546" lon="-4.40993">
        <ele>21</ele>
        <time>2000-01-01T06:10:34.000Z</time>
      </trkpt>
      <trkpt lat="48.27539" lon="-4.40993">
        <ele>11</ele>
        <time>2000-01-01T06:10:44.000Z</time>
      </trkpt>
      <trkpt lat="48.27451" lon="-4.41041">
        <ele>35</ele>
        <time>2000-01-01T06:10:54.000Z</time>
      </trkpt>
      <trkpt lat="48.27436" lon="-4.41051">
        <ele>24.8</ele>
        <time>2000-01-01T06:11:04.000Z</time>
      </trkpt>
      <trkpt lat="48.27428" lon="-4.41066">
        <ele>38</ele>
        <time>2000-01-01T06:11:14.000Z</time>
      </trkpt>
      <trkpt lat="48.27419" lon="-4.41104">
        <ele>38</ele>
        <time>2000-01-01T06:11:24.000Z</time>
      </trkpt>
      <trkpt lat="48.27406" lon="-4.4116">
        <ele>43</ele>
        <time>2000-01-01T06:11:34.000Z</time>
      </trkpt>
      <trkpt lat="48.27398" lon="-4.41206">
        <ele>45</ele>
        <time>2000-01-01T06:11:44.000Z</time>
      </trkpt>
      <trkpt lat="48.27392" lon="-4.41257">
        <ele>46</ele>
        <time>2000-01-01T06:11:54.000Z</time>
      </trkpt>
      <trkpt lat="48.27388" lon="-4.41311">
        <ele>46</ele>
        <time>2000-01-01T06:12:04.000Z</time>
      </trkpt>
      <trkpt lat="48.27388" lon="-4.41361">
        <ele>45</ele>
        <time>2000-01-01T06:12:14.000Z</time>
      </trkpt>
      <trkpt lat="48.27384" lon="-4.41406">
        <ele>46</ele>
        <time>2000-01-01T06:12:24.000Z</time>
      </trkpt>
      <trkpt lat="48.27378" lon="-4.41444">
        <ele>47</ele>
        <time>2000-01-01T06:12:34.000Z</time>
      </trkpt>
      <trkpt lat="48.27373" lon="-4.41452">
        <ele>49</ele>
        <time>2000-01-01T06:12:44.000Z</time>
      </trkpt>
      <trkpt lat="48.27386" lon="-4.41481">
        <ele>49</ele>
        <time>2000-01-01T06:12:54.000Z</time>
      </trkpt>
      <trkpt lat="48.27395" lon="-4.41505">
        <ele>49</ele>
        <time>2000-01-01T06:13:04.000Z</time>
      </trkpt>
      <trkpt lat="48.27401" lon="-4.41543">
        <ele>49</ele>
        <time>2000-01-01T06:13:14.000Z</time>
      </trkpt>
      <trkpt lat="48.27409" lon="-4.41593">
        <ele>49</ele>
        <time>2000-01-01T06:13:24.000Z</time>
      </trkpt>
      <trkpt lat="48.27415" lon="-4.41651">
        <ele>43</ele>
        <time>2000-01-01T06:13:34.000Z</time>
      </trkpt>
      <trkpt lat="48.27427" lon="-4.41708">
        <ele>37</ele>
        <time>2000-01-01T06:13:44.000Z</time>
      </trkpt>
      <trkpt lat="48.27433" lon="-4.41744">
        <ele>35</ele>
        <time>2000-01-01T06:13:54.000Z</time>
      </trkpt>
      <trkpt lat="48.27448" lon="-4.41781">
        <ele>32</ele>
        <time>2000-01-01T06:14:04.000Z</time>
      </trkpt>
      <trkpt lat="48.27454" lon="-4.41818">
        <ele>30</ele>
        <time>2000-01-01T06:14:14.000Z</time>
      </trkpt>
      <trkpt lat="48.2746" lon="-4.41866">
        <ele>30</ele>
        <time>2000-01-01T06:14:24.000Z</time>
      </trkpt>
      <trkpt lat="48.27466" lon="-4.41897">
        <ele>32</ele>
        <time>2000-01-01T06:14:34.000Z</time>
      </trkpt>
      <trkpt lat="48.2747" lon="-4.41932">
        <ele>40</ele>
        <time>2000-01-01T06:14:44.000Z</time>
      </trkpt>
      <trkpt lat="48.27462" lon="-4.41975">
        <ele>41</ele>
        <time>2000-01-01T06:14:54.000Z</time>
      </trkpt>
      <trkpt lat="48.27455" lon="-4.42032">
        <ele>49</ele>
        <time>2000-01-01T06:15:04.000Z</time>
      </trkpt>
      <trkpt lat="48.27446" lon="-4.42056">
        <ele>48</ele>
        <time>2000-01-01T06:15:14.000Z</time>
      </trkpt>
      <trkpt lat="48.2744" lon="-4.42087">
        <ele>49</ele>
        <time>2000-01-01T06:15:24.000Z</time>
      </trkpt>
      <trkpt lat="48.27418" lon="-4.42125">
        <ele>51</ele>
        <time>2000-01-01T06:15:34.000Z</time>
      </trkpt>
      <trkpt lat="48.27404" lon="-4.42143">
        <ele>50</ele>
        <time>2000-01-01T06:15:44.000Z</time>
      </trkpt>
      <trkpt lat="48.27388" lon="-4.4218">
        <ele>50</ele>
        <time>2000-01-01T06:15:54.000Z</time>
      </trkpt>
      <trkpt lat="48.27373" lon="-4.42206">
        <ele>48</ele>
        <time>2000-01-01T06:16:04.000Z</time>
      </trkpt>
      <trkpt lat="48.27368" lon="-4.42225">
        <ele>37.5</ele>
        <time>2000-01-01T06:16:14.000Z</time>
      </trkpt>
      <trkpt lat="48.27356" lon="-4.42224">
        <ele>48</ele>
        <time>2000-01-01T06:16:24.000Z</time>
      </trkpt>
      <trkpt lat="48.27345" lon="-4.42228">
        <ele>39.2</ele>
        <time>2000-01-01T06:16:34.000Z</time>
      </trkpt>
      <trkpt lat="48.2734" lon="-4.42224">
        <ele>39.5</ele>
        <time>2000-01-01T06:16:44.000Z</time>
      </trkpt>
      <trkpt lat="48.27316" lon="-4.42187">
        <ele>49</ele>
        <time>2000-01-01T06:16:54.000Z</time>
      </trkpt>
      <trkpt lat="48.27309" lon="-4.42185">
        <ele>44.5</ele>
        <time>2000-01-01T06:17:04.000Z</time>
      </trkpt>
      <trkpt lat="48.27288" lon="-4.42205">
        <ele>51</ele>
        <time>2000-01-01T06:17:14.000Z</time>
      </trkpt>
      <trkpt lat="48.2726" lon="-4.42228">
        <ele>56</ele>
        <time>2000-01-01T06:17:24.000Z</time>
      </trkpt>
      <trkpt lat="48.27228" lon="-4.42259">
        <ele>62</ele>
        <time>2000-01-01T06:17:34.000Z</time>
      </trkpt>
      <trkpt lat="48.27213" lon="-4.42263">
        <ele>58.5</ele>
        <time>2000-01-01T06:17:44.000Z</time>
      </trkpt>
      <trkpt lat="48.27192" lon="-4.42258">
        <ele>65</ele>
        <time>2000-01-01T06:17:54.000Z</time>
      </trkpt>
      <trkpt lat="48.27169" lon="-4.42248">
        <ele>65</ele>
        <time>2000-01-01T06:18:04.000Z</time>
      </trkpt>
      <trkpt lat="48.27142" lon="-4.42237">
        <ele>59</ele>
        <time>2000-01-01T06:18:14.000Z</time>
      </trkpt>
      <trkpt lat="48.2713" lon="-4.42234">
        <ele>67.3</ele>
        <time>2000-01-01T06:18:24.000Z</time>
      </trkpt>
      <trkpt lat="48.27105" lon="-4.42232">
        <ele>59</ele>
        <time>2000-01-01T06:18:34.000Z</time>
      </trkpt>
      <trkpt lat="48.27078" lon="-4.42243">
        <ele>58</ele>
        <time>2000-01-01T06:18:44.000Z</time>
      </trkpt>
      <trkpt lat="48.2708" lon="-4.42278">
        <ele>58</ele>
        <time>2000-01-01T06:18:54.000Z</time>
      </trkpt>
      <trkpt lat="48.27082" lon="-4.42314">
        <ele>66</ele>
        <time>2000-01-01T06:19:04.000Z</time>
      </trkpt>
      <trkpt lat="48.27081" lon="-4.42358">
        <ele>66</ele>
        <time>2000-01-01T06:19:14.000Z</time>
      </trkpt>
      <trkpt lat="48.27079" lon="-4.42444">
        <ele>66</ele>
        <time>2000-01-01T06:19:24.000Z</time>
      </trkpt>
      <trkpt lat="48.27079" lon="-4.42484">
        <ele>65</ele>
        <time>2000-01-01T06:19:34.000Z</time>
      </trkpt>
      <trkpt lat="48.27079" lon="-4.42542">
        <ele>65</ele>
        <time>2000-01-01T06:19:44.000Z</time>
      </trkpt>
      <trkpt lat="48.27075" lon="-4.42579">
        <ele>65</ele>
        <time>2000-01-01T06:19:54.000Z</time>
      </trkpt>
      <trkpt lat="48.2707" lon="-4.42625">
        <ele>62</ele>
        <time>2000-01-01T06:20:04.000Z</time>
      </trkpt>
      <trkpt lat="48.27068" lon="-4.42688">
        <ele>59</ele>
        <time>2000-01-01T06:20:14.000Z</time>
      </trkpt>
      <trkpt lat="48.27069" lon="-4.42727">
        <ele>59</ele>
        <time>2000-01-01T06:20:24.000Z</time>
      </trkpt>
      <trkpt lat="48.27073" lon="-4.42781">
        <ele>59</ele>
        <time>2000-01-01T06:20:34.000Z</time>
      </trkpt>
      <trkpt lat="48.27082" lon="-4.42792">
        <ele>63.1</ele>
        <time>2000-01-01T06:20:44.000Z</time>
      </trkpt>
      <trkpt lat="48.27096" lon="-4.42799">
        <ele>60</ele>
        <time>2000-01-01T06:20:54.000Z</time>
      </trkpt>
      <trkpt lat="48.27124" lon="-4.42809">
        <ele>59</ele>
        <time>2000-01-01T06:21:04.000Z</time>
      </trkpt>
      <trkpt lat="48.27146" lon="-4.42818">
        <ele>58</ele>
        <time>2000-01-01T06:21:14.000Z</time>
      </trkpt>
      <trkpt lat="48.2717" lon="-4.42827">
        <ele>50</ele>
        <time>2000-01-01T06:21:24.000Z</time>
      </trkpt>
      <trkpt lat="48.272" lon="-4.42834">
        <ele>46</ele>
        <time>2000-01-01T06:21:34.000Z</time>
      </trkpt>
      <trkpt lat="48.27231" lon="-4.42841">
        <ele>39</ele>
        <time>2000-01-01T06:21:44.000Z</time>
      </trkpt>
      <trkpt lat="48.27266" lon="-4.42849">
        <ele>31</ele>
        <time>2000-01-01T06:21:54.000Z</time>
      </trkpt>
      <trkpt lat="48.27299" lon="-4.42865">
        <ele>31</ele>
        <time>2000-01-01T06:22:04.000Z</time>
      </trkpt>
      <trkpt lat="48.27318" lon="-4.4287">
        <ele>31</ele>
        <time>2000-01-01T06:22:14.000Z</time>
      </trkpt>
      <trkpt lat="48.27346" lon="-4.42885">
        <ele>31</ele>
        <time>2000-01-01T06:22:24.000Z</time>
      </trkpt>
      <trkpt lat="48.27398" lon="-4.42914">
        <ele>20</ele>
        <time>2000-01-01T06:22:34.000Z</time>
      </trkpt>
      <trkpt lat="48.27421" lon="-4.42932">
        <ele>20</ele>
        <time>2000-01-01T06:22:44.000Z</time>
      </trkpt>
      <trkpt lat="48.2745" lon="-4.42956">
        <ele>26</ele>
        <time>2000-01-01T06:22:54.000Z</time>
      </trkpt>
      <trkpt lat="48.27485" lon="-4.42992">
        <ele>28</ele>
        <time>2000-01-01T06:23:04.000Z</time>
      </trkpt>
      <trkpt lat="48.27505" lon="-4.43021">
        <ele>31</ele>
        <time>2000-01-01T06:23:14.000Z</time>
      </trkpt>
      <trkpt lat="48.2752" lon="-4.43063">
        <ele>38</ele>
        <time>2000-01-01T06:23:24.000Z</time>
      </trkpt>
      <trkpt lat="48.2752" lon="-4.43099">
        <ele>37</ele>
        <time>2000-01-01T06:23:34.000Z</time>
      </trkpt>
      <trkpt lat="48.2752" lon="-4.43141">
        <ele>36</ele>
        <time>2000-01-01T06:23:44.000Z</time>
      </trkpt>
      <trkpt lat="48.27519" lon="-4.4318">
        <ele>40</ele>
        <time>2000-01-01T06:23:54.000Z</time>
      </trkpt>
      <trkpt lat="48.27521" lon="-4.43217">
        <ele>45</ele>
        <time>2000-01-01T06:24:04.000Z</time>
      </trkpt>
      <trkpt lat="48.27522" lon="-4.4326">
        <ele>45</ele>
        <time>2000-01-01T06:24:14.000Z</time>
      </trkpt>
      <trkpt lat="48.27525" lon="-4.43308">
        <ele>48</ele>
        <time>2000-01-01T06:24:24.000Z</time>
      </trkpt>
      <trkpt lat="48.27522" lon="-4.43345">
        <ele>47</ele>
        <time>2000-01-01T06:24:34.000Z</time>
      </trkpt>
      <trkpt lat="48.27519" lon="-4.43392">
        <ele>47</ele>
        <time>2000-01-01T06:24:44.000Z</time>
      </trkpt>
      <trkpt lat="48.27515" lon="-4.43429">
        <ele>49</ele>
        <time>2000-01-01T06:24:54.000Z</time>
      </trkpt>
      <trkpt lat="48.27511" lon="-4.43454">
        <ele>43.3</ele>
        <time>2000-01-01T06:25:04.000Z</time>
      </trkpt>
      <trkpt lat="48.2751" lon="-4.43486">
        <ele>55</ele>
        <time>2000-01-01T06:25:14.000Z</time>
      </trkpt>
      <trkpt lat="48.27502" lon="-4.43524">
        <ele>57</ele>
        <time>2000-01-01T06:25:24.000Z</time>
      </trkpt>
      <trkpt lat="48.27491" lon="-4.43577">
        <ele>54</ele>
        <time>2000-01-01T06:25:34.000Z</time>
      </trkpt>
      <trkpt lat="48.27481" lon="-4.43611">
        <ele>51</ele>
        <time>2000-01-01T06:25:44.000Z</time>
      </trkpt>
      <trkpt lat="48.27469" lon="-4.43653">
        <ele>51</ele>
        <time>2000-01-01T06:25:54.000Z</time>
      </trkpt>
      <trkpt lat="48.27474" lon="-4.43699">
        <ele>52</ele>
        <time>2000-01-01T06:26:04.000Z</time>
      </trkpt>
      <trkpt lat="48.2748" lon="-4.43745">
        <ele>51</ele>
        <time>2000-01-01T06:26:14.000Z</time>
      </trkpt>
      <trkpt lat="48.27486" lon="-4.43803">
        <ele>51</ele>
        <time>2000-01-01T06:26:24.000Z</time>
      </trkpt>
      <trkpt lat="48.27488" lon="-4.4384">
        <ele>51</ele>
        <time>2000-01-01T06:26:34.000Z</time>
      </trkpt>
      <trkpt lat="48.27491" lon="-4.43886">
        <ele>55</ele>
        <time>2000-01-01T06:26:44.000Z</time>
      </trkpt>
      <trkpt lat="48.27492" lon="-4.43951">
        <ele>56</ele>
        <time>2000-01-01T06:26:54.000Z</time>
      </trkpt>
      <trkpt lat="48.27496" lon="-4.4399">
        <ele>56</ele>
        <time>2000-01-01T06:27:04.000Z</time>
      </trkpt>
      <trkpt lat="48.27493" lon="-4.44035">
        <ele>56</ele>
        <time>2000-01-01T06:27:14.000Z</time>
      </trkpt>
      <trkpt lat="48.27484" lon="-4.44068">
        <ele>56</ele>
        <time>2000-01-01T06:27:24.000Z</time>
      </trkpt>
      <trkpt lat="48.27474" lon="-4.44104">
        <ele>55</ele>
        <time>2000-01-01T06:27:34.000Z</time>
      </trkpt>
      <trkpt lat="48.27459" lon="-4.44142">
        <ele>53</ele>
        <time>2000-01-01T06:27:44.000Z</time>
      </trkpt>
      <trkpt lat="48.27454" lon="-4.44183">
        <ele>53</ele>
        <time>2000-01-01T06:27:54.000Z</time>
      </trkpt>
      <trkpt lat="48.27447" lon="-4.44228">
        <ele>53</ele>
        <time>2000-01-01T06:28:04.000Z</time>
      </trkpt>
      <trkpt lat="48.27439" lon="-4.44274">
        <ele>53</ele>
        <time>2000-01-01T06:28:14.000Z</time>
      </trkpt>
      <trkpt lat="48.27431" lon="-4.44319">
        <ele>53</ele>
        <time>2000-01-01T06:28:24.000Z</time>
      </trkpt>
      <trkpt lat="48.2742" lon="-4.44381">
        <ele>54</ele>
        <time>2000-01-01T06:28:34.000Z</time>
      </trkpt>
      <trkpt lat="48.27404" lon="-4.44417">
        <ele>55</ele>
        <time>2000-01-01T06:28:44.000Z</time>
      </trkpt>
      <trkpt lat="48.27382" lon="-4.44474">
        <ele>57</ele>
        <time>2000-01-01T06:28:54.000Z</time>
      </trkpt>
      <trkpt lat="48.27371" lon="-4.44518">
        <ele>60</ele>
        <time>2000-01-01T06:29:04.000Z</time>
      </trkpt>
      <trkpt lat="48.27353" lon="-4.44536">
        <ele>60</ele>
        <time>2000-01-01T06:29:14.000Z</time>
      </trkpt>
      <trkpt lat="48.27345" lon="-4.44547">
        <ele>53.2</ele>
        <time>2000-01-01T06:29:24.000Z</time>
      </trkpt>
      <trkpt lat="48.27297" lon="-4.44565">
        <ele>49</ele>
        <time>2000-01-01T06:29:34.000Z</time>
      </trkpt>
      <trkpt lat="48.27274" lon="-4.44566">
        <ele>49</ele>
        <time>2000-01-01T06:29:44.000Z</time>
      </trkpt>
      <trkpt lat="48.27251" lon="-4.44566">
        <ele>49</ele>
        <time>2000-01-01T06:29:54.000Z</time>
      </trkpt>
      <trkpt lat="48.27238" lon="-4.44573">
        <ele>49.2</ele>
        <time>2000-01-01T06:30:04.000Z</time>
      </trkpt>
      <trkpt lat="48.2721" lon="-4.44613">
        <ele>43</ele>
        <time>2000-01-01T06:30:14.000Z</time>
      </trkpt>
      <trkpt lat="48.27176" lon="-4.44647">
        <ele>38</ele>
        <time>2000-01-01T06:30:24.000Z</time>
      </trkpt>
      <trkpt lat="48.27157" lon="-4.44661">
        <ele>35</ele>
        <time>2000-01-01T06:30:34.000Z</time>
      </trkpt>
      <trkpt lat="48.27132" lon="-4.44678">
        <ele>35</ele>
        <time>2000-01-01T06:30:44.000Z</time>
      </trkpt>
      <trkpt lat="48.27115" lon="-4.44688">
        <ele>39</ele>
        <time>2000-01-01T06:30:54.000Z</time>
      </trkpt>
      <trkpt lat="48.27089" lon="-4.44706">
        <ele>41</ele>
        <time>2000-01-01T06:31:04.000Z</time>
      </trkpt>
      <trkpt lat="48.27062" lon="-4.44716">
        <ele>44</ele>
        <time>2000-01-01T06:31:14.000Z</time>
      </trkpt>
      <trkpt lat="48.27038" lon="-4.44739">
        <ele>46</ele>
        <time>2000-01-01T06:31:24.000Z</time>
      </trkpt>
      <trkpt lat="48.27037" lon="-4.44788">
        <ele>48</ele>
        <time>2000-01-01T06:31:34.000Z</time>
      </trkpt>
      <trkpt lat="48.27033" lon="-4.44844">
        <ele>48</ele>
        <time>2000-01-01T06:31:44.000Z</time>
      </trkpt>
      <trkpt lat="48.27028" lon="-4.44903">
        <ele>49</ele>
        <time>2000-01-01T06:31:54.000Z</time>
      </trkpt>
      <trkpt lat="48.27025" lon="-4.44954">
        <ele>50</ele>
        <time>2000-01-01T06:32:04.000Z</time>
      </trkpt>
      <trkpt lat="48.2702" lon="-4.45004">
        <ele>51</ele>
        <time>2000-01-01T06:32:14.000Z</time>
      </trkpt>
      <trkpt lat="48.27022" lon="-4.45056">
        <ele>51</ele>
        <time>2000-01-01T06:32:24.000Z</time>
      </trkpt>
      <trkpt lat="48.27017" lon="-4.4509">
        <ele>51</ele>
        <time>2000-01-01T06:32:34.000Z</time>
      </trkpt>
      <trkpt lat="48.2702" lon="-4.45131">
        <ele>52</ele>
        <time>2000-01-01T06:32:44.000Z</time>
      </trkpt>
      <trkpt lat="48.27025" lon="-4.45169">
        <ele>53</ele>
        <time>2000-01-01T06:32:54.000Z</time>
      </trkpt>
      <trkpt lat="48.27031" lon="-4.45222">
        <ele>53</ele>
        <time>2000-01-01T06:33:04.000Z</time>
      </trkpt>
      <trkpt lat="48.27038" lon="-4.45255">
        <ele>56</ele>
        <time>2000-01-01T06:33:14.000Z</time>
      </trkpt>
      <trkpt lat="48.27051" lon="-4.45287">
        <ele>55</ele>
        <time>2000-01-01T06:33:24.000Z</time>
      </trkpt>
      <trkpt lat="48.27066" lon="-4.45326">
        <ele>55</ele>
        <time>2000-01-01T06:33:34.000Z</time>
      </trkpt>
      <trkpt lat="48.2707" lon="-4.45344">
        <ele>55.5</ele>
        <time>2000-01-01T06:33:44.000Z</time>
      </trkpt>
      <trkpt lat="48.27079" lon="-4.45349">
        <ele>55</ele>
        <time>2000-01-01T06:33:54.000Z</time>
      </trkpt>
      <trkpt lat="48.27101" lon="-4.45357">
        <ele>55</ele>
        <time>2000-01-01T06:34:04.000Z</time>
      </trkpt>
      <trkpt lat="48.27125" lon="-4.45366">
        <ele>55</ele>
        <time>2000-01-01T06:34:14.000Z</time>
      </trkpt>
      <trkpt lat="48.27152" lon="-4.45374">
        <ele>55</ele>
        <time>2000-01-01T06:34:24.000Z</time>
      </trkpt>
      <trkpt lat="48.27198" lon="-4.45386">
        <ele>55</ele>
        <time>2000-01-01T06:34:34.000Z</time>
      </trkpt>
      <trkpt lat="48.27229" lon="-4.45388">
        <ele>54</ele>
        <time>2000-01-01T06:34:44.000Z</time>
      </trkpt>
      <trkpt lat="48.27259" lon="-4.45389">
        <ele>51</ele>
        <time>2000-01-01T06:34:54.000Z</time>
      </trkpt>
      <trkpt lat="48.27294" lon="-4.45392">
        <ele>51</ele>
        <time>2000-01-01T06:35:04.000Z</time>
      </trkpt>
      <trkpt lat="48.27328" lon="-4.45389">
        <ele>49</ele>
        <time>2000-01-01T06:35:14.000Z</time>
      </trkpt>
      <trkpt lat="48.27362" lon="-4.45386">
        <ele>45</ele>
        <time>2000-01-01T06:35:24.000Z</time>
      </trkpt>
      <trkpt lat="48.27395" lon="-4.45383">
        <ele>45</ele>
        <time>2000-01-01T06:35:34.000Z</time>
      </trkpt>
      <trkpt lat="48.27432" lon="-4.4538">
        <ele>49</ele>
        <time>2000-01-01T06:35:44.000Z</time>
      </trkpt>
      <trkpt lat="48.27452" lon="-4.45369">
        <ele>48</ele>
        <time>2000-01-01T06:35:54.000Z</time>
      </trkpt>
      <trkpt lat="48.27459" lon="-4.4537">
        <ele>64</ele>
        <time>2000-01-01T06:36:04.000Z</time>
      </trkpt>
      <trkpt lat="48.27462" lon="-4.45366">
        <ele>64.3</ele>
        <time>2000-01-01T06:36:14.000Z</time>
      </trkpt>
      <trkpt lat="48.27478" lon="-4.45365">
        <ele>47</ele>
        <time>2000-01-01T06:36:24.000Z</time>
      </trkpt>
      <trkpt lat="48.27502" lon="-4.45369">
        <ele>43</ele>
        <time>2000-01-01T06:36:34.000Z</time>
      </trkpt>
      <trkpt lat="48.27529" lon="-4.45374">
        <ele>53</ele>
        <time>2000-01-01T06:36:44.000Z</time>
      </trkpt>
      <trkpt lat="48.27534" lon="-4.45373">
        <ele>67.4</ele>
        <time>2000-01-01T06:36:54.000Z</time>
      </trkpt>
      <trkpt lat="48.27539" lon="-4.45364">
        <ele>67.8</ele>
        <time>2000-01-01T06:37:04.000Z</time>
      </trkpt>
      <trkpt lat="48.27573" lon="-4.45269">
        <ele>57</ele>
        <time>2000-01-01T06:37:14.000Z</time>
      </trkpt>
      <trkpt lat="48.27588" lon="-4.45304">
        <ele>61</ele>
        <time>2000-01-01T06:37:24.000Z</time>
      </trkpt>
      <trkpt lat="48.2761" lon="-4.4536">
        <ele>64</ele>
        <time>2000-01-01T06:37:34.000Z</time>
      </trkpt>
      <trkpt lat="48.27632" lon="-4.45371">
        <ele>68</ele>
        <time>2000-01-01T06:37:44.000Z</time>
      </trkpt>
      <trkpt lat="48.27657" lon="-4.4538">
        <ele>68</ele>
        <time>2000-01-01T06:37:54.000Z</time>
      </trkpt>
      <trkpt lat="48.27693" lon="-4.45392">
        <ele>68</ele>
        <time>2000-01-01T06:38:04.000Z</time>
      </trkpt>
      <trkpt lat="48.27723" lon="-4.45418">
        <ele>68</ele>
        <time>2000-01-01T06:38:14.000Z</time>
      </trkpt>
      <trkpt lat="48.27739" lon="-4.45448">
        <ele>64</ele>
        <time>2000-01-01T06:38:24.000Z</time>
      </trkpt>
      <trkpt lat="48.27748" lon="-4.45479">
        <ele>63</ele>
        <time>2000-01-01T06:38:34.000Z</time>
      </trkpt>
      <trkpt lat="48.27757" lon="-4.45511">
        <ele>63</ele>
        <time>2000-01-01T06:38:44.000Z</time>
      </trkpt>
      <trkpt lat="48.27775" lon="-4.4556">
        <ele>64</ele>
        <time>2000-01-01T06:38:54.000Z</time>
      </trkpt>
      <trkpt lat="48.27798" lon="-4.45573">
        <ele>63</ele>
        <time>2000-01-01T06:39:04.000Z</time>
      </trkpt>
      <trkpt lat="48.27826" lon="-4.45589">
        <ele>63</ele>
        <time>2000-01-01T06:39:14.000Z</time>
      </trkpt>
      <trkpt lat="48.27844" lon="-4.45604">
        <ele>60</ele>
        <time>2000-01-01T06:39:24.000Z</time>
      </trkpt>
      <trkpt lat="48.27867" lon="-4.45634">
        <ele>57</ele>
        <time>2000-01-01T06:39:34.000Z</time>
      </trkpt>
      <trkpt lat="48.27887" lon="-4.45659">
        <ele>55</ele>
        <time>2000-01-01T06:39:44.000Z</time>
      </trkpt>
      <trkpt lat="48.27916" lon="-4.45695">
        <ele>55</ele>
        <time>2000-01-01T06:39:54.000Z</time>
      </trkpt>
      <trkpt lat="48.27946" lon="-4.45715">
        <ele>55</ele>
        <time>2000-01-01T06:40:04.000Z</time>
      </trkpt>
      <trkpt lat="48.27964" lon="-4.4572">
        <ele>62</ele>
        <time>2000-01-01T06:40:14.000Z</time>
      </trkpt>
      <trkpt lat="48.2798" lon="-4.45719">
        <ele>65.1</ele>
        <time>2000-01-01T06:40:24.000Z</time>
      </trkpt>
      <trkpt lat="48.28034" lon="-4.45723">
        <ele>65</ele>
        <time>2000-01-01T06:40:34.000Z</time>
      </trkpt>
      <trkpt lat="48.28058" lon="-4.45737">
        <ele>64</ele>
        <time>2000-01-01T06:40:44.000Z</time>
      </trkpt>
      <trkpt lat="48.2809" lon="-4.45757">
        <ele>64</ele>
        <time>2000-01-01T06:40:54.000Z</time>
      </trkpt>
      <trkpt lat="48.2812" lon="-4.45776">
        <ele>64</ele>
        <time>2000-01-01T06:41:04.000Z</time>
      </trkpt>
      <trkpt lat="48.28142" lon="-4.45792">
        <ele>65</ele>
        <time>2000-01-01T06:41:14.000Z</time>
      </trkpt>
      <trkpt lat="48.28168" lon="-4.45811">
        <ele>64</ele>
        <time>2000-01-01T06:41:24.000Z</time>
      </trkpt>
      <trkpt lat="48.28194" lon="-4.45824">
        <ele>63</ele>
        <time>2000-01-01T06:41:34.000Z</time>
      </trkpt>
      <trkpt lat="48.28234" lon="-4.45843">
        <ele>63</ele>
        <time>2000-01-01T06:41:44.000Z</time>
      </trkpt>
      <trkpt lat="48.28266" lon="-4.4586">
        <ele>64</ele>
        <time>2000-01-01T06:41:54.000Z</time>
      </trkpt>
      <trkpt lat="48.28308" lon="-4.4588">
        <ele>65</ele>
        <time>2000-01-01T06:42:04.000Z</time>
      </trkpt>
      <trkpt lat="48.28319" lon="-4.4589">
        <ele>74</ele>
        <time>2000-01-01T06:42:14.000Z</time>
      </trkpt>
      <trkpt lat="48.28328" lon="-4.45895">
        <ele>65</ele>
        <time>2000-01-01T06:42:24.000Z</time>
      </trkpt>
      <trkpt lat="48.28328" lon="-4.459">
        <ele>74.6</ele>
        <time>2000-01-01T06:42:34.000Z</time>
      </trkpt>
      <trkpt lat="48.2833" lon="-4.4591">
        <ele>74.8</ele>
        <time>2000-01-01T06:42:44.000Z</time>
      </trkpt>
      <trkpt lat="48.28336" lon="-4.45916">
        <ele>75</ele>
        <time>2000-01-01T06:42:54.000Z</time>
      </trkpt>
      <trkpt lat="48.28343" lon="-4.45917">
        <ele>65</ele>
        <time>2000-01-01T06:43:04.000Z</time>
      </trkpt>
      <trkpt lat="48.28347" lon="-4.45913">
        <ele>75.1</ele>
        <time>2000-01-01T06:43:14.000Z</time>
      </trkpt>
      <trkpt lat="48.2835" lon="-4.45908">
        <ele>75.2</ele>
        <time>2000-01-01T06:43:24.000Z</time>
      </trkpt>
      <trkpt lat="48.28363" lon="-4.45917">
        <ele>64</ele>
        <time>2000-01-01T06:43:34.000Z</time>
      </trkpt>
      <trkpt lat="48.28384" lon="-4.4596">
        <ele>63</ele>
        <time>2000-01-01T06:43:44.000Z</time>
      </trkpt>
      <trkpt lat="48.28399" lon="-4.45988">
        <ele>63</ele>
        <time>2000-01-01T06:43:54.000Z</time>
      </trkpt>
      <trkpt lat="48.28411" lon="-4.46004">
        <ele>74.2</ele>
        <time>2000-01-01T06:44:04.000Z</time>
      </trkpt>
      <trkpt lat="48.28508" lon="-4.46064">
        <ele>62</ele>
        <time>2000-01-01T06:44:14.000Z</time>
      </trkpt>
      <trkpt lat="48.28537" lon="-4.46078">
        <ele>62</ele>
        <time>2000-01-01T06:44:24.000Z</time>
      </trkpt>
      <trkpt lat="48.28563" lon="-4.4609">
        <ele>60</ele>
        <time>2000-01-01T06:44:34.000Z</time>
      </trkpt>
      <trkpt lat="48.28601" lon="-4.46107">
        <ele>56</ele>
        <time>2000-01-01T06:44:44.000Z</time>
      </trkpt>
      <trkpt lat="48.28632" lon="-4.46129">
        <ele>57</ele>
        <time>2000-01-01T06:44:54.000Z</time>
      </trkpt>
      <trkpt lat="48.28625" lon="-4.46183">
        <ele>55</ele>
        <time>2000-01-01T06:45:04.000Z</time>
      </trkpt>
      <trkpt lat="48.28641" lon="-4.46132">
        <ele>53</ele>
        <time>2000-01-01T06:45:14.000Z</time>
      </trkpt>
      <trkpt lat="48.28668" lon="-4.46141">
        <ele>52</ele>
        <time>2000-01-01T06:45:24.000Z</time>
      </trkpt>
      <trkpt lat="48.28677" lon="-4.46155">
        <ele>64.6</ele>
        <time>2000-01-01T06:45:34.000Z</time>
      </trkpt>
      <trkpt lat="48.28689" lon="-4.46194">
        <ele>51</ele>
        <time>2000-01-01T06:45:44.000Z</time>
      </trkpt>
      <trkpt lat="48.28693" lon="-4.46202">
        <ele>63.1</ele>
        <time>2000-01-01T06:45:54.000Z</time>
      </trkpt>
      <trkpt lat="48.28787" lon="-4.46253">
        <ele>52</ele>
        <time>2000-01-01T06:46:04.000Z</time>
      </trkpt>
      <trkpt lat="48.28788" lon="-4.46258">
        <ele>57.6</ele>
        <time>2000-01-01T06:46:14.000Z</time>
      </trkpt>
      <trkpt lat="48.28791" lon="-4.4626">
        <ele>57.5</ele>
        <time>2000-01-01T06:46:24.000Z</time>
      </trkpt>
      <trkpt lat="48.28792" lon="-4.46267">
        <ele>57.5</ele>
        <time>2000-01-01T06:46:34.000Z</time>
      </trkpt>
      <trkpt lat="48.28787" lon="-4.46329">
        <ele>54</ele>
        <time>2000-01-01T06:46:44.000Z</time>
      </trkpt>
      <trkpt lat="48.28771" lon="-4.46358">
        <ele>54</ele>
        <time>2000-01-01T06:46:54.000Z</time>
      </trkpt>
      <trkpt lat="48.28783" lon="-4.46365">
        <ele>54.5</ele>
        <time>2000-01-01T06:47:04.000Z</time>
      </trkpt>
      <trkpt lat="48.28805" lon="-4.46376">
        <ele>53</ele>
        <time>2000-01-01T06:47:14.000Z</time>
      </trkpt>
      <trkpt lat="48.28808" lon="-4.46376">
        <ele>52.3</ele>
        <time>2000-01-01T06:47:24.000Z</time>
      </trkpt>
      <trkpt lat="48.28827" lon="-4.46386">
        <ele>39</ele>
        <time>2000-01-01T06:47:34.000Z</time>
      </trkpt>
      <trkpt lat="48.28849" lon="-4.464">
        <ele>36</ele>
        <time>2000-01-01T06:47:44.000Z</time>
      </trkpt>
      <trkpt lat="48.2887" lon="-4.46411">
        <ele>33</ele>
        <time>2000-01-01T06:47:54.000Z</time>
      </trkpt>
      <trkpt lat="48.28891" lon="-4.46423">
        <ele>31</ele>
        <time>2000-01-01T06:48:04.000Z</time>
      </trkpt>
      <trkpt lat="48.2891" lon="-4.46426">
        <ele>29</ele>
        <time>2000-01-01T06:48:14.000Z</time>
      </trkpt>
      <trkpt lat="48.28924" lon="-4.46411">
        <ele>37.2</ele>
        <time>2000-01-01T06:48:24.000Z</time>
      </trkpt>
      <trkpt lat="48.28941" lon="-4.46381">
        <ele>30</ele>
        <time>2000-01-01T06:48:34.000Z</time>
      </trkpt>
      <trkpt lat="48.28956" lon="-4.46349">
        <ele>28</ele>
        <time>2000-01-01T06:48:44.000Z</time>
      </trkpt>
      <trkpt lat="48.28976" lon="-4.46305">
        <ele>28</ele>
        <time>2000-01-01T06:48:54.000Z</time>
      </trkpt>
      <trkpt lat="48.28989" lon="-4.46278">
        <ele>28</ele>
        <time>2000-01-01T06:49:04.000Z</time>
      </trkpt>
      <trkpt lat="48.29002" lon="-4.4625">
        <ele>23</ele>
        <time>2000-01-01T06:49:14.000Z</time>
      </trkpt>
      <trkpt lat="48.29008" lon="-4.46251">
        <ele>24.7</ele>
        <time>2000-01-01T06:49:24.000Z</time>
      </trkpt>
      <trkpt lat="48.29012" lon="-4.46262">
        <ele>23</ele>
        <time>2000-01-01T06:49:34.000Z</time>
      </trkpt>
      <trkpt lat="48.29023" lon="-4.46283">
        <ele>14</ele>
        <time>2000-01-01T06:49:44.000Z</time>
      </trkpt>
      <trkpt lat="48.29049" lon="-4.46327">
        <ele>17</ele>
        <time>2000-01-01T06:49:54.000Z</time>
      </trkpt>
      <trkpt lat="48.29043" lon="-4.46331">
        <ele>12.6</ele>
        <time>2000-01-01T06:50:04.000Z</time>
      </trkpt>
      <trkpt lat="48.29027" lon="-4.46363">
        <ele>18</ele>
        <time>2000-01-01T06:50:14.000Z</time>
      </trkpt>
      <trkpt lat="48.29018" lon="-4.46372">
        <ele>11.4</ele>
        <time>2000-01-01T06:50:24.000Z</time>
      </trkpt>
      <trkpt lat="48.29" lon="-4.46398">
        <ele>20</ele>
        <time>2000-01-01T06:50:34.000Z</time>
      </trkpt>
      <trkpt lat="48.28989" lon="-4.46419">
        <ele>13</ele>
        <time>2000-01-01T06:50:44.000Z</time>
      </trkpt>
      <trkpt lat="48.28926" lon="-4.46505">
        <ele>21</ele>
        <time>2000-01-01T06:50:54.000Z</time>
      </trkpt>
      <trkpt lat="48.28906" lon="-4.46543">
        <ele>20</ele>
        <time>2000-01-01T06:51:04.000Z</time>
      </trkpt>
      <trkpt lat="48.28889" lon="-4.46577">
        <ele>20</ele>
        <time>2000-01-01T06:51:14.000Z</time>
      </trkpt>
      <trkpt lat="48.28858" lon="-4.46638">
        <ele>20</ele>
        <time>2000-01-01T06:51:24.000Z</time>
      </trkpt>
      <trkpt lat="48.28838" lon="-4.46667">
        <ele>19</ele>
        <time>2000-01-01T06:51:34.000Z</time>
      </trkpt>
      <trkpt lat="48.28836" lon="-4.46672">
        <ele>10.4</ele>
        <time>2000-01-01T06:51:44.000Z</time>
      </trkpt>
      <trkpt lat="48.28845" lon="-4.4667">
        <ele>7.8</ele>
        <time>2000-01-01T06:51:54.000Z</time>
      </trkpt>
      <trkpt lat="48.28844" lon="-4.46678">
        <ele>19</ele>
        <time>2000-01-01T06:52:04.000Z</time>
      </trkpt>
      <trkpt lat="48.28849" lon="-4.46682">
        <ele>5.3</ele>
        <time>2000-01-01T06:52:14.000Z</time>
      </trkpt>
      <trkpt lat="48.28843" lon="-4.46683">
        <ele>6.9</ele>
        <time>2000-01-01T06:52:24.000Z</time>
      </trkpt>
      <trkpt lat="48.28828" lon="-4.46688">
        <ele>19</ele>
        <time>2000-01-01T06:52:34.000Z</time>
      </trkpt>
      <trkpt lat="48.28814" lon="-4.46728">
        <ele>20</ele>
        <time>2000-01-01T06:52:44.000Z</time>
      </trkpt>
      <trkpt lat="48.28787" lon="-4.46806">
        <ele>21</ele>
        <time>2000-01-01T06:52:54.000Z</time>
      </trkpt>
      <trkpt lat="48.28776" lon="-4.46841">
        <ele>20</ele>
        <time>2000-01-01T06:53:04.000Z</time>
      </trkpt>
      <trkpt lat="48.28762" lon="-4.46874">
        <ele>20</ele>
        <time>2000-01-01T06:53:14.000Z</time>
      </trkpt>
      <trkpt lat="48.28746" lon="-4.46897">
        <ele>20</ele>
        <time>2000-01-01T06:53:24.000Z</time>
      </trkpt>
      <trkpt lat="48.28739" lon="-4.4691">
        <ele>16.7</ele>
        <time>2000-01-01T06:53:34.000Z</time>
      </trkpt>
      <trkpt lat="48.28736" lon="-4.46911">
        <ele>17.3</ele>
        <time>2000-01-01T06:53:44.000Z</time>
      </trkpt>
      <trkpt lat="48.28733" lon="-4.46906">
        <ele>24</ele>
        <time>2000-01-01T06:53:54.000Z</time>
      </trkpt>
      <trkpt lat="48.28729" lon="-4.4691">
        <ele>19</ele>
        <time>2000-01-01T06:54:04.000Z</time>
      </trkpt>
      <trkpt lat="48.28726" lon="-4.46911">
        <ele>19.6</ele>
        <time>2000-01-01T06:54:14.000Z</time>
      </trkpt>
      <trkpt lat="48.28725" lon="-4.46918">
        <ele>19.3</ele>
        <time>2000-01-01T06:54:24.000Z</time>
      </trkpt>
      <trkpt lat="48.28726" lon="-4.46928">
        <ele>24</ele>
        <time>2000-01-01T06:54:34.000Z</time>
      </trkpt>
      <trkpt lat="48.28728" lon="-4.46939">
        <ele>16.1</ele>
        <time>2000-01-01T06:54:44.000Z</time>
      </trkpt>
      <trkpt lat="48.28731" lon="-4.4694">
        <ele>14.8</ele>
        <time>2000-01-01T06:54:54.000Z</time>
      </trkpt>
      <trkpt lat="48.28731" lon="-4.46944">
        <ele>14.3</ele>
        <time>2000-01-01T06:55:04.000Z</time>
      </trkpt>
      <trkpt lat="48.2873" lon="-4.46951">
        <ele>16</ele>
        <time>2000-01-01T06:55:14.000Z</time>
      </trkpt>
      <trkpt lat="48.28731" lon="-4.46961">
        <ele>12.2</ele>
        <time>2000-01-01T06:55:24.000Z</time>
      </trkpt>
      <trkpt lat="48.2873" lon="-4.46969">
        <ele>11.7</ele>
        <time>2000-01-01T06:55:34.000Z</time>
      </trkpt>
      <trkpt lat="48.28732" lon="-4.46969">
        <ele>10.8</ele>
        <time>2000-01-01T06:55:44.000Z</time>
      </trkpt>
      <trkpt lat="48.28732" lon="-4.46972">
        <ele>10.5</ele>
        <time>2000-01-01T06:55:54.000Z</time>
      </trkpt>
      <trkpt lat="48.28725" lon="-4.47018">
        <ele>21</ele>
        <time>2000-01-01T06:56:04.000Z</time>
      </trkpt>
      <trkpt lat="48.28725" lon="-4.4703">
        <ele>6.2</ele>
        <time>2000-01-01T06:56:14.000Z</time>
      </trkpt>
      <trkpt lat="48.28707" lon="-4.4706">
        <ele>27</ele>
        <time>2000-01-01T06:56:24.000Z</time>
      </trkpt>
      <trkpt lat="48.28699" lon="-4.47066">
        <ele>19</ele>
        <time>2000-01-01T06:56:34.000Z</time>
      </trkpt>
      <trkpt lat="48.28697" lon="-4.47061">
        <ele>21.2</ele>
        <time>2000-01-01T06:56:44.000Z</time>
      </trkpt>
      <trkpt lat="48.28689" lon="-4.47061">
        <ele>33</ele>
        <time>2000-01-01T06:56:54.000Z</time>
      </trkpt>
      <trkpt lat="48.28685" lon="-4.47079">
        <ele>26.2</ele>
        <time>2000-01-01T06:57:04.000Z</time>
      </trkpt>
      <trkpt lat="48.28682" lon="-4.47105">
        <ele>33</ele>
        <time>2000-01-01T06:57:14.000Z</time>
      </trkpt>
      <trkpt lat="48.2868" lon="-4.47108">
        <ele>25.2</ele>
        <time>2000-01-01T06:57:24.000Z</time>
      </trkpt>
      <trkpt lat="48.28677" lon="-4.47109">
        <ele>26.5</ele>
        <time>2000-01-01T06:57:34.000Z</time>
      </trkpt>
      <trkpt lat="48.28672" lon="-4.4712">
        <ele>27.4</ele>
        <time>2000-01-01T06:57:44.000Z</time>
      </trkpt>
      <trkpt lat="48.28671" lon="-4.47132">
        <ele>32</ele>
        <time>2000-01-01T06:57:54.000Z</time>
      </trkpt>
      <trkpt lat="48.28674" lon="-4.47155">
        <ele>22</ele>
        <time>2000-01-01T06:58:04.000Z</time>
      </trkpt>
      <trkpt lat="48.28674" lon="-4.4716">
        <ele>31</ele>
        <time>2000-01-01T06:58:14.000Z</time>
      </trkpt>
      <trkpt lat="48.28665" lon="-4.47201">
        <ele>34</ele>
        <time>2000-01-01T06:58:24.000Z</time>
      </trkpt>
      <trkpt lat="48.28657" lon="-4.47245">
        <ele>31</ele>
        <time>2000-01-01T06:58:34.000Z</time>
      </trkpt>
      <trkpt lat="48.28657" lon="-4.47263">
        <ele>20.7</ele>
        <time>2000-01-01T06:58:44.000Z</time>
      </trkpt>
      <trkpt lat="48.28648" lon="-4.4731">
        <ele>29</ele>
        <time>2000-01-01T06:58:54.000Z</time>
      </trkpt>
      <trkpt lat="48.28641" lon="-4.47331">
        <ele>21.5</ele>
        <time>2000-01-01T06:59:04.000Z</time>
      </trkpt>
      <trkpt lat="48.28641" lon="-4.47353">
        <ele>23</ele>
        <time>2000-01-01T06:59:14.000Z</time>
      </trkpt>
      <trkpt lat="48.28635" lon="-4.47369">
        <ele>22.6</ele>
        <time>2000-01-01T06:59:24.000Z</time>
      </trkpt>
      <trkpt lat="48.28632" lon="-4.47398">
        <ele>27</ele>
        <time>2000-01-01T06:59:34.000Z</time>
      </trkpt>
      <trkpt lat="48.28626" lon="-4.47417">
        <ele>19.8</ele>
        <time>2000-01-01T06:59:44.000Z</time>
      </trkpt>
      <trkpt lat="48.28625" lon="-4.47433">
        <ele>27</ele>
        <time>2000-01-01T06:59:54.000Z</time>
      </trkpt>
      <trkpt lat="48.28623" lon="-4.47445">
        <ele>18.1</ele>
        <time>2000-01-01T07:00:04.000Z</time>
      </trkpt>
      <trkpt lat="48.28624" lon="-4.47477">
        <ele>26</ele>
        <time>2000-01-01T07:00:14.000Z</time>
      </trkpt>
      <trkpt lat="48.2862" lon="-4.47515">
        <ele>26</ele>
        <time>2000-01-01T07:00:24.000Z</time>
      </trkpt>
      <trkpt lat="48.28623" lon="-4.47529">
        <ele>13.9</ele>
        <time>2000-01-01T07:00:34.000Z</time>
      </trkpt>
      <trkpt lat="48.28622" lon="-4.47542">
        <ele>25</ele>
        <time>2000-01-01T07:00:44.000Z</time>
      </trkpt>
      <trkpt lat="48.28613" lon="-4.47575">
        <ele>25</ele>
        <time>2000-01-01T07:00:54.000Z</time>
      </trkpt>
      <trkpt lat="48.28607" lon="-4.47631">
        <ele>19</ele>
        <time>2000-01-01T07:01:04.000Z</time>
      </trkpt>
      <trkpt lat="48.286" lon="-4.47666">
        <ele>21</ele>
        <time>2000-01-01T07:01:14.000Z</time>
      </trkpt>
      <trkpt lat="48.2859" lon="-4.47707">
        <ele>23</ele>
        <time>2000-01-01T07:01:24.000Z</time>
      </trkpt>
      <trkpt lat="48.28578" lon="-4.47747">
        <ele>23</ele>
        <time>2000-01-01T07:01:34.000Z</time>
      </trkpt>
      <trkpt lat="48.28578" lon="-4.47776">
        <ele>24</ele>
        <time>2000-01-01T07:01:44.000Z</time>
      </trkpt>
      <trkpt lat="48.28565" lon="-4.47832">
        <ele>29</ele>
        <time>2000-01-01T07:01:54.000Z</time>
      </trkpt>
      <trkpt lat="48.28559" lon="-4.47847">
        <ele>16</ele>
        <time>2000-01-01T07:02:04.000Z</time>
      </trkpt>
      <trkpt lat="48.28548" lon="-4.47905">
        <ele>30</ele>
        <time>2000-01-01T07:02:14.000Z</time>
      </trkpt>
      <trkpt lat="48.28551" lon="-4.47919">
        <ele>13</ele>
        <time>2000-01-01T07:02:24.000Z</time>
      </trkpt>
      <trkpt lat="48.28548" lon="-4.47939">
        <ele>31</ele>
        <time>2000-01-01T07:02:34.000Z</time>
      </trkpt>
      <trkpt lat="48.28542" lon="-4.47953">
        <ele>14.3</ele>
        <time>2000-01-01T07:02:44.000Z</time>
      </trkpt>
      <trkpt lat="48.28536" lon="-4.47985">
        <ele>31</ele>
        <time>2000-01-01T07:02:54.000Z</time>
      </trkpt>
      <trkpt lat="48.28537" lon="-4.48003">
        <ele>14.8</ele>
        <time>2000-01-01T07:03:04.000Z</time>
      </trkpt>
      <trkpt lat="48.28541" lon="-4.48017">
        <ele>29</ele>
        <time>2000-01-01T07:03:14.000Z</time>
      </trkpt>
      <trkpt lat="48.28539" lon="-4.48031">
        <ele>13.9</ele>
        <time>2000-01-01T07:03:24.000Z</time>
      </trkpt>
      <trkpt lat="48.28528" lon="-4.48039">
        <ele>29</ele>
        <time>2000-01-01T07:03:34.000Z</time>
      </trkpt>
      <trkpt lat="48.28521" lon="-4.48067">
        <ele>28</ele>
        <time>2000-01-01T07:03:44.000Z</time>
      </trkpt>
      <trkpt lat="48.28498" lon="-4.48117">
        <ele>28</ele>
        <time>2000-01-01T07:03:54.000Z</time>
      </trkpt>
      <trkpt lat="48.28488" lon="-4.48154">
        <ele>22</ele>
        <time>2000-01-01T07:04:04.000Z</time>
      </trkpt>
      <trkpt lat="48.28471" lon="-4.4821">
        <ele>24</ele>
        <time>2000-01-01T07:04:14.000Z</time>
      </trkpt>
      <trkpt lat="48.28456" lon="-4.48245">
        <ele>23</ele>
        <time>2000-01-01T07:04:24.000Z</time>
      </trkpt>
      <trkpt lat="48.28433" lon="-4.48299">
        <ele>23</ele>
        <time>2000-01-01T07:04:34.000Z</time>
      </trkpt>
      <trkpt lat="48.28427" lon="-4.48312">
        <ele>16.3</ele>
        <time>2000-01-01T07:04:44.000Z</time>
      </trkpt>
      <trkpt lat="48.28422" lon="-4.48319">
        <ele>16.6</ele>
        <time>2000-01-01T07:04:54.000Z</time>
      </trkpt>
      <trkpt lat="48.28408" lon="-4.48323">
        <ele>17</ele>
        <time>2000-01-01T07:05:04.000Z</time>
      </trkpt>
      <trkpt lat="48.28395" lon="-4.48331">
        <ele>18.5</ele>
        <time>2000-01-01T07:05:14.000Z</time>
      </trkpt>
      <trkpt lat="48.28393" lon="-4.4835">
        <ele>16</ele>
        <time>2000-01-01T07:05:24.000Z</time>
      </trkpt>
      <trkpt lat="48.28395" lon="-4.48372">
        <ele>18</ele>
        <time>2000-01-01T07:05:34.000Z</time>
      </trkpt>
      <trkpt lat="48.28398" lon="-4.48379">
        <ele>16</ele>
        <time>2000-01-01T07:05:44.000Z</time>
      </trkpt>
      <trkpt lat="48.28395" lon="-4.48392">
        <ele>16.7</ele>
        <time>2000-01-01T07:05:54.000Z</time>
      </trkpt>
      <trkpt lat="48.28375" lon="-4.4844">
        <ele>19</ele>
        <time>2000-01-01T07:06:04.000Z</time>
      </trkpt>
      <trkpt lat="48.28375" lon="-4.4845">
        <ele>16.7</ele>
        <time>2000-01-01T07:06:14.000Z</time>
      </trkpt>
      <trkpt lat="48.28372" lon="-4.48456">
        <ele>16.9</ele>
        <time>2000-01-01T07:06:24.000Z</time>
      </trkpt>
      <trkpt lat="48.28369" lon="-4.48469">
        <ele>19</ele>
        <time>2000-01-01T07:06:34.000Z</time>
      </trkpt>
      <trkpt lat="48.28362" lon="-4.48482">
        <ele>17.1</ele>
        <time>2000-01-01T07:06:44.000Z</time>
      </trkpt>
      <trkpt lat="48.28357" lon="-4.48493">
        <ele>20</ele>
        <time>2000-01-01T07:06:54.000Z</time>
      </trkpt>
      <trkpt lat="48.28356" lon="-4.48511">
        <ele>14.2</ele>
        <time>2000-01-01T07:07:04.000Z</time>
      </trkpt>
      <trkpt lat="48.28346" lon="-4.48535">
        <ele>18</ele>
        <time>2000-01-01T07:07:14.000Z</time>
      </trkpt>
      <trkpt lat="48.28332" lon="-4.48587">
        <ele>17</ele>
        <time>2000-01-01T07:07:24.000Z</time>
      </trkpt>
      <trkpt lat="48.28327" lon="-4.48598">
        <ele>16.6</ele>
        <time>2000-01-01T07:07:34.000Z</time>
      </trkpt>
      <trkpt lat="48.28325" lon="-4.48608">
        <ele>16</ele>
        <time>2000-01-01T07:07:44.000Z</time>
      </trkpt>
      <trkpt lat="48.28321" lon="-4.48619">
        <ele>18</ele>
        <time>2000-01-01T07:07:54.000Z</time>
      </trkpt>
      <trkpt lat="48.28305" lon="-4.48652">
        <ele>20</ele>
        <time>2000-01-01T07:08:04.000Z</time>
      </trkpt>
      <trkpt lat="48.28299" lon="-4.48669">
        <ele>20.7</ele>
        <time>2000-01-01T07:08:14.000Z</time>
      </trkpt>
      <trkpt lat="48.28285" lon="-4.48682">
        <ele>29</ele>
        <time>2000-01-01T07:08:24.000Z</time>
      </trkpt>
      <trkpt lat="48.2828" lon="-4.4869">
        <ele>25.8</ele>
        <time>2000-01-01T07:08:34.000Z</time>
      </trkpt>
      <trkpt lat="48.28277" lon="-4.48702">
        <ele>25</ele>
        <time>2000-01-01T07:08:44.000Z</time>
      </trkpt>
      <trkpt lat="48.28269" lon="-4.48783">
        <ele>24</ele>
        <time>2000-01-01T07:08:54.000Z</time>
      </trkpt>
      <trkpt lat="48.28265" lon="-4.48797">
        <ele>20.1</ele>
        <time>2000-01-01T07:09:04.000Z</time>
      </trkpt>
      <trkpt lat="48.28263" lon="-4.48816">
        <ele>20</ele>
        <time>2000-01-01T07:09:14.000Z</time>
      </trkpt>
      <trkpt lat="48.28263" lon="-4.48822">
        <ele>19.6</ele>
        <time>2000-01-01T07:09:24.000Z</time>
      </trkpt>
      <trkpt lat="48.2827" lon="-4.48838">
        <ele>15.1</ele>
        <time>2000-01-01T07:09:34.000Z</time>
      </trkpt>
      <trkpt lat="48.28269" lon="-4.48852">
        <ele>21</ele>
        <time>2000-01-01T07:09:44.000Z</time>
      </trkpt>
      <trkpt lat="48.28255" lon="-4.48855">
        <ele>22</ele>
        <time>2000-01-01T07:09:54.000Z</time>
      </trkpt>
      <trkpt lat="48.28253" lon="-4.48872">
        <ele>18</ele>
        <time>2000-01-01T07:10:04.000Z</time>
      </trkpt>
      <trkpt lat="48.28255" lon="-4.48901">
        <ele>15</ele>
        <time>2000-01-01T07:10:14.000Z</time>
      </trkpt>
      <trkpt lat="48.28247" lon="-4.48927">
        <ele>15</ele>
        <time>2000-01-01T07:10:24.000Z</time>
      </trkpt>
      <trkpt lat="48.28244" lon="-4.48951">
        <ele>17.6</ele>
        <time>2000-01-01T07:10:34.000Z</time>
      </trkpt>
      <trkpt lat="48.28245" lon="-4.49001">
        <ele>15</ele>
        <time>2000-01-01T07:10:44.000Z</time>
      </trkpt>
      <trkpt lat="48.28244" lon="-4.49015">
        <ele>16.4</ele>
        <time>2000-01-01T07:10:54.000Z</time>
      </trkpt>
      <trkpt lat="48.28245" lon="-4.49028">
        <ele>14</ele>
        <time>2000-01-01T07:11:04.000Z</time>
      </trkpt>
      <trkpt lat="48.28245" lon="-4.4904">
        <ele>13.5</ele>
        <time>2000-01-01T07:11:14.000Z</time>
      </trkpt>
      <trkpt lat="48.28242" lon="-4.49051">
        <ele>14.1</ele>
        <time>2000-01-01T07:11:24.000Z</time>
      </trkpt>
      <trkpt lat="48.28244" lon="-4.49056">
        <ele>12</ele>
        <time>2000-01-01T07:11:34.000Z</time>
      </trkpt>
      <trkpt lat="48.28242" lon="-4.49091">
        <ele>10</ele>
        <time>2000-01-01T07:11:44.000Z</time>
      </trkpt>
      <trkpt lat="48.28239" lon="-4.49099">
        <ele>13.5</ele>
        <time>2000-01-01T07:11:54.000Z</time>
      </trkpt>
      <trkpt lat="48.28242" lon="-4.49108">
        <ele>11.5</ele>
        <time>2000-01-01T07:12:04.000Z</time>
      </trkpt>
      <trkpt lat="48.28242" lon="-4.49143">
        <ele>13</ele>
        <time>2000-01-01T07:12:14.000Z</time>
      </trkpt>
      <trkpt lat="48.28239" lon="-4.49154">
        <ele>13.1</ele>
        <time>2000-01-01T07:12:24.000Z</time>
      </trkpt>
      <trkpt lat="48.28234" lon="-4.49208">
        <ele>14</ele>
        <time>2000-01-01T07:12:34.000Z</time>
      </trkpt>
      <trkpt lat="48.28234" lon="-4.49213">
        <ele>15</ele>
        <time>2000-01-01T07:12:44.000Z</time>
      </trkpt>
      <trkpt lat="48.28237" lon="-4.49218">
        <ele>14</ele>
        <time>2000-01-01T07:12:54.000Z</time>
      </trkpt>
      <trkpt lat="48.28238" lon="-4.49227">
        <ele>14.3</ele>
        <time>2000-01-01T07:13:04.000Z</time>
      </trkpt>
      <trkpt lat="48.28242" lon="-4.49235">
        <ele>15</ele>
        <time>2000-01-01T07:13:14.000Z</time>
      </trkpt>
      <trkpt lat="48.28241" lon="-4.49246">
        <ele>15.2</ele>
        <time>2000-01-01T07:13:24.000Z</time>
      </trkpt>
      <trkpt lat="48.28228" lon="-4.49282">
        <ele>19</ele>
        <time>2000-01-01T07:13:34.000Z</time>
      </trkpt>
      <trkpt lat="48.2822" lon="-4.49295">
        <ele>19.2</ele>
        <time>2000-01-01T07:13:44.000Z</time>
      </trkpt>
      <trkpt lat="48.28221" lon="-4.49304">
        <ele>18.4</ele>
        <time>2000-01-01T07:13:54.000Z</time>
      </trkpt>
      <trkpt lat="48.28222" lon="-4.49321">
        <ele>20</ele>
        <time>2000-01-01T07:14:04.000Z</time>
      </trkpt>
      <trkpt lat="48.28216" lon="-4.49356">
        <ele>23</ele>
        <time>2000-01-01T07:14:14.000Z</time>
      </trkpt>
      <trkpt lat="48.28208" lon="-4.49397">
        <ele>26</ele>
        <time>2000-01-01T07:14:24.000Z</time>
      </trkpt>
      <trkpt lat="48.28192" lon="-4.49436">
        <ele>24</ele>
        <time>2000-01-01T07:14:34.000Z</time>
      </trkpt>
      <trkpt lat="48.28188" lon="-4.49463">
        <ele>22</ele>
        <time>2000-01-01T07:14:44.000Z</time>
      </trkpt>
      <trkpt lat="48.2818" lon="-4.49487">
        <ele>4</ele>
        <time>2000-01-01T07:14:54.000Z</time>
      </trkpt>
      <trkpt lat="48.28157" lon="-4.49532">
        <ele>14</ele>
        <time>2000-01-01T07:15:04.000Z</time>
      </trkpt>
      <trkpt lat="48.28152" lon="-4.49556">
        <ele>5.2</ele>
        <time>2000-01-01T07:15:14.000Z</time>
      </trkpt>
      <trkpt lat="48.28146" lon="-4.49567">
        <ele>13</ele>
        <time>2000-01-01T07:15:24.000Z</time>
      </trkpt>
      <trkpt lat="48.28141" lon="-4.49602">
        <ele>12</ele>
        <time>2000-01-01T07:15:34.000Z</time>
      </trkpt>
      <trkpt lat="48.28154" lon="-4.49614">
        <ele>3.4</ele>
        <time>2000-01-01T07:15:44.000Z</time>
      </trkpt>
      <trkpt lat="48.2816" lon="-4.49638">
        <ele>13</ele>
        <time>2000-01-01T07:15:54.000Z</time>
      </trkpt>
      <trkpt lat="48.28168" lon="-4.49687">
        <ele>15</ele>
        <time>2000-01-01T07:16:04.000Z</time>
      </trkpt>
      <trkpt lat="48.28176" lon="-4.49736">
        <ele>17</ele>
        <time>2000-01-01T07:16:14.000Z</time>
      </trkpt>
      <trkpt lat="48.28191" lon="-4.49829">
        <ele>19</ele>
        <time>2000-01-01T07:16:24.000Z</time>
      </trkpt>
      <trkpt lat="48.28188" lon="-4.49876">
        <ele>20</ele>
        <time>2000-01-01T07:16:34.000Z</time>
      </trkpt>
      <trkpt lat="48.28189" lon="-4.49925">
        <ele>16</ele>
        <time>2000-01-01T07:16:44.000Z</time>
      </trkpt>
      <trkpt lat="48.28193" lon="-4.49968">
        <ele>15</ele>
        <time>2000-01-01T07:16:54.000Z</time>
      </trkpt>
      <trkpt lat="48.28205" lon="-4.5001">
        <ele>15</ele>
        <time>2000-01-01T07:17:04.000Z</time>
      </trkpt>
      <trkpt lat="48.28205" lon="-4.50056">
        <ele>15</ele>
        <time>2000-01-01T07:17:14.000Z</time>
      </trkpt>
      <trkpt lat="48.28203" lon="-4.50108">
        <ele>15</ele>
        <time>2000-01-01T07:17:24.000Z</time>
      </trkpt>
      <trkpt lat="48.28189" lon="-4.50152">
        <ele>14</ele>
        <time>2000-01-01T07:17:34.000Z</time>
      </trkpt>
      <trkpt lat="48.28164" lon="-4.50202">
        <ele>14</ele>
        <time>2000-01-01T07:17:44.000Z</time>
      </trkpt>
      <trkpt lat="48.28137" lon="-4.50232">
        <ele>13</ele>
        <time>2000-01-01T07:17:54.000Z</time>
      </trkpt>
      <trkpt lat="48.28125" lon="-4.50259">
        <ele>12</ele>
        <time>2000-01-01T07:18:04.000Z</time>
      </trkpt>
      <trkpt lat="48.28114" lon="-4.50299">
        <ele>9</ele>
        <time>2000-01-01T07:18:14.000Z</time>
      </trkpt>
      <trkpt lat="48.28119" lon="-4.50353">
        <ele>8</ele>
        <time>2000-01-01T07:18:24.000Z</time>
      </trkpt>
      <trkpt lat="48.28135" lon="-4.50398">
        <ele>8</ele>
        <time>2000-01-01T07:18:34.000Z</time>
      </trkpt>
      <trkpt lat="48.28145" lon="-4.50435">
        <ele>8</ele>
        <time>2000-01-01T07:18:44.000Z</time>
      </trkpt>
      <trkpt lat="48.2816" lon="-4.50469">
        <ele>6</ele>
        <time>2000-01-01T07:18:54.000Z</time>
      </trkpt>
      <trkpt lat="48.28184" lon="-4.5052">
        <ele>5</ele>
        <time>2000-01-01T07:19:04.000Z</time>
      </trkpt>
      <trkpt lat="48.28209" lon="-4.50565">
        <ele>3</ele>
        <time>2000-01-01T07:19:14.000Z</time>
      </trkpt>
      <trkpt lat="48.28225" lon="-4.50601">
        <ele>3</ele>
        <time>2000-01-01T07:19:24.000Z</time>
      </trkpt>
      <trkpt lat="48.2825" lon="-4.50636">
        <ele>2</ele>
        <time>2000-01-01T07:19:34.000Z</time>
      </trkpt>
      <trkpt lat="48.2827" lon="-4.5067">
        <ele>2</ele>
        <time>2000-01-01T07:19:44.000Z</time>
      </trkpt>
      <trkpt lat="48.28293" lon="-4.50696">
        <ele>2</ele>
        <time>2000-01-01T07:19:54.000Z</time>
      </trkpt>
      <trkpt lat="48.28311" lon="-4.50735">
        <ele>2.6</ele>
        <time>2000-01-01T07:20:04.000Z</time>
      </trkpt>
      <trkpt lat="48.28329" lon="-4.50762">
        <ele>2.1</ele>
        <time>2000-01-01T07:20:14.000Z</time>
      </trkpt>
      <trkpt lat="48.28353" lon="-4.50799">
        <ele>2.3</ele>
        <time>2000-01-01T07:20:24.000Z</time>
      </trkpt>
      <trkpt lat="48.28375" lon="-4.50823">
        <ele>2.6</ele>
        <time>2000-01-01T07:20:34.000Z</time>
      </trkpt>
      <trkpt lat="48.28392" lon="-4.50852">
        <ele>3</ele>
        <time>2000-01-01T07:20:44.000Z</time>
      </trkpt>
      <trkpt lat="48.28425" lon="-4.50883">
        <ele>3</ele>
        <time>2000-01-01T07:20:54.000Z</time>
      </trkpt>
      <trkpt lat="48.28443" lon="-4.50901">
        <ele>4</ele>
        <time>2000-01-01T07:21:04.000Z</time>
      </trkpt>
      <trkpt lat="48.28459" lon="-4.50861">
        <ele>6</ele>
        <time>2000-01-01T07:21:14.000Z</time>
      </trkpt>
      <trkpt lat="48.28472" lon="-4.50837">
        <ele>3</ele>
        <time>2000-01-01T07:21:24.000Z</time>
      </trkpt>
      <trkpt lat="48.28479" lon="-4.50828">
        <ele>3.8</ele>
        <time>2000-01-01T07:21:34.000Z</time>
      </trkpt>
      <trkpt lat="48.28526" lon="-4.50755">
        <ele>4.2</ele>
        <time>2000-01-01T07:21:44.000Z</time>
      </trkpt>
      <trkpt lat="48.28545" lon="-4.5078">
        <ele>5.1</ele>
        <time>2000-01-01T07:21:54.000Z</time>
      </trkpt>
      <trkpt lat="48.28564" lon="-4.50753">
        <ele>3.5</ele>
        <time>2000-01-01T07:22:04.000Z</time>
      </trkpt>
      <trkpt lat="48.28593" lon="-4.50714">
        <ele>5.2</ele>
        <time>2000-01-01T07:22:14.000Z</time>
      </trkpt>
      <trkpt lat="48.286" lon="-4.50699">
        <ele>5.1</ele>
        <time>2000-01-01T07:22:24.000Z</time>
      </trkpt>
      <trkpt lat="48.28608" lon="-4.50714">
        <ele>5.6</ele>
        <time>2000-01-01T07:22:34.000Z</time>
      </trkpt>
      <trkpt lat="48.28645" lon="-4.50683">
        <ele>4.2</ele>
        <time>2000-01-01T07:22:44.000Z</time>
      </trkpt>
      <trkpt lat="48.28667" lon="-4.50738">
        <ele>7</ele>
        <time>2000-01-01T07:22:54.000Z</time>
      </trkpt>
      <trkpt lat="48.28679" lon="-4.50762">
        <ele>10</ele>
        <time>2000-01-01T07:23:04.000Z</time>
      </trkpt>
      <trkpt lat="48.28681" lon="-4.50762">
        <ele>3.4</ele>
        <time>2000-01-01T07:23:14.000Z</time>
      </trkpt>
      <trkpt lat="48.28689" lon="-4.50782">
        <ele>3.6</ele>
        <time>2000-01-01T07:23:24.000Z</time>
      </trkpt>
      <trkpt lat="48.28704" lon="-4.50804">
        <ele>12</ele>
        <time>2000-01-01T07:23:34.000Z</time>
      </trkpt>
      <trkpt lat="48.28722" lon="-4.50819">
        <ele>13</ele>
        <time>2000-01-01T07:23:44.000Z</time>
      </trkpt>
      <trkpt lat="48.28749" lon="-4.50858">
        <ele>14</ele>
        <time>2000-01-01T07:23:54.000Z</time>
      </trkpt>
      <trkpt lat="48.28763" lon="-4.50869">
        <ele>4.7</ele>
        <time>2000-01-01T07:24:04.000Z</time>
      </trkpt>
      <trkpt lat="48.28777" lon="-4.50873">
        <ele>12</ele>
        <time>2000-01-01T07:24:14.000Z</time>
      </trkpt>
      <trkpt lat="48.28784" lon="-4.50867">
        <ele>3.2</ele>
        <time>2000-01-01T07:24:24.000Z</time>
      </trkpt>
      <trkpt lat="48.28797" lon="-4.50862">
        <ele>12</ele>
        <time>2000-01-01T07:24:34.000Z</time>
      </trkpt>
      <trkpt lat="48.28832" lon="-4.50874">
        <ele>11</ele>
        <time>2000-01-01T07:24:44.000Z</time>
      </trkpt>
      <trkpt lat="48.28861" lon="-4.50886">
        <ele>10</ele>
        <time>2000-01-01T07:24:54.000Z</time>
      </trkpt>
      <trkpt lat="48.28881" lon="-4.50902">
        <ele>3</ele>
        <time>2000-01-01T07:25:04.000Z</time>
      </trkpt>
      <trkpt lat="48.289" lon="-4.50922">
        <ele>3</ele>
        <time>2000-01-01T07:25:14.000Z</time>
      </trkpt>
      <trkpt lat="48.28905" lon="-4.50929">
        <ele>2.2</ele>
        <time>2000-01-01T07:25:24.000Z</time>
      </trkpt>
      <trkpt lat="48.28907" lon="-4.50946">
        <ele>6</ele>
        <time>2000-01-01T07:25:34.000Z</time>
      </trkpt>
      <trkpt lat="48.2891" lon="-4.51002">
        <ele>7</ele>
        <time>2000-01-01T07:25:44.000Z</time>
      </trkpt>
      <trkpt lat="48.28908" lon="-4.51006">
        <ele>4.3</ele>
        <time>2000-01-01T07:25:54.000Z</time>
      </trkpt>
      <trkpt lat="48.28914" lon="-4.51028">
        <ele>6</ele>
        <time>2000-01-01T07:26:04.000Z</time>
      </trkpt>
      <trkpt lat="48.28927" lon="-4.51055">
        <ele>5</ele>
        <time>2000-01-01T07:26:14.000Z</time>
      </trkpt>
      <trkpt lat="48.28934" lon="-4.51062">
        <ele>4.5</ele>
        <time>2000-01-01T07:26:24.000Z</time>
      </trkpt>
      <trkpt lat="48.2894" lon="-4.51065">
        <ele>3.8</ele>
        <time>2000-01-01T07:26:34.000Z</time>
      </trkpt>
      <trkpt lat="48.28939" lon="-4.51074">
        <ele>4</ele>
        <time>2000-01-01T07:26:44.000Z</time>
      </trkpt>
      <trkpt lat="48.28959" lon="-4.51093">
        <ele>4</ele>
        <time>2000-01-01T07:26:54.000Z</time>
      </trkpt>
      <trkpt lat="48.2899" lon="-4.51116">
        <ele>4</ele>
        <time>2000-01-01T07:27:04.000Z</time>
      </trkpt>
      <trkpt lat="48.29001" lon="-4.51121">
        <ele>3.7</ele>
        <time>2000-01-01T07:27:14.000Z</time>
      </trkpt>
      <trkpt lat="48.2901" lon="-4.51121">
        <ele>8</ele>
        <time>2000-01-01T07:27:24.000Z</time>
      </trkpt>
      <trkpt lat="48.29022" lon="-4.51117">
        <ele>4</ele>
        <time>2000-01-01T07:27:34.000Z</time>
      </trkpt>
      <trkpt lat="48.29024" lon="-4.51119">
        <ele>4.2</ele>
        <time>2000-01-01T07:27:44.000Z</time>
      </trkpt>
      <trkpt lat="48.2903" lon="-4.51137">
        <ele>9</ele>
        <time>2000-01-01T07:27:54.000Z</time>
      </trkpt>
      <trkpt lat="48.2902" lon="-4.51168">
        <ele>9</ele>
        <time>2000-01-01T07:28:04.000Z</time>
      </trkpt>
      <trkpt lat="48.2901" lon="-4.51199">
        <ele>9</ele>
        <time>2000-01-01T07:28:14.000Z</time>
      </trkpt>
      <trkpt lat="48.29003" lon="-4.51225">
        <ele>10</ele>
        <time>2000-01-01T07:28:24.000Z</time>
      </trkpt>
      <trkpt lat="48.28995" lon="-4.51269">
        <ele>10</ele>
        <time>2000-01-01T07:28:34.000Z</time>
      </trkpt>
      <trkpt lat="48.28991" lon="-4.51276">
        <ele>8.9</ele>
        <time>2000-01-01T07:28:44.000Z</time>
      </trkpt>
      <trkpt lat="48.2898" lon="-4.51285">
        <ele>10</ele>
        <time>2000-01-01T07:28:54.000Z</time>
      </trkpt>
      <trkpt lat="48.28965" lon="-4.51289">
        <ele>11.8</ele>
        <time>2000-01-01T07:29:04.000Z</time>
      </trkpt>
      <trkpt lat="48.2896" lon="-4.51296">
        <ele>13</ele>
        <time>2000-01-01T07:29:14.000Z</time>
      </trkpt>
      <trkpt lat="48.28951" lon="-4.5133">
        <ele>15</ele>
        <time>2000-01-01T07:29:24.000Z</time>
      </trkpt>
      <trkpt lat="48.28957" lon="-4.51367">
        <ele>14</ele>
        <time>2000-01-01T07:29:34.000Z</time>
      </trkpt>
      <trkpt lat="48.28966" lon="-4.51414">
        <ele>14</ele>
        <time>2000-01-01T07:29:44.000Z</time>
      </trkpt>
      <trkpt lat="48.28987" lon="-4.51448">
        <ele>13</ele>
        <time>2000-01-01T07:29:54.000Z</time>
      </trkpt>
      <trkpt lat="48.29008" lon="-4.51483">
        <ele>8</ele>
        <time>2000-01-01T07:30:04.000Z</time>
      </trkpt>
      <trkpt lat="48.29035" lon="-4.51526">
        <ele>6</ele>
        <time>2000-01-01T07:30:14.000Z</time>
      </trkpt>
      <trkpt lat="48.2906" lon="-4.51568">
        <ele>5</ele>
        <time>2000-01-01T07:30:24.000Z</time>
      </trkpt>
      <trkpt lat="48.29078" lon="-4.51597">
        <ele>5</ele>
        <time>2000-01-01T07:30:34.000Z</time>
      </trkpt>
      <trkpt lat="48.29103" lon="-4.5164">
        <ele>7</ele>
        <time>2000-01-01T07:30:44.000Z</time>
      </trkpt>
      <trkpt lat="48.29121" lon="-4.51673">
        <ele>7</ele>
        <time>2000-01-01T07:30:54.000Z</time>
      </trkpt>
      <trkpt lat="48.29152" lon="-4.51729">
        <ele>10</ele>
        <time>2000-01-01T07:31:04.000Z</time>
      </trkpt>
      <trkpt lat="48.29159" lon="-4.51748">
        <ele>7.2</ele>
        <time>2000-01-01T07:31:14.000Z</time>
      </trkpt>
      <trkpt lat="48.29159" lon="-4.51752">
        <ele>7.3</ele>
        <time>2000-01-01T07:31:24.000Z</time>
      </trkpt>
      <trkpt lat="48.29175" lon="-4.51757">
        <ele>10</ele>
        <time>2000-01-01T07:31:34.000Z</time>
      </trkpt>
      <trkpt lat="48.29174" lon="-4.51764">
        <ele>7.5</ele>
        <time>2000-01-01T07:31:44.000Z</time>
      </trkpt>
      <trkpt lat="48.2918" lon="-4.51795">
        <ele>10</ele>
        <time>2000-01-01T07:31:54.000Z</time>
      </trkpt>
      <trkpt lat="48.29178" lon="-4.51802">
        <ele>8.5</ele>
        <time>2000-01-01T07:32:04.000Z</time>
      </trkpt>
      <trkpt lat="48.29133" lon="-4.51846">
        <ele>10</ele>
        <time>2000-01-01T07:32:14.000Z</time>
      </trkpt>
      <trkpt lat="48.29147" lon="-4.51873">
        <ele>10</ele>
        <time>2000-01-01T07:32:24.000Z</time>
      </trkpt>
      <trkpt lat="48.29163" lon="-4.51903">
        <ele>9</ele>
        <time>2000-01-01T07:32:34.000Z</time>
      </trkpt>
      <trkpt lat="48.29178" lon="-4.51926">
        <ele>9</ele>
        <time>2000-01-01T07:32:44.000Z</time>
      </trkpt>
      <trkpt lat="48.29201" lon="-4.5194">
        <ele>9</ele>
        <time>2000-01-01T07:32:54.000Z</time>
      </trkpt>
      <trkpt lat="48.29228" lon="-4.51958">
        <ele>9</ele>
        <time>2000-01-01T07:33:04.000Z</time>
      </trkpt>
      <trkpt lat="48.29245" lon="-4.51974">
        <ele>9</ele>
        <time>2000-01-01T07:33:14.000Z</time>
      </trkpt>
      <trkpt lat="48.29261" lon="-4.52001">
        <ele>9</ele>
        <time>2000-01-01T07:33:24.000Z</time>
      </trkpt>
      <trkpt lat="48.29285" lon="-4.52056">
        <ele>9</ele>
        <time>2000-01-01T07:33:34.000Z</time>
      </trkpt>
      <trkpt lat="48.29296" lon="-4.52084">
        <ele>10</ele>
        <time>2000-01-01T07:33:44.000Z</time>
      </trkpt>
      <trkpt lat="48.29298" lon="-4.52094">
        <ele>9.3</ele>
        <time>2000-01-01T07:33:54.000Z</time>
      </trkpt>
      <trkpt lat="48.29298" lon="-4.52122">
        <ele>10</ele>
        <time>2000-01-01T07:34:04.000Z</time>
      </trkpt>
      <trkpt lat="48.29294" lon="-4.52144">
        <ele>10.1</ele>
        <time>2000-01-01T07:34:14.000Z</time>
      </trkpt>
      <trkpt lat="48.2928" lon="-4.52169">
        <ele>8</ele>
        <time>2000-01-01T07:34:24.000Z</time>
      </trkpt>
      <trkpt lat="48.29263" lon="-4.52194">
        <ele>6</ele>
        <time>2000-01-01T07:34:34.000Z</time>
      </trkpt>
      <trkpt lat="48.29252" lon="-4.52198">
        <ele>6.1</ele>
        <time>2000-01-01T07:34:44.000Z</time>
      </trkpt>
      <trkpt lat="48.29238" lon="-4.52197">
        <ele>4</ele>
        <time>2000-01-01T07:34:54.000Z</time>
      </trkpt>
      <trkpt lat="48.29215" lon="-4.5219">
        <ele>4</ele>
        <time>2000-01-01T07:35:04.000Z</time>
      </trkpt>
      <trkpt lat="48.29188" lon="-4.52181">
        <ele>5</ele>
        <time>2000-01-01T07:35:14.000Z</time>
      </trkpt>
      <trkpt lat="48.29147" lon="-4.52167">
        <ele>5</ele>
        <time>2000-01-01T07:35:24.000Z</time>
      </trkpt>
      <trkpt lat="48.29111" lon="-4.52172">
        <ele>5</ele>
        <time>2000-01-01T07:35:34.000Z</time>
      </trkpt>
      <trkpt lat="48.29107" lon="-4.52171">
        <ele>4.7</ele>
        <time>2000-01-01T07:35:44.000Z</time>
      </trkpt>
      <trkpt lat="48.29076" lon="-4.52125">
        <ele>5</ele>
        <time>2000-01-01T07:35:54.000Z</time>
      </trkpt>
      <trkpt lat="48.29065" lon="-4.52114">
        <ele>6.7</ele>
        <time>2000-01-01T07:36:04.000Z</time>
      </trkpt>
      <trkpt lat="48.29057" lon="-4.5211">
        <ele>7</ele>
        <time>2000-01-01T07:36:14.000Z</time>
      </trkpt>
      <trkpt lat="48.2903" lon="-4.52103">
        <ele>8</ele>
        <time>2000-01-01T07:36:24.000Z</time>
      </trkpt>
      <trkpt lat="48.29005" lon="-4.52093">
        <ele>11</ele>
        <time>2000-01-01T07:36:34.000Z</time>
      </trkpt>
      <trkpt lat="48.28988" lon="-4.52083">
        <ele>12</ele>
        <time>2000-01-01T07:36:44.000Z</time>
      </trkpt>
      <trkpt lat="48.28977" lon="-4.52073">
        <ele>10.9</ele>
        <time>2000-01-01T07:36:54.000Z</time>
      </trkpt>
      <trkpt lat="48.28959" lon="-4.52041">
        <ele>13</ele>
        <time>2000-01-01T07:37:04.000Z</time>
      </trkpt>
      <trkpt lat="48.28956" lon="-4.52028">
        <ele>12</ele>
        <time>2000-01-01T07:37:14.000Z</time>
      </trkpt>
      <trkpt lat="48.28957" lon="-4.52018">
        <ele>12</ele>
        <time>2000-01-01T07:37:24.000Z</time>
      </trkpt>
      <trkpt lat="48.28917" lon="-4.51999">
        <ele>16</ele>
        <time>2000-01-01T07:37:34.000Z</time>
      </trkpt>
      <trkpt lat="48.28909" lon="-4.51998">
        <ele>12.3</ele>
        <time>2000-01-01T07:37:44.000Z</time>
      </trkpt>
      <trkpt lat="48.28892" lon="-4.52004">
        <ele>16</ele>
        <time>2000-01-01T07:37:54.000Z</time>
      </trkpt>
      <trkpt lat="48.28878" lon="-4.5202">
        <ele>14.3</ele>
        <time>2000-01-01T07:38:04.000Z</time>
      </trkpt>
      <trkpt lat="48.28867" lon="-4.52041">
        <ele>16</ele>
        <time>2000-01-01T07:38:14.000Z</time>
      </trkpt>
      <trkpt lat="48.28847" lon="-4.52066">
        <ele>17</ele>
        <time>2000-01-01T07:38:24.000Z</time>
      </trkpt>
      <trkpt lat="48.28821" lon="-4.52082">
        <ele>17</ele>
        <time>2000-01-01T07:38:34.000Z</time>
      </trkpt>
      <trkpt lat="48.288" lon="-4.52096">
        <ele>15</ele>
        <time>2000-01-01T07:38:44.000Z</time>
      </trkpt>
      <trkpt lat="48.28778" lon="-4.52109">
        <ele>17</ele>
        <time>2000-01-01T07:38:54.000Z</time>
      </trkpt>
      <trkpt lat="48.2877" lon="-4.5212">
        <ele>20.8</ele>
        <time>2000-01-01T07:39:04.000Z</time>
      </trkpt>
      <trkpt lat="48.28751" lon="-4.5217">
        <ele>19</ele>
        <time>2000-01-01T07:39:14.000Z</time>
      </trkpt>
      <trkpt lat="48.28737" lon="-4.52197">
        <ele>19</ele>
        <time>2000-01-01T07:39:24.000Z</time>
      </trkpt>
      <trkpt lat="48.28724" lon="-4.52225">
        <ele>19</ele>
        <time>2000-01-01T07:39:34.000Z</time>
      </trkpt>
      <trkpt lat="48.28705" lon="-4.52253">
        <ele>21</ele>
        <time>2000-01-01T07:39:44.000Z</time>
      </trkpt>
      <trkpt lat="48.2868" lon="-4.52293">
        <ele>22</ele>
        <time>2000-01-01T07:39:54.000Z</time>
      </trkpt>
      <trkpt lat="48.28655" lon="-4.52324">
        <ele>24</ele>
        <time>2000-01-01T07:40:04.000Z</time>
      </trkpt>
      <trkpt lat="48.28636" lon="-4.52348">
        <ele>26</ele>
        <time>2000-01-01T07:40:14.000Z</time>
      </trkpt>
      <trkpt lat="48.28613" lon="-4.52378">
        <ele>25</ele>
        <time>2000-01-01T07:40:24.000Z</time>
      </trkpt>
      <trkpt lat="48.28592" lon="-4.52403">
        <ele>24</ele>
        <time>2000-01-01T07:40:34.000Z</time>
      </trkpt>
      <trkpt lat="48.28575" lon="-4.52417">
        <ele>24</ele>
        <time>2000-01-01T07:40:44.000Z</time>
      </trkpt>
      <trkpt lat="48.28551" lon="-4.52429">
        <ele>23</ele>
        <time>2000-01-01T07:40:54.000Z</time>
      </trkpt>
      <trkpt lat="48.28521" lon="-4.52445">
        <ele>22</ele>
        <time>2000-01-01T07:41:04.000Z</time>
      </trkpt>
      <trkpt lat="48.285" lon="-4.52465">
        <ele>22</ele>
        <time>2000-01-01T07:41:14.000Z</time>
      </trkpt>
      <trkpt lat="48.28485" lon="-4.52491">
        <ele>31</ele>
        <time>2000-01-01T07:41:24.000Z</time>
      </trkpt>
      <trkpt lat="48.28475" lon="-4.52496">
        <ele>23.2</ele>
        <time>2000-01-01T07:41:34.000Z</time>
      </trkpt>
      <trkpt lat="48.28467" lon="-4.52498">
        <ele>31</ele>
        <time>2000-01-01T07:41:44.000Z</time>
      </trkpt>
      <trkpt lat="48.28455" lon="-4.52496">
        <ele>24.4</ele>
        <time>2000-01-01T07:41:54.000Z</time>
      </trkpt>
      <trkpt lat="48.28322" lon="-4.52555">
        <ele>30</ele>
        <time>2000-01-01T07:42:04.000Z</time>
      </trkpt>
      <trkpt lat="48.28309" lon="-4.52566">
        <ele>27.9</ele>
        <time>2000-01-01T07:42:14.000Z</time>
      </trkpt>
      <trkpt lat="48.28301" lon="-4.52578">
        <ele>29</ele>
        <time>2000-01-01T07:42:24.000Z</time>
      </trkpt>
      <trkpt lat="48.28323" lon="-4.52614">
        <ele>19</ele>
        <time>2000-01-01T07:42:34.000Z</time>
      </trkpt>
      <trkpt lat="48.28345" lon="-4.52642">
        <ele>20</ele>
        <time>2000-01-01T07:42:44.000Z</time>
      </trkpt>
      <trkpt lat="48.28363" lon="-4.52665">
        <ele>20</ele>
        <time>2000-01-01T07:42:54.000Z</time>
      </trkpt>
      <trkpt lat="48.28384" lon="-4.5269">
        <ele>20</ele>
        <time>2000-01-01T07:43:04.000Z</time>
      </trkpt>
      <trkpt lat="48.28405" lon="-4.52711">
        <ele>20</ele>
        <time>2000-01-01T07:43:14.000Z</time>
      </trkpt>
      <trkpt lat="48.28431" lon="-4.52738">
        <ele>20</ele>
        <time>2000-01-01T07:43:24.000Z</time>
      </trkpt>
      <trkpt lat="48.2844" lon="-4.52755">
        <ele>20.3</ele>
        <time>2000-01-01T07:43:34.000Z</time>
      </trkpt>
      <trkpt lat="48.28441" lon="-4.52797">
        <ele>20</ele>
        <time>2000-01-01T07:43:44.000Z</time>
      </trkpt>
      <trkpt lat="48.28444" lon="-4.52817">
        <ele>20</ele>
        <time>2000-01-01T07:43:54.000Z</time>
      </trkpt>
      <trkpt lat="48.28437" lon="-4.52835">
        <ele>22</ele>
        <time>2000-01-01T07:44:04.000Z</time>
      </trkpt>
      <trkpt lat="48.28433" lon="-4.5285">
        <ele>21</ele>
        <time>2000-01-01T07:44:14.000Z</time>
      </trkpt>
      <trkpt lat="48.28424" lon="-4.52863">
        <ele>23</ele>
        <time>2000-01-01T07:44:24.000Z</time>
      </trkpt>
      <trkpt lat="48.28414" lon="-4.52884">
        <ele>21.4</ele>
        <time>2000-01-01T07:44:34.000Z</time>
      </trkpt>
      <trkpt lat="48.28401" lon="-4.52935">
        <ele>23</ele>
        <time>2000-01-01T07:44:44.000Z</time>
      </trkpt>
      <trkpt lat="48.28393" lon="-4.52959">
        <ele>23.1</ele>
        <time>2000-01-01T07:44:54.000Z</time>
      </trkpt>
      <trkpt lat="48.28382" lon="-4.52979">
        <ele>23</ele>
        <time>2000-01-01T07:45:04.000Z</time>
      </trkpt>
      <trkpt lat="48.28376" lon="-4.53001">
        <ele>23.8</ele>
        <time>2000-01-01T07:45:14.000Z</time>
      </trkpt>
      <trkpt lat="48.28367" lon="-4.53021">
        <ele>25</ele>
        <time>2000-01-01T07:45:24.000Z</time>
      </trkpt>
      <trkpt lat="48.28341" lon="-4.53058">
        <ele>24</ele>
        <time>2000-01-01T07:45:34.000Z</time>
      </trkpt>
      <trkpt lat="48.28335" lon="-4.5307">
        <ele>25.4</ele>
        <time>2000-01-01T07:45:44.000Z</time>
      </trkpt>
      <trkpt lat="48.28314" lon="-4.53131">
        <ele>24</ele>
        <time>2000-01-01T07:45:54.000Z</time>
      </trkpt>
      <trkpt lat="48.28291" lon="-4.53144">
        <ele>25</ele>
        <time>2000-01-01T07:46:04.000Z</time>
      </trkpt>
      <trkpt lat="48.28286" lon="-4.53143">
        <ele>27.6</ele>
        <time>2000-01-01T07:46:14.000Z</time>
      </trkpt>
      <trkpt lat="48.28276" lon="-4.53161">
        <ele>26</ele>
        <time>2000-01-01T07:46:24.000Z</time>
      </trkpt>
      <trkpt lat="48.28258" lon="-4.53183">
        <ele>31</ele>
        <time>2000-01-01T07:46:34.000Z</time>
      </trkpt>
      <trkpt lat="48.28238" lon="-4.53207">
        <ele>31</ele>
        <time>2000-01-01T07:46:44.000Z</time>
      </trkpt>
      <trkpt lat="48.28211" lon="-4.53226">
        <ele>31</ele>
        <time>2000-01-01T07:46:54.000Z</time>
      </trkpt>
      <trkpt lat="48.28189" lon="-4.53237">
        <ele>21</ele>
        <time>2000-01-01T07:47:04.000Z</time>
      </trkpt>
      <trkpt lat="48.28165" lon="-4.53249">
        <ele>21</ele>
        <time>2000-01-01T07:47:14.000Z</time>
      </trkpt>
      <trkpt lat="48.28136" lon="-4.53271">
        <ele>20</ele>
        <time>2000-01-01T07:47:24.000Z</time>
      </trkpt>
      <trkpt lat="48.28151" lon="-4.53305">
        <ele>19</ele>
        <time>2000-01-01T07:47:34.000Z</time>
      </trkpt>
      <trkpt lat="48.28174" lon="-4.53355">
        <ele>16</ele>
        <time>2000-01-01T07:47:44.000Z</time>
      </trkpt>
      <trkpt lat="48.28189" lon="-4.53389">
        <ele>15</ele>
        <time>2000-01-01T07:47:54.000Z</time>
      </trkpt>
      <trkpt lat="48.28212" lon="-4.53442">
        <ele>14</ele>
        <time>2000-01-01T07:48:04.000Z</time>
      </trkpt>
      <trkpt lat="48.28206" lon="-4.53451">
        <ele>12.3</ele>
        <time>2000-01-01T07:48:14.000Z</time>
      </trkpt>
      <trkpt lat="48.28202" lon="-4.53464">
        <ele>14</ele>
        <time>2000-01-01T07:48:24.000Z</time>
      </trkpt>
      <trkpt lat="48.28197" lon="-4.53491">
        <ele>15</ele>
        <time>2000-01-01T07:48:34.000Z</time>
      </trkpt>
      <trkpt lat="48.2819" lon="-4.53519">
        <ele>15</ele>
        <time>2000-01-01T07:48:44.000Z</time>
      </trkpt>
      <trkpt lat="48.28175" lon="-4.53548">
        <ele>16</ele>
        <time>2000-01-01T07:48:54.000Z</time>
      </trkpt>
      <trkpt lat="48.28156" lon="-4.53581">
        <ele>22</ele>
        <time>2000-01-01T07:49:04.000Z</time>
      </trkpt>
      <trkpt lat="48.28145" lon="-4.53618">
        <ele>22</ele>
        <time>2000-01-01T07:49:14.000Z</time>
      </trkpt>
      <trkpt lat="48.28178" lon="-4.53661">
        <ele>22</ele>
        <time>2000-01-01T07:49:24.000Z</time>
      </trkpt>
      <trkpt lat="48.28194" lon="-4.53687">
        <ele>22</ele>
        <time>2000-01-01T07:49:34.000Z</time>
      </trkpt>
      <trkpt lat="48.28203" lon="-4.53699">
        <ele>16.3</ele>
        <time>2000-01-01T07:49:44.000Z</time>
      </trkpt>
      <trkpt lat="48.2821" lon="-4.53711">
        <ele>21</ele>
        <time>2000-01-01T07:49:54.000Z</time>
      </trkpt>
      <trkpt lat="48.28205" lon="-4.53715">
        <ele>16.1</ele>
        <time>2000-01-01T07:50:04.000Z</time>
      </trkpt>
      <trkpt lat="48.28199" lon="-4.53724">
        <ele>16</ele>
        <time>2000-01-01T07:50:14.000Z</time>
      </trkpt>
      <trkpt lat="48.28192" lon="-4.53741">
        <ele>21</ele>
        <time>2000-01-01T07:50:24.000Z</time>
      </trkpt>
      <trkpt lat="48.28184" lon="-4.53774">
        <ele>23</ele>
        <time>2000-01-01T07:50:34.000Z</time>
      </trkpt>
      <trkpt lat="48.28175" lon="-4.53809">
        <ele>23</ele>
        <time>2000-01-01T07:50:44.000Z</time>
      </trkpt>
      <trkpt lat="48.28174" lon="-4.53822">
        <ele>20.2</ele>
        <time>2000-01-01T07:50:54.000Z</time>
      </trkpt>
      <trkpt lat="48.28176" lon="-4.53841">
        <ele>20</ele>
        <time>2000-01-01T07:51:04.000Z</time>
      </trkpt>
      <trkpt lat="48.28176" lon="-4.53847">
        <ele>21</ele>
        <time>2000-01-01T07:51:14.000Z</time>
      </trkpt>
      <trkpt lat="48.28173" lon="-4.53852">
        <ele>21.3</ele>
        <time>2000-01-01T07:51:24.000Z</time>
      </trkpt>
      <trkpt lat="48.28192" lon="-4.53898">
        <ele>18</ele>
        <time>2000-01-01T07:51:34.000Z</time>
      </trkpt>
      <trkpt lat="48.282" lon="-4.53923">
        <ele>18</ele>
        <time>2000-01-01T07:51:44.000Z</time>
      </trkpt>
      <trkpt lat="48.282" lon="-4.53984">
        <ele>20</ele>
        <time>2000-01-01T07:51:54.000Z</time>
      </trkpt>
      <trkpt lat="48.28194" lon="-4.54024">
        <ele>26</ele>
        <time>2000-01-01T07:52:04.000Z</time>
      </trkpt>
      <trkpt lat="48.28186" lon="-4.5409">
        <ele>28</ele>
        <time>2000-01-01T07:52:14.000Z</time>
      </trkpt>
      <trkpt lat="48.28175" lon="-4.54125">
        <ele>32</ele>
        <time>2000-01-01T07:52:24.000Z</time>
      </trkpt>
      <trkpt lat="48.28161" lon="-4.54171">
        <ele>32</ele>
        <time>2000-01-01T07:52:34.000Z</time>
      </trkpt>
      <trkpt lat="48.28155" lon="-4.54207">
        <ele>32</ele>
        <time>2000-01-01T07:52:44.000Z</time>
      </trkpt>
      <trkpt lat="48.28147" lon="-4.54244">
        <ele>32</ele>
        <time>2000-01-01T07:52:54.000Z</time>
      </trkpt>
      <trkpt lat="48.28137" lon="-4.54294">
        <ele>32</ele>
        <time>2000-01-01T07:53:04.000Z</time>
      </trkpt>
      <trkpt lat="48.28125" lon="-4.54358">
        <ele>32</ele>
        <time>2000-01-01T07:53:14.000Z</time>
      </trkpt>
      <trkpt lat="48.28125" lon="-4.54373">
        <ele>31.2</ele>
        <time>2000-01-01T07:53:24.000Z</time>
      </trkpt>
      <trkpt lat="48.28156" lon="-4.54491">
        <ele>32</ele>
        <time>2000-01-01T07:53:34.000Z</time>
      </trkpt>
      <trkpt lat="48.28156" lon="-4.54504">
        <ele>38.2</ele>
        <time>2000-01-01T07:53:44.000Z</time>
      </trkpt>
      <trkpt lat="48.28153" lon="-4.54514">
        <ele>38.8</ele>
        <time>2000-01-01T07:53:54.000Z</time>
      </trkpt>
      <trkpt lat="48.28112" lon="-4.54536">
        <ele>32</ele>
        <time>2000-01-01T07:54:04.000Z</time>
      </trkpt>
      <trkpt lat="48.28103" lon="-4.54543">
        <ele>40.9</ele>
        <time>2000-01-01T07:54:14.000Z</time>
      </trkpt>
      <trkpt lat="48.28035" lon="-4.54681">
        <ele>43</ele>
        <time>2000-01-01T07:54:24.000Z</time>
      </trkpt>
      <trkpt lat="48.28043" lon="-4.54731">
        <ele>45</ele>
        <time>2000-01-01T07:54:34.000Z</time>
      </trkpt>
      <trkpt lat="48.28052" lon="-4.5478">
        <ele>46</ele>
        <time>2000-01-01T07:54:44.000Z</time>
      </trkpt>
      <trkpt lat="48.2806" lon="-4.5483">
        <ele>48</ele>
        <time>2000-01-01T07:54:54.000Z</time>
      </trkpt>
      <trkpt lat="48.28071" lon="-4.54894">
        <ele>52</ele>
        <time>2000-01-01T07:55:04.000Z</time>
      </trkpt>
      <trkpt lat="48.28077" lon="-4.54944">
        <ele>55</ele>
        <time>2000-01-01T07:55:14.000Z</time>
      </trkpt>
      <trkpt lat="48.28082" lon="-4.54995">
        <ele>55</ele>
        <time>2000-01-01T07:55:24.000Z</time>
      </trkpt>
      <trkpt lat="48.28088" lon="-4.55045">
        <ele>55</ele>
        <time>2000-01-01T07:55:34.000Z</time>
      </trkpt>
      <trkpt lat="48.28094" lon="-4.55101">
        <ele>55</ele>
        <time>2000-01-01T07:55:44.000Z</time>
      </trkpt>
      <trkpt lat="48.281" lon="-4.55133">
        <ele>57</ele>
        <time>2000-01-01T07:55:54.000Z</time>
      </trkpt>
      <trkpt lat="48.28107" lon="-4.55166">
        <ele>57</ele>
        <time>2000-01-01T07:56:04.000Z</time>
      </trkpt>
      <trkpt lat="48.28121" lon="-4.55201">
        <ele>56</ele>
        <time>2000-01-01T07:56:14.000Z</time>
      </trkpt>
      <trkpt lat="48.28142" lon="-4.55253">
        <ele>56</ele>
        <time>2000-01-01T07:56:24.000Z</time>
      </trkpt>
      <trkpt lat="48.2815" lon="-4.5527">
        <ele>60</ele>
        <time>2000-01-01T07:56:34.000Z</time>
      </trkpt>
      <trkpt lat="48.28175" lon="-4.55303">
        <ele>53</ele>
        <time>2000-01-01T07:56:44.000Z</time>
      </trkpt>
      <trkpt lat="48.28188" lon="-4.55317">
        <ele>59.6</ele>
        <time>2000-01-01T07:56:54.000Z</time>
      </trkpt>
      <trkpt lat="48.28261" lon="-4.55367">
        <ele>53</ele>
        <time>2000-01-01T07:57:04.000Z</time>
      </trkpt>
      <trkpt lat="48.28278" lon="-4.55382">
        <ele>52</ele>
        <time>2000-01-01T07:57:14.000Z</time>
      </trkpt>
      <trkpt lat="48.28303" lon="-4.55409">
        <ele>52</ele>
        <time>2000-01-01T07:57:24.000Z</time>
      </trkpt>
      <trkpt lat="48.28328" lon="-4.55437">
        <ele>49</ele>
        <time>2000-01-01T07:57:34.000Z</time>
      </trkpt>
      <trkpt lat="48.28358" lon="-4.5547">
        <ele>45</ele>
        <time>2000-01-01T07:57:44.000Z</time>
      </trkpt>
      <trkpt lat="48.28377" lon="-4.55485">
        <ele>46</ele>
        <time>2000-01-01T07:57:54.000Z</time>
      </trkpt>
      <trkpt lat="48.28413" lon="-4.55494">
        <ele>48</ele>
        <time>2000-01-01T07:58:04.000Z</time>
      </trkpt>
      <trkpt lat="48.28437" lon="-4.55497">
        <ele>48</ele>
        <time>2000-01-01T07:58:14.000Z</time>
      </trkpt>
      <trkpt lat="48.28465" lon="-4.55501">
        <ele>58</ele>
        <time>2000-01-01T07:58:24.000Z</time>
      </trkpt>
      <trkpt lat="48.28491" lon="-4.555">
        <ele>60</ele>
        <time>2000-01-01T07:58:34.000Z</time>
      </trkpt>
      <trkpt lat="48.28527" lon="-4.55499">
        <ele>60</ele>
        <time>2000-01-01T07:58:44.000Z</time>
      </trkpt>
      <trkpt lat="48.2856" lon="-4.55496">
        <ele>60</ele>
        <time>2000-01-01T07:58:54.000Z</time>
      </trkpt>
      <trkpt lat="48.28593" lon="-4.55493">
        <ele>60</ele>
        <time>2000-01-01T07:59:04.000Z</time>
      </trkpt>
      <trkpt lat="48.28654" lon="-4.55487">
        <ele>60</ele>
        <time>2000-01-01T07:59:14.000Z</time>
      </trkpt>
      <trkpt lat="48.28679" lon="-4.55484">
        <ele>56</ele>
        <time>2000-01-01T07:59:24.000Z</time>
      </trkpt>
      <trkpt lat="48.28686" lon="-4.55488">
        <ele>53.3</ele>
        <time>2000-01-01T07:59:34.000Z</time>
      </trkpt>
      <trkpt lat="48.28698" lon="-4.55505">
        <ele>53</ele>
        <time>2000-01-01T07:59:44.000Z</time>
      </trkpt>
      <trkpt lat="48.28722" lon="-4.55521">
        <ele>53</ele>
        <time>2000-01-01T07:59:54.000Z</time>
      </trkpt>
      <trkpt lat="48.28761" lon="-4.55523">
        <ele>53</ele>
        <time>2000-01-01T08:00:04.000Z</time>
      </trkpt>
      <trkpt lat="48.28795" lon="-4.55527">
        <ele>53</ele>
        <time>2000-01-01T08:00:14.000Z</time>
      </trkpt>
      <trkpt lat="48.28815" lon="-4.55511">
        <ele>52</ele>
        <time>2000-01-01T08:00:24.000Z</time>
      </trkpt>
      <trkpt lat="48.2884" lon="-4.55502">
        <ele>48</ele>
        <time>2000-01-01T08:00:34.000Z</time>
      </trkpt>
      <trkpt lat="48.28866" lon="-4.55513">
        <ele>45</ele>
        <time>2000-01-01T08:00:44.000Z</time>
      </trkpt>
      <trkpt lat="48.28893" lon="-4.55509">
        <ele>32</ele>
        <time>2000-01-01T08:00:54.000Z</time>
      </trkpt>
      <trkpt lat="48.28917" lon="-4.55513">
        <ele>26</ele>
        <time>2000-01-01T08:01:04.000Z</time>
      </trkpt>
      <trkpt lat="48.28946" lon="-4.55519">
        <ele>24</ele>
        <time>2000-01-01T08:01:14.000Z</time>
      </trkpt>
      <trkpt lat="48.28968" lon="-4.55543">
        <ele>22</ele>
        <time>2000-01-01T08:01:24.000Z</time>
      </trkpt>
      <trkpt lat="48.29003" lon="-4.55582">
        <ele>21</ele>
        <time>2000-01-01T08:01:34.000Z</time>
      </trkpt>
      <trkpt lat="48.29007" lon="-4.55549">
        <ele>18</ele>
        <time>2000-01-01T08:01:44.000Z</time>
      </trkpt>
      <trkpt lat="48.29011" lon="-4.55515">
        <ele>17</ele>
        <time>2000-01-01T08:01:54.000Z</time>
      </trkpt>
      <trkpt lat="48.29011" lon="-4.55479">
        <ele>17</ele>
        <time>2000-01-01T08:02:04.000Z</time>
      </trkpt>
      <trkpt lat="48.2901" lon="-4.55437">
        <ele>16</ele>
        <time>2000-01-01T08:02:14.000Z</time>
      </trkpt>
      <trkpt lat="48.29039" lon="-4.55447">
        <ele>16</ele>
        <time>2000-01-01T08:02:24.000Z</time>
      </trkpt>
      <trkpt lat="48.29055" lon="-4.5545">
        <ele>21</ele>
        <time>2000-01-01T08:02:34.000Z</time>
      </trkpt>
      <trkpt lat="48.29081" lon="-4.55449">
        <ele>8</ele>
        <time>2000-01-01T08:02:44.000Z</time>
      </trkpt>
      <trkpt lat="48.29125" lon="-4.55442">
        <ele>8</ele>
        <time>2000-01-01T08:02:54.000Z</time>
      </trkpt>
      <trkpt lat="48.29165" lon="-4.55447">
        <ele>11</ele>
        <time>2000-01-01T08:03:04.000Z</time>
      </trkpt>
      <trkpt lat="48.29188" lon="-4.55458">
        <ele>11</ele>
        <time>2000-01-01T08:03:14.000Z</time>
      </trkpt>
      <trkpt lat="48.29209" lon="-4.55476">
        <ele>12</ele>
        <time>2000-01-01T08:03:24.000Z</time>
      </trkpt>
      <trkpt lat="48.29232" lon="-4.55497">
        <ele>12</ele>
        <time>2000-01-01T08:03:34.000Z</time>
      </trkpt>
      <trkpt lat="48.29248" lon="-4.55508">
        <ele>8.1</ele>
        <time>2000-01-01T08:03:44.000Z</time>
      </trkpt>
      <trkpt lat="48.29271" lon="-4.55519">
        <ele>12</ele>
        <time>2000-01-01T08:03:54.000Z</time>
      </trkpt>
      <trkpt lat="48.29271" lon="-4.55462">
        <ele>11</ele>
        <time>2000-01-01T08:04:04.000Z</time>
      </trkpt>
      <trkpt lat="48.29266" lon="-4.5543">
        <ele>11</ele>
        <time>2000-01-01T08:04:14.000Z</time>
      </trkpt>
      <trkpt lat="48.29244" lon="-4.55381">
        <ele>10</ele>
        <time>2000-01-01T08:04:24.000Z</time>
      </trkpt>
      <trkpt lat="48.29222" lon="-4.55325">
        <ele>8</ele>
        <time>2000-01-01T08:04:34.000Z</time>
      </trkpt>
      <trkpt lat="48.29208" lon="-4.55282">
        <ele>8</ele>
        <time>2000-01-01T08:04:44.000Z</time>
      </trkpt>
      <trkpt lat="48.29194" lon="-4.55223">
        <ele>9</ele>
        <time>2000-01-01T08:04:54.000Z</time>
      </trkpt>
      <trkpt lat="48.29185" lon="-4.5518">
        <ele>10</ele>
        <time>2000-01-01T08:05:04.000Z</time>
      </trkpt>
      <trkpt lat="48.29179" lon="-4.55142">
        <ele>10</ele>
        <time>2000-01-01T08:05:14.000Z</time>
      </trkpt>
      <trkpt lat="48.2917" lon="-4.55087">
        <ele>11</ele>
        <time>2000-01-01T08:05:24.000Z</time>
      </trkpt>
      <trkpt lat="48.29169" lon="-4.55057">
        <ele>13</ele>
        <time>2000-01-01T08:05:34.000Z</time>
      </trkpt>
      <trkpt lat="48.29171" lon="-4.55011">
        <ele>12</ele>
        <time>2000-01-01T08:05:44.000Z</time>
      </trkpt>
      <trkpt lat="48.29175" lon="-4.54973">
        <ele>12</ele>
        <time>2000-01-01T08:05:54.000Z</time>
      </trkpt>
      <trkpt lat="48.29205" lon="-4.54997">
        <ele>12</ele>
        <time>2000-01-01T08:06:04.000Z</time>
      </trkpt>
      <trkpt lat="48.29234" lon="-4.5502">
        <ele>12</ele>
        <time>2000-01-01T08:06:14.000Z</time>
      </trkpt>
      <trkpt lat="48.29291" lon="-4.55065">
        <ele>13</ele>
        <time>2000-01-01T08:06:24.000Z</time>
      </trkpt>
      <trkpt lat="48.29314" lon="-4.55086">
        <ele>11</ele>
        <time>2000-01-01T08:06:34.000Z</time>
      </trkpt>
      <trkpt lat="48.29332" lon="-4.55108">
        <ele>9</ele>
        <time>2000-01-01T08:06:44.000Z</time>
      </trkpt>
      <trkpt lat="48.29353" lon="-4.55143">
        <ele>7</ele>
        <time>2000-01-01T08:06:54.000Z</time>
      </trkpt>
      <trkpt lat="48.29374" lon="-4.55177">
        <ele>5</ele>
        <time>2000-01-01T08:07:04.000Z</time>
      </trkpt>
      <trkpt lat="48.29401" lon="-4.55222">
        <ele>5</ele>
        <time>2000-01-01T08:07:14.000Z</time>
      </trkpt>
      <trkpt lat="48.29428" lon="-4.55268">
        <ele>5</ele>
        <time>2000-01-01T08:07:24.000Z</time>
      </trkpt>
      <trkpt lat="48.29451" lon="-4.553">
        <ele>6</ele>
        <time>2000-01-01T08:07:34.000Z</time>
      </trkpt>
      <trkpt lat="48.29476" lon="-4.55331">
        <ele>7</ele>
        <time>2000-01-01T08:07:44.000Z</time>
      </trkpt>
      <trkpt lat="48.29501" lon="-4.55353">
        <ele>9</ele>
        <time>2000-01-01T08:07:54.000Z</time>
      </trkpt>
      <trkpt lat="48.29511" lon="-4.55357">
        <ele>3.2</ele>
        <time>2000-01-01T08:08:04.000Z</time>
      </trkpt>
      <trkpt lat="48.29517" lon="-4.55355">
        <ele>2.8</ele>
        <time>2000-01-01T08:08:14.000Z</time>
      </trkpt>
      <trkpt lat="48.29528" lon="-4.55341">
        <ele>9</ele>
        <time>2000-01-01T08:08:24.000Z</time>
      </trkpt>
      <trkpt lat="48.29556" lon="-4.55299">
        <ele>9</ele>
        <time>2000-01-01T08:08:34.000Z</time>
      </trkpt>
      <trkpt lat="48.29567" lon="-4.55293">
        <ele>4.41</ele>
        <time>2000-01-01T08:08:44.000Z</time>
      </trkpt>
      <trkpt lat="48.29571" lon="-4.55294">
        <ele>4.56</ele>
        <time>2000-01-01T08:08:54.000Z</time>
      </trkpt>
      <trkpt lat="48.2958" lon="-4.55299">
        <ele>10</ele>
        <time>2000-01-01T08:09:04.000Z</time>
      </trkpt>
      <trkpt lat="48.29589" lon="-4.55318">
        <ele>3.7</ele>
        <time>2000-01-01T08:09:14.000Z</time>
      </trkpt>
      <trkpt lat="48.29633" lon="-4.55438">
        <ele>11</ele>
        <time>2000-01-01T08:09:24.000Z</time>
      </trkpt>
      <trkpt lat="48.29649" lon="-4.55475">
        <ele>11</ele>
        <time>2000-01-01T08:09:34.000Z</time>
      </trkpt>
      <trkpt lat="48.2966" lon="-4.5549">
        <ele>5.8</ele>
        <time>2000-01-01T08:09:44.000Z</time>
      </trkpt>
      <trkpt lat="48.29675" lon="-4.55502">
        <ele>14</ele>
        <time>2000-01-01T08:09:54.000Z</time>
      </trkpt>
      <trkpt lat="48.29702" lon="-4.5551">
        <ele>17</ele>
        <time>2000-01-01T08:10:04.000Z</time>
      </trkpt>
      <trkpt lat="48.29746" lon="-4.55523">
        <ele>18</ele>
        <time>2000-01-01T08:10:14.000Z</time>
      </trkpt>
      <trkpt lat="48.2976" lon="-4.55529">
        <ele>10.9</ele>
        <time>2000-01-01T08:10:24.000Z</time>
      </trkpt>
      <trkpt lat="48.29778" lon="-4.55542">
        <ele>19</ele>
        <time>2000-01-01T08:10:34.000Z</time>
      </trkpt>
      <trkpt lat="48.298" lon="-4.55566">
        <ele>18</ele>
        <time>2000-01-01T08:10:44.000Z</time>
      </trkpt>
      <trkpt lat="48.29823" lon="-4.55586">
        <ele>18</ele>
        <time>2000-01-01T08:10:54.000Z</time>
      </trkpt>
      <trkpt lat="48.29858" lon="-4.55614">
        <ele>18</ele>
        <time>2000-01-01T08:11:04.000Z</time>
      </trkpt>
      <trkpt lat="48.29895" lon="-4.5564">
        <ele>20</ele>
        <time>2000-01-01T08:11:14.000Z</time>
      </trkpt>
      <trkpt lat="48.29923" lon="-4.55652">
        <ele>18</ele>
        <time>2000-01-01T08:11:24.000Z</time>
      </trkpt>
      <trkpt lat="48.29972" lon="-4.55673">
        <ele>19</ele>
        <time>2000-01-01T08:11:34.000Z</time>
      </trkpt>
      <trkpt lat="48.30002" lon="-4.55682">
        <ele>19</ele>
        <time>2000-01-01T08:11:44.000Z</time>
      </trkpt>
      <trkpt lat="48.30025" lon="-4.5568">
        <ele>19</ele>
        <time>2000-01-01T08:11:54.000Z</time>
      </trkpt>
      <trkpt lat="48.30048" lon="-4.55679">
        <ele>19</ele>
        <time>2000-01-01T08:12:04.000Z</time>
      </trkpt>
      <trkpt lat="48.30077" lon="-4.55669">
        <ele>19</ele>
        <time>2000-01-01T08:12:14.000Z</time>
      </trkpt>
      <trkpt lat="48.30108" lon="-4.5564">
        <ele>17</ele>
        <time>2000-01-01T08:12:24.000Z</time>
      </trkpt>
      <trkpt lat="48.30142" lon="-4.55614">
        <ele>12</ele>
        <time>2000-01-01T08:12:34.000Z</time>
      </trkpt>
      <trkpt lat="48.30168" lon="-4.55609">
        <ele>11</ele>
        <time>2000-01-01T08:12:44.000Z</time>
      </trkpt>
      <trkpt lat="48.30203" lon="-4.55602">
        <ele>11</ele>
        <time>2000-01-01T08:12:54.000Z</time>
      </trkpt>
      <trkpt lat="48.30227" lon="-4.55607">
        <ele>10</ele>
        <time>2000-01-01T08:13:04.000Z</time>
      </trkpt>
      <trkpt lat="48.30256" lon="-4.55613">
        <ele>10</ele>
        <time>2000-01-01T08:13:14.000Z</time>
      </trkpt>
      <trkpt lat="48.30286" lon="-4.5562">
        <ele>8</ele>
        <time>2000-01-01T08:13:24.000Z</time>
      </trkpt>
      <trkpt lat="48.30315" lon="-4.55619">
        <ele>8</ele>
        <time>2000-01-01T08:13:34.000Z</time>
      </trkpt>
      <trkpt lat="48.30371" lon="-4.55617">
        <ele>7</ele>
        <time>2000-01-01T08:13:44.000Z</time>
      </trkpt>
      <trkpt lat="48.30394" lon="-4.55604">
        <ele>5</ele>
        <time>2000-01-01T08:13:54.000Z</time>
      </trkpt>
      <trkpt lat="48.30421" lon="-4.55588">
        <ele>5</ele>
        <time>2000-01-01T08:14:04.000Z</time>
      </trkpt>
      <trkpt lat="48.30447" lon="-4.55567">
        <ele>5</ele>
        <time>2000-01-01T08:14:14.000Z</time>
      </trkpt>
      <trkpt lat="48.30468" lon="-4.55551">
        <ele>3</ele>
        <time>2000-01-01T08:14:24.000Z</time>
      </trkpt>
      <trkpt lat="48.30491" lon="-4.55532">
        <ele>3.8</ele>
        <time>2000-01-01T08:14:34.000Z</time>
      </trkpt>
      <trkpt lat="48.30505" lon="-4.55504">
        <ele>3.6</ele>
        <time>2000-01-01T08:14:44.000Z</time>
      </trkpt>
      <trkpt lat="48.30522" lon="-4.55471">
        <ele>4.9</ele>
        <time>2000-01-01T08:14:54.000Z</time>
      </trkpt>
      <trkpt lat="48.30536" lon="-4.55442">
        <ele>4.3</ele>
        <time>2000-01-01T08:15:04.000Z</time>
      </trkpt>
      <trkpt lat="48.3055" lon="-4.5541">
        <ele>12</ele>
        <time>2000-01-01T08:15:14.000Z</time>
      </trkpt>
      <trkpt lat="48.3057" lon="-4.55366">
        <ele>16</ele>
        <time>2000-01-01T08:15:24.000Z</time>
      </trkpt>
      <trkpt lat="48.3059" lon="-4.55323">
        <ele>17</ele>
        <time>2000-01-01T08:15:34.000Z</time>
      </trkpt>
      <trkpt lat="48.30607" lon="-4.55293">
        <ele>18</ele>
        <time>2000-01-01T08:15:44.000Z</time>
      </trkpt>
      <trkpt lat="48.30631" lon="-4.55253">
        <ele>18</ele>
        <time>2000-01-01T08:15:54.000Z</time>
      </trkpt>
      <trkpt lat="48.30656" lon="-4.55239">
        <ele>18</ele>
        <time>2000-01-01T08:16:04.000Z</time>
      </trkpt>
      <trkpt lat="48.30693" lon="-4.55218">
        <ele>19</ele>
        <time>2000-01-01T08:16:14.000Z</time>
      </trkpt>
      <trkpt lat="48.30724" lon="-4.55209">
        <ele>20</ele>
        <time>2000-01-01T08:16:24.000Z</time>
      </trkpt>
      <trkpt lat="48.30752" lon="-4.55202">
        <ele>24</ele>
        <time>2000-01-01T08:16:34.000Z</time>
      </trkpt>
      <trkpt lat="48.30801" lon="-4.55189">
        <ele>25</ele>
        <time>2000-01-01T08:16:44.000Z</time>
      </trkpt>
      <trkpt lat="48.30836" lon="-4.55168">
        <ele>25</ele>
        <time>2000-01-01T08:16:54.000Z</time>
      </trkpt>
      <trkpt lat="48.30862" lon="-4.55153">
        <ele>26</ele>
        <time>2000-01-01T08:17:04.000Z</time>
      </trkpt>
      <trkpt lat="48.30906" lon="-4.55128">
        <ele>28</ele>
        <time>2000-01-01T08:17:14.000Z</time>
      </trkpt>
      <trkpt lat="48.30941" lon="-4.55107">
        <ele>30</ele>
        <time>2000-01-01T08:17:24.000Z</time>
      </trkpt>
      <trkpt lat="48.30968" lon="-4.55092">
        <ele>29</ele>
        <time>2000-01-01T08:17:34.000Z</time>
      </trkpt>
      <trkpt lat="48.31014" lon="-4.55065">
        <ele>29</ele>
        <time>2000-01-01T08:17:44.000Z</time>
      </trkpt>
      <trkpt lat="48.31045" lon="-4.55052">
        <ele>29</ele>
        <time>2000-01-01T08:17:54.000Z</time>
      </trkpt>
      <trkpt lat="48.31075" lon="-4.55039">
        <ele>29</ele>
        <time>2000-01-01T08:18:04.000Z</time>
      </trkpt>
      <trkpt lat="48.31119" lon="-4.55021">
        <ele>26</ele>
        <time>2000-01-01T08:18:14.000Z</time>
      </trkpt>
      <trkpt lat="48.31147" lon="-4.55023">
        <ele>28</ele>
        <time>2000-01-01T08:18:24.000Z</time>
      </trkpt>
      <trkpt lat="48.31196" lon="-4.55027">
        <ele>28</ele>
        <time>2000-01-01T08:18:34.000Z</time>
      </trkpt>
      <trkpt lat="48.31215" lon="-4.55041">
        <ele>28</ele>
        <time>2000-01-01T08:18:44.000Z</time>
      </trkpt>
      <trkpt lat="48.3122" lon="-4.55079">
        <ele>28</ele>
        <time>2000-01-01T08:18:54.000Z</time>
      </trkpt>
      <trkpt lat="48.31227" lon="-4.55132">
        <ele>29</ele>
        <time>2000-01-01T08:19:04.000Z</time>
      </trkpt>
      <trkpt lat="48.31238" lon="-4.55185">
        <ele>30</ele>
        <time>2000-01-01T08:19:14.000Z</time>
      </trkpt>
      <trkpt lat="48.31269" lon="-4.55178">
        <ele>30</ele>
        <time>2000-01-01T08:19:24.000Z</time>
      </trkpt>
      <trkpt lat="48.313" lon="-4.55171">
        <ele>30</ele>
        <time>2000-01-01T08:19:34.000Z</time>
      </trkpt>
      <trkpt lat="48.31339" lon="-4.55162">
        <ele>29</ele>
        <time>2000-01-01T08:19:44.000Z</time>
      </trkpt>
      <trkpt lat="48.31356" lon="-4.55164">
        <ele>34.8</ele>
        <time>2000-01-01T08:19:54.000Z</time>
      </trkpt>
      <trkpt lat="48.3137" lon="-4.55172">
        <ele>36</ele>
        <time>2000-01-01T08:20:04.000Z</time>
      </trkpt>
      <trkpt lat="48.31383" lon="-4.55187">
        <ele>33.5</ele>
        <time>2000-01-01T08:20:14.000Z</time>
      </trkpt>
      <trkpt lat="48.31392" lon="-4.55211">
        <ele>30</ele>
        <time>2000-01-01T08:20:24.000Z</time>
      </trkpt>
      <trkpt lat="48.31401" lon="-4.5523">
        <ele>32.9</ele>
        <time>2000-01-01T08:20:34.000Z</time>
      </trkpt>
      <trkpt lat="48.31439" lon="-4.55156">
        <ele>30</ele>
        <time>2000-01-01T08:20:44.000Z</time>
      </trkpt>
      <trkpt lat="48.31457" lon="-4.55154">
        <ele>30</ele>
        <time>2000-01-01T08:20:54.000Z</time>
      </trkpt>
      <trkpt lat="48.31474" lon="-4.55167">
        <ele>25</ele>
        <time>2000-01-01T08:21:04.000Z</time>
      </trkpt>
      <trkpt lat="48.31457" lon="-4.55149">
        <ele>26</ele>
        <time>2000-01-01T08:21:14.000Z</time>
      </trkpt>
      <trkpt lat="48.31449" lon="-4.55136">
        <ele>25.5</ele>
        <time>2000-01-01T08:21:24.000Z</time>
      </trkpt>
      <trkpt lat="48.31467" lon="-4.55108">
        <ele>26</ele>
        <time>2000-01-01T08:21:34.000Z</time>
      </trkpt>
      <trkpt lat="48.31497" lon="-4.55128">
        <ele>27</ele>
        <time>2000-01-01T08:21:44.000Z</time>
      </trkpt>
      <trkpt lat="48.31519" lon="-4.5513">
        <ele>27</ele>
        <time>2000-01-01T08:21:54.000Z</time>
      </trkpt>
      <trkpt lat="48.3156" lon="-4.55117">
        <ele>25</ele>
        <time>2000-01-01T08:22:04.000Z</time>
      </trkpt>
      <trkpt lat="48.3158" lon="-4.55107">
        <ele>24</ele>
        <time>2000-01-01T08:22:14.000Z</time>
      </trkpt>
      <trkpt lat="48.31618" lon="-4.55093">
        <ele>23</ele>
        <time>2000-01-01T08:22:24.000Z</time>
      </trkpt>
      <trkpt lat="48.31643" lon="-4.55081">
        <ele>23</ele>
        <time>2000-01-01T08:22:34.000Z</time>
      </trkpt>
      <trkpt lat="48.3168" lon="-4.55063">
        <ele>24</ele>
        <time>2000-01-01T08:22:44.000Z</time>
      </trkpt>
      <trkpt lat="48.31705" lon="-4.55053">
        <ele>28</ele>
        <time>2000-01-01T08:22:54.000Z</time>
      </trkpt>
      <trkpt lat="48.31742" lon="-4.55039">
        <ele>30</ele>
        <time>2000-01-01T08:23:04.000Z</time>
      </trkpt>
      <trkpt lat="48.31764" lon="-4.55032">
        <ele>30</ele>
        <time>2000-01-01T08:23:14.000Z</time>
      </trkpt>
      <trkpt lat="48.31786" lon="-4.55024">
        <ele>29</ele>
        <time>2000-01-01T08:23:24.000Z</time>
      </trkpt>
      <trkpt lat="48.318" lon="-4.55058">
        <ele>29</ele>
        <time>2000-01-01T08:23:34.000Z</time>
      </trkpt>
      <trkpt lat="48.3182" lon="-4.55108">
        <ele>36</ele>
        <time>2000-01-01T08:23:44.000Z</time>
      </trkpt>
      <trkpt lat="48.31832" lon="-4.55139">
        <ele>42</ele>
        <time>2000-01-01T08:23:54.000Z</time>
      </trkpt>
      <trkpt lat="48.31847" lon="-4.55176">
        <ele>43</ele>
        <time>2000-01-01T08:24:04.000Z</time>
      </trkpt>
      <trkpt lat="48.31858" lon="-4.55205">
        <ele>45</ele>
        <time>2000-01-01T08:24:14.000Z</time>
      </trkpt>
      <trkpt lat="48.31871" lon="-4.55235">
        <ele>48</ele>
        <time>2000-01-01T08:24:24.000Z</time>
      </trkpt>
      <trkpt lat="48.31885" lon="-4.55271">
        <ele>48</ele>
        <time>2000-01-01T08:24:34.000Z</time>
      </trkpt>
      <trkpt lat="48.31898" lon="-4.55301">
        <ele>47</ele>
        <time>2000-01-01T08:24:44.000Z</time>
      </trkpt>
      <trkpt lat="48.31911" lon="-4.55333">
        <ele>47</ele>
        <time>2000-01-01T08:24:54.000Z</time>
      </trkpt>
      <trkpt lat="48.31931" lon="-4.55393">
        <ele>51</ele>
        <time>2000-01-01T08:25:04.000Z</time>
      </trkpt>
      <trkpt lat="48.3194" lon="-4.55427">
        <ele>56</ele>
        <time>2000-01-01T08:25:14.000Z</time>
      </trkpt>
      <trkpt lat="48.31951" lon="-4.55468">
        <ele>58</ele>
        <time>2000-01-01T08:25:24.000Z</time>
      </trkpt>
      <trkpt lat="48.31963" lon="-4.5551">
        <ele>61</ele>
        <time>2000-01-01T08:25:34.000Z</time>
      </trkpt>
      <trkpt lat="48.31971" lon="-4.55543">
        <ele>62</ele>
        <time>2000-01-01T08:25:44.000Z</time>
      </trkpt>
      <trkpt lat="48.3198" lon="-4.55577">
        <ele>64</ele>
        <time>2000-01-01T08:25:54.000Z</time>
      </trkpt>
      <trkpt lat="48.31987" lon="-4.55616">
        <ele>64</ele>
        <time>2000-01-01T08:26:04.000Z</time>
      </trkpt>
      <trkpt lat="48.31999" lon="-4.55675">
        <ele>67</ele>
        <time>2000-01-01T08:26:14.000Z</time>
      </trkpt>
      <trkpt lat="48.32002" lon="-4.55712">
        <ele>67</ele>
        <time>2000-01-01T08:26:24.000Z</time>
      </trkpt>
      <trkpt lat="48.32006" lon="-4.55757">
        <ele>68</ele>
        <time>2000-01-01T08:26:34.000Z</time>
      </trkpt>
      <trkpt lat="48.32005" lon="-4.55761">
        <ele>67.1</ele>
        <time>2000-01-01T08:26:44.000Z</time>
      </trkpt>
      <trkpt lat="48.3204" lon="-4.55742">
        <ele>68</ele>
        <time>2000-01-01T08:26:54.000Z</time>
      </trkpt>
      <trkpt lat="48.32074" lon="-4.55724">
        <ele>69</ele>
        <time>2000-01-01T08:27:04.000Z</time>
      </trkpt>
      <trkpt lat="48.32108" lon="-4.55706">
        <ele>68</ele>
        <time>2000-01-01T08:27:14.000Z</time>
      </trkpt>
      <trkpt lat="48.32142" lon="-4.55688">
        <ele>68</ele>
        <time>2000-01-01T08:27:24.000Z</time>
      </trkpt>
      <trkpt lat="48.32176" lon="-4.55671">
        <ele>68</ele>
        <time>2000-01-01T08:27:34.000Z</time>
      </trkpt>
      <trkpt lat="48.32213" lon="-4.55651">
        <ele>68</ele>
        <time>2000-01-01T08:27:44.000Z</time>
      </trkpt>
      <trkpt lat="48.32242" lon="-4.55635">
        <ele>69</ele>
        <time>2000-01-01T08:27:54.000Z</time>
      </trkpt>
      <trkpt lat="48.32271" lon="-4.55619">
        <ele>69</ele>
        <time>2000-01-01T08:28:04.000Z</time>
      </trkpt>
      <trkpt lat="48.32308" lon="-4.55599">
        <ele>70</ele>
        <time>2000-01-01T08:28:14.000Z</time>
      </trkpt>
      <trkpt lat="48.32337" lon="-4.55562">
        <ele>70</ele>
        <time>2000-01-01T08:28:24.000Z</time>
      </trkpt>
      <trkpt lat="48.32359" lon="-4.55535">
        <ele>66</ele>
        <time>2000-01-01T08:28:34.000Z</time>
      </trkpt>
      <trkpt lat="48.32395" lon="-4.5549">
        <ele>64</ele>
        <time>2000-01-01T08:28:44.000Z</time>
      </trkpt>
      <trkpt lat="48.32416" lon="-4.55463">
        <ele>64</ele>
        <time>2000-01-01T08:28:54.000Z</time>
      </trkpt>
      <trkpt lat="48.32452" lon="-4.55417">
        <ele>70</ele>
        <time>2000-01-01T08:29:04.000Z</time>
      </trkpt>
      <trkpt lat="48.32485" lon="-4.55376">
        <ele>71</ele>
        <time>2000-01-01T08:29:14.000Z</time>
      </trkpt>
      <trkpt lat="48.32496" lon="-4.55366">
        <ele>71.9</ele>
        <time>2000-01-01T08:29:24.000Z</time>
      </trkpt>
      <trkpt lat="48.32527" lon="-4.55344">
        <ele>70</ele>
        <time>2000-01-01T08:29:34.000Z</time>
      </trkpt>
      <trkpt lat="48.32563" lon="-4.55328">
        <ele>69</ele>
        <time>2000-01-01T08:29:44.000Z</time>
      </trkpt>
      <trkpt lat="48.32587" lon="-4.55322">
        <ele>69</ele>
        <time>2000-01-01T08:29:54.000Z</time>
      </trkpt>
      <trkpt lat="48.32615" lon="-4.55314">
        <ele>70</ele>
        <time>2000-01-01T08:30:04.000Z</time>
      </trkpt>
      <trkpt lat="48.32641" lon="-4.55306">
        <ele>70</ele>
        <time>2000-01-01T08:30:14.000Z</time>
      </trkpt>
      <trkpt lat="48.32672" lon="-4.55289">
        <ele>70</ele>
        <time>2000-01-01T08:30:24.000Z</time>
      </trkpt>
      <trkpt lat="48.32704" lon="-4.55272">
        <ele>70</ele>
        <time>2000-01-01T08:30:34.000Z</time>
      </trkpt>
      <trkpt lat="48.32762" lon="-4.55241">
        <ele>69</ele>
        <time>2000-01-01T08:30:44.000Z</time>
      </trkpt>
      <trkpt lat="48.32748" lon="-4.55195">
        <ele>67</ele>
        <time>2000-01-01T08:30:54.000Z</time>
      </trkpt>
      <trkpt lat="48.32772" lon="-4.55178">
        <ele>69</ele>
        <time>2000-01-01T08:31:04.000Z</time>
      </trkpt>
      <trkpt lat="48.32806" lon="-4.55154">
        <ele>72</ele>
        <time>2000-01-01T08:31:14.000Z</time>
      </trkpt>
      <trkpt lat="48.32814" lon="-4.55145">
        <ele>65.5</ele>
        <time>2000-01-01T08:31:24.000Z</time>
      </trkpt>
      <trkpt lat="48.32819" lon="-4.55133">
        <ele>75</ele>
        <time>2000-01-01T08:31:34.000Z</time>
      </trkpt>
      <trkpt lat="48.32819" lon="-4.55082">
        <ele>75</ele>
        <time>2000-01-01T08:31:44.000Z</time>
      </trkpt>
      <trkpt lat="48.32821" lon="-4.55066">
        <ele>62.4</ele>
        <time>2000-01-01T08:31:54.000Z</time>
      </trkpt>
      <trkpt lat="48.32832" lon="-4.55034">
        <ele>68</ele>
        <time>2000-01-01T08:32:04.000Z</time>
      </trkpt>
      <trkpt lat="48.32836" lon="-4.55001">
        <ele>64</ele>
        <time>2000-01-01T08:32:14.000Z</time>
      </trkpt>
      <trkpt lat="48.32841" lon="-4.54965">
        <ele>60</ele>
        <time>2000-01-01T08:32:24.000Z</time>
      </trkpt>
      <trkpt lat="48.32846" lon="-4.54937">
        <ele>56</ele>
        <time>2000-01-01T08:32:34.000Z</time>
      </trkpt>
      <trkpt lat="48.32848" lon="-4.54919">
        <ele>60</ele>
        <time>2000-01-01T08:32:44.000Z</time>
      </trkpt>
      <trkpt lat="48.3285" lon="-4.54894">
        <ele>56</ele>
        <time>2000-01-01T08:32:54.000Z</time>
      </trkpt>
      <trkpt lat="48.32852" lon="-4.54836">
        <ele>62</ele>
        <time>2000-01-01T08:33:04.000Z</time>
      </trkpt>
      <trkpt lat="48.32874" lon="-4.54818">
        <ele>62</ele>
        <time>2000-01-01T08:33:14.000Z</time>
      </trkpt>
      <trkpt lat="48.32901" lon="-4.54795">
        <ele>62</ele>
        <time>2000-01-01T08:33:24.000Z</time>
      </trkpt>
      <trkpt lat="48.32922" lon="-4.54781">
        <ele>63</ele>
        <time>2000-01-01T08:33:34.000Z</time>
      </trkpt>
      <trkpt lat="48.32945" lon="-4.54765">
        <ele>63</ele>
        <time>2000-01-01T08:33:44.000Z</time>
      </trkpt>
      <trkpt lat="48.32961" lon="-4.54757">
        <ele>61.7</ele>
        <time>2000-01-01T08:33:54.000Z</time>
      </trkpt>
      <trkpt lat="48.32976" lon="-4.54737">
        <ele>63</ele>
        <time>2000-01-01T08:34:04.000Z</time>
      </trkpt>
      <trkpt lat="48.32967" lon="-4.5469">
        <ele>60</ele>
        <time>2000-01-01T08:34:14.000Z</time>
      </trkpt>
      <trkpt lat="48.3296" lon="-4.54648">
        <ele>60</ele>
        <time>2000-01-01T08:34:24.000Z</time>
      </trkpt>
      <trkpt lat="48.32946" lon="-4.54568">
        <ele>60</ele>
        <time>2000-01-01T08:34:34.000Z</time>
      </trkpt>
      <trkpt lat="48.32968" lon="-4.54575">
        <ele>58</ele>
        <time>2000-01-01T08:34:44.000Z</time>
      </trkpt>
      <trkpt lat="48.32992" lon="-4.54583">
        <ele>61</ele>
        <time>2000-01-01T08:34:54.000Z</time>
      </trkpt>
      <trkpt lat="48.33004" lon="-4.54575">
        <ele>63</ele>
        <time>2000-01-01T08:35:04.000Z</time>
      </trkpt>
      <trkpt lat="48.33044" lon="-4.54529">
        <ele>62</ele>
        <time>2000-01-01T08:35:14.000Z</time>
      </trkpt>
      <trkpt lat="48.33065" lon="-4.54501">
        <ele>64</ele>
        <time>2000-01-01T08:35:24.000Z</time>
      </trkpt>
      <trkpt lat="48.33084" lon="-4.5448">
        <ele>64</ele>
        <time>2000-01-01T08:35:34.000Z</time>
      </trkpt>
      <trkpt lat="48.33105" lon="-4.54457">
        <ele>60</ele>
        <time>2000-01-01T08:35:44.000Z</time>
      </trkpt>
      <trkpt lat="48.33107" lon="-4.54448">
        <ele>63</ele>
        <time>2000-01-01T08:35:54.000Z</time>
      </trkpt>
      <trkpt lat="48.33096" lon="-4.54418">
        <ele>60</ele>
        <time>2000-01-01T08:36:04.000Z</time>
      </trkpt>
      <trkpt lat="48.33119" lon="-4.54397">
        <ele>63</ele>
        <time>2000-01-01T08:36:14.000Z</time>
      </trkpt>
      <trkpt lat="48.33156" lon="-4.54364">
        <ele>66</ele>
        <time>2000-01-01T08:36:24.000Z</time>
      </trkpt>
      <trkpt lat="48.33147" lon="-4.54333">
        <ele>67</ele>
        <time>2000-01-01T08:36:34.000Z</time>
      </trkpt>
      <trkpt lat="48.33172" lon="-4.54321">
        <ele>66</ele>
        <time>2000-01-01T08:36:44.000Z</time>
      </trkpt>
      <trkpt lat="48.33206" lon="-4.54303">
        <ele>65</ele>
        <time>2000-01-01T08:36:54.000Z</time>
      </trkpt>
      <trkpt lat="48.33224" lon="-4.54342">
        <ele>65</ele>
        <time>2000-01-01T08:37:04.000Z</time>
      </trkpt>
      <trkpt lat="48.33254" lon="-4.54317">
        <ele>65</ele>
        <time>2000-01-01T08:37:14.000Z</time>
      </trkpt>
      <trkpt lat="48.3327" lon="-4.5431">
        <ele>65.7</ele>
        <time>2000-01-01T08:37:24.000Z</time>
      </trkpt>
      <trkpt lat="48.33288" lon="-4.54294">
        <ele>65</ele>
        <time>2000-01-01T08:37:34.000Z</time>
      </trkpt>
      <trkpt lat="48.33298" lon="-4.54278">
        <ele>65.7</ele>
        <time>2000-01-01T08:37:44.000Z</time>
      </trkpt>
      <trkpt lat="48.33319" lon="-4.54255">
        <ele>64</ele>
        <time>2000-01-01T08:37:54.000Z</time>
      </trkpt>
      <trkpt lat="48.33356" lon="-4.54225">
        <ele>63</ele>
        <time>2000-01-01T08:38:04.000Z</time>
      </trkpt>
      <trkpt lat="48.33347" lon="-4.54192">
        <ele>61</ele>
        <time>2000-01-01T08:38:14.000Z</time>
      </trkpt>
      <trkpt lat="48.33336" lon="-4.54155">
        <ele>61</ele>
        <time>2000-01-01T08:38:24.000Z</time>
      </trkpt>
      <trkpt lat="48.33334" lon="-4.54133">
        <ele>62.8</ele>
        <time>2000-01-01T08:38:34.000Z</time>
      </trkpt>
      <trkpt lat="48.33367" lon="-4.54101">
        <ele>61</ele>
        <time>2000-01-01T08:38:44.000Z</time>
      </trkpt>
      <trkpt lat="48.33405" lon="-4.5408">
        <ele>61</ele>
        <time>2000-01-01T08:38:54.000Z</time>
      </trkpt>
      <trkpt lat="48.33432" lon="-4.54063">
        <ele>61</ele>
        <time>2000-01-01T08:39:04.000Z</time>
      </trkpt>
      <trkpt lat="48.33481" lon="-4.54032">
        <ele>61</ele>
        <time>2000-01-01T08:39:14.000Z</time>
      </trkpt>
      <trkpt lat="48.33518" lon="-4.54007">
        <ele>61</ele>
        <time>2000-01-01T08:39:24.000Z</time>
      </trkpt>
      <trkpt lat="48.33548" lon="-4.53988">
        <ele>66</ele>
        <time>2000-01-01T08:39:34.000Z</time>
      </trkpt>
      <trkpt lat="48.33578" lon="-4.53968">
        <ele>67</ele>
        <time>2000-01-01T08:39:44.000Z</time>
      </trkpt>
      <trkpt lat="48.33632" lon="-4.53934">
        <ele>66</ele>
        <time>2000-01-01T08:39:54.000Z</time>
      </trkpt>
      <trkpt lat="48.33669" lon="-4.53909">
        <ele>66</ele>
        <time>2000-01-01T08:40:04.000Z</time>
      </trkpt>
      <trkpt lat="48.33699" lon="-4.5389">
        <ele>68</ele>
        <time>2000-01-01T08:40:14.000Z</time>
      </trkpt>
      <trkpt lat="48.33729" lon="-4.53871">
        <ele>71</ele>
        <time>2000-01-01T08:40:24.000Z</time>
      </trkpt>
      <trkpt lat="48.3378" lon="-4.53838">
        <ele>71</ele>
        <time>2000-01-01T08:40:34.000Z</time>
      </trkpt>
      <trkpt lat="48.33777" lon="-4.53805">
        <ele>68</ele>
        <time>2000-01-01T08:40:44.000Z</time>
      </trkpt>
      <trkpt lat="48.33776" lon="-4.53758">
        <ele>66</ele>
        <time>2000-01-01T08:40:54.000Z</time>
      </trkpt>
      <trkpt lat="48.33769" lon="-4.53745">
        <ele>70.1</ele>
        <time>2000-01-01T08:41:04.000Z</time>
      </trkpt>
      <trkpt lat="48.33761" lon="-4.53735">
        <ele>64</ele>
        <time>2000-01-01T08:41:14.000Z</time>
      </trkpt>
      <trkpt lat="48.33756" lon="-4.53715">
        <ele>67.8</ele>
        <time>2000-01-01T08:41:24.000Z</time>
      </trkpt>
      <trkpt lat="48.3377" lon="-4.53689">
        <ele>64</ele>
        <time>2000-01-01T08:41:34.000Z</time>
      </trkpt>
      <trkpt lat="48.33785" lon="-4.53648">
        <ele>64</ele>
        <time>2000-01-01T08:41:44.000Z</time>
      </trkpt>
      <trkpt lat="48.33801" lon="-4.53616">
        <ele>67</ele>
        <time>2000-01-01T08:41:54.000Z</time>
      </trkpt>
      <trkpt lat="48.33822" lon="-4.53571">
        <ele>65</ele>
        <time>2000-01-01T08:42:04.000Z</time>
      </trkpt>
      <trkpt lat="48.33825" lon="-4.53553">
        <ele>63.1</ele>
        <time>2000-01-01T08:42:14.000Z</time>
      </trkpt>
      <trkpt lat="48.33855" lon="-4.53537">
        <ele>69</ele>
        <time>2000-01-01T08:42:24.000Z</time>
      </trkpt>
      <trkpt lat="48.33863" lon="-4.53514">
        <ele>65</ele>
        <time>2000-01-01T08:42:34.000Z</time>
      </trkpt>
      <trkpt lat="48.33963" lon="-4.53502">
        <ele>74</ele>
        <time>2000-01-01T08:42:44.000Z</time>
      </trkpt>
      <trkpt lat="48.33982" lon="-4.53482">
        <ele>74</ele>
        <time>2000-01-01T08:42:54.000Z</time>
      </trkpt>
      <trkpt lat="48.34002" lon="-4.53461">
        <ele>70</ele>
        <time>2000-01-01T08:43:04.000Z</time>
      </trkpt>
      <trkpt lat="48.34023" lon="-4.5341">
        <ele>68</ele>
        <time>2000-01-01T08:43:14.000Z</time>
      </trkpt>
      <trkpt lat="48.34048" lon="-4.53411">
        <ele>68</ele>
        <time>2000-01-01T08:43:24.000Z</time>
      </trkpt>
      <trkpt lat="48.34078" lon="-4.53412">
        <ele>66</ele>
        <time>2000-01-01T08:43:34.000Z</time>
      </trkpt>
      <trkpt lat="48.34098" lon="-4.53391">
        <ele>67</ele>
        <time>2000-01-01T08:43:44.000Z</time>
      </trkpt>
      <trkpt lat="48.34094" lon="-4.53424">
        <ele>69</ele>
        <time>2000-01-01T08:43:54.000Z</time>
      </trkpt>
      <trkpt lat="48.34087" lon="-4.53456">
        <ele>71</ele>
        <time>2000-01-01T08:44:04.000Z</time>
      </trkpt>
      <trkpt lat="48.34096" lon="-4.53451">
        <ele>61.9</ele>
        <time>2000-01-01T08:44:14.000Z</time>
      </trkpt>
      <trkpt lat="48.34097" lon="-4.53486">
        <ele>66</ele>
        <time>2000-01-01T08:44:24.000Z</time>
      </trkpt>
      <trkpt lat="48.34116" lon="-4.53442">
        <ele>62</ele>
        <time>2000-01-01T08:44:34.000Z</time>
      </trkpt>
      <trkpt lat="48.34115" lon="-4.53483">
        <ele>50</ele>
        <time>2000-01-01T08:44:44.000Z</time>
      </trkpt>
      <trkpt lat="48.34121" lon="-4.53474">
        <ele>40.2</ele>
        <time>2000-01-01T08:44:54.000Z</time>
      </trkpt>
      <trkpt lat="48.34125" lon="-4.53489">
        <ele>50</ele>
        <time>2000-01-01T08:45:04.000Z</time>
      </trkpt>
      <trkpt lat="48.34131" lon="-4.53464">
        <ele>34.1</ele>
        <time>2000-01-01T08:45:14.000Z</time>
      </trkpt>
      <trkpt lat="48.34137" lon="-4.53481">
        <ele>33</ele>
        <time>2000-01-01T08:45:24.000Z</time>
      </trkpt>
      <trkpt lat="48.34142" lon="-4.53462">
        <ele>26.4</ele>
        <time>2000-01-01T08:45:34.000Z</time>
      </trkpt>
      <trkpt lat="48.34146" lon="-4.53468">
        <ele>27</ele>
        <time>2000-01-01T08:45:44.000Z</time>
      </trkpt>
      <trkpt lat="48.34152" lon="-4.53455">
        <ele>22</ele>
        <time>2000-01-01T08:45:54.000Z</time>
      </trkpt>
      <trkpt lat="48.34156" lon="-4.5346">
        <ele>18.4</ele>
        <time>2000-01-01T08:46:04.000Z</time>
      </trkpt>
      <trkpt lat="48.34154" lon="-4.53473">
        <ele>27</ele>
        <time>2000-01-01T08:46:14.000Z</time>
      </trkpt>
      <trkpt lat="48.3415" lon="-4.53489">
        <ele>16</ele>
        <time>2000-01-01T08:46:24.000Z</time>
      </trkpt>
      <trkpt lat="48.34149" lon="-4.53513">
        <ele>27</ele>
        <time>2000-01-01T08:46:34.000Z</time>
      </trkpt>
      <trkpt lat="48.34144" lon="-4.53547">
        <ele>27</ele>
        <time>2000-01-01T08:46:44.000Z</time>
      </trkpt>
      <trkpt lat="48.34138" lon="-4.53562">
        <ele>16.9</ele>
        <time>2000-01-01T08:46:54.000Z</time>
      </trkpt>
      <trkpt lat="48.34115" lon="-4.53609">
        <ele>25</ele>
        <time>2000-01-01T08:47:04.000Z</time>
      </trkpt>
      <trkpt lat="48.34106" lon="-4.5364">
        <ele>27</ele>
        <time>2000-01-01T08:47:14.000Z</time>
      </trkpt>
      <trkpt lat="48.34095" lon="-4.53673">
        <ele>23</ele>
        <time>2000-01-01T08:47:24.000Z</time>
      </trkpt>
      <trkpt lat="48.34083" lon="-4.53723">
        <ele>23</ele>
        <time>2000-01-01T08:47:34.000Z</time>
      </trkpt>
      <trkpt lat="48.34075" lon="-4.53739">
        <ele>31.1</ele>
        <time>2000-01-01T08:47:44.000Z</time>
      </trkpt>
      <trkpt lat="48.34059" lon="-4.53811">
        <ele>23</ele>
        <time>2000-01-01T08:47:54.000Z</time>
      </trkpt>
      <trkpt lat="48.34053" lon="-4.53827">
        <ele>32.1</ele>
        <time>2000-01-01T08:48:04.000Z</time>
      </trkpt>
      <trkpt lat="48.3405" lon="-4.53843">
        <ele>25</ele>
        <time>2000-01-01T08:48:14.000Z</time>
      </trkpt>
      <trkpt lat="48.34043" lon="-4.53861">
        <ele>28.5</ele>
        <time>2000-01-01T08:48:24.000Z</time>
      </trkpt>
      <trkpt lat="48.34024" lon="-4.53906">
        <ele>24</ele>
        <time>2000-01-01T08:48:34.000Z</time>
      </trkpt>
      <trkpt lat="48.34021" lon="-4.53939">
        <ele>27</ele>
        <time>2000-01-01T08:48:44.000Z</time>
      </trkpt>
      <trkpt lat="48.34" lon="-4.53988">
        <ele>31</ele>
        <time>2000-01-01T08:48:54.000Z</time>
      </trkpt>
      <trkpt lat="48.33995" lon="-4.54003">
        <ele>41.1</ele>
        <time>2000-01-01T08:49:04.000Z</time>
      </trkpt>
      <trkpt lat="48.33992" lon="-4.54021">
        <ele>31</ele>
        <time>2000-01-01T08:49:14.000Z</time>
      </trkpt>
      <trkpt lat="48.33988" lon="-4.54062">
        <ele>31</ele>
        <time>2000-01-01T08:49:24.000Z</time>
      </trkpt>
      <trkpt lat="48.33993" lon="-4.54091">
        <ele>32</ele>
        <time>2000-01-01T08:49:34.000Z</time>
      </trkpt>
      <trkpt lat="48.34004" lon="-4.54144">
        <ele>34</ele>
        <time>2000-01-01T08:49:44.000Z</time>
      </trkpt>
      <trkpt lat="48.33995" lon="-4.54206">
        <ele>34</ele>
        <time>2000-01-01T08:49:54.000Z</time>
      </trkpt>
      <trkpt lat="48.33987" lon="-4.54225">
        <ele>57.8</ele>
        <time>2000-01-01T08:50:04.000Z</time>
      </trkpt>
      <trkpt lat="48.33973" lon="-4.54277">
        <ele>44</ele>
        <time>2000-01-01T08:50:14.000Z</time>
      </trkpt>
      <trkpt lat="48.3396" lon="-4.54293">
        <ele>61.1</ele>
        <time>2000-01-01T08:50:24.000Z</time>
      </trkpt>
      <trkpt lat="48.33951" lon="-4.54301">
        <ele>52</ele>
        <time>2000-01-01T08:50:34.000Z</time>
      </trkpt>
      <trkpt lat="48.3394" lon="-4.54302">
        <ele>62.6</ele>
        <time>2000-01-01T08:50:44.000Z</time>
      </trkpt>
      <trkpt lat="48.33932" lon="-4.54301">
        <ele>60</ele>
        <time>2000-01-01T08:50:54.000Z</time>
      </trkpt>
      <trkpt lat="48.33929" lon="-4.54316">
        <ele>60.4</ele>
        <time>2000-01-01T08:51:04.000Z</time>
      </trkpt>
      <trkpt lat="48.33922" lon="-4.54332">
        <ele>61</ele>
        <time>2000-01-01T08:51:14.000Z</time>
      </trkpt>
      <trkpt lat="48.33903" lon="-4.54351">
        <ele>63</ele>
        <time>2000-01-01T08:51:24.000Z</time>
      </trkpt>
      <trkpt lat="48.33882" lon="-4.54371">
        <ele>63</ele>
        <time>2000-01-01T08:51:34.000Z</time>
      </trkpt>
      <trkpt lat="48.33849" lon="-4.54393">
        <ele>59</ele>
        <time>2000-01-01T08:51:44.000Z</time>
      </trkpt>
      <trkpt lat="48.33839" lon="-4.54411">
        <ele>48.3</ele>
        <time>2000-01-01T08:51:54.000Z</time>
      </trkpt>
      <trkpt lat="48.33819" lon="-4.54463">
        <ele>48</ele>
        <time>2000-01-01T08:52:04.000Z</time>
      </trkpt>
      <trkpt lat="48.33814" lon="-4.54497">
        <ele>48</ele>
        <time>2000-01-01T08:52:14.000Z</time>
      </trkpt>
      <trkpt lat="48.33785" lon="-4.54496">
        <ele>47</ele>
        <time>2000-01-01T08:52:24.000Z</time>
      </trkpt>
      <trkpt lat="48.33765" lon="-4.54526">
        <ele>46</ele>
        <time>2000-01-01T08:52:34.000Z</time>
      </trkpt>
      <trkpt lat="48.33759" lon="-4.54526">
        <ele>38.2</ele>
        <time>2000-01-01T08:52:44.000Z</time>
      </trkpt>
      <trkpt lat="48.33754" lon="-4.54538">
        <ele>37.5</ele>
        <time>2000-01-01T08:52:54.000Z</time>
      </trkpt>
      <trkpt lat="48.3376" lon="-4.54546">
        <ele>39</ele>
        <time>2000-01-01T08:53:04.000Z</time>
      </trkpt>
      <trkpt lat="48.33757" lon="-4.54584">
        <ele>40</ele>
        <time>2000-01-01T08:53:14.000Z</time>
      </trkpt>
      <trkpt lat="48.33762" lon="-4.5462">
        <ele>41</ele>
        <time>2000-01-01T08:53:24.000Z</time>
      </trkpt>
      <trkpt lat="48.33763" lon="-4.54643">
        <ele>39.3</ele>
        <time>2000-01-01T08:53:34.000Z</time>
      </trkpt>
      <trkpt lat="48.33776" lon="-4.54656">
        <ele>44</ele>
        <time>2000-01-01T08:53:44.000Z</time>
      </trkpt>
      <trkpt lat="48.3378" lon="-4.54667">
        <ele>39.6</ele>
        <time>2000-01-01T08:53:54.000Z</time>
      </trkpt>
      <trkpt lat="48.33776" lon="-4.54682">
        <ele>48</ele>
        <time>2000-01-01T08:54:04.000Z</time>
      </trkpt>
      <trkpt lat="48.33773" lon="-4.54715">
        <ele>49</ele>
        <time>2000-01-01T08:54:14.000Z</time>
      </trkpt>
      <trkpt lat="48.33764" lon="-4.5474">
        <ele>59</ele>
        <time>2000-01-01T08:54:24.000Z</time>
      </trkpt>
      <trkpt lat="48.33758" lon="-4.54786">
        <ele>60</ele>
        <time>2000-01-01T08:54:34.000Z</time>
      </trkpt>
      <trkpt lat="48.33753" lon="-4.54827">
        <ele>62</ele>
        <time>2000-01-01T08:54:44.000Z</time>
      </trkpt>
      <trkpt lat="48.33746" lon="-4.54891">
        <ele>65</ele>
        <time>2000-01-01T08:54:54.000Z</time>
      </trkpt>
      <trkpt lat="48.33743" lon="-4.54936">
        <ele>67</ele>
        <time>2000-01-01T08:55:04.000Z</time>
      </trkpt>
      <trkpt lat="48.33739" lon="-4.54974">
        <ele>70</ele>
        <time>2000-01-01T08:55:14.000Z</time>
      </trkpt>
      <trkpt lat="48.33735" lon="-4.55023">
        <ele>72</ele>
        <time>2000-01-01T08:55:24.000Z</time>
      </trkpt>
      <trkpt lat="48.3373" lon="-4.55059">
        <ele>72</ele>
        <time>2000-01-01T08:55:34.000Z</time>
      </trkpt>
      <trkpt lat="48.33724" lon="-4.55104">
        <ele>70</ele>
        <time>2000-01-01T08:55:44.000Z</time>
      </trkpt>
      <trkpt lat="48.33719" lon="-4.5514">
        <ele>71</ele>
        <time>2000-01-01T08:55:54.000Z</time>
      </trkpt>
      <trkpt lat="48.33712" lon="-4.55184">
        <ele>73</ele>
        <time>2000-01-01T08:56:04.000Z</time>
      </trkpt>
      <trkpt lat="48.33727" lon="-4.5519">
        <ele>64.9</ele>
        <time>2000-01-01T08:56:14.000Z</time>
      </trkpt>
      <trkpt lat="48.33746" lon="-4.55235">
        <ele>78</ele>
        <time>2000-01-01T08:56:24.000Z</time>
      </trkpt>
      <trkpt lat="48.33751" lon="-4.55287">
        <ele>77</ele>
        <time>2000-01-01T08:56:34.000Z</time>
      </trkpt>
      <trkpt lat="48.33749" lon="-4.55319">
        <ele>78</ele>
        <time>2000-01-01T08:56:44.000Z</time>
      </trkpt>
      <trkpt lat="48.33732" lon="-4.55361">
        <ele>76</ele>
        <time>2000-01-01T08:56:54.000Z</time>
      </trkpt>
      <trkpt lat="48.33721" lon="-4.55382">
        <ele>67</ele>
        <time>2000-01-01T08:57:04.000Z</time>
      </trkpt>
      <trkpt lat="48.337" lon="-4.55393">
        <ele>76</ele>
        <time>2000-01-01T08:57:14.000Z</time>
      </trkpt>
      <trkpt lat="48.33673" lon="-4.55399">
        <ele>76</ele>
        <time>2000-01-01T08:57:24.000Z</time>
      </trkpt>
      <trkpt lat="48.33642" lon="-4.55401">
        <ele>76</ele>
        <time>2000-01-01T08:57:34.000Z</time>
      </trkpt>
      <trkpt lat="48.33626" lon="-4.55454">
        <ele>76</ele>
        <time>2000-01-01T08:57:44.000Z</time>
      </trkpt>
      <trkpt lat="48.33643" lon="-4.55476">
        <ele>76</ele>
        <time>2000-01-01T08:57:54.000Z</time>
      </trkpt>
      <trkpt lat="48.33644" lon="-4.55483">
        <ele>66.6</ele>
        <time>2000-01-01T08:58:04.000Z</time>
      </trkpt>
      <trkpt lat="48.33643" lon="-4.55489">
        <ele>66.2</ele>
        <time>2000-01-01T08:58:14.000Z</time>
      </trkpt>
      <trkpt lat="48.33618" lon="-4.55511">
        <ele>77</ele>
        <time>2000-01-01T08:58:24.000Z</time>
      </trkpt>
      <trkpt lat="48.3361" lon="-4.55521">
        <ele>65.5</ele>
        <time>2000-01-01T08:58:34.000Z</time>
      </trkpt>
      <trkpt lat="48.33603" lon="-4.55533">
        <ele>77</ele>
        <time>2000-01-01T08:58:44.000Z</time>
      </trkpt>
      <trkpt lat="48.33583" lon="-4.55537">
        <ele>75</ele>
        <time>2000-01-01T08:58:54.000Z</time>
      </trkpt>
      <trkpt lat="48.33578" lon="-4.55544">
        <ele>65.5</ele>
        <time>2000-01-01T08:59:04.000Z</time>
      </trkpt>
      <trkpt lat="48.33573" lon="-4.55563">
        <ele>59</ele>
        <time>2000-01-01T08:59:14.000Z</time>
      </trkpt>
      <trkpt lat="48.33562" lon="-4.55575">
        <ele>63.8</ele>
        <time>2000-01-01T08:59:24.000Z</time>
      </trkpt>
      <trkpt lat="48.33551" lon="-4.55578">
        <ele>56</ele>
        <time>2000-01-01T08:59:34.000Z</time>
      </trkpt>
      <trkpt lat="48.33537" lon="-4.55588">
        <ele>62.8</ele>
        <time>2000-01-01T08:59:44.000Z</time>
      </trkpt>
      <trkpt lat="48.33514" lon="-4.55621">
        <ele>52</ele>
        <time>2000-01-01T08:59:54.000Z</time>
      </trkpt>
      <trkpt lat="48.3351" lon="-4.5563">
        <ele>56.4</ele>
        <time>2000-01-01T09:00:04.000Z</time>
      </trkpt>
      <trkpt lat="48.33502" lon="-4.55634">
        <ele>56.6</ele>
        <time>2000-01-01T09:00:14.000Z</time>
      </trkpt>
      <trkpt lat="48.33491" lon="-4.5565">
        <ele>52</ele>
        <time>2000-01-01T09:00:24.000Z</time>
      </trkpt>
      <trkpt lat="48.3349" lon="-4.55655">
        <ele>54.6</ele>
        <time>2000-01-01T09:00:34.000Z</time>
      </trkpt>
      <trkpt lat="48.33482" lon="-4.55661">
        <ele>55</ele>
        <time>2000-01-01T09:00:44.000Z</time>
      </trkpt>
      <trkpt lat="48.33487" lon="-4.55716">
        <ele>63</ele>
        <time>2000-01-01T09:00:54.000Z</time>
      </trkpt>
      <trkpt lat="48.33484" lon="-4.5573">
        <ele>51.7</ele>
        <time>2000-01-01T09:01:04.000Z</time>
      </trkpt>
      <trkpt lat="48.3348" lon="-4.55738">
        <ele>52.8</ele>
        <time>2000-01-01T09:01:14.000Z</time>
      </trkpt>
      <trkpt lat="48.33466" lon="-4.55755">
        <ele>62</ele>
        <time>2000-01-01T09:01:24.000Z</time>
      </trkpt>
      <trkpt lat="48.33462" lon="-4.55788">
        <ele>62</ele>
        <time>2000-01-01T09:01:34.000Z</time>
      </trkpt>
      <trkpt lat="48.33447" lon="-4.55814">
        <ele>71</ele>
        <time>2000-01-01T09:01:44.000Z</time>
      </trkpt>
      <trkpt lat="48.33433" lon="-4.55831">
        <ele>72</ele>
        <time>2000-01-01T09:01:54.000Z</time>
      </trkpt>
      <trkpt lat="48.33421" lon="-4.55843">
        <ele>62.5</ele>
        <time>2000-01-01T09:02:04.000Z</time>
      </trkpt>
      <trkpt lat="48.33422" lon="-4.55858">
        <ele>73</ele>
        <time>2000-01-01T09:02:14.000Z</time>
      </trkpt>
      <trkpt lat="48.33406" lon="-4.5589">
        <ele>74</ele>
        <time>2000-01-01T09:02:24.000Z</time>
      </trkpt>
      <trkpt lat="48.33397" lon="-4.55926">
        <ele>73</ele>
        <time>2000-01-01T09:02:34.000Z</time>
      </trkpt>
      <trkpt lat="48.33379" lon="-4.55977">
        <ele>73</ele>
        <time>2000-01-01T09:02:44.000Z</time>
      </trkpt>
      <trkpt lat="48.33342" lon="-4.56007">
        <ele>65</ele>
        <time>2000-01-01T09:02:54.000Z</time>
      </trkpt>
      <trkpt lat="48.33337" lon="-4.56017">
        <ele>58.1</ele>
        <time>2000-01-01T09:03:04.000Z</time>
      </trkpt>
      <trkpt lat="48.3333" lon="-4.56019">
        <ele>58.6</ele>
        <time>2000-01-01T09:03:14.000Z</time>
      </trkpt>
      <trkpt lat="48.33327" lon="-4.56021">
        <ele>64</ele>
        <time>2000-01-01T09:03:24.000Z</time>
      </trkpt>
      <trkpt lat="48.33317" lon="-4.56041">
        <ele>57</ele>
        <time>2000-01-01T09:03:34.000Z</time>
      </trkpt>
      <trkpt lat="48.33307" lon="-4.56051">
        <ele>63</ele>
        <time>2000-01-01T09:03:44.000Z</time>
      </trkpt>
      <trkpt lat="48.33306" lon="-4.56061">
        <ele>56.9</ele>
        <time>2000-01-01T09:03:54.000Z</time>
      </trkpt>
      <trkpt lat="48.33301" lon="-4.56077">
        <ele>54</ele>
        <time>2000-01-01T09:04:04.000Z</time>
      </trkpt>
      <trkpt lat="48.33288" lon="-4.56085">
        <ele>57.2</ele>
        <time>2000-01-01T09:04:14.000Z</time>
      </trkpt>
      <trkpt lat="48.33282" lon="-4.56094">
        <ele>54</ele>
        <time>2000-01-01T09:04:24.000Z</time>
      </trkpt>
      <trkpt lat="48.33271" lon="-4.56103">
        <ele>59.2</ele>
        <time>2000-01-01T09:04:34.000Z</time>
      </trkpt>
      <trkpt lat="48.33267" lon="-4.5611">
        <ele>51</ele>
        <time>2000-01-01T09:04:44.000Z</time>
      </trkpt>
      <trkpt lat="48.33247" lon="-4.56124">
        <ele>53</ele>
        <time>2000-01-01T09:04:54.000Z</time>
      </trkpt>
      <trkpt lat="48.33244" lon="-4.56133">
        <ele>59.8</ele>
        <time>2000-01-01T09:05:04.000Z</time>
      </trkpt>
      <trkpt lat="48.33233" lon="-4.56141">
        <ele>53</ele>
        <time>2000-01-01T09:05:14.000Z</time>
      </trkpt>
      <trkpt lat="48.33224" lon="-4.56143">
        <ele>60.4</ele>
        <time>2000-01-01T09:05:24.000Z</time>
      </trkpt>
      <trkpt lat="48.33223" lon="-4.56146">
        <ele>60.3</ele>
        <time>2000-01-01T09:05:34.000Z</time>
      </trkpt>
      <trkpt lat="48.33229" lon="-4.56161">
        <ele>53</ele>
        <time>2000-01-01T09:05:44.000Z</time>
      </trkpt>
      <trkpt lat="48.33228" lon="-4.56165">
        <ele>55.8</ele>
        <time>2000-01-01T09:05:54.000Z</time>
      </trkpt>
      <trkpt lat="48.33225" lon="-4.56169">
        <ele>56.9</ele>
        <time>2000-01-01T09:06:04.000Z</time>
      </trkpt>
      <trkpt lat="48.33223" lon="-4.56182">
        <ele>56.1</ele>
        <time>2000-01-01T09:06:14.000Z</time>
      </trkpt>
      <trkpt lat="48.3322" lon="-4.56185">
        <ele>56</ele>
        <time>2000-01-01T09:06:24.000Z</time>
      </trkpt>
      <trkpt lat="48.33212" lon="-4.56184">
        <ele>57.3</ele>
        <time>2000-01-01T09:06:34.000Z</time>
      </trkpt>
      <trkpt lat="48.33206" lon="-4.56186">
        <ele>57.6</ele>
        <time>2000-01-01T09:06:44.000Z</time>
      </trkpt>
      <trkpt lat="48.33189" lon="-4.56203">
        <ele>60</ele>
        <time>2000-01-01T09:06:54.000Z</time>
      </trkpt>
      <trkpt lat="48.3318" lon="-4.56207">
        <ele>57.1</ele>
        <time>2000-01-01T09:07:04.000Z</time>
      </trkpt>
      <trkpt lat="48.33164" lon="-4.56228">
        <ele>60</ele>
        <time>2000-01-01T09:07:14.000Z</time>
      </trkpt>
      <trkpt lat="48.33156" lon="-4.56236">
        <ele>57.7</ele>
        <time>2000-01-01T09:07:24.000Z</time>
      </trkpt>
      <trkpt lat="48.33149" lon="-4.56249">
        <ele>60</ele>
        <time>2000-01-01T09:07:34.000Z</time>
      </trkpt>
      <trkpt lat="48.33143" lon="-4.56253">
        <ele>57.9</ele>
        <time>2000-01-01T09:07:44.000Z</time>
      </trkpt>
      <trkpt lat="48.33138" lon="-4.56267">
        <ele>57.8</ele>
        <time>2000-01-01T09:07:54.000Z</time>
      </trkpt>
      <trkpt lat="48.33138" lon="-4.56274">
        <ele>51</ele>
        <time>2000-01-01T09:08:04.000Z</time>
      </trkpt>
      <trkpt lat="48.33135" lon="-4.56281">
        <ele>56.1</ele>
        <time>2000-01-01T09:08:14.000Z</time>
      </trkpt>
      <trkpt lat="48.33114" lon="-4.56304">
        <ele>51</ele>
        <time>2000-01-01T09:08:24.000Z</time>
      </trkpt>
      <trkpt lat="48.331" lon="-4.56313">
        <ele>54.3</ele>
        <time>2000-01-01T09:08:34.000Z</time>
      </trkpt>
      <trkpt lat="48.33093" lon="-4.56331">
        <ele>55</ele>
        <time>2000-01-01T09:08:44.000Z</time>
      </trkpt>
      <trkpt lat="48.33086" lon="-4.56369">
        <ele>57</ele>
        <time>2000-01-01T09:08:54.000Z</time>
      </trkpt>
      <trkpt lat="48.33086" lon="-4.5638">
        <ele>55.4</ele>
        <time>2000-01-01T09:09:04.000Z</time>
      </trkpt>
      <trkpt lat="48.33082" lon="-4.56393">
        <ele>56.6</ele>
        <time>2000-01-01T09:09:14.000Z</time>
      </trkpt>
      <trkpt lat="48.33077" lon="-4.56398">
        <ele>59</ele>
        <time>2000-01-01T09:09:24.000Z</time>
      </trkpt>
      <trkpt lat="48.33073" lon="-4.56413">
        <ele>56.3</ele>
        <time>2000-01-01T09:09:34.000Z</time>
      </trkpt>
      <trkpt lat="48.33063" lon="-4.56442">
        <ele>60</ele>
        <time>2000-01-01T09:09:44.000Z</time>
      </trkpt>
      <trkpt lat="48.33058" lon="-4.56476">
        <ele>62</ele>
        <time>2000-01-01T09:09:54.000Z</time>
      </trkpt>
      <trkpt lat="48.33054" lon="-4.56497">
        <ele>61.1</ele>
        <time>2000-01-01T09:10:04.000Z</time>
      </trkpt>
      <trkpt lat="48.33052" lon="-4.56533">
        <ele>62</ele>
        <time>2000-01-01T09:10:14.000Z</time>
      </trkpt>
      <trkpt lat="48.33045" lon="-4.56547">
        <ele>61.3</ele>
        <time>2000-01-01T09:10:24.000Z</time>
      </trkpt>
      <trkpt lat="48.33042" lon="-4.56561">
        <ele>71</ele>
        <time>2000-01-01T09:10:34.000Z</time>
      </trkpt>
      <trkpt lat="48.33034" lon="-4.56569">
        <ele>61.3</ele>
        <time>2000-01-01T09:10:44.000Z</time>
      </trkpt>
      <trkpt lat="48.33032" lon="-4.56578">
        <ele>61.1</ele>
        <time>2000-01-01T09:10:54.000Z</time>
      </trkpt>
      <trkpt lat="48.33025" lon="-4.56591">
        <ele>71</ele>
        <time>2000-01-01T09:11:04.000Z</time>
      </trkpt>
      <trkpt lat="48.33024" lon="-4.56599">
        <ele>62.3</ele>
        <time>2000-01-01T09:11:14.000Z</time>
      </trkpt>
      <trkpt lat="48.33026" lon="-4.56614">
        <ele>62.1</ele>
        <time>2000-01-01T09:11:24.000Z</time>
      </trkpt>
      <trkpt lat="48.33025" lon="-4.56627">
        <ele>69</ele>
        <time>2000-01-01T09:11:34.000Z</time>
      </trkpt>
      <trkpt lat="48.33026" lon="-4.56651">
        <ele>62.1</ele>
        <time>2000-01-01T09:11:44.000Z</time>
      </trkpt>
      <trkpt lat="48.33023" lon="-4.56661">
        <ele>68</ele>
        <time>2000-01-01T09:11:54.000Z</time>
      </trkpt>
      <trkpt lat="48.33018" lon="-4.56669">
        <ele>62.6</ele>
        <time>2000-01-01T09:12:04.000Z</time>
      </trkpt>
      <trkpt lat="48.33007" lon="-4.56679">
        <ele>68</ele>
        <time>2000-01-01T09:12:14.000Z</time>
      </trkpt>
      <trkpt lat="48.33007" lon="-4.56724">
        <ele>66</ele>
        <time>2000-01-01T09:12:24.000Z</time>
      </trkpt>
      <trkpt lat="48.33005" lon="-4.56744">
        <ele>63.3</ele>
        <time>2000-01-01T09:12:34.000Z</time>
      </trkpt>
      <trkpt lat="48.32994" lon="-4.56778">
        <ele>65</ele>
        <time>2000-01-01T09:12:44.000Z</time>
      </trkpt>
      <trkpt lat="48.32994" lon="-4.56819">
        <ele>70</ele>
        <time>2000-01-01T09:12:54.000Z</time>
      </trkpt>
      <trkpt lat="48.32994" lon="-4.56885">
        <ele>72</ele>
        <time>2000-01-01T09:13:04.000Z</time>
      </trkpt>
      <trkpt lat="48.32989" lon="-4.56943">
        <ele>74</ele>
        <time>2000-01-01T09:13:14.000Z</time>
      </trkpt>
      <trkpt lat="48.32993" lon="-4.56969">
        <ele>65.9</ele>
        <time>2000-01-01T09:13:24.000Z</time>
      </trkpt>
      <trkpt lat="48.32962" lon="-4.56972">
        <ele>69</ele>
        <time>2000-01-01T09:13:34.000Z</time>
      </trkpt>
      <trkpt lat="48.32953" lon="-4.56977">
        <ele>65</ele>
        <time>2000-01-01T09:13:44.000Z</time>
      </trkpt>
      <trkpt lat="48.32947" lon="-4.56976">
        <ele>64.8</ele>
        <time>2000-01-01T09:13:54.000Z</time>
      </trkpt>
      <trkpt lat="48.32935" lon="-4.56966">
        <ele>64</ele>
        <time>2000-01-01T09:14:04.000Z</time>
      </trkpt>
      <trkpt lat="48.32927" lon="-4.56961">
        <ele>65.3</ele>
        <time>2000-01-01T09:14:14.000Z</time>
      </trkpt>
      <trkpt lat="48.32913" lon="-4.5695">
        <ele>64</ele>
        <time>2000-01-01T09:14:24.000Z</time>
      </trkpt>
      <trkpt lat="48.32909" lon="-4.56955">
        <ele>64.9</ele>
        <time>2000-01-01T09:14:34.000Z</time>
      </trkpt>
      <trkpt lat="48.32893" lon="-4.56962">
        <ele>58</ele>
        <time>2000-01-01T09:14:44.000Z</time>
      </trkpt>
      <trkpt lat="48.32887" lon="-4.56972">
        <ele>63.9</ele>
        <time>2000-01-01T09:14:54.000Z</time>
      </trkpt>
      <trkpt lat="48.32868" lon="-4.5699">
        <ele>56</ele>
        <time>2000-01-01T09:15:04.000Z</time>
      </trkpt>
      <trkpt lat="48.3286" lon="-4.57003">
        <ele>61.3</ele>
        <time>2000-01-01T09:15:14.000Z</time>
      </trkpt>
      <trkpt lat="48.32857" lon="-4.57019">
        <ele>56</ele>
        <time>2000-01-01T09:15:24.000Z</time>
      </trkpt>
      <trkpt lat="48.32844" lon="-4.5703">
        <ele>56.8</ele>
        <time>2000-01-01T09:15:34.000Z</time>
      </trkpt>
      <trkpt lat="48.32829" lon="-4.5701">
        <ele>56</ele>
        <time>2000-01-01T09:15:44.000Z</time>
      </trkpt>
      <trkpt lat="48.32817" lon="-4.57003">
        <ele>59.5</ele>
        <time>2000-01-01T09:15:54.000Z</time>
      </trkpt>
      <trkpt lat="48.32808" lon="-4.5699">
        <ele>56</ele>
        <time>2000-01-01T09:16:04.000Z</time>
      </trkpt>
      <trkpt lat="48.32801" lon="-4.5696">
        <ele>54</ele>
        <time>2000-01-01T09:16:14.000Z</time>
      </trkpt>
      <trkpt lat="48.32791" lon="-4.56949">
        <ele>60.3</ele>
        <time>2000-01-01T09:16:24.000Z</time>
      </trkpt>
      <trkpt lat="48.32777" lon="-4.56938">
        <ele>54</ele>
        <time>2000-01-01T09:16:34.000Z</time>
      </trkpt>
      <trkpt lat="48.32772" lon="-4.5693">
        <ele>59.8</ele>
        <time>2000-01-01T09:16:44.000Z</time>
      </trkpt>
      <trkpt lat="48.3274" lon="-4.56948">
        <ele>55</ele>
        <time>2000-01-01T09:16:54.000Z</time>
      </trkpt>
      <trkpt lat="48.32718" lon="-4.56968">
        <ele>56</ele>
        <time>2000-01-01T09:17:04.000Z</time>
      </trkpt>
      <trkpt lat="48.32681" lon="-4.56998">
        <ele>63</ele>
        <time>2000-01-01T09:17:14.000Z</time>
      </trkpt>
      <trkpt lat="48.32674" lon="-4.5703">
        <ele>60</ele>
        <time>2000-01-01T09:17:24.000Z</time>
      </trkpt>
      <trkpt lat="48.32666" lon="-4.57046">
        <ele>52.7</ele>
        <time>2000-01-01T09:17:34.000Z</time>
      </trkpt>
      <trkpt lat="48.32645" lon="-4.5707">
        <ele>61</ele>
        <time>2000-01-01T09:17:44.000Z</time>
      </trkpt>
      <trkpt lat="48.32643" lon="-4.57087">
        <ele>49.8</ele>
        <time>2000-01-01T09:17:54.000Z</time>
      </trkpt>
      <trkpt lat="48.32625" lon="-4.5711">
        <ele>59</ele>
        <time>2000-01-01T09:18:04.000Z</time>
      </trkpt>
      <trkpt lat="48.32594" lon="-4.57139">
        <ele>58</ele>
        <time>2000-01-01T09:18:14.000Z</time>
      </trkpt>
      <trkpt lat="48.32569" lon="-4.57156">
        <ele>50</ele>
        <time>2000-01-01T09:18:24.000Z</time>
      </trkpt>
      <trkpt lat="48.32562" lon="-4.57171">
        <ele>49.7</ele>
        <time>2000-01-01T09:18:34.000Z</time>
      </trkpt>
      <trkpt lat="48.32561" lon="-4.57186">
        <ele>59</ele>
        <time>2000-01-01T09:18:44.000Z</time>
      </trkpt>
      <trkpt lat="48.32562" lon="-4.57205">
        <ele>46.5</ele>
        <time>2000-01-01T09:18:54.000Z</time>
      </trkpt>
      <trkpt lat="48.32529" lon="-4.57274">
        <ele>68</ele>
        <time>2000-01-01T09:19:04.000Z</time>
      </trkpt>
      <trkpt lat="48.32537" lon="-4.57314">
        <ele>68</ele>
        <time>2000-01-01T09:19:14.000Z</time>
      </trkpt>
      <trkpt lat="48.32527" lon="-4.5735">
        <ele>68</ele>
        <time>2000-01-01T09:19:24.000Z</time>
      </trkpt>
      <trkpt lat="48.32513" lon="-4.57399">
        <ele>68</ele>
        <time>2000-01-01T09:19:34.000Z</time>
      </trkpt>
      <trkpt lat="48.32502" lon="-4.57408">
        <ele>60.6</ele>
        <time>2000-01-01T09:19:44.000Z</time>
      </trkpt>
      <trkpt lat="48.32495" lon="-4.57427">
        <ele>67</ele>
        <time>2000-01-01T09:19:54.000Z</time>
      </trkpt>
      <trkpt lat="48.32489" lon="-4.57426">
        <ele>61.8</ele>
        <time>2000-01-01T09:20:04.000Z</time>
      </trkpt>
      <trkpt lat="48.3248" lon="-4.57417">
        <ele>62.4</ele>
        <time>2000-01-01T09:20:14.000Z</time>
      </trkpt>
      <trkpt lat="48.32475" lon="-4.57416">
        <ele>67</ele>
        <time>2000-01-01T09:20:24.000Z</time>
      </trkpt>
      <trkpt lat="48.32487" lon="-4.57451">
        <ele>65</ele>
        <time>2000-01-01T09:20:34.000Z</time>
      </trkpt>
      <trkpt lat="48.32492" lon="-4.57472">
        <ele>61.6</ele>
        <time>2000-01-01T09:20:44.000Z</time>
      </trkpt>
      <trkpt lat="48.32492" lon="-4.57489">
        <ele>67</ele>
        <time>2000-01-01T09:20:54.000Z</time>
      </trkpt>
      <trkpt lat="48.32488" lon="-4.57507">
        <ele>61.4</ele>
        <time>2000-01-01T09:21:04.000Z</time>
      </trkpt>
      <trkpt lat="48.32471" lon="-4.57542">
        <ele>69</ele>
        <time>2000-01-01T09:21:14.000Z</time>
      </trkpt>
      <trkpt lat="48.32455" lon="-4.57582">
        <ele>69</ele>
        <time>2000-01-01T09:21:24.000Z</time>
      </trkpt>
      <trkpt lat="48.32437" lon="-4.57607">
        <ele>63</ele>
        <time>2000-01-01T09:21:34.000Z</time>
      </trkpt>
      <trkpt lat="48.32415" lon="-4.57636">
        <ele>58</ele>
        <time>2000-01-01T09:21:44.000Z</time>
      </trkpt>
      <trkpt lat="48.32405" lon="-4.57646">
        <ele>62</ele>
        <time>2000-01-01T09:21:54.000Z</time>
      </trkpt>
      <trkpt lat="48.32392" lon="-4.5765">
        <ele>58</ele>
        <time>2000-01-01T09:22:04.000Z</time>
      </trkpt>
      <trkpt lat="48.32367" lon="-4.57641">
        <ele>60</ele>
        <time>2000-01-01T09:22:14.000Z</time>
      </trkpt>
      <trkpt lat="48.32364" lon="-4.57634">
        <ele>61.6</ele>
        <time>2000-01-01T09:22:24.000Z</time>
      </trkpt>
      <trkpt lat="48.32356" lon="-4.57631">
        <ele>62.3</ele>
        <time>2000-01-01T09:22:34.000Z</time>
      </trkpt>
      <trkpt lat="48.32353" lon="-4.57634">
        <ele>62.3</ele>
        <time>2000-01-01T09:22:44.000Z</time>
      </trkpt>
      <trkpt lat="48.32297" lon="-4.5761">
        <ele>62</ele>
        <time>2000-01-01T09:22:54.000Z</time>
      </trkpt>
      <trkpt lat="48.32271" lon="-4.57598">
        <ele>62</ele>
        <time>2000-01-01T09:23:04.000Z</time>
      </trkpt>
      <trkpt lat="48.32229" lon="-4.57578">
        <ele>66</ele>
        <time>2000-01-01T09:23:14.000Z</time>
      </trkpt>
      <trkpt lat="48.32215" lon="-4.57606">
        <ele>67</ele>
        <time>2000-01-01T09:23:24.000Z</time>
      </trkpt>
      <trkpt lat="48.322" lon="-4.57635">
        <ele>66</ele>
        <time>2000-01-01T09:23:34.000Z</time>
      </trkpt>
      <trkpt lat="48.32174" lon="-4.57656">
        <ele>66</ele>
        <time>2000-01-01T09:23:44.000Z</time>
      </trkpt>
      <trkpt lat="48.32151" lon="-4.57674">
        <ele>63</ele>
        <time>2000-01-01T09:23:54.000Z</time>
      </trkpt>
      <trkpt lat="48.3212" lon="-4.57698">
        <ele>61</ele>
        <time>2000-01-01T09:24:04.000Z</time>
      </trkpt>
      <trkpt lat="48.32079" lon="-4.57696">
        <ele>63</ele>
        <time>2000-01-01T09:24:14.000Z</time>
      </trkpt>
      <trkpt lat="48.32067" lon="-4.57688">
        <ele>64.8</ele>
        <time>2000-01-01T09:24:24.000Z</time>
      </trkpt>
      <trkpt lat="48.31883" lon="-4.57781">
        <ele>60</ele>
        <time>2000-01-01T09:24:34.000Z</time>
      </trkpt>
      <trkpt lat="48.31873" lon="-4.57781">
        <ele>63.1</ele>
        <time>2000-01-01T09:24:44.000Z</time>
      </trkpt>
      <trkpt lat="48.31854" lon="-4.57771">
        <ele>62</ele>
        <time>2000-01-01T09:24:54.000Z</time>
      </trkpt>
      <trkpt lat="48.31837" lon="-4.57749">
        <ele>62</ele>
        <time>2000-01-01T09:25:04.000Z</time>
      </trkpt>
      <trkpt lat="48.31818" lon="-4.5772">
        <ele>62</ele>
        <time>2000-01-01T09:25:14.000Z</time>
      </trkpt>
      <trkpt lat="48.3179" lon="-4.57677">
        <ele>66</ele>
        <time>2000-01-01T09:25:24.000Z</time>
      </trkpt>
      <trkpt lat="48.31776" lon="-4.57644">
        <ele>70</ele>
        <time>2000-01-01T09:25:34.000Z</time>
      </trkpt>
      <trkpt lat="48.31758" lon="-4.576">
        <ele>70</ele>
        <time>2000-01-01T09:25:44.000Z</time>
      </trkpt>
      <trkpt lat="48.3174" lon="-4.5756">
        <ele>64</ele>
        <time>2000-01-01T09:25:54.000Z</time>
      </trkpt>
      <trkpt lat="48.31715" lon="-4.57546">
        <ele>64</ele>
        <time>2000-01-01T09:26:04.000Z</time>
      </trkpt>
      <trkpt lat="48.31676" lon="-4.57524">
        <ele>63</ele>
        <time>2000-01-01T09:26:14.000Z</time>
      </trkpt>
      <trkpt lat="48.31669" lon="-4.57514">
        <ele>65.1</ele>
        <time>2000-01-01T09:26:24.000Z</time>
      </trkpt>
      <trkpt lat="48.31676" lon="-4.57484">
        <ele>63</ele>
        <time>2000-01-01T09:26:34.000Z</time>
      </trkpt>
      <trkpt lat="48.31667" lon="-4.57484">
        <ele>66.2</ele>
        <time>2000-01-01T09:26:44.000Z</time>
      </trkpt>
      <trkpt lat="48.31663" lon="-4.57498">
        <ele>63</ele>
        <time>2000-01-01T09:26:54.000Z</time>
      </trkpt>
      <trkpt lat="48.31653" lon="-4.57508">
        <ele>66</ele>
        <time>2000-01-01T09:27:04.000Z</time>
      </trkpt>
      <trkpt lat="48.31645" lon="-4.57531">
        <ele>54</ele>
        <time>2000-01-01T09:27:14.000Z</time>
      </trkpt>
      <trkpt lat="48.31639" lon="-4.57536">
        <ele>64.9</ele>
        <time>2000-01-01T09:27:24.000Z</time>
      </trkpt>
      <trkpt lat="48.31628" lon="-4.57536">
        <ele>65.6</ele>
        <time>2000-01-01T09:27:34.000Z</time>
      </trkpt>
      <trkpt lat="48.31622" lon="-4.57544">
        <ele>46</ele>
        <time>2000-01-01T09:27:44.000Z</time>
      </trkpt>
      <trkpt lat="48.31607" lon="-4.57553">
        <ele>66.1</ele>
        <time>2000-01-01T09:27:54.000Z</time>
      </trkpt>
      <trkpt lat="48.31567" lon="-4.57553">
        <ele>49</ele>
        <time>2000-01-01T09:28:04.000Z</time>
      </trkpt>
      <trkpt lat="48.31553" lon="-4.57548">
        <ele>65</ele>
        <time>2000-01-01T09:28:14.000Z</time>
      </trkpt>
      <trkpt lat="48.31534" lon="-4.57533">
        <ele>53</ele>
        <time>2000-01-01T09:28:24.000Z</time>
      </trkpt>
      <trkpt lat="48.31531" lon="-4.57525">
        <ele>65.1</ele>
        <time>2000-01-01T09:28:34.000Z</time>
      </trkpt>
      <trkpt lat="48.31521" lon="-4.57514">
        <ele>53</ele>
        <time>2000-01-01T09:28:44.000Z</time>
      </trkpt>
      <trkpt lat="48.31489" lon="-4.57493">
        <ele>51</ele>
        <time>2000-01-01T09:28:54.000Z</time>
      </trkpt>
      <trkpt lat="48.31467" lon="-4.57468">
        <ele>50</ele>
        <time>2000-01-01T09:29:04.000Z</time>
      </trkpt>
      <trkpt lat="48.31435" lon="-4.57428">
        <ele>34</ele>
        <time>2000-01-01T09:29:14.000Z</time>
      </trkpt>
      <trkpt lat="48.31412" lon="-4.57411">
        <ele>34</ele>
        <time>2000-01-01T09:29:24.000Z</time>
      </trkpt>
      <trkpt lat="48.3138" lon="-4.57388">
        <ele>36</ele>
        <time>2000-01-01T09:29:34.000Z</time>
      </trkpt>
      <trkpt lat="48.31364" lon="-4.57369">
        <ele>31</ele>
        <time>2000-01-01T09:29:44.000Z</time>
      </trkpt>
      <trkpt lat="48.31336" lon="-4.5735">
        <ele>32</ele>
        <time>2000-01-01T09:29:54.000Z</time>
      </trkpt>
      <trkpt lat="48.31327" lon="-4.57327">
        <ele>60.5</ele>
        <time>2000-01-01T09:30:04.000Z</time>
      </trkpt>
      <trkpt lat="48.31309" lon="-4.57304">
        <ele>31</ele>
        <time>2000-01-01T09:30:14.000Z</time>
      </trkpt>
      <trkpt lat="48.31297" lon="-4.57298">
        <ele>61.7</ele>
        <time>2000-01-01T09:30:24.000Z</time>
      </trkpt>
      <trkpt lat="48.31258" lon="-4.57306">
        <ele>30</ele>
        <time>2000-01-01T09:30:34.000Z</time>
      </trkpt>
      <trkpt lat="48.3123" lon="-4.57317">
        <ele>39</ele>
        <time>2000-01-01T09:30:44.000Z</time>
      </trkpt>
      <trkpt lat="48.31222" lon="-4.57316">
        <ele>54.5</ele>
        <time>2000-01-01T09:30:54.000Z</time>
      </trkpt>
      <trkpt lat="48.31208" lon="-4.57306">
        <ele>49</ele>
        <time>2000-01-01T09:31:04.000Z</time>
      </trkpt>
      <trkpt lat="48.31185" lon="-4.57301">
        <ele>52</ele>
        <time>2000-01-01T09:31:14.000Z</time>
      </trkpt>
      <trkpt lat="48.31175" lon="-4.57304">
        <ele>56.6</ele>
        <time>2000-01-01T09:31:24.000Z</time>
      </trkpt>
      <trkpt lat="48.31168" lon="-4.5732">
        <ele>55</ele>
        <time>2000-01-01T09:31:34.000Z</time>
      </trkpt>
      <trkpt lat="48.31144" lon="-4.57338">
        <ele>54</ele>
        <time>2000-01-01T09:31:44.000Z</time>
      </trkpt>
      <trkpt lat="48.3111" lon="-4.57363">
        <ele>54</ele>
        <time>2000-01-01T09:31:54.000Z</time>
      </trkpt>
      <trkpt lat="48.31068" lon="-4.57355">
        <ele>51</ele>
        <time>2000-01-01T09:32:04.000Z</time>
      </trkpt>
      <trkpt lat="48.31046" lon="-4.57342">
        <ele>37</ele>
        <time>2000-01-01T09:32:14.000Z</time>
      </trkpt>
      <trkpt lat="48.31022" lon="-4.57328">
        <ele>35</ele>
        <time>2000-01-01T09:32:24.000Z</time>
      </trkpt>
      <trkpt lat="48.30995" lon="-4.57301">
        <ele>31</ele>
        <time>2000-01-01T09:32:34.000Z</time>
      </trkpt>
      <trkpt lat="48.30978" lon="-4.5729">
        <ele>28</ele>
        <time>2000-01-01T09:32:44.000Z</time>
      </trkpt>
      <trkpt lat="48.30954" lon="-4.57292">
        <ele>20</ele>
        <time>2000-01-01T09:32:54.000Z</time>
      </trkpt>
      <trkpt lat="48.30933" lon="-4.57279">
        <ele>20</ele>
        <time>2000-01-01T09:33:04.000Z</time>
      </trkpt>
      <trkpt lat="48.30926" lon="-4.57279">
        <ele>32.8</ele>
        <time>2000-01-01T09:33:14.000Z</time>
      </trkpt>
      <trkpt lat="48.3091" lon="-4.57291">
        <ele>20</ele>
        <time>2000-01-01T09:33:24.000Z</time>
      </trkpt>
      <trkpt lat="48.30905" lon="-4.57299">
        <ele>29.5</ele>
        <time>2000-01-01T09:33:34.000Z</time>
      </trkpt>
      <trkpt lat="48.30886" lon="-4.57311">
        <ele>21</ele>
        <time>2000-01-01T09:33:44.000Z</time>
      </trkpt>
      <trkpt lat="48.3086" lon="-4.57318">
        <ele>21</ele>
        <time>2000-01-01T09:33:54.000Z</time>
      </trkpt>
      <trkpt lat="48.30822" lon="-4.57328">
        <ele>21</ele>
        <time>2000-01-01T09:34:04.000Z</time>
      </trkpt>
      <trkpt lat="48.30817" lon="-4.57331">
        <ele>25.7</ele>
        <time>2000-01-01T09:34:14.000Z</time>
      </trkpt>
      <trkpt lat="48.30811" lon="-4.57318">
        <ele>26.5</ele>
        <time>2000-01-01T09:34:24.000Z</time>
      </trkpt>
      <trkpt lat="48.30806" lon="-4.5732">
        <ele>16</ele>
        <time>2000-01-01T09:34:34.000Z</time>
      </trkpt>
      <trkpt lat="48.30807" lon="-4.57332">
        <ele>26</ele>
        <time>2000-01-01T09:34:44.000Z</time>
      </trkpt>
      <trkpt lat="48.30813" lon="-4.5735">
        <ele>13</ele>
        <time>2000-01-01T09:34:54.000Z</time>
      </trkpt>
      <trkpt lat="48.30808" lon="-4.57353">
        <ele>24.5</ele>
        <time>2000-01-01T09:35:04.000Z</time>
      </trkpt>
      <trkpt lat="48.30783" lon="-4.57353">
        <ele>12</ele>
        <time>2000-01-01T09:35:14.000Z</time>
      </trkpt>
      <trkpt lat="48.30771" lon="-4.57347">
        <ele>21.3</ele>
        <time>2000-01-01T09:35:24.000Z</time>
      </trkpt>
      <trkpt lat="48.30763" lon="-4.5732">
        <ele>14</ele>
        <time>2000-01-01T09:35:34.000Z</time>
      </trkpt>
      <trkpt lat="48.30759" lon="-4.57299">
        <ele>25.2</ele>
        <time>2000-01-01T09:35:44.000Z</time>
      </trkpt>
      <trkpt lat="48.30753" lon="-4.5728">
        <ele>17</ele>
        <time>2000-01-01T09:35:54.000Z</time>
      </trkpt>
      <trkpt lat="48.30756" lon="-4.57239">
        <ele>17</ele>
        <time>2000-01-01T09:36:04.000Z</time>
      </trkpt>
      <trkpt lat="48.30762" lon="-4.57227">
        <ele>17.4</ele>
        <time>2000-01-01T09:36:14.000Z</time>
      </trkpt>
      <trkpt lat="48.30764" lon="-4.57212">
        <ele>17</ele>
        <time>2000-01-01T09:36:24.000Z</time>
      </trkpt>
      <trkpt lat="48.30764" lon="-4.57186">
        <ele>14.9</ele>
        <time>2000-01-01T09:36:34.000Z</time>
      </trkpt>
      <trkpt lat="48.3076" lon="-4.57186">
        <ele>17</ele>
        <time>2000-01-01T09:36:44.000Z</time>
      </trkpt>
      <trkpt lat="48.30752" lon="-4.57204">
        <ele>10.9</ele>
        <time>2000-01-01T09:36:54.000Z</time>
      </trkpt>
      <trkpt lat="48.30747" lon="-4.57202">
        <ele>17</ele>
        <time>2000-01-01T09:37:04.000Z</time>
      </trkpt>
      <trkpt lat="48.30729" lon="-4.57178">
        <ele>14</ele>
        <time>2000-01-01T09:37:14.000Z</time>
      </trkpt>
      <trkpt lat="48.30704" lon="-4.5717">
        <ele>16</ele>
        <time>2000-01-01T09:37:24.000Z</time>
      </trkpt>
      <trkpt lat="48.30697" lon="-4.57171">
        <ele>13.7</ele>
        <time>2000-01-01T09:37:34.000Z</time>
      </trkpt>
      <trkpt lat="48.30682" lon="-4.57135">
        <ele>18</ele>
        <time>2000-01-01T09:37:44.000Z</time>
      </trkpt>
      <trkpt lat="48.3068" lon="-4.57116">
        <ele>26.1</ele>
        <time>2000-01-01T09:37:54.000Z</time>
      </trkpt>
      <trkpt lat="48.30675" lon="-4.57103">
        <ele>25</ele>
        <time>2000-01-01T09:38:04.000Z</time>
      </trkpt>
      <trkpt lat="48.30655" lon="-4.57118">
        <ele>30</ele>
        <time>2000-01-01T09:38:14.000Z</time>
      </trkpt>
      <trkpt lat="48.30639" lon="-4.57128">
        <ele>33.8</ele>
        <time>2000-01-01T09:38:24.000Z</time>
      </trkpt>
      <trkpt lat="48.30629" lon="-4.5713">
        <ele>34</ele>
        <time>2000-01-01T09:38:34.000Z</time>
      </trkpt>
      <trkpt lat="48.30627" lon="-4.57127">
        <ele>36</ele>
        <time>2000-01-01T09:38:44.000Z</time>
      </trkpt>
      <trkpt lat="48.30626" lon="-4.57121">
        <ele>36.6</ele>
        <time>2000-01-01T09:38:54.000Z</time>
      </trkpt>
      <trkpt lat="48.30627" lon="-4.57117">
        <ele>36.7</ele>
        <time>2000-01-01T09:39:04.000Z</time>
      </trkpt>
      <trkpt lat="48.30626" lon="-4.5711">
        <ele>37.3</ele>
        <time>2000-01-01T09:39:14.000Z</time>
      </trkpt>
      <trkpt lat="48.30616" lon="-4.57096">
        <ele>35</ele>
        <time>2000-01-01T09:39:24.000Z</time>
      </trkpt>
      <trkpt lat="48.30614" lon="-4.5708">
        <ele>40</ele>
        <time>2000-01-01T09:39:34.000Z</time>
      </trkpt>
      <trkpt lat="48.30611" lon="-4.57074">
        <ele>40.7</ele>
        <time>2000-01-01T09:39:44.000Z</time>
      </trkpt>
      <trkpt lat="48.30571" lon="-4.57033">
        <ele>35</ele>
        <time>2000-01-01T09:39:54.000Z</time>
      </trkpt>
      <trkpt lat="48.30549" lon="-4.57018">
        <ele>35</ele>
        <time>2000-01-01T09:40:04.000Z</time>
      </trkpt>
      <trkpt lat="48.30525" lon="-4.57001">
        <ele>34</ele>
        <time>2000-01-01T09:40:14.000Z</time>
      </trkpt>
      <trkpt lat="48.30504" lon="-4.56984">
        <ele>34</ele>
        <time>2000-01-01T09:40:24.000Z</time>
      </trkpt>
      <trkpt lat="48.30482" lon="-4.56966">
        <ele>41</ele>
        <time>2000-01-01T09:40:34.000Z</time>
      </trkpt>
      <trkpt lat="48.3047" lon="-4.56962">
        <ele>50.7</ele>
        <time>2000-01-01T09:40:44.000Z</time>
      </trkpt>
      <trkpt lat="48.30452" lon="-4.56967">
        <ele>43</ele>
        <time>2000-01-01T09:40:54.000Z</time>
      </trkpt>
      <trkpt lat="48.30429" lon="-4.56963">
        <ele>51</ele>
        <time>2000-01-01T09:41:04.000Z</time>
      </trkpt>
      <trkpt lat="48.304" lon="-4.56973">
        <ele>50</ele>
        <time>2000-01-01T09:41:14.000Z</time>
      </trkpt>
      <trkpt lat="48.30374" lon="-4.56986">
        <ele>50</ele>
        <time>2000-01-01T09:41:24.000Z</time>
      </trkpt>
      <trkpt lat="48.30352" lon="-4.56991">
        <ele>50</ele>
        <time>2000-01-01T09:41:34.000Z</time>
      </trkpt>
      <trkpt lat="48.30338" lon="-4.57003">
        <ele>53.8</ele>
        <time>2000-01-01T09:41:44.000Z</time>
      </trkpt>
      <trkpt lat="48.30304" lon="-4.57012">
        <ele>41</ele>
        <time>2000-01-01T09:41:54.000Z</time>
      </trkpt>
      <trkpt lat="48.30283" lon="-4.57014">
        <ele>43</ele>
        <time>2000-01-01T09:42:04.000Z</time>
      </trkpt>
      <trkpt lat="48.30253" lon="-4.57008">
        <ele>45</ele>
        <time>2000-01-01T09:42:14.000Z</time>
      </trkpt>
      <trkpt lat="48.30232" lon="-4.57007">
        <ele>45</ele>
        <time>2000-01-01T09:42:24.000Z</time>
      </trkpt>
      <trkpt lat="48.30207" lon="-4.57014">
        <ele>52</ele>
        <time>2000-01-01T09:42:34.000Z</time>
      </trkpt>
      <trkpt lat="48.30192" lon="-4.5701">
        <ele>55.4</ele>
        <time>2000-01-01T09:42:44.000Z</time>
      </trkpt>
      <trkpt lat="48.3017" lon="-4.56997">
        <ele>59</ele>
        <time>2000-01-01T09:42:54.000Z</time>
      </trkpt>
      <trkpt lat="48.30151" lon="-4.56994">
        <ele>58</ele>
        <time>2000-01-01T09:43:04.000Z</time>
      </trkpt>
      <trkpt lat="48.30122" lon="-4.57008">
        <ele>57</ele>
        <time>2000-01-01T09:43:14.000Z</time>
      </trkpt>
      <trkpt lat="48.30099" lon="-4.57011">
        <ele>63</ele>
        <time>2000-01-01T09:43:24.000Z</time>
      </trkpt>
      <trkpt lat="48.30092" lon="-4.57002">
        <ele>58.7</ele>
        <time>2000-01-01T09:43:34.000Z</time>
      </trkpt>
      <trkpt lat="48.30073" lon="-4.56919">
        <ele>69</ele>
        <time>2000-01-01T09:43:44.000Z</time>
      </trkpt>
      <trkpt lat="48.3006" lon="-4.56906">
        <ele>61.3</ele>
        <time>2000-01-01T09:43:54.000Z</time>
      </trkpt>
      <trkpt lat="48.30045" lon="-4.56852">
        <ele>70</ele>
        <time>2000-01-01T09:44:04.000Z</time>
      </trkpt>
      <trkpt lat="48.30041" lon="-4.56821">
        <ele>71</ele>
        <time>2000-01-01T09:44:14.000Z</time>
      </trkpt>
      <trkpt lat="48.30056" lon="-4.56774">
        <ele>72</ele>
        <time>2000-01-01T09:44:24.000Z</time>
      </trkpt>
      <trkpt lat="48.30063" lon="-4.56715">
        <ele>64</ele>
        <time>2000-01-01T09:44:34.000Z</time>
      </trkpt>
      <trkpt lat="48.3007" lon="-4.56686">
        <ele>60</ele>
        <time>2000-01-01T09:44:44.000Z</time>
      </trkpt>
      <trkpt lat="48.30067" lon="-4.56678">
        <ele>62.2</ele>
        <time>2000-01-01T09:44:54.000Z</time>
      </trkpt>
      <trkpt lat="48.30058" lon="-4.56669">
        <ele>62.1</ele>
        <time>2000-01-01T09:45:04.000Z</time>
      </trkpt>
      <trkpt lat="48.30057" lon="-4.56649">
        <ele>61</ele>
        <time>2000-01-01T09:45:14.000Z</time>
      </trkpt>
      <trkpt lat="48.30053" lon="-4.56632">
        <ele>62.1</ele>
        <time>2000-01-01T09:45:24.000Z</time>
      </trkpt>
      <trkpt lat="48.3004" lon="-4.56617">
        <ele>58</ele>
        <time>2000-01-01T09:45:34.000Z</time>
      </trkpt>
      <trkpt lat="48.30035" lon="-4.56599">
        <ele>62.3</ele>
        <time>2000-01-01T09:45:44.000Z</time>
      </trkpt>
      <trkpt lat="48.3006" lon="-4.56583">
        <ele>56</ele>
        <time>2000-01-01T09:45:54.000Z</time>
      </trkpt>
      <trkpt lat="48.30068" lon="-4.56569">
        <ele>62.3</ele>
        <time>2000-01-01T09:46:04.000Z</time>
      </trkpt>
      <trkpt lat="48.3007" lon="-4.56549">
        <ele>55</ele>
        <time>2000-01-01T09:46:14.000Z</time>
      </trkpt>
      <trkpt lat="48.30064" lon="-4.56515">
        <ele>55</ele>
        <time>2000-01-01T09:46:24.000Z</time>
      </trkpt>
      <trkpt lat="48.30057" lon="-4.5648">
        <ele>67</ele>
        <time>2000-01-01T09:46:34.000Z</time>
      </trkpt>
      <trkpt lat="48.30059" lon="-4.56459">
        <ele>61.9</ele>
        <time>2000-01-01T09:46:44.000Z</time>
      </trkpt>
      <trkpt lat="48.30107" lon="-4.56373">
        <ele>66</ele>
        <time>2000-01-01T09:46:54.000Z</time>
      </trkpt>
      <trkpt lat="48.30115" lon="-4.56353">
        <ele>58.9</ele>
        <time>2000-01-01T09:47:04.000Z</time>
      </trkpt>
      <trkpt lat="48.30113" lon="-4.56335">
        <ele>66</ele>
        <time>2000-01-01T09:47:14.000Z</time>
      </trkpt>
      <trkpt lat="48.30109" lon="-4.56323">
        <ele>58.8</ele>
        <time>2000-01-01T09:47:24.000Z</time>
      </trkpt>
      <trkpt lat="48.30003" lon="-4.56203">
        <ele>56</ele>
        <time>2000-01-01T09:47:34.000Z</time>
      </trkpt>
      <trkpt lat="48.29986" lon="-4.56186">
        <ele>54</ele>
        <time>2000-01-01T09:47:44.000Z</time>
      </trkpt>
      <trkpt lat="48.29972" lon="-4.56179">
        <ele>58.9</ele>
        <time>2000-01-01T09:47:54.000Z</time>
      </trkpt>
      <trkpt lat="48.29959" lon="-4.56179">
        <ele>53</ele>
        <time>2000-01-01T09:48:04.000Z</time>
      </trkpt>
      <trkpt lat="48.29931" lon="-4.56191">
        <ele>52</ele>
        <time>2000-01-01T09:48:14.000Z</time>
      </trkpt>
      <trkpt lat="48.29876" lon="-4.56214">
        <ele>43</ele>
        <time>2000-01-01T09:48:24.000Z</time>
      </trkpt>
      <trkpt lat="48.29859" lon="-4.56217">
        <ele>56.6</ele>
        <time>2000-01-01T09:48:34.000Z</time>
      </trkpt>
      <trkpt lat="48.29852" lon="-4.56214">
        <ele>43</ele>
        <time>2000-01-01T09:48:44.000Z</time>
      </trkpt>
      <trkpt lat="48.29842" lon="-4.56205">
        <ele>56.2</ele>
        <time>2000-01-01T09:48:54.000Z</time>
      </trkpt>
      <trkpt lat="48.29798" lon="-4.56155">
        <ele>45</ele>
        <time>2000-01-01T09:49:04.000Z</time>
      </trkpt>
      <trkpt lat="48.29775" lon="-4.56133">
        <ele>47</ele>
        <time>2000-01-01T09:49:14.000Z</time>
      </trkpt>
      <trkpt lat="48.29768" lon="-4.56128">
        <ele>52.3</ele>
        <time>2000-01-01T09:49:24.000Z</time>
      </trkpt>
      <trkpt lat="48.29758" lon="-4.56126">
        <ele>51.8</ele>
        <time>2000-01-01T09:49:34.000Z</time>
      </trkpt>
      <trkpt lat="48.29744" lon="-4.56127">
        <ele>52</ele>
        <time>2000-01-01T09:49:44.000Z</time>
      </trkpt>
      <trkpt lat="48.29734" lon="-4.56132">
        <ele>50.9</ele>
        <time>2000-01-01T09:49:54.000Z</time>
      </trkpt>
      <trkpt lat="48.29729" lon="-4.56137">
        <ele>50.5</ele>
        <time>2000-01-01T09:50:04.000Z</time>
      </trkpt>
      <trkpt lat="48.29721" lon="-4.56155">
        <ele>56</ele>
        <time>2000-01-01T09:50:14.000Z</time>
      </trkpt>
      <trkpt lat="48.29711" lon="-4.56194">
        <ele>56</ele>
        <time>2000-01-01T09:50:24.000Z</time>
      </trkpt>
      <trkpt lat="48.29695" lon="-4.56258">
        <ele>55</ele>
        <time>2000-01-01T09:50:34.000Z</time>
      </trkpt>
      <trkpt lat="48.29681" lon="-4.56306">
        <ele>55</ele>
        <time>2000-01-01T09:50:44.000Z</time>
      </trkpt>
      <trkpt lat="48.29671" lon="-4.56323">
        <ele>49.8</ele>
        <time>2000-01-01T09:50:54.000Z</time>
      </trkpt>
      <trkpt lat="48.29658" lon="-4.56336">
        <ele>59</ele>
        <time>2000-01-01T09:51:04.000Z</time>
      </trkpt>
      <trkpt lat="48.29636" lon="-4.56353">
        <ele>62</ele>
        <time>2000-01-01T09:51:14.000Z</time>
      </trkpt>
      <trkpt lat="48.29611" lon="-4.56373">
        <ele>63</ele>
        <time>2000-01-01T09:51:24.000Z</time>
      </trkpt>
      <trkpt lat="48.29599" lon="-4.56377">
        <ele>49.1</ele>
        <time>2000-01-01T09:51:34.000Z</time>
      </trkpt>
      <trkpt lat="48.29588" lon="-4.5637">
        <ele>63</ele>
        <time>2000-01-01T09:51:44.000Z</time>
      </trkpt>
      <trkpt lat="48.29563" lon="-4.56344">
        <ele>63</ele>
        <time>2000-01-01T09:51:54.000Z</time>
      </trkpt>
      <trkpt lat="48.29556" lon="-4.5634">
        <ele>45.5</ele>
        <time>2000-01-01T09:52:04.000Z</time>
      </trkpt>
      <trkpt lat="48.29549" lon="-4.5634">
        <ele>46</ele>
        <time>2000-01-01T09:52:14.000Z</time>
      </trkpt>
      <trkpt lat="48.29515" lon="-4.56358">
        <ele>51</ele>
        <time>2000-01-01T09:52:24.000Z</time>
      </trkpt>
      <trkpt lat="48.29502" lon="-4.56361">
        <ele>44.2</ele>
        <time>2000-01-01T09:52:34.000Z</time>
      </trkpt>
      <trkpt lat="48.29424" lon="-4.5636">
        <ele>42</ele>
        <time>2000-01-01T09:52:44.000Z</time>
      </trkpt>
      <trkpt lat="48.29397" lon="-4.56359">
        <ele>34</ele>
        <time>2000-01-01T09:52:54.000Z</time>
      </trkpt>
      <trkpt lat="48.29359" lon="-4.56358">
        <ele>33</ele>
        <time>2000-01-01T09:53:04.000Z</time>
      </trkpt>
      <trkpt lat="48.29345" lon="-4.56359">
        <ele>32.7</ele>
        <time>2000-01-01T09:53:14.000Z</time>
      </trkpt>
      <trkpt lat="48.29311" lon="-4.56371">
        <ele>33</ele>
        <time>2000-01-01T09:53:24.000Z</time>
      </trkpt>
      <trkpt lat="48.29289" lon="-4.56385">
        <ele>33</ele>
        <time>2000-01-01T09:53:34.000Z</time>
      </trkpt>
      <trkpt lat="48.29269" lon="-4.56405">
        <ele>34</ele>
        <time>2000-01-01T09:53:44.000Z</time>
      </trkpt>
      <trkpt lat="48.29246" lon="-4.56429">
        <ele>34</ele>
        <time>2000-01-01T09:53:54.000Z</time>
      </trkpt>
      <trkpt lat="48.29223" lon="-4.56446">
        <ele>34</ele>
        <time>2000-01-01T09:54:04.000Z</time>
      </trkpt>
      <trkpt lat="48.29194" lon="-4.56467">
        <ele>30</ele>
        <time>2000-01-01T09:54:14.000Z</time>
      </trkpt>
      <trkpt lat="48.29165" lon="-4.56487">
        <ele>27</ele>
        <time>2000-01-01T09:54:24.000Z</time>
      </trkpt>
      <trkpt lat="48.2912" lon="-4.56519">
        <ele>16</ele>
        <time>2000-01-01T09:54:34.000Z</time>
      </trkpt>
      <trkpt lat="48.29095" lon="-4.56534">
        <ele>13</ele>
        <time>2000-01-01T09:54:44.000Z</time>
      </trkpt>
      <trkpt lat="48.29058" lon="-4.56552">
        <ele>13</ele>
        <time>2000-01-01T09:54:54.000Z</time>
      </trkpt>
      <trkpt lat="48.2903" lon="-4.56562">
        <ele>12</ele>
        <time>2000-01-01T09:55:04.000Z</time>
      </trkpt>
      <trkpt lat="48.28977" lon="-4.5658">
        <ele>10</ele>
        <time>2000-01-01T09:55:14.000Z</time>
      </trkpt>
      <trkpt lat="48.28954" lon="-4.56584">
        <ele>6</ele>
        <time>2000-01-01T09:55:24.000Z</time>
      </trkpt>
      <trkpt lat="48.2893" lon="-4.56589">
        <ele>6</ele>
        <time>2000-01-01T09:55:34.000Z</time>
      </trkpt>
      <trkpt lat="48.28906" lon="-4.56583">
        <ele>6</ele>
        <time>2000-01-01T09:55:44.000Z</time>
      </trkpt>
      <trkpt lat="48.28876" lon="-4.56577">
        <ele>6</ele>
        <time>2000-01-01T09:55:54.000Z</time>
      </trkpt>
      <trkpt lat="48.2885" lon="-4.56572">
        <ele>6</ele>
        <time>2000-01-01T09:56:04.000Z</time>
      </trkpt>
      <trkpt lat="48.28814" lon="-4.56566">
        <ele>6</ele>
        <time>2000-01-01T09:56:14.000Z</time>
      </trkpt>
      <trkpt lat="48.28817" lon="-4.56595">
        <ele>5</ele>
        <time>2000-01-01T09:56:24.000Z</time>
      </trkpt>
      <trkpt lat="48.28783" lon="-4.56595">
        <ele>5</ele>
        <time>2000-01-01T09:56:34.000Z</time>
      </trkpt>
      <trkpt lat="48.28764" lon="-4.566">
        <ele>6</ele>
        <time>2000-01-01T09:56:44.000Z</time>
      </trkpt>
      <trkpt lat="48.28741" lon="-4.5661">
        <ele>6</ele>
        <time>2000-01-01T09:56:54.000Z</time>
      </trkpt>
      <trkpt lat="48.28715" lon="-4.56621">
        <ele>7</ele>
        <time>2000-01-01T09:57:04.000Z</time>
      </trkpt>
      <trkpt lat="48.28688" lon="-4.56629">
        <ele>14</ele>
        <time>2000-01-01T09:57:14.000Z</time>
      </trkpt>
      <trkpt lat="48.28645" lon="-4.56642">
        <ele>14</ele>
        <time>2000-01-01T09:57:24.000Z</time>
      </trkpt>
      <trkpt lat="48.28622" lon="-4.56658">
        <ele>15</ele>
        <time>2000-01-01T09:57:34.000Z</time>
      </trkpt>
      <trkpt lat="48.28615" lon="-4.5667">
        <ele>5.7</ele>
        <time>2000-01-01T09:57:44.000Z</time>
      </trkpt>
      <trkpt lat="48.28612" lon="-4.5667">
        <ele>5.8</ele>
        <time>2000-01-01T09:57:54.000Z</time>
      </trkpt>
      <trkpt lat="48.28597" lon="-4.5669">
        <ele>16</ele>
        <time>2000-01-01T09:58:04.000Z</time>
      </trkpt>
      <trkpt lat="48.28583" lon="-4.56692">
        <ele>9</ele>
        <time>2000-01-01T09:58:14.000Z</time>
      </trkpt>
      <trkpt lat="48.28576" lon="-4.56689">
        <ele>16</ele>
        <time>2000-01-01T09:58:24.000Z</time>
      </trkpt>
      <trkpt lat="48.2856" lon="-4.56693">
        <ele>12.3</ele>
        <time>2000-01-01T09:58:34.000Z</time>
      </trkpt>
      <trkpt lat="48.28522" lon="-4.56717">
        <ele>15</ele>
        <time>2000-01-01T09:58:44.000Z</time>
      </trkpt>
      <trkpt lat="48.28496" lon="-4.5672">
        <ele>16</ele>
        <time>2000-01-01T09:58:54.000Z</time>
      </trkpt>
      <trkpt lat="48.28461" lon="-4.56724">
        <ele>17</ele>
        <time>2000-01-01T09:59:04.000Z</time>
      </trkpt>
      <trkpt lat="48.28439" lon="-4.56735">
        <ele>19</ele>
        <time>2000-01-01T09:59:14.000Z</time>
      </trkpt>
      <trkpt lat="48.28417" lon="-4.56745">
        <ele>19</ele>
        <time>2000-01-01T09:59:24.000Z</time>
      </trkpt>
      <trkpt lat="48.28416" lon="-4.56779">
        <ele>19</ele>
        <time>2000-01-01T09:59:34.000Z</time>
      </trkpt>
      <trkpt lat="48.28416" lon="-4.56799">
        <ele>17.2</ele>
        <time>2000-01-01T09:59:44.000Z</time>
      </trkpt>
      <trkpt lat="48.28413" lon="-4.56814">
        <ele>19</ele>
        <time>2000-01-01T09:59:54.000Z</time>
      </trkpt>
      <trkpt lat="48.28405" lon="-4.5683">
        <ele>16.1</ele>
        <time>2000-01-01T10:00:04.000Z</time>
      </trkpt>
      <trkpt lat="48.28396" lon="-4.56842">
        <ele>15</ele>
        <time>2000-01-01T10:00:14.000Z</time>
      </trkpt>
      <trkpt lat="48.28353" lon="-4.56852">
        <ele>15</ele>
        <time>2000-01-01T10:00:24.000Z</time>
      </trkpt>
      <trkpt lat="48.28337" lon="-4.56877">
        <ele>13</ele>
        <time>2000-01-01T10:00:34.000Z</time>
      </trkpt>
      <trkpt lat="48.28327" lon="-4.56896">
        <ele>14.3</ele>
        <time>2000-01-01T10:00:44.000Z</time>
      </trkpt>
      <trkpt lat="48.28308" lon="-4.56919">
        <ele>11</ele>
        <time>2000-01-01T10:00:54.000Z</time>
      </trkpt>
      <trkpt lat="48.2828" lon="-4.56936">
        <ele>9</ele>
        <time>2000-01-01T10:01:04.000Z</time>
      </trkpt>
      <trkpt lat="48.28252" lon="-4.56953">
        <ele>9</ele>
        <time>2000-01-01T10:01:14.000Z</time>
      </trkpt>
      <trkpt lat="48.28223" lon="-4.56971">
        <ele>9</ele>
        <time>2000-01-01T10:01:24.000Z</time>
      </trkpt>
      <trkpt lat="48.28206" lon="-4.56995">
        <ele>9</ele>
        <time>2000-01-01T10:01:34.000Z</time>
      </trkpt>
      <trkpt lat="48.28189" lon="-4.57019">
        <ele>10</ele>
        <time>2000-01-01T10:01:44.000Z</time>
      </trkpt>
      <trkpt lat="48.28175" lon="-4.57049">
        <ele>10</ele>
        <time>2000-01-01T10:01:54.000Z</time>
      </trkpt>
      <trkpt lat="48.28163" lon="-4.57088">
        <ele>10</ele>
        <time>2000-01-01T10:02:04.000Z</time>
      </trkpt>
      <trkpt lat="48.28143" lon="-4.57123">
        <ele>10</ele>
        <time>2000-01-01T10:02:14.000Z</time>
      </trkpt>
      <trkpt lat="48.28123" lon="-4.57133">
        <ele>9</ele>
        <time>2000-01-01T10:02:24.000Z</time>
      </trkpt>
      <trkpt lat="48.28085" lon="-4.57136">
        <ele>10</ele>
        <time>2000-01-01T10:02:34.000Z</time>
      </trkpt>
      <trkpt lat="48.28121" lon="-4.57146">
        <ele>11</ele>
        <time>2000-01-01T10:02:44.000Z</time>
      </trkpt>
      <trkpt lat="48.28142" lon="-4.5716">
        <ele>11</ele>
        <time>2000-01-01T10:02:54.000Z</time>
      </trkpt>
      <trkpt lat="48.28143" lon="-4.57214">
        <ele>14</ele>
        <time>2000-01-01T10:03:04.000Z</time>
      </trkpt>
      <trkpt lat="48.28143" lon="-4.57251">
        <ele>16</ele>
        <time>2000-01-01T10:03:14.000Z</time>
      </trkpt>
      <trkpt lat="48.28142" lon="-4.57298">
        <ele>25</ele>
        <time>2000-01-01T10:03:24.000Z</time>
      </trkpt>
      <trkpt lat="48.28145" lon="-4.5733">
        <ele>26</ele>
        <time>2000-01-01T10:03:34.000Z</time>
      </trkpt>
      <trkpt lat="48.28154" lon="-4.57336">
        <ele>25.3</ele>
        <time>2000-01-01T10:03:44.000Z</time>
      </trkpt>
      <trkpt lat="48.28163" lon="-4.57334">
        <ele>28</ele>
        <time>2000-01-01T10:03:54.000Z</time>
      </trkpt>
      <trkpt lat="48.28188" lon="-4.57338">
        <ele>28</ele>
        <time>2000-01-01T10:04:04.000Z</time>
      </trkpt>
      <trkpt lat="48.28194" lon="-4.57367">
        <ele>21</ele>
        <time>2000-01-01T10:04:14.000Z</time>
      </trkpt>
      <trkpt lat="48.28204" lon="-4.57406">
        <ele>12</ele>
        <time>2000-01-01T10:04:24.000Z</time>
      </trkpt>
      <trkpt lat="48.28202" lon="-4.57417">
        <ele>22.8</ele>
        <time>2000-01-01T10:04:34.000Z</time>
      </trkpt>
      <trkpt lat="48.28196" lon="-4.57427">
        <ele>23.5</ele>
        <time>2000-01-01T10:04:44.000Z</time>
      </trkpt>
      <trkpt lat="48.28187" lon="-4.57434">
        <ele>11</ele>
        <time>2000-01-01T10:04:54.000Z</time>
      </trkpt>
      <trkpt lat="48.28173" lon="-4.57435">
        <ele>21.9</ele>
        <time>2000-01-01T10:05:04.000Z</time>
      </trkpt>
      <trkpt lat="48.28162" lon="-4.57441">
        <ele>11</ele>
        <time>2000-01-01T10:05:14.000Z</time>
      </trkpt>
      <trkpt lat="48.28134" lon="-4.57447">
        <ele>11</ele>
        <time>2000-01-01T10:05:24.000Z</time>
      </trkpt>
      <trkpt lat="48.28125" lon="-4.57442">
        <ele>26.6</ele>
        <time>2000-01-01T10:05:34.000Z</time>
      </trkpt>
      <trkpt lat="48.28106" lon="-4.57455">
        <ele>13</ele>
        <time>2000-01-01T10:05:44.000Z</time>
      </trkpt>
      <trkpt lat="48.28099" lon="-4.57462">
        <ele>25.9</ele>
        <time>2000-01-01T10:05:54.000Z</time>
      </trkpt>
      <trkpt lat="48.28099" lon="-4.57472">
        <ele>25.1</ele>
        <time>2000-01-01T10:06:04.000Z</time>
      </trkpt>
      <trkpt lat="48.28087" lon="-4.57481">
        <ele>11</ele>
        <time>2000-01-01T10:06:14.000Z</time>
      </trkpt>
      <trkpt lat="48.28076" lon="-4.57495">
        <ele>28.7</ele>
        <time>2000-01-01T10:06:24.000Z</time>
      </trkpt>
      <trkpt lat="48.28032" lon="-4.57523">
        <ele>10</ele>
        <time>2000-01-01T10:06:34.000Z</time>
      </trkpt>
      <trkpt lat="48.28026" lon="-4.57531">
        <ele>21.7</ele>
        <time>2000-01-01T10:06:44.000Z</time>
      </trkpt>
      <trkpt lat="48.2801" lon="-4.57538">
        <ele>12</ele>
        <time>2000-01-01T10:06:54.000Z</time>
      </trkpt>
      <trkpt lat="48.27999" lon="-4.57533">
        <ele>18.9</ele>
        <time>2000-01-01T10:07:04.000Z</time>
      </trkpt>
      <trkpt lat="48.27979" lon="-4.5755">
        <ele>15</ele>
        <time>2000-01-01T10:07:14.000Z</time>
      </trkpt>
      <trkpt lat="48.2796" lon="-4.57561">
        <ele>15</ele>
        <time>2000-01-01T10:07:24.000Z</time>
      </trkpt>
      <trkpt lat="48.2793" lon="-4.57571">
        <ele>16</ele>
        <time>2000-01-01T10:07:34.000Z</time>
      </trkpt>
      <trkpt lat="48.27922" lon="-4.5758">
        <ele>11.9</ele>
        <time>2000-01-01T10:07:44.000Z</time>
      </trkpt>
      <trkpt lat="48.27915" lon="-4.57583">
        <ele>12</ele>
        <time>2000-01-01T10:07:54.000Z</time>
      </trkpt>
      <trkpt lat="48.27911" lon="-4.57577">
        <ele>16</ele>
        <time>2000-01-01T10:08:04.000Z</time>
      </trkpt>
      <trkpt lat="48.27895" lon="-4.57602">
        <ele>15</ele>
        <time>2000-01-01T10:08:14.000Z</time>
      </trkpt>
      <trkpt lat="48.27892" lon="-4.57611">
        <ele>10.4</ele>
        <time>2000-01-01T10:08:24.000Z</time>
      </trkpt>
      <trkpt lat="48.2789" lon="-4.57632">
        <ele>15</ele>
        <time>2000-01-01T10:08:34.000Z</time>
      </trkpt>
      <trkpt lat="48.27869" lon="-4.57674">
        <ele>17</ele>
        <time>2000-01-01T10:08:44.000Z</time>
      </trkpt>
      <trkpt lat="48.27861" lon="-4.57683">
        <ele>10.9</ele>
        <time>2000-01-01T10:08:54.000Z</time>
      </trkpt>
      <trkpt lat="48.27851" lon="-4.57688">
        <ele>20</ele>
        <time>2000-01-01T10:09:04.000Z</time>
      </trkpt>
      <trkpt lat="48.2784" lon="-4.57708">
        <ele>12.5</ele>
        <time>2000-01-01T10:09:14.000Z</time>
      </trkpt>
      <trkpt lat="48.27822" lon="-4.57726">
        <ele>19</ele>
        <time>2000-01-01T10:09:24.000Z</time>
      </trkpt>
      <trkpt lat="48.27819" lon="-4.57734">
        <ele>13.6</ele>
        <time>2000-01-01T10:09:34.000Z</time>
      </trkpt>
      <trkpt lat="48.27811" lon="-4.57776">
        <ele>19</ele>
        <time>2000-01-01T10:09:44.000Z</time>
      </trkpt>
      <trkpt lat="48.278" lon="-4.57794">
        <ele>12</ele>
        <time>2000-01-01T10:09:54.000Z</time>
      </trkpt>
      <trkpt lat="48.27788" lon="-4.57808">
        <ele>20</ele>
        <time>2000-01-01T10:10:04.000Z</time>
      </trkpt>
      <trkpt lat="48.27784" lon="-4.57809">
        <ele>13.2</ele>
        <time>2000-01-01T10:10:14.000Z</time>
      </trkpt>
      <trkpt lat="48.27777" lon="-4.57796">
        <ele>17.8</ele>
        <time>2000-01-01T10:10:24.000Z</time>
      </trkpt>
      <trkpt lat="48.27774" lon="-4.57798">
        <ele>20</ele>
        <time>2000-01-01T10:10:34.000Z</time>
      </trkpt>
      <trkpt lat="48.27756" lon="-4.57822">
        <ele>20</ele>
        <time>2000-01-01T10:10:44.000Z</time>
      </trkpt>
      <trkpt lat="48.27747" lon="-4.57845">
        <ele>16.5</ele>
        <time>2000-01-01T10:10:54.000Z</time>
      </trkpt>
      <trkpt lat="48.2775" lon="-4.57855">
        <ele>19</ele>
        <time>2000-01-01T10:11:04.000Z</time>
      </trkpt>
      <trkpt lat="48.27748" lon="-4.57867">
        <ele>12.7</ele>
        <time>2000-01-01T10:11:14.000Z</time>
      </trkpt>
      <trkpt lat="48.27749" lon="-4.57876">
        <ele>10.4</ele>
        <time>2000-01-01T10:11:24.000Z</time>
      </trkpt>
      <trkpt lat="48.27744" lon="-4.57896">
        <ele>19</ele>
        <time>2000-01-01T10:11:34.000Z</time>
      </trkpt>
      <trkpt lat="48.27726" lon="-4.57913">
        <ele>12</ele>
        <time>2000-01-01T10:11:44.000Z</time>
      </trkpt>
      <trkpt lat="48.27718" lon="-4.57925">
        <ele>7.2</ele>
        <time>2000-01-01T10:11:54.000Z</time>
      </trkpt>
      <trkpt lat="48.27713" lon="-4.57943">
        <ele>16</ele>
        <time>2000-01-01T10:12:04.000Z</time>
      </trkpt>
      <trkpt lat="48.27689" lon="-4.57994">
        <ele>20</ele>
        <time>2000-01-01T10:12:14.000Z</time>
      </trkpt>
      <trkpt lat="48.27676" lon="-4.57998">
        <ele>10.2</ele>
        <time>2000-01-01T10:12:24.000Z</time>
      </trkpt>
      <trkpt lat="48.27671" lon="-4.57991">
        <ele>20</ele>
        <time>2000-01-01T10:12:34.000Z</time>
      </trkpt>
      <trkpt lat="48.27668" lon="-4.57992">
        <ele>11</ele>
        <time>2000-01-01T10:12:44.000Z</time>
      </trkpt>
      <trkpt lat="48.27664" lon="-4.58011">
        <ele>14.3</ele>
        <time>2000-01-01T10:12:54.000Z</time>
      </trkpt>
      <trkpt lat="48.27663" lon="-4.58035">
        <ele>19</ele>
        <time>2000-01-01T10:13:04.000Z</time>
      </trkpt>
      <trkpt lat="48.27638" lon="-4.58036">
        <ele>19</ele>
        <time>2000-01-01T10:13:14.000Z</time>
      </trkpt>
      <trkpt lat="48.27605" lon="-4.58037">
        <ele>23</ele>
        <time>2000-01-01T10:13:24.000Z</time>
      </trkpt>
      <trkpt lat="48.27602" lon="-4.58071">
        <ele>23</ele>
        <time>2000-01-01T10:13:34.000Z</time>
      </trkpt>
      <trkpt lat="48.276" lon="-4.58106">
        <ele>24</ele>
        <time>2000-01-01T10:13:44.000Z</time>
      </trkpt>
      <trkpt lat="48.27583" lon="-4.58167">
        <ele>26</ele>
        <time>2000-01-01T10:13:54.000Z</time>
      </trkpt>
      <trkpt lat="48.27559" lon="-4.58215">
        <ele>31</ele>
        <time>2000-01-01T10:14:04.000Z</time>
      </trkpt>
      <trkpt lat="48.2754" lon="-4.58245">
        <ele>32</ele>
        <time>2000-01-01T10:14:14.000Z</time>
      </trkpt>
      <trkpt lat="48.27521" lon="-4.58265">
        <ele>33</ele>
        <time>2000-01-01T10:14:24.000Z</time>
      </trkpt>
      <trkpt lat="48.27499" lon="-4.58287">
        <ele>37</ele>
        <time>2000-01-01T10:14:34.000Z</time>
      </trkpt>
      <trkpt lat="48.2748" lon="-4.58315">
        <ele>40</ele>
        <time>2000-01-01T10:14:44.000Z</time>
      </trkpt>
      <trkpt lat="48.27452" lon="-4.58357">
        <ele>40</ele>
        <time>2000-01-01T10:14:54.000Z</time>
      </trkpt>
      <trkpt lat="48.27432" lon="-4.58394">
        <ele>40</ele>
        <time>2000-01-01T10:15:04.000Z</time>
      </trkpt>
      <trkpt lat="48.27412" lon="-4.58431">
        <ele>44</ele>
        <time>2000-01-01T10:15:14.000Z</time>
      </trkpt>
      <trkpt lat="48.27384" lon="-4.58482">
        <ele>45</ele>
        <time>2000-01-01T10:15:24.000Z</time>
      </trkpt>
      <trkpt lat="48.27415" lon="-4.5848">
        <ele>48</ele>
        <time>2000-01-01T10:15:34.000Z</time>
      </trkpt>
      <trkpt lat="48.27449" lon="-4.58479">
        <ele>48</ele>
        <time>2000-01-01T10:15:44.000Z</time>
      </trkpt>
      <trkpt lat="48.27482" lon="-4.58477">
        <ele>48</ele>
        <time>2000-01-01T10:15:54.000Z</time>
      </trkpt>
      <trkpt lat="48.27516" lon="-4.58476">
        <ele>48</ele>
        <time>2000-01-01T10:16:04.000Z</time>
      </trkpt>
      <trkpt lat="48.2755" lon="-4.58474">
        <ele>46</ele>
        <time>2000-01-01T10:16:14.000Z</time>
      </trkpt>
      <trkpt lat="48.27545" lon="-4.58507">
        <ele>45</ele>
        <time>2000-01-01T10:16:24.000Z</time>
      </trkpt>
      <trkpt lat="48.27534" lon="-4.58548">
        <ele>43</ele>
        <time>2000-01-01T10:16:34.000Z</time>
      </trkpt>
      <trkpt lat="48.27512" lon="-4.58628">
        <ele>42</ele>
        <time>2000-01-01T10:16:44.000Z</time>
      </trkpt>
      <trkpt lat="48.275" lon="-4.5866">
        <ele>42</ele>
        <time>2000-01-01T10:16:54.000Z</time>
      </trkpt>
      <trkpt lat="48.27486" lon="-4.58698">
        <ele>41</ele>
        <time>2000-01-01T10:17:04.000Z</time>
      </trkpt>
      <trkpt lat="48.27473" lon="-4.58735">
        <ele>40</ele>
        <time>2000-01-01T10:17:14.000Z</time>
      </trkpt>
      <trkpt lat="48.27452" lon="-4.58781">
        <ele>40</ele>
        <time>2000-01-01T10:17:24.000Z</time>
      </trkpt>
      <trkpt lat="48.27425" lon="-4.5883">
        <ele>32</ele>
        <time>2000-01-01T10:17:34.000Z</time>
      </trkpt>
      <trkpt lat="48.27419" lon="-4.58856">
        <ele>32</ele>
        <time>2000-01-01T10:17:44.000Z</time>
      </trkpt>
      <trkpt lat="48.2742" lon="-4.5888">
        <ele>31.7</ele>
        <time>2000-01-01T10:17:54.000Z</time>
      </trkpt>
      <trkpt lat="48.27434" lon="-4.58924">
        <ele>30</ele>
        <time>2000-01-01T10:18:04.000Z</time>
      </trkpt>
      <trkpt lat="48.27443" lon="-4.58957">
        <ele>28</ele>
        <time>2000-01-01T10:18:14.000Z</time>
      </trkpt>
      <trkpt lat="48.27452" lon="-4.58993">
        <ele>26</ele>
        <time>2000-01-01T10:18:24.000Z</time>
      </trkpt>
      <trkpt lat="48.27456" lon="-4.59055">
        <ele>18</ele>
        <time>2000-01-01T10:18:34.000Z</time>
      </trkpt>
      <trkpt lat="48.2746" lon="-4.59106">
        <ele>14</ele>
        <time>2000-01-01T10:18:44.000Z</time>
      </trkpt>
      <trkpt lat="48.27471" lon="-4.59161">
        <ele>12</ele>
        <time>2000-01-01T10:18:54.000Z</time>
      </trkpt>
      <trkpt lat="48.27471" lon="-4.59174">
        <ele>12.6</ele>
        <time>2000-01-01T10:19:04.000Z</time>
      </trkpt>
      <trkpt lat="48.27469" lon="-4.59184">
        <ele>12.1</ele>
        <time>2000-01-01T10:19:14.000Z</time>
      </trkpt>
      <trkpt lat="48.27465" lon="-4.5919">
        <ele>12</ele>
        <time>2000-01-01T10:19:24.000Z</time>
      </trkpt>
      <trkpt lat="48.27479" lon="-4.59224">
        <ele>13</ele>
        <time>2000-01-01T10:19:34.000Z</time>
      </trkpt>
      <trkpt lat="48.27499" lon="-4.59275">
        <ele>13</ele>
        <time>2000-01-01T10:19:44.000Z</time>
      </trkpt>
      <trkpt lat="48.27509" lon="-4.59296">
        <ele>5.3</ele>
        <time>2000-01-01T10:19:54.000Z</time>
      </trkpt>
      <trkpt lat="48.27512" lon="-4.59306">
        <ele>11</ele>
        <time>2000-01-01T10:20:04.000Z</time>
      </trkpt>
      <trkpt lat="48.27516" lon="-4.59316">
        <ele>4.1</ele>
        <time>2000-01-01T10:20:14.000Z</time>
      </trkpt>
      <trkpt lat="48.2753" lon="-4.59365">
        <ele>10</ele>
        <time>2000-01-01T10:20:24.000Z</time>
      </trkpt>
      <trkpt lat="48.27541" lon="-4.59401">
        <ele>10</ele>
        <time>2000-01-01T10:20:34.000Z</time>
      </trkpt>
      <trkpt lat="48.27557" lon="-4.59448">
        <ele>10</ele>
        <time>2000-01-01T10:20:44.000Z</time>
      </trkpt>
      <trkpt lat="48.27572" lon="-4.59465">
        <ele>9</ele>
        <time>2000-01-01T10:20:54.000Z</time>
      </trkpt>
      <trkpt lat="48.27592" lon="-4.5949">
        <ele>9</ele>
        <time>2000-01-01T10:21:04.000Z</time>
      </trkpt>
      <trkpt lat="48.27621" lon="-4.59524">
        <ele>7</ele>
        <time>2000-01-01T10:21:14.000Z</time>
      </trkpt>
      <trkpt lat="48.27637" lon="-4.5954">
        <ele>6</ele>
        <time>2000-01-01T10:21:24.000Z</time>
      </trkpt>
      <trkpt lat="48.27655" lon="-4.59553">
        <ele>6</ele>
        <time>2000-01-01T10:21:34.000Z</time>
      </trkpt>
      <trkpt lat="48.27692" lon="-4.59591">
        <ele>6</ele>
        <time>2000-01-01T10:21:44.000Z</time>
      </trkpt>
      <trkpt lat="48.277" lon="-4.59606">
        <ele>4.3</ele>
        <time>2000-01-01T10:21:54.000Z</time>
      </trkpt>
      <trkpt lat="48.2773" lon="-4.59635">
        <ele>5</ele>
        <time>2000-01-01T10:22:04.000Z</time>
      </trkpt>
      <trkpt lat="48.27763" lon="-4.59663">
        <ele>5</ele>
        <time>2000-01-01T10:22:14.000Z</time>
      </trkpt>
      <trkpt lat="48.27792" lon="-4.59685">
        <ele>11</ele>
        <time>2000-01-01T10:22:24.000Z</time>
      </trkpt>
      <trkpt lat="48.27823" lon="-4.59704">
        <ele>10</ele>
        <time>2000-01-01T10:22:34.000Z</time>
      </trkpt>
      <trkpt lat="48.27853" lon="-4.59724">
        <ele>10</ele>
        <time>2000-01-01T10:22:44.000Z</time>
      </trkpt>
      <trkpt lat="48.27877" lon="-4.59739">
        <ele>10</ele>
        <time>2000-01-01T10:22:54.000Z</time>
      </trkpt>
      <trkpt lat="48.27908" lon="-4.5976">
        <ele>11</ele>
        <time>2000-01-01T10:23:04.000Z</time>
      </trkpt>
      <trkpt lat="48.27938" lon="-4.59767">
        <ele>11</ele>
        <time>2000-01-01T10:23:14.000Z</time>
      </trkpt>
      <trkpt lat="48.27958" lon="-4.59795">
        <ele>11</ele>
        <time>2000-01-01T10:23:24.000Z</time>
      </trkpt>
      <trkpt lat="48.27989" lon="-4.59837">
        <ele>11</ele>
        <time>2000-01-01T10:23:34.000Z</time>
      </trkpt>
      <trkpt lat="48.27987" lon="-4.59859">
        <ele>6.4</ele>
        <time>2000-01-01T10:23:44.000Z</time>
      </trkpt>
      <trkpt lat="48.2802" lon="-4.59889">
        <ele>11</ele>
        <time>2000-01-01T10:23:54.000Z</time>
      </trkpt>
      <trkpt lat="48.28022" lon="-4.59893">
        <ele>5.1</ele>
        <time>2000-01-01T10:24:04.000Z</time>
      </trkpt>
      <trkpt lat="48.28027" lon="-4.59889">
        <ele>4.1</ele>
        <time>2000-01-01T10:24:14.000Z</time>
      </trkpt>
      <trkpt lat="48.28031" lon="-4.59893">
        <ele>4.2</ele>
        <time>2000-01-01T10:24:24.000Z</time>
      </trkpt>
      <trkpt lat="48.28032" lon="-4.59897">
        <ele>4.5</ele>
        <time>2000-01-01T10:24:34.000Z</time>
      </trkpt>
      <trkpt lat="48.28057" lon="-4.59897">
        <ele>12</ele>
        <time>2000-01-01T10:24:44.000Z</time>
      </trkpt>
      <trkpt lat="48.28079" lon="-4.59882">
        <ele>15</ele>
        <time>2000-01-01T10:24:54.000Z</time>
      </trkpt>
      <trkpt lat="48.28101" lon="-4.59859">
        <ele>15</ele>
        <time>2000-01-01T10:25:04.000Z</time>
      </trkpt>
      <trkpt lat="48.28136" lon="-4.59823">
        <ele>17</ele>
        <time>2000-01-01T10:25:14.000Z</time>
      </trkpt>
      <trkpt lat="48.28143" lon="-4.59823">
        <ele>4.8</ele>
        <time>2000-01-01T10:25:24.000Z</time>
      </trkpt>
      <trkpt lat="48.28148" lon="-4.59827">
        <ele>4.6</ele>
        <time>2000-01-01T10:25:34.000Z</time>
      </trkpt>
      <trkpt lat="48.28172" lon="-4.59929">
        <ele>19</ele>
        <time>2000-01-01T10:25:44.000Z</time>
      </trkpt>
      <trkpt lat="48.28173" lon="-4.59937">
        <ele>6.8</ele>
        <time>2000-01-01T10:25:54.000Z</time>
      </trkpt>
      <trkpt lat="48.2818" lon="-4.59949">
        <ele>6.3</ele>
        <time>2000-01-01T10:26:04.000Z</time>
      </trkpt>
      <trkpt lat="48.28193" lon="-4.60003">
        <ele>19</ele>
        <time>2000-01-01T10:26:14.000Z</time>
      </trkpt>
      <trkpt lat="48.28204" lon="-4.60059">
        <ele>22</ele>
        <time>2000-01-01T10:26:24.000Z</time>
      </trkpt>
      <trkpt lat="48.28216" lon="-4.60091">
        <ele>22</ele>
        <time>2000-01-01T10:26:34.000Z</time>
      </trkpt>
      <trkpt lat="48.28219" lon="-4.60097">
        <ele>15</ele>
        <time>2000-01-01T10:26:44.000Z</time>
      </trkpt>
      <trkpt lat="48.28226" lon="-4.60102">
        <ele>14.7</ele>
        <time>2000-01-01T10:26:54.000Z</time>
      </trkpt>
      <trkpt lat="48.28253" lon="-4.60146">
        <ele>24</ele>
        <time>2000-01-01T10:27:04.000Z</time>
      </trkpt>
      <trkpt lat="48.28263" lon="-4.60152">
        <ele>19.9</ele>
        <time>2000-01-01T10:27:14.000Z</time>
      </trkpt>
      <trkpt lat="48.28317" lon="-4.60158">
        <ele>33</ele>
        <time>2000-01-01T10:27:24.000Z</time>
      </trkpt>
      <trkpt lat="48.28324" lon="-4.60161">
        <ele>19.5</ele>
        <time>2000-01-01T10:27:34.000Z</time>
      </trkpt>
      <trkpt lat="48.28335" lon="-4.60169">
        <ele>34</ele>
        <time>2000-01-01T10:27:44.000Z</time>
      </trkpt>
      <trkpt lat="48.28358" lon="-4.60173">
        <ele>33</ele>
        <time>2000-01-01T10:27:54.000Z</time>
      </trkpt>
      <trkpt lat="48.28385" lon="-4.60178">
        <ele>32</ele>
        <time>2000-01-01T10:28:04.000Z</time>
      </trkpt>
      <trkpt lat="48.28394" lon="-4.60174">
        <ele>27.1</ele>
        <time>2000-01-01T10:28:14.000Z</time>
      </trkpt>
      <trkpt lat="48.28406" lon="-4.60173">
        <ele>32</ele>
        <time>2000-01-01T10:28:24.000Z</time>
      </trkpt>
      <trkpt lat="48.28418" lon="-4.60178">
        <ele>27.4</ele>
        <time>2000-01-01T10:28:34.000Z</time>
      </trkpt>
      <trkpt lat="48.2843" lon="-4.6018">
        <ele>25</ele>
        <time>2000-01-01T10:28:44.000Z</time>
      </trkpt>
      <trkpt lat="48.28455" lon="-4.60179">
        <ele>23</ele>
        <time>2000-01-01T10:28:54.000Z</time>
      </trkpt>
      <trkpt lat="48.28483" lon="-4.60179">
        <ele>25</ele>
        <time>2000-01-01T10:29:04.000Z</time>
      </trkpt>
      <trkpt lat="48.28489" lon="-4.60183">
        <ele>34.8</ele>
        <time>2000-01-01T10:29:14.000Z</time>
      </trkpt>
      <trkpt lat="48.28505" lon="-4.6018">
        <ele>27</ele>
        <time>2000-01-01T10:29:24.000Z</time>
      </trkpt>
      <trkpt lat="48.28531" lon="-4.60165">
        <ele>27</ele>
        <time>2000-01-01T10:29:34.000Z</time>
      </trkpt>
      <trkpt lat="48.2857" lon="-4.60141">
        <ele>28</ele>
        <time>2000-01-01T10:29:44.000Z</time>
      </trkpt>
      <trkpt lat="48.28578" lon="-4.60151">
        <ele>34.6</ele>
        <time>2000-01-01T10:29:54.000Z</time>
      </trkpt>
      <trkpt lat="48.28593" lon="-4.60159">
        <ele>36</ele>
        <time>2000-01-01T10:30:04.000Z</time>
      </trkpt>
      <trkpt lat="48.28605" lon="-4.60153">
        <ele>39</ele>
        <time>2000-01-01T10:30:14.000Z</time>
      </trkpt>
      <trkpt lat="48.2861" lon="-4.60145">
        <ele>44</ele>
        <time>2000-01-01T10:30:24.000Z</time>
      </trkpt>
      <trkpt lat="48.28624" lon="-4.60142">
        <ele>39.7</ele>
        <time>2000-01-01T10:30:34.000Z</time>
      </trkpt>
      <trkpt lat="48.2863" lon="-4.60143">
        <ele>44</ele>
        <time>2000-01-01T10:30:44.000Z</time>
      </trkpt>
      <trkpt lat="48.28635" lon="-4.6015">
        <ele>41.5</ele>
        <time>2000-01-01T10:30:54.000Z</time>
      </trkpt>
      <trkpt lat="48.28639" lon="-4.60159">
        <ele>42.4</ele>
        <time>2000-01-01T10:31:04.000Z</time>
      </trkpt>
      <trkpt lat="48.28643" lon="-4.60192">
        <ele>46</ele>
        <time>2000-01-01T10:31:14.000Z</time>
      </trkpt>
      <trkpt lat="48.28638" lon="-4.60232">
        <ele>54</ele>
        <time>2000-01-01T10:31:24.000Z</time>
      </trkpt>
      <trkpt lat="48.2863" lon="-4.60291">
        <ele>55</ele>
        <time>2000-01-01T10:31:34.000Z</time>
      </trkpt>
      <trkpt lat="48.28632" lon="-4.60312">
        <ele>47.6</ele>
        <time>2000-01-01T10:31:44.000Z</time>
      </trkpt>
      <trkpt lat="48.28626" lon="-4.60342">
        <ele>56</ele>
        <time>2000-01-01T10:31:54.000Z</time>
      </trkpt>
      <trkpt lat="48.28629" lon="-4.60385">
        <ele>54</ele>
        <time>2000-01-01T10:32:04.000Z</time>
      </trkpt>
      <trkpt lat="48.28633" lon="-4.60404">
        <ele>52.7</ele>
        <time>2000-01-01T10:32:14.000Z</time>
      </trkpt>
      <trkpt lat="48.28639" lon="-4.60444">
        <ele>53</ele>
        <time>2000-01-01T10:32:24.000Z</time>
      </trkpt>
      <trkpt lat="48.28638" lon="-4.60462">
        <ele>55.7</ele>
        <time>2000-01-01T10:32:34.000Z</time>
      </trkpt>
      <trkpt lat="48.28635" lon="-4.60476">
        <ele>54</ele>
        <time>2000-01-01T10:32:44.000Z</time>
      </trkpt>
      <trkpt lat="48.28611" lon="-4.60506">
        <ele>53</ele>
        <time>2000-01-01T10:32:54.000Z</time>
      </trkpt>
      <trkpt lat="48.28598" lon="-4.60561">
        <ele>53</ele>
        <time>2000-01-01T10:33:04.000Z</time>
      </trkpt>
      <trkpt lat="48.28595" lon="-4.60582">
        <ele>47.2</ele>
        <time>2000-01-01T10:33:14.000Z</time>
      </trkpt>
      <trkpt lat="48.28589" lon="-4.60602">
        <ele>50</ele>
        <time>2000-01-01T10:33:24.000Z</time>
      </trkpt>
      <trkpt lat="48.28587" lon="-4.60611">
        <ele>52.8</ele>
        <time>2000-01-01T10:33:34.000Z</time>
      </trkpt>
      <trkpt lat="48.2858" lon="-4.60633">
        <ele>51</ele>
        <time>2000-01-01T10:33:44.000Z</time>
      </trkpt>
      <trkpt lat="48.28571" lon="-4.60645">
        <ele>55.2</ele>
        <time>2000-01-01T10:33:54.000Z</time>
      </trkpt>
      <trkpt lat="48.28549" lon="-4.60648">
        <ele>52</ele>
        <time>2000-01-01T10:34:04.000Z</time>
      </trkpt>
      <trkpt lat="48.2853" lon="-4.60644">
        <ele>52</ele>
        <time>2000-01-01T10:34:14.000Z</time>
      </trkpt>
      <trkpt lat="48.28523" lon="-4.60644">
        <ele>56.6</ele>
        <time>2000-01-01T10:34:24.000Z</time>
      </trkpt>
      <trkpt lat="48.28515" lon="-4.60651">
        <ele>56.1</ele>
        <time>2000-01-01T10:34:34.000Z</time>
      </trkpt>
      <trkpt lat="48.28473" lon="-4.60668">
        <ele>48</ele>
        <time>2000-01-01T10:34:44.000Z</time>
      </trkpt>
      <trkpt lat="48.28442" lon="-4.60688">
        <ele>51</ele>
        <time>2000-01-01T10:34:54.000Z</time>
      </trkpt>
      <trkpt lat="48.28422" lon="-4.60691">
        <ele>54</ele>
        <time>2000-01-01T10:35:04.000Z</time>
      </trkpt>
      <trkpt lat="48.28409" lon="-4.60697">
        <ele>54</ele>
        <time>2000-01-01T10:35:14.000Z</time>
      </trkpt>
      <trkpt lat="48.28375" lon="-4.60718">
        <ele>54</ele>
        <time>2000-01-01T10:35:24.000Z</time>
      </trkpt>
      <trkpt lat="48.28347" lon="-4.6074">
        <ele>54</ele>
        <time>2000-01-01T10:35:34.000Z</time>
      </trkpt>
      <trkpt lat="48.28331" lon="-4.6075">
        <ele>55</ele>
        <time>2000-01-01T10:35:44.000Z</time>
      </trkpt>
      <trkpt lat="48.28261" lon="-4.6072">
        <ele>58</ele>
        <time>2000-01-01T10:35:54.000Z</time>
      </trkpt>
      <trkpt lat="48.2823" lon="-4.60756">
        <ele>57</ele>
        <time>2000-01-01T10:36:04.000Z</time>
      </trkpt>
      <trkpt lat="48.28207" lon="-4.60772">
        <ele>57</ele>
        <time>2000-01-01T10:36:14.000Z</time>
      </trkpt>
      <trkpt lat="48.28176" lon="-4.60793">
        <ele>56</ele>
        <time>2000-01-01T10:36:24.000Z</time>
      </trkpt>
      <trkpt lat="48.28147" lon="-4.60816">
        <ele>57</ele>
        <time>2000-01-01T10:36:34.000Z</time>
      </trkpt>
      <trkpt lat="48.28118" lon="-4.60838">
        <ele>59</ele>
        <time>2000-01-01T10:36:44.000Z</time>
      </trkpt>
      <trkpt lat="48.28072" lon="-4.60875">
        <ele>61</ele>
        <time>2000-01-01T10:36:54.000Z</time>
      </trkpt>
      <trkpt lat="48.2805" lon="-4.60888">
        <ele>62</ele>
        <time>2000-01-01T10:37:04.000Z</time>
      </trkpt>
      <trkpt lat="48.28024" lon="-4.60845">
        <ele>62</ele>
        <time>2000-01-01T10:37:14.000Z</time>
      </trkpt>
      <trkpt lat="48.28016" lon="-4.60812">
        <ele>59</ele>
        <time>2000-01-01T10:37:24.000Z</time>
      </trkpt>
      <trkpt lat="48.28006" lon="-4.60774">
        <ele>59</ele>
        <time>2000-01-01T10:37:34.000Z</time>
      </trkpt>
      <trkpt lat="48.27998" lon="-4.6074">
        <ele>58</ele>
        <time>2000-01-01T10:37:44.000Z</time>
      </trkpt>
      <trkpt lat="48.27989" lon="-4.60693">
        <ele>54</ele>
        <time>2000-01-01T10:37:54.000Z</time>
      </trkpt>
      <trkpt lat="48.27981" lon="-4.60646">
        <ele>50</ele>
        <time>2000-01-01T10:38:04.000Z</time>
      </trkpt>
      <trkpt lat="48.27974" lon="-4.60611">
        <ele>47</ele>
        <time>2000-01-01T10:38:14.000Z</time>
      </trkpt>
      <trkpt lat="48.27967" lon="-4.60569">
        <ele>42</ele>
        <time>2000-01-01T10:38:24.000Z</time>
      </trkpt>
      <trkpt lat="48.27935" lon="-4.60569">
        <ele>43</ele>
        <time>2000-01-01T10:38:34.000Z</time>
      </trkpt>
      <trkpt lat="48.27903" lon="-4.60568">
        <ele>44</ele>
        <time>2000-01-01T10:38:44.000Z</time>
      </trkpt>
      <trkpt lat="48.27853" lon="-4.60568">
        <ele>44</ele>
        <time>2000-01-01T10:38:54.000Z</time>
      </trkpt>
      <trkpt lat="48.27812" lon="-4.60572">
        <ele>44</ele>
        <time>2000-01-01T10:39:04.000Z</time>
      </trkpt>
      <trkpt lat="48.2778" lon="-4.60538">
        <ele>45</ele>
        <time>2000-01-01T10:39:14.000Z</time>
      </trkpt>
      <trkpt lat="48.2776" lon="-4.60575">
        <ele>47</ele>
        <time>2000-01-01T10:39:24.000Z</time>
      </trkpt>
      <trkpt lat="48.27765" lon="-4.60622">
        <ele>46</ele>
        <time>2000-01-01T10:39:34.000Z</time>
      </trkpt>
      <trkpt lat="48.27777" lon="-4.60655">
        <ele>46</ele>
        <time>2000-01-01T10:39:44.000Z</time>
      </trkpt>
      <trkpt lat="48.27793" lon="-4.60699">
        <ele>51</ele>
        <time>2000-01-01T10:39:54.000Z</time>
      </trkpt>
      <trkpt lat="48.27817" lon="-4.60753">
        <ele>61</ele>
        <time>2000-01-01T10:40:04.000Z</time>
      </trkpt>
      <trkpt lat="48.27838" lon="-4.60789">
        <ele>60</ele>
        <time>2000-01-01T10:40:14.000Z</time>
      </trkpt>
      <trkpt lat="48.27858" lon="-4.60825">
        <ele>59</ele>
        <time>2000-01-01T10:40:24.000Z</time>
      </trkpt>
      <trkpt lat="48.27873" lon="-4.6085">
        <ele>57</ele>
        <time>2000-01-01T10:40:34.000Z</time>
      </trkpt>
      <trkpt lat="48.27888" lon="-4.60876">
        <ele>56</ele>
        <time>2000-01-01T10:40:44.000Z</time>
      </trkpt>
      <trkpt lat="48.27905" lon="-4.60908">
        <ele>59</ele>
        <time>2000-01-01T10:40:54.000Z</time>
      </trkpt>
      <trkpt lat="48.27932" lon="-4.60956">
        <ele>56</ele>
        <time>2000-01-01T10:41:04.000Z</time>
      </trkpt>
      <trkpt lat="48.27955" lon="-4.60995">
        <ele>54</ele>
        <time>2000-01-01T10:41:14.000Z</time>
      </trkpt>
      <trkpt lat="48.27969" lon="-4.61022">
        <ele>49</ele>
        <time>2000-01-01T10:41:24.000Z</time>
      </trkpt>
      <trkpt lat="48.27985" lon="-4.6105">
        <ele>49</ele>
        <time>2000-01-01T10:41:34.000Z</time>
      </trkpt>
      <trkpt lat="48.27984" lon="-4.61068">
        <ele>54</ele>
        <time>2000-01-01T10:41:44.000Z</time>
      </trkpt>
      <trkpt lat="48.2797" lon="-4.61082">
        <ele>49</ele>
        <time>2000-01-01T10:41:54.000Z</time>
      </trkpt>
      <trkpt lat="48.27948" lon="-4.61125">
        <ele>48</ele>
        <time>2000-01-01T10:42:04.000Z</time>
      </trkpt>
      <trkpt lat="48.27938" lon="-4.6116">
        <ele>47</ele>
        <time>2000-01-01T10:42:14.000Z</time>
      </trkpt>
      <trkpt lat="48.27932" lon="-4.61161">
        <ele>47.6</ele>
        <time>2000-01-01T10:42:24.000Z</time>
      </trkpt>
      <trkpt lat="48.27927" lon="-4.61171">
        <ele>46.3</ele>
        <time>2000-01-01T10:42:34.000Z</time>
      </trkpt>
      <trkpt lat="48.27923" lon="-4.61192">
        <ele>45</ele>
        <time>2000-01-01T10:42:44.000Z</time>
      </trkpt>
      <trkpt lat="48.27907" lon="-4.6123">
        <ele>44</ele>
        <time>2000-01-01T10:42:54.000Z</time>
      </trkpt>
      <trkpt lat="48.27899" lon="-4.61263">
        <ele>31</ele>
        <time>2000-01-01T10:43:04.000Z</time>
      </trkpt>
      <trkpt lat="48.27897" lon="-4.61311">
        <ele>26</ele>
        <time>2000-01-01T10:43:14.000Z</time>
      </trkpt>
      <trkpt lat="48.27896" lon="-4.61353">
        <ele>23</ele>
        <time>2000-01-01T10:43:24.000Z</time>
      </trkpt>
      <trkpt lat="48.27894" lon="-4.61424">
        <ele>21</ele>
        <time>2000-01-01T10:43:34.000Z</time>
      </trkpt>
      <trkpt lat="48.27898" lon="-4.61467">
        <ele>18</ele>
        <time>2000-01-01T10:43:44.000Z</time>
      </trkpt>
      <trkpt lat="48.27905" lon="-4.61546">
        <ele>17</ele>
        <time>2000-01-01T10:43:54.000Z</time>
      </trkpt>
      <trkpt lat="48.27909" lon="-4.61581">
        <ele>24</ele>
        <time>2000-01-01T10:44:04.000Z</time>
      </trkpt>
      <trkpt lat="48.27908" lon="-4.6159">
        <ele>21.7</ele>
        <time>2000-01-01T10:44:14.000Z</time>
      </trkpt>
      <trkpt lat="48.2796" lon="-4.61711">
        <ele>32</ele>
        <time>2000-01-01T10:44:24.000Z</time>
      </trkpt>
      <trkpt lat="48.27965" lon="-4.61727">
        <ele>27</ele>
        <time>2000-01-01T10:44:34.000Z</time>
      </trkpt>
      <trkpt lat="48.27966" lon="-4.61741">
        <ele>32</ele>
        <time>2000-01-01T10:44:44.000Z</time>
      </trkpt>
      <trkpt lat="48.2797" lon="-4.61746">
        <ele>28.6</ele>
        <time>2000-01-01T10:44:54.000Z</time>
      </trkpt>
      <trkpt lat="48.27986" lon="-4.61757">
        <ele>32</ele>
        <time>2000-01-01T10:45:04.000Z</time>
      </trkpt>
      <trkpt lat="48.27995" lon="-4.61768">
        <ele>36.4</ele>
        <time>2000-01-01T10:45:14.000Z</time>
      </trkpt>
      <trkpt lat="48.28006" lon="-4.61777">
        <ele>50</ele>
        <time>2000-01-01T10:45:24.000Z</time>
      </trkpt>
      <trkpt lat="48.2802" lon="-4.61784">
        <ele>44.8</ele>
        <time>2000-01-01T10:45:34.000Z</time>
      </trkpt>
      <trkpt lat="48.28027" lon="-4.61792">
        <ele>58</ele>
        <time>2000-01-01T10:45:44.000Z</time>
      </trkpt>
      <trkpt lat="48.28034" lon="-4.61798">
        <ele>49.1</ele>
        <time>2000-01-01T10:45:54.000Z</time>
      </trkpt>
      <trkpt lat="48.28035" lon="-4.61803">
        <ele>49.8</ele>
        <time>2000-01-01T10:46:04.000Z</time>
      </trkpt>
      <trkpt lat="48.28046" lon="-4.6181">
        <ele>58</ele>
        <time>2000-01-01T10:46:14.000Z</time>
      </trkpt>
      <trkpt lat="48.28063" lon="-4.61827">
        <ele>51</ele>
        <time>2000-01-01T10:46:24.000Z</time>
      </trkpt>
      <trkpt lat="48.28063" lon="-4.61842">
        <ele>52.2</ele>
        <time>2000-01-01T10:46:34.000Z</time>
      </trkpt>
      <trkpt lat="48.28061" lon="-4.61851">
        <ele>52.3</ele>
        <time>2000-01-01T10:46:44.000Z</time>
      </trkpt>
      <trkpt lat="48.28057" lon="-4.61851">
        <ele>51</ele>
        <time>2000-01-01T10:46:54.000Z</time>
      </trkpt>
      <trkpt lat="48.2805" lon="-4.61866">
        <ele>51.9</ele>
        <time>2000-01-01T10:47:04.000Z</time>
      </trkpt>
      <trkpt lat="48.28044" lon="-4.61866">
        <ele>51</ele>
        <time>2000-01-01T10:47:14.000Z</time>
      </trkpt>
      <trkpt lat="48.28041" lon="-4.61863">
        <ele>52.5</ele>
        <time>2000-01-01T10:47:24.000Z</time>
      </trkpt>
      <trkpt lat="48.28035" lon="-4.6186">
        <ele>52.6</ele>
        <time>2000-01-01T10:47:34.000Z</time>
      </trkpt>
      <trkpt lat="48.28024" lon="-4.61867">
        <ele>51</ele>
        <time>2000-01-01T10:47:44.000Z</time>
      </trkpt>
      <trkpt lat="48.28016" lon="-4.61876">
        <ele>49.5</ele>
        <time>2000-01-01T10:47:54.000Z</time>
      </trkpt>
      <trkpt lat="48.28008" lon="-4.61907">
        <ele>56</ele>
        <time>2000-01-01T10:48:04.000Z</time>
      </trkpt>
      <trkpt lat="48.27991" lon="-4.6192">
        <ele>56</ele>
        <time>2000-01-01T10:48:14.000Z</time>
      </trkpt>
      <trkpt lat="48.27987" lon="-4.61928">
        <ele>45</ele>
        <time>2000-01-01T10:48:24.000Z</time>
      </trkpt>
      <trkpt lat="48.27984" lon="-4.6193">
        <ele>44.8</ele>
        <time>2000-01-01T10:48:34.000Z</time>
      </trkpt>
      <trkpt lat="48.27981" lon="-4.61977">
        <ele>55</ele>
        <time>2000-01-01T10:48:44.000Z</time>
      </trkpt>
      <trkpt lat="48.27982" lon="-4.61976">
        <ele>43.6</ele>
        <time>2000-01-01T10:48:54.000Z</time>
      </trkpt>
      <trkpt lat="48.27993" lon="-4.61995">
        <ele>54</ele>
        <time>2000-01-01T10:49:04.000Z</time>
      </trkpt>
      <trkpt lat="48.27995" lon="-4.61996">
        <ele>44.1</ele>
        <time>2000-01-01T10:49:14.000Z</time>
      </trkpt>
      <trkpt lat="48.27996" lon="-4.62004">
        <ele>44.5</ele>
        <time>2000-01-01T10:49:24.000Z</time>
      </trkpt>
      <trkpt lat="48.28002" lon="-4.62009">
        <ele>43.9</ele>
        <time>2000-01-01T10:49:34.000Z</time>
      </trkpt>
      <trkpt lat="48.28002" lon="-4.62027">
        <ele>53</ele>
        <time>2000-01-01T10:49:44.000Z</time>
      </trkpt>
      <trkpt lat="48.28016" lon="-4.62062">
        <ele>53</ele>
        <time>2000-01-01T10:49:54.000Z</time>
      </trkpt>
      <trkpt lat="48.28014" lon="-4.62111">
        <ele>53</ele>
        <time>2000-01-01T10:50:04.000Z</time>
      </trkpt>
      <trkpt lat="48.28002" lon="-4.62148">
        <ele>53</ele>
        <time>2000-01-01T10:50:14.000Z</time>
      </trkpt>
      <trkpt lat="48.28007" lon="-4.62187">
        <ele>56</ele>
        <time>2000-01-01T10:50:24.000Z</time>
      </trkpt>
      <trkpt lat="48.27995" lon="-4.62205">
        <ele>49.9</ele>
        <time>2000-01-01T10:50:34.000Z</time>
      </trkpt>
      <trkpt lat="48.27993" lon="-4.62211">
        <ele>65</ele>
        <time>2000-01-01T10:50:44.000Z</time>
      </trkpt>
      <trkpt lat="48.27978" lon="-4.62218">
        <ele>50.6</ele>
        <time>2000-01-01T10:50:54.000Z</time>
      </trkpt>
      <trkpt lat="48.27954" lon="-4.62215">
        <ele>63</ele>
        <time>2000-01-01T10:51:04.000Z</time>
      </trkpt>
      <trkpt lat="48.27928" lon="-4.62227">
        <ele>64</ele>
        <time>2000-01-01T10:51:14.000Z</time>
      </trkpt>
      <trkpt lat="48.2793" lon="-4.62242">
        <ele>52.4</ele>
        <time>2000-01-01T10:51:24.000Z</time>
      </trkpt>
      <trkpt lat="48.27924" lon="-4.62244">
        <ele>53</ele>
        <time>2000-01-01T10:51:34.000Z</time>
      </trkpt>
      <trkpt lat="48.27917" lon="-4.6225">
        <ele>61</ele>
        <time>2000-01-01T10:51:44.000Z</time>
      </trkpt>
      <trkpt lat="48.27888" lon="-4.6222">
        <ele>59</ele>
        <time>2000-01-01T10:51:54.000Z</time>
      </trkpt>
      <trkpt lat="48.27876" lon="-4.62196">
        <ele>55</ele>
        <time>2000-01-01T10:52:04.000Z</time>
      </trkpt>
      <trkpt lat="48.2785" lon="-4.62152">
        <ele>51</ele>
        <time>2000-01-01T10:52:14.000Z</time>
      </trkpt>
      <trkpt lat="48.27847" lon="-4.62137">
        <ele>47.6</ele>
        <time>2000-01-01T10:52:24.000Z</time>
      </trkpt>
      <trkpt lat="48.27848" lon="-4.62124">
        <ele>47</ele>
        <time>2000-01-01T10:52:34.000Z</time>
      </trkpt>
      <trkpt lat="48.27846" lon="-4.62119">
        <ele>43.8</ele>
        <time>2000-01-01T10:52:44.000Z</time>
      </trkpt>
      <trkpt lat="48.27848" lon="-4.62097">
        <ele>44</ele>
        <time>2000-01-01T10:52:54.000Z</time>
      </trkpt>
      <trkpt lat="48.27846" lon="-4.62085">
        <ele>37</ele>
        <time>2000-01-01T10:53:04.000Z</time>
      </trkpt>
      <trkpt lat="48.27843" lon="-4.62073">
        <ele>33.1</ele>
        <time>2000-01-01T10:53:14.000Z</time>
      </trkpt>
      <trkpt lat="48.27843" lon="-4.62049">
        <ele>29</ele>
        <time>2000-01-01T10:53:24.000Z</time>
      </trkpt>
      <trkpt lat="48.27841" lon="-4.62034">
        <ele>25.2</ele>
        <time>2000-01-01T10:53:34.000Z</time>
      </trkpt>
      <trkpt lat="48.27841" lon="-4.62021">
        <ele>29</ele>
        <time>2000-01-01T10:53:44.000Z</time>
      </trkpt>
      <trkpt lat="48.27839" lon="-4.62009">
        <ele>24.1</ele>
        <time>2000-01-01T10:53:54.000Z</time>
      </trkpt>
      <trkpt lat="48.27834" lon="-4.62">
        <ele>23.1</ele>
        <time>2000-01-01T10:54:04.000Z</time>
      </trkpt>
      <trkpt lat="48.27825" lon="-4.61975">
        <ele>24</ele>
        <time>2000-01-01T10:54:14.000Z</time>
      </trkpt>
      <trkpt lat="48.27818" lon="-4.61966">
        <ele>14.6</ele>
        <time>2000-01-01T10:54:24.000Z</time>
      </trkpt>
      <trkpt lat="48.27808" lon="-4.61935">
        <ele>17</ele>
        <time>2000-01-01T10:54:34.000Z</time>
      </trkpt>
      <trkpt lat="48.27782" lon="-4.61895">
        <ele>17</ele>
        <time>2000-01-01T10:54:44.000Z</time>
      </trkpt>
      <trkpt lat="48.27767" lon="-4.61881">
        <ele>13.5</ele>
        <time>2000-01-01T10:54:54.000Z</time>
      </trkpt>
      <trkpt lat="48.27736" lon="-4.61842">
        <ele>17</ele>
        <time>2000-01-01T10:55:04.000Z</time>
      </trkpt>
      <trkpt lat="48.2772" lon="-4.61809">
        <ele>16</ele>
        <time>2000-01-01T10:55:14.000Z</time>
      </trkpt>
      <trkpt lat="48.2771" lon="-4.61783">
        <ele>16</ele>
        <time>2000-01-01T10:55:24.000Z</time>
      </trkpt>
      <trkpt lat="48.27717" lon="-4.61748">
        <ele>19</ele>
        <time>2000-01-01T10:55:34.000Z</time>
      </trkpt>
      <trkpt lat="48.27719" lon="-4.6172">
        <ele>19</ele>
        <time>2000-01-01T10:55:44.000Z</time>
      </trkpt>
      <trkpt lat="48.27718" lon="-4.61703">
        <ele>14.8</ele>
        <time>2000-01-01T10:55:54.000Z</time>
      </trkpt>
      <trkpt lat="48.2771" lon="-4.61699">
        <ele>14</ele>
        <time>2000-01-01T10:56:04.000Z</time>
      </trkpt>
      <trkpt lat="48.27698" lon="-4.617">
        <ele>14</ele>
        <time>2000-01-01T10:56:14.000Z</time>
      </trkpt>
      <trkpt lat="48.27683" lon="-4.61694">
        <ele>11</ele>
        <time>2000-01-01T10:56:24.000Z</time>
      </trkpt>
      <trkpt lat="48.27667" lon="-4.61678">
        <ele>11</ele>
        <time>2000-01-01T10:56:34.000Z</time>
      </trkpt>
      <trkpt lat="48.27645" lon="-4.61645">
        <ele>10</ele>
        <time>2000-01-01T10:56:44.000Z</time>
      </trkpt>
      <trkpt lat="48.27622" lon="-4.61626">
        <ele>10</ele>
        <time>2000-01-01T10:56:54.000Z</time>
      </trkpt>
      <trkpt lat="48.27589" lon="-4.61599">
        <ele>9</ele>
        <time>2000-01-01T10:57:04.000Z</time>
      </trkpt>
      <trkpt lat="48.27568" lon="-4.6159">
        <ele>8</ele>
        <time>2000-01-01T10:57:14.000Z</time>
      </trkpt>
      <trkpt lat="48.27552" lon="-4.61593">
        <ele>12.1</ele>
        <time>2000-01-01T10:57:24.000Z</time>
      </trkpt>
      <trkpt lat="48.27533" lon="-4.61586">
        <ele>8</ele>
        <time>2000-01-01T10:57:34.000Z</time>
      </trkpt>
      <trkpt lat="48.27527" lon="-4.61574">
        <ele>11.7</ele>
        <time>2000-01-01T10:57:44.000Z</time>
      </trkpt>
      <trkpt lat="48.27502" lon="-4.61577">
        <ele>10</ele>
        <time>2000-01-01T10:57:54.000Z</time>
      </trkpt>
      <trkpt lat="48.27486" lon="-4.61571">
        <ele>10.4</ele>
        <time>2000-01-01T10:58:04.000Z</time>
      </trkpt>
      <trkpt lat="48.2744" lon="-4.61545">
        <ele>10</ele>
        <time>2000-01-01T10:58:14.000Z</time>
      </trkpt>
      <trkpt lat="48.27411" lon="-4.61523">
        <ele>11</ele>
        <time>2000-01-01T10:58:24.000Z</time>
      </trkpt>
      <trkpt lat="48.27372" lon="-4.61514">
        <ele>11</ele>
        <time>2000-01-01T10:58:34.000Z</time>
      </trkpt>
      <trkpt lat="48.27352" lon="-4.61496">
        <ele>10</ele>
        <time>2000-01-01T10:58:44.000Z</time>
      </trkpt>
      <trkpt lat="48.27326" lon="-4.6149">
        <ele>14</ele>
        <time>2000-01-01T10:58:54.000Z</time>
      </trkpt>
      <trkpt lat="48.27288" lon="-4.61482">
        <ele>19</ele>
        <time>2000-01-01T10:59:04.000Z</time>
      </trkpt>
      <trkpt lat="48.27277" lon="-4.61476">
        <ele>25.5</ele>
        <time>2000-01-01T10:59:14.000Z</time>
      </trkpt>
      <trkpt lat="48.27252" lon="-4.61474">
        <ele>28</ele>
        <time>2000-01-01T10:59:24.000Z</time>
      </trkpt>
      <trkpt lat="48.27236" lon="-4.61475">
        <ele>35.4</ele>
        <time>2000-01-01T10:59:34.000Z</time>
      </trkpt>
      <trkpt lat="48.2721" lon="-4.61481">
        <ele>31</ele>
        <time>2000-01-01T10:59:44.000Z</time>
      </trkpt>
      <trkpt lat="48.27184" lon="-4.61493">
        <ele>41</ele>
        <time>2000-01-01T10:59:54.000Z</time>
      </trkpt>
      <trkpt lat="48.27175" lon="-4.61491">
        <ele>50.2</ele>
        <time>2000-01-01T11:00:04.000Z</time>
      </trkpt>
      <trkpt lat="48.27167" lon="-4.61481">
        <ele>41</ele>
        <time>2000-01-01T11:00:14.000Z</time>
      </trkpt>
      <trkpt lat="48.27144" lon="-4.61483">
        <ele>41</ele>
        <time>2000-01-01T11:00:24.000Z</time>
      </trkpt>
      <trkpt lat="48.27128" lon="-4.61473">
        <ele>55.7</ele>
        <time>2000-01-01T11:00:34.000Z</time>
      </trkpt>
      <trkpt lat="48.27098" lon="-4.61478">
        <ele>43</ele>
        <time>2000-01-01T11:00:44.000Z</time>
      </trkpt>
      <trkpt lat="48.27085" lon="-4.61484">
        <ele>56.2</ele>
        <time>2000-01-01T11:00:54.000Z</time>
      </trkpt>
      <trkpt lat="48.27078" lon="-4.61485">
        <ele>46</ele>
        <time>2000-01-01T11:01:04.000Z</time>
      </trkpt>
      <trkpt lat="48.27068" lon="-4.6148">
        <ele>56.7</ele>
        <time>2000-01-01T11:01:14.000Z</time>
      </trkpt>
      <trkpt lat="48.27057" lon="-4.61485">
        <ele>46</ele>
        <time>2000-01-01T11:01:24.000Z</time>
      </trkpt>
      <trkpt lat="48.27051" lon="-4.61496">
        <ele>57</ele>
        <time>2000-01-01T11:01:34.000Z</time>
      </trkpt>
      <trkpt lat="48.27034" lon="-4.61507">
        <ele>45</ele>
        <time>2000-01-01T11:01:44.000Z</time>
      </trkpt>
      <trkpt lat="48.27007" lon="-4.61538">
        <ele>51</ele>
        <time>2000-01-01T11:01:54.000Z</time>
      </trkpt>
      <trkpt lat="48.26993" lon="-4.61541">
        <ele>54.2</ele>
        <time>2000-01-01T11:02:04.000Z</time>
      </trkpt>
      <trkpt lat="48.26973" lon="-4.61537">
        <ele>58</ele>
        <time>2000-01-01T11:02:14.000Z</time>
      </trkpt>
      <trkpt lat="48.26957" lon="-4.61545">
        <ele>53.5</ele>
        <time>2000-01-01T11:02:24.000Z</time>
      </trkpt>
      <trkpt lat="48.2695" lon="-4.61552">
        <ele>58</ele>
        <time>2000-01-01T11:02:34.000Z</time>
      </trkpt>
      <trkpt lat="48.26944" lon="-4.61553">
        <ele>54.1</ele>
        <time>2000-01-01T11:02:44.000Z</time>
      </trkpt>
      <trkpt lat="48.26892" lon="-4.61569">
        <ele>53</ele>
        <time>2000-01-01T11:02:54.000Z</time>
      </trkpt>
      <trkpt lat="48.2686" lon="-4.61578">
        <ele>49</ele>
        <time>2000-01-01T11:03:04.000Z</time>
      </trkpt>
      <trkpt lat="48.26828" lon="-4.61568">
        <ele>42</ele>
        <time>2000-01-01T11:03:14.000Z</time>
      </trkpt>
      <trkpt lat="48.26794" lon="-4.61544">
        <ele>39</ele>
        <time>2000-01-01T11:03:24.000Z</time>
      </trkpt>
      <trkpt lat="48.26784" lon="-4.61549">
        <ele>49.2</ele>
        <time>2000-01-01T11:03:34.000Z</time>
      </trkpt>
      <trkpt lat="48.26762" lon="-4.61549">
        <ele>39</ele>
        <time>2000-01-01T11:03:44.000Z</time>
      </trkpt>
      <trkpt lat="48.2672" lon="-4.61571">
        <ele>40</ele>
        <time>2000-01-01T11:03:54.000Z</time>
      </trkpt>
      <trkpt lat="48.26715" lon="-4.61602">
        <ele>42</ele>
        <time>2000-01-01T11:04:04.000Z</time>
      </trkpt>
      <trkpt lat="48.26697" lon="-4.61611">
        <ele>45</ele>
        <time>2000-01-01T11:04:14.000Z</time>
      </trkpt>
      <trkpt lat="48.26675" lon="-4.61632">
        <ele>44</ele>
        <time>2000-01-01T11:04:24.000Z</time>
      </trkpt>
      <trkpt lat="48.26663" lon="-4.61638">
        <ele>50.8</ele>
        <time>2000-01-01T11:04:34.000Z</time>
      </trkpt>
      <trkpt lat="48.26635" lon="-4.61665">
        <ele>44</ele>
        <time>2000-01-01T11:04:44.000Z</time>
      </trkpt>
      <trkpt lat="48.26617" lon="-4.61698">
        <ele>44</ele>
        <time>2000-01-01T11:04:54.000Z</time>
      </trkpt>
      <trkpt lat="48.26604" lon="-4.617">
        <ele>51.9</ele>
        <time>2000-01-01T11:05:04.000Z</time>
      </trkpt>
      <trkpt lat="48.26596" lon="-4.61706">
        <ele>55</ele>
        <time>2000-01-01T11:05:14.000Z</time>
      </trkpt>
      <trkpt lat="48.26577" lon="-4.61729">
        <ele>55</ele>
        <time>2000-01-01T11:05:24.000Z</time>
      </trkpt>
      <trkpt lat="48.26556" lon="-4.61755">
        <ele>55</ele>
        <time>2000-01-01T11:05:34.000Z</time>
      </trkpt>
      <trkpt lat="48.2655" lon="-4.61757">
        <ele>54.5</ele>
        <time>2000-01-01T11:05:44.000Z</time>
      </trkpt>
      <trkpt lat="48.26546" lon="-4.61765">
        <ele>54.9</ele>
        <time>2000-01-01T11:05:54.000Z</time>
      </trkpt>
      <trkpt lat="48.2654" lon="-4.61764">
        <ele>60</ele>
        <time>2000-01-01T11:06:04.000Z</time>
      </trkpt>
      <trkpt lat="48.2653" lon="-4.6177">
        <ele>55.6</ele>
        <time>2000-01-01T11:06:14.000Z</time>
      </trkpt>
      <trkpt lat="48.26523" lon="-4.61767">
        <ele>60</ele>
        <time>2000-01-01T11:06:24.000Z</time>
      </trkpt>
      <trkpt lat="48.2651" lon="-4.61774">
        <ele>55.2</ele>
        <time>2000-01-01T11:06:34.000Z</time>
      </trkpt>
      <trkpt lat="48.265" lon="-4.61781">
        <ele>55</ele>
        <time>2000-01-01T11:06:44.000Z</time>
      </trkpt>
      <trkpt lat="48.26483" lon="-4.61803">
        <ele>50</ele>
        <time>2000-01-01T11:06:54.000Z</time>
      </trkpt>
      <trkpt lat="48.26456" lon="-4.61819">
        <ele>50</ele>
        <time>2000-01-01T11:07:04.000Z</time>
      </trkpt>
      <trkpt lat="48.26434" lon="-4.61833">
        <ele>47</ele>
        <time>2000-01-01T11:07:14.000Z</time>
      </trkpt>
      <trkpt lat="48.26408" lon="-4.61848">
        <ele>45</ele>
        <time>2000-01-01T11:07:24.000Z</time>
      </trkpt>
      <trkpt lat="48.26386" lon="-4.61858">
        <ele>45</ele>
        <time>2000-01-01T11:07:34.000Z</time>
      </trkpt>
      <trkpt lat="48.26364" lon="-4.61873">
        <ele>42</ele>
        <time>2000-01-01T11:07:44.000Z</time>
      </trkpt>
      <trkpt lat="48.26342" lon="-4.619">
        <ele>43</ele>
        <time>2000-01-01T11:07:54.000Z</time>
      </trkpt>
      <trkpt lat="48.26316" lon="-4.61921">
        <ele>39</ele>
        <time>2000-01-01T11:08:04.000Z</time>
      </trkpt>
      <trkpt lat="48.26308" lon="-4.61937">
        <ele>53</ele>
        <time>2000-01-01T11:08:14.000Z</time>
      </trkpt>
      <trkpt lat="48.26306" lon="-4.61956">
        <ele>40</ele>
        <time>2000-01-01T11:08:24.000Z</time>
      </trkpt>
      <trkpt lat="48.26299" lon="-4.61962">
        <ele>52.4</ele>
        <time>2000-01-01T11:08:34.000Z</time>
      </trkpt>
      <trkpt lat="48.26285" lon="-4.61965">
        <ele>41</ele>
        <time>2000-01-01T11:08:44.000Z</time>
      </trkpt>
      <trkpt lat="48.26273" lon="-4.61983">
        <ele>52.3</ele>
        <time>2000-01-01T11:08:54.000Z</time>
      </trkpt>
      <trkpt lat="48.26261" lon="-4.61995">
        <ele>50</ele>
        <time>2000-01-01T11:09:04.000Z</time>
      </trkpt>
      <trkpt lat="48.26236" lon="-4.62009">
        <ele>54</ele>
        <time>2000-01-01T11:09:14.000Z</time>
      </trkpt>
      <trkpt lat="48.26204" lon="-4.62032">
        <ele>56</ele>
        <time>2000-01-01T11:09:24.000Z</time>
      </trkpt>
      <trkpt lat="48.26175" lon="-4.62081">
        <ele>59</ele>
        <time>2000-01-01T11:09:34.000Z</time>
      </trkpt>
      <trkpt lat="48.26153" lon="-4.62103">
        <ele>60</ele>
        <time>2000-01-01T11:09:44.000Z</time>
      </trkpt>
      <trkpt lat="48.2613" lon="-4.62119">
        <ele>60</ele>
        <time>2000-01-01T11:09:54.000Z</time>
      </trkpt>
      <trkpt lat="48.26098" lon="-4.6214">
        <ele>52</ele>
        <time>2000-01-01T11:10:04.000Z</time>
      </trkpt>
      <trkpt lat="48.26074" lon="-4.62161">
        <ele>51</ele>
        <time>2000-01-01T11:10:14.000Z</time>
      </trkpt>
      <trkpt lat="48.26048" lon="-4.62168">
        <ele>51</ele>
        <time>2000-01-01T11:10:24.000Z</time>
      </trkpt>
      <trkpt lat="48.26019" lon="-4.62167">
        <ele>51</ele>
        <time>2000-01-01T11:10:34.000Z</time>
      </trkpt>
      <trkpt lat="48.26003" lon="-4.6217">
        <ele>58</ele>
        <time>2000-01-01T11:10:44.000Z</time>
      </trkpt>
      <trkpt lat="48.25971" lon="-4.62161">
        <ele>51</ele>
        <time>2000-01-01T11:10:54.000Z</time>
      </trkpt>
      <trkpt lat="48.25929" lon="-4.62165">
        <ele>51</ele>
        <time>2000-01-01T11:11:04.000Z</time>
      </trkpt>
      <trkpt lat="48.25906" lon="-4.62158">
        <ele>55</ele>
        <time>2000-01-01T11:11:14.000Z</time>
      </trkpt>
      <trkpt lat="48.2588" lon="-4.6215">
        <ele>57</ele>
        <time>2000-01-01T11:11:24.000Z</time>
      </trkpt>
      <trkpt lat="48.25882" lon="-4.62185">
        <ele>57</ele>
        <time>2000-01-01T11:11:34.000Z</time>
      </trkpt>
      <trkpt lat="48.25878" lon="-4.62211">
        <ele>58</ele>
        <time>2000-01-01T11:11:44.000Z</time>
      </trkpt>
      <trkpt lat="48.2586" lon="-4.62225">
        <ele>57</ele>
        <time>2000-01-01T11:11:54.000Z</time>
      </trkpt>
      <trkpt lat="48.25866" lon="-4.62276">
        <ele>57</ele>
        <time>2000-01-01T11:12:04.000Z</time>
      </trkpt>
      <trkpt lat="48.25866" lon="-4.62329">
        <ele>54</ele>
        <time>2000-01-01T11:12:14.000Z</time>
      </trkpt>
      <trkpt lat="48.2584" lon="-4.62292">
        <ele>51</ele>
        <time>2000-01-01T11:12:24.000Z</time>
      </trkpt>
      <trkpt lat="48.25825" lon="-4.62274">
        <ele>49</ele>
        <time>2000-01-01T11:12:34.000Z</time>
      </trkpt>
      <trkpt lat="48.2579" lon="-4.62247">
        <ele>47</ele>
        <time>2000-01-01T11:12:44.000Z</time>
      </trkpt>
      <trkpt lat="48.25775" lon="-4.62244">
        <ele>54.1</ele>
        <time>2000-01-01T11:12:54.000Z</time>
      </trkpt>
      <trkpt lat="48.25765" lon="-4.62245">
        <ele>47</ele>
        <time>2000-01-01T11:13:04.000Z</time>
      </trkpt>
      <trkpt lat="48.25751" lon="-4.62253">
        <ele>55.5</ele>
        <time>2000-01-01T11:13:14.000Z</time>
      </trkpt>
      <trkpt lat="48.25735" lon="-4.62266">
        <ele>48</ele>
        <time>2000-01-01T11:13:24.000Z</time>
      </trkpt>
      <trkpt lat="48.25722" lon="-4.62278">
        <ele>59</ele>
        <time>2000-01-01T11:13:34.000Z</time>
      </trkpt>
      <trkpt lat="48.2571" lon="-4.62287">
        <ele>48</ele>
        <time>2000-01-01T11:13:44.000Z</time>
      </trkpt>
      <trkpt lat="48.25703" lon="-4.62265">
        <ele>57.7</ele>
        <time>2000-01-01T11:13:54.000Z</time>
      </trkpt>
      <trkpt lat="48.25696" lon="-4.62234">
        <ele>48</ele>
        <time>2000-01-01T11:14:04.000Z</time>
      </trkpt>
      <trkpt lat="48.2569" lon="-4.62212">
        <ele>57.1</ele>
        <time>2000-01-01T11:14:14.000Z</time>
      </trkpt>
      <trkpt lat="48.2568" lon="-4.62197">
        <ele>48</ele>
        <time>2000-01-01T11:14:24.000Z</time>
      </trkpt>
      <trkpt lat="48.25665" lon="-4.62185">
        <ele>57.1</ele>
        <time>2000-01-01T11:14:34.000Z</time>
      </trkpt>
      <trkpt lat="48.25622" lon="-4.62174">
        <ele>46</ele>
        <time>2000-01-01T11:14:44.000Z</time>
      </trkpt>
      <trkpt lat="48.25608" lon="-4.62161">
        <ele>61.8</ele>
        <time>2000-01-01T11:14:54.000Z</time>
      </trkpt>
      <trkpt lat="48.25629" lon="-4.62124">
        <ele>47</ele>
        <time>2000-01-01T11:15:04.000Z</time>
      </trkpt>
      <trkpt lat="48.2565" lon="-4.62106">
        <ele>47</ele>
        <time>2000-01-01T11:15:14.000Z</time>
      </trkpt>
      <trkpt lat="48.25676" lon="-4.62084">
        <ele>47</ele>
        <time>2000-01-01T11:15:24.000Z</time>
      </trkpt>
      <trkpt lat="48.25698" lon="-4.62062">
        <ele>47</ele>
        <time>2000-01-01T11:15:34.000Z</time>
      </trkpt>
      <trkpt lat="48.25729" lon="-4.62066">
        <ele>45</ele>
        <time>2000-01-01T11:15:44.000Z</time>
      </trkpt>
      <trkpt lat="48.25751" lon="-4.62056">
        <ele>46</ele>
        <time>2000-01-01T11:15:54.000Z</time>
      </trkpt>
      <trkpt lat="48.25774" lon="-4.62045">
        <ele>48</ele>
        <time>2000-01-01T11:16:04.000Z</time>
      </trkpt>
      <trkpt lat="48.25801" lon="-4.62035">
        <ele>47</ele>
        <time>2000-01-01T11:16:14.000Z</time>
      </trkpt>
      <trkpt lat="48.25845" lon="-4.62018">
        <ele>49</ele>
        <time>2000-01-01T11:16:24.000Z</time>
      </trkpt>
      <trkpt lat="48.25862" lon="-4.6202">
        <ele>50.4</ele>
        <time>2000-01-01T11:16:34.000Z</time>
      </trkpt>
      <trkpt lat="48.25884" lon="-4.6201">
        <ele>51</ele>
        <time>2000-01-01T11:16:44.000Z</time>
      </trkpt>
      <trkpt lat="48.25914" lon="-4.62007">
        <ele>51</ele>
        <time>2000-01-01T11:16:54.000Z</time>
      </trkpt>
      <trkpt lat="48.25973" lon="-4.62002">
        <ele>52</ele>
        <time>2000-01-01T11:17:04.000Z</time>
      </trkpt>
      <trkpt lat="48.25997" lon="-4.61985">
        <ele>52</ele>
        <time>2000-01-01T11:17:14.000Z</time>
      </trkpt>
      <trkpt lat="48.26032" lon="-4.61961">
        <ele>49</ele>
        <time>2000-01-01T11:17:24.000Z</time>
      </trkpt>
      <trkpt lat="48.26054" lon="-4.61945">
        <ele>46</ele>
        <time>2000-01-01T11:17:34.000Z</time>
      </trkpt>
      <trkpt lat="48.26079" lon="-4.61927">
        <ele>44</ele>
        <time>2000-01-01T11:17:44.000Z</time>
      </trkpt>
      <trkpt lat="48.26087" lon="-4.61913">
        <ele>41.8</ele>
        <time>2000-01-01T11:17:54.000Z</time>
      </trkpt>
      <trkpt lat="48.26102" lon="-4.61894">
        <ele>42</ele>
        <time>2000-01-01T11:18:04.000Z</time>
      </trkpt>
      <trkpt lat="48.26116" lon="-4.61865">
        <ele>35</ele>
        <time>2000-01-01T11:18:14.000Z</time>
      </trkpt>
      <trkpt lat="48.26141" lon="-4.61822">
        <ele>29</ele>
        <time>2000-01-01T11:18:24.000Z</time>
      </trkpt>
      <trkpt lat="48.26151" lon="-4.61776">
        <ele>32.5</ele>
        <time>2000-01-01T11:18:34.000Z</time>
      </trkpt>
      <trkpt lat="48.26152" lon="-4.61764">
        <ele>30.2</ele>
        <time>2000-01-01T11:18:44.000Z</time>
      </trkpt>
      <trkpt lat="48.26158" lon="-4.61746">
        <ele>29.2</ele>
        <time>2000-01-01T11:18:54.000Z</time>
      </trkpt>
      <trkpt lat="48.2616" lon="-4.61737">
        <ele>28.7</ele>
        <time>2000-01-01T11:19:04.000Z</time>
      </trkpt>
      <trkpt lat="48.26164" lon="-4.61691">
        <ele>15</ele>
        <time>2000-01-01T11:19:14.000Z</time>
      </trkpt>
      <trkpt lat="48.26177" lon="-4.61659">
        <ele>15</ele>
        <time>2000-01-01T11:19:24.000Z</time>
      </trkpt>
      <trkpt lat="48.26174" lon="-4.61646">
        <ele>23.4</ele>
        <time>2000-01-01T11:19:34.000Z</time>
      </trkpt>
      <trkpt lat="48.26178" lon="-4.61612">
        <ele>11</ele>
        <time>2000-01-01T11:19:44.000Z</time>
      </trkpt>
      <trkpt lat="48.26181" lon="-4.61547">
        <ele>13</ele>
        <time>2000-01-01T11:19:54.000Z</time>
      </trkpt>
      <trkpt lat="48.26187" lon="-4.61533">
        <ele>17.6</ele>
        <time>2000-01-01T11:20:04.000Z</time>
      </trkpt>
      <trkpt lat="48.262" lon="-4.61519">
        <ele>12</ele>
        <time>2000-01-01T11:20:14.000Z</time>
      </trkpt>
      <trkpt lat="48.26202" lon="-4.61508">
        <ele>18.5</ele>
        <time>2000-01-01T11:20:24.000Z</time>
      </trkpt>
      <trkpt lat="48.26197" lon="-4.61495">
        <ele>17.1</ele>
        <time>2000-01-01T11:20:34.000Z</time>
      </trkpt>
      <trkpt lat="48.26197" lon="-4.61472">
        <ele>11</ele>
        <time>2000-01-01T11:20:44.000Z</time>
      </trkpt>
      <trkpt lat="48.26204" lon="-4.6144">
        <ele>13</ele>
        <time>2000-01-01T11:20:54.000Z</time>
      </trkpt>
      <trkpt lat="48.26214" lon="-4.61411">
        <ele>13</ele>
        <time>2000-01-01T11:21:04.000Z</time>
      </trkpt>
      <trkpt lat="48.26214" lon="-4.61402">
        <ele>13.1</ele>
        <time>2000-01-01T11:21:14.000Z</time>
      </trkpt>
      <trkpt lat="48.26219" lon="-4.61371">
        <ele>11</ele>
        <time>2000-01-01T11:21:24.000Z</time>
      </trkpt>
      <trkpt lat="48.26226" lon="-4.61336">
        <ele>10</ele>
        <time>2000-01-01T11:21:34.000Z</time>
      </trkpt>
      <trkpt lat="48.26228" lon="-4.61308">
        <ele>10</ele>
        <time>2000-01-01T11:21:44.000Z</time>
      </trkpt>
      <trkpt lat="48.26225" lon="-4.61267">
        <ele>7</ele>
        <time>2000-01-01T11:21:54.000Z</time>
      </trkpt>
      <trkpt lat="48.26228" lon="-4.61259">
        <ele>6.9</ele>
        <time>2000-01-01T11:22:04.000Z</time>
      </trkpt>
      <trkpt lat="48.2623" lon="-4.61257">
        <ele>7.1</ele>
        <time>2000-01-01T11:22:14.000Z</time>
      </trkpt>
      <trkpt lat="48.26228" lon="-4.61245">
        <ele>7</ele>
        <time>2000-01-01T11:22:24.000Z</time>
      </trkpt>
      <trkpt lat="48.26233" lon="-4.61242">
        <ele>6</ele>
        <time>2000-01-01T11:22:34.000Z</time>
      </trkpt>
      <trkpt lat="48.26234" lon="-4.61228">
        <ele>8.9</ele>
        <time>2000-01-01T11:22:44.000Z</time>
      </trkpt>
      <trkpt lat="48.2623" lon="-4.61221">
        <ele>9</ele>
        <time>2000-01-01T11:22:54.000Z</time>
      </trkpt>
      <trkpt lat="48.26209" lon="-4.61147">
        <ele>6</ele>
        <time>2000-01-01T11:23:04.000Z</time>
      </trkpt>
      <trkpt lat="48.26209" lon="-4.61092">
        <ele>7</ele>
        <time>2000-01-01T11:23:14.000Z</time>
      </trkpt>
      <trkpt lat="48.26203" lon="-4.61069">
        <ele>14.8</ele>
        <time>2000-01-01T11:23:24.000Z</time>
      </trkpt>
      <trkpt lat="48.26198" lon="-4.61059">
        <ele>3</ele>
        <time>2000-01-01T11:23:34.000Z</time>
      </trkpt>
      <trkpt lat="48.26181" lon="-4.61041">
        <ele>16</ele>
        <time>2000-01-01T11:23:44.000Z</time>
      </trkpt>
      <trkpt lat="48.26173" lon="-4.61019">
        <ele>17.3</ele>
        <time>2000-01-01T11:23:54.000Z</time>
      </trkpt>
      <trkpt lat="48.26172" lon="-4.61005">
        <ele>15.6</ele>
        <time>2000-01-01T11:24:04.000Z</time>
      </trkpt>
      <trkpt lat="48.26174" lon="-4.61001">
        <ele>16</ele>
        <time>2000-01-01T11:24:14.000Z</time>
      </trkpt>
      <trkpt lat="48.2618" lon="-4.60994">
        <ele>17.8</ele>
        <time>2000-01-01T11:24:24.000Z</time>
      </trkpt>
      <trkpt lat="48.26184" lon="-4.60981">
        <ele>19</ele>
        <time>2000-01-01T11:24:34.000Z</time>
      </trkpt>
      <trkpt lat="48.26183" lon="-4.60964">
        <ele>19.9</ele>
        <time>2000-01-01T11:24:44.000Z</time>
      </trkpt>
      <trkpt lat="48.26178" lon="-4.60947">
        <ele>11</ele>
        <time>2000-01-01T11:24:54.000Z</time>
      </trkpt>
      <trkpt lat="48.2617" lon="-4.60933">
        <ele>24.8</ele>
        <time>2000-01-01T11:25:04.000Z</time>
      </trkpt>
      <trkpt lat="48.26163" lon="-4.60923">
        <ele>9</ele>
        <time>2000-01-01T11:25:14.000Z</time>
      </trkpt>
      <trkpt lat="48.2616" lon="-4.60914">
        <ele>24.1</ele>
        <time>2000-01-01T11:25:24.000Z</time>
      </trkpt>
      <trkpt lat="48.26159" lon="-4.60902">
        <ele>26.4</ele>
        <time>2000-01-01T11:25:34.000Z</time>
      </trkpt>
      <trkpt lat="48.26157" lon="-4.60895">
        <ele>9</ele>
        <time>2000-01-01T11:25:44.000Z</time>
      </trkpt>
      <trkpt lat="48.26158" lon="-4.60891">
        <ele>28.7</ele>
        <time>2000-01-01T11:25:54.000Z</time>
      </trkpt>
      <trkpt lat="48.26156" lon="-4.60884">
        <ele>29.6</ele>
        <time>2000-01-01T11:26:04.000Z</time>
      </trkpt>
      <trkpt lat="48.26154" lon="-4.60866">
        <ele>10</ele>
        <time>2000-01-01T11:26:14.000Z</time>
      </trkpt>
      <trkpt lat="48.2615" lon="-4.60854">
        <ele>34.5</ele>
        <time>2000-01-01T11:26:24.000Z</time>
      </trkpt>
      <trkpt lat="48.26148" lon="-4.60842">
        <ele>35.1</ele>
        <time>2000-01-01T11:26:34.000Z</time>
      </trkpt>
      <trkpt lat="48.26146" lon="-4.60819">
        <ele>5</ele>
        <time>2000-01-01T11:26:44.000Z</time>
      </trkpt>
      <trkpt lat="48.2615" lon="-4.60801">
        <ele>34.7</ele>
        <time>2000-01-01T11:26:54.000Z</time>
      </trkpt>
      <trkpt lat="48.26152" lon="-4.60782">
        <ele>9</ele>
        <time>2000-01-01T11:27:04.000Z</time>
      </trkpt>
      <trkpt lat="48.26148" lon="-4.60746">
        <ele>14</ele>
        <time>2000-01-01T11:27:14.000Z</time>
      </trkpt>
      <trkpt lat="48.26152" lon="-4.60726">
        <ele>29.8</ele>
        <time>2000-01-01T11:27:24.000Z</time>
      </trkpt>
      <trkpt lat="48.26137" lon="-4.60648">
        <ele>19</ele>
        <time>2000-01-01T11:27:34.000Z</time>
      </trkpt>
      <trkpt lat="48.26136" lon="-4.60622">
        <ele>40.7</ele>
        <time>2000-01-01T11:27:44.000Z</time>
      </trkpt>
      <trkpt lat="48.26138" lon="-4.6031">
        <ele>21</ele>
        <time>2000-01-01T11:27:54.000Z</time>
      </trkpt>
      <trkpt lat="48.26145" lon="-4.6029">
        <ele>31.5</ele>
        <time>2000-01-01T11:28:04.000Z</time>
      </trkpt>
      <trkpt lat="48.26147" lon="-4.60275">
        <ele>23</ele>
        <time>2000-01-01T11:28:14.000Z</time>
      </trkpt>
      <trkpt lat="48.26154" lon="-4.60268">
        <ele>31.9</ele>
        <time>2000-01-01T11:28:24.000Z</time>
      </trkpt>
      <trkpt lat="48.26153" lon="-4.6024">
        <ele>27</ele>
        <time>2000-01-01T11:28:34.000Z</time>
      </trkpt>
      <trkpt lat="48.26152" lon="-4.6023">
        <ele>30.7</ele>
        <time>2000-01-01T11:28:44.000Z</time>
      </trkpt>
      <trkpt lat="48.26132" lon="-4.60179">
        <ele>29</ele>
        <time>2000-01-01T11:28:54.000Z</time>
      </trkpt>
      <trkpt lat="48.26126" lon="-4.60177">
        <ele>29.5</ele>
        <time>2000-01-01T11:29:04.000Z</time>
      </trkpt>
      <trkpt lat="48.26119" lon="-4.60177">
        <ele>29.4</ele>
        <time>2000-01-01T11:29:14.000Z</time>
      </trkpt>
      <trkpt lat="48.26095" lon="-4.60189">
        <ele>31</ele>
        <time>2000-01-01T11:29:24.000Z</time>
      </trkpt>
      <trkpt lat="48.26075" lon="-4.60203">
        <ele>31</ele>
        <time>2000-01-01T11:29:34.000Z</time>
      </trkpt>
      <trkpt lat="48.26044" lon="-4.60211">
        <ele>22</ele>
        <time>2000-01-01T11:29:44.000Z</time>
      </trkpt>
      <trkpt lat="48.26038" lon="-4.60211">
        <ele>36.8</ele>
        <time>2000-01-01T11:29:54.000Z</time>
      </trkpt>
      <trkpt lat="48.26019" lon="-4.60191">
        <ele>26</ele>
        <time>2000-01-01T11:30:04.000Z</time>
      </trkpt>
      <trkpt lat="48.25997" lon="-4.60177">
        <ele>30</ele>
        <time>2000-01-01T11:30:14.000Z</time>
      </trkpt>
      <trkpt lat="48.25984" lon="-4.60173">
        <ele>42.5</ele>
        <time>2000-01-01T11:30:24.000Z</time>
      </trkpt>
      <trkpt lat="48.25956" lon="-4.6016">
        <ele>38</ele>
        <time>2000-01-01T11:30:34.000Z</time>
      </trkpt>
      <trkpt lat="48.25938" lon="-4.60133">
        <ele>41</ele>
        <time>2000-01-01T11:30:44.000Z</time>
      </trkpt>
      <trkpt lat="48.25927" lon="-4.60123">
        <ele>48.5</ele>
        <time>2000-01-01T11:30:54.000Z</time>
      </trkpt>
      <trkpt lat="48.25897" lon="-4.6011">
        <ele>46</ele>
        <time>2000-01-01T11:31:04.000Z</time>
      </trkpt>
      <trkpt lat="48.25885" lon="-4.60101">
        <ele>56</ele>
        <time>2000-01-01T11:31:14.000Z</time>
      </trkpt>
      <trkpt lat="48.25875" lon="-4.60081">
        <ele>50</ele>
        <time>2000-01-01T11:31:24.000Z</time>
      </trkpt>
      <trkpt lat="48.2586" lon="-4.60056">
        <ele>50</ele>
        <time>2000-01-01T11:31:34.000Z</time>
      </trkpt>
      <trkpt lat="48.25845" lon="-4.6003">
        <ele>43</ele>
        <time>2000-01-01T11:31:44.000Z</time>
      </trkpt>
      <trkpt lat="48.25825" lon="-4.60011">
        <ele>43</ele>
        <time>2000-01-01T11:31:54.000Z</time>
      </trkpt>
      <trkpt lat="48.25804" lon="-4.59991">
        <ele>49</ele>
        <time>2000-01-01T11:32:04.000Z</time>
      </trkpt>
      <trkpt lat="48.25794" lon="-4.59984">
        <ele>61.8</ele>
        <time>2000-01-01T11:32:14.000Z</time>
      </trkpt>
      <trkpt lat="48.25743" lon="-4.59884">
        <ele>46</ele>
        <time>2000-01-01T11:32:24.000Z</time>
      </trkpt>
      <trkpt lat="48.25732" lon="-4.59845">
        <ele>44</ele>
        <time>2000-01-01T11:32:34.000Z</time>
      </trkpt>
      <trkpt lat="48.25715" lon="-4.59782">
        <ele>35</ele>
        <time>2000-01-01T11:32:44.000Z</time>
      </trkpt>
      <trkpt lat="48.25703" lon="-4.59724">
        <ele>41</ele>
        <time>2000-01-01T11:32:54.000Z</time>
      </trkpt>
      <trkpt lat="48.2569" lon="-4.59675">
        <ele>47</ele>
        <time>2000-01-01T11:33:04.000Z</time>
      </trkpt>
      <trkpt lat="48.25666" lon="-4.59619">
        <ele>45</ele>
        <time>2000-01-01T11:33:14.000Z</time>
      </trkpt>
      <trkpt lat="48.2564" lon="-4.59578">
        <ele>44</ele>
        <time>2000-01-01T11:33:24.000Z</time>
      </trkpt>
      <trkpt lat="48.25632" lon="-4.5957">
        <ele>57.5</ele>
        <time>2000-01-01T11:33:34.000Z</time>
      </trkpt>
      <trkpt lat="48.25567" lon="-4.59525">
        <ele>44</ele>
        <time>2000-01-01T11:33:44.000Z</time>
      </trkpt>
      <trkpt lat="48.25553" lon="-4.59511">
        <ele>55.6</ele>
        <time>2000-01-01T11:33:54.000Z</time>
      </trkpt>
      <trkpt lat="48.25527" lon="-4.59477">
        <ele>45</ele>
        <time>2000-01-01T11:34:04.000Z</time>
      </trkpt>
      <trkpt lat="48.25512" lon="-4.59466">
        <ele>59</ele>
        <time>2000-01-01T11:34:14.000Z</time>
      </trkpt>
      <trkpt lat="48.2549" lon="-4.59466">
        <ele>49</ele>
        <time>2000-01-01T11:34:24.000Z</time>
      </trkpt>
      <trkpt lat="48.25466" lon="-4.59469">
        <ele>49</ele>
        <time>2000-01-01T11:34:34.000Z</time>
      </trkpt>
      <trkpt lat="48.2544" lon="-4.59473">
        <ele>53</ele>
        <time>2000-01-01T11:34:44.000Z</time>
      </trkpt>
      <trkpt lat="48.25398" lon="-4.59471">
        <ele>57</ele>
        <time>2000-01-01T11:34:54.000Z</time>
      </trkpt>
      <trkpt lat="48.25373" lon="-4.59475">
        <ele>52</ele>
        <time>2000-01-01T11:35:04.000Z</time>
      </trkpt>
      <trkpt lat="48.2534" lon="-4.59481">
        <ele>53</ele>
        <time>2000-01-01T11:35:14.000Z</time>
      </trkpt>
      <trkpt lat="48.25321" lon="-4.59477">
        <ele>50</ele>
        <time>2000-01-01T11:35:24.000Z</time>
      </trkpt>
      <trkpt lat="48.25308" lon="-4.59463">
        <ele>63.9</ele>
        <time>2000-01-01T11:35:34.000Z</time>
      </trkpt>
      <trkpt lat="48.253" lon="-4.59441">
        <ele>55</ele>
        <time>2000-01-01T11:35:44.000Z</time>
      </trkpt>
      <trkpt lat="48.25299" lon="-4.5943">
        <ele>63.5</ele>
        <time>2000-01-01T11:35:54.000Z</time>
      </trkpt>
      <trkpt lat="48.25305" lon="-4.59403">
        <ele>60</ele>
        <time>2000-01-01T11:36:04.000Z</time>
      </trkpt>
      <trkpt lat="48.25321" lon="-4.59368">
        <ele>63</ele>
        <time>2000-01-01T11:36:14.000Z</time>
      </trkpt>
      <trkpt lat="48.2535" lon="-4.59306">
        <ele>61</ele>
        <time>2000-01-01T11:36:24.000Z</time>
      </trkpt>
      <trkpt lat="48.25363" lon="-4.59275">
        <ele>61</ele>
        <time>2000-01-01T11:36:34.000Z</time>
      </trkpt>
      <trkpt lat="48.2538" lon="-4.59236">
        <ele>60</ele>
        <time>2000-01-01T11:36:44.000Z</time>
      </trkpt>
      <trkpt lat="48.25389" lon="-4.59204">
        <ele>60</ele>
        <time>2000-01-01T11:36:54.000Z</time>
      </trkpt>
      <trkpt lat="48.25395" lon="-4.59166">
        <ele>58</ele>
        <time>2000-01-01T11:37:04.000Z</time>
      </trkpt>
      <trkpt lat="48.25396" lon="-4.59137">
        <ele>58</ele>
        <time>2000-01-01T11:37:14.000Z</time>
      </trkpt>
      <trkpt lat="48.25396" lon="-4.59098">
        <ele>55</ele>
        <time>2000-01-01T11:37:24.000Z</time>
      </trkpt>
      <trkpt lat="48.25395" lon="-4.59045">
        <ele>53</ele>
        <time>2000-01-01T11:37:34.000Z</time>
      </trkpt>
      <trkpt lat="48.25398" lon="-4.59004">
        <ele>53</ele>
        <time>2000-01-01T11:37:44.000Z</time>
      </trkpt>
      <trkpt lat="48.25403" lon="-4.58974">
        <ele>55</ele>
        <time>2000-01-01T11:37:54.000Z</time>
      </trkpt>
      <trkpt lat="48.2542" lon="-4.58915">
        <ele>57</ele>
        <time>2000-01-01T11:38:04.000Z</time>
      </trkpt>
      <trkpt lat="48.25423" lon="-4.58888">
        <ele>57</ele>
        <time>2000-01-01T11:38:14.000Z</time>
      </trkpt>
      <trkpt lat="48.25424" lon="-4.58857">
        <ele>57</ele>
        <time>2000-01-01T11:38:24.000Z</time>
      </trkpt>
      <trkpt lat="48.25422" lon="-4.5882">
        <ele>48</ele>
        <time>2000-01-01T11:38:34.000Z</time>
      </trkpt>
      <trkpt lat="48.2542" lon="-4.58774">
        <ele>49</ele>
        <time>2000-01-01T11:38:44.000Z</time>
      </trkpt>
      <trkpt lat="48.25421" lon="-4.58744">
        <ele>48</ele>
        <time>2000-01-01T11:38:54.000Z</time>
      </trkpt>
      <trkpt lat="48.25416" lon="-4.58722">
        <ele>53.9</ele>
        <time>2000-01-01T11:39:04.000Z</time>
      </trkpt>
      <trkpt lat="48.25405" lon="-4.58696">
        <ele>48</ele>
        <time>2000-01-01T11:39:14.000Z</time>
      </trkpt>
      <trkpt lat="48.25395" lon="-4.58666">
        <ele>48</ele>
        <time>2000-01-01T11:39:24.000Z</time>
      </trkpt>
      <trkpt lat="48.25392" lon="-4.5865">
        <ele>49.4</ele>
        <time>2000-01-01T11:39:34.000Z</time>
      </trkpt>
      <trkpt lat="48.25392" lon="-4.58622">
        <ele>48</ele>
        <time>2000-01-01T11:39:44.000Z</time>
      </trkpt>
      <trkpt lat="48.25394" lon="-4.58602">
        <ele>52.2</ele>
        <time>2000-01-01T11:39:54.000Z</time>
      </trkpt>
      <trkpt lat="48.25377" lon="-4.58475">
        <ele>55</ele>
        <time>2000-01-01T11:40:04.000Z</time>
      </trkpt>
      <trkpt lat="48.25373" lon="-4.5843">
        <ele>56</ele>
        <time>2000-01-01T11:40:14.000Z</time>
      </trkpt>
      <trkpt lat="48.25366" lon="-4.58396">
        <ele>57</ele>
        <time>2000-01-01T11:40:24.000Z</time>
      </trkpt>
      <trkpt lat="48.25357" lon="-4.58356">
        <ele>57</ele>
        <time>2000-01-01T11:40:34.000Z</time>
      </trkpt>
      <trkpt lat="48.2535" lon="-4.58334">
        <ele>59</ele>
        <time>2000-01-01T11:40:44.000Z</time>
      </trkpt>
      <trkpt lat="48.25315" lon="-4.5828">
        <ele>56</ele>
        <time>2000-01-01T11:40:54.000Z</time>
      </trkpt>
      <trkpt lat="48.25294" lon="-4.58256">
        <ele>56</ele>
        <time>2000-01-01T11:41:04.000Z</time>
      </trkpt>
      <trkpt lat="48.25264" lon="-4.58221">
        <ele>52</ele>
        <time>2000-01-01T11:41:14.000Z</time>
      </trkpt>
      <trkpt lat="48.25246" lon="-4.58191">
        <ele>49</ele>
        <time>2000-01-01T11:41:24.000Z</time>
      </trkpt>
      <trkpt lat="48.25245" lon="-4.58178">
        <ele>58</ele>
        <time>2000-01-01T11:41:34.000Z</time>
      </trkpt>
      <trkpt lat="48.25249" lon="-4.58139">
        <ele>46</ele>
        <time>2000-01-01T11:41:44.000Z</time>
      </trkpt>
      <trkpt lat="48.25251" lon="-4.5811">
        <ele>34</ele>
        <time>2000-01-01T11:41:54.000Z</time>
      </trkpt>
      <trkpt lat="48.25256" lon="-4.58091">
        <ele>54.9</ele>
        <time>2000-01-01T11:42:04.000Z</time>
      </trkpt>
      <trkpt lat="48.25291" lon="-4.58037">
        <ele>37</ele>
        <time>2000-01-01T11:42:14.000Z</time>
      </trkpt>
      <trkpt lat="48.25304" lon="-4.58021">
        <ele>54.3</ele>
        <time>2000-01-01T11:42:24.000Z</time>
      </trkpt>
      <trkpt lat="48.25328" lon="-4.57985">
        <ele>40</ele>
        <time>2000-01-01T11:42:34.000Z</time>
      </trkpt>
      <trkpt lat="48.25344" lon="-4.57955">
        <ele>35</ele>
        <time>2000-01-01T11:42:44.000Z</time>
      </trkpt>
      <trkpt lat="48.25366" lon="-4.57915">
        <ele>33</ele>
        <time>2000-01-01T11:42:54.000Z</time>
      </trkpt>
      <trkpt lat="48.25388" lon="-4.57891">
        <ele>32</ele>
        <time>2000-01-01T11:43:04.000Z</time>
      </trkpt>
      <trkpt lat="48.25423" lon="-4.57854">
        <ele>34</ele>
        <time>2000-01-01T11:43:14.000Z</time>
      </trkpt>
      <trkpt lat="48.25447" lon="-4.57824">
        <ele>36</ele>
        <time>2000-01-01T11:43:24.000Z</time>
      </trkpt>
      <trkpt lat="48.25481" lon="-4.57786">
        <ele>33</ele>
        <time>2000-01-01T11:43:34.000Z</time>
      </trkpt>
      <trkpt lat="48.25511" lon="-4.57739">
        <ele>31</ele>
        <time>2000-01-01T11:43:44.000Z</time>
      </trkpt>
      <trkpt lat="48.25524" lon="-4.57716">
        <ele>31</ele>
        <time>2000-01-01T11:43:54.000Z</time>
      </trkpt>
      <trkpt lat="48.25537" lon="-4.57686">
        <ele>31</ele>
        <time>2000-01-01T11:44:04.000Z</time>
      </trkpt>
      <trkpt lat="48.25552" lon="-4.5765">
        <ele>44</ele>
        <time>2000-01-01T11:44:14.000Z</time>
      </trkpt>
      <trkpt lat="48.25565" lon="-4.57608">
        <ele>44</ele>
        <time>2000-01-01T11:44:24.000Z</time>
      </trkpt>
      <trkpt lat="48.25572" lon="-4.57561">
        <ele>42</ele>
        <time>2000-01-01T11:44:34.000Z</time>
      </trkpt>
      <trkpt lat="48.25574" lon="-4.57537">
        <ele>46.2</ele>
        <time>2000-01-01T11:44:44.000Z</time>
      </trkpt>
      <trkpt lat="48.25578" lon="-4.57509">
        <ele>43</ele>
        <time>2000-01-01T11:44:54.000Z</time>
      </trkpt>
      <trkpt lat="48.25584" lon="-4.57498">
        <ele>47</ele>
        <time>2000-01-01T11:45:04.000Z</time>
      </trkpt>
      <trkpt lat="48.25566" lon="-4.57477">
        <ele>44</ele>
        <time>2000-01-01T11:45:14.000Z</time>
      </trkpt>
      <trkpt lat="48.25557" lon="-4.57464">
        <ele>44.4</ele>
        <time>2000-01-01T11:45:24.000Z</time>
      </trkpt>
      <trkpt lat="48.25537" lon="-4.57431">
        <ele>43</ele>
        <time>2000-01-01T11:45:34.000Z</time>
      </trkpt>
      <trkpt lat="48.25525" lon="-4.57389">
        <ele>42</ele>
        <time>2000-01-01T11:45:44.000Z</time>
      </trkpt>
      <trkpt lat="48.255" lon="-4.57341">
        <ele>42</ele>
        <time>2000-01-01T11:45:54.000Z</time>
      </trkpt>
      <trkpt lat="48.25491" lon="-4.57304">
        <ele>42</ele>
        <time>2000-01-01T11:46:04.000Z</time>
      </trkpt>
      <trkpt lat="48.25478" lon="-4.57251">
        <ele>31</ele>
        <time>2000-01-01T11:46:14.000Z</time>
      </trkpt>
      <trkpt lat="48.25473" lon="-4.5721">
        <ele>32</ele>
        <time>2000-01-01T11:46:24.000Z</time>
      </trkpt>
      <trkpt lat="48.25465" lon="-4.57146">
        <ele>31</ele>
        <time>2000-01-01T11:46:34.000Z</time>
      </trkpt>
      <trkpt lat="48.25471" lon="-4.57108">
        <ele>31</ele>
        <time>2000-01-01T11:46:44.000Z</time>
      </trkpt>
      <trkpt lat="48.25478" lon="-4.57075">
        <ele>36</ele>
        <time>2000-01-01T11:46:54.000Z</time>
      </trkpt>
      <trkpt lat="48.25486" lon="-4.5704">
        <ele>37</ele>
        <time>2000-01-01T11:47:04.000Z</time>
      </trkpt>
      <trkpt lat="48.25498" lon="-4.57">
        <ele>42</ele>
        <time>2000-01-01T11:47:14.000Z</time>
      </trkpt>
      <trkpt lat="48.25512" lon="-4.56969">
        <ele>44</ele>
        <time>2000-01-01T11:47:24.000Z</time>
      </trkpt>
      <trkpt lat="48.2553" lon="-4.56931">
        <ele>41</ele>
        <time>2000-01-01T11:47:34.000Z</time>
      </trkpt>
      <trkpt lat="48.25551" lon="-4.56898">
        <ele>38</ele>
        <time>2000-01-01T11:47:44.000Z</time>
      </trkpt>
      <trkpt lat="48.25569" lon="-4.56845">
        <ele>32</ele>
        <time>2000-01-01T11:47:54.000Z</time>
      </trkpt>
      <trkpt lat="48.25576" lon="-4.56814">
        <ele>32</ele>
        <time>2000-01-01T11:48:04.000Z</time>
      </trkpt>
      <trkpt lat="48.25579" lon="-4.56795">
        <ele>44.8</ele>
        <time>2000-01-01T11:48:14.000Z</time>
      </trkpt>
      <trkpt lat="48.25582" lon="-4.56732">
        <ele>32</ele>
        <time>2000-01-01T11:48:24.000Z</time>
      </trkpt>
      <trkpt lat="48.2558" lon="-4.56699">
        <ele>28</ele>
        <time>2000-01-01T11:48:34.000Z</time>
      </trkpt>
      <trkpt lat="48.25573" lon="-4.56657">
        <ele>28</ele>
        <time>2000-01-01T11:48:44.000Z</time>
      </trkpt>
      <trkpt lat="48.25575" lon="-4.56602">
        <ele>27</ele>
        <time>2000-01-01T11:48:54.000Z</time>
      </trkpt>
      <trkpt lat="48.25573" lon="-4.56572">
        <ele>27</ele>
        <time>2000-01-01T11:49:04.000Z</time>
      </trkpt>
      <trkpt lat="48.25582" lon="-4.56541">
        <ele>27</ele>
        <time>2000-01-01T11:49:14.000Z</time>
      </trkpt>
      <trkpt lat="48.25598" lon="-4.5651">
        <ele>27</ele>
        <time>2000-01-01T11:49:24.000Z</time>
      </trkpt>
      <trkpt lat="48.25609" lon="-4.56472">
        <ele>27</ele>
        <time>2000-01-01T11:49:34.000Z</time>
      </trkpt>
      <trkpt lat="48.25624" lon="-4.56413">
        <ele>21</ele>
        <time>2000-01-01T11:49:44.000Z</time>
      </trkpt>
      <trkpt lat="48.25626" lon="-4.56403">
        <ele>25.3</ele>
        <time>2000-01-01T11:49:54.000Z</time>
      </trkpt>
      <trkpt lat="48.25624" lon="-4.5638">
        <ele>19</ele>
        <time>2000-01-01T11:50:04.000Z</time>
      </trkpt>
      <trkpt lat="48.25635" lon="-4.56326">
        <ele>18</ele>
        <time>2000-01-01T11:50:14.000Z</time>
      </trkpt>
      <trkpt lat="48.25649" lon="-4.56303">
        <ele>16</ele>
        <time>2000-01-01T11:50:24.000Z</time>
      </trkpt>
      <trkpt lat="48.25653" lon="-4.56288">
        <ele>14</ele>
        <time>2000-01-01T11:50:34.000Z</time>
      </trkpt>
      <trkpt lat="48.25675" lon="-4.5626">
        <ele>15</ele>
        <time>2000-01-01T11:50:44.000Z</time>
      </trkpt>
      <trkpt lat="48.25682" lon="-4.56227">
        <ele>14</ele>
        <time>2000-01-01T11:50:54.000Z</time>
      </trkpt>
      <trkpt lat="48.25686" lon="-4.56194">
        <ele>11</ele>
        <time>2000-01-01T11:51:04.000Z</time>
      </trkpt>
      <trkpt lat="48.25689" lon="-4.56186">
        <ele>10.6</ele>
        <time>2000-01-01T11:51:14.000Z</time>
      </trkpt>
      <trkpt lat="48.25742" lon="-4.56091">
        <ele>11</ele>
        <time>2000-01-01T11:51:24.000Z</time>
      </trkpt>
      <trkpt lat="48.25751" lon="-4.56094">
        <ele>7.8</ele>
        <time>2000-01-01T11:51:34.000Z</time>
      </trkpt>
      <trkpt lat="48.25758" lon="-4.56091">
        <ele>7.6</ele>
        <time>2000-01-01T11:51:44.000Z</time>
      </trkpt>
      <trkpt lat="48.25772" lon="-4.56079">
        <ele>11</ele>
        <time>2000-01-01T11:51:54.000Z</time>
      </trkpt>
      <trkpt lat="48.25809" lon="-4.56097">
        <ele>13</ele>
        <time>2000-01-01T11:52:04.000Z</time>
      </trkpt>
      <trkpt lat="48.25833" lon="-4.56105">
        <ele>13</ele>
        <time>2000-01-01T11:52:14.000Z</time>
      </trkpt>
      <trkpt lat="48.25861" lon="-4.56114">
        <ele>11</ele>
        <time>2000-01-01T11:52:24.000Z</time>
      </trkpt>
      <trkpt lat="48.25863" lon="-4.56103">
        <ele>5.1</ele>
        <time>2000-01-01T11:52:34.000Z</time>
      </trkpt>
      <trkpt lat="48.25867" lon="-4.56093">
        <ele>4.1</ele>
        <time>2000-01-01T11:52:44.000Z</time>
      </trkpt>
      <trkpt lat="48.2588" lon="-4.56082">
        <ele>10</ele>
        <time>2000-01-01T11:52:54.000Z</time>
      </trkpt>
      <trkpt lat="48.25898" lon="-4.5605">
        <ele>10</ele>
        <time>2000-01-01T11:53:04.000Z</time>
      </trkpt>
      <trkpt lat="48.25925" lon="-4.56">
        <ele>9</ele>
        <time>2000-01-01T11:53:14.000Z</time>
      </trkpt>
      <trkpt lat="48.25928" lon="-4.55978">
        <ele>5.8</ele>
        <time>2000-01-01T11:53:24.000Z</time>
      </trkpt>
      <trkpt lat="48.25928" lon="-4.55921">
        <ele>9</ele>
        <time>2000-01-01T11:53:34.000Z</time>
      </trkpt>
      <trkpt lat="48.25927" lon="-4.55912">
        <ele>5.5</ele>
        <time>2000-01-01T11:53:44.000Z</time>
      </trkpt>
      <trkpt lat="48.25924" lon="-4.55903">
        <ele>5.8</ele>
        <time>2000-01-01T11:53:54.000Z</time>
      </trkpt>
      <trkpt lat="48.25919" lon="-4.55849">
        <ele>9</ele>
        <time>2000-01-01T11:54:04.000Z</time>
      </trkpt>
      <trkpt lat="48.25907" lon="-4.55785">
        <ele>9</ele>
        <time>2000-01-01T11:54:14.000Z</time>
      </trkpt>
      <trkpt lat="48.25899" lon="-4.55753">
        <ele>10</ele>
        <time>2000-01-01T11:54:24.000Z</time>
      </trkpt>
      <trkpt lat="48.25888" lon="-4.55722">
        <ele>8</ele>
        <time>2000-01-01T11:54:34.000Z</time>
      </trkpt>
      <trkpt lat="48.25876" lon="-4.55688">
        <ele>8</ele>
        <time>2000-01-01T11:54:44.000Z</time>
      </trkpt>
      <trkpt lat="48.25862" lon="-4.5565">
        <ele>9</ele>
        <time>2000-01-01T11:54:54.000Z</time>
      </trkpt>
      <trkpt lat="48.2585" lon="-4.55618">
        <ele>9</ele>
        <time>2000-01-01T11:55:04.000Z</time>
      </trkpt>
      <trkpt lat="48.25835" lon="-4.55581">
        <ele>9</ele>
        <time>2000-01-01T11:55:14.000Z</time>
      </trkpt>
      <trkpt lat="48.2582" lon="-4.55566">
        <ele>11</ele>
        <time>2000-01-01T11:55:24.000Z</time>
      </trkpt>
      <trkpt lat="48.2581" lon="-4.55552">
        <ele>11.5</ele>
        <time>2000-01-01T11:55:34.000Z</time>
      </trkpt>
      <trkpt lat="48.258" lon="-4.55525">
        <ele>14</ele>
        <time>2000-01-01T11:55:44.000Z</time>
      </trkpt>
      <trkpt lat="48.25797" lon="-4.55512">
        <ele>13.5</ele>
        <time>2000-01-01T11:55:54.000Z</time>
      </trkpt>
      <trkpt lat="48.25798" lon="-4.55498">
        <ele>21</ele>
        <time>2000-01-01T11:56:04.000Z</time>
      </trkpt>
      <trkpt lat="48.25792" lon="-4.55493">
        <ele>17.8</ele>
        <time>2000-01-01T11:56:14.000Z</time>
      </trkpt>
      <trkpt lat="48.25778" lon="-4.55487">
        <ele>21</ele>
        <time>2000-01-01T11:56:24.000Z</time>
      </trkpt>
      <trkpt lat="48.25766" lon="-4.55479">
        <ele>25.5</ele>
        <time>2000-01-01T11:56:34.000Z</time>
      </trkpt>
      <trkpt lat="48.25747" lon="-4.55458">
        <ele>22</ele>
        <time>2000-01-01T11:56:44.000Z</time>
      </trkpt>
      <trkpt lat="48.25723" lon="-4.55421">
        <ele>21</ele>
        <time>2000-01-01T11:56:54.000Z</time>
      </trkpt>
      <trkpt lat="48.25717" lon="-4.55404">
        <ele>29.1</ele>
        <time>2000-01-01T11:57:04.000Z</time>
      </trkpt>
      <trkpt lat="48.25715" lon="-4.55392">
        <ele>20</ele>
        <time>2000-01-01T11:57:14.000Z</time>
      </trkpt>
      <trkpt lat="48.257" lon="-4.55355">
        <ele>15</ele>
        <time>2000-01-01T11:57:24.000Z</time>
      </trkpt>
      <trkpt lat="48.25686" lon="-4.55327">
        <ele>15</ele>
        <time>2000-01-01T11:57:34.000Z</time>
      </trkpt>
      <trkpt lat="48.25678" lon="-4.55315">
        <ele>30.5</ele>
        <time>2000-01-01T11:57:44.000Z</time>
      </trkpt>
      <trkpt lat="48.25669" lon="-4.55296">
        <ele>15</ele>
        <time>2000-01-01T11:57:54.000Z</time>
      </trkpt>
      <trkpt lat="48.25657" lon="-4.55282">
        <ele>33.2</ele>
        <time>2000-01-01T11:58:04.000Z</time>
      </trkpt>
      <trkpt lat="48.25627" lon="-4.55254">
        <ele>17</ele>
        <time>2000-01-01T11:58:14.000Z</time>
      </trkpt>
      <trkpt lat="48.25611" lon="-4.55235">
        <ele>17</ele>
        <time>2000-01-01T11:58:24.000Z</time>
      </trkpt>
      <trkpt lat="48.25605" lon="-4.55225">
        <ele>30.8</ele>
        <time>2000-01-01T11:58:34.000Z</time>
      </trkpt>
      <trkpt lat="48.25603" lon="-4.55211">
        <ele>17</ele>
        <time>2000-01-01T11:58:44.000Z</time>
      </trkpt>
      <trkpt lat="48.2559" lon="-4.55187">
        <ele>17</ele>
        <time>2000-01-01T11:58:54.000Z</time>
      </trkpt>
      <trkpt lat="48.25583" lon="-4.55178">
        <ele>33.2</ele>
        <time>2000-01-01T11:59:04.000Z</time>
      </trkpt>
      <trkpt lat="48.2558" lon="-4.55163">
        <ele>27</ele>
        <time>2000-01-01T11:59:14.000Z</time>
      </trkpt>
      <trkpt lat="48.25575" lon="-4.55119">
        <ele>36</ele>
        <time>2000-01-01T11:59:24.000Z</time>
      </trkpt>
      <trkpt lat="48.2557" lon="-4.55074">
        <ele>32</ele>
        <time>2000-01-01T11:59:34.000Z</time>
      </trkpt>
      <trkpt lat="48.25565" lon="-4.55029">
        <ele>28</ele>
        <time>2000-01-01T11:59:44.000Z</time>
      </trkpt>
      <trkpt lat="48.25565" lon="-4.55003">
        <ele>33.3</ele>
        <time>2000-01-01T11:59:54.000Z</time>
      </trkpt>
      <trkpt lat="48.25548" lon="-4.54933">
        <ele>28</ele>
        <time>2000-01-01T12:00:04.000Z</time>
      </trkpt>
      <trkpt lat="48.25544" lon="-4.54925">
        <ele>23.5</ele>
        <time>2000-01-01T12:00:14.000Z</time>
      </trkpt>
      <trkpt lat="48.25543" lon="-4.54916">
        <ele>23.1</ele>
        <time>2000-01-01T12:00:24.000Z</time>
      </trkpt>
      <trkpt lat="48.25551" lon="-4.54894">
        <ele>28</ele>
        <time>2000-01-01T12:00:34.000Z</time>
      </trkpt>
      <trkpt lat="48.25554" lon="-4.54859">
        <ele>28</ele>
        <time>2000-01-01T12:00:44.000Z</time>
      </trkpt>
      <trkpt lat="48.25551" lon="-4.54842">
        <ele>28.6</ele>
        <time>2000-01-01T12:00:54.000Z</time>
      </trkpt>
      <trkpt lat="48.25542" lon="-4.54813">
        <ele>17</ele>
        <time>2000-01-01T12:01:04.000Z</time>
      </trkpt>
      <trkpt lat="48.25536" lon="-4.54779">
        <ele>16</ele>
        <time>2000-01-01T12:01:14.000Z</time>
      </trkpt>
      <trkpt lat="48.25529" lon="-4.54742">
        <ele>16</ele>
        <time>2000-01-01T12:01:24.000Z</time>
      </trkpt>
      <trkpt lat="48.25526" lon="-4.54736">
        <ele>22.7</ele>
        <time>2000-01-01T12:01:34.000Z</time>
      </trkpt>
      <trkpt lat="48.25515" lon="-4.54726">
        <ele>21.7</ele>
        <time>2000-01-01T12:01:44.000Z</time>
      </trkpt>
      <trkpt lat="48.255" lon="-4.54719">
        <ele>13</ele>
        <time>2000-01-01T12:01:54.000Z</time>
      </trkpt>
      <trkpt lat="48.25471" lon="-4.54737">
        <ele>11</ele>
        <time>2000-01-01T12:02:04.000Z</time>
      </trkpt>
      <trkpt lat="48.25463" lon="-4.54749">
        <ele>12.4</ele>
        <time>2000-01-01T12:02:14.000Z</time>
      </trkpt>
      <trkpt lat="48.25455" lon="-4.54754">
        <ele>8</ele>
        <time>2000-01-01T12:02:24.000Z</time>
      </trkpt>
      <trkpt lat="48.25427" lon="-4.54766">
        <ele>8</ele>
        <time>2000-01-01T12:02:34.000Z</time>
      </trkpt>
      <trkpt lat="48.25416" lon="-4.54763">
        <ele>8.5</ele>
        <time>2000-01-01T12:02:44.000Z</time>
      </trkpt>
      <trkpt lat="48.25369" lon="-4.54732">
        <ele>8</ele>
        <time>2000-01-01T12:02:54.000Z</time>
      </trkpt>
      <trkpt lat="48.25347" lon="-4.54716">
        <ele>8</ele>
        <time>2000-01-01T12:03:04.000Z</time>
      </trkpt>
      <trkpt lat="48.25319" lon="-4.54696">
        <ele>9</ele>
        <time>2000-01-01T12:03:14.000Z</time>
      </trkpt>
      <trkpt lat="48.25299" lon="-4.5467">
        <ele>10</ele>
        <time>2000-01-01T12:03:24.000Z</time>
      </trkpt>
      <trkpt lat="48.25271" lon="-4.54634">
        <ele>10</ele>
        <time>2000-01-01T12:03:34.000Z</time>
      </trkpt>
      <trkpt lat="48.25254" lon="-4.54622">
        <ele>12</ele>
        <time>2000-01-01T12:03:44.000Z</time>
      </trkpt>
      <trkpt lat="48.25241" lon="-4.54608">
        <ele>9.4</ele>
        <time>2000-01-01T12:03:54.000Z</time>
      </trkpt>
      <trkpt lat="48.25218" lon="-4.54593">
        <ele>12</ele>
        <time>2000-01-01T12:04:04.000Z</time>
      </trkpt>
      <trkpt lat="48.25192" lon="-4.54571">
        <ele>12</ele>
        <time>2000-01-01T12:04:14.000Z</time>
      </trkpt>
      <trkpt lat="48.25177" lon="-4.54556">
        <ele>11</ele>
        <time>2000-01-01T12:04:24.000Z</time>
      </trkpt>
      <trkpt lat="48.25137" lon="-4.54528">
        <ele>11</ele>
        <time>2000-01-01T12:04:34.000Z</time>
      </trkpt>
      <trkpt lat="48.25114" lon="-4.54515">
        <ele>11</ele>
        <time>2000-01-01T12:04:44.000Z</time>
      </trkpt>
      <trkpt lat="48.25085" lon="-4.54499">
        <ele>11</ele>
        <time>2000-01-01T12:04:54.000Z</time>
      </trkpt>
      <trkpt lat="48.25054" lon="-4.54475">
        <ele>11</ele>
        <time>2000-01-01T12:05:04.000Z</time>
      </trkpt>
      <trkpt lat="48.25037" lon="-4.54457">
        <ele>13</ele>
        <time>2000-01-01T12:05:14.000Z</time>
      </trkpt>
      <trkpt lat="48.25012" lon="-4.54436">
        <ele>14</ele>
        <time>2000-01-01T12:05:24.000Z</time>
      </trkpt>
      <trkpt lat="48.24999" lon="-4.54418">
        <ele>9.8</ele>
        <time>2000-01-01T12:05:34.000Z</time>
      </trkpt>
      <trkpt lat="48.24999" lon="-4.54397">
        <ele>14</ele>
        <time>2000-01-01T12:05:44.000Z</time>
      </trkpt>
      <trkpt lat="48.25002" lon="-4.54392">
        <ele>9.3</ele>
        <time>2000-01-01T12:05:54.000Z</time>
      </trkpt>
      <trkpt lat="48.25001" lon="-4.5438">
        <ele>8.7</ele>
        <time>2000-01-01T12:06:04.000Z</time>
      </trkpt>
      <trkpt lat="48.24996" lon="-4.5437">
        <ele>11</ele>
        <time>2000-01-01T12:06:14.000Z</time>
      </trkpt>
      <trkpt lat="48.24986" lon="-4.5436">
        <ele>7</ele>
        <time>2000-01-01T12:06:24.000Z</time>
      </trkpt>
      <trkpt lat="48.24981" lon="-4.54354">
        <ele>11</ele>
        <time>2000-01-01T12:06:34.000Z</time>
      </trkpt>
      <trkpt lat="48.24977" lon="-4.54347">
        <ele>6.8</ele>
        <time>2000-01-01T12:06:44.000Z</time>
      </trkpt>
      <trkpt lat="48.24973" lon="-4.54333">
        <ele>7</ele>
        <time>2000-01-01T12:06:54.000Z</time>
      </trkpt>
      <trkpt lat="48.24966" lon="-4.54323">
        <ele>10</ele>
        <time>2000-01-01T12:07:04.000Z</time>
      </trkpt>
      <trkpt lat="48.24961" lon="-4.54341">
        <ele>6.4</ele>
        <time>2000-01-01T12:07:14.000Z</time>
      </trkpt>
      <trkpt lat="48.24953" lon="-4.54346">
        <ele>9</ele>
        <time>2000-01-01T12:07:24.000Z</time>
      </trkpt>
      <trkpt lat="48.24944" lon="-4.54346">
        <ele>6</ele>
        <time>2000-01-01T12:07:34.000Z</time>
      </trkpt>
      <trkpt lat="48.24934" lon="-4.54336">
        <ele>9</ele>
        <time>2000-01-01T12:07:44.000Z</time>
      </trkpt>
      <trkpt lat="48.24914" lon="-4.54326">
        <ele>9</ele>
        <time>2000-01-01T12:07:54.000Z</time>
      </trkpt>
      <trkpt lat="48.24895" lon="-4.54322">
        <ele>5</ele>
        <time>2000-01-01T12:08:04.000Z</time>
      </trkpt>
      <trkpt lat="48.24878" lon="-4.54313">
        <ele>5</ele>
        <time>2000-01-01T12:08:14.000Z</time>
      </trkpt>
      <trkpt lat="48.24865" lon="-4.54307">
        <ele>5.2</ele>
        <time>2000-01-01T12:08:24.000Z</time>
      </trkpt>
      <trkpt lat="48.24809" lon="-4.54323">
        <ele>7</ele>
        <time>2000-01-01T12:08:34.000Z</time>
      </trkpt>
      <trkpt lat="48.24771" lon="-4.54329">
        <ele>7</ele>
        <time>2000-01-01T12:08:44.000Z</time>
      </trkpt>
      <trkpt lat="48.24756" lon="-4.54327">
        <ele>6.8</ele>
        <time>2000-01-01T12:08:54.000Z</time>
      </trkpt>
      <trkpt lat="48.2471" lon="-4.54291">
        <ele>7</ele>
        <time>2000-01-01T12:09:04.000Z</time>
      </trkpt>
      <trkpt lat="48.24681" lon="-4.54285">
        <ele>7</ele>
        <time>2000-01-01T12:09:14.000Z</time>
      </trkpt>
      <trkpt lat="48.24656" lon="-4.54279">
        <ele>8</ele>
        <time>2000-01-01T12:09:24.000Z</time>
      </trkpt>
      <trkpt lat="48.24625" lon="-4.54272">
        <ele>8</ele>
        <time>2000-01-01T12:09:34.000Z</time>
      </trkpt>
      <trkpt lat="48.24605" lon="-4.54277">
        <ele>8</ele>
        <time>2000-01-01T12:09:44.000Z</time>
      </trkpt>
      <trkpt lat="48.24577" lon="-4.54291">
        <ele>8</ele>
        <time>2000-01-01T12:09:54.000Z</time>
      </trkpt>
      <trkpt lat="48.24555" lon="-4.54299">
        <ele>7</ele>
        <time>2000-01-01T12:10:04.000Z</time>
      </trkpt>
      <trkpt lat="48.2453" lon="-4.543">
        <ele>6</ele>
        <time>2000-01-01T12:10:14.000Z</time>
      </trkpt>
      <trkpt lat="48.24505" lon="-4.54307">
        <ele>6</ele>
        <time>2000-01-01T12:10:24.000Z</time>
      </trkpt>
      <trkpt lat="48.24472" lon="-4.54316">
        <ele>10</ele>
        <time>2000-01-01T12:10:34.000Z</time>
      </trkpt>
      <trkpt lat="48.24445" lon="-4.54333">
        <ele>10</ele>
        <time>2000-01-01T12:10:44.000Z</time>
      </trkpt>
      <trkpt lat="48.24421" lon="-4.54338">
        <ele>10</ele>
        <time>2000-01-01T12:10:54.000Z</time>
      </trkpt>
      <trkpt lat="48.24389" lon="-4.54346">
        <ele>10</ele>
        <time>2000-01-01T12:11:04.000Z</time>
      </trkpt>
      <trkpt lat="48.24377" lon="-4.5435">
        <ele>8.3</ele>
        <time>2000-01-01T12:11:14.000Z</time>
      </trkpt>
      <trkpt lat="48.24354" lon="-4.54352">
        <ele>10</ele>
        <time>2000-01-01T12:11:24.000Z</time>
      </trkpt>
      <trkpt lat="48.24349" lon="-4.54355">
        <ele>8.4</ele>
        <time>2000-01-01T12:11:34.000Z</time>
      </trkpt>
      <trkpt lat="48.24342" lon="-4.54354">
        <ele>8.5</ele>
        <time>2000-01-01T12:11:44.000Z</time>
      </trkpt>
      <trkpt lat="48.24337" lon="-4.54351">
        <ele>8.7</ele>
        <time>2000-01-01T12:11:54.000Z</time>
      </trkpt>
      <trkpt lat="48.24293" lon="-4.54353">
        <ele>18</ele>
        <time>2000-01-01T12:12:04.000Z</time>
      </trkpt>
      <trkpt lat="48.2428" lon="-4.54356">
        <ele>10.6</ele>
        <time>2000-01-01T12:12:14.000Z</time>
      </trkpt>
      <trkpt lat="48.24266" lon="-4.5437">
        <ele>18</ele>
        <time>2000-01-01T12:12:24.000Z</time>
      </trkpt>
      <trkpt lat="48.24257" lon="-4.54377">
        <ele>7.9</ele>
        <time>2000-01-01T12:12:34.000Z</time>
      </trkpt>
      <trkpt lat="48.24241" lon="-4.54382">
        <ele>18</ele>
        <time>2000-01-01T12:12:44.000Z</time>
      </trkpt>
      <trkpt lat="48.24237" lon="-4.54366">
        <ele>8.3</ele>
        <time>2000-01-01T12:12:54.000Z</time>
      </trkpt>
      <trkpt lat="48.24218" lon="-4.54365">
        <ele>20</ele>
        <time>2000-01-01T12:13:04.000Z</time>
      </trkpt>
      <trkpt lat="48.24199" lon="-4.54357">
        <ele>17</ele>
        <time>2000-01-01T12:13:14.000Z</time>
      </trkpt>
      <trkpt lat="48.24195" lon="-4.54348">
        <ele>7</ele>
        <time>2000-01-01T12:13:24.000Z</time>
      </trkpt>
      <trkpt lat="48.24183" lon="-4.54357">
        <ele>15</ele>
        <time>2000-01-01T12:13:34.000Z</time>
      </trkpt>
      <trkpt lat="48.24168" lon="-4.54381">
        <ele>15</ele>
        <time>2000-01-01T12:13:44.000Z</time>
      </trkpt>
      <trkpt lat="48.24158" lon="-4.54402">
        <ele>7.5</ele>
        <time>2000-01-01T12:13:54.000Z</time>
      </trkpt>
      <trkpt lat="48.2415" lon="-4.54409">
        <ele>15</ele>
        <time>2000-01-01T12:14:04.000Z</time>
      </trkpt>
      <trkpt lat="48.24141" lon="-4.54412">
        <ele>7.7</ele>
        <time>2000-01-01T12:14:14.000Z</time>
      </trkpt>
      <trkpt lat="48.24127" lon="-4.5442">
        <ele>14</ele>
        <time>2000-01-01T12:14:24.000Z</time>
      </trkpt>
      <trkpt lat="48.24103" lon="-4.54451">
        <ele>17</ele>
        <time>2000-01-01T12:14:34.000Z</time>
      </trkpt>
      <trkpt lat="48.24078" lon="-4.54482">
        <ele>20</ele>
        <time>2000-01-01T12:14:44.000Z</time>
      </trkpt>
      <trkpt lat="48.24061" lon="-4.54505">
        <ele>20</ele>
        <time>2000-01-01T12:14:54.000Z</time>
      </trkpt>
      <trkpt lat="48.24042" lon="-4.54529">
        <ele>20</ele>
        <time>2000-01-01T12:15:04.000Z</time>
      </trkpt>
      <trkpt lat="48.24036" lon="-4.54544">
        <ele>5.6</ele>
        <time>2000-01-01T12:15:14.000Z</time>
      </trkpt>
      <trkpt lat="48.24035" lon="-4.54557">
        <ele>20</ele>
        <time>2000-01-01T12:15:24.000Z</time>
      </trkpt>
      <trkpt lat="48.24032" lon="-4.54565">
        <ele>5.8</ele>
        <time>2000-01-01T12:15:34.000Z</time>
      </trkpt>
      <trkpt lat="48.24029" lon="-4.5457">
        <ele>5.8</ele>
        <time>2000-01-01T12:15:44.000Z</time>
      </trkpt>
      <trkpt lat="48.24009" lon="-4.5455">
        <ele>20</ele>
        <time>2000-01-01T12:15:54.000Z</time>
      </trkpt>
      <trkpt lat="48.23991" lon="-4.5453">
        <ele>18</ele>
        <time>2000-01-01T12:16:04.000Z</time>
      </trkpt>
      <trkpt lat="48.23977" lon="-4.54518">
        <ele>12</ele>
        <time>2000-01-01T12:16:14.000Z</time>
      </trkpt>
      <trkpt lat="48.23949" lon="-4.54517">
        <ele>18</ele>
        <time>2000-01-01T12:16:24.000Z</time>
      </trkpt>
      <trkpt lat="48.23932" lon="-4.54507">
        <ele>18</ele>
        <time>2000-01-01T12:16:34.000Z</time>
      </trkpt>
      <trkpt lat="48.23921" lon="-4.54496">
        <ele>13.7</ele>
        <time>2000-01-01T12:16:44.000Z</time>
      </trkpt>
      <trkpt lat="48.23931" lon="-4.54507">
        <ele>18</ele>
        <time>2000-01-01T12:16:54.000Z</time>
      </trkpt>
      <trkpt lat="48.23947" lon="-4.54517">
        <ele>13.5</ele>
        <time>2000-01-01T12:17:04.000Z</time>
      </trkpt>
      <trkpt lat="48.23978" lon="-4.54517">
        <ele>18</ele>
        <time>2000-01-01T12:17:14.000Z</time>
      </trkpt>
      <trkpt lat="48.2399" lon="-4.54531">
        <ele>11.3</ele>
        <time>2000-01-01T12:17:24.000Z</time>
      </trkpt>
      <trkpt lat="48.24009" lon="-4.5455">
        <ele>20</ele>
        <time>2000-01-01T12:17:34.000Z</time>
      </trkpt>
      <trkpt lat="48.24019" lon="-4.5457">
        <ele>8.2</ele>
        <time>2000-01-01T12:17:44.000Z</time>
      </trkpt>
      <trkpt lat="48.24021" lon="-4.54573">
        <ele>22</ele>
        <time>2000-01-01T12:17:54.000Z</time>
      </trkpt>
      <trkpt lat="48.24012" lon="-4.54586">
        <ele>10.2</ele>
        <time>2000-01-01T12:18:04.000Z</time>
      </trkpt>
      <trkpt lat="48.24011" lon="-4.54591">
        <ele>10.7</ele>
        <time>2000-01-01T12:18:14.000Z</time>
      </trkpt>
      <trkpt lat="48.24016" lon="-4.546">
        <ele>22</ele>
        <time>2000-01-01T12:18:24.000Z</time>
      </trkpt>
      <trkpt lat="48.24018" lon="-4.54609">
        <ele>9.1</ele>
        <time>2000-01-01T12:18:34.000Z</time>
      </trkpt>
      <trkpt lat="48.24009" lon="-4.54633">
        <ele>20</ele>
        <time>2000-01-01T12:18:44.000Z</time>
      </trkpt>
      <trkpt lat="48.23998" lon="-4.5465">
        <ele>15.6</ele>
        <time>2000-01-01T12:18:54.000Z</time>
      </trkpt>
      <trkpt lat="48.23999" lon="-4.54706">
        <ele>18</ele>
        <time>2000-01-01T12:19:04.000Z</time>
      </trkpt>
      <trkpt lat="48.24007" lon="-4.54739">
        <ele>18</ele>
        <time>2000-01-01T12:19:14.000Z</time>
      </trkpt>
      <trkpt lat="48.24019" lon="-4.54778">
        <ele>18</ele>
        <time>2000-01-01T12:19:24.000Z</time>
      </trkpt>
      <trkpt lat="48.24021" lon="-4.54791">
        <ele>18.4</ele>
        <time>2000-01-01T12:19:34.000Z</time>
      </trkpt>
      <trkpt lat="48.24021" lon="-4.54807">
        <ele>18</ele>
        <time>2000-01-01T12:19:44.000Z</time>
      </trkpt>
      <trkpt lat="48.24018" lon="-4.5482">
        <ele>17</ele>
        <time>2000-01-01T12:19:54.000Z</time>
      </trkpt>
      <trkpt lat="48.23994" lon="-4.54868">
        <ele>28</ele>
        <time>2000-01-01T12:20:04.000Z</time>
      </trkpt>
      <trkpt lat="48.23983" lon="-4.54897">
        <ele>29</ele>
        <time>2000-01-01T12:20:14.000Z</time>
      </trkpt>
      <trkpt lat="48.2398" lon="-4.54895">
        <ele>21.1</ele>
        <time>2000-01-01T12:20:24.000Z</time>
      </trkpt>
      <trkpt lat="48.23976" lon="-4.54887">
        <ele>25</ele>
        <time>2000-01-01T12:20:34.000Z</time>
      </trkpt>
      <trkpt lat="48.2396" lon="-4.54877">
        <ele>33</ele>
        <time>2000-01-01T12:20:44.000Z</time>
      </trkpt>
      <trkpt lat="48.23954" lon="-4.54877">
        <ele>31.6</ele>
        <time>2000-01-01T12:20:54.000Z</time>
      </trkpt>
      <trkpt lat="48.23949" lon="-4.54884">
        <ele>33.5</ele>
        <time>2000-01-01T12:21:04.000Z</time>
      </trkpt>
      <trkpt lat="48.23943" lon="-4.54896">
        <ele>33</ele>
        <time>2000-01-01T12:21:14.000Z</time>
      </trkpt>
      <trkpt lat="48.23935" lon="-4.54928">
        <ele>36</ele>
        <time>2000-01-01T12:21:24.000Z</time>
      </trkpt>
      <trkpt lat="48.23934" lon="-4.54941">
        <ele>38.1</ele>
        <time>2000-01-01T12:21:34.000Z</time>
      </trkpt>
      <trkpt lat="48.23938" lon="-4.54991">
        <ele>35</ele>
        <time>2000-01-01T12:21:44.000Z</time>
      </trkpt>
      <trkpt lat="48.23939" lon="-4.55012">
        <ele>37.8</ele>
        <time>2000-01-01T12:21:54.000Z</time>
      </trkpt>
      <trkpt lat="48.23941" lon="-4.55038">
        <ele>34</ele>
        <time>2000-01-01T12:22:04.000Z</time>
      </trkpt>
      <trkpt lat="48.23939" lon="-4.55045">
        <ele>37.9</ele>
        <time>2000-01-01T12:22:14.000Z</time>
      </trkpt>
      <trkpt lat="48.23947" lon="-4.55057">
        <ele>34.7</ele>
        <time>2000-01-01T12:22:24.000Z</time>
      </trkpt>
      <trkpt lat="48.2395" lon="-4.55069">
        <ele>27</ele>
        <time>2000-01-01T12:22:34.000Z</time>
      </trkpt>
      <trkpt lat="48.2395" lon="-4.55083">
        <ele>34.8</ele>
        <time>2000-01-01T12:22:44.000Z</time>
      </trkpt>
      <trkpt lat="48.23951" lon="-4.551">
        <ele>27</ele>
        <time>2000-01-01T12:22:54.000Z</time>
      </trkpt>
      <trkpt lat="48.23956" lon="-4.55132">
        <ele>30</ele>
        <time>2000-01-01T12:23:04.000Z</time>
      </trkpt>
      <trkpt lat="48.23956" lon="-4.55185">
        <ele>34</ele>
        <time>2000-01-01T12:23:14.000Z</time>
      </trkpt>
      <trkpt lat="48.23953" lon="-4.55217">
        <ele>33</ele>
        <time>2000-01-01T12:23:24.000Z</time>
      </trkpt>
      <trkpt lat="48.23946" lon="-4.55255">
        <ele>35</ele>
        <time>2000-01-01T12:23:34.000Z</time>
      </trkpt>
      <trkpt lat="48.23928" lon="-4.55295">
        <ele>34</ele>
        <time>2000-01-01T12:23:44.000Z</time>
      </trkpt>
      <trkpt lat="48.23918" lon="-4.55349">
        <ele>34</ele>
        <time>2000-01-01T12:23:54.000Z</time>
      </trkpt>
      <trkpt lat="48.23908" lon="-4.55387">
        <ele>34</ele>
        <time>2000-01-01T12:24:04.000Z</time>
      </trkpt>
      <trkpt lat="48.23896" lon="-4.55417">
        <ele>35</ele>
        <time>2000-01-01T12:24:14.000Z</time>
      </trkpt>
      <trkpt lat="48.23872" lon="-4.55454">
        <ele>36</ele>
        <time>2000-01-01T12:24:24.000Z</time>
      </trkpt>
      <trkpt lat="48.23859" lon="-4.55482">
        <ele>38</ele>
        <time>2000-01-01T12:24:34.000Z</time>
      </trkpt>
      <trkpt lat="48.23846" lon="-4.55509">
        <ele>35</ele>
        <time>2000-01-01T12:24:44.000Z</time>
      </trkpt>
      <trkpt lat="48.23831" lon="-4.55537">
        <ele>39</ele>
        <time>2000-01-01T12:24:54.000Z</time>
      </trkpt>
      <trkpt lat="48.23813" lon="-4.55568">
        <ele>36</ele>
        <time>2000-01-01T12:25:04.000Z</time>
      </trkpt>
      <trkpt lat="48.23798" lon="-4.55596">
        <ele>33</ele>
        <time>2000-01-01T12:25:14.000Z</time>
      </trkpt>
      <trkpt lat="48.23792" lon="-4.556">
        <ele>45.6</ele>
        <time>2000-01-01T12:25:24.000Z</time>
      </trkpt>
      <trkpt lat="48.23788" lon="-4.55599">
        <ele>45</ele>
        <time>2000-01-01T12:25:34.000Z</time>
      </trkpt>
      <trkpt lat="48.23783" lon="-4.55602">
        <ele>43.9</ele>
        <time>2000-01-01T12:25:44.000Z</time>
      </trkpt>
      <trkpt lat="48.2378" lon="-4.55607">
        <ele>33</ele>
        <time>2000-01-01T12:25:54.000Z</time>
      </trkpt>
      <trkpt lat="48.2378" lon="-4.55612">
        <ele>42.2</ele>
        <time>2000-01-01T12:26:04.000Z</time>
      </trkpt>
      <trkpt lat="48.23775" lon="-4.55614">
        <ele>41.4</ele>
        <time>2000-01-01T12:26:14.000Z</time>
      </trkpt>
      <trkpt lat="48.23769" lon="-4.55621">
        <ele>40</ele>
        <time>2000-01-01T12:26:24.000Z</time>
      </trkpt>
      <trkpt lat="48.23748" lon="-4.55653">
        <ele>23</ele>
        <time>2000-01-01T12:26:34.000Z</time>
      </trkpt>
      <trkpt lat="48.23733" lon="-4.55682">
        <ele>22</ele>
        <time>2000-01-01T12:26:44.000Z</time>
      </trkpt>
      <trkpt lat="48.23714" lon="-4.55716">
        <ele>20</ele>
        <time>2000-01-01T12:26:54.000Z</time>
      </trkpt>
      <trkpt lat="48.23688" lon="-4.55752">
        <ele>20</ele>
        <time>2000-01-01T12:27:04.000Z</time>
      </trkpt>
      <trkpt lat="48.23684" lon="-4.55767">
        <ele>20.4</ele>
        <time>2000-01-01T12:27:14.000Z</time>
      </trkpt>
      <trkpt lat="48.23676" lon="-4.55809">
        <ele>20</ele>
        <time>2000-01-01T12:27:24.000Z</time>
      </trkpt>
      <trkpt lat="48.23663" lon="-4.55853">
        <ele>20</ele>
        <time>2000-01-01T12:27:34.000Z</time>
      </trkpt>
      <trkpt lat="48.23651" lon="-4.55883">
        <ele>21</ele>
        <time>2000-01-01T12:27:44.000Z</time>
      </trkpt>
      <trkpt lat="48.23636" lon="-4.5591">
        <ele>23</ele>
        <time>2000-01-01T12:27:54.000Z</time>
      </trkpt>
      <trkpt lat="48.23635" lon="-4.55915">
        <ele>11.6</ele>
        <time>2000-01-01T12:28:04.000Z</time>
      </trkpt>
      <trkpt lat="48.23638" lon="-4.55922">
        <ele>9.8</ele>
        <time>2000-01-01T12:28:14.000Z</time>
      </trkpt>
      <trkpt lat="48.23634" lon="-4.55926">
        <ele>9.5</ele>
        <time>2000-01-01T12:28:24.000Z</time>
      </trkpt>
      <trkpt lat="48.23627" lon="-4.55924">
        <ele>23</ele>
        <time>2000-01-01T12:28:34.000Z</time>
      </trkpt>
      <trkpt lat="48.23624" lon="-4.55926">
        <ele>11.2</ele>
        <time>2000-01-01T12:28:44.000Z</time>
      </trkpt>
      <trkpt lat="48.23621" lon="-4.55936">
        <ele>10.3</ele>
        <time>2000-01-01T12:28:54.000Z</time>
      </trkpt>
      <trkpt lat="48.236" lon="-4.55958">
        <ele>23</ele>
        <time>2000-01-01T12:29:04.000Z</time>
      </trkpt>
      <trkpt lat="48.23593" lon="-4.55977">
        <ele>12.1</ele>
        <time>2000-01-01T12:29:14.000Z</time>
      </trkpt>
      <trkpt lat="48.23583" lon="-4.56016">
        <ele>20</ele>
        <time>2000-01-01T12:29:24.000Z</time>
      </trkpt>
      <trkpt lat="48.23573" lon="-4.56036">
        <ele>15.3</ele>
        <time>2000-01-01T12:29:34.000Z</time>
      </trkpt>
      <trkpt lat="48.23566" lon="-4.56063">
        <ele>18</ele>
        <time>2000-01-01T12:29:44.000Z</time>
      </trkpt>
      <trkpt lat="48.23566" lon="-4.56097">
        <ele>19</ele>
        <time>2000-01-01T12:29:54.000Z</time>
      </trkpt>
      <trkpt lat="48.23555" lon="-4.56112">
        <ele>14.1</ele>
        <time>2000-01-01T12:30:04.000Z</time>
      </trkpt>
      <trkpt lat="48.23552" lon="-4.56131">
        <ele>20</ele>
        <time>2000-01-01T12:30:14.000Z</time>
      </trkpt>
      <trkpt lat="48.23555" lon="-4.56163">
        <ele>23</ele>
        <time>2000-01-01T12:30:24.000Z</time>
      </trkpt>
      <trkpt lat="48.23558" lon="-4.56177">
        <ele>19.3</ele>
        <time>2000-01-01T12:30:34.000Z</time>
      </trkpt>
      <trkpt lat="48.23567" lon="-4.56187">
        <ele>20</ele>
        <time>2000-01-01T12:30:44.000Z</time>
      </trkpt>
      <trkpt lat="48.23571" lon="-4.56204">
        <ele>15.4</ele>
        <time>2000-01-01T12:30:54.000Z</time>
      </trkpt>
      <trkpt lat="48.23571" lon="-4.5623">
        <ele>24</ele>
        <time>2000-01-01T12:31:04.000Z</time>
      </trkpt>
      <trkpt lat="48.23565" lon="-4.56265">
        <ele>29</ele>
        <time>2000-01-01T12:31:14.000Z</time>
      </trkpt>
      <trkpt lat="48.23559" lon="-4.56303">
        <ele>29</ele>
        <time>2000-01-01T12:31:24.000Z</time>
      </trkpt>
      <trkpt lat="48.23561" lon="-4.56339">
        <ele>27</ele>
        <time>2000-01-01T12:31:34.000Z</time>
      </trkpt>
      <trkpt lat="48.23573" lon="-4.56361">
        <ele>30</ele>
        <time>2000-01-01T12:31:44.000Z</time>
      </trkpt>
      <trkpt lat="48.23577" lon="-4.56379">
        <ele>21</ele>
        <time>2000-01-01T12:31:54.000Z</time>
      </trkpt>
      <trkpt lat="48.23568" lon="-4.56433">
        <ele>33</ele>
        <time>2000-01-01T12:32:04.000Z</time>
      </trkpt>
      <trkpt lat="48.23572" lon="-4.56448">
        <ele>26.8</ele>
        <time>2000-01-01T12:32:14.000Z</time>
      </trkpt>
      <trkpt lat="48.23594" lon="-4.56468">
        <ele>33</ele>
        <time>2000-01-01T12:32:24.000Z</time>
      </trkpt>
      <trkpt lat="48.23607" lon="-4.56475">
        <ele>25.7</ele>
        <time>2000-01-01T12:32:34.000Z</time>
      </trkpt>
      <trkpt lat="48.23611" lon="-4.56487">
        <ele>30</ele>
        <time>2000-01-01T12:32:44.000Z</time>
      </trkpt>
      <trkpt lat="48.23633" lon="-4.56517">
        <ele>29</ele>
        <time>2000-01-01T12:32:54.000Z</time>
      </trkpt>
      <trkpt lat="48.23645" lon="-4.56532">
        <ele>29.9</ele>
        <time>2000-01-01T12:33:04.000Z</time>
      </trkpt>
      <trkpt lat="48.23658" lon="-4.56545">
        <ele>29</ele>
        <time>2000-01-01T12:33:14.000Z</time>
      </trkpt>
      <trkpt lat="48.23673" lon="-4.56552">
        <ele>29.4</ele>
        <time>2000-01-01T12:33:24.000Z</time>
      </trkpt>
      <trkpt lat="48.23678" lon="-4.56561">
        <ele>29</ele>
        <time>2000-01-01T12:33:34.000Z</time>
      </trkpt>
      <trkpt lat="48.23675" lon="-4.56578">
        <ele>35.5</ele>
        <time>2000-01-01T12:33:44.000Z</time>
      </trkpt>
      <trkpt lat="48.23659" lon="-4.56582">
        <ele>28</ele>
        <time>2000-01-01T12:33:54.000Z</time>
      </trkpt>
      <trkpt lat="48.23635" lon="-4.56599">
        <ele>28</ele>
        <time>2000-01-01T12:34:04.000Z</time>
      </trkpt>
      <trkpt lat="48.23622" lon="-4.56602">
        <ele>41.7</ele>
        <time>2000-01-01T12:34:14.000Z</time>
      </trkpt>
      <trkpt lat="48.23605" lon="-4.56597">
        <ele>28</ele>
        <time>2000-01-01T12:34:24.000Z</time>
      </trkpt>
      <trkpt lat="48.23581" lon="-4.56587">
        <ele>32</ele>
        <time>2000-01-01T12:34:34.000Z</time>
      </trkpt>
      <trkpt lat="48.23549" lon="-4.56575">
        <ele>35</ele>
        <time>2000-01-01T12:34:44.000Z</time>
      </trkpt>
      <trkpt lat="48.23533" lon="-4.56578">
        <ele>34.2</ele>
        <time>2000-01-01T12:34:54.000Z</time>
      </trkpt>
      <trkpt lat="48.23525" lon="-4.56582">
        <ele>35</ele>
        <time>2000-01-01T12:35:04.000Z</time>
      </trkpt>
      <trkpt lat="48.23508" lon="-4.56595">
        <ele>35</ele>
        <time>2000-01-01T12:35:14.000Z</time>
      </trkpt>
      <trkpt lat="48.23489" lon="-4.56607">
        <ele>37</ele>
        <time>2000-01-01T12:35:24.000Z</time>
      </trkpt>
      <trkpt lat="48.23487" lon="-4.5663">
        <ele>37.5</ele>
        <time>2000-01-01T12:35:34.000Z</time>
      </trkpt>
      <trkpt lat="48.23483" lon="-4.56653">
        <ele>39</ele>
        <time>2000-01-01T12:35:44.000Z</time>
      </trkpt>
      <trkpt lat="48.23473" lon="-4.56697">
        <ele>39</ele>
        <time>2000-01-01T12:35:54.000Z</time>
      </trkpt>
      <trkpt lat="48.23471" lon="-4.56735">
        <ele>41</ele>
        <time>2000-01-01T12:36:04.000Z</time>
      </trkpt>
      <trkpt lat="48.23471" lon="-4.56773">
        <ele>42</ele>
        <time>2000-01-01T12:36:14.000Z</time>
      </trkpt>
      <trkpt lat="48.23464" lon="-4.56808">
        <ele>42</ele>
        <time>2000-01-01T12:36:24.000Z</time>
      </trkpt>
      <trkpt lat="48.23455" lon="-4.56849">
        <ele>43</ele>
        <time>2000-01-01T12:36:34.000Z</time>
      </trkpt>
      <trkpt lat="48.23456" lon="-4.56868">
        <ele>43.4</ele>
        <time>2000-01-01T12:36:44.000Z</time>
      </trkpt>
      <trkpt lat="48.23479" lon="-4.56941">
        <ele>44</ele>
        <time>2000-01-01T12:36:54.000Z</time>
      </trkpt>
      <trkpt lat="48.23482" lon="-4.56971">
        <ele>44</ele>
        <time>2000-01-01T12:37:04.000Z</time>
      </trkpt>
      <trkpt lat="48.23482" lon="-4.5699">
        <ele>44.5</ele>
        <time>2000-01-01T12:37:14.000Z</time>
      </trkpt>
      <trkpt lat="48.23475" lon="-4.56998">
        <ele>40</ele>
        <time>2000-01-01T12:37:24.000Z</time>
      </trkpt>
      <trkpt lat="48.23464" lon="-4.57">
        <ele>48.6</ele>
        <time>2000-01-01T12:37:34.000Z</time>
      </trkpt>
      <trkpt lat="48.23445" lon="-4.56997">
        <ele>34</ele>
        <time>2000-01-01T12:37:44.000Z</time>
      </trkpt>
      <trkpt lat="48.2342" lon="-4.57002">
        <ele>34</ele>
        <time>2000-01-01T12:37:54.000Z</time>
      </trkpt>
      <trkpt lat="48.23389" lon="-4.57009">
        <ele>32</ele>
        <time>2000-01-01T12:38:04.000Z</time>
      </trkpt>
      <trkpt lat="48.23376" lon="-4.5702">
        <ele>52.3</ele>
        <time>2000-01-01T12:38:14.000Z</time>
      </trkpt>
      <trkpt lat="48.23371" lon="-4.5702">
        <ele>34</ele>
        <time>2000-01-01T12:38:24.000Z</time>
      </trkpt>
      <trkpt lat="48.23362" lon="-4.57013">
        <ele>56.1</ele>
        <time>2000-01-01T12:38:34.000Z</time>
      </trkpt>
      <trkpt lat="48.23357" lon="-4.57021">
        <ele>55.2</ele>
        <time>2000-01-01T12:38:44.000Z</time>
      </trkpt>
      <trkpt lat="48.23349" lon="-4.57024">
        <ele>36</ele>
        <time>2000-01-01T12:38:54.000Z</time>
      </trkpt>
      <trkpt lat="48.23341" lon="-4.57024">
        <ele>57.9</ele>
        <time>2000-01-01T12:39:04.000Z</time>
      </trkpt>
      <trkpt lat="48.23331" lon="-4.57019">
        <ele>36</ele>
        <time>2000-01-01T12:39:14.000Z</time>
      </trkpt>
      <trkpt lat="48.23316" lon="-4.57016">
        <ele>59.9</ele>
        <time>2000-01-01T12:39:24.000Z</time>
      </trkpt>
      <trkpt lat="48.23302" lon="-4.57016">
        <ele>43</ele>
        <time>2000-01-01T12:39:34.000Z</time>
      </trkpt>
      <trkpt lat="48.23291" lon="-4.57021">
        <ele>60.3</ele>
        <time>2000-01-01T12:39:44.000Z</time>
      </trkpt>
      <trkpt lat="48.23285" lon="-4.57021">
        <ele>60.8</ele>
        <time>2000-01-01T12:39:54.000Z</time>
      </trkpt>
      <trkpt lat="48.2327" lon="-4.57032">
        <ele>44</ele>
        <time>2000-01-01T12:40:04.000Z</time>
      </trkpt>
      <trkpt lat="48.23265" lon="-4.57033">
        <ele>59.9</ele>
        <time>2000-01-01T12:40:14.000Z</time>
      </trkpt>
      <trkpt lat="48.2326" lon="-4.57032">
        <ele>60.3</ele>
        <time>2000-01-01T12:40:24.000Z</time>
      </trkpt>
      <trkpt lat="48.23255" lon="-4.57019">
        <ele>44</ele>
        <time>2000-01-01T12:40:34.000Z</time>
      </trkpt>
      <trkpt lat="48.23251" lon="-4.56985">
        <ele>52</ele>
        <time>2000-01-01T12:40:44.000Z</time>
      </trkpt>
      <trkpt lat="48.23247" lon="-4.56948">
        <ele>57</ele>
        <time>2000-01-01T12:40:54.000Z</time>
      </trkpt>
      <trkpt lat="48.23251" lon="-4.56884">
        <ele>56</ele>
        <time>2000-01-01T12:41:04.000Z</time>
      </trkpt>
      <trkpt lat="48.23273" lon="-4.56854">
        <ele>56</ele>
        <time>2000-01-01T12:41:14.000Z</time>
      </trkpt>
      <trkpt lat="48.23287" lon="-4.56819">
        <ele>55</ele>
        <time>2000-01-01T12:41:24.000Z</time>
      </trkpt>
      <trkpt lat="48.23291" lon="-4.56784">
        <ele>54</ele>
        <time>2000-01-01T12:41:34.000Z</time>
      </trkpt>
      <trkpt lat="48.23295" lon="-4.56746">
        <ele>53</ele>
        <time>2000-01-01T12:41:44.000Z</time>
      </trkpt>
      <trkpt lat="48.23302" lon="-4.56695">
        <ele>46</ele>
        <time>2000-01-01T12:41:54.000Z</time>
      </trkpt>
      <trkpt lat="48.23299" lon="-4.56679">
        <ele>47.9</ele>
        <time>2000-01-01T12:42:04.000Z</time>
      </trkpt>
      <trkpt lat="48.23297" lon="-4.56663">
        <ele>44</ele>
        <time>2000-01-01T12:42:14.000Z</time>
      </trkpt>
      <trkpt lat="48.23305" lon="-4.56646">
        <ele>48.2</ele>
        <time>2000-01-01T12:42:24.000Z</time>
      </trkpt>
      <trkpt lat="48.23314" lon="-4.56632">
        <ele>46</ele>
        <time>2000-01-01T12:42:34.000Z</time>
      </trkpt>
      <trkpt lat="48.2332" lon="-4.56598">
        <ele>48</ele>
        <time>2000-01-01T12:42:44.000Z</time>
      </trkpt>
      <trkpt lat="48.23326" lon="-4.56556">
        <ele>48</ele>
        <time>2000-01-01T12:42:54.000Z</time>
      </trkpt>
      <trkpt lat="48.2334" lon="-4.56517">
        <ele>48</ele>
        <time>2000-01-01T12:43:04.000Z</time>
      </trkpt>
      <trkpt lat="48.2335" lon="-4.56508">
        <ele>43.7</ele>
        <time>2000-01-01T12:43:14.000Z</time>
      </trkpt>
      <trkpt lat="48.23353" lon="-4.565">
        <ele>43.5</ele>
        <time>2000-01-01T12:43:24.000Z</time>
      </trkpt>
      <trkpt lat="48.23351" lon="-4.56459">
        <ele>45</ele>
        <time>2000-01-01T12:43:34.000Z</time>
      </trkpt>
      <trkpt lat="48.23353" lon="-4.56422">
        <ele>40</ele>
        <time>2000-01-01T12:43:44.000Z</time>
      </trkpt>
      <trkpt lat="48.2334" lon="-4.56373">
        <ele>32</ele>
        <time>2000-01-01T12:43:54.000Z</time>
      </trkpt>
      <trkpt lat="48.23322" lon="-4.56341">
        <ele>30</ele>
        <time>2000-01-01T12:44:04.000Z</time>
      </trkpt>
      <trkpt lat="48.23306" lon="-4.56328">
        <ele>31</ele>
        <time>2000-01-01T12:44:14.000Z</time>
      </trkpt>
      <trkpt lat="48.23285" lon="-4.56326">
        <ele>28</ele>
        <time>2000-01-01T12:44:24.000Z</time>
      </trkpt>
      <trkpt lat="48.23261" lon="-4.56319">
        <ele>25</ele>
        <time>2000-01-01T12:44:34.000Z</time>
      </trkpt>
      <trkpt lat="48.23227" lon="-4.56298">
        <ele>25</ele>
        <time>2000-01-01T12:44:44.000Z</time>
      </trkpt>
      <trkpt lat="48.23211" lon="-4.56279">
        <ele>22</ele>
        <time>2000-01-01T12:44:54.000Z</time>
      </trkpt>
      <trkpt lat="48.23189" lon="-4.56277">
        <ele>19</ele>
        <time>2000-01-01T12:45:04.000Z</time>
      </trkpt>
      <trkpt lat="48.2317" lon="-4.5628">
        <ele>19</ele>
        <time>2000-01-01T12:45:14.000Z</time>
      </trkpt>
      <trkpt lat="48.23152" lon="-4.56275">
        <ele>17</ele>
        <time>2000-01-01T12:45:24.000Z</time>
      </trkpt>
      <trkpt lat="48.23137" lon="-4.56247">
        <ele>18</ele>
        <time>2000-01-01T12:45:34.000Z</time>
      </trkpt>
      <trkpt lat="48.23124" lon="-4.56243">
        <ele>23.1</ele>
        <time>2000-01-01T12:45:44.000Z</time>
      </trkpt>
      <trkpt lat="48.23108" lon="-4.56229">
        <ele>20</ele>
        <time>2000-01-01T12:45:54.000Z</time>
      </trkpt>
      <trkpt lat="48.23083" lon="-4.56203">
        <ele>20</ele>
        <time>2000-01-01T12:46:04.000Z</time>
      </trkpt>
      <trkpt lat="48.23076" lon="-4.56185">
        <ele>31</ele>
        <time>2000-01-01T12:46:14.000Z</time>
      </trkpt>
      <trkpt lat="48.23071" lon="-4.5618">
        <ele>23</ele>
        <time>2000-01-01T12:46:24.000Z</time>
      </trkpt>
      <trkpt lat="48.23065" lon="-4.56149">
        <ele>27</ele>
        <time>2000-01-01T12:46:34.000Z</time>
      </trkpt>
      <trkpt lat="48.23066" lon="-4.56133">
        <ele>34.4</ele>
        <time>2000-01-01T12:46:44.000Z</time>
      </trkpt>
      <trkpt lat="48.23073" lon="-4.56114">
        <ele>33</ele>
        <time>2000-01-01T12:46:54.000Z</time>
      </trkpt>
      <trkpt lat="48.23074" lon="-4.56083">
        <ele>34</ele>
        <time>2000-01-01T12:47:04.000Z</time>
      </trkpt>
      <trkpt lat="48.23066" lon="-4.56074">
        <ele>40.6</ele>
        <time>2000-01-01T12:47:14.000Z</time>
      </trkpt>
      <trkpt lat="48.23029" lon="-4.56052">
        <ele>32</ele>
        <time>2000-01-01T12:47:24.000Z</time>
      </trkpt>
      <trkpt lat="48.23005" lon="-4.56045">
        <ele>34</ele>
        <time>2000-01-01T12:47:34.000Z</time>
      </trkpt>
      <trkpt lat="48.22991" lon="-4.56051">
        <ele>47.8</ele>
        <time>2000-01-01T12:47:44.000Z</time>
      </trkpt>
      <trkpt lat="48.22985" lon="-4.56048">
        <ele>36</ele>
        <time>2000-01-01T12:47:54.000Z</time>
      </trkpt>
      <trkpt lat="48.22978" lon="-4.56043">
        <ele>48.5</ele>
        <time>2000-01-01T12:48:04.000Z</time>
      </trkpt>
      <trkpt lat="48.22973" lon="-4.56032">
        <ele>48.9</ele>
        <time>2000-01-01T12:48:14.000Z</time>
      </trkpt>
      <trkpt lat="48.22962" lon="-4.56014">
        <ele>39</ele>
        <time>2000-01-01T12:48:24.000Z</time>
      </trkpt>
      <trkpt lat="48.22953" lon="-4.56011">
        <ele>49.4</ele>
        <time>2000-01-01T12:48:34.000Z</time>
      </trkpt>
      <trkpt lat="48.22935" lon="-4.55983">
        <ele>51</ele>
        <time>2000-01-01T12:48:44.000Z</time>
      </trkpt>
      <trkpt lat="48.22934" lon="-4.55974">
        <ele>54</ele>
        <time>2000-01-01T12:48:54.000Z</time>
      </trkpt>
      <trkpt lat="48.22922" lon="-4.55963">
        <ele>54</ele>
        <time>2000-01-01T12:49:04.000Z</time>
      </trkpt>
      <trkpt lat="48.22893" lon="-4.55931">
        <ele>55</ele>
        <time>2000-01-01T12:49:14.000Z</time>
      </trkpt>
      <trkpt lat="48.22889" lon="-4.55929">
        <ele>58</ele>
        <time>2000-01-01T12:49:24.000Z</time>
      </trkpt>
      <trkpt lat="48.22864" lon="-4.55922">
        <ele>57</ele>
        <time>2000-01-01T12:49:34.000Z</time>
      </trkpt>
      <trkpt lat="48.22849" lon="-4.5592">
        <ele>59</ele>
        <time>2000-01-01T12:49:44.000Z</time>
      </trkpt>
      <trkpt lat="48.22833" lon="-4.55926">
        <ele>56</ele>
        <time>2000-01-01T12:49:54.000Z</time>
      </trkpt>
      <trkpt lat="48.22802" lon="-4.55929">
        <ele>55</ele>
        <time>2000-01-01T12:50:04.000Z</time>
      </trkpt>
      <trkpt lat="48.2278" lon="-4.55938">
        <ele>55</ele>
        <time>2000-01-01T12:50:14.000Z</time>
      </trkpt>
      <trkpt lat="48.22764" lon="-4.55948">
        <ele>58.5</ele>
        <time>2000-01-01T12:50:24.000Z</time>
      </trkpt>
      <trkpt lat="48.22748" lon="-4.55955">
        <ele>55</ele>
        <time>2000-01-01T12:50:34.000Z</time>
      </trkpt>
      <trkpt lat="48.22723" lon="-4.55958">
        <ele>51</ele>
        <time>2000-01-01T12:50:44.000Z</time>
      </trkpt>
      <trkpt lat="48.22696" lon="-4.55958">
        <ele>47</ele>
        <time>2000-01-01T12:50:54.000Z</time>
      </trkpt>
      <trkpt lat="48.22666" lon="-4.55956">
        <ele>45</ele>
        <time>2000-01-01T12:51:04.000Z</time>
      </trkpt>
      <trkpt lat="48.22634" lon="-4.5595">
        <ele>41</ele>
        <time>2000-01-01T12:51:14.000Z</time>
      </trkpt>
      <trkpt lat="48.22621" lon="-4.5594">
        <ele>45</ele>
        <time>2000-01-01T12:51:24.000Z</time>
      </trkpt>
      <trkpt lat="48.22592" lon="-4.5592">
        <ele>25</ele>
        <time>2000-01-01T12:51:34.000Z</time>
      </trkpt>
      <trkpt lat="48.22581" lon="-4.55905">
        <ele>34.5</ele>
        <time>2000-01-01T12:51:44.000Z</time>
      </trkpt>
      <trkpt lat="48.22564" lon="-4.55888">
        <ele>15</ele>
        <time>2000-01-01T12:51:54.000Z</time>
      </trkpt>
      <trkpt lat="48.22547" lon="-4.55864">
        <ele>14</ele>
        <time>2000-01-01T12:52:04.000Z</time>
      </trkpt>
      <trkpt lat="48.22528" lon="-4.55838">
        <ele>14</ele>
        <time>2000-01-01T12:52:14.000Z</time>
      </trkpt>
      <trkpt lat="48.22523" lon="-4.55839">
        <ele>13.1</ele>
        <time>2000-01-01T12:52:24.000Z</time>
      </trkpt>
      <trkpt lat="48.22508" lon="-4.55853">
        <ele>12</ele>
        <time>2000-01-01T12:52:34.000Z</time>
      </trkpt>
      <trkpt lat="48.22503" lon="-4.55847">
        <ele>8.3</ele>
        <time>2000-01-01T12:52:44.000Z</time>
      </trkpt>
      <trkpt lat="48.22496" lon="-4.55847">
        <ele>7.9</ele>
        <time>2000-01-01T12:52:54.000Z</time>
      </trkpt>
      <trkpt lat="48.22495" lon="-4.55837">
        <ele>13</ele>
        <time>2000-01-01T12:53:04.000Z</time>
      </trkpt>
      <trkpt lat="48.22497" lon="-4.55824">
        <ele>10.3</ele>
        <time>2000-01-01T12:53:14.000Z</time>
      </trkpt>
      <trkpt lat="48.22507" lon="-4.55797">
        <ele>14</ele>
        <time>2000-01-01T12:53:24.000Z</time>
      </trkpt>
      <trkpt lat="48.22504" lon="-4.5579">
        <ele>13.4</ele>
        <time>2000-01-01T12:53:34.000Z</time>
      </trkpt>
      <trkpt lat="48.22492" lon="-4.55798">
        <ele>14</ele>
        <time>2000-01-01T12:53:44.000Z</time>
      </trkpt>
      <trkpt lat="48.22459" lon="-4.55829">
        <ele>15</ele>
        <time>2000-01-01T12:53:54.000Z</time>
      </trkpt>
      <trkpt lat="48.22454" lon="-4.55825">
        <ele>16.8</ele>
        <time>2000-01-01T12:54:04.000Z</time>
      </trkpt>
      <trkpt lat="48.2247" lon="-4.5575">
        <ele>28</ele>
        <time>2000-01-01T12:54:14.000Z</time>
      </trkpt>
      <trkpt lat="48.22461" lon="-4.55754">
        <ele>26.1</ele>
        <time>2000-01-01T12:54:24.000Z</time>
      </trkpt>
      <trkpt lat="48.22423" lon="-4.55757">
        <ele>27</ele>
        <time>2000-01-01T12:54:34.000Z</time>
      </trkpt>
      <trkpt lat="48.22408" lon="-4.55788">
        <ele>26</ele>
        <time>2000-01-01T12:54:44.000Z</time>
      </trkpt>
      <trkpt lat="48.22391" lon="-4.55816">
        <ele>27</ele>
        <time>2000-01-01T12:54:54.000Z</time>
      </trkpt>
      <trkpt lat="48.2238" lon="-4.55827">
        <ele>40.6</ele>
        <time>2000-01-01T12:55:04.000Z</time>
      </trkpt>
      <trkpt lat="48.22367" lon="-4.55836">
        <ele>28</ele>
        <time>2000-01-01T12:55:14.000Z</time>
      </trkpt>
      <trkpt lat="48.22362" lon="-4.55844">
        <ele>33.9</ele>
        <time>2000-01-01T12:55:24.000Z</time>
      </trkpt>
      <trkpt lat="48.22354" lon="-4.55851">
        <ele>31.9</ele>
        <time>2000-01-01T12:55:34.000Z</time>
      </trkpt>
      <trkpt lat="48.22335" lon="-4.55865">
        <ele>35</ele>
        <time>2000-01-01T12:55:44.000Z</time>
      </trkpt>
      <trkpt lat="48.22304" lon="-4.5587">
        <ele>32</ele>
        <time>2000-01-01T12:55:54.000Z</time>
      </trkpt>
      <trkpt lat="48.22295" lon="-4.55855">
        <ele>40.4</ele>
        <time>2000-01-01T12:56:04.000Z</time>
      </trkpt>
      <trkpt lat="48.2229" lon="-4.55852">
        <ele>32</ele>
        <time>2000-01-01T12:56:14.000Z</time>
      </trkpt>
      <trkpt lat="48.22284" lon="-4.5584">
        <ele>40.5</ele>
        <time>2000-01-01T12:56:24.000Z</time>
      </trkpt>
      <trkpt lat="48.22267" lon="-4.5578">
        <ele>33</ele>
        <time>2000-01-01T12:56:34.000Z</time>
      </trkpt>
      <trkpt lat="48.22247" lon="-4.5575">
        <ele>36</ele>
        <time>2000-01-01T12:56:44.000Z</time>
      </trkpt>
      <trkpt lat="48.22237" lon="-4.55723">
        <ele>36</ele>
        <time>2000-01-01T12:56:54.000Z</time>
      </trkpt>
      <trkpt lat="48.22231" lon="-4.55724">
        <ele>42.4</ele>
        <time>2000-01-01T12:57:04.000Z</time>
      </trkpt>
      <trkpt lat="48.22223" lon="-4.55712">
        <ele>43.5</ele>
        <time>2000-01-01T12:57:14.000Z</time>
      </trkpt>
      <trkpt lat="48.22202" lon="-4.55697">
        <ele>41</ele>
        <time>2000-01-01T12:57:24.000Z</time>
      </trkpt>
      <trkpt lat="48.22163" lon="-4.5572">
        <ele>40</ele>
        <time>2000-01-01T12:57:34.000Z</time>
      </trkpt>
      <trkpt lat="48.22141" lon="-4.55747">
        <ele>45</ele>
        <time>2000-01-01T12:57:44.000Z</time>
      </trkpt>
      <trkpt lat="48.22114" lon="-4.55765">
        <ele>51</ele>
        <time>2000-01-01T12:57:54.000Z</time>
      </trkpt>
      <trkpt lat="48.22099" lon="-4.55783">
        <ele>51</ele>
        <time>2000-01-01T12:58:04.000Z</time>
      </trkpt>
      <trkpt lat="48.22088" lon="-4.55803">
        <ele>58.5</ele>
        <time>2000-01-01T12:58:14.000Z</time>
      </trkpt>
      <trkpt lat="48.22085" lon="-4.55836">
        <ele>48</ele>
        <time>2000-01-01T12:58:24.000Z</time>
      </trkpt>
      <trkpt lat="48.22087" lon="-4.55845">
        <ele>54.5</ele>
        <time>2000-01-01T12:58:34.000Z</time>
      </trkpt>
      <trkpt lat="48.22081" lon="-4.55851">
        <ele>55.7</ele>
        <time>2000-01-01T12:58:44.000Z</time>
      </trkpt>
      <trkpt lat="48.22066" lon="-4.55851">
        <ele>45</ele>
        <time>2000-01-01T12:58:54.000Z</time>
      </trkpt>
      <trkpt lat="48.22056" lon="-4.55855">
        <ele>57.8</ele>
        <time>2000-01-01T12:59:04.000Z</time>
      </trkpt>
      <trkpt lat="48.22048" lon="-4.55853">
        <ele>44</ele>
        <time>2000-01-01T12:59:14.000Z</time>
      </trkpt>
      <trkpt lat="48.22039" lon="-4.55858">
        <ele>57.5</ele>
        <time>2000-01-01T12:59:24.000Z</time>
      </trkpt>
      <trkpt lat="48.22029" lon="-4.55854">
        <ele>44</ele>
        <time>2000-01-01T12:59:34.000Z</time>
      </trkpt>
      <trkpt lat="48.22019" lon="-4.55856">
        <ele>59.3</ele>
        <time>2000-01-01T12:59:44.000Z</time>
      </trkpt>
      <trkpt lat="48.2199" lon="-4.55874">
        <ele>42</ele>
        <time>2000-01-01T12:59:54.000Z</time>
      </trkpt>
      <trkpt lat="48.21978" lon="-4.55864">
        <ele>61.4</ele>
        <time>2000-01-01T13:00:04.000Z</time>
      </trkpt>
      <trkpt lat="48.21964" lon="-4.55863">
        <ele>41</ele>
        <time>2000-01-01T13:00:14.000Z</time>
      </trkpt>
      <trkpt lat="48.21945" lon="-4.55852">
        <ele>34</ele>
        <time>2000-01-01T13:00:24.000Z</time>
      </trkpt>
      <trkpt lat="48.21931" lon="-4.5585">
        <ele>57.6</ele>
        <time>2000-01-01T13:00:34.000Z</time>
      </trkpt>
      <trkpt lat="48.21922" lon="-4.55844">
        <ele>30</ele>
        <time>2000-01-01T13:00:44.000Z</time>
      </trkpt>
      <trkpt lat="48.21913" lon="-4.55842">
        <ele>56.7</ele>
        <time>2000-01-01T13:00:54.000Z</time>
      </trkpt>
      <trkpt lat="48.21896" lon="-4.55846">
        <ele>30</ele>
        <time>2000-01-01T13:01:04.000Z</time>
      </trkpt>
      <trkpt lat="48.2188" lon="-4.5584">
        <ele>54.7</ele>
        <time>2000-01-01T13:01:14.000Z</time>
      </trkpt>
      <trkpt lat="48.21868" lon="-4.55827">
        <ele>30</ele>
        <time>2000-01-01T13:01:24.000Z</time>
      </trkpt>
      <trkpt lat="48.21856" lon="-4.55827">
        <ele>55.5</ele>
        <time>2000-01-01T13:01:34.000Z</time>
      </trkpt>
      <trkpt lat="48.21842" lon="-4.55823">
        <ele>31</ele>
        <time>2000-01-01T13:01:44.000Z</time>
      </trkpt>
      <trkpt lat="48.21829" lon="-4.55824">
        <ele>54.1</ele>
        <time>2000-01-01T13:01:54.000Z</time>
      </trkpt>
      <trkpt lat="48.21815" lon="-4.55819">
        <ele>38</ele>
        <time>2000-01-01T13:02:04.000Z</time>
      </trkpt>
      <trkpt lat="48.21803" lon="-4.55813">
        <ele>54.1</ele>
        <time>2000-01-01T13:02:14.000Z</time>
      </trkpt>
      <trkpt lat="48.21786" lon="-4.55803">
        <ele>34</ele>
        <time>2000-01-01T13:02:24.000Z</time>
      </trkpt>
      <trkpt lat="48.21778" lon="-4.55801">
        <ele>56</ele>
        <time>2000-01-01T13:02:34.000Z</time>
      </trkpt>
      <trkpt lat="48.21773" lon="-4.55792">
        <ele>57</ele>
        <time>2000-01-01T13:02:44.000Z</time>
      </trkpt>
      <trkpt lat="48.21755" lon="-4.5578">
        <ele>35</ele>
        <time>2000-01-01T13:02:54.000Z</time>
      </trkpt>
      <trkpt lat="48.21747" lon="-4.55761">
        <ele>55.3</ele>
        <time>2000-01-01T13:03:04.000Z</time>
      </trkpt>
      <trkpt lat="48.21741" lon="-4.55737">
        <ele>34</ele>
        <time>2000-01-01T13:03:14.000Z</time>
      </trkpt>
      <trkpt lat="48.21739" lon="-4.55725">
        <ele>54.6</ele>
        <time>2000-01-01T13:03:24.000Z</time>
      </trkpt>
      <trkpt lat="48.21736" lon="-4.55712">
        <ele>54.2</ele>
        <time>2000-01-01T13:03:34.000Z</time>
      </trkpt>
      <trkpt lat="48.21733" lon="-4.55689">
        <ele>34</ele>
        <time>2000-01-01T13:03:44.000Z</time>
      </trkpt>
      <trkpt lat="48.21729" lon="-4.55668">
        <ele>55.8</ele>
        <time>2000-01-01T13:03:54.000Z</time>
      </trkpt>
      <trkpt lat="48.21702" lon="-4.55601">
        <ele>32</ele>
        <time>2000-01-01T13:04:04.000Z</time>
      </trkpt>
      <trkpt lat="48.21668" lon="-4.55562">
        <ele>38</ele>
        <time>2000-01-01T13:04:14.000Z</time>
      </trkpt>
      <trkpt lat="48.21661" lon="-4.55559">
        <ele>55.4</ele>
        <time>2000-01-01T13:04:24.000Z</time>
      </trkpt>
      <trkpt lat="48.2161" lon="-4.5557">
        <ele>44</ele>
        <time>2000-01-01T13:04:34.000Z</time>
      </trkpt>
      <trkpt lat="48.21601" lon="-4.55575">
        <ele>54.4</ele>
        <time>2000-01-01T13:04:44.000Z</time>
      </trkpt>
      <trkpt lat="48.21591" lon="-4.55583">
        <ele>44</ele>
        <time>2000-01-01T13:04:54.000Z</time>
      </trkpt>
      <trkpt lat="48.21568" lon="-4.55617">
        <ele>44</ele>
        <time>2000-01-01T13:05:04.000Z</time>
      </trkpt>
      <trkpt lat="48.21534" lon="-4.55644">
        <ele>44</ele>
        <time>2000-01-01T13:05:14.000Z</time>
      </trkpt>
      <trkpt lat="48.21515" lon="-4.55637">
        <ele>41</ele>
        <time>2000-01-01T13:05:24.000Z</time>
      </trkpt>
      <trkpt lat="48.21503" lon="-4.5564">
        <ele>50.3</ele>
        <time>2000-01-01T13:05:34.000Z</time>
      </trkpt>
      <trkpt lat="48.21489" lon="-4.55647">
        <ele>35</ele>
        <time>2000-01-01T13:05:44.000Z</time>
      </trkpt>
      <trkpt lat="48.21474" lon="-4.55641">
        <ele>45.1</ele>
        <time>2000-01-01T13:05:54.000Z</time>
      </trkpt>
      <trkpt lat="48.21445" lon="-4.55616">
        <ele>34</ele>
        <time>2000-01-01T13:06:04.000Z</time>
      </trkpt>
      <trkpt lat="48.21427" lon="-4.55608">
        <ele>32</ele>
        <time>2000-01-01T13:06:14.000Z</time>
      </trkpt>
      <trkpt lat="48.21409" lon="-4.55604">
        <ele>30</ele>
        <time>2000-01-01T13:06:24.000Z</time>
      </trkpt>
      <trkpt lat="48.21393" lon="-4.55603">
        <ele>28.4</ele>
        <time>2000-01-01T13:06:34.000Z</time>
      </trkpt>
      <trkpt lat="48.21385" lon="-4.55588">
        <ele>30</ele>
        <time>2000-01-01T13:06:44.000Z</time>
      </trkpt>
      <trkpt lat="48.21374" lon="-4.55574">
        <ele>29.6</ele>
        <time>2000-01-01T13:06:54.000Z</time>
      </trkpt>
      <trkpt lat="48.21355" lon="-4.55534">
        <ele>22</ele>
        <time>2000-01-01T13:07:04.000Z</time>
      </trkpt>
      <trkpt lat="48.21336" lon="-4.55493">
        <ele>17</ele>
        <time>2000-01-01T13:07:14.000Z</time>
      </trkpt>
      <trkpt lat="48.21313" lon="-4.5544">
        <ele>12</ele>
        <time>2000-01-01T13:07:24.000Z</time>
      </trkpt>
      <trkpt lat="48.21306" lon="-4.55408">
        <ele>12</ele>
        <time>2000-01-01T13:07:34.000Z</time>
      </trkpt>
      <trkpt lat="48.21286" lon="-4.5538">
        <ele>13</ele>
        <time>2000-01-01T13:07:44.000Z</time>
      </trkpt>
      <trkpt lat="48.21277" lon="-4.55355">
        <ele>11</ele>
        <time>2000-01-01T13:07:54.000Z</time>
      </trkpt>
      <trkpt lat="48.21266" lon="-4.55333">
        <ele>10</ele>
        <time>2000-01-01T13:08:04.000Z</time>
      </trkpt>
      <trkpt lat="48.21262" lon="-4.55328">
        <ele>16.6</ele>
        <time>2000-01-01T13:08:14.000Z</time>
      </trkpt>
      <trkpt lat="48.21248" lon="-4.55296">
        <ele>10</ele>
        <time>2000-01-01T13:08:24.000Z</time>
      </trkpt>
      <trkpt lat="48.21241" lon="-4.55289">
        <ele>14.5</ele>
        <time>2000-01-01T13:08:34.000Z</time>
      </trkpt>
      <trkpt lat="48.21233" lon="-4.55286">
        <ele>14.2</ele>
        <time>2000-01-01T13:08:44.000Z</time>
      </trkpt>
      <trkpt lat="48.21223" lon="-4.55276">
        <ele>9</ele>
        <time>2000-01-01T13:08:54.000Z</time>
      </trkpt>
      <trkpt lat="48.21211" lon="-4.55269">
        <ele>12.8</ele>
        <time>2000-01-01T13:09:04.000Z</time>
      </trkpt>
      <trkpt lat="48.21201" lon="-4.55262">
        <ele>9</ele>
        <time>2000-01-01T13:09:14.000Z</time>
      </trkpt>
      <trkpt lat="48.21176" lon="-4.55254">
        <ele>11</ele>
        <time>2000-01-01T13:09:24.000Z</time>
      </trkpt>
      <trkpt lat="48.21171" lon="-4.55249">
        <ele>9.3</ele>
        <time>2000-01-01T13:09:34.000Z</time>
      </trkpt>
      <trkpt lat="48.21158" lon="-4.55231">
        <ele>11</ele>
        <time>2000-01-01T13:09:44.000Z</time>
      </trkpt>
      <trkpt lat="48.21156" lon="-4.5523">
        <ele>7.5</ele>
        <time>2000-01-01T13:09:54.000Z</time>
      </trkpt>
      <trkpt lat="48.21149" lon="-4.55223">
        <ele>6.8</ele>
        <time>2000-01-01T13:10:04.000Z</time>
      </trkpt>
      <trkpt lat="48.21137" lon="-4.55221">
        <ele>12</ele>
        <time>2000-01-01T13:10:14.000Z</time>
      </trkpt>
      <trkpt lat="48.21129" lon="-4.55213">
        <ele>7.2</ele>
        <time>2000-01-01T13:10:24.000Z</time>
      </trkpt>
      <trkpt lat="48.21126" lon="-4.55206">
        <ele>7.4</ele>
        <time>2000-01-01T13:10:34.000Z</time>
      </trkpt>
      <trkpt lat="48.21122" lon="-4.55205">
        <ele>12</ele>
        <time>2000-01-01T13:10:44.000Z</time>
      </trkpt>
      <trkpt lat="48.2112" lon="-4.55207">
        <ele>7.8</ele>
        <time>2000-01-01T13:10:54.000Z</time>
      </trkpt>
      <trkpt lat="48.21117" lon="-4.55204">
        <ele>8</ele>
        <time>2000-01-01T13:11:04.000Z</time>
      </trkpt>
      <trkpt lat="48.21107" lon="-4.55188">
        <ele>12</ele>
        <time>2000-01-01T13:11:14.000Z</time>
      </trkpt>
      <trkpt lat="48.21094" lon="-4.55181">
        <ele>9.6</ele>
        <time>2000-01-01T13:11:24.000Z</time>
      </trkpt>
      <trkpt lat="48.21074" lon="-4.55163">
        <ele>9</ele>
        <time>2000-01-01T13:11:34.000Z</time>
      </trkpt>
      <trkpt lat="48.21051" lon="-4.55151">
        <ele>8</ele>
        <time>2000-01-01T13:11:44.000Z</time>
      </trkpt>
      <trkpt lat="48.21031" lon="-4.55152">
        <ele>8</ele>
        <time>2000-01-01T13:11:54.000Z</time>
      </trkpt>
      <trkpt lat="48.21008" lon="-4.55157">
        <ele>8</ele>
        <time>2000-01-01T13:12:04.000Z</time>
      </trkpt>
      <trkpt lat="48.20982" lon="-4.55162">
        <ele>9</ele>
        <time>2000-01-01T13:12:14.000Z</time>
      </trkpt>
      <trkpt lat="48.20959" lon="-4.55165">
        <ele>9</ele>
        <time>2000-01-01T13:12:24.000Z</time>
      </trkpt>
      <trkpt lat="48.20946" lon="-4.55164">
        <ele>12.4</ele>
        <time>2000-01-01T13:12:34.000Z</time>
      </trkpt>
      <trkpt lat="48.20919" lon="-4.55148">
        <ele>12</ele>
        <time>2000-01-01T13:12:44.000Z</time>
      </trkpt>
      <trkpt lat="48.20911" lon="-4.55154">
        <ele>13.7</ele>
        <time>2000-01-01T13:12:54.000Z</time>
      </trkpt>
      <trkpt lat="48.20878" lon="-4.55144">
        <ele>14</ele>
        <time>2000-01-01T13:13:04.000Z</time>
      </trkpt>
      <trkpt lat="48.20862" lon="-4.55159">
        <ele>16</ele>
        <time>2000-01-01T13:13:14.000Z</time>
      </trkpt>
      <trkpt lat="48.20861" lon="-4.55165">
        <ele>20.2</ele>
        <time>2000-01-01T13:13:24.000Z</time>
      </trkpt>
      <trkpt lat="48.20858" lon="-4.55168">
        <ele>20.1</ele>
        <time>2000-01-01T13:13:34.000Z</time>
      </trkpt>
      <trkpt lat="48.20835" lon="-4.55168">
        <ele>16</ele>
        <time>2000-01-01T13:13:44.000Z</time>
      </trkpt>
      <trkpt lat="48.20822" lon="-4.55193">
        <ele>19</ele>
        <time>2000-01-01T13:13:54.000Z</time>
      </trkpt>
      <trkpt lat="48.20817" lon="-4.55205">
        <ele>20.1</ele>
        <time>2000-01-01T13:14:04.000Z</time>
      </trkpt>
      <trkpt lat="48.2081" lon="-4.55212">
        <ele>21.6</ele>
        <time>2000-01-01T13:14:14.000Z</time>
      </trkpt>
      <trkpt lat="48.2079" lon="-4.55221">
        <ele>23</ele>
        <time>2000-01-01T13:14:24.000Z</time>
      </trkpt>
      <trkpt lat="48.20776" lon="-4.55231">
        <ele>21.8</ele>
        <time>2000-01-01T13:14:34.000Z</time>
      </trkpt>
      <trkpt lat="48.2077" lon="-4.55243">
        <ele>24</ele>
        <time>2000-01-01T13:14:44.000Z</time>
      </trkpt>
      <trkpt lat="48.20764" lon="-4.55252">
        <ele>18.3</ele>
        <time>2000-01-01T13:14:54.000Z</time>
      </trkpt>
      <trkpt lat="48.20756" lon="-4.55258">
        <ele>20</ele>
        <time>2000-01-01T13:15:04.000Z</time>
      </trkpt>
      <trkpt lat="48.20731" lon="-4.55291">
        <ele>25</ele>
        <time>2000-01-01T13:15:14.000Z</time>
      </trkpt>
      <trkpt lat="48.20719" lon="-4.55313">
        <ele>22</ele>
        <time>2000-01-01T13:15:24.000Z</time>
      </trkpt>
      <trkpt lat="48.20709" lon="-4.5532">
        <ele>14</ele>
        <time>2000-01-01T13:15:34.000Z</time>
      </trkpt>
      <trkpt lat="48.20664" lon="-4.55315">
        <ele>19</ele>
        <time>2000-01-01T13:15:44.000Z</time>
      </trkpt>
      <trkpt lat="48.20667" lon="-4.55286">
        <ele>12</ele>
        <time>2000-01-01T13:15:54.000Z</time>
      </trkpt>
      <trkpt lat="48.20661" lon="-4.55278">
        <ele>16.3</ele>
        <time>2000-01-01T13:16:04.000Z</time>
      </trkpt>
      <trkpt lat="48.20659" lon="-4.55263">
        <ele>8</ele>
        <time>2000-01-01T13:16:14.000Z</time>
      </trkpt>
      <trkpt lat="48.20647" lon="-4.55246">
        <ele>16.1</ele>
        <time>2000-01-01T13:16:24.000Z</time>
      </trkpt>
      <trkpt lat="48.20628" lon="-4.55233">
        <ele>8</ele>
        <time>2000-01-01T13:16:34.000Z</time>
      </trkpt>
      <trkpt lat="48.20612" lon="-4.55231">
        <ele>11.6</ele>
        <time>2000-01-01T13:16:44.000Z</time>
      </trkpt>
      <trkpt lat="48.20608" lon="-4.55224">
        <ele>8</ele>
        <time>2000-01-01T13:16:54.000Z</time>
      </trkpt>
      <trkpt lat="48.20584" lon="-4.55218">
        <ele>8</ele>
        <time>2000-01-01T13:17:04.000Z</time>
      </trkpt>
      <trkpt lat="48.20572" lon="-4.55205">
        <ele>13.5</ele>
        <time>2000-01-01T13:17:14.000Z</time>
      </trkpt>
      <trkpt lat="48.20566" lon="-4.552">
        <ele>7</ele>
        <time>2000-01-01T13:17:24.000Z</time>
      </trkpt>
      <trkpt lat="48.20555" lon="-4.55202">
        <ele>13.6</ele>
        <time>2000-01-01T13:17:34.000Z</time>
      </trkpt>
      <trkpt lat="48.20543" lon="-4.55203">
        <ele>7</ele>
        <time>2000-01-01T13:17:44.000Z</time>
      </trkpt>
      <trkpt lat="48.20529" lon="-4.552">
        <ele>13.2</ele>
        <time>2000-01-01T13:17:54.000Z</time>
      </trkpt>
      <trkpt lat="48.20523" lon="-4.55194">
        <ele>8</ele>
        <time>2000-01-01T13:18:04.000Z</time>
      </trkpt>
      <trkpt lat="48.20513" lon="-4.55189">
        <ele>14.9</ele>
        <time>2000-01-01T13:18:14.000Z</time>
      </trkpt>
      <trkpt lat="48.20505" lon="-4.55179">
        <ele>9</ele>
        <time>2000-01-01T13:18:24.000Z</time>
      </trkpt>
      <trkpt lat="48.205" lon="-4.55178">
        <ele>16.2</ele>
        <time>2000-01-01T13:18:34.000Z</time>
      </trkpt>
      <trkpt lat="48.20493" lon="-4.55179">
        <ele>16.5</ele>
        <time>2000-01-01T13:18:44.000Z</time>
      </trkpt>
      <trkpt lat="48.20482" lon="-4.55171">
        <ele>12</ele>
        <time>2000-01-01T13:18:54.000Z</time>
      </trkpt>
      <trkpt lat="48.20459" lon="-4.55167">
        <ele>17</ele>
        <time>2000-01-01T13:19:04.000Z</time>
      </trkpt>
      <trkpt lat="48.20439" lon="-4.55153">
        <ele>18</ele>
        <time>2000-01-01T13:19:14.000Z</time>
      </trkpt>
      <trkpt lat="48.20434" lon="-4.55145">
        <ele>21.8</ele>
        <time>2000-01-01T13:19:24.000Z</time>
      </trkpt>
      <trkpt lat="48.20423" lon="-4.5514">
        <ele>17</ele>
        <time>2000-01-01T13:19:34.000Z</time>
      </trkpt>
      <trkpt lat="48.20396" lon="-4.55123">
        <ele>17</ele>
        <time>2000-01-01T13:19:44.000Z</time>
      </trkpt>
      <trkpt lat="48.20374" lon="-4.55117">
        <ele>13</ele>
        <time>2000-01-01T13:19:54.000Z</time>
      </trkpt>
      <trkpt lat="48.20362" lon="-4.55144">
        <ele>11</ele>
        <time>2000-01-01T13:20:04.000Z</time>
      </trkpt>
      <trkpt lat="48.20345" lon="-4.55139">
        <ele>20.4</ele>
        <time>2000-01-01T13:20:14.000Z</time>
      </trkpt>
      <trkpt lat="48.20326" lon="-4.55127">
        <ele>11</ele>
        <time>2000-01-01T13:20:24.000Z</time>
      </trkpt>
      <trkpt lat="48.20316" lon="-4.55127">
        <ele>20.3</ele>
        <time>2000-01-01T13:20:34.000Z</time>
      </trkpt>
      <trkpt lat="48.20316" lon="-4.55157">
        <ele>10</ele>
        <time>2000-01-01T13:20:44.000Z</time>
      </trkpt>
      <trkpt lat="48.20304" lon="-4.55161">
        <ele>14</ele>
        <time>2000-01-01T13:20:54.000Z</time>
      </trkpt>
      <trkpt lat="48.20296" lon="-4.55159">
        <ele>10</ele>
        <time>2000-01-01T13:21:04.000Z</time>
      </trkpt>
      <trkpt lat="48.20272" lon="-4.55143">
        <ele>14</ele>
        <time>2000-01-01T13:21:14.000Z</time>
      </trkpt>
      <trkpt lat="48.20263" lon="-4.55142">
        <ele>14.5</ele>
        <time>2000-01-01T13:21:24.000Z</time>
      </trkpt>
      <trkpt lat="48.20255" lon="-4.55137">
        <ele>15.4</ele>
        <time>2000-01-01T13:21:34.000Z</time>
      </trkpt>
      <trkpt lat="48.20249" lon="-4.55137">
        <ele>13</ele>
        <time>2000-01-01T13:21:44.000Z</time>
      </trkpt>
      <trkpt lat="48.20234" lon="-4.55145">
        <ele>12.5</ele>
        <time>2000-01-01T13:21:54.000Z</time>
      </trkpt>
      <trkpt lat="48.20213" lon="-4.55146">
        <ele>13</ele>
        <time>2000-01-01T13:22:04.000Z</time>
      </trkpt>
      <trkpt lat="48.20176" lon="-4.55126">
        <ele>8</ele>
        <time>2000-01-01T13:22:14.000Z</time>
      </trkpt>
      <trkpt lat="48.20148" lon="-4.55114">
        <ele>7</ele>
        <time>2000-01-01T13:22:24.000Z</time>
      </trkpt>
      <trkpt lat="48.20136" lon="-4.55116">
        <ele>11.2</ele>
        <time>2000-01-01T13:22:34.000Z</time>
      </trkpt>
      <trkpt lat="48.20115" lon="-4.55113">
        <ele>7</ele>
        <time>2000-01-01T13:22:44.000Z</time>
      </trkpt>
      <trkpt lat="48.20097" lon="-4.551">
        <ele>7</ele>
        <time>2000-01-01T13:22:54.000Z</time>
      </trkpt>
      <trkpt lat="48.2009" lon="-4.551">
        <ele>10</ele>
        <time>2000-01-01T13:23:04.000Z</time>
      </trkpt>
      <trkpt lat="48.20072" lon="-4.55081">
        <ele>8</ele>
        <time>2000-01-01T13:23:14.000Z</time>
      </trkpt>
      <trkpt lat="48.20048" lon="-4.5509">
        <ele>7</ele>
        <time>2000-01-01T13:23:24.000Z</time>
      </trkpt>
      <trkpt lat="48.20049" lon="-4.5507">
        <ele>8</ele>
        <time>2000-01-01T13:23:34.000Z</time>
      </trkpt>
      <trkpt lat="48.20034" lon="-4.55067">
        <ele>7</ele>
        <time>2000-01-01T13:23:44.000Z</time>
      </trkpt>
      <trkpt lat="48.20026" lon="-4.55056">
        <ele>8</ele>
        <time>2000-01-01T13:23:54.000Z</time>
      </trkpt>
      <trkpt lat="48.20015" lon="-4.55048">
        <ele>10</ele>
        <time>2000-01-01T13:24:04.000Z</time>
      </trkpt>
      <trkpt lat="48.19989" lon="-4.55041">
        <ele>11</ele>
        <time>2000-01-01T13:24:14.000Z</time>
      </trkpt>
      <trkpt lat="48.19971" lon="-4.55043">
        <ele>11</ele>
        <time>2000-01-01T13:24:24.000Z</time>
      </trkpt>
      <trkpt lat="48.19948" lon="-4.55034">
        <ele>16</ele>
        <time>2000-01-01T13:24:34.000Z</time>
      </trkpt>
      <trkpt lat="48.19925" lon="-4.55026">
        <ele>16</ele>
        <time>2000-01-01T13:24:44.000Z</time>
      </trkpt>
      <trkpt lat="48.19899" lon="-4.55018">
        <ele>14</ele>
        <time>2000-01-01T13:24:54.000Z</time>
      </trkpt>
      <trkpt lat="48.19874" lon="-4.55024">
        <ele>12</ele>
        <time>2000-01-01T13:25:04.000Z</time>
      </trkpt>
      <trkpt lat="48.19851" lon="-4.55027">
        <ele>12</ele>
        <time>2000-01-01T13:25:14.000Z</time>
      </trkpt>
      <trkpt lat="48.19825" lon="-4.5503">
        <ele>12</ele>
        <time>2000-01-01T13:25:24.000Z</time>
      </trkpt>
      <trkpt lat="48.19812" lon="-4.55029">
        <ele>14.7</ele>
        <time>2000-01-01T13:25:34.000Z</time>
      </trkpt>
      <trkpt lat="48.19781" lon="-4.55019">
        <ele>13</ele>
        <time>2000-01-01T13:25:44.000Z</time>
      </trkpt>
      <trkpt lat="48.1976" lon="-4.55017">
        <ele>13</ele>
        <time>2000-01-01T13:25:54.000Z</time>
      </trkpt>
      <trkpt lat="48.19738" lon="-4.55003">
        <ele>17</ele>
        <time>2000-01-01T13:26:04.000Z</time>
      </trkpt>
      <trkpt lat="48.1972" lon="-4.54998">
        <ele>17</ele>
        <time>2000-01-01T13:26:14.000Z</time>
      </trkpt>
      <trkpt lat="48.19694" lon="-4.5498">
        <ele>17</ele>
        <time>2000-01-01T13:26:24.000Z</time>
      </trkpt>
      <trkpt lat="48.19687" lon="-4.54981">
        <ele>20</ele>
        <time>2000-01-01T13:26:34.000Z</time>
      </trkpt>
      <trkpt lat="48.1965" lon="-4.54964">
        <ele>18</ele>
        <time>2000-01-01T13:26:44.000Z</time>
      </trkpt>
      <trkpt lat="48.19628" lon="-4.54945">
        <ele>21</ele>
        <time>2000-01-01T13:26:54.000Z</time>
      </trkpt>
      <trkpt lat="48.19617" lon="-4.5494">
        <ele>21.9</ele>
        <time>2000-01-01T13:27:04.000Z</time>
      </trkpt>
      <trkpt lat="48.19594" lon="-4.54938">
        <ele>21</ele>
        <time>2000-01-01T13:27:14.000Z</time>
      </trkpt>
      <trkpt lat="48.19577" lon="-4.54941">
        <ele>27.2</ele>
        <time>2000-01-01T13:27:24.000Z</time>
      </trkpt>
      <trkpt lat="48.19562" lon="-4.54938">
        <ele>26</ele>
        <time>2000-01-01T13:27:34.000Z</time>
      </trkpt>
      <trkpt lat="48.1955" lon="-4.54928">
        <ele>30.4</ele>
        <time>2000-01-01T13:27:44.000Z</time>
      </trkpt>
      <trkpt lat="48.19529" lon="-4.54923">
        <ele>25</ele>
        <time>2000-01-01T13:27:54.000Z</time>
      </trkpt>
      <trkpt lat="48.19523" lon="-4.54926">
        <ele>29.4</ele>
        <time>2000-01-01T13:28:04.000Z</time>
      </trkpt>
      <trkpt lat="48.19493" lon="-4.54929">
        <ele>25</ele>
        <time>2000-01-01T13:28:14.000Z</time>
      </trkpt>
      <trkpt lat="48.19482" lon="-4.54927">
        <ele>31</ele>
        <time>2000-01-01T13:28:24.000Z</time>
      </trkpt>
      <trkpt lat="48.19477" lon="-4.54923">
        <ele>31.4</ele>
        <time>2000-01-01T13:28:34.000Z</time>
      </trkpt>
      <trkpt lat="48.19463" lon="-4.5492">
        <ele>25</ele>
        <time>2000-01-01T13:28:44.000Z</time>
      </trkpt>
      <trkpt lat="48.1944" lon="-4.54906">
        <ele>25</ele>
        <time>2000-01-01T13:28:54.000Z</time>
      </trkpt>
      <trkpt lat="48.1943" lon="-4.54905">
        <ele>36</ele>
        <time>2000-01-01T13:29:04.000Z</time>
      </trkpt>
      <trkpt lat="48.19422" lon="-4.54909">
        <ele>29</ele>
        <time>2000-01-01T13:29:14.000Z</time>
      </trkpt>
      <trkpt lat="48.19404" lon="-4.54903">
        <ele>31</ele>
        <time>2000-01-01T13:29:24.000Z</time>
      </trkpt>
      <trkpt lat="48.1939" lon="-4.54894">
        <ele>41.7</ele>
        <time>2000-01-01T13:29:34.000Z</time>
      </trkpt>
      <trkpt lat="48.19386" lon="-4.54889">
        <ele>35</ele>
        <time>2000-01-01T13:29:44.000Z</time>
      </trkpt>
      <trkpt lat="48.19384" lon="-4.54883">
        <ele>42.6</ele>
        <time>2000-01-01T13:29:54.000Z</time>
      </trkpt>
      <trkpt lat="48.19385" lon="-4.54867">
        <ele>43.6</ele>
        <time>2000-01-01T13:30:04.000Z</time>
      </trkpt>
      <trkpt lat="48.19384" lon="-4.5486">
        <ele>38</ele>
        <time>2000-01-01T13:30:14.000Z</time>
      </trkpt>
      <trkpt lat="48.1938" lon="-4.54857">
        <ele>44.3</ele>
        <time>2000-01-01T13:30:24.000Z</time>
      </trkpt>
      <trkpt lat="48.19361" lon="-4.54871">
        <ele>35</ele>
        <time>2000-01-01T13:30:34.000Z</time>
      </trkpt>
      <trkpt lat="48.19324" lon="-4.54885">
        <ele>33</ele>
        <time>2000-01-01T13:30:44.000Z</time>
      </trkpt>
      <trkpt lat="48.19301" lon="-4.54881">
        <ele>28</ele>
        <time>2000-01-01T13:30:54.000Z</time>
      </trkpt>
      <trkpt lat="48.19276" lon="-4.54869">
        <ele>25</ele>
        <time>2000-01-01T13:31:04.000Z</time>
      </trkpt>
      <trkpt lat="48.19242" lon="-4.54853">
        <ele>25</ele>
        <time>2000-01-01T13:31:14.000Z</time>
      </trkpt>
      <trkpt lat="48.19233" lon="-4.54854">
        <ele>42.7</ele>
        <time>2000-01-01T13:31:24.000Z</time>
      </trkpt>
      <trkpt lat="48.19224" lon="-4.54864">
        <ele>25</ele>
        <time>2000-01-01T13:31:34.000Z</time>
      </trkpt>
      <trkpt lat="48.19223" lon="-4.54899">
        <ele>27</ele>
        <time>2000-01-01T13:31:44.000Z</time>
      </trkpt>
      <trkpt lat="48.19221" lon="-4.54937">
        <ele>29</ele>
        <time>2000-01-01T13:31:54.000Z</time>
      </trkpt>
      <trkpt lat="48.19219" lon="-4.54954">
        <ele>43</ele>
        <time>2000-01-01T13:32:04.000Z</time>
      </trkpt>
      <trkpt lat="48.19211" lon="-4.54973">
        <ele>29</ele>
        <time>2000-01-01T13:32:14.000Z</time>
      </trkpt>
      <trkpt lat="48.19191" lon="-4.54992">
        <ele>29</ele>
        <time>2000-01-01T13:32:24.000Z</time>
      </trkpt>
      <trkpt lat="48.1917" lon="-4.55012">
        <ele>30</ele>
        <time>2000-01-01T13:32:34.000Z</time>
      </trkpt>
      <trkpt lat="48.19149" lon="-4.55023">
        <ele>39</ele>
        <time>2000-01-01T13:32:44.000Z</time>
      </trkpt>
      <trkpt lat="48.19142" lon="-4.55026">
        <ele>47.7</ele>
        <time>2000-01-01T13:32:54.000Z</time>
      </trkpt>
      <trkpt lat="48.1913" lon="-4.55037">
        <ele>36</ele>
        <time>2000-01-01T13:33:04.000Z</time>
      </trkpt>
      <trkpt lat="48.19118" lon="-4.55054">
        <ele>47.5</ele>
        <time>2000-01-01T13:33:14.000Z</time>
      </trkpt>
      <trkpt lat="48.19105" lon="-4.55098">
        <ele>33</ele>
        <time>2000-01-01T13:33:24.000Z</time>
      </trkpt>
      <trkpt lat="48.19102" lon="-4.55125">
        <ele>38</ele>
        <time>2000-01-01T13:33:34.000Z</time>
      </trkpt>
      <trkpt lat="48.19096" lon="-4.55152">
        <ele>43</ele>
        <time>2000-01-01T13:33:44.000Z</time>
      </trkpt>
      <trkpt lat="48.19087" lon="-4.55179">
        <ele>43</ele>
        <time>2000-01-01T13:33:54.000Z</time>
      </trkpt>
      <trkpt lat="48.19075" lon="-4.55196">
        <ele>45.8</ele>
        <time>2000-01-01T13:34:04.000Z</time>
      </trkpt>
      <trkpt lat="48.19038" lon="-4.55216">
        <ele>26</ele>
        <time>2000-01-01T13:34:14.000Z</time>
      </trkpt>
      <trkpt lat="48.19021" lon="-4.55215">
        <ele>43.5</ele>
        <time>2000-01-01T13:34:24.000Z</time>
      </trkpt>
      <trkpt lat="48.19004" lon="-4.55211">
        <ele>31</ele>
        <time>2000-01-01T13:34:34.000Z</time>
      </trkpt>
      <trkpt lat="48.18996" lon="-4.55197">
        <ele>41.5</ele>
        <time>2000-01-01T13:34:44.000Z</time>
      </trkpt>
      <trkpt lat="48.18991" lon="-4.55148">
        <ele>22</ele>
        <time>2000-01-01T13:34:54.000Z</time>
      </trkpt>
      <trkpt lat="48.18984" lon="-4.55123">
        <ele>20</ele>
        <time>2000-01-01T13:35:04.000Z</time>
      </trkpt>
      <trkpt lat="48.18979" lon="-4.55082">
        <ele>23</ele>
        <time>2000-01-01T13:35:14.000Z</time>
      </trkpt>
      <trkpt lat="48.18974" lon="-4.55063">
        <ele>45.2</ele>
        <time>2000-01-01T13:35:24.000Z</time>
      </trkpt>
      <trkpt lat="48.18966" lon="-4.55045">
        <ele>22</ele>
        <time>2000-01-01T13:35:34.000Z</time>
      </trkpt>
      <trkpt lat="48.18955" lon="-4.55014">
        <ele>22</ele>
        <time>2000-01-01T13:35:44.000Z</time>
      </trkpt>
      <trkpt lat="48.18944" lon="-4.54979">
        <ele>28</ele>
        <time>2000-01-01T13:35:54.000Z</time>
      </trkpt>
      <trkpt lat="48.1893" lon="-4.54952">
        <ele>35</ele>
        <time>2000-01-01T13:36:04.000Z</time>
      </trkpt>
      <trkpt lat="48.18915" lon="-4.54923">
        <ele>44</ele>
        <time>2000-01-01T13:36:14.000Z</time>
      </trkpt>
      <trkpt lat="48.18894" lon="-4.54889">
        <ele>50</ele>
        <time>2000-01-01T13:36:24.000Z</time>
      </trkpt>
      <trkpt lat="48.1889" lon="-4.54874">
        <ele>66.7</ele>
        <time>2000-01-01T13:36:34.000Z</time>
      </trkpt>
      <trkpt lat="48.18881" lon="-4.54864">
        <ele>57</ele>
        <time>2000-01-01T13:36:44.000Z</time>
      </trkpt>
      <trkpt lat="48.18879" lon="-4.54848">
        <ele>72.5</ele>
        <time>2000-01-01T13:36:54.000Z</time>
      </trkpt>
      <trkpt lat="48.18873" lon="-4.54851">
        <ele>73.3</ele>
        <time>2000-01-01T13:37:04.000Z</time>
      </trkpt>
      <trkpt lat="48.18867" lon="-4.54864">
        <ele>57</ele>
        <time>2000-01-01T13:37:14.000Z</time>
      </trkpt>
      <trkpt lat="48.18861" lon="-4.54881">
        <ele>72.9</ele>
        <time>2000-01-01T13:37:24.000Z</time>
      </trkpt>
      <trkpt lat="48.18827" lon="-4.54936">
        <ele>53</ele>
        <time>2000-01-01T13:37:34.000Z</time>
      </trkpt>
      <trkpt lat="48.18804" lon="-4.5494">
        <ele>53</ele>
        <time>2000-01-01T13:37:44.000Z</time>
      </trkpt>
      <trkpt lat="48.18794" lon="-4.54934">
        <ele>72.9</ele>
        <time>2000-01-01T13:37:54.000Z</time>
      </trkpt>
      <trkpt lat="48.18785" lon="-4.54941">
        <ele>54</ele>
        <time>2000-01-01T13:38:04.000Z</time>
      </trkpt>
      <trkpt lat="48.18768" lon="-4.5495">
        <ele>62</ele>
        <time>2000-01-01T13:38:14.000Z</time>
      </trkpt>
      <trkpt lat="48.18762" lon="-4.54949">
        <ele>72.9</ele>
        <time>2000-01-01T13:38:24.000Z</time>
      </trkpt>
      <trkpt lat="48.18737" lon="-4.54938">
        <ele>61</ele>
        <time>2000-01-01T13:38:34.000Z</time>
      </trkpt>
      <trkpt lat="48.18707" lon="-4.54943">
        <ele>60</ele>
        <time>2000-01-01T13:38:44.000Z</time>
      </trkpt>
      <trkpt lat="48.18689" lon="-4.54962">
        <ele>54</ele>
        <time>2000-01-01T13:38:54.000Z</time>
      </trkpt>
      <trkpt lat="48.18666" lon="-4.54989">
        <ele>54</ele>
        <time>2000-01-01T13:39:04.000Z</time>
      </trkpt>
      <trkpt lat="48.1866" lon="-4.54998">
        <ele>75.2</ele>
        <time>2000-01-01T13:39:14.000Z</time>
      </trkpt>
      <trkpt lat="48.18633" lon="-4.55019">
        <ele>54</ele>
        <time>2000-01-01T13:39:24.000Z</time>
      </trkpt>
      <trkpt lat="48.18607" lon="-4.55037">
        <ele>70</ele>
        <time>2000-01-01T13:39:34.000Z</time>
      </trkpt>
      <trkpt lat="48.1859" lon="-4.55058">
        <ele>65</ele>
        <time>2000-01-01T13:39:44.000Z</time>
      </trkpt>
      <trkpt lat="48.18582" lon="-4.55071">
        <ele>78.9</ele>
        <time>2000-01-01T13:39:54.000Z</time>
      </trkpt>
      <trkpt lat="48.18573" lon="-4.551">
        <ele>66</ele>
        <time>2000-01-01T13:40:04.000Z</time>
      </trkpt>
      <trkpt lat="48.1856" lon="-4.5513">
        <ele>63</ele>
        <time>2000-01-01T13:40:14.000Z</time>
      </trkpt>
      <trkpt lat="48.18556" lon="-4.55146">
        <ele>78.3</ele>
        <time>2000-01-01T13:40:24.000Z</time>
      </trkpt>
      <trkpt lat="48.18531" lon="-4.55174">
        <ele>61</ele>
        <time>2000-01-01T13:40:34.000Z</time>
      </trkpt>
      <trkpt lat="48.18514" lon="-4.55185">
        <ele>51</ele>
        <time>2000-01-01T13:40:44.000Z</time>
      </trkpt>
      <trkpt lat="48.18488" lon="-4.55167">
        <ele>53</ele>
        <time>2000-01-01T13:40:54.000Z</time>
      </trkpt>
      <trkpt lat="48.18466" lon="-4.5515">
        <ele>50</ele>
        <time>2000-01-01T13:41:04.000Z</time>
      </trkpt>
      <trkpt lat="48.18434" lon="-4.55137">
        <ele>51</ele>
        <time>2000-01-01T13:41:14.000Z</time>
      </trkpt>
      <trkpt lat="48.18425" lon="-4.55131">
        <ele>77.7</ele>
        <time>2000-01-01T13:41:24.000Z</time>
      </trkpt>
      <trkpt lat="48.18415" lon="-4.55118">
        <ele>50</ele>
        <time>2000-01-01T13:41:34.000Z</time>
      </trkpt>
      <trkpt lat="48.1841" lon="-4.55116">
        <ele>80.7</ele>
        <time>2000-01-01T13:41:44.000Z</time>
      </trkpt>
      <trkpt lat="48.18367" lon="-4.55115">
        <ele>49</ele>
        <time>2000-01-01T13:41:54.000Z</time>
      </trkpt>
      <trkpt lat="48.18349" lon="-4.55106">
        <ele>55</ele>
        <time>2000-01-01T13:42:04.000Z</time>
      </trkpt>
      <trkpt lat="48.18342" lon="-4.55083">
        <ele>76.8</ele>
        <time>2000-01-01T13:42:14.000Z</time>
      </trkpt>
      <trkpt lat="48.18358" lon="-4.55071">
        <ele>61</ele>
        <time>2000-01-01T13:42:24.000Z</time>
      </trkpt>
      <trkpt lat="48.18358" lon="-4.55059">
        <ele>83.9</ele>
        <time>2000-01-01T13:42:34.000Z</time>
      </trkpt>
      <trkpt lat="48.18343" lon="-4.55019">
        <ele>69</ele>
        <time>2000-01-01T13:42:44.000Z</time>
      </trkpt>
      <trkpt lat="48.18328" lon="-4.54983">
        <ele>67</ele>
        <time>2000-01-01T13:42:54.000Z</time>
      </trkpt>
      <trkpt lat="48.18314" lon="-4.54952">
        <ele>67</ele>
        <time>2000-01-01T13:43:04.000Z</time>
      </trkpt>
      <trkpt lat="48.18299" lon="-4.54916">
        <ele>68</ele>
        <time>2000-01-01T13:43:14.000Z</time>
      </trkpt>
      <trkpt lat="48.18289" lon="-4.54886">
        <ele>66</ele>
        <time>2000-01-01T13:43:24.000Z</time>
      </trkpt>
      <trkpt lat="48.18269" lon="-4.54856">
        <ele>66</ele>
        <time>2000-01-01T13:43:34.000Z</time>
      </trkpt>
      <trkpt lat="48.18252" lon="-4.54831">
        <ele>66</ele>
        <time>2000-01-01T13:43:44.000Z</time>
      </trkpt>
      <trkpt lat="48.18233" lon="-4.54804">
        <ele>65</ele>
        <time>2000-01-01T13:43:54.000Z</time>
      </trkpt>
      <trkpt lat="48.18229" lon="-4.5479">
        <ele>86</ele>
        <time>2000-01-01T13:44:04.000Z</time>
      </trkpt>
      <trkpt lat="48.18217" lon="-4.54762">
        <ele>65</ele>
        <time>2000-01-01T13:44:14.000Z</time>
      </trkpt>
      <trkpt lat="48.18213" lon="-4.54765">
        <ele>85.9</ele>
        <time>2000-01-01T13:44:24.000Z</time>
      </trkpt>
      <trkpt lat="48.18209" lon="-4.54775">
        <ele>85.2</ele>
        <time>2000-01-01T13:44:34.000Z</time>
      </trkpt>
      <trkpt lat="48.18194" lon="-4.54792">
        <ele>58</ele>
        <time>2000-01-01T13:44:44.000Z</time>
      </trkpt>
      <trkpt lat="48.18192" lon="-4.548">
        <ele>81.2</ele>
        <time>2000-01-01T13:44:54.000Z</time>
      </trkpt>
      <trkpt lat="48.18177" lon="-4.54831">
        <ele>58</ele>
        <time>2000-01-01T13:45:04.000Z</time>
      </trkpt>
      <trkpt lat="48.18175" lon="-4.54839">
        <ele>74</ele>
        <time>2000-01-01T13:45:14.000Z</time>
      </trkpt>
      <trkpt lat="48.1817" lon="-4.54849">
        <ele>71.5</ele>
        <time>2000-01-01T13:45:24.000Z</time>
      </trkpt>
      <trkpt lat="48.18154" lon="-4.54858">
        <ele>59</ele>
        <time>2000-01-01T13:45:34.000Z</time>
      </trkpt>
      <trkpt lat="48.18144" lon="-4.5486">
        <ele>70</ele>
        <time>2000-01-01T13:45:44.000Z</time>
      </trkpt>
      <trkpt lat="48.1814" lon="-4.54856">
        <ele>70.9</ele>
        <time>2000-01-01T13:45:54.000Z</time>
      </trkpt>
      <trkpt lat="48.18132" lon="-4.54858">
        <ele>59</ele>
        <time>2000-01-01T13:46:04.000Z</time>
      </trkpt>
      <trkpt lat="48.18128" lon="-4.54863">
        <ele>72</ele>
        <time>2000-01-01T13:46:14.000Z</time>
      </trkpt>
      <trkpt lat="48.18126" lon="-4.54868">
        <ele>71.7</ele>
        <time>2000-01-01T13:46:24.000Z</time>
      </trkpt>
      <trkpt lat="48.18124" lon="-4.54884">
        <ele>56</ele>
        <time>2000-01-01T13:46:34.000Z</time>
      </trkpt>
      <trkpt lat="48.18108" lon="-4.54911">
        <ele>52</ele>
        <time>2000-01-01T13:46:44.000Z</time>
      </trkpt>
      <trkpt lat="48.18102" lon="-4.54933">
        <ele>66.6</ele>
        <time>2000-01-01T13:46:54.000Z</time>
      </trkpt>
      <trkpt lat="48.18084" lon="-4.54966">
        <ele>41</ele>
        <time>2000-01-01T13:47:04.000Z</time>
      </trkpt>
      <trkpt lat="48.18072" lon="-4.5501">
        <ele>33</ele>
        <time>2000-01-01T13:47:14.000Z</time>
      </trkpt>
      <trkpt lat="48.18068" lon="-4.55016">
        <ele>58</ele>
        <time>2000-01-01T13:47:24.000Z</time>
      </trkpt>
      <trkpt lat="48.18061" lon="-4.55019">
        <ele>57.7</ele>
        <time>2000-01-01T13:47:34.000Z</time>
      </trkpt>
      <trkpt lat="48.18053" lon="-4.55042">
        <ele>33</ele>
        <time>2000-01-01T13:47:44.000Z</time>
      </trkpt>
      <trkpt lat="48.18043" lon="-4.55056">
        <ele>54.2</ele>
        <time>2000-01-01T13:47:54.000Z</time>
      </trkpt>
      <trkpt lat="48.18037" lon="-4.55062">
        <ele>33</ele>
        <time>2000-01-01T13:48:04.000Z</time>
      </trkpt>
      <trkpt lat="48.1803" lon="-4.55114">
        <ele>33</ele>
        <time>2000-01-01T13:48:14.000Z</time>
      </trkpt>
      <trkpt lat="48.18027" lon="-4.55119">
        <ele>60.6</ele>
        <time>2000-01-01T13:48:24.000Z</time>
      </trkpt>
      <trkpt lat="48.18014" lon="-4.55114">
        <ele>65.5</ele>
        <time>2000-01-01T13:48:34.000Z</time>
      </trkpt>
      <trkpt lat="48.18002" lon="-4.55119">
        <ele>38</ele>
        <time>2000-01-01T13:48:44.000Z</time>
      </trkpt>
      <trkpt lat="48.17993" lon="-4.55128">
        <ele>72</ele>
        <time>2000-01-01T13:48:54.000Z</time>
      </trkpt>
      <trkpt lat="48.1798" lon="-4.55144">
        <ele>49</ele>
        <time>2000-01-01T13:49:04.000Z</time>
      </trkpt>
      <trkpt lat="48.17967" lon="-4.55154">
        <ele>71.8</ele>
        <time>2000-01-01T13:49:14.000Z</time>
      </trkpt>
      <trkpt lat="48.17944" lon="-4.55162">
        <ele>60</ele>
        <time>2000-01-01T13:49:24.000Z</time>
      </trkpt>
      <trkpt lat="48.17931" lon="-4.55171">
        <ele>76.9</ele>
        <time>2000-01-01T13:49:34.000Z</time>
      </trkpt>
      <trkpt lat="48.17895" lon="-4.55178">
        <ele>68</ele>
        <time>2000-01-01T13:49:44.000Z</time>
      </trkpt>
      <trkpt lat="48.17886" lon="-4.55186">
        <ele>81</ele>
        <time>2000-01-01T13:49:54.000Z</time>
      </trkpt>
      <trkpt lat="48.17868" lon="-4.55211">
        <ele>66</ele>
        <time>2000-01-01T13:50:04.000Z</time>
      </trkpt>
      <trkpt lat="48.17858" lon="-4.55229">
        <ele>83</ele>
        <time>2000-01-01T13:50:14.000Z</time>
      </trkpt>
      <trkpt lat="48.17849" lon="-4.55265">
        <ele>65</ele>
        <time>2000-01-01T13:50:24.000Z</time>
      </trkpt>
      <trkpt lat="48.17839" lon="-4.55281">
        <ele>82.9</ele>
        <time>2000-01-01T13:50:34.000Z</time>
      </trkpt>
      <trkpt lat="48.17832" lon="-4.55283">
        <ele>65</ele>
        <time>2000-01-01T13:50:44.000Z</time>
      </trkpt>
      <trkpt lat="48.17813" lon="-4.55322">
        <ele>69</ele>
        <time>2000-01-01T13:50:54.000Z</time>
      </trkpt>
      <trkpt lat="48.17786" lon="-4.5537">
        <ele>73</ele>
        <time>2000-01-01T13:51:04.000Z</time>
      </trkpt>
      <trkpt lat="48.1778" lon="-4.55384">
        <ele>89.3</ele>
        <time>2000-01-01T13:51:14.000Z</time>
      </trkpt>
      <trkpt lat="48.17771" lon="-4.55396">
        <ele>73</ele>
        <time>2000-01-01T13:51:24.000Z</time>
      </trkpt>
      <trkpt lat="48.17758" lon="-4.55408">
        <ele>91.5</ele>
        <time>2000-01-01T13:51:34.000Z</time>
      </trkpt>
      <trkpt lat="48.17749" lon="-4.55422">
        <ele>75</ele>
        <time>2000-01-01T13:51:44.000Z</time>
      </trkpt>
      <trkpt lat="48.17741" lon="-4.55431">
        <ele>92.6</ele>
        <time>2000-01-01T13:51:54.000Z</time>
      </trkpt>
      <trkpt lat="48.17741" lon="-4.55449">
        <ele>74</ele>
        <time>2000-01-01T13:52:04.000Z</time>
      </trkpt>
      <trkpt lat="48.17748" lon="-4.55486">
        <ele>77</ele>
        <time>2000-01-01T13:52:14.000Z</time>
      </trkpt>
      <trkpt lat="48.17748" lon="-4.55504">
        <ele>90.9</ele>
        <time>2000-01-01T13:52:24.000Z</time>
      </trkpt>
      <trkpt lat="48.17732" lon="-4.55559">
        <ele>77</ele>
        <time>2000-01-01T13:52:34.000Z</time>
      </trkpt>
      <trkpt lat="48.17719" lon="-4.55589">
        <ele>78</ele>
        <time>2000-01-01T13:52:44.000Z</time>
      </trkpt>
      <trkpt lat="48.17703" lon="-4.55623">
        <ele>79</ele>
        <time>2000-01-01T13:52:54.000Z</time>
      </trkpt>
      <trkpt lat="48.17697" lon="-4.55633">
        <ele>90.6</ele>
        <time>2000-01-01T13:53:04.000Z</time>
      </trkpt>
      <trkpt lat="48.17683" lon="-4.5567">
        <ele>81</ele>
        <time>2000-01-01T13:53:14.000Z</time>
      </trkpt>
      <trkpt lat="48.17665" lon="-4.55694">
        <ele>81</ele>
        <time>2000-01-01T13:53:24.000Z</time>
      </trkpt>
      <trkpt lat="48.17651" lon="-4.55719">
        <ele>81</ele>
        <time>2000-01-01T13:53:34.000Z</time>
      </trkpt>
      <trkpt lat="48.1764" lon="-4.55735">
        <ele>91.8</ele>
        <time>2000-01-01T13:53:44.000Z</time>
      </trkpt>
      <trkpt lat="48.17633" lon="-4.55739">
        <ele>78</ele>
        <time>2000-01-01T13:53:54.000Z</time>
      </trkpt>
      <trkpt lat="48.1763" lon="-4.55744">
        <ele>91.8</ele>
        <time>2000-01-01T13:54:04.000Z</time>
      </trkpt>
      <trkpt lat="48.17626" lon="-4.55764">
        <ele>78</ele>
        <time>2000-01-01T13:54:14.000Z</time>
      </trkpt>
      <trkpt lat="48.17627" lon="-4.55766">
        <ele>89.9</ele>
        <time>2000-01-01T13:54:24.000Z</time>
      </trkpt>
      <trkpt lat="48.1762" lon="-4.55771">
        <ele>90.2</ele>
        <time>2000-01-01T13:54:34.000Z</time>
      </trkpt>
      <trkpt lat="48.17611" lon="-4.5579">
        <ele>78</ele>
        <time>2000-01-01T13:54:44.000Z</time>
      </trkpt>
      <trkpt lat="48.17587" lon="-4.55766">
        <ele>74</ele>
        <time>2000-01-01T13:54:54.000Z</time>
      </trkpt>
      <trkpt lat="48.17579" lon="-4.55734">
        <ele>73</ele>
        <time>2000-01-01T13:55:04.000Z</time>
      </trkpt>
      <trkpt lat="48.17573" lon="-4.5572">
        <ele>89</ele>
        <time>2000-01-01T13:55:14.000Z</time>
      </trkpt>
      <trkpt lat="48.17572" lon="-4.55707">
        <ele>73</ele>
        <time>2000-01-01T13:55:24.000Z</time>
      </trkpt>
      <trkpt lat="48.17553" lon="-4.55666">
        <ele>68</ele>
        <time>2000-01-01T13:55:34.000Z</time>
      </trkpt>
      <trkpt lat="48.17547" lon="-4.5566">
        <ele>85</ele>
        <time>2000-01-01T13:55:44.000Z</time>
      </trkpt>
      <trkpt lat="48.17544" lon="-4.55652">
        <ele>85.6</ele>
        <time>2000-01-01T13:55:54.000Z</time>
      </trkpt>
      <trkpt lat="48.1752" lon="-4.5563">
        <ele>68</ele>
        <time>2000-01-01T13:56:04.000Z</time>
      </trkpt>
      <trkpt lat="48.17511" lon="-4.55626">
        <ele>84.4</ele>
        <time>2000-01-01T13:56:14.000Z</time>
      </trkpt>
      <trkpt lat="48.1749" lon="-4.55605">
        <ele>68</ele>
        <time>2000-01-01T13:56:24.000Z</time>
      </trkpt>
      <trkpt lat="48.17464" lon="-4.5559">
        <ele>66</ele>
        <time>2000-01-01T13:56:34.000Z</time>
      </trkpt>
      <trkpt lat="48.17451" lon="-4.55586">
        <ele>80.1</ele>
        <time>2000-01-01T13:56:44.000Z</time>
      </trkpt>
      <trkpt lat="48.17448" lon="-4.55583">
        <ele>80</ele>
        <time>2000-01-01T13:56:54.000Z</time>
      </trkpt>
      <trkpt lat="48.17439" lon="-4.55579">
        <ele>40</ele>
        <time>2000-01-01T13:57:04.000Z</time>
      </trkpt>
      <trkpt lat="48.17427" lon="-4.55581">
        <ele>74.3</ele>
        <time>2000-01-01T13:57:14.000Z</time>
      </trkpt>
      <trkpt lat="48.17415" lon="-4.55571">
        <ele>40</ele>
        <time>2000-01-01T13:57:24.000Z</time>
      </trkpt>
      <trkpt lat="48.17393" lon="-4.55564">
        <ele>41</ele>
        <time>2000-01-01T13:57:34.000Z</time>
      </trkpt>
      <trkpt lat="48.17378" lon="-4.55565">
        <ele>64.7</ele>
        <time>2000-01-01T13:57:44.000Z</time>
      </trkpt>
      <trkpt lat="48.1737" lon="-4.55572">
        <ele>43</ele>
        <time>2000-01-01T13:57:54.000Z</time>
      </trkpt>
      <trkpt lat="48.17356" lon="-4.55575">
        <ele>65.5</ele>
        <time>2000-01-01T13:58:04.000Z</time>
      </trkpt>
      <trkpt lat="48.17348" lon="-4.55582">
        <ele>49</ele>
        <time>2000-01-01T13:58:14.000Z</time>
      </trkpt>
      <trkpt lat="48.17323" lon="-4.55591">
        <ele>56</ele>
        <time>2000-01-01T13:58:24.000Z</time>
      </trkpt>
      <trkpt lat="48.17313" lon="-4.55586">
        <ele>77.7</ele>
        <time>2000-01-01T13:58:34.000Z</time>
      </trkpt>
      <trkpt lat="48.17298" lon="-4.55582">
        <ele>71</ele>
        <time>2000-01-01T13:58:44.000Z</time>
      </trkpt>
      <trkpt lat="48.17293" lon="-4.55588">
        <ele>83.1</ele>
        <time>2000-01-01T13:58:54.000Z</time>
      </trkpt>
      <trkpt lat="48.17284" lon="-4.55616">
        <ele>72</ele>
        <time>2000-01-01T13:59:04.000Z</time>
      </trkpt>
      <trkpt lat="48.1728" lon="-4.55635">
        <ele>85</ele>
        <time>2000-01-01T13:59:14.000Z</time>
      </trkpt>
      <trkpt lat="48.17266" lon="-4.55644">
        <ele>74</ele>
        <time>2000-01-01T13:59:24.000Z</time>
      </trkpt>
      <trkpt lat="48.17243" lon="-4.55647">
        <ele>74</ele>
        <time>2000-01-01T13:59:34.000Z</time>
      </trkpt>
      <trkpt lat="48.17218" lon="-4.55647">
        <ele>65</ele>
        <time>2000-01-01T13:59:44.000Z</time>
      </trkpt>
      <trkpt lat="48.17196" lon="-4.5564">
        <ele>64</ele>
        <time>2000-01-01T13:59:54.000Z</time>
      </trkpt>
      <trkpt lat="48.17188" lon="-4.55641">
        <ele>84.4</ele>
        <time>2000-01-01T14:00:04.000Z</time>
      </trkpt>
      <trkpt lat="48.17177" lon="-4.55646">
        <ele>64</ele>
        <time>2000-01-01T14:00:14.000Z</time>
      </trkpt>
      <trkpt lat="48.17157" lon="-4.55644">
        <ele>68</ele>
        <time>2000-01-01T14:00:24.000Z</time>
      </trkpt>
      <trkpt lat="48.17132" lon="-4.55634">
        <ele>68</ele>
        <time>2000-01-01T14:00:34.000Z</time>
      </trkpt>
      <trkpt lat="48.17097" lon="-4.5562">
        <ele>69</ele>
        <time>2000-01-01T14:00:44.000Z</time>
      </trkpt>
      <trkpt lat="48.17067" lon="-4.5561">
        <ele>71</ele>
        <time>2000-01-01T14:00:54.000Z</time>
      </trkpt>
      <trkpt lat="48.17064" lon="-4.55608">
        <ele>89.6</ele>
        <time>2000-01-01T14:01:04.000Z</time>
      </trkpt>
      <trkpt lat="48.1706" lon="-4.55599">
        <ele>90.1</ele>
        <time>2000-01-01T14:01:14.000Z</time>
      </trkpt>
      <trkpt lat="48.1706" lon="-4.55596">
        <ele>90.3</ele>
        <time>2000-01-01T14:01:24.000Z</time>
      </trkpt>
      <trkpt lat="48.1706" lon="-4.55599">
        <ele>90.1</ele>
        <time>2000-01-01T14:01:34.000Z</time>
      </trkpt>
      <trkpt lat="48.17053" lon="-4.55592">
        <ele>71</ele>
        <time>2000-01-01T14:01:44.000Z</time>
      </trkpt>
      <trkpt lat="48.17039" lon="-4.5556">
        <ele>72</ele>
        <time>2000-01-01T14:01:54.000Z</time>
      </trkpt>
      <trkpt lat="48.17037" lon="-4.55534">
        <ele>91.7</ele>
        <time>2000-01-01T14:02:04.000Z</time>
      </trkpt>
      <trkpt lat="48.16997" lon="-4.55457">
        <ele>72</ele>
        <time>2000-01-01T14:02:14.000Z</time>
      </trkpt>
      <trkpt lat="48.16997" lon="-4.55459">
        <ele>93.2</ele>
        <time>2000-01-01T14:02:24.000Z</time>
      </trkpt>
      <trkpt lat="48.17017" lon="-4.55403">
        <ele>84</ele>
        <time>2000-01-01T14:02:34.000Z</time>
      </trkpt>
      <trkpt lat="48.17023" lon="-4.55351">
        <ele>88</ele>
        <time>2000-01-01T14:02:44.000Z</time>
      </trkpt>
      <trkpt lat="48.17038" lon="-4.55315">
        <ele>87</ele>
        <time>2000-01-01T14:02:54.000Z</time>
      </trkpt>
      <trkpt lat="48.17065" lon="-4.55252">
        <ele>86</ele>
        <time>2000-01-01T14:03:04.000Z</time>
      </trkpt>
      <trkpt lat="48.17079" lon="-4.55232">
        <ele>86</ele>
        <time>2000-01-01T14:03:14.000Z</time>
      </trkpt>
      <trkpt lat="48.17091" lon="-4.55221">
        <ele>97</ele>
        <time>2000-01-01T14:03:24.000Z</time>
      </trkpt>
      <trkpt lat="48.17096" lon="-4.55209">
        <ele>86</ele>
        <time>2000-01-01T14:03:34.000Z</time>
      </trkpt>
      <trkpt lat="48.17112" lon="-4.55199">
        <ele>96.2</ele>
        <time>2000-01-01T14:03:44.000Z</time>
      </trkpt>
      <trkpt lat="48.17131" lon="-4.5519">
        <ele>87</ele>
        <time>2000-01-01T14:03:54.000Z</time>
      </trkpt>
      <trkpt lat="48.17167" lon="-4.55157">
        <ele>85</ele>
        <time>2000-01-01T14:04:04.000Z</time>
      </trkpt>
      <trkpt lat="48.17131" lon="-4.5519">
        <ele>83</ele>
        <time>2000-01-01T14:04:14.000Z</time>
      </trkpt>
      <trkpt lat="48.17112" lon="-4.55199">
        <ele>83</ele>
        <time>2000-01-01T14:04:24.000Z</time>
      </trkpt>
      <trkpt lat="48.17096" lon="-4.55209">
        <ele>96.8</ele>
        <time>2000-01-01T14:04:34.000Z</time>
      </trkpt>
      <trkpt lat="48.17091" lon="-4.55221">
        <ele>86</ele>
        <time>2000-01-01T14:04:44.000Z</time>
      </trkpt>
      <trkpt lat="48.17079" lon="-4.55232">
        <ele>97</ele>
        <time>2000-01-01T14:04:54.000Z</time>
      </trkpt>
      <trkpt lat="48.17065" lon="-4.55252">
        <ele>86</ele>
        <time>2000-01-01T14:05:04.000Z</time>
      </trkpt>
      <trkpt lat="48.1705" lon="-4.55288">
        <ele>87</ele>
        <time>2000-01-01T14:05:14.000Z</time>
      </trkpt>
      <trkpt lat="48.17023" lon="-4.55351">
        <ele>85</ele>
        <time>2000-01-01T14:05:24.000Z</time>
      </trkpt>
      <trkpt lat="48.17017" lon="-4.55403">
        <ele>84</ele>
        <time>2000-01-01T14:05:34.000Z</time>
      </trkpt>
      <trkpt lat="48.16997" lon="-4.55459">
        <ele>72</ele>
        <time>2000-01-01T14:05:44.000Z</time>
      </trkpt>
      <trkpt lat="48.16993" lon="-4.55447">
        <ele>93.3</ele>
        <time>2000-01-01T14:05:54.000Z</time>
      </trkpt>
      <trkpt lat="48.16988" lon="-4.5544">
        <ele>92.6</ele>
        <time>2000-01-01T14:06:04.000Z</time>
      </trkpt>
      <trkpt lat="48.16986" lon="-4.55432">
        <ele>75</ele>
        <time>2000-01-01T14:06:14.000Z</time>
      </trkpt>
      <trkpt lat="48.16985" lon="-4.5542">
        <ele>93.2</ele>
        <time>2000-01-01T14:06:24.000Z</time>
      </trkpt>
      <trkpt lat="48.16974" lon="-4.554">
        <ele>79</ele>
        <time>2000-01-01T14:06:34.000Z</time>
      </trkpt>
      <trkpt lat="48.16975" lon="-4.55374">
        <ele>94.7</ele>
        <time>2000-01-01T14:06:44.000Z</time>
      </trkpt>
      <trkpt lat="48.16972" lon="-4.55368">
        <ele>77</ele>
        <time>2000-01-01T14:06:54.000Z</time>
      </trkpt>
      <trkpt lat="48.16962" lon="-4.55361">
        <ele>93.9</ele>
        <time>2000-01-01T14:07:04.000Z</time>
      </trkpt>
      <trkpt lat="48.16942" lon="-4.55369">
        <ele>76</ele>
        <time>2000-01-01T14:07:14.000Z</time>
      </trkpt>
      <trkpt lat="48.16926" lon="-4.55379">
        <ele>84.6</ele>
        <time>2000-01-01T14:07:24.000Z</time>
      </trkpt>
      <trkpt lat="48.16914" lon="-4.55382">
        <ele>65</ele>
        <time>2000-01-01T14:07:34.000Z</time>
      </trkpt>
      <trkpt lat="48.1691" lon="-4.5538">
        <ele>81.7</ele>
        <time>2000-01-01T14:07:44.000Z</time>
      </trkpt>
      <trkpt lat="48.16901" lon="-4.55368">
        <ele>81.2</ele>
        <time>2000-01-01T14:07:54.000Z</time>
      </trkpt>
      <trkpt lat="48.16891" lon="-4.55335">
        <ele>49</ele>
        <time>2000-01-01T14:08:04.000Z</time>
      </trkpt>
      <trkpt lat="48.16887" lon="-4.55308">
        <ele>49</ele>
        <time>2000-01-01T14:08:14.000Z</time>
      </trkpt>
      <trkpt lat="48.16887" lon="-4.55266">
        <ele>49</ele>
        <time>2000-01-01T14:08:24.000Z</time>
      </trkpt>
      <trkpt lat="48.16891" lon="-4.55245">
        <ele>82.8</ele>
        <time>2000-01-01T14:08:34.000Z</time>
      </trkpt>
      <trkpt lat="48.16896" lon="-4.55104">
        <ele>73</ele>
        <time>2000-01-01T14:08:44.000Z</time>
      </trkpt>
      <trkpt lat="48.16906" lon="-4.55048">
        <ele>76</ele>
        <time>2000-01-01T14:08:54.000Z</time>
      </trkpt>
      <trkpt lat="48.16914" lon="-4.55025">
        <ele>90.5</ele>
        <time>2000-01-01T14:09:04.000Z</time>
      </trkpt>
      <trkpt lat="48.16919" lon="-4.54999">
        <ele>78</ele>
        <time>2000-01-01T14:09:14.000Z</time>
      </trkpt>
      <trkpt lat="48.16921" lon="-4.5497">
        <ele>77</ele>
        <time>2000-01-01T14:09:24.000Z</time>
      </trkpt>
      <trkpt lat="48.16916" lon="-4.5494">
        <ele>77</ele>
        <time>2000-01-01T14:09:34.000Z</time>
      </trkpt>
      <trkpt lat="48.16915" lon="-4.54907">
        <ele>73</ele>
        <time>2000-01-01T14:09:44.000Z</time>
      </trkpt>
      <trkpt lat="48.16917" lon="-4.54891">
        <ele>89.2</ele>
        <time>2000-01-01T14:09:54.000Z</time>
      </trkpt>
      <trkpt lat="48.16922" lon="-4.54878">
        <ele>66</ele>
        <time>2000-01-01T14:10:04.000Z</time>
      </trkpt>
      <trkpt lat="48.16935" lon="-4.54817">
        <ele>64</ele>
        <time>2000-01-01T14:10:14.000Z</time>
      </trkpt>
      <trkpt lat="48.16939" lon="-4.54783">
        <ele>59</ele>
        <time>2000-01-01T14:10:24.000Z</time>
      </trkpt>
      <trkpt lat="48.16944" lon="-4.54761">
        <ele>88.2</ele>
        <time>2000-01-01T14:10:34.000Z</time>
      </trkpt>
      <trkpt lat="48.16947" lon="-4.54729">
        <ele>54</ele>
        <time>2000-01-01T14:10:44.000Z</time>
      </trkpt>
      <trkpt lat="48.16949" lon="-4.54687">
        <ele>49</ele>
        <time>2000-01-01T14:10:54.000Z</time>
      </trkpt>
      <trkpt lat="48.16954" lon="-4.54665">
        <ele>85.6</ele>
        <time>2000-01-01T14:11:04.000Z</time>
      </trkpt>
      <trkpt lat="48.16955" lon="-4.54649">
        <ele>60</ele>
        <time>2000-01-01T14:11:14.000Z</time>
      </trkpt>
      <trkpt lat="48.16965" lon="-4.54614">
        <ele>65</ele>
        <time>2000-01-01T14:11:24.000Z</time>
      </trkpt>
      <trkpt lat="48.1697" lon="-4.54605">
        <ele>86</ele>
        <time>2000-01-01T14:11:34.000Z</time>
      </trkpt>
      <trkpt lat="48.16975" lon="-4.54599">
        <ele>86.5</ele>
        <time>2000-01-01T14:11:44.000Z</time>
      </trkpt>
      <trkpt lat="48.16977" lon="-4.54598">
        <ele>86.7</ele>
        <time>2000-01-01T14:11:54.000Z</time>
      </trkpt>
      <trkpt lat="48.16991" lon="-4.54595">
        <ele>71</ele>
        <time>2000-01-01T14:12:04.000Z</time>
      </trkpt>
      <trkpt lat="48.17003" lon="-4.54606">
        <ele>90.1</ele>
        <time>2000-01-01T14:12:14.000Z</time>
      </trkpt>
      <trkpt lat="48.17014" lon="-4.54558">
        <ele>75</ele>
        <time>2000-01-01T14:12:24.000Z</time>
      </trkpt>
      <trkpt lat="48.17015" lon="-4.54532">
        <ele>91.1</ele>
        <time>2000-01-01T14:12:34.000Z</time>
      </trkpt>
      <trkpt lat="48.17013" lon="-4.54509">
        <ele>75</ele>
        <time>2000-01-01T14:12:44.000Z</time>
      </trkpt>
      <trkpt lat="48.17009" lon="-4.54491">
        <ele>90.5</ele>
        <time>2000-01-01T14:12:54.000Z</time>
      </trkpt>
      <trkpt lat="48.17008" lon="-4.54478">
        <ele>75</ele>
        <time>2000-01-01T14:13:04.000Z</time>
      </trkpt>
      <trkpt lat="48.17009" lon="-4.54444">
        <ele>75</ele>
        <time>2000-01-01T14:13:14.000Z</time>
      </trkpt>
      <trkpt lat="48.1701" lon="-4.54408">
        <ele>75</ele>
        <time>2000-01-01T14:13:24.000Z</time>
      </trkpt>
      <trkpt lat="48.17003" lon="-4.54377">
        <ele>74</ele>
        <time>2000-01-01T14:13:34.000Z</time>
      </trkpt>
      <trkpt lat="48.1699" lon="-4.54349">
        <ele>70</ele>
        <time>2000-01-01T14:13:44.000Z</time>
      </trkpt>
      <trkpt lat="48.16978" lon="-4.54317">
        <ele>67</ele>
        <time>2000-01-01T14:13:54.000Z</time>
      </trkpt>
      <trkpt lat="48.16977" lon="-4.54309">
        <ele>83.6</ele>
        <time>2000-01-01T14:14:04.000Z</time>
      </trkpt>
      <trkpt lat="48.16979" lon="-4.54301">
        <ele>82.8</ele>
        <time>2000-01-01T14:14:14.000Z</time>
      </trkpt>
      <trkpt lat="48.17006" lon="-4.5427">
        <ele>65</ele>
        <time>2000-01-01T14:14:24.000Z</time>
      </trkpt>
      <trkpt lat="48.17015" lon="-4.54262">
        <ele>83</ele>
        <time>2000-01-01T14:14:34.000Z</time>
      </trkpt>
      <trkpt lat="48.17038" lon="-4.54229">
        <ele>65</ele>
        <time>2000-01-01T14:14:44.000Z</time>
      </trkpt>
      <trkpt lat="48.17041" lon="-4.54191">
        <ele>57</ele>
        <time>2000-01-01T14:14:54.000Z</time>
      </trkpt>
      <trkpt lat="48.17045" lon="-4.54141">
        <ele>49</ele>
        <time>2000-01-01T14:15:04.000Z</time>
      </trkpt>
      <trkpt lat="48.17049" lon="-4.54121">
        <ele>78</ele>
        <time>2000-01-01T14:15:14.000Z</time>
      </trkpt>
      <trkpt lat="48.17056" lon="-4.541">
        <ele>42</ele>
        <time>2000-01-01T14:15:24.000Z</time>
      </trkpt>
      <trkpt lat="48.17056" lon="-4.54092">
        <ele>77.3</ele>
        <time>2000-01-01T14:15:34.000Z</time>
      </trkpt>
      <trkpt lat="48.17058" lon="-4.54085">
        <ele>76.5</ele>
        <time>2000-01-01T14:15:44.000Z</time>
      </trkpt>
      <trkpt lat="48.17065" lon="-4.54078">
        <ele>40</ele>
        <time>2000-01-01T14:15:54.000Z</time>
      </trkpt>
      <trkpt lat="48.17067" lon="-4.5407">
        <ele>72.5</ele>
        <time>2000-01-01T14:16:04.000Z</time>
      </trkpt>
      <trkpt lat="48.17071" lon="-4.54064">
        <ele>71.2</ele>
        <time>2000-01-01T14:16:14.000Z</time>
      </trkpt>
      <trkpt lat="48.17077" lon="-4.54057">
        <ele>40</ele>
        <time>2000-01-01T14:16:24.000Z</time>
      </trkpt>
      <trkpt lat="48.17086" lon="-4.54051">
        <ele>67.7</ele>
        <time>2000-01-01T14:16:34.000Z</time>
      </trkpt>
      <trkpt lat="48.17101" lon="-4.54067">
        <ele>41</ele>
        <time>2000-01-01T14:16:44.000Z</time>
      </trkpt>
      <trkpt lat="48.17119" lon="-4.54096">
        <ele>52</ele>
        <time>2000-01-01T14:16:54.000Z</time>
      </trkpt>
      <trkpt lat="48.17149" lon="-4.54126">
        <ele>46</ele>
        <time>2000-01-01T14:17:04.000Z</time>
      </trkpt>
      <trkpt lat="48.17164" lon="-4.54145">
        <ele>48</ele>
        <time>2000-01-01T14:17:14.000Z</time>
      </trkpt>
      <trkpt lat="48.17183" lon="-4.54177">
        <ele>51</ele>
        <time>2000-01-01T14:17:24.000Z</time>
      </trkpt>
      <trkpt lat="48.17198" lon="-4.54212">
        <ele>56</ele>
        <time>2000-01-01T14:17:34.000Z</time>
      </trkpt>
      <trkpt lat="48.17205" lon="-4.54235">
        <ele>61.4</ele>
        <time>2000-01-01T14:17:44.000Z</time>
      </trkpt>
      <trkpt lat="48.17208" lon="-4.54235">
        <ele>52</ele>
        <time>2000-01-01T14:17:54.000Z</time>
      </trkpt>
      <trkpt lat="48.17208" lon="-4.54222">
        <ele>59.1</ele>
        <time>2000-01-01T14:18:04.000Z</time>
      </trkpt>
      <trkpt lat="48.1721" lon="-4.54221">
        <ele>58.3</ele>
        <time>2000-01-01T14:18:14.000Z</time>
      </trkpt>
      <trkpt lat="48.17212" lon="-4.54223">
        <ele>57.7</ele>
        <time>2000-01-01T14:18:24.000Z</time>
      </trkpt>
      <trkpt lat="48.17218" lon="-4.54235">
        <ele>51</ele>
        <time>2000-01-01T14:18:34.000Z</time>
      </trkpt>
      <trkpt lat="48.17224" lon="-4.54256">
        <ele>55.9</ele>
        <time>2000-01-01T14:18:44.000Z</time>
      </trkpt>
      <trkpt lat="48.17234" lon="-4.54274">
        <ele>50</ele>
        <time>2000-01-01T14:18:54.000Z</time>
      </trkpt>
      <trkpt lat="48.17242" lon="-4.54285">
        <ele>53.7</ele>
        <time>2000-01-01T14:19:04.000Z</time>
      </trkpt>
      <trkpt lat="48.17247" lon="-4.54294">
        <ele>52</ele>
        <time>2000-01-01T14:19:14.000Z</time>
      </trkpt>
      <trkpt lat="48.17268" lon="-4.54312">
        <ele>50</ele>
        <time>2000-01-01T14:19:24.000Z</time>
      </trkpt>
      <trkpt lat="48.17289" lon="-4.54319">
        <ele>49</ele>
        <time>2000-01-01T14:19:34.000Z</time>
      </trkpt>
      <trkpt lat="48.17303" lon="-4.54319">
        <ele>53.8</ele>
        <time>2000-01-01T14:19:44.000Z</time>
      </trkpt>
      <trkpt lat="48.17315" lon="-4.54317">
        <ele>48</ele>
        <time>2000-01-01T14:19:54.000Z</time>
      </trkpt>
      <trkpt lat="48.17328" lon="-4.54307">
        <ele>55.5</ele>
        <time>2000-01-01T14:20:04.000Z</time>
      </trkpt>
      <trkpt lat="48.17338" lon="-4.54303">
        <ele>48</ele>
        <time>2000-01-01T14:20:14.000Z</time>
      </trkpt>
      <trkpt lat="48.17346" lon="-4.54297">
        <ele>58.6</ele>
        <time>2000-01-01T14:20:24.000Z</time>
      </trkpt>
      <trkpt lat="48.17364" lon="-4.54289">
        <ele>51</ele>
        <time>2000-01-01T14:20:34.000Z</time>
      </trkpt>
      <trkpt lat="48.17396" lon="-4.5428">
        <ele>55</ele>
        <time>2000-01-01T14:20:44.000Z</time>
      </trkpt>
      <trkpt lat="48.17423" lon="-4.54277">
        <ele>59</ele>
        <time>2000-01-01T14:20:54.000Z</time>
      </trkpt>
      <trkpt lat="48.17466" lon="-4.54272">
        <ele>59</ele>
        <time>2000-01-01T14:21:04.000Z</time>
      </trkpt>
      <trkpt lat="48.17471" lon="-4.54269">
        <ele>76.9</ele>
        <time>2000-01-01T14:21:14.000Z</time>
      </trkpt>
      <trkpt lat="48.17479" lon="-4.54253">
        <ele>59</ele>
        <time>2000-01-01T14:21:24.000Z</time>
      </trkpt>
      <trkpt lat="48.17479" lon="-4.54236">
        <ele>69.2</ele>
        <time>2000-01-01T14:21:34.000Z</time>
      </trkpt>
      <trkpt lat="48.17484" lon="-4.54226">
        <ele>59</ele>
        <time>2000-01-01T14:21:44.000Z</time>
      </trkpt>
      <trkpt lat="48.17509" lon="-4.54188">
        <ele>57</ele>
        <time>2000-01-01T14:21:54.000Z</time>
      </trkpt>
      <trkpt lat="48.17536" lon="-4.54172">
        <ele>49</ele>
        <time>2000-01-01T14:22:04.000Z</time>
      </trkpt>
      <trkpt lat="48.17557" lon="-4.54157">
        <ele>42</ele>
        <time>2000-01-01T14:22:14.000Z</time>
      </trkpt>
      <trkpt lat="48.17579" lon="-4.54143">
        <ele>48</ele>
        <time>2000-01-01T14:22:24.000Z</time>
      </trkpt>
      <trkpt lat="48.17587" lon="-4.54128">
        <ele>65.3</ele>
        <time>2000-01-01T14:22:34.000Z</time>
      </trkpt>
      <trkpt lat="48.1761" lon="-4.54104">
        <ele>55</ele>
        <time>2000-01-01T14:22:44.000Z</time>
      </trkpt>
      <trkpt lat="48.17617" lon="-4.5409">
        <ele>64.2</ele>
        <time>2000-01-01T14:22:54.000Z</time>
      </trkpt>
      <trkpt lat="48.17641" lon="-4.54061">
        <ele>43</ele>
        <time>2000-01-01T14:23:04.000Z</time>
      </trkpt>
      <trkpt lat="48.1766" lon="-4.54029">
        <ele>40</ele>
        <time>2000-01-01T14:23:14.000Z</time>
      </trkpt>
      <trkpt lat="48.17661" lon="-4.54007">
        <ele>62.5</ele>
        <time>2000-01-01T14:23:24.000Z</time>
      </trkpt>
      <trkpt lat="48.17669" lon="-4.53982">
        <ele>38</ele>
        <time>2000-01-01T14:23:34.000Z</time>
      </trkpt>
      <trkpt lat="48.17677" lon="-4.53983">
        <ele>61.3</ele>
        <time>2000-01-01T14:23:44.000Z</time>
      </trkpt>
      <trkpt lat="48.17692" lon="-4.53994">
        <ele>33</ele>
        <time>2000-01-01T14:23:54.000Z</time>
      </trkpt>
      <trkpt lat="48.17714" lon="-4.54001">
        <ele>36</ele>
        <time>2000-01-01T14:24:04.000Z</time>
      </trkpt>
      <trkpt lat="48.17753" lon="-4.54025">
        <ele>39</ele>
        <time>2000-01-01T14:24:14.000Z</time>
      </trkpt>
      <trkpt lat="48.17769" lon="-4.54048">
        <ele>39</ele>
        <time>2000-01-01T14:24:24.000Z</time>
      </trkpt>
      <trkpt lat="48.17773" lon="-4.54048">
        <ele>44.4</ele>
        <time>2000-01-01T14:24:34.000Z</time>
      </trkpt>
      <trkpt lat="48.17796" lon="-4.54086">
        <ele>36</ele>
        <time>2000-01-01T14:24:44.000Z</time>
      </trkpt>
      <trkpt lat="48.17816" lon="-4.54098">
        <ele>34</ele>
        <time>2000-01-01T14:24:54.000Z</time>
      </trkpt>
      <trkpt lat="48.17824" lon="-4.54093">
        <ele>42.5</ele>
        <time>2000-01-01T14:25:04.000Z</time>
      </trkpt>
      <trkpt lat="48.17831" lon="-4.541">
        <ele>42.7</ele>
        <time>2000-01-01T14:25:14.000Z</time>
      </trkpt>
      <trkpt lat="48.17836" lon="-4.54113">
        <ele>32</ele>
        <time>2000-01-01T14:25:24.000Z</time>
      </trkpt>
      <trkpt lat="48.1784" lon="-4.54136">
        <ele>46.1</ele>
        <time>2000-01-01T14:25:34.000Z</time>
      </trkpt>
      <trkpt lat="48.17845" lon="-4.54139">
        <ele>31</ele>
        <time>2000-01-01T14:25:44.000Z</time>
      </trkpt>
      <trkpt lat="48.17851" lon="-4.54149">
        <ele>45.9</ele>
        <time>2000-01-01T14:25:54.000Z</time>
      </trkpt>
      <trkpt lat="48.17855" lon="-4.54152">
        <ele>45.6</ele>
        <time>2000-01-01T14:26:04.000Z</time>
      </trkpt>
      <trkpt lat="48.1786" lon="-4.5415">
        <ele>30</ele>
        <time>2000-01-01T14:26:14.000Z</time>
      </trkpt>
      <trkpt lat="48.1787" lon="-4.54148">
        <ele>44</ele>
        <time>2000-01-01T14:26:24.000Z</time>
      </trkpt>
      <trkpt lat="48.17875" lon="-4.54139">
        <ele>42.5</ele>
        <time>2000-01-01T14:26:34.000Z</time>
      </trkpt>
      <trkpt lat="48.17887" lon="-4.54136">
        <ele>30</ele>
        <time>2000-01-01T14:26:44.000Z</time>
      </trkpt>
      <trkpt lat="48.17912" lon="-4.54136">
        <ele>30</ele>
        <time>2000-01-01T14:26:54.000Z</time>
      </trkpt>
      <trkpt lat="48.17924" lon="-4.54142">
        <ele>45.5</ele>
        <time>2000-01-01T14:27:04.000Z</time>
      </trkpt>
      <trkpt lat="48.17949" lon="-4.54144">
        <ele>31</ele>
        <time>2000-01-01T14:27:14.000Z</time>
      </trkpt>
      <trkpt lat="48.1797" lon="-4.54139">
        <ele>31</ele>
        <time>2000-01-01T14:27:24.000Z</time>
      </trkpt>
      <trkpt lat="48.17981" lon="-4.54145">
        <ele>51.1</ele>
        <time>2000-01-01T14:27:34.000Z</time>
      </trkpt>
      <trkpt lat="48.17992" lon="-4.54144">
        <ele>32</ele>
        <time>2000-01-01T14:27:44.000Z</time>
      </trkpt>
      <trkpt lat="48.17998" lon="-4.54139">
        <ele>52.7</ele>
        <time>2000-01-01T14:27:54.000Z</time>
      </trkpt>
      <trkpt lat="48.18007" lon="-4.54145">
        <ele>54.4</ele>
        <time>2000-01-01T14:28:04.000Z</time>
      </trkpt>
      <trkpt lat="48.18021" lon="-4.54137">
        <ele>34</ele>
        <time>2000-01-01T14:28:14.000Z</time>
      </trkpt>
      <trkpt lat="48.1804" lon="-4.54132">
        <ele>34</ele>
        <time>2000-01-01T14:28:24.000Z</time>
      </trkpt>
      <trkpt lat="48.18056" lon="-4.54136">
        <ele>57.7</ele>
        <time>2000-01-01T14:28:34.000Z</time>
      </trkpt>
      <trkpt lat="48.18075" lon="-4.54135">
        <ele>36</ele>
        <time>2000-01-01T14:28:44.000Z</time>
      </trkpt>
      <trkpt lat="48.18082" lon="-4.54131">
        <ele>61.1</ele>
        <time>2000-01-01T14:28:54.000Z</time>
      </trkpt>
      <trkpt lat="48.18106" lon="-4.54109">
        <ele>32</ele>
        <time>2000-01-01T14:29:04.000Z</time>
      </trkpt>
      <trkpt lat="48.18114" lon="-4.54097">
        <ele>56.3</ele>
        <time>2000-01-01T14:29:14.000Z</time>
      </trkpt>
      <trkpt lat="48.18121" lon="-4.54081">
        <ele>35</ele>
        <time>2000-01-01T14:29:24.000Z</time>
      </trkpt>
      <trkpt lat="48.1813" lon="-4.5407">
        <ele>56.4</ele>
        <time>2000-01-01T14:29:34.000Z</time>
      </trkpt>
      <trkpt lat="48.18138" lon="-4.54047">
        <ele>17</ele>
        <time>2000-01-01T14:29:44.000Z</time>
      </trkpt>
      <trkpt lat="48.1814" lon="-4.53999">
        <ele>48.1</ele>
        <time>2000-01-01T14:29:54.000Z</time>
      </trkpt>
      <trkpt lat="48.18151" lon="-4.53961">
        <ele>41.2</ele>
        <time>2000-01-01T14:30:04.000Z</time>
      </trkpt>
      <trkpt lat="48.18158" lon="-4.53949">
        <ele>44.1</ele>
        <time>2000-01-01T14:30:14.000Z</time>
      </trkpt>
      <trkpt lat="48.18179" lon="-4.53919">
        <ele>11</ele>
        <time>2000-01-01T14:30:24.000Z</time>
      </trkpt>
      <trkpt lat="48.18188" lon="-4.53872">
        <ele>15</ele>
        <time>2000-01-01T14:30:34.000Z</time>
      </trkpt>
      <trkpt lat="48.18191" lon="-4.53864">
        <ele>46.1</ele>
        <time>2000-01-01T14:30:44.000Z</time>
      </trkpt>
      <trkpt lat="48.18202" lon="-4.53841">
        <ele>20</ele>
        <time>2000-01-01T14:30:54.000Z</time>
      </trkpt>
      <trkpt lat="48.18233" lon="-4.5382">
        <ele>25</ele>
        <time>2000-01-01T14:31:04.000Z</time>
      </trkpt>
      <trkpt lat="48.18248" lon="-4.53816">
        <ele>53</ele>
        <time>2000-01-01T14:31:14.000Z</time>
      </trkpt>
      <trkpt lat="48.1826" lon="-4.53817">
        <ele>37</ele>
        <time>2000-01-01T14:31:24.000Z</time>
      </trkpt>
      <trkpt lat="48.18273" lon="-4.53822">
        <ele>53.5</ele>
        <time>2000-01-01T14:31:34.000Z</time>
      </trkpt>
      <trkpt lat="48.18289" lon="-4.53824">
        <ele>38</ele>
        <time>2000-01-01T14:31:44.000Z</time>
      </trkpt>
      <trkpt lat="48.18295" lon="-4.53821">
        <ele>59.7</ele>
        <time>2000-01-01T14:31:54.000Z</time>
      </trkpt>
      <trkpt lat="48.18307" lon="-4.53802">
        <ele>40</ele>
        <time>2000-01-01T14:32:04.000Z</time>
      </trkpt>
      <trkpt lat="48.18323" lon="-4.53786">
        <ele>40</ele>
        <time>2000-01-01T14:32:14.000Z</time>
      </trkpt>
      <trkpt lat="48.18338" lon="-4.53756">
        <ele>47</ele>
        <time>2000-01-01T14:32:24.000Z</time>
      </trkpt>
      <trkpt lat="48.18345" lon="-4.53747">
        <ele>63.5</ele>
        <time>2000-01-01T14:32:34.000Z</time>
      </trkpt>
      <trkpt lat="48.18354" lon="-4.53745">
        <ele>49</ele>
        <time>2000-01-01T14:32:44.000Z</time>
      </trkpt>
      <trkpt lat="48.18357" lon="-4.53749">
        <ele>69</ele>
        <time>2000-01-01T14:32:54.000Z</time>
      </trkpt>
      <trkpt lat="48.18365" lon="-4.53737">
        <ele>69.6</ele>
        <time>2000-01-01T14:33:04.000Z</time>
      </trkpt>
      <trkpt lat="48.18375" lon="-4.53726">
        <ele>51</ele>
        <time>2000-01-01T14:33:14.000Z</time>
      </trkpt>
      <trkpt lat="48.18386" lon="-4.53719">
        <ele>72.7</ele>
        <time>2000-01-01T14:33:24.000Z</time>
      </trkpt>
      <trkpt lat="48.18393" lon="-4.53717">
        <ele>53</ele>
        <time>2000-01-01T14:33:34.000Z</time>
      </trkpt>
      <trkpt lat="48.18401" lon="-4.5371">
        <ele>76.7</ele>
        <time>2000-01-01T14:33:44.000Z</time>
      </trkpt>
      <trkpt lat="48.18403" lon="-4.537">
        <ele>75.7</ele>
        <time>2000-01-01T14:33:54.000Z</time>
      </trkpt>
      <trkpt lat="48.184" lon="-4.53675">
        <ele>54</ele>
        <time>2000-01-01T14:34:04.000Z</time>
      </trkpt>
      <trkpt lat="48.18402" lon="-4.53666">
        <ele>75.1</ele>
        <time>2000-01-01T14:34:14.000Z</time>
      </trkpt>
      <trkpt lat="48.18398" lon="-4.53618">
        <ele>55</ele>
        <time>2000-01-01T14:34:24.000Z</time>
      </trkpt>
      <trkpt lat="48.18393" lon="-4.53609">
        <ele>78.8</ele>
        <time>2000-01-01T14:34:34.000Z</time>
      </trkpt>
      <trkpt lat="48.18388" lon="-4.53604">
        <ele>77.1</ele>
        <time>2000-01-01T14:34:44.000Z</time>
      </trkpt>
      <trkpt lat="48.18381" lon="-4.53582">
        <ele>44</ele>
        <time>2000-01-01T14:34:54.000Z</time>
      </trkpt>
      <trkpt lat="48.18377" lon="-4.5356">
        <ele>75.9</ele>
        <time>2000-01-01T14:35:04.000Z</time>
      </trkpt>
      <trkpt lat="48.18379" lon="-4.53545">
        <ele>57</ele>
        <time>2000-01-01T14:35:14.000Z</time>
      </trkpt>
      <trkpt lat="48.18394" lon="-4.53518">
        <ele>56</ele>
        <time>2000-01-01T14:35:24.000Z</time>
      </trkpt>
      <trkpt lat="48.18409" lon="-4.53488">
        <ele>56</ele>
        <time>2000-01-01T14:35:34.000Z</time>
      </trkpt>
      <trkpt lat="48.1843" lon="-4.5344">
        <ele>58</ele>
        <time>2000-01-01T14:35:44.000Z</time>
      </trkpt>
      <trkpt lat="48.18439" lon="-4.53407">
        <ele>60</ele>
        <time>2000-01-01T14:35:54.000Z</time>
      </trkpt>
      <trkpt lat="48.18449" lon="-4.53371">
        <ele>73</ele>
        <time>2000-01-01T14:36:04.000Z</time>
      </trkpt>
      <trkpt lat="48.18465" lon="-4.53343">
        <ele>85</ele>
        <time>2000-01-01T14:36:14.000Z</time>
      </trkpt>
      <trkpt lat="48.18476" lon="-4.53318">
        <ele>79</ele>
        <time>2000-01-01T14:36:24.000Z</time>
      </trkpt>
      <trkpt lat="48.18499" lon="-4.53284">
        <ele>80</ele>
        <time>2000-01-01T14:36:34.000Z</time>
      </trkpt>
      <trkpt lat="48.18522" lon="-4.53251">
        <ele>78</ele>
        <time>2000-01-01T14:36:44.000Z</time>
      </trkpt>
      <trkpt lat="48.18557" lon="-4.53199">
        <ele>76</ele>
        <time>2000-01-01T14:36:54.000Z</time>
      </trkpt>
      <trkpt lat="48.1856" lon="-4.53163">
        <ele>74</ele>
        <time>2000-01-01T14:37:04.000Z</time>
      </trkpt>
      <trkpt lat="48.18564" lon="-4.53122">
        <ele>74</ele>
        <time>2000-01-01T14:37:14.000Z</time>
      </trkpt>
      <trkpt lat="48.18582" lon="-4.53121">
        <ele>74</ele>
        <time>2000-01-01T14:37:24.000Z</time>
      </trkpt>
      <trkpt lat="48.18602" lon="-4.53101">
        <ele>80</ele>
        <time>2000-01-01T14:37:34.000Z</time>
      </trkpt>
      <trkpt lat="48.18616" lon="-4.53074">
        <ele>80</ele>
        <time>2000-01-01T14:37:44.000Z</time>
      </trkpt>
      <trkpt lat="48.18627" lon="-4.53063">
        <ele>90</ele>
        <time>2000-01-01T14:37:54.000Z</time>
      </trkpt>
      <trkpt lat="48.18634" lon="-4.53063">
        <ele>80</ele>
        <time>2000-01-01T14:38:04.000Z</time>
      </trkpt>
      <trkpt lat="48.1864" lon="-4.53045">
        <ele>92.7</ele>
        <time>2000-01-01T14:38:14.000Z</time>
      </trkpt>
      <trkpt lat="48.18679" lon="-4.52985">
        <ele>80</ele>
        <time>2000-01-01T14:38:24.000Z</time>
      </trkpt>
      <trkpt lat="48.18677" lon="-4.52957">
        <ele>72</ele>
        <time>2000-01-01T14:38:34.000Z</time>
      </trkpt>
      <trkpt lat="48.18677" lon="-4.52931">
        <ele>92.6</ele>
        <time>2000-01-01T14:38:44.000Z</time>
      </trkpt>
      <trkpt lat="48.1868" lon="-4.52911">
        <ele>72</ele>
        <time>2000-01-01T14:38:54.000Z</time>
      </trkpt>
      <trkpt lat="48.18689" lon="-4.52895">
        <ele>92.5</ele>
        <time>2000-01-01T14:39:04.000Z</time>
      </trkpt>
      <trkpt lat="48.18701" lon="-4.52883">
        <ele>72</ele>
        <time>2000-01-01T14:39:14.000Z</time>
      </trkpt>
      <trkpt lat="48.18702" lon="-4.5286">
        <ele>92.7</ele>
        <time>2000-01-01T14:39:24.000Z</time>
      </trkpt>
      <trkpt lat="48.18707" lon="-4.52849">
        <ele>76</ele>
        <time>2000-01-01T14:39:34.000Z</time>
      </trkpt>
      <trkpt lat="48.18713" lon="-4.52842">
        <ele>92.6</ele>
        <time>2000-01-01T14:39:44.000Z</time>
      </trkpt>
      <trkpt lat="48.18732" lon="-4.52805">
        <ele>75</ele>
        <time>2000-01-01T14:39:54.000Z</time>
      </trkpt>
      <trkpt lat="48.1874" lon="-4.52782">
        <ele>88.6</ele>
        <time>2000-01-01T14:40:04.000Z</time>
      </trkpt>
      <trkpt lat="48.18774" lon="-4.52736">
        <ele>75</ele>
        <time>2000-01-01T14:40:14.000Z</time>
      </trkpt>
      <trkpt lat="48.18795" lon="-4.52721">
        <ele>68</ele>
        <time>2000-01-01T14:40:24.000Z</time>
      </trkpt>
      <trkpt lat="48.18794" lon="-4.52713">
        <ele>78.2</ele>
        <time>2000-01-01T14:40:34.000Z</time>
      </trkpt>
      <trkpt lat="48.18806" lon="-4.52692">
        <ele>55</ele>
        <time>2000-01-01T14:40:44.000Z</time>
      </trkpt>
      <trkpt lat="48.18817" lon="-4.52684">
        <ele>67.9</ele>
        <time>2000-01-01T14:40:54.000Z</time>
      </trkpt>
      <trkpt lat="48.18825" lon="-4.52682">
        <ele>51</ele>
        <time>2000-01-01T14:41:04.000Z</time>
      </trkpt>
      <trkpt lat="48.18832" lon="-4.52676">
        <ele>64.7</ele>
        <time>2000-01-01T14:41:14.000Z</time>
      </trkpt>
      <trkpt lat="48.18842" lon="-4.52674">
        <ele>53</ele>
        <time>2000-01-01T14:41:24.000Z</time>
      </trkpt>
      <trkpt lat="48.18856" lon="-4.52676">
        <ele>65</ele>
        <time>2000-01-01T14:41:34.000Z</time>
      </trkpt>
      <trkpt lat="48.18865" lon="-4.52682">
        <ele>56</ele>
        <time>2000-01-01T14:41:44.000Z</time>
      </trkpt>
      <trkpt lat="48.1888" lon="-4.52707">
        <ele>56</ele>
        <time>2000-01-01T14:41:54.000Z</time>
      </trkpt>
      <trkpt lat="48.1889" lon="-4.52707">
        <ele>70.5</ele>
        <time>2000-01-01T14:42:04.000Z</time>
      </trkpt>
      <trkpt lat="48.18896" lon="-4.52704">
        <ele>71.3</ele>
        <time>2000-01-01T14:42:14.000Z</time>
      </trkpt>
      <trkpt lat="48.18897" lon="-4.527">
        <ele>56</ele>
        <time>2000-01-01T14:42:24.000Z</time>
      </trkpt>
      <trkpt lat="48.18895" lon="-4.52699">
        <ele>70.4</ele>
        <time>2000-01-01T14:42:34.000Z</time>
      </trkpt>
      <trkpt lat="48.18897" lon="-4.52696">
        <ele>70.5</ele>
        <time>2000-01-01T14:42:44.000Z</time>
      </trkpt>
      <trkpt lat="48.18893" lon="-4.52696">
        <ele>69.4</ele>
        <time>2000-01-01T14:42:54.000Z</time>
      </trkpt>
      <trkpt lat="48.18895" lon="-4.52688">
        <ele>70.8</ele>
        <time>2000-01-01T14:43:04.000Z</time>
      </trkpt>
      <trkpt lat="48.189" lon="-4.52681">
        <ele>56</ele>
        <time>2000-01-01T14:43:14.000Z</time>
      </trkpt>
      <trkpt lat="48.18923" lon="-4.52679">
        <ele>65</ele>
        <time>2000-01-01T14:43:24.000Z</time>
      </trkpt>
      <trkpt lat="48.18937" lon="-4.5267">
        <ele>87.4</ele>
        <time>2000-01-01T14:43:34.000Z</time>
      </trkpt>
      <trkpt lat="48.1896" lon="-4.52649">
        <ele>76</ele>
        <time>2000-01-01T14:43:44.000Z</time>
      </trkpt>
      <trkpt lat="48.18983" lon="-4.52626">
        <ele>83</ele>
        <time>2000-01-01T14:43:54.000Z</time>
      </trkpt>
      <trkpt lat="48.18993" lon="-4.526">
        <ele>85</ele>
        <time>2000-01-01T14:44:04.000Z</time>
      </trkpt>
      <trkpt lat="48.19" lon="-4.52579">
        <ele>99</ele>
        <time>2000-01-01T14:44:14.000Z</time>
      </trkpt>
      <trkpt lat="48.19004" lon="-4.52566">
        <ele>87</ele>
        <time>2000-01-01T14:44:24.000Z</time>
      </trkpt>
      <trkpt lat="48.19007" lon="-4.52554">
        <ele>99</ele>
        <time>2000-01-01T14:44:34.000Z</time>
      </trkpt>
      <trkpt lat="48.19013" lon="-4.52537">
        <ele>85</ele>
        <time>2000-01-01T14:44:44.000Z</time>
      </trkpt>
      <trkpt lat="48.19018" lon="-4.52517">
        <ele>97.7</ele>
        <time>2000-01-01T14:44:54.000Z</time>
      </trkpt>
      <trkpt lat="48.19025" lon="-4.525">
        <ele>84</ele>
        <time>2000-01-01T14:45:04.000Z</time>
      </trkpt>
      <trkpt lat="48.19032" lon="-4.52487">
        <ele>96.7</ele>
        <time>2000-01-01T14:45:14.000Z</time>
      </trkpt>
      <trkpt lat="48.19042" lon="-4.52466">
        <ele>83</ele>
        <time>2000-01-01T14:45:24.000Z</time>
      </trkpt>
      <trkpt lat="48.19051" lon="-4.52453">
        <ele>94.4</ele>
        <time>2000-01-01T14:45:34.000Z</time>
      </trkpt>
      <trkpt lat="48.1906" lon="-4.52438">
        <ele>82</ele>
        <time>2000-01-01T14:45:44.000Z</time>
      </trkpt>
      <trkpt lat="48.19066" lon="-4.52438">
        <ele>91.7</ele>
        <time>2000-01-01T14:45:54.000Z</time>
      </trkpt>
      <trkpt lat="48.19072" lon="-4.52445">
        <ele>92.9</ele>
        <time>2000-01-01T14:46:04.000Z</time>
      </trkpt>
      <trkpt lat="48.19076" lon="-4.52443">
        <ele>92.1</ele>
        <time>2000-01-01T14:46:14.000Z</time>
      </trkpt>
      <trkpt lat="48.19093" lon="-4.52441">
        <ele>85</ele>
        <time>2000-01-01T14:46:24.000Z</time>
      </trkpt>
      <trkpt lat="48.19121" lon="-4.52432">
        <ele>84</ele>
        <time>2000-01-01T14:46:34.000Z</time>
      </trkpt>
      <trkpt lat="48.19168" lon="-4.52417">
        <ele>83</ele>
        <time>2000-01-01T14:46:44.000Z</time>
      </trkpt>
      <trkpt lat="48.19189" lon="-4.52396">
        <ele>86</ele>
        <time>2000-01-01T14:46:54.000Z</time>
      </trkpt>
      <trkpt lat="48.19203" lon="-4.52387">
        <ele>93.1</ele>
        <time>2000-01-01T14:47:04.000Z</time>
      </trkpt>
      <trkpt lat="48.19219" lon="-4.52371">
        <ele>85</ele>
        <time>2000-01-01T14:47:14.000Z</time>
      </trkpt>
      <trkpt lat="48.19252" lon="-4.52332">
        <ele>84</ele>
        <time>2000-01-01T14:47:24.000Z</time>
      </trkpt>
      <trkpt lat="48.19264" lon="-4.52321">
        <ele>93.1</ele>
        <time>2000-01-01T14:47:34.000Z</time>
      </trkpt>
      <trkpt lat="48.19269" lon="-4.52321">
        <ele>84</ele>
        <time>2000-01-01T14:47:44.000Z</time>
      </trkpt>
      <trkpt lat="48.19272" lon="-4.52317">
        <ele>92.8</ele>
        <time>2000-01-01T14:47:54.000Z</time>
      </trkpt>
      <trkpt lat="48.19279" lon="-4.52319">
        <ele>92.9</ele>
        <time>2000-01-01T14:48:04.000Z</time>
      </trkpt>
      <trkpt lat="48.19321" lon="-4.52361">
        <ele>83</ele>
        <time>2000-01-01T14:48:14.000Z</time>
      </trkpt>
      <trkpt lat="48.19343" lon="-4.52362">
        <ele>83</ele>
        <time>2000-01-01T14:48:24.000Z</time>
      </trkpt>
      <trkpt lat="48.19366" lon="-4.52367">
        <ele>84</ele>
        <time>2000-01-01T14:48:34.000Z</time>
      </trkpt>
      <trkpt lat="48.19406" lon="-4.52366">
        <ele>84</ele>
        <time>2000-01-01T14:48:44.000Z</time>
      </trkpt>
      <trkpt lat="48.19409" lon="-4.52363">
        <ele>90.5</ele>
        <time>2000-01-01T14:48:54.000Z</time>
      </trkpt>
      <trkpt lat="48.19412" lon="-4.52363">
        <ele>90.4</ele>
        <time>2000-01-01T14:49:04.000Z</time>
      </trkpt>
      <trkpt lat="48.19442" lon="-4.52365">
        <ele>84</ele>
        <time>2000-01-01T14:49:14.000Z</time>
      </trkpt>
      <trkpt lat="48.19453" lon="-4.52368">
        <ele>93.3</ele>
        <time>2000-01-01T14:49:24.000Z</time>
      </trkpt>
      <trkpt lat="48.19463" lon="-4.52368">
        <ele>83</ele>
        <time>2000-01-01T14:49:34.000Z</time>
      </trkpt>
      <trkpt lat="48.19473" lon="-4.52365">
        <ele>94.3</ele>
        <time>2000-01-01T14:49:44.000Z</time>
      </trkpt>
      <trkpt lat="48.19496" lon="-4.52363">
        <ele>84</ele>
        <time>2000-01-01T14:49:54.000Z</time>
      </trkpt>
      <trkpt lat="48.19504" lon="-4.52357">
        <ele>94.7</ele>
        <time>2000-01-01T14:50:04.000Z</time>
      </trkpt>
      <trkpt lat="48.19562" lon="-4.52346">
        <ele>81</ele>
        <time>2000-01-01T14:50:14.000Z</time>
      </trkpt>
      <trkpt lat="48.19581" lon="-4.52312">
        <ele>79</ele>
        <time>2000-01-01T14:50:24.000Z</time>
      </trkpt>
      <trkpt lat="48.19596" lon="-4.5229">
        <ele>74</ele>
        <time>2000-01-01T14:50:34.000Z</time>
      </trkpt>
      <trkpt lat="48.19613" lon="-4.5225">
        <ele>74</ele>
        <time>2000-01-01T14:50:44.000Z</time>
      </trkpt>
      <trkpt lat="48.19636" lon="-4.52222">
        <ele>74</ele>
        <time>2000-01-01T14:50:54.000Z</time>
      </trkpt>
      <trkpt lat="48.19652" lon="-4.52184">
        <ele>69</ele>
        <time>2000-01-01T14:51:04.000Z</time>
      </trkpt>
      <trkpt lat="48.19658" lon="-4.52177">
        <ele>84.2</ele>
        <time>2000-01-01T14:51:14.000Z</time>
      </trkpt>
      <trkpt lat="48.19688" lon="-4.52118">
        <ele>62</ele>
        <time>2000-01-01T14:51:24.000Z</time>
      </trkpt>
      <trkpt lat="48.19698" lon="-4.52102">
        <ele>85.2</ele>
        <time>2000-01-01T14:51:34.000Z</time>
      </trkpt>
      <trkpt lat="48.197" lon="-4.52092">
        <ele>56</ele>
        <time>2000-01-01T14:51:44.000Z</time>
      </trkpt>
      <trkpt lat="48.19707" lon="-4.52087">
        <ele>85.9</ele>
        <time>2000-01-01T14:51:54.000Z</time>
      </trkpt>
      <trkpt lat="48.19724" lon="-4.52037">
        <ele>54</ele>
        <time>2000-01-01T14:52:04.000Z</time>
      </trkpt>
      <trkpt lat="48.19731" lon="-4.52038">
        <ele>85.6</ele>
        <time>2000-01-01T14:52:14.000Z</time>
      </trkpt>
      <trkpt lat="48.19742" lon="-4.52051">
        <ele>54</ele>
        <time>2000-01-01T14:52:24.000Z</time>
      </trkpt>
      <trkpt lat="48.19758" lon="-4.52061">
        <ele>88.1</ele>
        <time>2000-01-01T14:52:34.000Z</time>
      </trkpt>
      <trkpt lat="48.19765" lon="-4.52064">
        <ele>55</ele>
        <time>2000-01-01T14:52:44.000Z</time>
      </trkpt>
      <trkpt lat="48.19771" lon="-4.52063">
        <ele>87.5</ele>
        <time>2000-01-01T14:52:54.000Z</time>
      </trkpt>
      <trkpt lat="48.19791" lon="-4.52053">
        <ele>65</ele>
        <time>2000-01-01T14:53:04.000Z</time>
      </trkpt>
      <trkpt lat="48.19808" lon="-4.52033">
        <ele>70</ele>
        <time>2000-01-01T14:53:14.000Z</time>
      </trkpt>
      <trkpt lat="48.19819" lon="-4.52034">
        <ele>87.6</ele>
        <time>2000-01-01T14:53:24.000Z</time>
      </trkpt>
      <trkpt lat="48.1984" lon="-4.52029">
        <ele>71</ele>
        <time>2000-01-01T14:53:34.000Z</time>
      </trkpt>
      <trkpt lat="48.19864" lon="-4.52014">
        <ele>72</ele>
        <time>2000-01-01T14:53:44.000Z</time>
      </trkpt>
      <trkpt lat="48.19879" lon="-4.52015">
        <ele>90.1</ele>
        <time>2000-01-01T14:53:54.000Z</time>
      </trkpt>
      <trkpt lat="48.19887" lon="-4.52013">
        <ele>85</ele>
        <time>2000-01-01T14:54:04.000Z</time>
      </trkpt>
      <trkpt lat="48.19911" lon="-4.51997">
        <ele>79</ele>
        <time>2000-01-01T14:54:14.000Z</time>
      </trkpt>
      <trkpt lat="48.19938" lon="-4.51974">
        <ele>77</ele>
        <time>2000-01-01T14:54:24.000Z</time>
      </trkpt>
      <trkpt lat="48.19949" lon="-4.51941">
        <ele>79</ele>
        <time>2000-01-01T14:54:34.000Z</time>
      </trkpt>
      <trkpt lat="48.19953" lon="-4.51935">
        <ele>90.6</ele>
        <time>2000-01-01T14:54:44.000Z</time>
      </trkpt>
      <trkpt lat="48.19961" lon="-4.51908">
        <ele>77</ele>
        <time>2000-01-01T14:54:54.000Z</time>
      </trkpt>
      <trkpt lat="48.19968" lon="-4.51873">
        <ele>76</ele>
        <time>2000-01-01T14:55:04.000Z</time>
      </trkpt>
      <trkpt lat="48.19974" lon="-4.51838">
        <ele>69</ele>
        <time>2000-01-01T14:55:14.000Z</time>
      </trkpt>
      <trkpt lat="48.19981" lon="-4.51799">
        <ele>66</ele>
        <time>2000-01-01T14:55:24.000Z</time>
      </trkpt>
      <trkpt lat="48.19978" lon="-4.51766">
        <ele>66</ele>
        <time>2000-01-01T14:55:34.000Z</time>
      </trkpt>
      <trkpt lat="48.19979" lon="-4.51758">
        <ele>85.7</ele>
        <time>2000-01-01T14:55:44.000Z</time>
      </trkpt>
      <trkpt lat="48.20008" lon="-4.51726">
        <ele>66</ele>
        <time>2000-01-01T14:55:54.000Z</time>
      </trkpt>
      <trkpt lat="48.2001" lon="-4.51725">
        <ele>87.2</ele>
        <time>2000-01-01T14:56:04.000Z</time>
      </trkpt>
      <trkpt lat="48.20028" lon="-4.51691">
        <ele>66</ele>
        <time>2000-01-01T14:56:14.000Z</time>
      </trkpt>
      <trkpt lat="48.20045" lon="-4.51644">
        <ele>67</ele>
        <time>2000-01-01T14:56:24.000Z</time>
      </trkpt>
      <trkpt lat="48.20065" lon="-4.51615">
        <ele>55</ele>
        <time>2000-01-01T14:56:34.000Z</time>
      </trkpt>
      <trkpt lat="48.20098" lon="-4.51569">
        <ele>44</ele>
        <time>2000-01-01T14:56:44.000Z</time>
      </trkpt>
      <trkpt lat="48.2011" lon="-4.51537">
        <ele>41</ele>
        <time>2000-01-01T14:56:54.000Z</time>
      </trkpt>
      <trkpt lat="48.20136" lon="-4.51517">
        <ele>39</ele>
        <time>2000-01-01T14:57:04.000Z</time>
      </trkpt>
      <trkpt lat="48.20141" lon="-4.51504">
        <ele>62.4</ele>
        <time>2000-01-01T14:57:14.000Z</time>
      </trkpt>
      <trkpt lat="48.20144" lon="-4.51491">
        <ele>57.2</ele>
        <time>2000-01-01T14:57:24.000Z</time>
      </trkpt>
      <trkpt lat="48.20143" lon="-4.51484">
        <ele>54</ele>
        <time>2000-01-01T14:57:34.000Z</time>
      </trkpt>
      <trkpt lat="48.20144" lon="-4.51481">
        <ele>52.8</ele>
        <time>2000-01-01T14:57:44.000Z</time>
      </trkpt>
      <trkpt lat="48.20162" lon="-4.51471">
        <ele>51.7</ele>
        <time>2000-01-01T14:57:54.000Z</time>
      </trkpt>
      <trkpt lat="48.20172" lon="-4.51463">
        <ele>48.3</ele>
        <time>2000-01-01T14:58:04.000Z</time>
      </trkpt>
      <trkpt lat="48.20184" lon="-4.51469">
        <ele>47.4</ele>
        <time>2000-01-01T14:58:14.000Z</time>
      </trkpt>
      <trkpt lat="48.20203" lon="-4.51477">
        <ele>11</ele>
        <time>2000-01-01T14:58:24.000Z</time>
      </trkpt>
      <trkpt lat="48.20234" lon="-4.51497">
        <ele>15</ele>
        <time>2000-01-01T14:58:34.000Z</time>
      </trkpt>
      <trkpt lat="48.20256" lon="-4.51504">
        <ele>19</ele>
        <time>2000-01-01T14:58:44.000Z</time>
      </trkpt>
      <trkpt lat="48.20288" lon="-4.51527">
        <ele>21</ele>
        <time>2000-01-01T14:58:54.000Z</time>
      </trkpt>
      <trkpt lat="48.20315" lon="-4.51542">
        <ele>20</ele>
        <time>2000-01-01T14:59:04.000Z</time>
      </trkpt>
      <trkpt lat="48.20322" lon="-4.51543">
        <ele>44.3</ele>
        <time>2000-01-01T14:59:14.000Z</time>
      </trkpt>
      <trkpt lat="48.20334" lon="-4.51552">
        <ele>27</ele>
        <time>2000-01-01T14:59:24.000Z</time>
      </trkpt>
      <trkpt lat="48.20349" lon="-4.51559">
        <ele>47.4</ele>
        <time>2000-01-01T14:59:34.000Z</time>
      </trkpt>
      <trkpt lat="48.20364" lon="-4.51578">
        <ele>34</ele>
        <time>2000-01-01T14:59:44.000Z</time>
      </trkpt>
      <trkpt lat="48.20379" lon="-4.51591">
        <ele>56.8</ele>
        <time>2000-01-01T14:59:54.000Z</time>
      </trkpt>
      <trkpt lat="48.20392" lon="-4.51592">
        <ele>68</ele>
        <time>2000-01-01T15:00:04.000Z</time>
      </trkpt>
      <trkpt lat="48.20398" lon="-4.51598">
        <ele>57</ele>
        <time>2000-01-01T15:00:14.000Z</time>
      </trkpt>
      <trkpt lat="48.20407" lon="-4.51601">
        <ele>57.3</ele>
        <time>2000-01-01T15:00:24.000Z</time>
      </trkpt>
      <trkpt lat="48.20422" lon="-4.51599">
        <ele>70</ele>
        <time>2000-01-01T15:00:34.000Z</time>
      </trkpt>
      <trkpt lat="48.20449" lon="-4.51614">
        <ele>69</ele>
        <time>2000-01-01T15:00:44.000Z</time>
      </trkpt>
      <trkpt lat="48.20456" lon="-4.51621">
        <ele>65.9</ele>
        <time>2000-01-01T15:00:54.000Z</time>
      </trkpt>
      <trkpt lat="48.2047" lon="-4.51627">
        <ele>70</ele>
        <time>2000-01-01T15:01:04.000Z</time>
      </trkpt>
      <trkpt lat="48.20486" lon="-4.51616">
        <ele>66.7</ele>
        <time>2000-01-01T15:01:14.000Z</time>
      </trkpt>
      <trkpt lat="48.20492" lon="-4.51614">
        <ele>70</ele>
        <time>2000-01-01T15:01:24.000Z</time>
      </trkpt>
      <trkpt lat="48.2053" lon="-4.51611">
        <ele>67</ele>
        <time>2000-01-01T15:01:34.000Z</time>
      </trkpt>
      <trkpt lat="48.20559" lon="-4.51615">
        <ele>64</ele>
        <time>2000-01-01T15:01:44.000Z</time>
      </trkpt>
      <trkpt lat="48.20575" lon="-4.51611">
        <ele>68.1</ele>
        <time>2000-01-01T15:01:54.000Z</time>
      </trkpt>
      <trkpt lat="48.20589" lon="-4.51591">
        <ele>63</ele>
        <time>2000-01-01T15:02:04.000Z</time>
      </trkpt>
      <trkpt lat="48.20597" lon="-4.51589">
        <ele>65.9</ele>
        <time>2000-01-01T15:02:14.000Z</time>
      </trkpt>
      <trkpt lat="48.20612" lon="-4.51576">
        <ele>53</ele>
        <time>2000-01-01T15:02:24.000Z</time>
      </trkpt>
      <trkpt lat="48.20622" lon="-4.5155">
        <ele>46</ele>
        <time>2000-01-01T15:02:34.000Z</time>
      </trkpt>
      <trkpt lat="48.20629" lon="-4.51548">
        <ele>62.2</ele>
        <time>2000-01-01T15:02:44.000Z</time>
      </trkpt>
      <trkpt lat="48.20638" lon="-4.51534">
        <ele>36</ele>
        <time>2000-01-01T15:02:54.000Z</time>
      </trkpt>
      <trkpt lat="48.20637" lon="-4.51523">
        <ele>53.7</ele>
        <time>2000-01-01T15:03:04.000Z</time>
      </trkpt>
      <trkpt lat="48.2064" lon="-4.51515">
        <ele>51.2</ele>
        <time>2000-01-01T15:03:14.000Z</time>
      </trkpt>
      <trkpt lat="48.20643" lon="-4.51513">
        <ele>51</ele>
        <time>2000-01-01T15:03:24.000Z</time>
      </trkpt>
      <trkpt lat="48.20642" lon="-4.51508">
        <ele>30</ele>
        <time>2000-01-01T15:03:34.000Z</time>
      </trkpt>
      <trkpt lat="48.20644" lon="-4.51504">
        <ele>47.6</ele>
        <time>2000-01-01T15:03:44.000Z</time>
      </trkpt>
      <trkpt lat="48.20655" lon="-4.51503">
        <ele>49.2</ele>
        <time>2000-01-01T15:03:54.000Z</time>
      </trkpt>
      <trkpt lat="48.20665" lon="-4.51497">
        <ele>24</ele>
        <time>2000-01-01T15:04:04.000Z</time>
      </trkpt>
      <trkpt lat="48.20666" lon="-4.5149">
        <ele>47</ele>
        <time>2000-01-01T15:04:14.000Z</time>
      </trkpt>
      <trkpt lat="48.20665" lon="-4.51483">
        <ele>44.7</ele>
        <time>2000-01-01T15:04:24.000Z</time>
      </trkpt>
      <trkpt lat="48.20669" lon="-4.51464">
        <ele>39.2</ele>
        <time>2000-01-01T15:04:34.000Z</time>
      </trkpt>
      <trkpt lat="48.2068" lon="-4.51456">
        <ele>38.8</ele>
        <time>2000-01-01T15:04:44.000Z</time>
      </trkpt>
      <trkpt lat="48.20683" lon="-4.51447">
        <ele>36.6</ele>
        <time>2000-01-01T15:04:54.000Z</time>
      </trkpt>
      <trkpt lat="48.20683" lon="-4.51438">
        <ele>32.1</ele>
        <time>2000-01-01T15:05:04.000Z</time>
      </trkpt>
      <trkpt lat="48.20677" lon="-4.5142">
        <ele>17.2</ele>
        <time>2000-01-01T15:05:14.000Z</time>
      </trkpt>
      <trkpt lat="48.20682" lon="-4.5142">
        <ele>21.2</ele>
        <time>2000-01-01T15:05:24.000Z</time>
      </trkpt>
      <trkpt lat="48.20686" lon="-4.51396">
        <ele>19</ele>
        <time>2000-01-01T15:05:34.000Z</time>
      </trkpt>
      <trkpt lat="48.20702" lon="-4.51391">
        <ele>24.9</ele>
        <time>2000-01-01T15:05:44.000Z</time>
      </trkpt>
      <trkpt lat="48.20707" lon="-4.51386">
        <ele>25.6</ele>
        <time>2000-01-01T15:05:54.000Z</time>
      </trkpt>
      <trkpt lat="48.20712" lon="-4.51393">
        <ele>28.2</ele>
        <time>2000-01-01T15:06:04.000Z</time>
      </trkpt>
      <trkpt lat="48.20718" lon="-4.51386">
        <ele>29.4</ele>
        <time>2000-01-01T15:06:14.000Z</time>
      </trkpt>
      <trkpt lat="48.20729" lon="-4.51401">
        <ele>34.7</ele>
        <time>2000-01-01T15:06:24.000Z</time>
      </trkpt>
      <trkpt lat="48.20737" lon="-4.51398">
        <ele>38.6</ele>
        <time>2000-01-01T15:06:34.000Z</time>
      </trkpt>
      <trkpt lat="48.20745" lon="-4.514">
        <ele>42.4</ele>
        <time>2000-01-01T15:06:44.000Z</time>
      </trkpt>
      <trkpt lat="48.20753" lon="-4.51384">
        <ele>47.5</ele>
        <time>2000-01-01T15:06:54.000Z</time>
      </trkpt>
      <trkpt lat="48.20764" lon="-4.51373">
        <ele>52.5</ele>
        <time>2000-01-01T15:07:04.000Z</time>
      </trkpt>
      <trkpt lat="48.20778" lon="-4.51372">
        <ele>58.4</ele>
        <time>2000-01-01T15:07:14.000Z</time>
      </trkpt>
      <trkpt lat="48.20782" lon="-4.51377">
        <ele>59.2</ele>
        <time>2000-01-01T15:07:24.000Z</time>
      </trkpt>
      <trkpt lat="48.20789" lon="-4.51375">
        <ele>59.9</ele>
        <time>2000-01-01T15:07:34.000Z</time>
      </trkpt>
      <trkpt lat="48.20797" lon="-4.51378">
        <ele>61.4</ele>
        <time>2000-01-01T15:07:44.000Z</time>
      </trkpt>
      <trkpt lat="48.20832" lon="-4.51381">
        <ele>46</ele>
        <time>2000-01-01T15:07:54.000Z</time>
      </trkpt>
      <trkpt lat="48.20845" lon="-4.51378">
        <ele>68.3</ele>
        <time>2000-01-01T15:08:04.000Z</time>
      </trkpt>
      <trkpt lat="48.20852" lon="-4.51368">
        <ele>60</ele>
        <time>2000-01-01T15:08:14.000Z</time>
      </trkpt>
      <trkpt lat="48.20862" lon="-4.51361">
        <ele>71.1</ele>
        <time>2000-01-01T15:08:24.000Z</time>
      </trkpt>
      <trkpt lat="48.2087" lon="-4.51348">
        <ele>60</ele>
        <time>2000-01-01T15:08:34.000Z</time>
      </trkpt>
      <trkpt lat="48.20875" lon="-4.51334">
        <ele>70.6</ele>
        <time>2000-01-01T15:08:44.000Z</time>
      </trkpt>
      <trkpt lat="48.2089" lon="-4.51316">
        <ele>77</ele>
        <time>2000-01-01T15:08:54.000Z</time>
      </trkpt>
      <trkpt lat="48.2091" lon="-4.51286">
        <ele>68</ele>
        <time>2000-01-01T15:09:04.000Z</time>
      </trkpt>
      <trkpt lat="48.20914" lon="-4.51271">
        <ele>77</ele>
        <time>2000-01-01T15:09:14.000Z</time>
      </trkpt>
      <trkpt lat="48.2092" lon="-4.51269">
        <ele>78.7</ele>
        <time>2000-01-01T15:09:24.000Z</time>
      </trkpt>
      <trkpt lat="48.20929" lon="-4.51256">
        <ele>68</ele>
        <time>2000-01-01T15:09:34.000Z</time>
      </trkpt>
      <trkpt lat="48.20951" lon="-4.51251">
        <ele>69</ele>
        <time>2000-01-01T15:09:44.000Z</time>
      </trkpt>
      <trkpt lat="48.20974" lon="-4.51246">
        <ele>78</ele>
        <time>2000-01-01T15:09:54.000Z</time>
      </trkpt>
      <trkpt lat="48.20997" lon="-4.51238">
        <ele>80</ele>
        <time>2000-01-01T15:10:04.000Z</time>
      </trkpt>
      <trkpt lat="48.21019" lon="-4.51237">
        <ele>80</ele>
        <time>2000-01-01T15:10:14.000Z</time>
      </trkpt>
      <trkpt lat="48.21042" lon="-4.51235">
        <ele>77</ele>
        <time>2000-01-01T15:10:24.000Z</time>
      </trkpt>
      <trkpt lat="48.21067" lon="-4.51223">
        <ele>76</ele>
        <time>2000-01-01T15:10:34.000Z</time>
      </trkpt>
      <trkpt lat="48.21103" lon="-4.51205">
        <ele>76</ele>
        <time>2000-01-01T15:10:44.000Z</time>
      </trkpt>
      <trkpt lat="48.2111" lon="-4.51197">
        <ele>85.9</ele>
        <time>2000-01-01T15:10:54.000Z</time>
      </trkpt>
      <trkpt lat="48.21157" lon="-4.5117">
        <ele>72</ele>
        <time>2000-01-01T15:11:04.000Z</time>
      </trkpt>
      <trkpt lat="48.2118" lon="-4.51149">
        <ele>73</ele>
        <time>2000-01-01T15:11:14.000Z</time>
      </trkpt>
      <trkpt lat="48.212" lon="-4.51138">
        <ele>71</ele>
        <time>2000-01-01T15:11:24.000Z</time>
      </trkpt>
      <trkpt lat="48.21224" lon="-4.51112">
        <ele>74</ele>
        <time>2000-01-01T15:11:34.000Z</time>
      </trkpt>
      <trkpt lat="48.21271" lon="-4.51061">
        <ele>64</ele>
        <time>2000-01-01T15:11:44.000Z</time>
      </trkpt>
      <trkpt lat="48.21292" lon="-4.51039">
        <ele>62</ele>
        <time>2000-01-01T15:11:54.000Z</time>
      </trkpt>
      <trkpt lat="48.21315" lon="-4.51004">
        <ele>62</ele>
        <time>2000-01-01T15:12:04.000Z</time>
      </trkpt>
      <trkpt lat="48.2132" lon="-4.50989">
        <ele>82.5</ele>
        <time>2000-01-01T15:12:14.000Z</time>
      </trkpt>
      <trkpt lat="48.21347" lon="-4.50932">
        <ele>62</ele>
        <time>2000-01-01T15:12:24.000Z</time>
      </trkpt>
      <trkpt lat="48.21361" lon="-4.50908">
        <ele>51</ele>
        <time>2000-01-01T15:12:34.000Z</time>
      </trkpt>
      <trkpt lat="48.21376" lon="-4.50864">
        <ele>52</ele>
        <time>2000-01-01T15:12:44.000Z</time>
      </trkpt>
      <trkpt lat="48.21382" lon="-4.5084">
        <ele>88.1</ele>
        <time>2000-01-01T15:12:54.000Z</time>
      </trkpt>
      <trkpt lat="48.21388" lon="-4.50835">
        <ele>54</ele>
        <time>2000-01-01T15:13:04.000Z</time>
      </trkpt>
      <trkpt lat="48.21391" lon="-4.50842">
        <ele>92</ele>
        <time>2000-01-01T15:13:14.000Z</time>
      </trkpt>
      <trkpt lat="48.21398" lon="-4.50838">
        <ele>91.9</ele>
        <time>2000-01-01T15:13:24.000Z</time>
      </trkpt>
      <trkpt lat="48.21413" lon="-4.5081">
        <ele>69</ele>
        <time>2000-01-01T15:13:34.000Z</time>
      </trkpt>
      <trkpt lat="48.21433" lon="-4.50803">
        <ele>69</ele>
        <time>2000-01-01T15:13:44.000Z</time>
      </trkpt>
      <trkpt lat="48.21443" lon="-4.50787">
        <ele>91.7</ele>
        <time>2000-01-01T15:13:54.000Z</time>
      </trkpt>
      <trkpt lat="48.21447" lon="-4.50767">
        <ele>67</ele>
        <time>2000-01-01T15:14:04.000Z</time>
      </trkpt>
      <trkpt lat="48.2146" lon="-4.50745">
        <ele>63</ele>
        <time>2000-01-01T15:14:14.000Z</time>
      </trkpt>
      <trkpt lat="48.21472" lon="-4.50731">
        <ele>90.2</ele>
        <time>2000-01-01T15:14:24.000Z</time>
      </trkpt>
      <trkpt lat="48.21487" lon="-4.50718">
        <ele>64</ele>
        <time>2000-01-01T15:14:34.000Z</time>
      </trkpt>
      <trkpt lat="48.21501" lon="-4.50696">
        <ele>62</ele>
        <time>2000-01-01T15:14:44.000Z</time>
      </trkpt>
      <trkpt lat="48.21509" lon="-4.50688">
        <ele>87.4</ele>
        <time>2000-01-01T15:14:54.000Z</time>
      </trkpt>
      <trkpt lat="48.21515" lon="-4.50678">
        <ele>61</ele>
        <time>2000-01-01T15:15:04.000Z</time>
      </trkpt>
      <trkpt lat="48.2152" lon="-4.50661">
        <ele>84.8</ele>
        <time>2000-01-01T15:15:14.000Z</time>
      </trkpt>
      <trkpt lat="48.21521" lon="-4.50644">
        <ele>57</ele>
        <time>2000-01-01T15:15:24.000Z</time>
      </trkpt>
      <trkpt lat="48.21511" lon="-4.50631">
        <ele>77.3</ele>
        <time>2000-01-01T15:15:34.000Z</time>
      </trkpt>
      <trkpt lat="48.21518" lon="-4.50606">
        <ele>50</ele>
        <time>2000-01-01T15:15:44.000Z</time>
      </trkpt>
      <trkpt lat="48.21515" lon="-4.50587">
        <ele>67.1</ele>
        <time>2000-01-01T15:15:54.000Z</time>
      </trkpt>
      <trkpt lat="48.21527" lon="-4.50577">
        <ele>44</ele>
        <time>2000-01-01T15:16:04.000Z</time>
      </trkpt>
      <trkpt lat="48.21526" lon="-4.50564">
        <ele>64.9</ele>
        <time>2000-01-01T15:16:14.000Z</time>
      </trkpt>
      <trkpt lat="48.21514" lon="-4.50538">
        <ele>30</ele>
        <time>2000-01-01T15:16:24.000Z</time>
      </trkpt>
      <trkpt lat="48.21526" lon="-4.50482">
        <ele>16</ele>
        <time>2000-01-01T15:16:34.000Z</time>
      </trkpt>
      <trkpt lat="48.21544" lon="-4.50449">
        <ele>23</ele>
        <time>2000-01-01T15:16:44.000Z</time>
      </trkpt>
      <trkpt lat="48.21575" lon="-4.50393">
        <ele>22</ele>
        <time>2000-01-01T15:16:54.000Z</time>
      </trkpt>
      <trkpt lat="48.21575" lon="-4.50367">
        <ele>36.3</ele>
        <time>2000-01-01T15:17:04.000Z</time>
      </trkpt>
      <trkpt lat="48.21589" lon="-4.50366">
        <ele>22</ele>
        <time>2000-01-01T15:17:14.000Z</time>
      </trkpt>
      <trkpt lat="48.21597" lon="-4.50351">
        <ele>38.3</ele>
        <time>2000-01-01T15:17:24.000Z</time>
      </trkpt>
      <trkpt lat="48.21625" lon="-4.50354">
        <ele>35</ele>
        <time>2000-01-01T15:17:34.000Z</time>
      </trkpt>
      <trkpt lat="48.21646" lon="-4.50372">
        <ele>54</ele>
        <time>2000-01-01T15:17:44.000Z</time>
      </trkpt>
      <trkpt lat="48.2166" lon="-4.50328">
        <ele>51</ele>
        <time>2000-01-01T15:17:54.000Z</time>
      </trkpt>
      <trkpt lat="48.21672" lon="-4.50324">
        <ele>74.6</ele>
        <time>2000-01-01T15:18:04.000Z</time>
      </trkpt>
      <trkpt lat="48.21692" lon="-4.50286">
        <ele>55</ele>
        <time>2000-01-01T15:18:14.000Z</time>
      </trkpt>
      <trkpt lat="48.21693" lon="-4.5027">
        <ele>78.3</ele>
        <time>2000-01-01T15:18:24.000Z</time>
      </trkpt>
      <trkpt lat="48.2171" lon="-4.50255">
        <ele>59</ele>
        <time>2000-01-01T15:18:34.000Z</time>
      </trkpt>
      <trkpt lat="48.21711" lon="-4.50215">
        <ele>66</ele>
        <time>2000-01-01T15:18:44.000Z</time>
      </trkpt>
      <trkpt lat="48.21713" lon="-4.50154">
        <ele>72</ele>
        <time>2000-01-01T15:18:54.000Z</time>
      </trkpt>
      <trkpt lat="48.2171" lon="-4.50115">
        <ele>61</ele>
        <time>2000-01-01T15:19:04.000Z</time>
      </trkpt>
      <trkpt lat="48.21706" lon="-4.5006">
        <ele>67</ele>
        <time>2000-01-01T15:19:14.000Z</time>
      </trkpt>
      <trkpt lat="48.21716" lon="-4.50016">
        <ele>74</ele>
        <time>2000-01-01T15:19:24.000Z</time>
      </trkpt>
      <trkpt lat="48.21729" lon="-4.49999">
        <ele>76.3</ele>
        <time>2000-01-01T15:19:34.000Z</time>
      </trkpt>
      <trkpt lat="48.21765" lon="-4.50005">
        <ele>74</ele>
        <time>2000-01-01T15:19:44.000Z</time>
      </trkpt>
      <trkpt lat="48.21775" lon="-4.4997">
        <ele>74</ele>
        <time>2000-01-01T15:19:54.000Z</time>
      </trkpt>
      <trkpt lat="48.21793" lon="-4.49949">
        <ele>73</ele>
        <time>2000-01-01T15:20:04.000Z</time>
      </trkpt>
      <trkpt lat="48.21813" lon="-4.49927">
        <ele>73</ele>
        <time>2000-01-01T15:20:14.000Z</time>
      </trkpt>
      <trkpt lat="48.21825" lon="-4.49917">
        <ele>80</ele>
        <time>2000-01-01T15:20:24.000Z</time>
      </trkpt>
      <trkpt lat="48.21841" lon="-4.4992">
        <ele>72</ele>
        <time>2000-01-01T15:20:34.000Z</time>
      </trkpt>
      <trkpt lat="48.21851" lon="-4.49902">
        <ele>79.4</ele>
        <time>2000-01-01T15:20:44.000Z</time>
      </trkpt>
      <trkpt lat="48.21849" lon="-4.49877">
        <ele>72</ele>
        <time>2000-01-01T15:20:54.000Z</time>
      </trkpt>
      <trkpt lat="48.21874" lon="-4.4988">
        <ele>71</ele>
        <time>2000-01-01T15:21:04.000Z</time>
      </trkpt>
      <trkpt lat="48.21906" lon="-4.49884">
        <ele>71</ele>
        <time>2000-01-01T15:21:14.000Z</time>
      </trkpt>
      <trkpt lat="48.21925" lon="-4.49839">
        <ele>72</ele>
        <time>2000-01-01T15:21:24.000Z</time>
      </trkpt>
      <trkpt lat="48.21942" lon="-4.49794">
        <ele>71</ele>
        <time>2000-01-01T15:21:34.000Z</time>
      </trkpt>
      <trkpt lat="48.21958" lon="-4.49748">
        <ele>71</ele>
        <time>2000-01-01T15:21:44.000Z</time>
      </trkpt>
      <trkpt lat="48.21975" lon="-4.49703">
        <ele>64</ele>
        <time>2000-01-01T15:21:54.000Z</time>
      </trkpt>
      <trkpt lat="48.21997" lon="-4.49643">
        <ele>60</ele>
        <time>2000-01-01T15:22:04.000Z</time>
      </trkpt>
      <trkpt lat="48.2198" lon="-4.49628">
        <ele>56</ele>
        <time>2000-01-01T15:22:14.000Z</time>
      </trkpt>
      <trkpt lat="48.21982" lon="-4.49608">
        <ele>62.9</ele>
        <time>2000-01-01T15:22:24.000Z</time>
      </trkpt>
      <trkpt lat="48.21965" lon="-4.49606">
        <ele>40</ele>
        <time>2000-01-01T15:22:34.000Z</time>
      </trkpt>
      <trkpt lat="48.21957" lon="-4.49587">
        <ele>49.1</ele>
        <time>2000-01-01T15:22:44.000Z</time>
      </trkpt>
      <trkpt lat="48.21963" lon="-4.49566">
        <ele>30</ele>
        <time>2000-01-01T15:22:54.000Z</time>
      </trkpt>
      <trkpt lat="48.21988" lon="-4.4955">
        <ele>44.9</ele>
        <time>2000-01-01T15:23:04.000Z</time>
      </trkpt>
      <trkpt lat="48.22014" lon="-4.49514">
        <ele>34.8</ele>
        <time>2000-01-01T15:23:14.000Z</time>
      </trkpt>
      <trkpt lat="48.22033" lon="-4.49502">
        <ele>36.9</ele>
        <time>2000-01-01T15:23:24.000Z</time>
      </trkpt>
      <trkpt lat="48.22042" lon="-4.4948">
        <ele>32.4</ele>
        <time>2000-01-01T15:23:34.000Z</time>
      </trkpt>
      <trkpt lat="48.22062" lon="-4.49469">
        <ele>30.7</ele>
        <time>2000-01-01T15:23:44.000Z</time>
      </trkpt>
      <trkpt lat="48.22085" lon="-4.49473">
        <ele>30.6</ele>
        <time>2000-01-01T15:23:54.000Z</time>
      </trkpt>
      <trkpt lat="48.2211" lon="-4.49488">
        <ele>7</ele>
        <time>2000-01-01T15:24:04.000Z</time>
      </trkpt>
      <trkpt lat="48.22147" lon="-4.49512">
        <ele>12</ele>
        <time>2000-01-01T15:24:14.000Z</time>
      </trkpt>
      <trkpt lat="48.22155" lon="-4.49547">
        <ele>21</ele>
        <time>2000-01-01T15:24:24.000Z</time>
      </trkpt>
      <trkpt lat="48.22166" lon="-4.49592">
        <ele>27</ele>
        <time>2000-01-01T15:24:34.000Z</time>
      </trkpt>
      <trkpt lat="48.22176" lon="-4.49623">
        <ele>45</ele>
        <time>2000-01-01T15:24:44.000Z</time>
      </trkpt>
      <trkpt lat="48.22187" lon="-4.49655">
        <ele>38</ele>
        <time>2000-01-01T15:24:54.000Z</time>
      </trkpt>
      <trkpt lat="48.22207" lon="-4.49673">
        <ele>36</ele>
        <time>2000-01-01T15:25:04.000Z</time>
      </trkpt>
      <trkpt lat="48.22229" lon="-4.49692">
        <ele>35</ele>
        <time>2000-01-01T15:25:14.000Z</time>
      </trkpt>
      <trkpt lat="48.2225" lon="-4.49719">
        <ele>35</ele>
        <time>2000-01-01T15:25:24.000Z</time>
      </trkpt>
      <trkpt lat="48.22263" lon="-4.49742">
        <ele>35</ele>
        <time>2000-01-01T15:25:34.000Z</time>
      </trkpt>
      <trkpt lat="48.22274" lon="-4.49773">
        <ele>25</ele>
        <time>2000-01-01T15:25:44.000Z</time>
      </trkpt>
      <trkpt lat="48.22285" lon="-4.49807">
        <ele>19</ele>
        <time>2000-01-01T15:25:54.000Z</time>
      </trkpt>
      <trkpt lat="48.22289" lon="-4.49845">
        <ele>18</ele>
        <time>2000-01-01T15:26:04.000Z</time>
      </trkpt>
      <trkpt lat="48.22294" lon="-4.49898">
        <ele>18</ele>
        <time>2000-01-01T15:26:14.000Z</time>
      </trkpt>
      <trkpt lat="48.22314" lon="-4.49926">
        <ele>16</ele>
        <time>2000-01-01T15:26:24.000Z</time>
      </trkpt>
      <trkpt lat="48.22327" lon="-4.49941">
        <ele>14.1</ele>
        <time>2000-01-01T15:26:34.000Z</time>
      </trkpt>
      <trkpt lat="48.22336" lon="-4.49983">
        <ele>14</ele>
        <time>2000-01-01T15:26:44.000Z</time>
      </trkpt>
      <trkpt lat="48.22342" lon="-4.49987">
        <ele>11.8</ele>
        <time>2000-01-01T15:26:54.000Z</time>
      </trkpt>
      <trkpt lat="48.22353" lon="-4.5001">
        <ele>14</ele>
        <time>2000-01-01T15:27:04.000Z</time>
      </trkpt>
      <trkpt lat="48.22358" lon="-4.50008">
        <ele>5.6</ele>
        <time>2000-01-01T15:27:14.000Z</time>
      </trkpt>
      <trkpt lat="48.22364" lon="-4.50053">
        <ele>14</ele>
        <time>2000-01-01T15:27:24.000Z</time>
      </trkpt>
      <trkpt lat="48.22371" lon="-4.50096">
        <ele>17</ele>
        <time>2000-01-01T15:27:34.000Z</time>
      </trkpt>
      <trkpt lat="48.22382" lon="-4.5011">
        <ele>3.9</ele>
        <time>2000-01-01T15:27:44.000Z</time>
      </trkpt>
      <trkpt lat="48.22401" lon="-4.50146">
        <ele>17</ele>
        <time>2000-01-01T15:27:54.000Z</time>
      </trkpt>
      <trkpt lat="48.22424" lon="-4.50176">
        <ele>16</ele>
        <time>2000-01-01T15:28:04.000Z</time>
      </trkpt>
      <trkpt lat="48.2246" lon="-4.50214">
        <ele>12</ele>
        <time>2000-01-01T15:28:14.000Z</time>
      </trkpt>
      <trkpt lat="48.22483" lon="-4.50232">
        <ele>12</ele>
        <time>2000-01-01T15:28:24.000Z</time>
      </trkpt>
      <trkpt lat="48.22516" lon="-4.50256">
        <ele>12</ele>
        <time>2000-01-01T15:28:34.000Z</time>
      </trkpt>
      <trkpt lat="48.22548" lon="-4.50248">
        <ele>12</ele>
        <time>2000-01-01T15:28:44.000Z</time>
      </trkpt>
      <trkpt lat="48.22579" lon="-4.50239">
        <ele>10</ele>
        <time>2000-01-01T15:28:54.000Z</time>
      </trkpt>
      <trkpt lat="48.22626" lon="-4.50227">
        <ele>9</ele>
        <time>2000-01-01T15:29:04.000Z</time>
      </trkpt>
      <trkpt lat="48.22657" lon="-4.50223">
        <ele>9</ele>
        <time>2000-01-01T15:29:14.000Z</time>
      </trkpt>
      <trkpt lat="48.22683" lon="-4.50221">
        <ele>9</ele>
        <time>2000-01-01T15:29:24.000Z</time>
      </trkpt>
      <trkpt lat="48.22721" lon="-4.50217">
        <ele>9</ele>
        <time>2000-01-01T15:29:34.000Z</time>
      </trkpt>
      <trkpt lat="48.22751" lon="-4.50208">
        <ele>7</ele>
        <time>2000-01-01T15:29:44.000Z</time>
      </trkpt>
      <trkpt lat="48.22781" lon="-4.50199">
        <ele>1.3</ele>
        <time>2000-01-01T15:29:54.000Z</time>
      </trkpt>
      <trkpt lat="48.22813" lon="-4.50189">
        <ele>1.8</ele>
        <time>2000-01-01T15:30:04.000Z</time>
      </trkpt>
      <trkpt lat="48.22845" lon="-4.50179">
        <ele>1.4</ele>
        <time>2000-01-01T15:30:14.000Z</time>
      </trkpt>
      <trkpt lat="48.22878" lon="-4.50168">
        <ele>1.1</ele>
        <time>2000-01-01T15:30:24.000Z</time>
      </trkpt>
      <trkpt lat="48.22937" lon="-4.50149">
        <ele>1.4</ele>
        <time>2000-01-01T15:30:34.000Z</time>
      </trkpt>
      <trkpt lat="48.22968" lon="-4.50138">
        <ele>1.8</ele>
        <time>2000-01-01T15:30:44.000Z</time>
      </trkpt>
      <trkpt lat="48.22995" lon="-4.50129">
        <ele>11</ele>
        <time>2000-01-01T15:30:54.000Z</time>
      </trkpt>
      <trkpt lat="48.23038" lon="-4.50115">
        <ele>12</ele>
        <time>2000-01-01T15:31:04.000Z</time>
      </trkpt>
      <trkpt lat="48.23065" lon="-4.50092">
        <ele>6</ele>
        <time>2000-01-01T15:31:14.000Z</time>
      </trkpt>
      <trkpt lat="48.23092" lon="-4.50069">
        <ele>2.9</ele>
        <time>2000-01-01T15:31:24.000Z</time>
      </trkpt>
      <trkpt lat="48.23127" lon="-4.50039">
        <ele>3</ele>
        <time>2000-01-01T15:31:34.000Z</time>
      </trkpt>
      <trkpt lat="48.23152" lon="-4.50012">
        <ele>2.8</ele>
        <time>2000-01-01T15:31:44.000Z</time>
      </trkpt>
      <trkpt lat="48.23173" lon="-4.49989">
        <ele>2.9</ele>
        <time>2000-01-01T15:31:54.000Z</time>
      </trkpt>
      <trkpt lat="48.23202" lon="-4.49956">
        <ele>10</ele>
        <time>2000-01-01T15:32:04.000Z</time>
      </trkpt>
      <trkpt lat="48.23222" lon="-4.49936">
        <ele>10</ele>
        <time>2000-01-01T15:32:14.000Z</time>
      </trkpt>
      <trkpt lat="48.23243" lon="-4.49915">
        <ele>11</ele>
        <time>2000-01-01T15:32:24.000Z</time>
      </trkpt>
      <trkpt lat="48.23253" lon="-4.49931">
        <ele>6.8</ele>
        <time>2000-01-01T15:32:34.000Z</time>
      </trkpt>
      <trkpt lat="48.23267" lon="-4.49911">
        <ele>11</ele>
        <time>2000-01-01T15:32:44.000Z</time>
      </trkpt>
      <trkpt lat="48.23282" lon="-4.49887">
        <ele>11</ele>
        <time>2000-01-01T15:32:54.000Z</time>
      </trkpt>
      <trkpt lat="48.23298" lon="-4.49862">
        <ele>9</ele>
        <time>2000-01-01T15:33:04.000Z</time>
      </trkpt>
      <trkpt lat="48.23308" lon="-4.4985">
        <ele>5.9</ele>
        <time>2000-01-01T15:33:14.000Z</time>
      </trkpt>
      <trkpt lat="48.23319" lon="-4.49841">
        <ele>9</ele>
        <time>2000-01-01T15:33:24.000Z</time>
      </trkpt>
      <trkpt lat="48.23326" lon="-4.49833">
        <ele>5.5</ele>
        <time>2000-01-01T15:33:34.000Z</time>
      </trkpt>
      <trkpt lat="48.23332" lon="-4.49829">
        <ele>5.9</ele>
        <time>2000-01-01T15:33:44.000Z</time>
      </trkpt>
      <trkpt lat="48.23335" lon="-4.49819">
        <ele>4</ele>
        <time>2000-01-01T15:33:54.000Z</time>
      </trkpt>
      <trkpt lat="48.23351" lon="-4.49783">
        <ele>4.5</ele>
        <time>2000-01-01T15:34:04.000Z</time>
      </trkpt>
      <trkpt lat="48.23374" lon="-4.49743">
        <ele>5.1</ele>
        <time>2000-01-01T15:34:14.000Z</time>
      </trkpt>
      <trkpt lat="48.23398" lon="-4.49725">
        <ele>4.6</ele>
        <time>2000-01-01T15:34:24.000Z</time>
      </trkpt>
      <trkpt lat="48.23409" lon="-4.49697">
        <ele>5.2</ele>
        <time>2000-01-01T15:34:34.000Z</time>
      </trkpt>
      <trkpt lat="48.23419" lon="-4.49677">
        <ele>5.1</ele>
        <time>2000-01-01T15:34:44.000Z</time>
      </trkpt>
      <trkpt lat="48.23439" lon="-4.49672">
        <ele>5.6</ele>
        <time>2000-01-01T15:34:54.000Z</time>
      </trkpt>
      <trkpt lat="48.23456" lon="-4.49666">
        <ele>6.5</ele>
        <time>2000-01-01T15:35:04.000Z</time>
      </trkpt>
      <trkpt lat="48.23466" lon="-4.49658">
        <ele>9</ele>
        <time>2000-01-01T15:35:14.000Z</time>
      </trkpt>
      <trkpt lat="48.23491" lon="-4.49666">
        <ele>9</ele>
        <time>2000-01-01T15:35:24.000Z</time>
      </trkpt>
      <trkpt lat="48.23507" lon="-4.49665">
        <ele>10.8</ele>
        <time>2000-01-01T15:35:34.000Z</time>
      </trkpt>
      <trkpt lat="48.23524" lon="-4.49653">
        <ele>9</ele>
        <time>2000-01-01T15:35:44.000Z</time>
      </trkpt>
      <trkpt lat="48.2354" lon="-4.49632">
        <ele>11</ele>
        <time>2000-01-01T15:35:54.000Z</time>
      </trkpt>
      <trkpt lat="48.23546" lon="-4.49616">
        <ele>16.3</ele>
        <time>2000-01-01T15:36:04.000Z</time>
      </trkpt>
      <trkpt lat="48.23649" lon="-4.49263">
        <ele>16</ele>
        <time>2000-01-01T15:36:14.000Z</time>
      </trkpt>
      <trkpt lat="48.23664" lon="-4.49215">
        <ele>8</ele>
        <time>2000-01-01T15:36:24.000Z</time>
      </trkpt>
      <trkpt lat="48.23669" lon="-4.4919">
        <ele>20.9</ele>
        <time>2000-01-01T15:36:34.000Z</time>
      </trkpt>
      <trkpt lat="48.23589" lon="-4.49141">
        <ele>13.6</ele>
        <time>2000-01-01T15:36:44.000Z</time>
      </trkpt>
      <trkpt lat="48.23598" lon="-4.491">
        <ele>10.7</ele>
        <time>2000-01-01T15:36:54.000Z</time>
      </trkpt>
      <trkpt lat="48.23607" lon="-4.49066">
        <ele>12.2</ele>
        <time>2000-01-01T15:37:04.000Z</time>
      </trkpt>
      <trkpt lat="48.23616" lon="-4.49028">
        <ele>14.2</ele>
        <time>2000-01-01T15:37:14.000Z</time>
      </trkpt>
      <trkpt lat="48.23626" lon="-4.48992">
        <ele>11.9</ele>
        <time>2000-01-01T15:37:24.000Z</time>
      </trkpt>
      <trkpt lat="48.2364" lon="-4.48943">
        <ele>16.1</ele>
        <time>2000-01-01T15:37:34.000Z</time>
      </trkpt>
      <trkpt lat="48.23653" lon="-4.48894">
        <ele>16.3</ele>
        <time>2000-01-01T15:37:44.000Z</time>
      </trkpt>
      <trkpt lat="48.23681" lon="-4.48913">
        <ele>11</ele>
        <time>2000-01-01T15:37:54.000Z</time>
      </trkpt>
      <trkpt lat="48.23709" lon="-4.48932">
        <ele>20</ele>
        <time>2000-01-01T15:38:04.000Z</time>
      </trkpt>
      <trkpt lat="48.2374" lon="-4.48953">
        <ele>22</ele>
        <time>2000-01-01T15:38:14.000Z</time>
      </trkpt>
      <trkpt lat="48.23749" lon="-4.48928">
        <ele>25</ele>
        <time>2000-01-01T15:38:24.000Z</time>
      </trkpt>
      <trkpt lat="48.2376" lon="-4.48889">
        <ele>25</ele>
        <time>2000-01-01T15:38:34.000Z</time>
      </trkpt>
      <trkpt lat="48.23779" lon="-4.48822">
        <ele>27</ele>
        <time>2000-01-01T15:38:44.000Z</time>
      </trkpt>
      <trkpt lat="48.23791" lon="-4.48783">
        <ele>29</ele>
        <time>2000-01-01T15:38:54.000Z</time>
      </trkpt>
      <trkpt lat="48.23811" lon="-4.48714">
        <ele>30</ele>
        <time>2000-01-01T15:39:04.000Z</time>
      </trkpt>
      <trkpt lat="48.23792" lon="-4.4869">
        <ele>29</ele>
        <time>2000-01-01T15:39:14.000Z</time>
      </trkpt>
      <trkpt lat="48.23769" lon="-4.48661">
        <ele>29</ele>
        <time>2000-01-01T15:39:24.000Z</time>
      </trkpt>
      <trkpt lat="48.23746" lon="-4.48631">
        <ele>30</ele>
        <time>2000-01-01T15:39:34.000Z</time>
      </trkpt>
      <trkpt lat="48.23731" lon="-4.48617">
        <ele>46.8</ele>
        <time>2000-01-01T15:39:44.000Z</time>
      </trkpt>
      <trkpt lat="48.2371" lon="-4.48608">
        <ele>30</ele>
        <time>2000-01-01T15:39:54.000Z</time>
      </trkpt>
      <trkpt lat="48.23718" lon="-4.48569">
        <ele>43</ele>
        <time>2000-01-01T15:40:04.000Z</time>
      </trkpt>
      <trkpt lat="48.23728" lon="-4.48514">
        <ele>46</ele>
        <time>2000-01-01T15:40:14.000Z</time>
      </trkpt>
      <trkpt lat="48.23735" lon="-4.48468">
        <ele>49</ele>
        <time>2000-01-01T15:40:24.000Z</time>
      </trkpt>
      <trkpt lat="48.23742" lon="-4.48421">
        <ele>51</ele>
        <time>2000-01-01T15:40:34.000Z</time>
      </trkpt>
      <trkpt lat="48.23752" lon="-4.48356">
        <ele>43</ele>
        <time>2000-01-01T15:40:44.000Z</time>
      </trkpt>
      <trkpt lat="48.23733" lon="-4.48364">
        <ele>36</ele>
        <time>2000-01-01T15:40:54.000Z</time>
      </trkpt>
      <trkpt lat="48.23715" lon="-4.48362">
        <ele>36</ele>
        <time>2000-01-01T15:41:04.000Z</time>
      </trkpt>
      <trkpt lat="48.23699" lon="-4.48336">
        <ele>26</ele>
        <time>2000-01-01T15:41:14.000Z</time>
      </trkpt>
      <trkpt lat="48.2369" lon="-4.48324">
        <ele>57.9</ele>
        <time>2000-01-01T15:41:24.000Z</time>
      </trkpt>
      <trkpt lat="48.23679" lon="-4.48295">
        <ele>11</ele>
        <time>2000-01-01T15:41:34.000Z</time>
      </trkpt>
      <trkpt lat="48.23674" lon="-4.48273">
        <ele>57.4</ele>
        <time>2000-01-01T15:41:44.000Z</time>
      </trkpt>
      <trkpt lat="48.23677" lon="-4.48256">
        <ele>62.2</ele>
        <time>2000-01-01T15:41:54.000Z</time>
      </trkpt>
      <trkpt lat="48.23677" lon="-4.4824">
        <ele>64.7</ele>
        <time>2000-01-01T15:42:04.000Z</time>
      </trkpt>
      <trkpt lat="48.23676" lon="-4.48227">
        <ele>66.3</ele>
        <time>2000-01-01T15:42:14.000Z</time>
      </trkpt>
      <trkpt lat="48.23671" lon="-4.48217">
        <ele>65.9</ele>
        <time>2000-01-01T15:42:24.000Z</time>
      </trkpt>
      <trkpt lat="48.23668" lon="-4.48204">
        <ele>66.3</ele>
        <time>2000-01-01T15:42:34.000Z</time>
      </trkpt>
      <trkpt lat="48.2367" lon="-4.48181">
        <ele>66.1</ele>
        <time>2000-01-01T15:42:44.000Z</time>
      </trkpt>
      <trkpt lat="48.23675" lon="-4.48147">
        <ele>65.3</ele>
        <time>2000-01-01T15:42:54.000Z</time>
      </trkpt>
      <trkpt lat="48.23682" lon="-4.4811">
        <ele>18</ele>
        <time>2000-01-01T15:43:04.000Z</time>
      </trkpt>
      <trkpt lat="48.23681" lon="-4.48087">
        <ele>66.7</ele>
        <time>2000-01-01T15:43:14.000Z</time>
      </trkpt>
      <trkpt lat="48.23675" lon="-4.48037">
        <ele>34</ele>
        <time>2000-01-01T15:43:24.000Z</time>
      </trkpt>
      <trkpt lat="48.23665" lon="-4.48003">
        <ele>17</ele>
        <time>2000-01-01T15:43:34.000Z</time>
      </trkpt>
      <trkpt lat="48.23654" lon="-4.47963">
        <ele>35</ele>
        <time>2000-01-01T15:43:44.000Z</time>
      </trkpt>
      <trkpt lat="48.23656" lon="-4.47952">
        <ele>63.7</ele>
        <time>2000-01-01T15:43:54.000Z</time>
      </trkpt>
      <trkpt lat="48.23663" lon="-4.47948">
        <ele>67.2</ele>
        <time>2000-01-01T15:44:04.000Z</time>
      </trkpt>
      <trkpt lat="48.23684" lon="-4.47903">
        <ele>53</ele>
        <time>2000-01-01T15:44:14.000Z</time>
      </trkpt>
      <trkpt lat="48.23698" lon="-4.47891">
        <ele>77.2</ele>
        <time>2000-01-01T15:44:24.000Z</time>
      </trkpt>
      <trkpt lat="48.23701" lon="-4.47884">
        <ele>59</ele>
        <time>2000-01-01T15:44:34.000Z</time>
      </trkpt>
      <trkpt lat="48.23697" lon="-4.47817">
        <ele>56</ele>
        <time>2000-01-01T15:44:44.000Z</time>
      </trkpt>
      <trkpt lat="48.23679" lon="-4.47783">
        <ele>56</ele>
        <time>2000-01-01T15:44:54.000Z</time>
      </trkpt>
      <trkpt lat="48.23672" lon="-4.47768">
        <ele>77.3</ele>
        <time>2000-01-01T15:45:04.000Z</time>
      </trkpt>
      <trkpt lat="48.23669" lon="-4.47754">
        <ele>56</ele>
        <time>2000-01-01T15:45:14.000Z</time>
      </trkpt>
      <trkpt lat="48.23671" lon="-4.47732">
        <ele>78.3</ele>
        <time>2000-01-01T15:45:24.000Z</time>
      </trkpt>
      <trkpt lat="48.23681" lon="-4.47706">
        <ele>54</ele>
        <time>2000-01-01T15:45:34.000Z</time>
      </trkpt>
      <trkpt lat="48.23683" lon="-4.47689">
        <ele>78.4</ele>
        <time>2000-01-01T15:45:44.000Z</time>
      </trkpt>
      <trkpt lat="48.23679" lon="-4.4766">
        <ele>53</ele>
        <time>2000-01-01T15:45:54.000Z</time>
      </trkpt>
      <trkpt lat="48.23675" lon="-4.4765">
        <ele>76.1</ele>
        <time>2000-01-01T15:46:04.000Z</time>
      </trkpt>
      <trkpt lat="48.23675" lon="-4.47643">
        <ele>75.6</ele>
        <time>2000-01-01T15:46:14.000Z</time>
      </trkpt>
      <trkpt lat="48.23673" lon="-4.4764">
        <ele>75.3</ele>
        <time>2000-01-01T15:46:24.000Z</time>
      </trkpt>
      <trkpt lat="48.23673" lon="-4.47633">
        <ele>44</ele>
        <time>2000-01-01T15:46:34.000Z</time>
      </trkpt>
      <trkpt lat="48.23678" lon="-4.47601">
        <ele>41</ele>
        <time>2000-01-01T15:46:44.000Z</time>
      </trkpt>
      <trkpt lat="48.23687" lon="-4.47561">
        <ele>38</ele>
        <time>2000-01-01T15:46:54.000Z</time>
      </trkpt>
      <trkpt lat="48.23696" lon="-4.4755">
        <ele>64.6</ele>
        <time>2000-01-01T15:47:04.000Z</time>
      </trkpt>
      <trkpt lat="48.23709" lon="-4.47487">
        <ele>24</ele>
        <time>2000-01-01T15:47:14.000Z</time>
      </trkpt>
      <trkpt lat="48.23712" lon="-4.47463">
        <ele>54.9</ele>
        <time>2000-01-01T15:47:24.000Z</time>
      </trkpt>
      <trkpt lat="48.23708" lon="-4.47447">
        <ele>13</ele>
        <time>2000-01-01T15:47:34.000Z</time>
      </trkpt>
      <trkpt lat="48.23687" lon="-4.47411">
        <ele>43.3</ele>
        <time>2000-01-01T15:47:44.000Z</time>
      </trkpt>
      <trkpt lat="48.2369" lon="-4.47403">
        <ele>41</ele>
        <time>2000-01-01T15:47:54.000Z</time>
      </trkpt>
      <trkpt lat="48.23695" lon="-4.47395">
        <ele>38.9</ele>
        <time>2000-01-01T15:48:04.000Z</time>
      </trkpt>
      <trkpt lat="48.23701" lon="-4.47377">
        <ele>34.6</ele>
        <time>2000-01-01T15:48:14.000Z</time>
      </trkpt>
      <trkpt lat="48.23718" lon="-4.4735">
        <ele>31.4</ele>
        <time>2000-01-01T15:48:24.000Z</time>
      </trkpt>
      <trkpt lat="48.23731" lon="-4.47323">
        <ele>29.8</ele>
        <time>2000-01-01T15:48:34.000Z</time>
      </trkpt>
      <trkpt lat="48.23756" lon="-4.47287">
        <ele>29</ele>
        <time>2000-01-01T15:48:44.000Z</time>
      </trkpt>
      <trkpt lat="48.23779" lon="-4.47271">
        <ele>9</ele>
        <time>2000-01-01T15:48:54.000Z</time>
      </trkpt>
      <trkpt lat="48.23784" lon="-4.47264">
        <ele>31.9</ele>
        <time>2000-01-01T15:49:04.000Z</time>
      </trkpt>
      <trkpt lat="48.23792" lon="-4.4725">
        <ele>10</ele>
        <time>2000-01-01T15:49:14.000Z</time>
      </trkpt>
      <trkpt lat="48.23795" lon="-4.47239">
        <ele>28.3</ele>
        <time>2000-01-01T15:49:24.000Z</time>
      </trkpt>
      <trkpt lat="48.238" lon="-4.47229">
        <ele>28.2</ele>
        <time>2000-01-01T15:49:34.000Z</time>
      </trkpt>
      <trkpt lat="48.23807" lon="-4.47211">
        <ele>15</ele>
        <time>2000-01-01T15:49:44.000Z</time>
      </trkpt>
      <trkpt lat="48.23811" lon="-4.47206">
        <ele>28.2</ele>
        <time>2000-01-01T15:49:54.000Z</time>
      </trkpt>
      <trkpt lat="48.23819" lon="-4.47186">
        <ele>14</ele>
        <time>2000-01-01T15:50:04.000Z</time>
      </trkpt>
      <trkpt lat="48.23818" lon="-4.47163">
        <ele>18.8</ele>
        <time>2000-01-01T15:50:14.000Z</time>
      </trkpt>
      <trkpt lat="48.23817" lon="-4.47156">
        <ele>14</ele>
        <time>2000-01-01T15:50:24.000Z</time>
      </trkpt>
      <trkpt lat="48.23815" lon="-4.47151">
        <ele>17.8</ele>
        <time>2000-01-01T15:50:34.000Z</time>
      </trkpt>
      <trkpt lat="48.23808" lon="-4.47143">
        <ele>16.2</ele>
        <time>2000-01-01T15:50:44.000Z</time>
      </trkpt>
      <trkpt lat="48.23792" lon="-4.47138">
        <ele>8</ele>
        <time>2000-01-01T15:50:54.000Z</time>
      </trkpt>
      <trkpt lat="48.23796" lon="-4.47115">
        <ele>16.8</ele>
        <time>2000-01-01T15:51:04.000Z</time>
      </trkpt>
      <trkpt lat="48.23798" lon="-4.47083">
        <ele>12</ele>
        <time>2000-01-01T15:51:14.000Z</time>
      </trkpt>
      <trkpt lat="48.23802" lon="-4.4707">
        <ele>13.9</ele>
        <time>2000-01-01T15:51:24.000Z</time>
      </trkpt>
      <trkpt lat="48.23827" lon="-4.47058">
        <ele>6</ele>
        <time>2000-01-01T15:51:34.000Z</time>
      </trkpt>
      <trkpt lat="48.23826" lon="-4.47049">
        <ele>13.6</ele>
        <time>2000-01-01T15:51:44.000Z</time>
      </trkpt>
      <trkpt lat="48.23818" lon="-4.47045">
        <ele>12.4</ele>
        <time>2000-01-01T15:51:54.000Z</time>
      </trkpt>
      <trkpt lat="48.23818" lon="-4.47035">
        <ele>11.9</ele>
        <time>2000-01-01T15:52:04.000Z</time>
      </trkpt>
      <trkpt lat="48.23812" lon="-4.4703">
        <ele>10.1</ele>
        <time>2000-01-01T15:52:14.000Z</time>
      </trkpt>
      <trkpt lat="48.23814" lon="-4.46999">
        <ele>10.2</ele>
        <time>2000-01-01T15:52:24.000Z</time>
      </trkpt>
      <trkpt lat="48.23813" lon="-4.46975">
        <ele>8.3</ele>
        <time>2000-01-01T15:52:34.000Z</time>
      </trkpt>
      <trkpt lat="48.23819" lon="-4.46943">
        <ele>11.7</ele>
        <time>2000-01-01T15:52:44.000Z</time>
      </trkpt>
      <trkpt lat="48.23833" lon="-4.46915">
        <ele>23.7</ele>
        <time>2000-01-01T15:52:54.000Z</time>
      </trkpt>
      <trkpt lat="48.23837" lon="-4.46901">
        <ele>24.8</ele>
        <time>2000-01-01T15:53:04.000Z</time>
      </trkpt>
      <trkpt lat="48.23838" lon="-4.46896">
        <ele>25.1</ele>
        <time>2000-01-01T15:53:14.000Z</time>
      </trkpt>
      <trkpt lat="48.23838" lon="-4.46891">
        <ele>25.2</ele>
        <time>2000-01-01T15:53:24.000Z</time>
      </trkpt>
      <trkpt lat="48.23836" lon="-4.46887">
        <ele>24.6</ele>
        <time>2000-01-01T15:53:34.000Z</time>
      </trkpt>
      <trkpt lat="48.23837" lon="-4.46883">
        <ele>24.7</ele>
        <time>2000-01-01T15:53:44.000Z</time>
      </trkpt>
      <trkpt lat="48.23839" lon="-4.46882">
        <ele>25.2</ele>
        <time>2000-01-01T15:53:54.000Z</time>
      </trkpt>
      <trkpt lat="48.23838" lon="-4.46875">
        <ele>24.8</ele>
        <time>2000-01-01T15:54:04.000Z</time>
      </trkpt>
      <trkpt lat="48.23843" lon="-4.46864">
        <ele>25.9</ele>
        <time>2000-01-01T15:54:14.000Z</time>
      </trkpt>
      <trkpt lat="48.23849" lon="-4.46854">
        <ele>25.5</ele>
        <time>2000-01-01T15:54:24.000Z</time>
      </trkpt>
      <trkpt lat="48.23859" lon="-4.46814">
        <ele>24.8</ele>
        <time>2000-01-01T15:54:34.000Z</time>
      </trkpt>
      <trkpt lat="48.23859" lon="-4.468">
        <ele>23.7</ele>
        <time>2000-01-01T15:54:44.000Z</time>
      </trkpt>
      <trkpt lat="48.23854" lon="-4.46791">
        <ele>19</ele>
        <time>2000-01-01T15:54:54.000Z</time>
      </trkpt>
      <trkpt lat="48.23856" lon="-4.46776">
        <ele>19.8</ele>
        <time>2000-01-01T15:55:04.000Z</time>
      </trkpt>
      <trkpt lat="48.23856" lon="-4.46762">
        <ele>18.9</ele>
        <time>2000-01-01T15:55:14.000Z</time>
      </trkpt>
      <trkpt lat="48.23861" lon="-4.46744">
        <ele>20.8</ele>
        <time>2000-01-01T15:55:24.000Z</time>
      </trkpt>
      <trkpt lat="48.23868" lon="-4.46726">
        <ele>19.3</ele>
        <time>2000-01-01T15:55:34.000Z</time>
      </trkpt>
      <trkpt lat="48.2388" lon="-4.4671">
        <ele>19.2</ele>
        <time>2000-01-01T15:55:44.000Z</time>
      </trkpt>
      <trkpt lat="48.2388" lon="-4.46696">
        <ele>16.2</ele>
        <time>2000-01-01T15:55:54.000Z</time>
      </trkpt>
      <trkpt lat="48.23879" lon="-4.46686">
        <ele>16.1</ele>
        <time>2000-01-01T15:56:04.000Z</time>
      </trkpt>
      <trkpt lat="48.23873" lon="-4.46675">
        <ele>14.8</ele>
        <time>2000-01-01T15:56:14.000Z</time>
      </trkpt>
      <trkpt lat="48.23878" lon="-4.46659">
        <ele>16.7</ele>
        <time>2000-01-01T15:56:24.000Z</time>
      </trkpt>
      <trkpt lat="48.23886" lon="-4.46646">
        <ele>10</ele>
        <time>2000-01-01T15:56:34.000Z</time>
      </trkpt>
      <trkpt lat="48.23885" lon="-4.46627">
        <ele>17.6</ele>
        <time>2000-01-01T15:56:44.000Z</time>
      </trkpt>
      <trkpt lat="48.23887" lon="-4.46613">
        <ele>10</ele>
        <time>2000-01-01T15:56:54.000Z</time>
      </trkpt>
      <trkpt lat="48.23894" lon="-4.46604">
        <ele>18.3</ele>
        <time>2000-01-01T15:57:04.000Z</time>
      </trkpt>
      <trkpt lat="48.23896" lon="-4.46597">
        <ele>17.4</ele>
        <time>2000-01-01T15:57:14.000Z</time>
      </trkpt>
      <trkpt lat="48.23896" lon="-4.46584">
        <ele>11</ele>
        <time>2000-01-01T15:57:24.000Z</time>
      </trkpt>
      <trkpt lat="48.23899" lon="-4.46567">
        <ele>13.2</ele>
        <time>2000-01-01T15:57:34.000Z</time>
      </trkpt>
      <trkpt lat="48.2391" lon="-4.46536">
        <ele>9</ele>
        <time>2000-01-01T15:57:44.000Z</time>
      </trkpt>
      <trkpt lat="48.23918" lon="-4.46522">
        <ele>10</ele>
        <time>2000-01-01T15:57:54.000Z</time>
      </trkpt>
      <trkpt lat="48.23946" lon="-4.46494">
        <ele>8</ele>
        <time>2000-01-01T15:58:04.000Z</time>
      </trkpt>
      <trkpt lat="48.23951" lon="-4.46444">
        <ele>6</ele>
        <time>2000-01-01T15:58:14.000Z</time>
      </trkpt>
      <trkpt lat="48.23955" lon="-4.46443">
        <ele>4.8</ele>
        <time>2000-01-01T15:58:24.000Z</time>
      </trkpt>
      <trkpt lat="48.23956" lon="-4.46405">
        <ele>6</ele>
        <time>2000-01-01T15:58:34.000Z</time>
      </trkpt>
      <trkpt lat="48.23954" lon="-4.46387">
        <ele>6.8</ele>
        <time>2000-01-01T15:58:44.000Z</time>
      </trkpt>
      <trkpt lat="48.2394" lon="-4.46331">
        <ele>6</ele>
        <time>2000-01-01T15:58:54.000Z</time>
      </trkpt>
      <trkpt lat="48.23926" lon="-4.46292">
        <ele>7</ele>
        <time>2000-01-01T15:59:04.000Z</time>
      </trkpt>
      <trkpt lat="48.23914" lon="-4.4626">
        <ele>8</ele>
        <time>2000-01-01T15:59:14.000Z</time>
      </trkpt>
      <trkpt lat="48.23899" lon="-4.46222">
        <ele>11</ele>
        <time>2000-01-01T15:59:24.000Z</time>
      </trkpt>
      <trkpt lat="48.23896" lon="-4.46221">
        <ele>6.8</ele>
        <time>2000-01-01T15:59:34.000Z</time>
      </trkpt>
      <trkpt lat="48.23888" lon="-4.46208">
        <ele>7.6</ele>
        <time>2000-01-01T15:59:44.000Z</time>
      </trkpt>
      <trkpt lat="48.23872" lon="-4.46205">
        <ele>17</ele>
        <time>2000-01-01T15:59:54.000Z</time>
      </trkpt>
      <trkpt lat="48.23868" lon="-4.462">
        <ele>11.1</ele>
        <time>2000-01-01T16:00:04.000Z</time>
      </trkpt>
      <trkpt lat="48.2386" lon="-4.46212">
        <ele>8.6</ele>
        <time>2000-01-01T16:00:14.000Z</time>
      </trkpt>
      <trkpt lat="48.23854" lon="-4.46218">
        <ele>17</ele>
        <time>2000-01-01T16:00:24.000Z</time>
      </trkpt>
      <trkpt lat="48.23849" lon="-4.46217">
        <ele>10</ele>
        <time>2000-01-01T16:00:34.000Z</time>
      </trkpt>
      <trkpt lat="48.23843" lon="-4.46228">
        <ele>10.1</ele>
        <time>2000-01-01T16:00:44.000Z</time>
      </trkpt>
      <trkpt lat="48.23832" lon="-4.46236">
        <ele>16</ele>
        <time>2000-01-01T16:00:54.000Z</time>
      </trkpt>
      <trkpt lat="48.23809" lon="-4.46212">
        <ele>15</ele>
        <time>2000-01-01T16:01:04.000Z</time>
      </trkpt>
      <trkpt lat="48.2379" lon="-4.46193">
        <ele>10</ele>
        <time>2000-01-01T16:01:14.000Z</time>
      </trkpt>
      <trkpt lat="48.2377" lon="-4.46173">
        <ele>9</ele>
        <time>2000-01-01T16:01:24.000Z</time>
      </trkpt>
      <trkpt lat="48.23766" lon="-4.46167">
        <ele>18.9</ele>
        <time>2000-01-01T16:01:34.000Z</time>
      </trkpt>
      <trkpt lat="48.23759" lon="-4.46172">
        <ele>16.9</ele>
        <time>2000-01-01T16:01:44.000Z</time>
      </trkpt>
      <trkpt lat="48.23747" lon="-4.46168">
        <ele>9</ele>
        <time>2000-01-01T16:01:54.000Z</time>
      </trkpt>
      <trkpt lat="48.23749" lon="-4.46141">
        <ele>11</ele>
        <time>2000-01-01T16:02:04.000Z</time>
      </trkpt>
      <trkpt lat="48.23748" lon="-4.46132">
        <ele>20.1</ele>
        <time>2000-01-01T16:02:14.000Z</time>
      </trkpt>
      <trkpt lat="48.23744" lon="-4.46121">
        <ele>18.1</ele>
        <time>2000-01-01T16:02:24.000Z</time>
      </trkpt>
      <trkpt lat="48.23742" lon="-4.46096">
        <ele>13</ele>
        <time>2000-01-01T16:02:34.000Z</time>
      </trkpt>
      <trkpt lat="48.23744" lon="-4.46088">
        <ele>20.2</ele>
        <time>2000-01-01T16:02:44.000Z</time>
      </trkpt>
      <trkpt lat="48.23744" lon="-4.46069">
        <ele>13</ele>
        <time>2000-01-01T16:02:54.000Z</time>
      </trkpt>
      <trkpt lat="48.23739" lon="-4.46047">
        <ele>24.9</ele>
        <time>2000-01-01T16:03:04.000Z</time>
      </trkpt>
      <trkpt lat="48.23731" lon="-4.46034">
        <ele>13</ele>
        <time>2000-01-01T16:03:14.000Z</time>
      </trkpt>
      <trkpt lat="48.23724" lon="-4.46028">
        <ele>29</ele>
        <time>2000-01-01T16:03:24.000Z</time>
      </trkpt>
      <trkpt lat="48.23693" lon="-4.45977">
        <ele>14</ele>
        <time>2000-01-01T16:03:34.000Z</time>
      </trkpt>
      <trkpt lat="48.23686" lon="-4.45973">
        <ele>38.4</ele>
        <time>2000-01-01T16:03:44.000Z</time>
      </trkpt>
      <trkpt lat="48.23672" lon="-4.45957">
        <ele>16</ele>
        <time>2000-01-01T16:03:54.000Z</time>
      </trkpt>
      <trkpt lat="48.23654" lon="-4.45946">
        <ele>20</ele>
        <time>2000-01-01T16:04:04.000Z</time>
      </trkpt>
      <trkpt lat="48.23646" lon="-4.45938">
        <ele>52.4</ele>
        <time>2000-01-01T16:04:14.000Z</time>
      </trkpt>
      <trkpt lat="48.23637" lon="-4.45924">
        <ele>26</ele>
        <time>2000-01-01T16:04:24.000Z</time>
      </trkpt>
      <trkpt lat="48.23635" lon="-4.45916">
        <ele>54.4</ele>
        <time>2000-01-01T16:04:34.000Z</time>
      </trkpt>
      <trkpt lat="48.23632" lon="-4.45892">
        <ele>31</ele>
        <time>2000-01-01T16:04:44.000Z</time>
      </trkpt>
      <trkpt lat="48.23641" lon="-4.45853">
        <ele>31</ele>
        <time>2000-01-01T16:04:54.000Z</time>
      </trkpt>
      <trkpt lat="48.23646" lon="-4.45827">
        <ele>32</ele>
        <time>2000-01-01T16:05:04.000Z</time>
      </trkpt>
      <trkpt lat="48.23649" lon="-4.45782">
        <ele>34</ele>
        <time>2000-01-01T16:05:14.000Z</time>
      </trkpt>
      <trkpt lat="48.23651" lon="-4.45737">
        <ele>33</ele>
        <time>2000-01-01T16:05:24.000Z</time>
      </trkpt>
      <trkpt lat="48.23654" lon="-4.45691">
        <ele>42</ele>
        <time>2000-01-01T16:05:34.000Z</time>
      </trkpt>
      <trkpt lat="48.2366" lon="-4.4565">
        <ele>52</ele>
        <time>2000-01-01T16:05:44.000Z</time>
      </trkpt>
      <trkpt lat="48.2366" lon="-4.45623">
        <ele>52</ele>
        <time>2000-01-01T16:05:54.000Z</time>
      </trkpt>
      <trkpt lat="48.23663" lon="-4.45589">
        <ele>51</ele>
        <time>2000-01-01T16:06:04.000Z</time>
      </trkpt>
      <trkpt lat="48.23665" lon="-4.45554">
        <ele>50</ele>
        <time>2000-01-01T16:06:14.000Z</time>
      </trkpt>
      <trkpt lat="48.23673" lon="-4.45502">
        <ele>50</ele>
        <time>2000-01-01T16:06:24.000Z</time>
      </trkpt>
      <trkpt lat="48.23673" lon="-4.45488">
        <ele>55</ele>
        <time>2000-01-01T16:06:34.000Z</time>
      </trkpt>
      <trkpt lat="48.23679" lon="-4.45461">
        <ele>38</ele>
        <time>2000-01-01T16:06:44.000Z</time>
      </trkpt>
      <trkpt lat="48.23684" lon="-4.45404">
        <ele>40</ele>
        <time>2000-01-01T16:06:54.000Z</time>
      </trkpt>
      <trkpt lat="48.23681" lon="-4.4537">
        <ele>40</ele>
        <time>2000-01-01T16:07:04.000Z</time>
      </trkpt>
      <trkpt lat="48.23682" lon="-4.45332">
        <ele>40</ele>
        <time>2000-01-01T16:07:14.000Z</time>
      </trkpt>
      <trkpt lat="48.23682" lon="-4.45285">
        <ele>41</ele>
        <time>2000-01-01T16:07:24.000Z</time>
      </trkpt>
      <trkpt lat="48.23684" lon="-4.45271">
        <ele>54.5</ele>
        <time>2000-01-01T16:07:34.000Z</time>
      </trkpt>
      <trkpt lat="48.23694" lon="-4.45241">
        <ele>39</ele>
        <time>2000-01-01T16:07:44.000Z</time>
      </trkpt>
      <trkpt lat="48.23678" lon="-4.45195">
        <ele>42</ele>
        <time>2000-01-01T16:07:54.000Z</time>
      </trkpt>
      <trkpt lat="48.23689" lon="-4.45184">
        <ele>54.9</ele>
        <time>2000-01-01T16:08:04.000Z</time>
      </trkpt>
      <trkpt lat="48.23691" lon="-4.45177">
        <ele>45</ele>
        <time>2000-01-01T16:08:14.000Z</time>
      </trkpt>
      <trkpt lat="48.23707" lon="-4.45141">
        <ele>48</ele>
        <time>2000-01-01T16:08:24.000Z</time>
      </trkpt>
      <trkpt lat="48.2372" lon="-4.45127">
        <ele>58.7</ele>
        <time>2000-01-01T16:08:34.000Z</time>
      </trkpt>
      <trkpt lat="48.23754" lon="-4.45099">
        <ele>53</ele>
        <time>2000-01-01T16:08:44.000Z</time>
      </trkpt>
      <trkpt lat="48.23788" lon="-4.4509">
        <ele>53</ele>
        <time>2000-01-01T16:08:54.000Z</time>
      </trkpt>
      <trkpt lat="48.23791" lon="-4.45091">
        <ele>60.2</ele>
        <time>2000-01-01T16:09:04.000Z</time>
      </trkpt>
      <trkpt lat="48.23791" lon="-4.45079">
        <ele>60.1</ele>
        <time>2000-01-01T16:09:14.000Z</time>
      </trkpt>
      <trkpt lat="48.23797" lon="-4.45067">
        <ele>53</ele>
        <time>2000-01-01T16:09:24.000Z</time>
      </trkpt>
      <trkpt lat="48.23803" lon="-4.4502">
        <ele>53</ele>
        <time>2000-01-01T16:09:34.000Z</time>
      </trkpt>
      <trkpt lat="48.23807" lon="-4.44973">
        <ele>51</ele>
        <time>2000-01-01T16:09:44.000Z</time>
      </trkpt>
      <trkpt lat="48.23806" lon="-4.44959">
        <ele>61.4</ele>
        <time>2000-01-01T16:09:54.000Z</time>
      </trkpt>
      <trkpt lat="48.23799" lon="-4.4493">
        <ele>50</ele>
        <time>2000-01-01T16:10:04.000Z</time>
      </trkpt>
      <trkpt lat="48.23791" lon="-4.44884">
        <ele>49</ele>
        <time>2000-01-01T16:10:14.000Z</time>
      </trkpt>
      <trkpt lat="48.23792" lon="-4.44826">
        <ele>49</ele>
        <time>2000-01-01T16:10:24.000Z</time>
      </trkpt>
      <trkpt lat="48.23797" lon="-4.44775">
        <ele>51</ele>
        <time>2000-01-01T16:10:34.000Z</time>
      </trkpt>
      <trkpt lat="48.23803" lon="-4.44741">
        <ele>51</ele>
        <time>2000-01-01T16:10:44.000Z</time>
      </trkpt>
      <trkpt lat="48.2381" lon="-4.44702">
        <ele>49</ele>
        <time>2000-01-01T16:10:54.000Z</time>
      </trkpt>
      <trkpt lat="48.2381" lon="-4.44684">
        <ele>58.2</ele>
        <time>2000-01-01T16:11:04.000Z</time>
      </trkpt>
      <trkpt lat="48.23812" lon="-4.44676">
        <ele>58.2</ele>
        <time>2000-01-01T16:11:14.000Z</time>
      </trkpt>
      <trkpt lat="48.23816" lon="-4.44633">
        <ele>45</ele>
        <time>2000-01-01T16:11:24.000Z</time>
      </trkpt>
      <trkpt lat="48.23812" lon="-4.44627">
        <ele>57.9</ele>
        <time>2000-01-01T16:11:34.000Z</time>
      </trkpt>
      <trkpt lat="48.23808" lon="-4.44614">
        <ele>57.3</ele>
        <time>2000-01-01T16:11:44.000Z</time>
      </trkpt>
      <trkpt lat="48.2381" lon="-4.44599">
        <ele>45</ele>
        <time>2000-01-01T16:11:54.000Z</time>
      </trkpt>
      <trkpt lat="48.23829" lon="-4.44544">
        <ele>46</ele>
        <time>2000-01-01T16:12:04.000Z</time>
      </trkpt>
      <trkpt lat="48.23839" lon="-4.44509">
        <ele>46</ele>
        <time>2000-01-01T16:12:14.000Z</time>
      </trkpt>
      <trkpt lat="48.23846" lon="-4.44461">
        <ele>46</ele>
        <time>2000-01-01T16:12:24.000Z</time>
      </trkpt>
      <trkpt lat="48.23852" lon="-4.44418">
        <ele>46</ele>
        <time>2000-01-01T16:12:34.000Z</time>
      </trkpt>
      <trkpt lat="48.23862" lon="-4.44339">
        <ele>40</ele>
        <time>2000-01-01T16:12:44.000Z</time>
      </trkpt>
      <trkpt lat="48.23871" lon="-4.44285">
        <ele>40</ele>
        <time>2000-01-01T16:12:54.000Z</time>
      </trkpt>
      <trkpt lat="48.23877" lon="-4.44275">
        <ele>41.6</ele>
        <time>2000-01-01T16:13:04.000Z</time>
      </trkpt>
      <trkpt lat="48.23882" lon="-4.44262">
        <ele>40</ele>
        <time>2000-01-01T16:13:14.000Z</time>
      </trkpt>
      <trkpt lat="48.23885" lon="-4.44247">
        <ele>40.5</ele>
        <time>2000-01-01T16:13:24.000Z</time>
      </trkpt>
      <trkpt lat="48.23886" lon="-4.44217">
        <ele>36</ele>
        <time>2000-01-01T16:13:34.000Z</time>
      </trkpt>
      <trkpt lat="48.23885" lon="-4.44181">
        <ele>33</ele>
        <time>2000-01-01T16:13:44.000Z</time>
      </trkpt>
      <trkpt lat="48.23885" lon="-4.4414">
        <ele>33</ele>
        <time>2000-01-01T16:13:54.000Z</time>
      </trkpt>
      <trkpt lat="48.23887" lon="-4.44083">
        <ele>34</ele>
        <time>2000-01-01T16:14:04.000Z</time>
      </trkpt>
      <trkpt lat="48.23895" lon="-4.44029">
        <ele>34</ele>
        <time>2000-01-01T16:14:14.000Z</time>
      </trkpt>
      <trkpt lat="48.239" lon="-4.43988">
        <ele>34</ele>
        <time>2000-01-01T16:14:24.000Z</time>
      </trkpt>
      <trkpt lat="48.23909" lon="-4.43923">
        <ele>30</ele>
        <time>2000-01-01T16:14:34.000Z</time>
      </trkpt>
      <trkpt lat="48.23917" lon="-4.43869">
        <ele>29</ele>
        <time>2000-01-01T16:14:44.000Z</time>
      </trkpt>
      <trkpt lat="48.23925" lon="-4.43804">
        <ele>29</ele>
        <time>2000-01-01T16:14:54.000Z</time>
      </trkpt>
      <trkpt lat="48.23938" lon="-4.43742">
        <ele>29</ele>
        <time>2000-01-01T16:15:04.000Z</time>
      </trkpt>
      <trkpt lat="48.23951" lon="-4.43689">
        <ele>30</ele>
        <time>2000-01-01T16:15:14.000Z</time>
      </trkpt>
      <trkpt lat="48.23964" lon="-4.43643">
        <ele>29</ele>
        <time>2000-01-01T16:15:24.000Z</time>
      </trkpt>
      <trkpt lat="48.23977" lon="-4.43597">
        <ele>29</ele>
        <time>2000-01-01T16:15:34.000Z</time>
      </trkpt>
      <trkpt lat="48.24001" lon="-4.4351">
        <ele>29</ele>
        <time>2000-01-01T16:15:44.000Z</time>
      </trkpt>
      <trkpt lat="48.24008" lon="-4.43474">
        <ele>28</ele>
        <time>2000-01-01T16:15:54.000Z</time>
      </trkpt>
      <trkpt lat="48.24016" lon="-4.43431">
        <ele>27</ele>
        <time>2000-01-01T16:16:04.000Z</time>
      </trkpt>
      <trkpt lat="48.24016" lon="-4.43384">
        <ele>25</ele>
        <time>2000-01-01T16:16:14.000Z</time>
      </trkpt>
      <trkpt lat="48.24017" lon="-4.43337">
        <ele>25</ele>
        <time>2000-01-01T16:16:24.000Z</time>
      </trkpt>
      <trkpt lat="48.24017" lon="-4.43276">
        <ele>23</ele>
        <time>2000-01-01T16:16:34.000Z</time>
      </trkpt>
      <trkpt lat="48.24007" lon="-4.4328">
        <ele>28.7</ele>
        <time>2000-01-01T16:16:44.000Z</time>
      </trkpt>
      <trkpt lat="48.23966" lon="-4.43283">
        <ele>20</ele>
        <time>2000-01-01T16:16:54.000Z</time>
      </trkpt>
      <trkpt lat="48.23925" lon="-4.43278">
        <ele>17</ele>
        <time>2000-01-01T16:17:04.000Z</time>
      </trkpt>
      <trkpt lat="48.23896" lon="-4.43266">
        <ele>13</ele>
        <time>2000-01-01T16:17:14.000Z</time>
      </trkpt>
      <trkpt lat="48.23867" lon="-4.43254">
        <ele>11</ele>
        <time>2000-01-01T16:17:24.000Z</time>
      </trkpt>
      <trkpt lat="48.23837" lon="-4.43241">
        <ele>10</ele>
        <time>2000-01-01T16:17:34.000Z</time>
      </trkpt>
      <trkpt lat="48.23803" lon="-4.43222">
        <ele>7</ele>
        <time>2000-01-01T16:17:44.000Z</time>
      </trkpt>
      <trkpt lat="48.23775" lon="-4.43189">
        <ele>7</ele>
        <time>2000-01-01T16:17:54.000Z</time>
      </trkpt>
      <trkpt lat="48.23746" lon="-4.43153">
        <ele>6</ele>
        <time>2000-01-01T16:18:04.000Z</time>
      </trkpt>
      <trkpt lat="48.23717" lon="-4.43117">
        <ele>6</ele>
        <time>2000-01-01T16:18:14.000Z</time>
      </trkpt>
      <trkpt lat="48.23688" lon="-4.43081">
        <ele>6</ele>
        <time>2000-01-01T16:18:24.000Z</time>
      </trkpt>
      <trkpt lat="48.2366" lon="-4.43044">
        <ele>7</ele>
        <time>2000-01-01T16:18:34.000Z</time>
      </trkpt>
      <trkpt lat="48.23631" lon="-4.43008">
        <ele>8</ele>
        <time>2000-01-01T16:18:44.000Z</time>
      </trkpt>
      <trkpt lat="48.23602" lon="-4.42972">
        <ele>10</ele>
        <time>2000-01-01T16:18:54.000Z</time>
      </trkpt>
      <trkpt lat="48.2357" lon="-4.42931">
        <ele>10</ele>
        <time>2000-01-01T16:19:04.000Z</time>
      </trkpt>
      <trkpt lat="48.23548" lon="-4.42904">
        <ele>8</ele>
        <time>2000-01-01T16:19:14.000Z</time>
      </trkpt>
      <trkpt lat="48.23526" lon="-4.42871">
        <ele>8</ele>
        <time>2000-01-01T16:19:24.000Z</time>
      </trkpt>
      <trkpt lat="48.23498" lon="-4.42824">
        <ele>8</ele>
        <time>2000-01-01T16:19:34.000Z</time>
      </trkpt>
      <trkpt lat="48.23463" lon="-4.42854">
        <ele>8</ele>
        <time>2000-01-01T16:19:44.000Z</time>
      </trkpt>
      <trkpt lat="48.23431" lon="-4.42872">
        <ele>22</ele>
        <time>2000-01-01T16:19:54.000Z</time>
      </trkpt>
      <trkpt lat="48.23404" lon="-4.42895">
        <ele>28</ele>
        <time>2000-01-01T16:20:04.000Z</time>
      </trkpt>
      <trkpt lat="48.23378" lon="-4.42917">
        <ele>30</ele>
        <time>2000-01-01T16:20:14.000Z</time>
      </trkpt>
      <trkpt lat="48.23347" lon="-4.42943">
        <ele>30</ele>
        <time>2000-01-01T16:20:24.000Z</time>
      </trkpt>
      <trkpt lat="48.23318" lon="-4.42982">
        <ele>31</ele>
        <time>2000-01-01T16:20:34.000Z</time>
      </trkpt>
      <trkpt lat="48.23307" lon="-4.43003">
        <ele>4</ele>
        <time>2000-01-01T16:20:44.000Z</time>
      </trkpt>
      <trkpt lat="48.23281" lon="-4.43024">
        <ele>31</ele>
        <time>2000-01-01T16:20:54.000Z</time>
      </trkpt>
      <trkpt lat="48.23253" lon="-4.43042">
        <ele>31</ele>
        <time>2000-01-01T16:21:04.000Z</time>
      </trkpt>
      <trkpt lat="48.23229" lon="-4.43058">
        <ele>18</ele>
        <time>2000-01-01T16:21:14.000Z</time>
      </trkpt>
      <trkpt lat="48.23198" lon="-4.43079">
        <ele>12</ele>
        <time>2000-01-01T16:21:24.000Z</time>
      </trkpt>
      <trkpt lat="48.23173" lon="-4.43087">
        <ele>11</ele>
        <time>2000-01-01T16:21:34.000Z</time>
      </trkpt>
      <trkpt lat="48.23141" lon="-4.43097">
        <ele>11</ele>
        <time>2000-01-01T16:21:44.000Z</time>
      </trkpt>
      <trkpt lat="48.23118" lon="-4.43094">
        <ele>11</ele>
        <time>2000-01-01T16:21:54.000Z</time>
      </trkpt>
      <trkpt lat="48.23094" lon="-4.4309">
        <ele>12</ele>
        <time>2000-01-01T16:22:04.000Z</time>
      </trkpt>
      <trkpt lat="48.2308" lon="-4.43089">
        <ele>8</ele>
        <time>2000-01-01T16:22:14.000Z</time>
      </trkpt>
      <trkpt lat="48.23059" lon="-4.43096">
        <ele>18</ele>
        <time>2000-01-01T16:22:24.000Z</time>
      </trkpt>
      <trkpt lat="48.2306" lon="-4.43091">
        <ele>10.8</ele>
        <time>2000-01-01T16:22:34.000Z</time>
      </trkpt>
      <trkpt lat="48.23058" lon="-4.43084">
        <ele>13.3</ele>
        <time>2000-01-01T16:22:44.000Z</time>
      </trkpt>
      <trkpt lat="48.23035" lon="-4.43118">
        <ele>20</ele>
        <time>2000-01-01T16:22:54.000Z</time>
      </trkpt>
      <trkpt lat="48.23019" lon="-4.43151">
        <ele>21</ele>
        <time>2000-01-01T16:23:04.000Z</time>
      </trkpt>
      <trkpt lat="48.23003" lon="-4.43167">
        <ele>21</ele>
        <time>2000-01-01T16:23:14.000Z</time>
      </trkpt>
      <trkpt lat="48.22998" lon="-4.43175">
        <ele>11.3</ele>
        <time>2000-01-01T16:23:24.000Z</time>
      </trkpt>
      <trkpt lat="48.22995" lon="-4.43191">
        <ele>24</ele>
        <time>2000-01-01T16:23:34.000Z</time>
      </trkpt>
      <trkpt lat="48.22991" lon="-4.43201">
        <ele>7.4</ele>
        <time>2000-01-01T16:23:44.000Z</time>
      </trkpt>
      <trkpt lat="48.22967" lon="-4.43228">
        <ele>23</ele>
        <time>2000-01-01T16:23:54.000Z</time>
      </trkpt>
      <trkpt lat="48.22963" lon="-4.43231">
        <ele>8.2</ele>
        <time>2000-01-01T16:24:04.000Z</time>
      </trkpt>
      <trkpt lat="48.22948" lon="-4.43232">
        <ele>22</ele>
        <time>2000-01-01T16:24:14.000Z</time>
      </trkpt>
      <trkpt lat="48.2292" lon="-4.43259">
        <ele>18</ele>
        <time>2000-01-01T16:24:24.000Z</time>
      </trkpt>
      <trkpt lat="48.22913" lon="-4.43261">
        <ele>7.6</ele>
        <time>2000-01-01T16:24:34.000Z</time>
      </trkpt>
      <trkpt lat="48.22905" lon="-4.43262">
        <ele>7.8</ele>
        <time>2000-01-01T16:24:44.000Z</time>
      </trkpt>
      <trkpt lat="48.22899" lon="-4.43252">
        <ele>9</ele>
        <time>2000-01-01T16:24:54.000Z</time>
      </trkpt>
      <trkpt lat="48.22897" lon="-4.43244">
        <ele>9.1</ele>
        <time>2000-01-01T16:25:04.000Z</time>
      </trkpt>
      <trkpt lat="48.22893" lon="-4.43237">
        <ele>9.1</ele>
        <time>2000-01-01T16:25:14.000Z</time>
      </trkpt>
      <trkpt lat="48.22898" lon="-4.43216">
        <ele>8</ele>
        <time>2000-01-01T16:25:24.000Z</time>
      </trkpt>
      <trkpt lat="48.22906" lon="-4.43175">
        <ele>8</ele>
        <time>2000-01-01T16:25:34.000Z</time>
      </trkpt>
      <trkpt lat="48.22912" lon="-4.43142">
        <ele>14</ele>
        <time>2000-01-01T16:25:44.000Z</time>
      </trkpt>
      <trkpt lat="48.22918" lon="-4.43106">
        <ele>14</ele>
        <time>2000-01-01T16:25:54.000Z</time>
      </trkpt>
      <trkpt lat="48.22922" lon="-4.43092">
        <ele>19.7</ele>
        <time>2000-01-01T16:26:04.000Z</time>
      </trkpt>
      <trkpt lat="48.22935" lon="-4.43059">
        <ele>16</ele>
        <time>2000-01-01T16:26:14.000Z</time>
      </trkpt>
      <trkpt lat="48.22958" lon="-4.4301">
        <ele>16</ele>
        <time>2000-01-01T16:26:24.000Z</time>
      </trkpt>
      <trkpt lat="48.22973" lon="-4.42984">
        <ele>15</ele>
        <time>2000-01-01T16:26:34.000Z</time>
      </trkpt>
      <trkpt lat="48.22987" lon="-4.42957">
        <ele>15</ele>
        <time>2000-01-01T16:26:44.000Z</time>
      </trkpt>
      <trkpt lat="48.22963" lon="-4.42935">
        <ele>15</ele>
        <time>2000-01-01T16:26:54.000Z</time>
      </trkpt>
      <trkpt lat="48.22924" lon="-4.42899">
        <ele>14</ele>
        <time>2000-01-01T16:27:04.000Z</time>
      </trkpt>
      <trkpt lat="48.22928" lon="-4.42864">
        <ele>13</ele>
        <time>2000-01-01T16:27:14.000Z</time>
      </trkpt>
      <trkpt lat="48.22933" lon="-4.42824">
        <ele>13</ele>
        <time>2000-01-01T16:27:24.000Z</time>
      </trkpt>
      <trkpt lat="48.22938" lon="-4.42789">
        <ele>12</ele>
        <time>2000-01-01T16:27:34.000Z</time>
      </trkpt>
      <trkpt lat="48.22967" lon="-4.42767">
        <ele>12</ele>
        <time>2000-01-01T16:27:44.000Z</time>
      </trkpt>
      <trkpt lat="48.22991" lon="-4.42733">
        <ele>12</ele>
        <time>2000-01-01T16:27:54.000Z</time>
      </trkpt>
      <trkpt lat="48.22994" lon="-4.42695">
        <ele>15</ele>
        <time>2000-01-01T16:28:04.000Z</time>
      </trkpt>
      <trkpt lat="48.22999" lon="-4.42646">
        <ele>15</ele>
        <time>2000-01-01T16:28:14.000Z</time>
      </trkpt>
      <trkpt lat="48.23006" lon="-4.42634">
        <ele>28.6</ele>
        <time>2000-01-01T16:28:24.000Z</time>
      </trkpt>
      <trkpt lat="48.23009" lon="-4.42605">
        <ele>15</ele>
        <time>2000-01-01T16:28:34.000Z</time>
      </trkpt>
      <trkpt lat="48.23009" lon="-4.42571">
        <ele>15</ele>
        <time>2000-01-01T16:28:44.000Z</time>
      </trkpt>
      <trkpt lat="48.23003" lon="-4.42585">
        <ele>28.6</ele>
        <time>2000-01-01T16:28:54.000Z</time>
      </trkpt>
      <trkpt lat="48.23001" lon="-4.42584">
        <ele>28.2</ele>
        <time>2000-01-01T16:29:04.000Z</time>
      </trkpt>
      <trkpt lat="48.22995" lon="-4.42558">
        <ele>11</ele>
        <time>2000-01-01T16:29:14.000Z</time>
      </trkpt>
      <trkpt lat="48.22992" lon="-4.42551">
        <ele>27.4</ele>
        <time>2000-01-01T16:29:24.000Z</time>
      </trkpt>
      <trkpt lat="48.22989" lon="-4.42549">
        <ele>26.7</ele>
        <time>2000-01-01T16:29:34.000Z</time>
      </trkpt>
      <trkpt lat="48.22985" lon="-4.42558">
        <ele>23.1</ele>
        <time>2000-01-01T16:29:44.000Z</time>
      </trkpt>
      <trkpt lat="48.22977" lon="-4.42562">
        <ele>11</ele>
        <time>2000-01-01T16:29:54.000Z</time>
      </trkpt>
      <trkpt lat="48.2297" lon="-4.42559">
        <ele>16</ele>
        <time>2000-01-01T16:30:04.000Z</time>
      </trkpt>
      <trkpt lat="48.22971" lon="-4.42551">
        <ele>18.8</ele>
        <time>2000-01-01T16:30:14.000Z</time>
      </trkpt>
      <trkpt lat="48.2296" lon="-4.42525">
        <ele>11</ele>
        <time>2000-01-01T16:30:24.000Z</time>
      </trkpt>
      <trkpt lat="48.22959" lon="-4.42503">
        <ele>27.3</ele>
        <time>2000-01-01T16:30:34.000Z</time>
      </trkpt>
      <trkpt lat="48.22957" lon="-4.42495">
        <ele>12</ele>
        <time>2000-01-01T16:30:44.000Z</time>
      </trkpt>
      <trkpt lat="48.22951" lon="-4.42483">
        <ele>29.7</ele>
        <time>2000-01-01T16:30:54.000Z</time>
      </trkpt>
      <trkpt lat="48.22941" lon="-4.42473">
        <ele>12</ele>
        <time>2000-01-01T16:31:04.000Z</time>
      </trkpt>
      <trkpt lat="48.22923" lon="-4.42473">
        <ele>12</ele>
        <time>2000-01-01T16:31:14.000Z</time>
      </trkpt>
      <trkpt lat="48.22915" lon="-4.42476">
        <ele>24.9</ele>
        <time>2000-01-01T16:31:24.000Z</time>
      </trkpt>
      <trkpt lat="48.22909" lon="-4.42476">
        <ele>22.8</ele>
        <time>2000-01-01T16:31:34.000Z</time>
      </trkpt>
      <trkpt lat="48.22905" lon="-4.42471">
        <ele>11</ele>
        <time>2000-01-01T16:31:44.000Z</time>
      </trkpt>
      <trkpt lat="48.22903" lon="-4.42459">
        <ele>21.3</ele>
        <time>2000-01-01T16:31:54.000Z</time>
      </trkpt>
      <trkpt lat="48.22907" lon="-4.42437">
        <ele>11</ele>
        <time>2000-01-01T16:32:04.000Z</time>
      </trkpt>
      <trkpt lat="48.22905" lon="-4.42402">
        <ele>13</ele>
        <time>2000-01-01T16:32:14.000Z</time>
      </trkpt>
      <trkpt lat="48.22896" lon="-4.42373">
        <ele>13</ele>
        <time>2000-01-01T16:32:24.000Z</time>
      </trkpt>
      <trkpt lat="48.22886" lon="-4.42368">
        <ele>23</ele>
        <time>2000-01-01T16:32:34.000Z</time>
      </trkpt>
      <trkpt lat="48.22877" lon="-4.42359">
        <ele>12</ele>
        <time>2000-01-01T16:32:44.000Z</time>
      </trkpt>
      <trkpt lat="48.22875" lon="-4.4236">
        <ele>21.5</ele>
        <time>2000-01-01T16:32:54.000Z</time>
      </trkpt>
      <trkpt lat="48.22873" lon="-4.42364">
        <ele>21</ele>
        <time>2000-01-01T16:33:04.000Z</time>
      </trkpt>
      <trkpt lat="48.22869" lon="-4.42364">
        <ele>20.3</ele>
        <time>2000-01-01T16:33:14.000Z</time>
      </trkpt>
      <trkpt lat="48.22861" lon="-4.4237">
        <ele>12</ele>
        <time>2000-01-01T16:33:24.000Z</time>
      </trkpt>
      <trkpt lat="48.22852" lon="-4.42372">
        <ele>16.3</ele>
        <time>2000-01-01T16:33:34.000Z</time>
      </trkpt>
      <trkpt lat="48.22836" lon="-4.42373">
        <ele>10</ele>
        <time>2000-01-01T16:33:44.000Z</time>
      </trkpt>
      <trkpt lat="48.2283" lon="-4.42371">
        <ele>11.4</ele>
        <time>2000-01-01T16:33:54.000Z</time>
      </trkpt>
      <trkpt lat="48.2282" lon="-4.42371">
        <ele>10.2</ele>
        <time>2000-01-01T16:34:04.000Z</time>
      </trkpt>
      <trkpt lat="48.22809" lon="-4.42359">
        <ele>8</ele>
        <time>2000-01-01T16:34:14.000Z</time>
      </trkpt>
      <trkpt lat="48.22798" lon="-4.42356">
        <ele>12.2</ele>
        <time>2000-01-01T16:34:24.000Z</time>
      </trkpt>
      <trkpt lat="48.22793" lon="-4.42351">
        <ele>12.7</ele>
        <time>2000-01-01T16:34:34.000Z</time>
      </trkpt>
      <trkpt lat="48.22783" lon="-4.42349">
        <ele>8</ele>
        <time>2000-01-01T16:34:44.000Z</time>
      </trkpt>
      <trkpt lat="48.22772" lon="-4.42334">
        <ele>13.8</ele>
        <time>2000-01-01T16:34:54.000Z</time>
      </trkpt>
      <trkpt lat="48.2277" lon="-4.4233">
        <ele>10</ele>
        <time>2000-01-01T16:35:04.000Z</time>
      </trkpt>
      <trkpt lat="48.22771" lon="-4.42312">
        <ele>14.5</ele>
        <time>2000-01-01T16:35:14.000Z</time>
      </trkpt>
      <trkpt lat="48.22773" lon="-4.42296">
        <ele>11</ele>
        <time>2000-01-01T16:35:24.000Z</time>
      </trkpt>
      <trkpt lat="48.22769" lon="-4.42275">
        <ele>16.3</ele>
        <time>2000-01-01T16:35:34.000Z</time>
      </trkpt>
      <trkpt lat="48.22766" lon="-4.42234">
        <ele>10</ele>
        <time>2000-01-01T16:35:44.000Z</time>
      </trkpt>
      <trkpt lat="48.22764" lon="-4.42222">
        <ele>25.5</ele>
        <time>2000-01-01T16:35:54.000Z</time>
      </trkpt>
      <trkpt lat="48.22725" lon="-4.42196">
        <ele>9</ele>
        <time>2000-01-01T16:36:04.000Z</time>
      </trkpt>
      <trkpt lat="48.22703" lon="-4.42171">
        <ele>28</ele>
        <time>2000-01-01T16:36:14.000Z</time>
      </trkpt>
      <trkpt lat="48.22696" lon="-4.4216">
        <ele>28.4</ele>
        <time>2000-01-01T16:36:24.000Z</time>
      </trkpt>
      <trkpt lat="48.22694" lon="-4.42147">
        <ele>28.4</ele>
        <time>2000-01-01T16:36:34.000Z</time>
      </trkpt>
      <trkpt lat="48.22696" lon="-4.42136">
        <ele>28.7</ele>
        <time>2000-01-01T16:36:44.000Z</time>
      </trkpt>
      <trkpt lat="48.22693" lon="-4.42127">
        <ele>25.9</ele>
        <time>2000-01-01T16:36:54.000Z</time>
      </trkpt>
      <trkpt lat="48.22693" lon="-4.4212">
        <ele>24.7</ele>
        <time>2000-01-01T16:37:04.000Z</time>
      </trkpt>
      <trkpt lat="48.227" lon="-4.42085">
        <ele>21.8</ele>
        <time>2000-01-01T16:37:14.000Z</time>
      </trkpt>
      <trkpt lat="48.22708" lon="-4.42043">
        <ele>18.1</ele>
        <time>2000-01-01T16:37:24.000Z</time>
      </trkpt>
      <trkpt lat="48.22712" lon="-4.42028">
        <ele>17.3</ele>
        <time>2000-01-01T16:37:34.000Z</time>
      </trkpt>
      <trkpt lat="48.22715" lon="-4.42021">
        <ele>16.5</ele>
        <time>2000-01-01T16:37:44.000Z</time>
      </trkpt>
      <trkpt lat="48.22727" lon="-4.42013">
        <ele>11</ele>
        <time>2000-01-01T16:37:54.000Z</time>
      </trkpt>
      <trkpt lat="48.22732" lon="-4.42011">
        <ele>20.7</ele>
        <time>2000-01-01T16:38:04.000Z</time>
      </trkpt>
      <trkpt lat="48.22738" lon="-4.42013">
        <ele>23.6</ele>
        <time>2000-01-01T16:38:14.000Z</time>
      </trkpt>
      <trkpt lat="48.22751" lon="-4.42011">
        <ele>13</ele>
        <time>2000-01-01T16:38:24.000Z</time>
      </trkpt>
      <trkpt lat="48.22757" lon="-4.42003">
        <ele>28.9</ele>
        <time>2000-01-01T16:38:34.000Z</time>
      </trkpt>
      <trkpt lat="48.22759" lon="-4.41987">
        <ele>15</ele>
        <time>2000-01-01T16:38:44.000Z</time>
      </trkpt>
      <trkpt lat="48.22767" lon="-4.4198">
        <ele>26.6</ele>
        <time>2000-01-01T16:38:54.000Z</time>
      </trkpt>
      <trkpt lat="48.22773" lon="-4.41971">
        <ele>27.7</ele>
        <time>2000-01-01T16:39:04.000Z</time>
      </trkpt>
      <trkpt lat="48.22782" lon="-4.4195">
        <ele>14</ele>
        <time>2000-01-01T16:39:14.000Z</time>
      </trkpt>
      <trkpt lat="48.22783" lon="-4.41915">
        <ele>14</ele>
        <time>2000-01-01T16:39:24.000Z</time>
      </trkpt>
      <trkpt lat="48.22787" lon="-4.419">
        <ele>25.3</ele>
        <time>2000-01-01T16:39:34.000Z</time>
      </trkpt>
      <trkpt lat="48.22798" lon="-4.41877">
        <ele>12</ele>
        <time>2000-01-01T16:39:44.000Z</time>
      </trkpt>
      <trkpt lat="48.22799" lon="-4.41872">
        <ele>29.3</ele>
        <time>2000-01-01T16:39:54.000Z</time>
      </trkpt>
      <trkpt lat="48.22793" lon="-4.41839">
        <ele>11</ele>
        <time>2000-01-01T16:40:04.000Z</time>
      </trkpt>
      <trkpt lat="48.22792" lon="-4.41815">
        <ele>31.8</ele>
        <time>2000-01-01T16:40:14.000Z</time>
      </trkpt>
      <trkpt lat="48.22787" lon="-4.41808">
        <ele>11</ele>
        <time>2000-01-01T16:40:24.000Z</time>
      </trkpt>
      <trkpt lat="48.22783" lon="-4.4179">
        <ele>31.6</ele>
        <time>2000-01-01T16:40:34.000Z</time>
      </trkpt>
      <trkpt lat="48.22779" lon="-4.41785">
        <ele>30.7</ele>
        <time>2000-01-01T16:40:44.000Z</time>
      </trkpt>
      <trkpt lat="48.22771" lon="-4.41786">
        <ele>9</ele>
        <time>2000-01-01T16:40:54.000Z</time>
      </trkpt>
      <trkpt lat="48.22766" lon="-4.41781">
        <ele>23.1</ele>
        <time>2000-01-01T16:41:04.000Z</time>
      </trkpt>
      <trkpt lat="48.22761" lon="-4.41768">
        <ele>22.9</ele>
        <time>2000-01-01T16:41:14.000Z</time>
      </trkpt>
      <trkpt lat="48.22757" lon="-4.41751">
        <ele>8</ele>
        <time>2000-01-01T16:41:24.000Z</time>
      </trkpt>
      <trkpt lat="48.22759" lon="-4.41745">
        <ele>27.3</ele>
        <time>2000-01-01T16:41:34.000Z</time>
      </trkpt>
      <trkpt lat="48.22752" lon="-4.41744">
        <ele>26.2</ele>
        <time>2000-01-01T16:41:44.000Z</time>
      </trkpt>
      <trkpt lat="48.22748" lon="-4.41733">
        <ele>8</ele>
        <time>2000-01-01T16:41:54.000Z</time>
      </trkpt>
      <trkpt lat="48.22743" lon="-4.41708">
        <ele>25.6</ele>
        <time>2000-01-01T16:42:04.000Z</time>
      </trkpt>
      <trkpt lat="48.22741" lon="-4.41685">
        <ele>10</ele>
        <time>2000-01-01T16:42:14.000Z</time>
      </trkpt>
      <trkpt lat="48.22735" lon="-4.41686">
        <ele>25.6</ele>
        <time>2000-01-01T16:42:24.000Z</time>
      </trkpt>
      <trkpt lat="48.2273" lon="-4.41659">
        <ele>13</ele>
        <time>2000-01-01T16:42:34.000Z</time>
      </trkpt>
      <trkpt lat="48.22722" lon="-4.41648">
        <ele>27.5</ele>
        <time>2000-01-01T16:42:44.000Z</time>
      </trkpt>
      <trkpt lat="48.22716" lon="-4.41633">
        <ele>13</ele>
        <time>2000-01-01T16:42:54.000Z</time>
      </trkpt>
      <trkpt lat="48.22704" lon="-4.4158">
        <ele>13</ele>
        <time>2000-01-01T16:43:04.000Z</time>
      </trkpt>
      <trkpt lat="48.22694" lon="-4.41547">
        <ele>13</ele>
        <time>2000-01-01T16:43:14.000Z</time>
      </trkpt>
      <trkpt lat="48.22694" lon="-4.41532">
        <ele>40</ele>
        <time>2000-01-01T16:43:24.000Z</time>
      </trkpt>
      <trkpt lat="48.22685" lon="-4.41455">
        <ele>14</ele>
        <time>2000-01-01T16:43:34.000Z</time>
      </trkpt>
      <trkpt lat="48.22682" lon="-4.41447">
        <ele>51</ele>
        <time>2000-01-01T16:43:44.000Z</time>
      </trkpt>
      <trkpt lat="48.22643" lon="-4.41384">
        <ele>15</ele>
        <time>2000-01-01T16:43:54.000Z</time>
      </trkpt>
      <trkpt lat="48.22629" lon="-4.41364">
        <ele>16</ele>
        <time>2000-01-01T16:44:04.000Z</time>
      </trkpt>
      <trkpt lat="48.22624" lon="-4.41351">
        <ele>41.5</ele>
        <time>2000-01-01T16:44:14.000Z</time>
      </trkpt>
      <trkpt lat="48.2262" lon="-4.41345">
        <ele>40.4</ele>
        <time>2000-01-01T16:44:24.000Z</time>
      </trkpt>
      <trkpt lat="48.22614" lon="-4.41322">
        <ele>18</ele>
        <time>2000-01-01T16:44:34.000Z</time>
      </trkpt>
      <trkpt lat="48.226" lon="-4.41279">
        <ele>22</ele>
        <time>2000-01-01T16:44:44.000Z</time>
      </trkpt>
      <trkpt lat="48.22593" lon="-4.41248">
        <ele>29</ele>
        <time>2000-01-01T16:44:54.000Z</time>
      </trkpt>
      <trkpt lat="48.22587" lon="-4.41229">
        <ele>44.6</ele>
        <time>2000-01-01T16:45:04.000Z</time>
      </trkpt>
      <trkpt lat="48.22573" lon="-4.41222">
        <ele>37</ele>
        <time>2000-01-01T16:45:14.000Z</time>
      </trkpt>
      <trkpt lat="48.22559" lon="-4.41224">
        <ele>43.7</ele>
        <time>2000-01-01T16:45:24.000Z</time>
      </trkpt>
      <trkpt lat="48.22549" lon="-4.41229">
        <ele>37</ele>
        <time>2000-01-01T16:45:34.000Z</time>
      </trkpt>
      <trkpt lat="48.2254" lon="-4.4125">
        <ele>39.8</ele>
        <time>2000-01-01T16:45:44.000Z</time>
      </trkpt>
      <trkpt lat="48.22538" lon="-4.41269">
        <ele>32</ele>
        <time>2000-01-01T16:45:54.000Z</time>
      </trkpt>
      <trkpt lat="48.22528" lon="-4.41281">
        <ele>34.6</ele>
        <time>2000-01-01T16:46:04.000Z</time>
      </trkpt>
      <trkpt lat="48.22519" lon="-4.41304">
        <ele>28</ele>
        <time>2000-01-01T16:46:14.000Z</time>
      </trkpt>
      <trkpt lat="48.22516" lon="-4.41314">
        <ele>31.7</ele>
        <time>2000-01-01T16:46:24.000Z</time>
      </trkpt>
      <trkpt lat="48.22512" lon="-4.41321">
        <ele>31</ele>
        <time>2000-01-01T16:46:34.000Z</time>
      </trkpt>
      <trkpt lat="48.22502" lon="-4.41325">
        <ele>31</ele>
        <time>2000-01-01T16:46:44.000Z</time>
      </trkpt>
      <trkpt lat="48.22495" lon="-4.41322">
        <ele>33.7</ele>
        <time>2000-01-01T16:46:54.000Z</time>
      </trkpt>
      <trkpt lat="48.22489" lon="-4.41313">
        <ele>36.3</ele>
        <time>2000-01-01T16:47:04.000Z</time>
      </trkpt>
      <trkpt lat="48.22474" lon="-4.41303">
        <ele>34</ele>
        <time>2000-01-01T16:47:14.000Z</time>
      </trkpt>
      <trkpt lat="48.22466" lon="-4.41294">
        <ele>45.1</ele>
        <time>2000-01-01T16:47:24.000Z</time>
      </trkpt>
      <trkpt lat="48.22446" lon="-4.41296">
        <ele>43</ele>
        <time>2000-01-01T16:47:34.000Z</time>
      </trkpt>
      <trkpt lat="48.22439" lon="-4.41293">
        <ele>54.9</ele>
        <time>2000-01-01T16:47:44.000Z</time>
      </trkpt>
      <trkpt lat="48.22432" lon="-4.41274">
        <ele>58</ele>
        <time>2000-01-01T16:47:54.000Z</time>
      </trkpt>
      <trkpt lat="48.22422" lon="-4.41263">
        <ele>66</ele>
        <time>2000-01-01T16:48:04.000Z</time>
      </trkpt>
      <trkpt lat="48.22421" lon="-4.41255">
        <ele>67</ele>
        <time>2000-01-01T16:48:14.000Z</time>
      </trkpt>
      <trkpt lat="48.22425" lon="-4.41248">
        <ele>64</ele>
        <time>2000-01-01T16:48:24.000Z</time>
      </trkpt>
      <trkpt lat="48.22423" lon="-4.41243">
        <ele>67.3</ele>
        <time>2000-01-01T16:48:34.000Z</time>
      </trkpt>
      <trkpt lat="48.22408" lon="-4.41233">
        <ele>66</ele>
        <time>2000-01-01T16:48:44.000Z</time>
      </trkpt>
      <trkpt lat="48.22404" lon="-4.41229">
        <ele>71.4</ele>
        <time>2000-01-01T16:48:54.000Z</time>
      </trkpt>
      <trkpt lat="48.22399" lon="-4.41214">
        <ele>70.3</ele>
        <time>2000-01-01T16:49:04.000Z</time>
      </trkpt>
      <trkpt lat="48.22393" lon="-4.41208">
        <ele>65</ele>
        <time>2000-01-01T16:49:14.000Z</time>
      </trkpt>
      <trkpt lat="48.22389" lon="-4.41194">
        <ele>68</ele>
        <time>2000-01-01T16:49:24.000Z</time>
      </trkpt>
      <trkpt lat="48.22387" lon="-4.41191">
        <ele>67.3</ele>
        <time>2000-01-01T16:49:34.000Z</time>
      </trkpt>
      <trkpt lat="48.22385" lon="-4.41182">
        <ele>65</ele>
        <time>2000-01-01T16:49:44.000Z</time>
      </trkpt>
      <trkpt lat="48.22386" lon="-4.41175">
        <ele>66.3</ele>
        <time>2000-01-01T16:49:54.000Z</time>
      </trkpt>
      <trkpt lat="48.22381" lon="-4.41153">
        <ele>64</ele>
        <time>2000-01-01T16:50:04.000Z</time>
      </trkpt>
      <trkpt lat="48.2238" lon="-4.41136">
        <ele>65.4</ele>
        <time>2000-01-01T16:50:14.000Z</time>
      </trkpt>
      <trkpt lat="48.2238" lon="-4.41126">
        <ele>64</ele>
        <time>2000-01-01T16:50:24.000Z</time>
      </trkpt>
      <trkpt lat="48.22377" lon="-4.41106">
        <ele>67.1</ele>
        <time>2000-01-01T16:50:34.000Z</time>
      </trkpt>
      <trkpt lat="48.22376" lon="-4.41079">
        <ele>44</ele>
        <time>2000-01-01T16:50:44.000Z</time>
      </trkpt>
      <trkpt lat="48.2237" lon="-4.41055">
        <ele>73.3</ele>
        <time>2000-01-01T16:50:54.000Z</time>
      </trkpt>
      <trkpt lat="48.22374" lon="-4.41042">
        <ele>44</ele>
        <time>2000-01-01T16:51:04.000Z</time>
      </trkpt>
      <trkpt lat="48.22379" lon="-4.41038">
        <ele>76.5</ele>
        <time>2000-01-01T16:51:14.000Z</time>
      </trkpt>
      <trkpt lat="48.22389" lon="-4.41016">
        <ele>48</ele>
        <time>2000-01-01T16:51:24.000Z</time>
      </trkpt>
      <trkpt lat="48.2239" lon="-4.41003">
        <ele>79.3</ele>
        <time>2000-01-01T16:51:34.000Z</time>
      </trkpt>
      <trkpt lat="48.22393" lon="-4.40992">
        <ele>80.6</ele>
        <time>2000-01-01T16:51:44.000Z</time>
      </trkpt>
      <trkpt lat="48.22396" lon="-4.40947">
        <ele>48</ele>
        <time>2000-01-01T16:51:54.000Z</time>
      </trkpt>
      <trkpt lat="48.22395" lon="-4.40911">
        <ele>48</ele>
        <time>2000-01-01T16:52:04.000Z</time>
      </trkpt>
      <trkpt lat="48.22391" lon="-4.40886">
        <ele>86.2</ele>
        <time>2000-01-01T16:52:14.000Z</time>
      </trkpt>
      <trkpt lat="48.22392" lon="-4.40864">
        <ele>48</ele>
        <time>2000-01-01T16:52:24.000Z</time>
      </trkpt>
      <trkpt lat="48.2239" lon="-4.40846">
        <ele>84.5</ele>
        <time>2000-01-01T16:52:34.000Z</time>
      </trkpt>
      <trkpt lat="48.22399" lon="-4.40828">
        <ele>55</ele>
        <time>2000-01-01T16:52:44.000Z</time>
      </trkpt>
      <trkpt lat="48.22412" lon="-4.40792">
        <ele>57</ele>
        <time>2000-01-01T16:52:54.000Z</time>
      </trkpt>
      <trkpt lat="48.22416" lon="-4.40764">
        <ele>59</ele>
        <time>2000-01-01T16:53:04.000Z</time>
      </trkpt>
      <trkpt lat="48.22417" lon="-4.40736">
        <ele>66</ele>
        <time>2000-01-01T16:53:14.000Z</time>
      </trkpt>
      <trkpt lat="48.2242" lon="-4.40701">
        <ele>68</ele>
        <time>2000-01-01T16:53:24.000Z</time>
      </trkpt>
      <trkpt lat="48.22415" lon="-4.4066">
        <ele>60</ele>
        <time>2000-01-01T16:53:34.000Z</time>
      </trkpt>
      <trkpt lat="48.22405" lon="-4.40624">
        <ele>60</ele>
        <time>2000-01-01T16:53:44.000Z</time>
      </trkpt>
      <trkpt lat="48.22398" lon="-4.40585">
        <ele>61</ele>
        <time>2000-01-01T16:53:54.000Z</time>
      </trkpt>
      <trkpt lat="48.22388" lon="-4.40529">
        <ele>66</ele>
        <time>2000-01-01T16:54:04.000Z</time>
      </trkpt>
      <trkpt lat="48.22382" lon="-4.40511">
        <ele>90.1</ele>
        <time>2000-01-01T16:54:14.000Z</time>
      </trkpt>
      <trkpt lat="48.22376" lon="-4.405">
        <ele>71</ele>
        <time>2000-01-01T16:54:24.000Z</time>
      </trkpt>
      <trkpt lat="48.2236" lon="-4.40451">
        <ele>77</ele>
        <time>2000-01-01T16:54:34.000Z</time>
      </trkpt>
      <trkpt lat="48.22351" lon="-4.40434">
        <ele>89.4</ele>
        <time>2000-01-01T16:54:44.000Z</time>
      </trkpt>
      <trkpt lat="48.22335" lon="-4.40395">
        <ele>77</ele>
        <time>2000-01-01T16:54:54.000Z</time>
      </trkpt>
      <trkpt lat="48.22324" lon="-4.40337">
        <ele>76</ele>
        <time>2000-01-01T16:55:04.000Z</time>
      </trkpt>
      <trkpt lat="48.22318" lon="-4.4032">
        <ele>89.1</ele>
        <time>2000-01-01T16:55:14.000Z</time>
      </trkpt>
      <trkpt lat="48.22313" lon="-4.40286">
        <ele>77</ele>
        <time>2000-01-01T16:55:24.000Z</time>
      </trkpt>
      <trkpt lat="48.22301" lon="-4.40256">
        <ele>77</ele>
        <time>2000-01-01T16:55:34.000Z</time>
      </trkpt>
      <trkpt lat="48.22277" lon="-4.40227">
        <ele>77</ele>
        <time>2000-01-01T16:55:44.000Z</time>
      </trkpt>
      <trkpt lat="48.22271" lon="-4.40217">
        <ele>88.3</ele>
        <time>2000-01-01T16:55:54.000Z</time>
      </trkpt>
      <trkpt lat="48.22261" lon="-4.40208">
        <ele>72</ele>
        <time>2000-01-01T16:56:04.000Z</time>
      </trkpt>
      <trkpt lat="48.22253" lon="-4.40192">
        <ele>88.3</ele>
        <time>2000-01-01T16:56:14.000Z</time>
      </trkpt>
      <trkpt lat="48.22243" lon="-4.40182">
        <ele>68</ele>
        <time>2000-01-01T16:56:24.000Z</time>
      </trkpt>
      <trkpt lat="48.22239" lon="-4.40173">
        <ele>88.1</ele>
        <time>2000-01-01T16:56:34.000Z</time>
      </trkpt>
      <trkpt lat="48.22227" lon="-4.40156">
        <ele>71</ele>
        <time>2000-01-01T16:56:44.000Z</time>
      </trkpt>
      <trkpt lat="48.22222" lon="-4.40147">
        <ele>89.9</ele>
        <time>2000-01-01T16:56:54.000Z</time>
      </trkpt>
      <trkpt lat="48.22196" lon="-4.4012">
        <ele>66</ele>
        <time>2000-01-01T16:57:04.000Z</time>
      </trkpt>
      <trkpt lat="48.22182" lon="-4.40111">
        <ele>88.8</ele>
        <time>2000-01-01T16:57:14.000Z</time>
      </trkpt>
      <trkpt lat="48.2217" lon="-4.40095">
        <ele>69</ele>
        <time>2000-01-01T16:57:24.000Z</time>
      </trkpt>
      <trkpt lat="48.22161" lon="-4.40063">
        <ele>68</ele>
        <time>2000-01-01T16:57:34.000Z</time>
      </trkpt>
      <trkpt lat="48.2215" lon="-4.40027">
        <ele>70</ele>
        <time>2000-01-01T16:57:44.000Z</time>
      </trkpt>
      <trkpt lat="48.22137" lon="-4.39995">
        <ele>66</ele>
        <time>2000-01-01T16:57:54.000Z</time>
      </trkpt>
      <trkpt lat="48.22135" lon="-4.39985">
        <ele>82.8</ele>
        <time>2000-01-01T16:58:04.000Z</time>
      </trkpt>
      <trkpt lat="48.2213" lon="-4.39968">
        <ele>67</ele>
        <time>2000-01-01T16:58:14.000Z</time>
      </trkpt>
      <trkpt lat="48.22128" lon="-4.39954">
        <ele>81.7</ele>
        <time>2000-01-01T16:58:24.000Z</time>
      </trkpt>
      <trkpt lat="48.22125" lon="-4.3991">
        <ele>69</ele>
        <time>2000-01-01T16:58:34.000Z</time>
      </trkpt>
      <trkpt lat="48.22127" lon="-4.39892">
        <ele>79.5</ele>
        <time>2000-01-01T16:58:44.000Z</time>
      </trkpt>
      <trkpt lat="48.22135" lon="-4.39876">
        <ele>70</ele>
        <time>2000-01-01T16:58:54.000Z</time>
      </trkpt>
      <trkpt lat="48.22142" lon="-4.39873">
        <ele>83.8</ele>
        <time>2000-01-01T16:59:04.000Z</time>
      </trkpt>
      <trkpt lat="48.22152" lon="-4.3986">
        <ele>72</ele>
        <time>2000-01-01T16:59:14.000Z</time>
      </trkpt>
      <trkpt lat="48.22175" lon="-4.39839">
        <ele>75</ele>
        <time>2000-01-01T16:59:24.000Z</time>
      </trkpt>
      <trkpt lat="48.22184" lon="-4.3982">
        <ele>92.3</ele>
        <time>2000-01-01T16:59:34.000Z</time>
      </trkpt>
      <trkpt lat="48.22186" lon="-4.39789">
        <ele>78</ele>
        <time>2000-01-01T16:59:44.000Z</time>
      </trkpt>
      <trkpt lat="48.22185" lon="-4.39755">
        <ele>79</ele>
        <time>2000-01-01T16:59:54.000Z</time>
      </trkpt>
      <trkpt lat="48.22172" lon="-4.39736">
        <ele>79</ele>
        <time>2000-01-01T17:00:04.000Z</time>
      </trkpt>
      <trkpt lat="48.22161" lon="-4.39726">
        <ele>85</ele>
        <time>2000-01-01T17:00:14.000Z</time>
      </trkpt>
      <trkpt lat="48.2216" lon="-4.39687">
        <ele>71</ele>
        <time>2000-01-01T17:00:24.000Z</time>
      </trkpt>
      <trkpt lat="48.22154" lon="-4.39651">
        <ele>71</ele>
        <time>2000-01-01T17:00:34.000Z</time>
      </trkpt>
      <trkpt lat="48.22147" lon="-4.39607">
        <ele>74</ele>
        <time>2000-01-01T17:00:44.000Z</time>
      </trkpt>
      <trkpt lat="48.22143" lon="-4.39596">
        <ele>73.9</ele>
        <time>2000-01-01T17:00:54.000Z</time>
      </trkpt>
      <trkpt lat="48.2214" lon="-4.39575">
        <ele>61</ele>
        <time>2000-01-01T17:01:04.000Z</time>
      </trkpt>
      <trkpt lat="48.22134" lon="-4.39566">
        <ele>67.3</ele>
        <time>2000-01-01T17:01:14.000Z</time>
      </trkpt>
      <trkpt lat="48.22129" lon="-4.39565">
        <ele>64.2</ele>
        <time>2000-01-01T17:01:24.000Z</time>
      </trkpt>
      <trkpt lat="48.22117" lon="-4.39526">
        <ele>49</ele>
        <time>2000-01-01T17:01:34.000Z</time>
      </trkpt>
      <trkpt lat="48.221" lon="-4.39528">
        <ele>47.6</ele>
        <time>2000-01-01T17:01:44.000Z</time>
      </trkpt>
      <trkpt lat="48.22094" lon="-4.39516">
        <ele>37</ele>
        <time>2000-01-01T17:01:54.000Z</time>
      </trkpt>
      <trkpt lat="48.22092" lon="-4.3949">
        <ele>42.6</ele>
        <time>2000-01-01T17:02:04.000Z</time>
      </trkpt>
      <trkpt lat="48.22095" lon="-4.39409">
        <ele>32</ele>
        <time>2000-01-01T17:02:14.000Z</time>
      </trkpt>
      <trkpt lat="48.22085" lon="-4.39389">
        <ele>37.9</ele>
        <time>2000-01-01T17:02:24.000Z</time>
      </trkpt>
      <trkpt lat="48.22074" lon="-4.39373">
        <ele>27</ele>
        <time>2000-01-01T17:02:34.000Z</time>
      </trkpt>
      <trkpt lat="48.22073" lon="-4.39328">
        <ele>26</ele>
        <time>2000-01-01T17:02:44.000Z</time>
      </trkpt>
      <trkpt lat="48.2207" lon="-4.39316">
        <ele>34.1</ele>
        <time>2000-01-01T17:02:54.000Z</time>
      </trkpt>
      <trkpt lat="48.22075" lon="-4.39273">
        <ele>26</ele>
        <time>2000-01-01T17:03:04.000Z</time>
      </trkpt>
      <trkpt lat="48.22076" lon="-4.39251">
        <ele>36.2</ele>
        <time>2000-01-01T17:03:14.000Z</time>
      </trkpt>
      <trkpt lat="48.22066" lon="-4.39219">
        <ele>23</ele>
        <time>2000-01-01T17:03:24.000Z</time>
      </trkpt>
      <trkpt lat="48.22054" lon="-4.39196">
        <ele>21</ele>
        <time>2000-01-01T17:03:34.000Z</time>
      </trkpt>
      <trkpt lat="48.22015" lon="-4.39168">
        <ele>20</ele>
        <time>2000-01-01T17:03:44.000Z</time>
      </trkpt>
      <trkpt lat="48.22005" lon="-4.39148">
        <ele>30.2</ele>
        <time>2000-01-01T17:03:54.000Z</time>
      </trkpt>
      <trkpt lat="48.21994" lon="-4.39143">
        <ele>20</ele>
        <time>2000-01-01T17:04:04.000Z</time>
      </trkpt>
      <trkpt lat="48.21991" lon="-4.39138">
        <ele>31.1</ele>
        <time>2000-01-01T17:04:14.000Z</time>
      </trkpt>
      <trkpt lat="48.21975" lon="-4.39136">
        <ele>20</ele>
        <time>2000-01-01T17:04:24.000Z</time>
      </trkpt>
      <trkpt lat="48.21954" lon="-4.3914">
        <ele>20</ele>
        <time>2000-01-01T17:04:34.000Z</time>
      </trkpt>
      <trkpt lat="48.21938" lon="-4.39131">
        <ele>25.6</ele>
        <time>2000-01-01T17:04:44.000Z</time>
      </trkpt>
      <trkpt lat="48.21926" lon="-4.39126">
        <ele>20</ele>
        <time>2000-01-01T17:04:54.000Z</time>
      </trkpt>
      <trkpt lat="48.21912" lon="-4.39127">
        <ele>25</ele>
        <time>2000-01-01T17:05:04.000Z</time>
      </trkpt>
      <trkpt lat="48.21906" lon="-4.39133">
        <ele>20</ele>
        <time>2000-01-01T17:05:14.000Z</time>
      </trkpt>
      <trkpt lat="48.21902" lon="-4.39141">
        <ele>23.9</ele>
        <time>2000-01-01T17:05:24.000Z</time>
      </trkpt>
      <trkpt lat="48.21896" lon="-4.39146">
        <ele>24.1</ele>
        <time>2000-01-01T17:05:34.000Z</time>
      </trkpt>
      <trkpt lat="48.21885" lon="-4.39153">
        <ele>20</ele>
        <time>2000-01-01T17:05:44.000Z</time>
      </trkpt>
      <trkpt lat="48.21878" lon="-4.39164">
        <ele>23.8</ele>
        <time>2000-01-01T17:05:54.000Z</time>
      </trkpt>
      <trkpt lat="48.21869" lon="-4.39169">
        <ele>21</ele>
        <time>2000-01-01T17:06:04.000Z</time>
      </trkpt>
      <trkpt lat="48.21868" lon="-4.39173">
        <ele>21.7</ele>
        <time>2000-01-01T17:06:14.000Z</time>
      </trkpt>
      <trkpt lat="48.21864" lon="-4.39198">
        <ele>21</ele>
        <time>2000-01-01T17:06:24.000Z</time>
      </trkpt>
      <trkpt lat="48.21866" lon="-4.3921">
        <ele>16.1</ele>
        <time>2000-01-01T17:06:34.000Z</time>
      </trkpt>
      <trkpt lat="48.21861" lon="-4.39216">
        <ele>18.4</ele>
        <time>2000-01-01T17:06:44.000Z</time>
      </trkpt>
      <trkpt lat="48.21855" lon="-4.39215">
        <ele>21</ele>
        <time>2000-01-01T17:06:54.000Z</time>
      </trkpt>
      <trkpt lat="48.21843" lon="-4.39207">
        <ele>15.4</ele>
        <time>2000-01-01T17:07:04.000Z</time>
      </trkpt>
      <trkpt lat="48.21835" lon="-4.39189">
        <ele>16</ele>
        <time>2000-01-01T17:07:14.000Z</time>
      </trkpt>
      <trkpt lat="48.21835" lon="-4.39184">
        <ele>19.2</ele>
        <time>2000-01-01T17:07:24.000Z</time>
      </trkpt>
      <trkpt lat="48.21828" lon="-4.39174">
        <ele>17.9</ele>
        <time>2000-01-01T17:07:34.000Z</time>
      </trkpt>
      <trkpt lat="48.21827" lon="-4.39158">
        <ele>12</ele>
        <time>2000-01-01T17:07:44.000Z</time>
      </trkpt>
      <trkpt lat="48.21823" lon="-4.39143">
        <ele>21.8</ele>
        <time>2000-01-01T17:07:54.000Z</time>
      </trkpt>
      <trkpt lat="48.2182" lon="-4.39141">
        <ele>22</ele>
        <time>2000-01-01T17:08:04.000Z</time>
      </trkpt>
      <trkpt lat="48.21817" lon="-4.39141">
        <ele>21.9</ele>
        <time>2000-01-01T17:08:14.000Z</time>
      </trkpt>
      <trkpt lat="48.21802" lon="-4.39149">
        <ele>18.3</ele>
        <time>2000-01-01T17:08:24.000Z</time>
      </trkpt>
      <trkpt lat="48.21801" lon="-4.39142">
        <ele>20.5</ele>
        <time>2000-01-01T17:08:34.000Z</time>
      </trkpt>
      <trkpt lat="48.21797" lon="-4.39139">
        <ele>21</ele>
        <time>2000-01-01T17:08:44.000Z</time>
      </trkpt>
      <trkpt lat="48.21795" lon="-4.39134">
        <ele>20.6</ele>
        <time>2000-01-01T17:08:54.000Z</time>
      </trkpt>
      <trkpt lat="48.21783" lon="-4.39128">
        <ele>18.5</ele>
        <time>2000-01-01T17:09:04.000Z</time>
      </trkpt>
      <trkpt lat="48.21778" lon="-4.39111">
        <ele>16</ele>
        <time>2000-01-01T17:09:14.000Z</time>
      </trkpt>
      <trkpt lat="48.21786" lon="-4.39077">
        <ele>12.1</ele>
        <time>2000-01-01T17:09:24.000Z</time>
      </trkpt>
      <trkpt lat="48.21794" lon="-4.39066">
        <ele>13.2</ele>
        <time>2000-01-01T17:09:34.000Z</time>
      </trkpt>
      <trkpt lat="48.21799" lon="-4.39048">
        <ele>14</ele>
        <time>2000-01-01T17:09:44.000Z</time>
      </trkpt>
      <trkpt lat="48.21798" lon="-4.39027">
        <ele>12.7</ele>
        <time>2000-01-01T17:09:54.000Z</time>
      </trkpt>
      <trkpt lat="48.21803" lon="-4.38997">
        <ele>14.2</ele>
        <time>2000-01-01T17:10:04.000Z</time>
      </trkpt>
      <trkpt lat="48.21813" lon="-4.38985">
        <ele>13</ele>
        <time>2000-01-01T17:10:14.000Z</time>
      </trkpt>
      <trkpt lat="48.21833" lon="-4.38971">
        <ele>16.3</ele>
        <time>2000-01-01T17:10:24.000Z</time>
      </trkpt>
      <trkpt lat="48.21844" lon="-4.38958">
        <ele>13.3</ele>
        <time>2000-01-01T17:10:34.000Z</time>
      </trkpt>
      <trkpt lat="48.21846" lon="-4.38953">
        <ele>12</ele>
        <time>2000-01-01T17:10:44.000Z</time>
      </trkpt>
      <trkpt lat="48.21873" lon="-4.38944">
        <ele>17.8</ele>
        <time>2000-01-01T17:10:54.000Z</time>
      </trkpt>
      <trkpt lat="48.21889" lon="-4.3893">
        <ele>17.9</ele>
        <time>2000-01-01T17:11:04.000Z</time>
      </trkpt>
      <trkpt lat="48.21904" lon="-4.38914">
        <ele>18.4</ele>
        <time>2000-01-01T17:11:14.000Z</time>
      </trkpt>
      <trkpt lat="48.21913" lon="-4.38883">
        <ele>4</ele>
        <time>2000-01-01T17:11:24.000Z</time>
      </trkpt>
      <trkpt lat="48.2192" lon="-4.38876">
        <ele>17.5</ele>
        <time>2000-01-01T17:11:34.000Z</time>
      </trkpt>
      <trkpt lat="48.21937" lon="-4.38836">
        <ele>8</ele>
        <time>2000-01-01T17:11:44.000Z</time>
      </trkpt>
      <trkpt lat="48.21942" lon="-4.38815">
        <ele>20.6</ele>
        <time>2000-01-01T17:11:54.000Z</time>
      </trkpt>
      <trkpt lat="48.21948" lon="-4.38798">
        <ele>7</ele>
        <time>2000-01-01T17:12:04.000Z</time>
      </trkpt>
      <trkpt lat="48.21955" lon="-4.38758">
        <ele>7</ele>
        <time>2000-01-01T17:12:14.000Z</time>
      </trkpt>
      <trkpt lat="48.21958" lon="-4.38732">
        <ele>18.3</ele>
        <time>2000-01-01T17:12:24.000Z</time>
      </trkpt>
      <trkpt lat="48.21972" lon="-4.38653">
        <ele>12</ele>
        <time>2000-01-01T17:12:34.000Z</time>
      </trkpt>
      <trkpt lat="48.2197" lon="-4.38641">
        <ele>25.8</ele>
        <time>2000-01-01T17:12:44.000Z</time>
      </trkpt>
      <trkpt lat="48.21973" lon="-4.38634">
        <ele>28.5</ele>
        <time>2000-01-01T17:12:54.000Z</time>
      </trkpt>
      <trkpt lat="48.21972" lon="-4.38626">
        <ele>12</ele>
        <time>2000-01-01T17:13:04.000Z</time>
      </trkpt>
      <trkpt lat="48.21968" lon="-4.38614">
        <ele>26.4</ele>
        <time>2000-01-01T17:13:14.000Z</time>
      </trkpt>
      <trkpt lat="48.21966" lon="-4.38595">
        <ele>10</ele>
        <time>2000-01-01T17:13:24.000Z</time>
      </trkpt>
      <trkpt lat="48.21959" lon="-4.38578">
        <ele>23</ele>
        <time>2000-01-01T17:13:34.000Z</time>
      </trkpt>
      <trkpt lat="48.21954" lon="-4.38569">
        <ele>9</ele>
        <time>2000-01-01T17:13:44.000Z</time>
      </trkpt>
      <trkpt lat="48.2195" lon="-4.38568">
        <ele>21.9</ele>
        <time>2000-01-01T17:13:54.000Z</time>
      </trkpt>
      <trkpt lat="48.21946" lon="-4.38557">
        <ele>27.4</ele>
        <time>2000-01-01T17:14:04.000Z</time>
      </trkpt>
      <trkpt lat="48.21937" lon="-4.38502">
        <ele>6</ele>
        <time>2000-01-01T17:14:14.000Z</time>
      </trkpt>
      <trkpt lat="48.21941" lon="-4.38491">
        <ele>28</ele>
        <time>2000-01-01T17:14:24.000Z</time>
      </trkpt>
      <trkpt lat="48.21936" lon="-4.38485">
        <ele>24.3</ele>
        <time>2000-01-01T17:14:34.000Z</time>
      </trkpt>
      <trkpt lat="48.21931" lon="-4.38464">
        <ele>6</ele>
        <time>2000-01-01T17:14:44.000Z</time>
      </trkpt>
      <trkpt lat="48.21929" lon="-4.38462">
        <ele>23.4</ele>
        <time>2000-01-01T17:14:54.000Z</time>
      </trkpt>
      <trkpt lat="48.21925" lon="-4.38448">
        <ele>25</ele>
        <time>2000-01-01T17:15:04.000Z</time>
      </trkpt>
      <trkpt lat="48.21926" lon="-4.38436">
        <ele>8</ele>
        <time>2000-01-01T17:15:14.000Z</time>
      </trkpt>
      <trkpt lat="48.21927" lon="-4.38432">
        <ele>24.2</ele>
        <time>2000-01-01T17:15:24.000Z</time>
      </trkpt>
      <trkpt lat="48.21926" lon="-4.38417">
        <ele>20.5</ele>
        <time>2000-01-01T17:15:34.000Z</time>
      </trkpt>
      <trkpt lat="48.21924" lon="-4.38415">
        <ele>19.5</ele>
        <time>2000-01-01T17:15:44.000Z</time>
      </trkpt>
      <trkpt lat="48.21922" lon="-4.38398">
        <ele>12</ele>
        <time>2000-01-01T17:15:54.000Z</time>
      </trkpt>
      <trkpt lat="48.21917" lon="-4.3839">
        <ele>27.5</ele>
        <time>2000-01-01T17:16:04.000Z</time>
      </trkpt>
      <trkpt lat="48.21915" lon="-4.38374">
        <ele>12</ele>
        <time>2000-01-01T17:16:14.000Z</time>
      </trkpt>
      <trkpt lat="48.21915" lon="-4.38356">
        <ele>29.6</ele>
        <time>2000-01-01T17:16:24.000Z</time>
      </trkpt>
      <trkpt lat="48.21926" lon="-4.38321">
        <ele>12</ele>
        <time>2000-01-01T17:16:34.000Z</time>
      </trkpt>
      <trkpt lat="48.21925" lon="-4.38306">
        <ele>33.2</ele>
        <time>2000-01-01T17:16:44.000Z</time>
      </trkpt>
      <trkpt lat="48.21916" lon="-4.38286">
        <ele>10</ele>
        <time>2000-01-01T17:16:54.000Z</time>
      </trkpt>
      <trkpt lat="48.21908" lon="-4.38236">
        <ele>10</ele>
        <time>2000-01-01T17:17:04.000Z</time>
      </trkpt>
      <trkpt lat="48.21906" lon="-4.382">
        <ele>10</ele>
        <time>2000-01-01T17:17:14.000Z</time>
      </trkpt>
      <trkpt lat="48.21905" lon="-4.38159">
        <ele>11</ele>
        <time>2000-01-01T17:17:24.000Z</time>
      </trkpt>
      <trkpt lat="48.21897" lon="-4.38159">
        <ele>27.8</ele>
        <time>2000-01-01T17:17:34.000Z</time>
      </trkpt>
      <trkpt lat="48.21894" lon="-4.38156">
        <ele>26.4</ele>
        <time>2000-01-01T17:17:44.000Z</time>
      </trkpt>
      <trkpt lat="48.21895" lon="-4.38128">
        <ele>11</ele>
        <time>2000-01-01T17:17:54.000Z</time>
      </trkpt>
      <trkpt lat="48.21886" lon="-4.38107">
        <ele>23.5</ele>
        <time>2000-01-01T17:18:04.000Z</time>
      </trkpt>
      <trkpt lat="48.21885" lon="-4.38097">
        <ele>12</ele>
        <time>2000-01-01T17:18:14.000Z</time>
      </trkpt>
      <trkpt lat="48.21888" lon="-4.3809">
        <ele>25.2</ele>
        <time>2000-01-01T17:18:24.000Z</time>
      </trkpt>
      <trkpt lat="48.21888" lon="-4.38077">
        <ele>25</ele>
        <time>2000-01-01T17:18:34.000Z</time>
      </trkpt>
      <trkpt lat="48.21885" lon="-4.38049">
        <ele>12</ele>
        <time>2000-01-01T17:18:44.000Z</time>
      </trkpt>
      <trkpt lat="48.21886" lon="-4.3803">
        <ele>22.7</ele>
        <time>2000-01-01T17:18:54.000Z</time>
      </trkpt>
      <trkpt lat="48.2189" lon="-4.37992">
        <ele>12</ele>
        <time>2000-01-01T17:19:04.000Z</time>
      </trkpt>
      <trkpt lat="48.21897" lon="-4.3798">
        <ele>24.9</ele>
        <time>2000-01-01T17:19:14.000Z</time>
      </trkpt>
      <trkpt lat="48.21895" lon="-4.37943">
        <ele>10</ele>
        <time>2000-01-01T17:19:24.000Z</time>
      </trkpt>
      <trkpt lat="48.21896" lon="-4.3792">
        <ele>18.4</ele>
        <time>2000-01-01T17:19:34.000Z</time>
      </trkpt>
      <trkpt lat="48.21902" lon="-4.37891">
        <ele>9</ele>
        <time>2000-01-01T17:19:44.000Z</time>
      </trkpt>
      <trkpt lat="48.219" lon="-4.3786">
        <ele>8</ele>
        <time>2000-01-01T17:19:54.000Z</time>
      </trkpt>
      <trkpt lat="48.21902" lon="-4.3782">
        <ele>8</ele>
        <time>2000-01-01T17:20:04.000Z</time>
      </trkpt>
      <trkpt lat="48.219" lon="-4.37801">
        <ele>16.8</ele>
        <time>2000-01-01T17:20:14.000Z</time>
      </trkpt>
      <trkpt lat="48.21895" lon="-4.37782">
        <ele>7</ele>
        <time>2000-01-01T17:20:24.000Z</time>
      </trkpt>
      <trkpt lat="48.21871" lon="-4.37749">
        <ele>7</ele>
        <time>2000-01-01T17:20:34.000Z</time>
      </trkpt>
      <trkpt lat="48.21866" lon="-4.3774">
        <ele>16.4</ele>
        <time>2000-01-01T17:20:44.000Z</time>
      </trkpt>
      <trkpt lat="48.21858" lon="-4.37733">
        <ele>15.5</ele>
        <time>2000-01-01T17:20:54.000Z</time>
      </trkpt>
      <trkpt lat="48.21849" lon="-4.37731">
        <ele>7</ele>
        <time>2000-01-01T17:21:04.000Z</time>
      </trkpt>
      <trkpt lat="48.21833" lon="-4.37718">
        <ele>8</ele>
        <time>2000-01-01T17:21:14.000Z</time>
      </trkpt>
      <trkpt lat="48.21814" lon="-4.37697">
        <ele>7</ele>
        <time>2000-01-01T17:21:24.000Z</time>
      </trkpt>
      <trkpt lat="48.21799" lon="-4.37682">
        <ele>7</ele>
        <time>2000-01-01T17:21:34.000Z</time>
      </trkpt>
      <trkpt lat="48.21792" lon="-4.37658">
        <ele>11.9</ele>
        <time>2000-01-01T17:21:44.000Z</time>
      </trkpt>
      <trkpt lat="48.21771" lon="-4.37639">
        <ele>7</ele>
        <time>2000-01-01T17:21:54.000Z</time>
      </trkpt>
      <trkpt lat="48.21763" lon="-4.3763">
        <ele>9.3</ele>
        <time>2000-01-01T17:22:04.000Z</time>
      </trkpt>
      <trkpt lat="48.2173" lon="-4.3758">
        <ele>7</ele>
        <time>2000-01-01T17:22:14.000Z</time>
      </trkpt>
      <trkpt lat="48.21721" lon="-4.37551">
        <ele>7</ele>
        <time>2000-01-01T17:22:24.000Z</time>
      </trkpt>
      <trkpt lat="48.21716" lon="-4.37539">
        <ele>8.1</ele>
        <time>2000-01-01T17:22:34.000Z</time>
      </trkpt>
      <trkpt lat="48.21703" lon="-4.37522">
        <ele>8</ele>
        <time>2000-01-01T17:22:44.000Z</time>
      </trkpt>
      <trkpt lat="48.21695" lon="-4.37518">
        <ele>7</ele>
        <time>2000-01-01T17:22:54.000Z</time>
      </trkpt>
      <trkpt lat="48.21698" lon="-4.37507">
        <ele>7.2</ele>
        <time>2000-01-01T17:23:04.000Z</time>
      </trkpt>
      <trkpt lat="48.21707" lon="-4.37496">
        <ele>8</ele>
        <time>2000-01-01T17:23:14.000Z</time>
      </trkpt>
      <trkpt lat="48.21716" lon="-4.37473">
        <ele>8.7</ele>
        <time>2000-01-01T17:23:24.000Z</time>
      </trkpt>
      <trkpt lat="48.21721" lon="-4.37451">
        <ele>12</ele>
        <time>2000-01-01T17:23:34.000Z</time>
      </trkpt>
      <trkpt lat="48.21727" lon="-4.37408">
        <ele>12</ele>
        <time>2000-01-01T17:23:44.000Z</time>
      </trkpt>
      <trkpt lat="48.2175" lon="-4.37414">
        <ele>11</ele>
        <time>2000-01-01T17:23:54.000Z</time>
      </trkpt>
      <trkpt lat="48.21757" lon="-4.37413">
        <ele>11.4</ele>
        <time>2000-01-01T17:24:04.000Z</time>
      </trkpt>
      <trkpt lat="48.21761" lon="-4.37429">
        <ele>11</ele>
        <time>2000-01-01T17:24:14.000Z</time>
      </trkpt>
      <trkpt lat="48.21766" lon="-4.37431">
        <ele>11.1</ele>
        <time>2000-01-01T17:24:24.000Z</time>
      </trkpt>
      <trkpt lat="48.21784" lon="-4.37422">
        <ele>10</ele>
        <time>2000-01-01T17:24:34.000Z</time>
      </trkpt>
      <trkpt lat="48.21812" lon="-4.37399">
        <ele>10</ele>
        <time>2000-01-01T17:24:44.000Z</time>
      </trkpt>
      <trkpt lat="48.21846" lon="-4.37373">
        <ele>10</ele>
        <time>2000-01-01T17:24:54.000Z</time>
      </trkpt>
      <trkpt lat="48.21869" lon="-4.37366">
        <ele>10</ele>
        <time>2000-01-01T17:25:04.000Z</time>
      </trkpt>
      <trkpt lat="48.21894" lon="-4.37359">
        <ele>14</ele>
        <time>2000-01-01T17:25:14.000Z</time>
      </trkpt>
      <trkpt lat="48.21915" lon="-4.37345">
        <ele>15</ele>
        <time>2000-01-01T17:25:24.000Z</time>
      </trkpt>
      <trkpt lat="48.21923" lon="-4.37333">
        <ele>16.2</ele>
        <time>2000-01-01T17:25:34.000Z</time>
      </trkpt>
      <trkpt lat="48.21967" lon="-4.37299">
        <ele>17</ele>
        <time>2000-01-01T17:25:44.000Z</time>
      </trkpt>
      <trkpt lat="48.21977" lon="-4.3729">
        <ele>18.3</ele>
        <time>2000-01-01T17:25:54.000Z</time>
      </trkpt>
      <trkpt lat="48.21994" lon="-4.37259">
        <ele>20</ele>
        <time>2000-01-01T17:26:04.000Z</time>
      </trkpt>
      <trkpt lat="48.22019" lon="-4.37228">
        <ele>20</ele>
        <time>2000-01-01T17:26:14.000Z</time>
      </trkpt>
      <trkpt lat="48.22044" lon="-4.37214">
        <ele>22</ele>
        <time>2000-01-01T17:26:24.000Z</time>
      </trkpt>
      <trkpt lat="48.22083" lon="-4.37193">
        <ele>22</ele>
        <time>2000-01-01T17:26:34.000Z</time>
      </trkpt>
      <trkpt lat="48.22125" lon="-4.37173">
        <ele>23</ele>
        <time>2000-01-01T17:26:44.000Z</time>
      </trkpt>
      <trkpt lat="48.22143" lon="-4.37138">
        <ele>32</ele>
        <time>2000-01-01T17:26:54.000Z</time>
      </trkpt>
      <trkpt lat="48.22175" lon="-4.37074">
        <ele>34</ele>
        <time>2000-01-01T17:27:04.000Z</time>
      </trkpt>
      <trkpt lat="48.22189" lon="-4.37043">
        <ele>35</ele>
        <time>2000-01-01T17:27:14.000Z</time>
      </trkpt>
      <trkpt lat="48.22206" lon="-4.37006">
        <ele>41</ele>
        <time>2000-01-01T17:27:24.000Z</time>
      </trkpt>
      <trkpt lat="48.22224" lon="-4.36965">
        <ele>39</ele>
        <time>2000-01-01T17:27:34.000Z</time>
      </trkpt>
      <trkpt lat="48.22242" lon="-4.36931">
        <ele>38</ele>
        <time>2000-01-01T17:27:44.000Z</time>
      </trkpt>
      <trkpt lat="48.22274" lon="-4.36872">
        <ele>38</ele>
        <time>2000-01-01T17:27:54.000Z</time>
      </trkpt>
      <trkpt lat="48.22294" lon="-4.36847">
        <ele>38</ele>
        <time>2000-01-01T17:28:04.000Z</time>
      </trkpt>
      <trkpt lat="48.22321" lon="-4.36811">
        <ele>42</ele>
        <time>2000-01-01T17:28:14.000Z</time>
      </trkpt>
      <trkpt lat="48.22345" lon="-4.36791">
        <ele>42</ele>
        <time>2000-01-01T17:28:24.000Z</time>
      </trkpt>
      <trkpt lat="48.22381" lon="-4.3676">
        <ele>43</ele>
        <time>2000-01-01T17:28:34.000Z</time>
      </trkpt>
      <trkpt lat="48.22393" lon="-4.36727">
        <ele>45</ele>
        <time>2000-01-01T17:28:44.000Z</time>
      </trkpt>
      <trkpt lat="48.22408" lon="-4.36688">
        <ele>45</ele>
        <time>2000-01-01T17:28:54.000Z</time>
      </trkpt>
      <trkpt lat="48.22425" lon="-4.36669">
        <ele>45</ele>
        <time>2000-01-01T17:29:04.000Z</time>
      </trkpt>
      <trkpt lat="48.22446" lon="-4.36652">
        <ele>45</ele>
        <time>2000-01-01T17:29:14.000Z</time>
      </trkpt>
      <trkpt lat="48.22472" lon="-4.36631">
        <ele>45</ele>
        <time>2000-01-01T17:29:24.000Z</time>
      </trkpt>
      <trkpt lat="48.22497" lon="-4.36612">
        <ele>47</ele>
        <time>2000-01-01T17:29:34.000Z</time>
      </trkpt>
      <trkpt lat="48.22517" lon="-4.36575">
        <ele>47</ele>
        <time>2000-01-01T17:29:44.000Z</time>
      </trkpt>
      <trkpt lat="48.22533" lon="-4.36547">
        <ele>45</ele>
        <time>2000-01-01T17:29:54.000Z</time>
      </trkpt>
      <trkpt lat="48.22553" lon="-4.36512">
        <ele>43</ele>
        <time>2000-01-01T17:30:04.000Z</time>
      </trkpt>
      <trkpt lat="48.22568" lon="-4.36484">
        <ele>46</ele>
        <time>2000-01-01T17:30:14.000Z</time>
      </trkpt>
      <trkpt lat="48.22571" lon="-4.36471">
        <ele>50</ele>
        <time>2000-01-01T17:30:24.000Z</time>
      </trkpt>
      <trkpt lat="48.22626" lon="-4.36536">
        <ele>46</ele>
        <time>2000-01-01T17:30:34.000Z</time>
      </trkpt>
      <trkpt lat="48.22643" lon="-4.3656">
        <ele>46</ele>
        <time>2000-01-01T17:30:44.000Z</time>
      </trkpt>
      <trkpt lat="48.22662" lon="-4.36587">
        <ele>46</ele>
        <time>2000-01-01T17:30:54.000Z</time>
      </trkpt>
      <trkpt lat="48.22673" lon="-4.36616">
        <ele>47</ele>
        <time>2000-01-01T17:31:04.000Z</time>
      </trkpt>
      <trkpt lat="48.22684" lon="-4.36647">
        <ele>47</ele>
        <time>2000-01-01T17:31:14.000Z</time>
      </trkpt>
      <trkpt lat="48.22694" lon="-4.36635">
        <ele>61.8</ele>
        <time>2000-01-01T17:31:24.000Z</time>
      </trkpt>
      <trkpt lat="48.22702" lon="-4.36607">
        <ele>47</ele>
        <time>2000-01-01T17:31:34.000Z</time>
      </trkpt>
      <trkpt lat="48.22715" lon="-4.36571">
        <ele>51</ele>
        <time>2000-01-01T17:31:44.000Z</time>
      </trkpt>
      <trkpt lat="48.22736" lon="-4.36515">
        <ele>55</ele>
        <time>2000-01-01T17:31:54.000Z</time>
      </trkpt>
      <trkpt lat="48.22748" lon="-4.36479">
        <ele>55</ele>
        <time>2000-01-01T17:32:04.000Z</time>
      </trkpt>
      <trkpt lat="48.22767" lon="-4.36418">
        <ele>56</ele>
        <time>2000-01-01T17:32:14.000Z</time>
      </trkpt>
      <trkpt lat="48.22775" lon="-4.36382">
        <ele>55</ele>
        <time>2000-01-01T17:32:24.000Z</time>
      </trkpt>
      <trkpt lat="48.22773" lon="-4.36373">
        <ele>65.6</ele>
        <time>2000-01-01T17:32:34.000Z</time>
      </trkpt>
      <trkpt lat="48.22769" lon="-4.36366">
        <ele>65.1</ele>
        <time>2000-01-01T17:32:44.000Z</time>
      </trkpt>
      <trkpt lat="48.22722" lon="-4.36354">
        <ele>59</ele>
        <time>2000-01-01T17:32:54.000Z</time>
      </trkpt>
      <trkpt lat="48.22717" lon="-4.36341">
        <ele>58.7</ele>
        <time>2000-01-01T17:33:04.000Z</time>
      </trkpt>
      <trkpt lat="48.22795" lon="-4.36226">
        <ele>59</ele>
        <time>2000-01-01T17:33:14.000Z</time>
      </trkpt>
      <trkpt lat="48.22816" lon="-4.36184">
        <ele>59</ele>
        <time>2000-01-01T17:33:24.000Z</time>
      </trkpt>
      <trkpt lat="48.22828" lon="-4.36154">
        <ele>60</ele>
        <time>2000-01-01T17:33:34.000Z</time>
      </trkpt>
      <trkpt lat="48.22836" lon="-4.36117">
        <ele>60</ele>
        <time>2000-01-01T17:33:44.000Z</time>
      </trkpt>
      <trkpt lat="48.22848" lon="-4.36067">
        <ele>63</ele>
        <time>2000-01-01T17:33:54.000Z</time>
      </trkpt>
      <trkpt lat="48.22858" lon="-4.3602">
        <ele>69</ele>
        <time>2000-01-01T17:34:04.000Z</time>
      </trkpt>
      <trkpt lat="48.22868" lon="-4.35981">
        <ele>72</ele>
        <time>2000-01-01T17:34:14.000Z</time>
      </trkpt>
      <trkpt lat="48.22884" lon="-4.35916">
        <ele>74</ele>
        <time>2000-01-01T17:34:24.000Z</time>
      </trkpt>
      <trkpt lat="48.22889" lon="-4.35902">
        <ele>77</ele>
        <time>2000-01-01T17:34:34.000Z</time>
      </trkpt>
      <trkpt lat="48.22956" lon="-4.35651">
        <ele>77</ele>
        <time>2000-01-01T17:34:44.000Z</time>
      </trkpt>
      <trkpt lat="48.22982" lon="-4.35652">
        <ele>76</ele>
        <time>2000-01-01T17:34:54.000Z</time>
      </trkpt>
      <trkpt lat="48.2302" lon="-4.35654">
        <ele>76</ele>
        <time>2000-01-01T17:35:04.000Z</time>
      </trkpt>
      <trkpt lat="48.23048" lon="-4.35653">
        <ele>79</ele>
        <time>2000-01-01T17:35:14.000Z</time>
      </trkpt>
      <trkpt lat="48.23095" lon="-4.35652">
        <ele>82</ele>
        <time>2000-01-01T17:35:24.000Z</time>
      </trkpt>
      <trkpt lat="48.23121" lon="-4.35657">
        <ele>84</ele>
        <time>2000-01-01T17:35:34.000Z</time>
      </trkpt>
      <trkpt lat="48.23155" lon="-4.35663">
        <ele>90</ele>
        <time>2000-01-01T17:35:44.000Z</time>
      </trkpt>
      <trkpt lat="48.2316" lon="-4.35671">
        <ele>92.8</ele>
        <time>2000-01-01T17:35:54.000Z</time>
      </trkpt>
      <trkpt lat="48.23172" lon="-4.35673">
        <ele>90</ele>
        <time>2000-01-01T17:36:04.000Z</time>
      </trkpt>
    </trkseg>
  </trk>
</gpx>